<?xml version='1.0' encoding='UTF-8'?><gpx version="1.1" creator="JPX - https://github.com/jenetics/jpx" xmlns="http://www.topografix.com/GPX/1/1"><trk><trkseg><trkpt lat="44.5313082" lon="10.8920466"><ele>118.99999999999999</ele><time>2026-04-19T08:17:06.011Z</time></trkpt><trkpt lat="44.5312431" lon="10.8920271"><ele>119.0</ele><time>2026-04-19T08:17:08.011Z</time></trkpt><trkpt lat="44.5311761" lon="10.8919988"><ele>119.0</ele><time>2026-04-19T08:17:10.011Z</time></trkpt><trkpt lat="44.5310972" lon="10.8919484"><ele>119.0</ele><time>2026-04-19T08:17:12.011Z</time></trkpt><trkpt lat="44.5310241" lon="10.8918892"><ele>118.99999999999999</ele><time>2026-04-19T08:17:14.011Z</time></trkpt><trkpt lat="44.5309716" lon="10.8918231"><ele>119.0</ele><time>2026-04-19T08:17:16.011Z</time></trkpt><trkpt lat="44.5309461" lon="10.8917205"><ele>119.0</ele><time>2026-04-19T08:17:22.011Z</time></trkpt><trkpt lat="44.5309885" lon="10.8915423"><ele>119.0</ele><time>2026-04-19T08:17:24.011Z</time></trkpt><trkpt lat="44.5310206" lon="10.8914402"><ele>119.0</ele><time>2026-04-19T08:17:25.01Z</time></trkpt><trkpt lat="44.531059" lon="10.8913207"><ele>119.0</ele><time>2026-04-19T08:17:26.011Z</time></trkpt><trkpt lat="44.5311023" lon="10.8911797"><ele>119.0</ele><time>2026-04-19T08:17:27.01Z</time></trkpt><trkpt lat="44.5311486" lon="10.8910244"><ele>119.0</ele><time>2026-04-19T08:17:28.011Z</time></trkpt><trkpt lat="44.5311946" lon="10.8908685"><ele>119.0</ele><time>2026-04-19T08:17:29.011Z</time></trkpt><trkpt lat="44.5312477" lon="10.8906958"><ele>119.0</ele><time>2026-04-19T08:17:30.01Z</time></trkpt><trkpt lat="44.5313051" lon="10.890515"><ele>119.0</ele><time>2026-04-19T08:17:31.01Z</time></trkpt><trkpt lat="44.5313653" lon="10.890324"><ele>118.5</ele><time>2026-04-19T08:17:32.01Z</time></trkpt><trkpt lat="44.5314284" lon="10.8901274"><ele>118.0</ele><time>2026-04-19T08:17:33.011Z</time></trkpt><trkpt lat="44.5314874" lon="10.889949"><ele>117.5</ele><time>2026-04-19T08:17:34.01Z</time></trkpt><trkpt lat="44.5315434" lon="10.8897768"><ele>117.0</ele><time>2026-04-19T08:17:35.01Z</time></trkpt><trkpt lat="44.5315955" lon="10.8896098"><ele>117.0</ele><time>2026-04-19T08:17:36.011Z</time></trkpt><trkpt lat="44.5316432" lon="10.889445"><ele>117.0</ele><time>2026-04-19T08:17:37.011Z</time></trkpt><trkpt lat="44.531692" lon="10.8892708"><ele>117.0</ele><time>2026-04-19T08:17:38.011Z</time></trkpt><trkpt lat="44.5317407" lon="10.8890924"><ele>117.0</ele><time>2026-04-19T08:17:39.011Z</time></trkpt><trkpt lat="44.5317867" lon="10.8889077"><ele>117.0</ele><time>2026-04-19T08:17:40.011Z</time></trkpt><trkpt lat="44.5318319" lon="10.8887172"><ele>117.0</ele><time>2026-04-19T08:17:41.011Z</time></trkpt><trkpt lat="44.5318796" lon="10.8885141"><ele>117.0</ele><time>2026-04-19T08:17:42.01Z</time></trkpt><trkpt lat="44.5319294" lon="10.8883031"><ele>116.66666666666666</ele><time>2026-04-19T08:17:43.011Z</time></trkpt><trkpt lat="44.5319771" lon="10.8880771"><ele>116.33333333333333</ele><time>2026-04-19T08:17:44.01Z</time></trkpt><trkpt lat="44.5320254" lon="10.8878415"><ele>116.0</ele><time>2026-04-19T08:17:45.011Z</time></trkpt><trkpt lat="44.532071" lon="10.8876148"><ele>116.33333333333333</ele><time>2026-04-19T08:17:46.01Z</time></trkpt><trkpt lat="44.5321151" lon="10.8873968"><ele>116.66666666666666</ele><time>2026-04-19T08:17:47.01Z</time></trkpt><trkpt lat="44.5321593" lon="10.8871847"><ele>117.0</ele><time>2026-04-19T08:17:48.01Z</time></trkpt><trkpt lat="44.5322005" lon="10.8869783"><ele>117.0</ele><time>2026-04-19T08:17:49.011Z</time></trkpt><trkpt lat="44.5322392" lon="10.8867809"><ele>117.0</ele><time>2026-04-19T08:17:50.01Z</time></trkpt><trkpt lat="44.5322778" lon="10.8865908"><ele>117.0</ele><time>2026-04-19T08:17:51.011Z</time></trkpt><trkpt lat="44.532313" lon="10.8864257"><ele>117.0</ele><time>2026-04-19T08:17:52.011Z</time></trkpt><trkpt lat="44.5323462" lon="10.8862814"><ele>117.16666666666667</ele><time>2026-04-19T08:17:53.01Z</time></trkpt><trkpt lat="44.5323756" lon="10.8861609"><ele>117.33333333333334</ele><time>2026-04-19T08:17:54.01Z</time></trkpt><trkpt lat="44.5324041" lon="10.8860525"><ele>117.5</ele><time>2026-04-19T08:17:55.011Z</time></trkpt><trkpt lat="44.5324259" lon="10.8859627"><ele>117.66666666666667</ele><time>2026-04-19T08:17:56.01Z</time></trkpt><trkpt lat="44.5324512" lon="10.8858569"><ele>117.83333333333334</ele><time>2026-04-19T08:17:58.011Z</time></trkpt><trkpt lat="44.5324693" lon="10.885768"><ele>118.0</ele><time>2026-04-19T08:18:10.01Z</time></trkpt><trkpt lat="44.5324857" lon="10.8856073"><ele>118.60000000000001</ele><time>2026-04-19T08:18:19.011Z</time></trkpt><trkpt lat="44.5325046" lon="10.8854901"><ele>119.20000000000002</ele><time>2026-04-19T08:18:20.01Z</time></trkpt><trkpt lat="44.5325293" lon="10.8853628"><ele>119.8</ele><time>2026-04-19T08:18:21.01Z</time></trkpt><trkpt lat="44.5325586" lon="10.8852001"><ele>120.4</ele><time>2026-04-19T08:18:22.011Z</time></trkpt><trkpt lat="44.5325917" lon="10.8850172"><ele>121.0</ele><time>2026-04-19T08:18:23.01Z</time></trkpt><trkpt lat="44.5326271" lon="10.8848196"><ele>121.0</ele><time>2026-04-19T08:18:24.011Z</time></trkpt><trkpt lat="44.5326676" lon="10.8846054"><ele>121.0</ele><time>2026-04-19T08:18:25.011Z</time></trkpt><trkpt lat="44.5327125" lon="10.8843756"><ele>121.0</ele><time>2026-04-19T08:18:26.01Z</time></trkpt><trkpt lat="44.5327585" lon="10.8841443"><ele>120.33333333333334</ele><time>2026-04-19T08:18:27.01Z</time></trkpt><trkpt lat="44.5328064" lon="10.8838969"><ele>119.66666666666666</ele><time>2026-04-19T08:18:28.009Z</time></trkpt><trkpt lat="44.5328586" lon="10.8836425"><ele>119.0</ele><time>2026-04-19T08:18:29.011Z</time></trkpt><trkpt lat="44.5329101" lon="10.8833776"><ele>118.66666666666666</ele><time>2026-04-19T08:18:30.01Z</time></trkpt><trkpt lat="44.5329662" lon="10.8831043"><ele>118.33333333333334</ele><time>2026-04-19T08:18:31.01Z</time></trkpt><trkpt lat="44.5330252" lon="10.8828259"><ele>118.0</ele><time>2026-04-19T08:18:32.01Z</time></trkpt><trkpt lat="44.5330826" lon="10.8825385"><ele>118.0</ele><time>2026-04-19T08:18:33.011Z</time></trkpt><trkpt lat="44.5331469" lon="10.8822293"><ele>118.0</ele><time>2026-04-19T08:18:34.011Z</time></trkpt><trkpt lat="44.5332073" lon="10.8819252"><ele>117.5</ele><time>2026-04-19T08:18:35.01Z</time></trkpt><trkpt lat="44.5332708" lon="10.8816147"><ele>117.0</ele><time>2026-04-19T08:18:36.011Z</time></trkpt><trkpt lat="44.5333328" lon="10.8813028"><ele>117.0</ele><time>2026-04-19T08:18:37.011Z</time></trkpt><trkpt lat="44.5333959" lon="10.8809929"><ele>117.0</ele><time>2026-04-19T08:18:38.01Z</time></trkpt><trkpt lat="44.533455" lon="10.8806795"><ele>117.5</ele><time>2026-04-19T08:18:39.01Z</time></trkpt><trkpt lat="44.5335186" lon="10.8803701"><ele>118.0</ele><time>2026-04-19T08:18:40.011Z</time></trkpt><trkpt lat="44.5335779" lon="10.8800645"><ele>118.0</ele><time>2026-04-19T08:18:41.011Z</time></trkpt><trkpt lat="44.533636" lon="10.8797605"><ele>118.0</ele><time>2026-04-19T08:18:42.01Z</time></trkpt><trkpt lat="44.5336972" lon="10.8794586"><ele>118.0</ele><time>2026-04-19T08:18:43.011Z</time></trkpt><trkpt lat="44.5337549" lon="10.8791588"><ele>118.0</ele><time>2026-04-19T08:18:44.01Z</time></trkpt><trkpt lat="44.5338154" lon="10.8788647"><ele>118.0</ele><time>2026-04-19T08:18:45.009Z</time></trkpt><trkpt lat="44.5338729" lon="10.8785654"><ele>118.0</ele><time>2026-04-19T08:18:46.01Z</time></trkpt><trkpt lat="44.5339265" lon="10.8782768"><ele>118.0</ele><time>2026-04-19T08:18:47.01Z</time></trkpt><trkpt lat="44.5339808" lon="10.8779752"><ele>118.0</ele><time>2026-04-19T08:18:48.011Z</time></trkpt><trkpt lat="44.5340421" lon="10.8776778"><ele>118.0</ele><time>2026-04-19T08:18:49.01Z</time></trkpt><trkpt lat="44.5341015" lon="10.8773802"><ele>118.0</ele><time>2026-04-19T08:18:50.01Z</time></trkpt><trkpt lat="44.5341625" lon="10.8770838"><ele>118.0</ele><time>2026-04-19T08:18:51.009Z</time></trkpt><trkpt lat="44.5342209" lon="10.8767913"><ele>118.0</ele><time>2026-04-19T08:18:52.011Z</time></trkpt><trkpt lat="44.5342778" lon="10.8765023"><ele>118.0</ele><time>2026-04-19T08:18:53.009Z</time></trkpt><trkpt lat="44.5343327" lon="10.8762123"><ele>118.0</ele><time>2026-04-19T08:18:54.011Z</time></trkpt><trkpt lat="44.5343913" lon="10.8759262"><ele>118.0</ele><time>2026-04-19T08:18:55.011Z</time></trkpt><trkpt lat="44.5344482" lon="10.875639"><ele>118.33333333333334</ele><time>2026-04-19T08:18:56.01Z</time></trkpt><trkpt lat="44.5345057" lon="10.8753467"><ele>118.66666666666666</ele><time>2026-04-19T08:18:57.01Z</time></trkpt><trkpt lat="44.5345697" lon="10.8750507"><ele>119.0</ele><time>2026-04-19T08:18:58.011Z</time></trkpt><trkpt lat="44.5346373" lon="10.8747514"><ele>118.0</ele><time>2026-04-19T08:18:59.01Z</time></trkpt><trkpt lat="44.5346972" lon="10.8744377"><ele>117.0</ele><time>2026-04-19T08:19:00.011Z</time></trkpt><trkpt lat="44.5347579" lon="10.8741169"><ele>116.5</ele><time>2026-04-19T08:19:01.01Z</time></trkpt><trkpt lat="44.5348235" lon="10.8737854"><ele>116.0</ele><time>2026-04-19T08:19:02.011Z</time></trkpt><trkpt lat="44.5348897" lon="10.8734558"><ele>116.5</ele><time>2026-04-19T08:19:03.01Z</time></trkpt><trkpt lat="44.5349566" lon="10.8731284"><ele>117.0</ele><time>2026-04-19T08:19:04.01Z</time></trkpt><trkpt lat="44.5350227" lon="10.8727998"><ele>117.0</ele><time>2026-04-19T08:19:05.011Z</time></trkpt><trkpt lat="44.5350867" lon="10.8724751"><ele>117.0</ele><time>2026-04-19T08:19:06.009Z</time></trkpt><trkpt lat="44.53515" lon="10.8721468"><ele>117.0</ele><time>2026-04-19T08:19:07.011Z</time></trkpt><trkpt lat="44.5352147" lon="10.8718219"><ele>117.0</ele><time>2026-04-19T08:19:08.009Z</time></trkpt><trkpt lat="44.5352779" lon="10.8715002"><ele>116.5</ele><time>2026-04-19T08:19:09.011Z</time></trkpt><trkpt lat="44.5353412" lon="10.8711826"><ele>116.0</ele><time>2026-04-19T08:19:10.01Z</time></trkpt><trkpt lat="44.5354021" lon="10.8708695"><ele>115.0</ele><time>2026-04-19T08:19:11.01Z</time></trkpt><trkpt lat="44.5354636" lon="10.8705559"><ele>114.0</ele><time>2026-04-19T08:19:12.011Z</time></trkpt><trkpt lat="44.5355259" lon="10.8702411"><ele>116.0</ele><time>2026-04-19T08:19:13.009Z</time></trkpt><trkpt lat="44.5355866" lon="10.8699285"><ele>118.0</ele><time>2026-04-19T08:19:14.011Z</time></trkpt><trkpt lat="44.5356482" lon="10.8696207"><ele>118.0</ele><time>2026-04-19T08:19:15.011Z</time></trkpt><trkpt lat="44.5357115" lon="10.8693159"><ele>118.0</ele><time>2026-04-19T08:19:16.011Z</time></trkpt><trkpt lat="44.5357733" lon="10.8690111"><ele>118.0</ele><time>2026-04-19T08:19:17.011Z</time></trkpt><trkpt lat="44.5358357" lon="10.8687058"><ele>118.0</ele><time>2026-04-19T08:19:18.01Z</time></trkpt><trkpt lat="44.5358938" lon="10.8684018"><ele>119.0</ele><time>2026-04-19T08:19:19.01Z</time></trkpt><trkpt lat="44.5359515" lon="10.8680962"><ele>120.0</ele><time>2026-04-19T08:19:20.011Z</time></trkpt><trkpt lat="44.5360113" lon="10.867791"><ele>120.33333333333334</ele><time>2026-04-19T08:19:21.01Z</time></trkpt><trkpt lat="44.5360743" lon="10.8674872"><ele>120.66666666666667</ele><time>2026-04-19T08:19:22.011Z</time></trkpt><trkpt lat="44.5361393" lon="10.8671868"><ele>121.0</ele><time>2026-04-19T08:19:23.01Z</time></trkpt><trkpt lat="44.5362005" lon="10.8668747"><ele>121.0</ele><time>2026-04-19T08:19:24.01Z</time></trkpt><trkpt lat="44.5362599" lon="10.8665704"><ele>121.0</ele><time>2026-04-19T08:19:25.009Z</time></trkpt><trkpt lat="44.5363243" lon="10.8662598"><ele>121.0</ele><time>2026-04-19T08:19:26.01Z</time></trkpt><trkpt lat="44.5363981" lon="10.8659627"><ele>121.0</ele><time>2026-04-19T08:19:27.011Z</time></trkpt><trkpt lat="44.5364861" lon="10.8656617"><ele>120.0</ele><time>2026-04-19T08:19:28.01Z</time></trkpt><trkpt lat="44.5365853" lon="10.865377"><ele>119.0</ele><time>2026-04-19T08:19:29.011Z</time></trkpt><trkpt lat="44.5366943" lon="10.865092"><ele>119.0</ele><time>2026-04-19T08:19:30.011Z</time></trkpt><trkpt lat="44.5368093" lon="10.8648177"><ele>119.0</ele><time>2026-04-19T08:19:31.011Z</time></trkpt><trkpt lat="44.5369321" lon="10.8645555"><ele>119.5</ele><time>2026-04-19T08:19:32.01Z</time></trkpt><trkpt lat="44.5370682" lon="10.8642986"><ele>120.0</ele><time>2026-04-19T08:19:33.01Z</time></trkpt><trkpt lat="44.5372032" lon="10.8640445"><ele>118.5</ele><time>2026-04-19T08:19:34.01Z</time></trkpt><trkpt lat="44.5373592" lon="10.8638153"><ele>117.0</ele><time>2026-04-19T08:19:35.009Z</time></trkpt><trkpt lat="44.5375047" lon="10.8635629"><ele>116.5</ele><time>2026-04-19T08:19:36.011Z</time></trkpt><trkpt lat="44.5376465" lon="10.8633096"><ele>116.0</ele><time>2026-04-19T08:19:37.01Z</time></trkpt><trkpt lat="44.5377837" lon="10.8630447"><ele>116.0</ele><time>2026-04-19T08:19:38.011Z</time></trkpt><trkpt lat="44.5379059" lon="10.8627707"><ele>116.0</ele><time>2026-04-19T08:19:39.009Z</time></trkpt><trkpt lat="44.5380202" lon="10.8624827"><ele>116.0</ele><time>2026-04-19T08:19:40.011Z</time></trkpt><trkpt lat="44.5381246" lon="10.862181"><ele>116.0</ele><time>2026-04-19T08:19:41.009Z</time></trkpt><trkpt lat="44.5382246" lon="10.8618779"><ele>116.0</ele><time>2026-04-19T08:19:42.011Z</time></trkpt><trkpt lat="44.538307" lon="10.8615517"><ele>116.0</ele><time>2026-04-19T08:19:43.011Z</time></trkpt><trkpt lat="44.5383923" lon="10.8612364"><ele>116.5</ele><time>2026-04-19T08:19:44.011Z</time></trkpt><trkpt lat="44.5384728" lon="10.8609189"><ele>117.0</ele><time>2026-04-19T08:19:45.01Z</time></trkpt><trkpt lat="44.5385519" lon="10.8606136"><ele>117.0</ele><time>2026-04-19T08:19:46.01Z</time></trkpt><trkpt lat="44.538633" lon="10.8603144"><ele>117.0</ele><time>2026-04-19T08:19:47.01Z</time></trkpt><trkpt lat="44.53872" lon="10.8600179"><ele>116.66666666666666</ele><time>2026-04-19T08:19:48.011Z</time></trkpt><trkpt lat="44.5388111" lon="10.8597398"><ele>116.33333333333333</ele><time>2026-04-19T08:19:49.01Z</time></trkpt><trkpt lat="44.5389063" lon="10.8594816"><ele>116.0</ele><time>2026-04-19T08:19:50.011Z</time></trkpt><trkpt lat="44.5389995" lon="10.8592341"><ele>116.0</ele><time>2026-04-19T08:19:51.011Z</time></trkpt><trkpt lat="44.5390912" lon="10.8590019"><ele>116.0</ele><time>2026-04-19T08:19:52.01Z</time></trkpt><trkpt lat="44.5391759" lon="10.8587914"><ele>116.0</ele><time>2026-04-19T08:19:53.01Z</time></trkpt><trkpt lat="44.539262" lon="10.8585951"><ele>116.33333333333333</ele><time>2026-04-19T08:19:54.011Z</time></trkpt><trkpt lat="44.5393398" lon="10.8584063"><ele>116.66666666666666</ele><time>2026-04-19T08:19:55.011Z</time></trkpt><trkpt lat="44.539423" lon="10.8582215"><ele>117.0</ele><time>2026-04-19T08:19:56.011Z</time></trkpt><trkpt lat="44.5395078" lon="10.8580244"><ele>117.0</ele><time>2026-04-19T08:19:57.011Z</time></trkpt><trkpt lat="44.5395973" lon="10.8578258"><ele>117.0</ele><time>2026-04-19T08:19:58.01Z</time></trkpt><trkpt lat="44.5396831" lon="10.8576248"><ele>117.0</ele><time>2026-04-19T08:19:59.011Z</time></trkpt><trkpt lat="44.5397672" lon="10.8574253"><ele>117.0</ele><time>2026-04-19T08:20:00.01Z</time></trkpt><trkpt lat="44.5398512" lon="10.8572279"><ele>117.0</ele><time>2026-04-19T08:20:01.011Z</time></trkpt><trkpt lat="44.5399359" lon="10.8570317"><ele>117.0</ele><time>2026-04-19T08:20:02.009Z</time></trkpt><trkpt lat="44.5400174" lon="10.8568398"><ele>116.66666666666666</ele><time>2026-04-19T08:20:03.009Z</time></trkpt><trkpt lat="44.5400969" lon="10.8566513"><ele>116.33333333333333</ele><time>2026-04-19T08:20:04.01Z</time></trkpt><trkpt lat="44.5401733" lon="10.8564563"><ele>116.0</ele><time>2026-04-19T08:20:05.011Z</time></trkpt><trkpt lat="44.5402448" lon="10.856262"><ele>116.0</ele><time>2026-04-19T08:20:06.011Z</time></trkpt><trkpt lat="44.5403173" lon="10.8560444"><ele>116.0</ele><time>2026-04-19T08:20:07.011Z</time></trkpt><trkpt lat="44.5403856" lon="10.855836"><ele>116.0</ele><time>2026-04-19T08:20:08.01Z</time></trkpt><trkpt lat="44.5404482" lon="10.8556333"><ele>115.25</ele><time>2026-04-19T08:20:09.011Z</time></trkpt><trkpt lat="44.5405073" lon="10.8554466"><ele>114.5</ele><time>2026-04-19T08:20:10.01Z</time></trkpt><trkpt lat="44.5405643" lon="10.8552584"><ele>113.75</ele><time>2026-04-19T08:20:11.01Z</time></trkpt><trkpt lat="44.5406219" lon="10.8550781"><ele>113.0</ele><time>2026-04-19T08:20:12.01Z</time></trkpt><trkpt lat="44.5406807" lon="10.8548917"><ele>112.66666666666666</ele><time>2026-04-19T08:20:13.011Z</time></trkpt><trkpt lat="44.5407394" lon="10.8546935"><ele>112.33333333333334</ele><time>2026-04-19T08:20:14.01Z</time></trkpt><trkpt lat="44.5407995" lon="10.8544856"><ele>112.0</ele><time>2026-04-19T08:20:15.01Z</time></trkpt><trkpt lat="44.5408607" lon="10.8542683"><ele>112.0</ele><time>2026-04-19T08:20:16.009Z</time></trkpt><trkpt lat="44.5409232" lon="10.8540427"><ele>112.0</ele><time>2026-04-19T08:20:17.009Z</time></trkpt><trkpt lat="44.5409855" lon="10.8538015"><ele>112.0</ele><time>2026-04-19T08:20:18.01Z</time></trkpt><trkpt lat="44.5410512" lon="10.8535634"><ele>112.0</ele><time>2026-04-19T08:20:19.009Z</time></trkpt><trkpt lat="44.5411148" lon="10.8533188"><ele>112.0</ele><time>2026-04-19T08:20:20.011Z</time></trkpt><trkpt lat="44.5411829" lon="10.8530744"><ele>112.0</ele><time>2026-04-19T08:20:21.01Z</time></trkpt><trkpt lat="44.5412463" lon="10.8528353"><ele>112.0</ele><time>2026-04-19T08:20:22.01Z</time></trkpt><trkpt lat="44.5413115" lon="10.8525957"><ele>112.0</ele><time>2026-04-19T08:20:23.01Z</time></trkpt><trkpt lat="44.5413804" lon="10.8523593"><ele>112.0</ele><time>2026-04-19T08:20:24.01Z</time></trkpt><trkpt lat="44.5414421" lon="10.8521222"><ele>112.0</ele><time>2026-04-19T08:20:25.01Z</time></trkpt><trkpt lat="44.5415048" lon="10.8518894"><ele>112.0</ele><time>2026-04-19T08:20:26.011Z</time></trkpt><trkpt lat="44.5415696" lon="10.8516575"><ele>112.0</ele><time>2026-04-19T08:20:27.011Z</time></trkpt><trkpt lat="44.5416403" lon="10.8513984"><ele>111.66666666666667</ele><time>2026-04-19T08:20:28.011Z</time></trkpt><trkpt lat="44.5417187" lon="10.8511206"><ele>111.33333333333334</ele><time>2026-04-19T08:20:29.01Z</time></trkpt><trkpt lat="44.5418044" lon="10.8508217"><ele>111.0</ele><time>2026-04-19T08:20:30.009Z</time></trkpt><trkpt lat="44.5418841" lon="10.8505281"><ele>112.0</ele><time>2026-04-19T08:20:31.011Z</time></trkpt><trkpt lat="44.541966" lon="10.8502318"><ele>113.0</ele><time>2026-04-19T08:20:32.011Z</time></trkpt><trkpt lat="44.5420485" lon="10.8499402"><ele>114.33333333333333</ele><time>2026-04-19T08:20:33.011Z</time></trkpt><trkpt lat="44.5421297" lon="10.8496502"><ele>115.66666666666666</ele><time>2026-04-19T08:20:34.011Z</time></trkpt><trkpt lat="44.5422096" lon="10.8493572"><ele>117.0</ele><time>2026-04-19T08:20:35.011Z</time></trkpt><trkpt lat="44.5422866" lon="10.8490713"><ele>117.0</ele><time>2026-04-19T08:20:36.01Z</time></trkpt><trkpt lat="44.5423573" lon="10.848801"><ele>117.0</ele><time>2026-04-19T08:20:37.01Z</time></trkpt><trkpt lat="44.5424261" lon="10.8485425"><ele>117.0</ele><time>2026-04-19T08:20:38.01Z</time></trkpt><trkpt lat="44.5424928" lon="10.8482973"><ele>117.0</ele><time>2026-04-19T08:20:39.011Z</time></trkpt><trkpt lat="44.5425558" lon="10.848064"><ele>117.0</ele><time>2026-04-19T08:20:40.011Z</time></trkpt><trkpt lat="44.5426163" lon="10.8478418"><ele>117.0</ele><time>2026-04-19T08:20:41.01Z</time></trkpt><trkpt lat="44.5426806" lon="10.8476134"><ele>117.33333333333334</ele><time>2026-04-19T08:20:42.011Z</time></trkpt><trkpt lat="44.5427449" lon="10.8473847"><ele>117.66666666666667</ele><time>2026-04-19T08:20:43.011Z</time></trkpt><trkpt lat="44.542812" lon="10.8471641"><ele>118.0</ele><time>2026-04-19T08:20:44.01Z</time></trkpt><trkpt lat="44.5428717" lon="10.8469387"><ele>116.66666666666667</ele><time>2026-04-19T08:20:45.01Z</time></trkpt><trkpt lat="44.5429314" lon="10.8467145"><ele>115.33333333333334</ele><time>2026-04-19T08:20:46.01Z</time></trkpt><trkpt lat="44.5429941" lon="10.8464782"><ele>114.0</ele><time>2026-04-19T08:20:47.009Z</time></trkpt><trkpt lat="44.5430564" lon="10.8462321"><ele>114.0</ele><time>2026-04-19T08:20:48.01Z</time></trkpt><trkpt lat="44.5431218" lon="10.8459932"><ele>114.0</ele><time>2026-04-19T08:20:49.01Z</time></trkpt><trkpt lat="44.5431919" lon="10.845753"><ele>114.0</ele><time>2026-04-19T08:20:50.009Z</time></trkpt><trkpt lat="44.5432605" lon="10.8455054"><ele>114.33333333333334</ele><time>2026-04-19T08:20:51.01Z</time></trkpt><trkpt lat="44.5433316" lon="10.8452521"><ele>114.66666666666667</ele><time>2026-04-19T08:20:52.011Z</time></trkpt><trkpt lat="44.5434061" lon="10.845001"><ele>115.0</ele><time>2026-04-19T08:20:53.011Z</time></trkpt><trkpt lat="44.5434804" lon="10.8447422"><ele>115.0</ele><time>2026-04-19T08:20:54.01Z</time></trkpt><trkpt lat="44.5435549" lon="10.8444825"><ele>115.0</ele><time>2026-04-19T08:20:55.008Z</time></trkpt><trkpt lat="44.5436216" lon="10.8442319"><ele>115.0</ele><time>2026-04-19T08:20:56.01Z</time></trkpt><trkpt lat="44.5436869" lon="10.8439867"><ele>115.0</ele><time>2026-04-19T08:20:57.01Z</time></trkpt><trkpt lat="44.5437587" lon="10.8437344"><ele>115.0</ele><time>2026-04-19T08:20:58.011Z</time></trkpt><trkpt lat="44.5438332" lon="10.8434829"><ele>115.0</ele><time>2026-04-19T08:20:59.01Z</time></trkpt><trkpt lat="44.5439146" lon="10.8432363"><ele>114.33333333333334</ele><time>2026-04-19T08:21:00.011Z</time></trkpt><trkpt lat="44.5440035" lon="10.8429894"><ele>113.66666666666666</ele><time>2026-04-19T08:21:01.011Z</time></trkpt><trkpt lat="44.5441056" lon="10.8427416"><ele>113.0</ele><time>2026-04-19T08:21:02.011Z</time></trkpt><trkpt lat="44.54421" lon="10.8425075"><ele>112.33333333333333</ele><time>2026-04-19T08:21:03.011Z</time></trkpt><trkpt lat="44.544316" lon="10.8422761"><ele>111.66666666666666</ele><time>2026-04-19T08:21:04.009Z</time></trkpt><trkpt lat="44.5444265" lon="10.84206"><ele>111.0</ele><time>2026-04-19T08:21:05.011Z</time></trkpt><trkpt lat="44.5445389" lon="10.841843"><ele>110.0</ele><time>2026-04-19T08:21:06.01Z</time></trkpt><trkpt lat="44.544649" lon="10.8416323"><ele>109.0</ele><time>2026-04-19T08:21:07.011Z</time></trkpt><trkpt lat="44.5447602" lon="10.8414213"><ele>108.0</ele><time>2026-04-19T08:21:08.011Z</time></trkpt><trkpt lat="44.5448747" lon="10.8412059"><ele>108.0</ele><time>2026-04-19T08:21:09.009Z</time></trkpt><trkpt lat="44.5449889" lon="10.8409841"><ele>108.0</ele><time>2026-04-19T08:21:10.01Z</time></trkpt><trkpt lat="44.5451016" lon="10.8407714"><ele>108.0</ele><time>2026-04-19T08:21:11.01Z</time></trkpt><trkpt lat="44.5452134" lon="10.8405624"><ele>108.33333333333334</ele><time>2026-04-19T08:21:12.01Z</time></trkpt><trkpt lat="44.5453226" lon="10.8403516"><ele>108.66666666666667</ele><time>2026-04-19T08:21:13.01Z</time></trkpt><trkpt lat="44.5454342" lon="10.840142"><ele>109.0</ele><time>2026-04-19T08:21:14.01Z</time></trkpt><trkpt lat="44.5455519" lon="10.8399268"><ele>109.0</ele><time>2026-04-19T08:21:15.011Z</time></trkpt><trkpt lat="44.5456693" lon="10.8397115"><ele>109.0</ele><time>2026-04-19T08:21:16.009Z</time></trkpt><trkpt lat="44.5457793" lon="10.8394958"><ele>109.0</ele><time>2026-04-19T08:21:17.009Z</time></trkpt><trkpt lat="44.5458923" lon="10.8392792"><ele>109.33333333333334</ele><time>2026-04-19T08:21:18.01Z</time></trkpt><trkpt lat="44.5460092" lon="10.8390657"><ele>109.66666666666666</ele><time>2026-04-19T08:21:19.009Z</time></trkpt><trkpt lat="44.5461253" lon="10.8388511"><ele>110.0</ele><time>2026-04-19T08:21:20.01Z</time></trkpt><trkpt lat="44.5462401" lon="10.8386323"><ele>110.0</ele><time>2026-04-19T08:21:21.011Z</time></trkpt><trkpt lat="44.5463578" lon="10.8384104"><ele>110.0</ele><time>2026-04-19T08:21:22.01Z</time></trkpt><trkpt lat="44.5464772" lon="10.8381852"><ele>110.0</ele><time>2026-04-19T08:21:23.011Z</time></trkpt><trkpt lat="44.5465989" lon="10.8379583"><ele>110.0</ele><time>2026-04-19T08:21:24.011Z</time></trkpt><trkpt lat="44.5467198" lon="10.8377315"><ele>110.0</ele><time>2026-04-19T08:21:25.01Z</time></trkpt><trkpt lat="44.5468422" lon="10.8375052"><ele>110.0</ele><time>2026-04-19T08:21:26.01Z</time></trkpt><trkpt lat="44.5469664" lon="10.8372786"><ele>110.0</ele><time>2026-04-19T08:21:27.011Z</time></trkpt><trkpt lat="44.5470859" lon="10.8370465"><ele>110.0</ele><time>2026-04-19T08:21:28.009Z</time></trkpt><trkpt lat="44.5472051" lon="10.8368269"><ele>110.0</ele><time>2026-04-19T08:21:29.011Z</time></trkpt><trkpt lat="44.5473236" lon="10.8366117"><ele>109.66666666666666</ele><time>2026-04-19T08:21:30.011Z</time></trkpt><trkpt lat="44.5474351" lon="10.8363956"><ele>109.33333333333334</ele><time>2026-04-19T08:21:31.01Z</time></trkpt><trkpt lat="44.5475492" lon="10.8361863"><ele>109.0</ele><time>2026-04-19T08:21:32.01Z</time></trkpt><trkpt lat="44.5476594" lon="10.8359702"><ele>108.33333333333334</ele><time>2026-04-19T08:21:33.009Z</time></trkpt><trkpt lat="44.547773" lon="10.8357469"><ele>107.66666666666666</ele><time>2026-04-19T08:21:34.01Z</time></trkpt><trkpt lat="44.547882" lon="10.8355261"><ele>107.0</ele><time>2026-04-19T08:21:35.01Z</time></trkpt><trkpt lat="44.5479863" lon="10.8352982"><ele>107.0</ele><time>2026-04-19T08:21:36.01Z</time></trkpt><trkpt lat="44.5480859" lon="10.8350655"><ele>107.0</ele><time>2026-04-19T08:21:37.01Z</time></trkpt><trkpt lat="44.5481784" lon="10.8348418"><ele>107.0</ele><time>2026-04-19T08:21:38.011Z</time></trkpt><trkpt lat="44.5482599" lon="10.8346214"><ele>107.0</ele><time>2026-04-19T08:21:39.011Z</time></trkpt><trkpt lat="44.5483377" lon="10.8344043"><ele>107.0</ele><time>2026-04-19T08:21:40.009Z</time></trkpt><trkpt lat="44.5484159" lon="10.8341882"><ele>107.0</ele><time>2026-04-19T08:21:41.01Z</time></trkpt><trkpt lat="44.548489" lon="10.8339707"><ele>106.66666666666666</ele><time>2026-04-19T08:21:42.01Z</time></trkpt><trkpt lat="44.5485684" lon="10.8337544"><ele>106.33333333333334</ele><time>2026-04-19T08:21:43.01Z</time></trkpt><trkpt lat="44.5486435" lon="10.833535"><ele>106.0</ele><time>2026-04-19T08:21:44.011Z</time></trkpt><trkpt lat="44.5487171" lon="10.8333226"><ele>105.66666666666667</ele><time>2026-04-19T08:21:45.01Z</time></trkpt><trkpt lat="44.548786" lon="10.8331082"><ele>105.33333333333334</ele><time>2026-04-19T08:21:46.009Z</time></trkpt><trkpt lat="44.548857" lon="10.8328897"><ele>105.0</ele><time>2026-04-19T08:21:47.01Z</time></trkpt><trkpt lat="44.5489313" lon="10.8326715"><ele>104.66666666666666</ele><time>2026-04-19T08:21:48.01Z</time></trkpt><trkpt lat="44.549007" lon="10.8324533"><ele>104.33333333333333</ele><time>2026-04-19T08:21:49.01Z</time></trkpt><trkpt lat="44.5490831" lon="10.8322306"><ele>104.0</ele><time>2026-04-19T08:21:50.01Z</time></trkpt><trkpt lat="44.5491607" lon="10.8320088"><ele>104.0</ele><time>2026-04-19T08:21:51.008Z</time></trkpt><trkpt lat="44.5492369" lon="10.8317887"><ele>104.0</ele><time>2026-04-19T08:21:52.01Z</time></trkpt><trkpt lat="44.5493108" lon="10.8315609"><ele>104.0</ele><time>2026-04-19T08:21:53.011Z</time></trkpt><trkpt lat="44.5493855" lon="10.8313384"><ele>104.0</ele><time>2026-04-19T08:21:54.011Z</time></trkpt><trkpt lat="44.5494619" lon="10.8311242"><ele>104.0</ele><time>2026-04-19T08:21:55.009Z</time></trkpt><trkpt lat="44.549534" lon="10.8309053"><ele>104.0</ele><time>2026-04-19T08:21:56.01Z</time></trkpt><trkpt lat="44.5496083" lon="10.8306842"><ele>104.33333333333333</ele><time>2026-04-19T08:21:57.01Z</time></trkpt><trkpt lat="44.5496838" lon="10.8304562"><ele>104.66666666666666</ele><time>2026-04-19T08:21:58.011Z</time></trkpt><trkpt lat="44.5497564" lon="10.8302304"><ele>105.0</ele><time>2026-04-19T08:21:59.01Z</time></trkpt><trkpt lat="44.5498275" lon="10.8300069"><ele>105.0</ele><time>2026-04-19T08:22:00.009Z</time></trkpt><trkpt lat="44.5498909" lon="10.829784"><ele>105.0</ele><time>2026-04-19T08:22:01.01Z</time></trkpt><trkpt lat="44.5499562" lon="10.8295591"><ele>105.0</ele><time>2026-04-19T08:22:02.01Z</time></trkpt><trkpt lat="44.5500169" lon="10.8293362"><ele>105.0</ele><time>2026-04-19T08:22:03.009Z</time></trkpt><trkpt lat="44.5500742" lon="10.8291121"><ele>105.0</ele><time>2026-04-19T08:22:04.009Z</time></trkpt><trkpt lat="44.5501316" lon="10.828888"><ele>105.0</ele><time>2026-04-19T08:22:05.01Z</time></trkpt><trkpt lat="44.5501807" lon="10.8286526"><ele>105.66666666666666</ele><time>2026-04-19T08:22:06.01Z</time></trkpt><trkpt lat="44.5502283" lon="10.8284163"><ele>106.33333333333333</ele><time>2026-04-19T08:22:07.01Z</time></trkpt><trkpt lat="44.5502716" lon="10.8281773"><ele>107.0</ele><time>2026-04-19T08:22:08.01Z</time></trkpt><trkpt lat="44.5503127" lon="10.8279409"><ele>107.0</ele><time>2026-04-19T08:22:09.01Z</time></trkpt><trkpt lat="44.5503527" lon="10.8277089"><ele>107.0</ele><time>2026-04-19T08:22:10.01Z</time></trkpt><trkpt lat="44.5503896" lon="10.827477"><ele>107.0</ele><time>2026-04-19T08:22:11.01Z</time></trkpt><trkpt lat="44.5504196" lon="10.8272406"><ele>106.0</ele><time>2026-04-19T08:22:12.008Z</time></trkpt><trkpt lat="44.5504478" lon="10.8270056"><ele>105.0</ele><time>2026-04-19T08:22:13.01Z</time></trkpt><trkpt lat="44.5504734" lon="10.8267679"><ele>104.0</ele><time>2026-04-19T08:22:14.009Z</time></trkpt><trkpt lat="44.550499" lon="10.826536"><ele>104.0</ele><time>2026-04-19T08:22:15.011Z</time></trkpt><trkpt lat="44.5505231" lon="10.8263066"><ele>104.0</ele><time>2026-04-19T08:22:16.008Z</time></trkpt><trkpt lat="44.5505424" lon="10.8260754"><ele>104.0</ele><time>2026-04-19T08:22:17.011Z</time></trkpt><trkpt lat="44.5505594" lon="10.8258453"><ele>103.66666666666666</ele><time>2026-04-19T08:22:18.011Z</time></trkpt><trkpt lat="44.5505766" lon="10.8256168"><ele>103.33333333333334</ele><time>2026-04-19T08:22:19.01Z</time></trkpt><trkpt lat="44.5505911" lon="10.8253867"><ele>103.0</ele><time>2026-04-19T08:22:20.011Z</time></trkpt><trkpt lat="44.5506052" lon="10.8251528"><ele>103.33333333333334</ele><time>2026-04-19T08:22:21.009Z</time></trkpt><trkpt lat="44.5506218" lon="10.8249136"><ele>103.66666666666666</ele><time>2026-04-19T08:22:22.01Z</time></trkpt><trkpt lat="44.5506385" lon="10.8246817"><ele>104.0</ele><time>2026-04-19T08:22:23.011Z</time></trkpt><trkpt lat="44.5506558" lon="10.8244432"><ele>104.33333333333333</ele><time>2026-04-19T08:22:24.011Z</time></trkpt><trkpt lat="44.5506722" lon="10.8241989"><ele>104.66666666666666</ele><time>2026-04-19T08:22:25.01Z</time></trkpt><trkpt lat="44.5506889" lon="10.8239571"><ele>105.0</ele><time>2026-04-19T08:22:26.01Z</time></trkpt><trkpt lat="44.5507064" lon="10.8237119"><ele>105.0</ele><time>2026-04-19T08:22:27.01Z</time></trkpt><trkpt lat="44.5507261" lon="10.8234657"><ele>105.0</ele><time>2026-04-19T08:22:28.009Z</time></trkpt><trkpt lat="44.5507436" lon="10.8232198"><ele>105.0</ele><time>2026-04-19T08:22:29.009Z</time></trkpt><trkpt lat="44.550763" lon="10.8229763"><ele>105.0</ele><time>2026-04-19T08:22:30.011Z</time></trkpt><trkpt lat="44.5507818" lon="10.8227237"><ele>105.0</ele><time>2026-04-19T08:22:31.011Z</time></trkpt><trkpt lat="44.5508008" lon="10.8224657"><ele>105.0</ele><time>2026-04-19T08:22:32.009Z</time></trkpt><trkpt lat="44.5508217" lon="10.8222153"><ele>105.0</ele><time>2026-04-19T08:22:33.011Z</time></trkpt><trkpt lat="44.5508371" lon="10.8219674"><ele>105.0</ele><time>2026-04-19T08:22:34.01Z</time></trkpt><trkpt lat="44.5508556" lon="10.8217205"><ele>105.0</ele><time>2026-04-19T08:22:35.009Z</time></trkpt><trkpt lat="44.550871" lon="10.8214797"><ele>106.0</ele><time>2026-04-19T08:22:36.009Z</time></trkpt><trkpt lat="44.550885" lon="10.8212402"><ele>107.0</ele><time>2026-04-19T08:22:37.01Z</time></trkpt><trkpt lat="44.550905" lon="10.821009"><ele>108.0</ele><time>2026-04-19T08:22:38.011Z</time></trkpt><trkpt lat="44.5509262" lon="10.8207794"><ele>109.0</ele><time>2026-04-19T08:22:39.01Z</time></trkpt><trkpt lat="44.5509569" lon="10.8205537"><ele>110.0</ele><time>2026-04-19T08:22:40.008Z</time></trkpt><trkpt lat="44.5509961" lon="10.8203243"><ele>111.0</ele><time>2026-04-19T08:22:41.01Z</time></trkpt><trkpt lat="44.5510498" lon="10.8200867"><ele>111.0</ele><time>2026-04-19T08:22:42.011Z</time></trkpt><trkpt lat="44.5511121" lon="10.8198287"><ele>111.0</ele><time>2026-04-19T08:22:43.011Z</time></trkpt><trkpt lat="44.5511795" lon="10.8195617"><ele>111.0</ele><time>2026-04-19T08:22:44.01Z</time></trkpt><trkpt lat="44.5512495" lon="10.8193036"><ele>109.66666666666666</ele><time>2026-04-19T08:22:45.009Z</time></trkpt><trkpt lat="44.5513182" lon="10.8190391"><ele>108.33333333333333</ele><time>2026-04-19T08:22:46.01Z</time></trkpt><trkpt lat="44.5513957" lon="10.8187602"><ele>107.0</ele><time>2026-04-19T08:22:47.01Z</time></trkpt><trkpt lat="44.5514766" lon="10.8184693"><ele>107.0</ele><time>2026-04-19T08:22:48.01Z</time></trkpt><trkpt lat="44.551553" lon="10.8181789"><ele>107.0</ele><time>2026-04-19T08:22:49.009Z</time></trkpt><trkpt lat="44.5516298" lon="10.8179031"><ele>107.0</ele><time>2026-04-19T08:22:50.01Z</time></trkpt><trkpt lat="44.5517038" lon="10.8176416"><ele>107.66666666666666</ele><time>2026-04-19T08:22:51.01Z</time></trkpt><trkpt lat="44.5517681" lon="10.8174033"><ele>108.33333333333334</ele><time>2026-04-19T08:22:52.01Z</time></trkpt><trkpt lat="44.5518261" lon="10.8171948"><ele>109.0</ele><time>2026-04-19T08:22:53.01Z</time></trkpt><trkpt lat="44.5518746" lon="10.8170084"><ele>109.0</ele><time>2026-04-19T08:22:54.01Z</time></trkpt><trkpt lat="44.5519214" lon="10.8168514"><ele>109.0</ele><time>2026-04-19T08:22:55.01Z</time></trkpt><trkpt lat="44.5519704" lon="10.8167136"><ele>109.0</ele><time>2026-04-19T08:22:56.01Z</time></trkpt><trkpt lat="44.5520273" lon="10.8166066"><ele>109.0</ele><time>2026-04-19T08:22:57.009Z</time></trkpt><trkpt lat="44.5520802" lon="10.8165305"><ele>109.0</ele><time>2026-04-19T08:22:58.01Z</time></trkpt><trkpt lat="44.5521331" lon="10.8164824"><ele>109.2</ele><time>2026-04-19T08:22:59.01Z</time></trkpt><trkpt lat="44.5522641" lon="10.8164281"><ele>109.4</ele><time>2026-04-19T08:23:01.01Z</time></trkpt><trkpt lat="44.5523534" lon="10.8164329"><ele>109.6</ele><time>2026-04-19T08:23:02.01Z</time></trkpt><trkpt lat="44.5524488" lon="10.8164426"><ele>109.8</ele><time>2026-04-19T08:23:03.011Z</time></trkpt><trkpt lat="44.5525422" lon="10.8164352"><ele>110.0</ele><time>2026-04-19T08:23:04.009Z</time></trkpt><trkpt lat="44.5526372" lon="10.8164053"><ele>110.0</ele><time>2026-04-19T08:23:05.01Z</time></trkpt><trkpt lat="44.5527151" lon="10.8163293"><ele>110.0</ele><time>2026-04-19T08:23:06.01Z</time></trkpt><trkpt lat="44.552785" lon="10.8162524"><ele>110.0</ele><time>2026-04-19T08:23:07.01Z</time></trkpt><trkpt lat="44.5528161" lon="10.8161186"><ele>110.0</ele><time>2026-04-19T08:23:08.01Z</time></trkpt><trkpt lat="44.5528253" lon="10.8159881"><ele>110.0</ele><time>2026-04-19T08:23:09.011Z</time></trkpt><trkpt lat="44.5528073" lon="10.8158546"><ele>110.0</ele><time>2026-04-19T08:23:10.009Z</time></trkpt><trkpt lat="44.5527726" lon="10.8157294"><ele>110.0</ele><time>2026-04-19T08:23:11.01Z</time></trkpt><trkpt lat="44.5526911" lon="10.815612"><ele>110.0</ele><time>2026-04-19T08:23:12.01Z</time></trkpt><trkpt lat="44.5526141" lon="10.8154796"><ele>110.0</ele><time>2026-04-19T08:23:13.009Z</time></trkpt><trkpt lat="44.5525354" lon="10.8153314"><ele>110.0</ele><time>2026-04-19T08:23:14.01Z</time></trkpt><trkpt lat="44.5524797" lon="10.8151843"><ele>110.0</ele><time>2026-04-19T08:23:15.01Z</time></trkpt><trkpt lat="44.552444" lon="10.8150245"><ele>110.0</ele><time>2026-04-19T08:23:16.011Z</time></trkpt><trkpt lat="44.5524232" lon="10.8148593"><ele>110.0</ele><time>2026-04-19T08:23:17.009Z</time></trkpt><trkpt lat="44.5524405" lon="10.8146763"><ele>109.66666666666666</ele><time>2026-04-19T08:23:18.01Z</time></trkpt><trkpt lat="44.5524673" lon="10.814479"><ele>109.33333333333334</ele><time>2026-04-19T08:23:19.009Z</time></trkpt><trkpt lat="44.552528" lon="10.81426"><ele>109.0</ele><time>2026-04-19T08:23:20.01Z</time></trkpt><trkpt lat="44.5525849" lon="10.8140412"><ele>109.0</ele><time>2026-04-19T08:23:21.009Z</time></trkpt><trkpt lat="44.5526403" lon="10.8138113"><ele>109.0</ele><time>2026-04-19T08:23:22.01Z</time></trkpt><trkpt lat="44.5526941" lon="10.8135793"><ele>109.0</ele><time>2026-04-19T08:23:23.01Z</time></trkpt><trkpt lat="44.5527483" lon="10.8133616"><ele>108.66666666666667</ele><time>2026-04-19T08:23:24.01Z</time></trkpt><trkpt lat="44.5528026" lon="10.8131442"><ele>108.33333333333334</ele><time>2026-04-19T08:23:25.009Z</time></trkpt><trkpt lat="44.5528631" lon="10.8129309"><ele>108.0</ele><time>2026-04-19T08:23:26.01Z</time></trkpt><trkpt lat="44.5529211" lon="10.8127148"><ele>107.66666666666666</ele><time>2026-04-19T08:23:27.01Z</time></trkpt><trkpt lat="44.5529844" lon="10.8125008"><ele>107.33333333333333</ele><time>2026-04-19T08:23:28.009Z</time></trkpt><trkpt lat="44.5530533" lon="10.8122783"><ele>107.0</ele><time>2026-04-19T08:23:29.011Z</time></trkpt><trkpt lat="44.5531227" lon="10.8120465"><ele>107.0</ele><time>2026-04-19T08:23:30.01Z</time></trkpt><trkpt lat="44.5531894" lon="10.8118228"><ele>107.0</ele><time>2026-04-19T08:23:31.01Z</time></trkpt><trkpt lat="44.5532553" lon="10.8116231"><ele>107.0</ele><time>2026-04-19T08:23:32.011Z</time></trkpt><trkpt lat="44.5533136" lon="10.8114528"><ele>107.0</ele><time>2026-04-19T08:23:33.01Z</time></trkpt><trkpt lat="44.5533684" lon="10.8113027"><ele>106.99999999999999</ele><time>2026-04-19T08:23:34.01Z</time></trkpt><trkpt lat="44.5534201" lon="10.8111892"><ele>106.99999999999999</ele><time>2026-04-19T08:23:35.011Z</time></trkpt><trkpt lat="44.5534717" lon="10.8110968"><ele>107.0</ele><time>2026-04-19T08:23:36.009Z</time></trkpt><trkpt lat="44.5535309" lon="10.8110311"><ele>107.0</ele><time>2026-04-19T08:23:37.009Z</time></trkpt><trkpt lat="44.5536004" lon="10.8109855"><ele>106.66666666666666</ele><time>2026-04-19T08:23:38.011Z</time></trkpt><trkpt lat="44.5536763" lon="10.8109391"><ele>106.33333333333333</ele><time>2026-04-19T08:23:39.011Z</time></trkpt><trkpt lat="44.5537492" lon="10.8108703"><ele>106.0</ele><time>2026-04-19T08:23:40.009Z</time></trkpt><trkpt lat="44.5538009" lon="10.8107913"><ele>105.66666666666666</ele><time>2026-04-19T08:23:41.01Z</time></trkpt><trkpt lat="44.5538401" lon="10.8106871"><ele>105.33333333333333</ele><time>2026-04-19T08:23:42.011Z</time></trkpt><trkpt lat="44.5538534" lon="10.810568"><ele>105.0</ele><time>2026-04-19T08:23:43.01Z</time></trkpt><trkpt lat="44.5538383" lon="10.8104401"><ele>105.0</ele><time>2026-04-19T08:23:44.01Z</time></trkpt><trkpt lat="44.5538054" lon="10.8103163"><ele>105.0</ele><time>2026-04-19T08:23:45.01Z</time></trkpt><trkpt lat="44.5537647" lon="10.8101928"><ele>105.0</ele><time>2026-04-19T08:23:46.01Z</time></trkpt><trkpt lat="44.55373" lon="10.810062"><ele>105.0</ele><time>2026-04-19T08:23:47.01Z</time></trkpt><trkpt lat="44.5537277" lon="10.8099107"><ele>105.0</ele><time>2026-04-19T08:23:48.01Z</time></trkpt><trkpt lat="44.5537447" lon="10.8097506"><ele>105.25</ele><time>2026-04-19T08:23:49.011Z</time></trkpt><trkpt lat="44.5537784" lon="10.8095727"><ele>105.5</ele><time>2026-04-19T08:23:50.009Z</time></trkpt><trkpt lat="44.5538236" lon="10.8093628"><ele>105.75</ele><time>2026-04-19T08:23:51.01Z</time></trkpt><trkpt lat="44.5538665" lon="10.8091478"><ele>106.0</ele><time>2026-04-19T08:23:52.009Z</time></trkpt><trkpt lat="44.5539113" lon="10.8089175"><ele>106.0</ele><time>2026-04-19T08:23:53.01Z</time></trkpt><trkpt lat="44.5539599" lon="10.8086656"><ele>106.0</ele><time>2026-04-19T08:23:54.01Z</time></trkpt><trkpt lat="44.554005" lon="10.8083973"><ele>106.0</ele><time>2026-04-19T08:23:55.01Z</time></trkpt><trkpt lat="44.5540509" lon="10.8081276"><ele>105.66666666666667</ele><time>2026-04-19T08:23:56.009Z</time></trkpt><trkpt lat="44.5540947" lon="10.8078567"><ele>105.33333333333334</ele><time>2026-04-19T08:23:57.009Z</time></trkpt><trkpt lat="44.5541383" lon="10.8075765"><ele>105.0</ele><time>2026-04-19T08:23:58.009Z</time></trkpt><trkpt lat="44.5541812" lon="10.8072918"><ele>105.0</ele><time>2026-04-19T08:23:59.011Z</time></trkpt><trkpt lat="44.5542206" lon="10.8070047"><ele>105.0</ele><time>2026-04-19T08:24:00.01Z</time></trkpt><trkpt lat="44.55426" lon="10.8067113"><ele>105.0</ele><time>2026-04-19T08:24:01.011Z</time></trkpt><trkpt lat="44.5542989" lon="10.8064117"><ele>105.0</ele><time>2026-04-19T08:24:02.01Z</time></trkpt><trkpt lat="44.5543348" lon="10.8061205"><ele>105.0</ele><time>2026-04-19T08:24:03.011Z</time></trkpt><trkpt lat="44.5543719" lon="10.8058238"><ele>105.0</ele><time>2026-04-19T08:24:04.011Z</time></trkpt><trkpt lat="44.5544118" lon="10.8055377"><ele>105.0</ele><time>2026-04-19T08:24:05.01Z</time></trkpt><trkpt lat="44.5544493" lon="10.8052607"><ele>105.0</ele><time>2026-04-19T08:24:06.009Z</time></trkpt><trkpt lat="44.55449" lon="10.8049847"><ele>105.0</ele><time>2026-04-19T08:24:07.01Z</time></trkpt><trkpt lat="44.5545267" lon="10.8047125"><ele>105.0</ele><time>2026-04-19T08:24:08.011Z</time></trkpt><trkpt lat="44.5545652" lon="10.8044424"><ele>105.0</ele><time>2026-04-19T08:24:09.01Z</time></trkpt><trkpt lat="44.5546066" lon="10.8041768"><ele>105.0</ele><time>2026-04-19T08:24:10.01Z</time></trkpt><trkpt lat="44.5546501" lon="10.8039128"><ele>105.0</ele><time>2026-04-19T08:24:11.011Z</time></trkpt><trkpt lat="44.5546946" lon="10.8036598"><ele>105.0</ele><time>2026-04-19T08:24:12.01Z</time></trkpt><trkpt lat="44.5547425" lon="10.8034109"><ele>105.0</ele><time>2026-04-19T08:24:13.01Z</time></trkpt><trkpt lat="44.5547879" lon="10.8031643"><ele>105.0</ele><time>2026-04-19T08:24:14.011Z</time></trkpt><trkpt lat="44.5548339" lon="10.8029207"><ele>105.0</ele><time>2026-04-19T08:24:15.009Z</time></trkpt><trkpt lat="44.5548784" lon="10.8026713"><ele>105.0</ele><time>2026-04-19T08:24:16.011Z</time></trkpt><trkpt lat="44.5549226" lon="10.8024299"><ele>105.0</ele><time>2026-04-19T08:24:17.009Z</time></trkpt><trkpt lat="44.554964" lon="10.8021866"><ele>105.0</ele><time>2026-04-19T08:24:18.009Z</time></trkpt><trkpt lat="44.5550005" lon="10.8019449"><ele>105.0</ele><time>2026-04-19T08:24:19.01Z</time></trkpt><trkpt lat="44.5550381" lon="10.8017091"><ele>105.0</ele><time>2026-04-19T08:24:20.01Z</time></trkpt><trkpt lat="44.5550815" lon="10.8014906"><ele>105.0</ele><time>2026-04-19T08:24:21.01Z</time></trkpt><trkpt lat="44.5551325" lon="10.8012703"><ele>105.0</ele><time>2026-04-19T08:24:22.009Z</time></trkpt><trkpt lat="44.5551946" lon="10.8010558"><ele>105.33333333333334</ele><time>2026-04-19T08:24:23.009Z</time></trkpt><trkpt lat="44.5552709" lon="10.8008417"><ele>105.66666666666667</ele><time>2026-04-19T08:24:24.011Z</time></trkpt><trkpt lat="44.5553532" lon="10.8006278"><ele>106.0</ele><time>2026-04-19T08:24:25.009Z</time></trkpt><trkpt lat="44.555443" lon="10.8004249"><ele>106.66666666666667</ele><time>2026-04-19T08:24:26.009Z</time></trkpt><trkpt lat="44.5555302" lon="10.8002288"><ele>107.33333333333334</ele><time>2026-04-19T08:24:27.01Z</time></trkpt><trkpt lat="44.5556135" lon="10.8000415"><ele>108.0</ele><time>2026-04-19T08:24:28.01Z</time></trkpt><trkpt lat="44.555691" lon="10.7998653"><ele>108.5</ele><time>2026-04-19T08:24:29.009Z</time></trkpt><trkpt lat="44.5557644" lon="10.7996992"><ele>109.0</ele><time>2026-04-19T08:24:30.009Z</time></trkpt><trkpt lat="44.5558367" lon="10.7995388"><ele>109.5</ele><time>2026-04-19T08:24:31.01Z</time></trkpt><trkpt lat="44.555904" lon="10.7993904"><ele>110.0</ele><time>2026-04-19T08:24:32.011Z</time></trkpt><trkpt lat="44.5559632" lon="10.7992635"><ele>110.2</ele><time>2026-04-19T08:24:33.011Z</time></trkpt><trkpt lat="44.5560233" lon="10.7991609"><ele>110.4</ele><time>2026-04-19T08:24:34.01Z</time></trkpt><trkpt lat="44.5560865" lon="10.7990769"><ele>110.6</ele><time>2026-04-19T08:24:35.01Z</time></trkpt><trkpt lat="44.5561572" lon="10.799"><ele>110.8</ele><time>2026-04-19T08:24:36.011Z</time></trkpt><trkpt lat="44.5562328" lon="10.7989346"><ele>111.0</ele><time>2026-04-19T08:24:37.009Z</time></trkpt><trkpt lat="44.5563079" lon="10.7988598"><ele>110.19999999999999</ele><time>2026-04-19T08:24:38.011Z</time></trkpt><trkpt lat="44.5563669" lon="10.7987695"><ele>109.39999999999999</ele><time>2026-04-19T08:24:39.011Z</time></trkpt><trkpt lat="44.5564121" lon="10.7986637"><ele>108.6</ele><time>2026-04-19T08:24:40.011Z</time></trkpt><trkpt lat="44.5564351" lon="10.7985441"><ele>107.8</ele><time>2026-04-19T08:24:41.01Z</time></trkpt><trkpt lat="44.5564426" lon="10.7984029"><ele>107.0</ele><time>2026-04-19T08:24:42.011Z</time></trkpt><trkpt lat="44.5564453" lon="10.79825"><ele>107.0</ele><time>2026-04-19T08:24:43.01Z</time></trkpt><trkpt lat="44.5564554" lon="10.7980807"><ele>107.0</ele><time>2026-04-19T08:24:44.01Z</time></trkpt><trkpt lat="44.5564807" lon="10.7979063"><ele>107.0</ele><time>2026-04-19T08:24:45.009Z</time></trkpt><trkpt lat="44.5565187" lon="10.7977007"><ele>107.0</ele><time>2026-04-19T08:24:46.011Z</time></trkpt><trkpt lat="44.5565644" lon="10.79749"><ele>107.0</ele><time>2026-04-19T08:24:47.008Z</time></trkpt><trkpt lat="44.556613" lon="10.7972713"><ele>107.0</ele><time>2026-04-19T08:24:48.011Z</time></trkpt><trkpt lat="44.5566626" lon="10.7970484"><ele>107.0</ele><time>2026-04-19T08:24:49.011Z</time></trkpt><trkpt lat="44.5567067" lon="10.7968187"><ele>106.66666666666666</ele><time>2026-04-19T08:24:50.01Z</time></trkpt><trkpt lat="44.5567511" lon="10.7965877"><ele>106.33333333333334</ele><time>2026-04-19T08:24:51.01Z</time></trkpt><trkpt lat="44.5567912" lon="10.7963484"><ele>106.0</ele><time>2026-04-19T08:24:52.01Z</time></trkpt><trkpt lat="44.5568283" lon="10.7961103"><ele>106.66666666666667</ele><time>2026-04-19T08:24:53.009Z</time></trkpt><trkpt lat="44.5568535" lon="10.7958847"><ele>107.33333333333334</ele><time>2026-04-19T08:24:54.01Z</time></trkpt><trkpt lat="44.5568745" lon="10.795649"><ele>108.0</ele><time>2026-04-19T08:24:55.01Z</time></trkpt><trkpt lat="44.5568939" lon="10.7954135"><ele>108.0</ele><time>2026-04-19T08:24:56.009Z</time></trkpt><trkpt lat="44.5569019" lon="10.7951804"><ele>108.0</ele><time>2026-04-19T08:24:57.009Z</time></trkpt><trkpt lat="44.5569137" lon="10.7949374"><ele>108.0</ele><time>2026-04-19T08:24:58.009Z</time></trkpt><trkpt lat="44.5569225" lon="10.7946904"><ele>108.33333333333334</ele><time>2026-04-19T08:24:59.009Z</time></trkpt><trkpt lat="44.5569402" lon="10.7944312"><ele>108.66666666666667</ele><time>2026-04-19T08:25:00.01Z</time></trkpt><trkpt lat="44.55695" lon="10.7941589"><ele>109.0</ele><time>2026-04-19T08:25:01.01Z</time></trkpt><trkpt lat="44.556963" lon="10.7938835"><ele>108.33333333333334</ele><time>2026-04-19T08:25:02.01Z</time></trkpt><trkpt lat="44.5569703" lon="10.7936067"><ele>107.66666666666666</ele><time>2026-04-19T08:25:03.009Z</time></trkpt><trkpt lat="44.5569778" lon="10.7933339"><ele>107.0</ele><time>2026-04-19T08:25:04.01Z</time></trkpt><trkpt lat="44.5569906" lon="10.7930761"><ele>107.0</ele><time>2026-04-19T08:25:05.011Z</time></trkpt><trkpt lat="44.557005" lon="10.7928245"><ele>107.0</ele><time>2026-04-19T08:25:06.009Z</time></trkpt><trkpt lat="44.5570143" lon="10.7925817"><ele>107.0</ele><time>2026-04-19T08:25:07.011Z</time></trkpt><trkpt lat="44.5570287" lon="10.792342"><ele>106.0</ele><time>2026-04-19T08:25:08.01Z</time></trkpt><trkpt lat="44.5570411" lon="10.7921019"><ele>105.0</ele><time>2026-04-19T08:25:09.009Z</time></trkpt><trkpt lat="44.5570518" lon="10.7918606"><ele>104.0</ele><time>2026-04-19T08:25:10.01Z</time></trkpt><trkpt lat="44.5570652" lon="10.7916145"><ele>104.0</ele><time>2026-04-19T08:25:11.011Z</time></trkpt><trkpt lat="44.5570862" lon="10.7913636"><ele>104.0</ele><time>2026-04-19T08:25:12.009Z</time></trkpt><trkpt lat="44.5571109" lon="10.7911033"><ele>104.0</ele><time>2026-04-19T08:25:13.01Z</time></trkpt><trkpt lat="44.5571434" lon="10.7908482"><ele>103.66666666666666</ele><time>2026-04-19T08:25:14.008Z</time></trkpt><trkpt lat="44.5571816" lon="10.7906019"><ele>103.33333333333334</ele><time>2026-04-19T08:25:15.01Z</time></trkpt><trkpt lat="44.5572242" lon="10.7903614"><ele>103.0</ele><time>2026-04-19T08:25:16.01Z</time></trkpt><trkpt lat="44.5572788" lon="10.7901252"><ele>103.0</ele><time>2026-04-19T08:25:17.009Z</time></trkpt><trkpt lat="44.5573368" lon="10.7898976"><ele>103.0</ele><time>2026-04-19T08:25:18.009Z</time></trkpt><trkpt lat="44.5573991" lon="10.7896701"><ele>103.0</ele><time>2026-04-19T08:25:19.01Z</time></trkpt><trkpt lat="44.5574607" lon="10.7894528"><ele>103.0</ele><time>2026-04-19T08:25:20.01Z</time></trkpt><trkpt lat="44.5575244" lon="10.7892506"><ele>103.0</ele><time>2026-04-19T08:25:21.009Z</time></trkpt><trkpt lat="44.5575768" lon="10.7890765"><ele>103.0</ele><time>2026-04-19T08:25:22.009Z</time></trkpt><trkpt lat="44.5576248" lon="10.788932"><ele>103.0</ele><time>2026-04-19T08:25:23.009Z</time></trkpt><trkpt lat="44.5576718" lon="10.788795"><ele>103.0</ele><time>2026-04-19T08:25:24.01Z</time></trkpt><trkpt lat="44.5577195" lon="10.7886816"><ele>103.0</ele><time>2026-04-19T08:25:25.009Z</time></trkpt><trkpt lat="44.5577729" lon="10.7885838"><ele>103.0</ele><time>2026-04-19T08:25:26.01Z</time></trkpt><trkpt lat="44.5578373" lon="10.7884968"><ele>103.0</ele><time>2026-04-19T08:25:27.01Z</time></trkpt><trkpt lat="44.5579062" lon="10.7883888"><ele>103.0</ele><time>2026-04-19T08:25:28.009Z</time></trkpt><trkpt lat="44.5579593" lon="10.7882775"><ele>102.75</ele><time>2026-04-19T08:25:29.009Z</time></trkpt><trkpt lat="44.5580054" lon="10.7881469"><ele>102.5</ele><time>2026-04-19T08:25:30.01Z</time></trkpt><trkpt lat="44.5580299" lon="10.7879948"><ele>102.25</ele><time>2026-04-19T08:25:31.009Z</time></trkpt><trkpt lat="44.5580458" lon="10.7878226"><ele>102.0</ele><time>2026-04-19T08:25:32.011Z</time></trkpt><trkpt lat="44.5580725" lon="10.787647"><ele>103.0</ele><time>2026-04-19T08:25:33.009Z</time></trkpt><trkpt lat="44.5581142" lon="10.7874669"><ele>104.0</ele><time>2026-04-19T08:25:34.01Z</time></trkpt><trkpt lat="44.5581866" lon="10.7872575"><ele>105.0</ele><time>2026-04-19T08:25:35.009Z</time></trkpt><trkpt lat="44.5582577" lon="10.7870368"><ele>105.33333333333334</ele><time>2026-04-19T08:25:36.01Z</time></trkpt><trkpt lat="44.5583323" lon="10.78681"><ele>105.66666666666667</ele><time>2026-04-19T08:25:37.009Z</time></trkpt><trkpt lat="44.5584078" lon="10.7865716"><ele>106.0</ele><time>2026-04-19T08:25:38.01Z</time></trkpt><trkpt lat="44.5584825" lon="10.7863446"><ele>106.0</ele><time>2026-04-19T08:25:39.01Z</time></trkpt><trkpt lat="44.5585569" lon="10.7861222"><ele>106.0</ele><time>2026-04-19T08:25:40.01Z</time></trkpt><trkpt lat="44.5586333" lon="10.7858956"><ele>106.0</ele><time>2026-04-19T08:25:41.011Z</time></trkpt><trkpt lat="44.5587089" lon="10.7856746"><ele>105.66666666666667</ele><time>2026-04-19T08:25:42.011Z</time></trkpt><trkpt lat="44.5587813" lon="10.785448"><ele>105.33333333333334</ele><time>2026-04-19T08:25:43.01Z</time></trkpt><trkpt lat="44.558854" lon="10.7852169"><ele>105.0</ele><time>2026-04-19T08:25:44.01Z</time></trkpt><trkpt lat="44.5589246" lon="10.784989"><ele>105.0</ele><time>2026-04-19T08:25:45.01Z</time></trkpt><trkpt lat="44.5589887" lon="10.784764"><ele>105.0</ele><time>2026-04-19T08:25:46.01Z</time></trkpt><trkpt lat="44.5590507" lon="10.7845288"><ele>105.0</ele><time>2026-04-19T08:25:47.011Z</time></trkpt><trkpt lat="44.5591104" lon="10.7842939"><ele>105.0</ele><time>2026-04-19T08:25:48.009Z</time></trkpt><trkpt lat="44.5591645" lon="10.7840486"><ele>105.0</ele><time>2026-04-19T08:25:49.009Z</time></trkpt><trkpt lat="44.5592063" lon="10.7838038"><ele>105.0</ele><time>2026-04-19T08:25:50.009Z</time></trkpt><trkpt lat="44.5592449" lon="10.7835695"><ele>105.0</ele><time>2026-04-19T08:25:51.01Z</time></trkpt><trkpt lat="44.5592693" lon="10.7833174"><ele>105.0</ele><time>2026-04-19T08:25:52.011Z</time></trkpt><trkpt lat="44.5592911" lon="10.7830593"><ele>105.0</ele><time>2026-04-19T08:25:53.009Z</time></trkpt><trkpt lat="44.5593005" lon="10.7827939"><ele>104.33333333333334</ele><time>2026-04-19T08:25:54.01Z</time></trkpt><trkpt lat="44.5593103" lon="10.7825148"><ele>103.66666666666667</ele><time>2026-04-19T08:25:55.01Z</time></trkpt><trkpt lat="44.5593103" lon="10.7822296"><ele>103.0</ele><time>2026-04-19T08:25:56.01Z</time></trkpt><trkpt lat="44.5593054" lon="10.7819502"><ele>103.33333333333334</ele><time>2026-04-19T08:25:57.009Z</time></trkpt><trkpt lat="44.5592924" lon="10.7816684"><ele>103.66666666666666</ele><time>2026-04-19T08:25:58.009Z</time></trkpt><trkpt lat="44.5592708" lon="10.7813834"><ele>104.0</ele><time>2026-04-19T08:25:59.011Z</time></trkpt><trkpt lat="44.5592452" lon="10.7811012"><ele>104.33333333333333</ele><time>2026-04-19T08:26:00.011Z</time></trkpt><trkpt lat="44.5592175" lon="10.7808094"><ele>104.66666666666666</ele><time>2026-04-19T08:26:01.009Z</time></trkpt><trkpt lat="44.5591881" lon="10.780519"><ele>105.0</ele><time>2026-04-19T08:26:02.011Z</time></trkpt><trkpt lat="44.5591581" lon="10.7802243"><ele>104.66666666666666</ele><time>2026-04-19T08:26:03.009Z</time></trkpt><trkpt lat="44.5591278" lon="10.7799131"><ele>104.33333333333333</ele><time>2026-04-19T08:26:04.01Z</time></trkpt><trkpt lat="44.5590927" lon="10.7796014"><ele>104.0</ele><time>2026-04-19T08:26:05.01Z</time></trkpt><trkpt lat="44.5590595" lon="10.7792899"><ele>102.5</ele><time>2026-04-19T08:26:06.01Z</time></trkpt><trkpt lat="44.559029" lon="10.7789687"><ele>101.0</ele><time>2026-04-19T08:26:07.01Z</time></trkpt><trkpt lat="44.5590069" lon="10.7786364"><ele>102.0</ele><time>2026-04-19T08:26:08.01Z</time></trkpt><trkpt lat="44.5589994" lon="10.7782955"><ele>103.0</ele><time>2026-04-19T08:26:09.009Z</time></trkpt><trkpt lat="44.5590078" lon="10.7779535"><ele>104.0</ele><time>2026-04-19T08:26:10.01Z</time></trkpt><trkpt lat="44.5590269" lon="10.7776147"><ele>105.0</ele><time>2026-04-19T08:26:11.01Z</time></trkpt><trkpt lat="44.5590506" lon="10.7772712"><ele>105.0</ele><time>2026-04-19T08:26:12.008Z</time></trkpt><trkpt lat="44.5590819" lon="10.7769242"><ele>105.0</ele><time>2026-04-19T08:26:13.01Z</time></trkpt><trkpt lat="44.5591191" lon="10.7765746"><ele>107.0</ele><time>2026-04-19T08:26:14.008Z</time></trkpt><trkpt lat="44.5591505" lon="10.7762223"><ele>109.0</ele><time>2026-04-19T08:26:15.009Z</time></trkpt><trkpt lat="44.5591844" lon="10.7758701"><ele>109.0</ele><time>2026-04-19T08:26:16.01Z</time></trkpt><trkpt lat="44.5592184" lon="10.7755238"><ele>109.0</ele><time>2026-04-19T08:26:17.009Z</time></trkpt><trkpt lat="44.5592486" lon="10.7751628"><ele>106.0</ele><time>2026-04-19T08:26:18.01Z</time></trkpt><trkpt lat="44.5592854" lon="10.7747983"><ele>103.0</ele><time>2026-04-19T08:26:19.008Z</time></trkpt><trkpt lat="44.5593224" lon="10.7744241"><ele>101.5</ele><time>2026-04-19T08:26:20.009Z</time></trkpt><trkpt lat="44.55936" lon="10.7740485"><ele>100.0</ele><time>2026-04-19T08:26:21.011Z</time></trkpt><trkpt lat="44.559393" lon="10.7736835"><ele>99.0</ele><time>2026-04-19T08:26:22.009Z</time></trkpt><trkpt lat="44.5594252" lon="10.7733216"><ele>98.0</ele><time>2026-04-19T08:26:23.011Z</time></trkpt><trkpt lat="44.5594566" lon="10.7729649"><ele>98.0</ele><time>2026-04-19T08:26:24.011Z</time></trkpt><trkpt lat="44.5594928" lon="10.7726144"><ele>98.0</ele><time>2026-04-19T08:26:25.008Z</time></trkpt><trkpt lat="44.5595271" lon="10.772261"><ele>98.0</ele><time>2026-04-19T08:26:26.011Z</time></trkpt><trkpt lat="44.5595577" lon="10.7719125"><ele>98.0</ele><time>2026-04-19T08:26:27.009Z</time></trkpt><trkpt lat="44.55959" lon="10.7715633"><ele>98.0</ele><time>2026-04-19T08:26:28.01Z</time></trkpt><trkpt lat="44.5596253" lon="10.7712186"><ele>98.0</ele><time>2026-04-19T08:26:29.01Z</time></trkpt><trkpt lat="44.5596566" lon="10.7708809"><ele>100.0</ele><time>2026-04-19T08:26:30.01Z</time></trkpt><trkpt lat="44.5596881" lon="10.7705609"><ele>102.0</ele><time>2026-04-19T08:26:31.009Z</time></trkpt><trkpt lat="44.5597165" lon="10.7702556"><ele>103.0</ele><time>2026-04-19T08:26:32.009Z</time></trkpt><trkpt lat="44.5597424" lon="10.7699647"><ele>104.0</ele><time>2026-04-19T08:26:33.01Z</time></trkpt><trkpt lat="44.5597697" lon="10.769692"><ele>105.0</ele><time>2026-04-19T08:26:34.009Z</time></trkpt><trkpt lat="44.5597876" lon="10.7694254"><ele>105.66666666666666</ele><time>2026-04-19T08:26:35.011Z</time></trkpt><trkpt lat="44.5598108" lon="10.7691785"><ele>106.33333333333333</ele><time>2026-04-19T08:26:36.01Z</time></trkpt><trkpt lat="44.559831" lon="10.7689469"><ele>107.0</ele><time>2026-04-19T08:26:37.01Z</time></trkpt><trkpt lat="44.5598481" lon="10.7687329"><ele>107.0</ele><time>2026-04-19T08:26:38.01Z</time></trkpt><trkpt lat="44.5598492" lon="10.7685268"><ele>107.0</ele><time>2026-04-19T08:26:39.01Z</time></trkpt><trkpt lat="44.559838" lon="10.7683334"><ele>107.0</ele><time>2026-04-19T08:26:40.011Z</time></trkpt><trkpt lat="44.5598256" lon="10.7681443"><ele>107.0</ele><time>2026-04-19T08:26:41.009Z</time></trkpt><trkpt lat="44.5597549" lon="10.7679719"><ele>107.5</ele><time>2026-04-19T08:26:42.009Z</time></trkpt><trkpt lat="44.5596773" lon="10.7678011"><ele>108.0</ele><time>2026-04-19T08:26:43.009Z</time></trkpt><trkpt lat="44.559586" lon="10.7676593"><ele>108.5</ele><time>2026-04-19T08:26:44.009Z</time></trkpt><trkpt lat="44.5594704" lon="10.7675294"><ele>109.0</ele><time>2026-04-19T08:26:45.01Z</time></trkpt><trkpt lat="44.5593392" lon="10.7674172"><ele>109.0</ele><time>2026-04-19T08:26:46.009Z</time></trkpt><trkpt lat="44.5592009" lon="10.7673192"><ele>109.0</ele><time>2026-04-19T08:26:47.01Z</time></trkpt><trkpt lat="44.5590462" lon="10.7672213"><ele>109.0</ele><time>2026-04-19T08:26:48.01Z</time></trkpt><trkpt lat="44.5588822" lon="10.7671239"><ele>109.0</ele><time>2026-04-19T08:26:49.009Z</time></trkpt><trkpt lat="44.5587129" lon="10.7670269"><ele>109.0</ele><time>2026-04-19T08:26:50.011Z</time></trkpt><trkpt lat="44.5585438" lon="10.7669261"><ele>109.0</ele><time>2026-04-19T08:26:51.008Z</time></trkpt><trkpt lat="44.5583683" lon="10.7668231"><ele>109.33333333333334</ele><time>2026-04-19T08:26:52.009Z</time></trkpt><trkpt lat="44.5581882" lon="10.7667333"><ele>109.66666666666666</ele><time>2026-04-19T08:26:53.01Z</time></trkpt><trkpt lat="44.5580119" lon="10.7666526"><ele>110.0</ele><time>2026-04-19T08:26:54.009Z</time></trkpt><trkpt lat="44.5578411" lon="10.7665922"><ele>110.0</ele><time>2026-04-19T08:26:55.009Z</time></trkpt><trkpt lat="44.5576743" lon="10.7665561"><ele>110.0</ele><time>2026-04-19T08:26:56.01Z</time></trkpt><trkpt lat="44.5575076" lon="10.7665421"><ele>110.0</ele><time>2026-04-19T08:26:57.01Z</time></trkpt><trkpt lat="44.5573408" lon="10.7665386"><ele>110.0</ele><time>2026-04-19T08:26:58.009Z</time></trkpt><trkpt lat="44.5571674" lon="10.76656"><ele>110.0</ele><time>2026-04-19T08:26:59.01Z</time></trkpt><trkpt lat="44.556991" lon="10.7665936"><ele>110.0</ele><time>2026-04-19T08:27:00.01Z</time></trkpt><trkpt lat="44.5568123" lon="10.7666547"><ele>109.33333333333333</ele><time>2026-04-19T08:27:01.01Z</time></trkpt><trkpt lat="44.556634" lon="10.7667359"><ele>108.66666666666666</ele><time>2026-04-19T08:27:02.01Z</time></trkpt><trkpt lat="44.5564493" lon="10.7668357"><ele>108.0</ele><time>2026-04-19T08:27:03.01Z</time></trkpt><trkpt lat="44.5562614" lon="10.7669547"><ele>108.0</ele><time>2026-04-19T08:27:04.01Z</time></trkpt><trkpt lat="44.5560664" lon="10.7670725"><ele>108.0</ele><time>2026-04-19T08:27:05.01Z</time></trkpt><trkpt lat="44.5558683" lon="10.7671931"><ele>108.0</ele><time>2026-04-19T08:27:06.009Z</time></trkpt><trkpt lat="44.5556582" lon="10.7673246"><ele>108.0</ele><time>2026-04-19T08:27:07.009Z</time></trkpt><trkpt lat="44.5554387" lon="10.7674642"><ele>108.0</ele><time>2026-04-19T08:27:08.009Z</time></trkpt><trkpt lat="44.5552256" lon="10.7676068"><ele>108.0</ele><time>2026-04-19T08:27:09.01Z</time></trkpt><trkpt lat="44.5550079" lon="10.7677473"><ele>108.0</ele><time>2026-04-19T08:27:10.01Z</time></trkpt><trkpt lat="44.5547857" lon="10.7678914"><ele>108.0</ele><time>2026-04-19T08:27:11.01Z</time></trkpt><trkpt lat="44.5545624" lon="10.7680306"><ele>108.0</ele><time>2026-04-19T08:27:12.01Z</time></trkpt><trkpt lat="44.5543389" lon="10.7681694"><ele>108.5</ele><time>2026-04-19T08:27:13.01Z</time></trkpt><trkpt lat="44.5541155" lon="10.7683068"><ele>109.0</ele><time>2026-04-19T08:27:14.01Z</time></trkpt><trkpt lat="44.5538954" lon="10.7684442"><ele>108.5</ele><time>2026-04-19T08:27:15.009Z</time></trkpt><trkpt lat="44.5536766" lon="10.7685736"><ele>108.0</ele><time>2026-04-19T08:27:16.009Z</time></trkpt><trkpt lat="44.5534684" lon="10.7686971"><ele>108.0</ele><time>2026-04-19T08:27:17.01Z</time></trkpt><trkpt lat="44.5532778" lon="10.7687956"><ele>108.0</ele><time>2026-04-19T08:27:18.01Z</time></trkpt><trkpt lat="44.5531019" lon="10.7688738"><ele>108.0</ele><time>2026-04-19T08:27:19.008Z</time></trkpt><trkpt lat="44.5529344" lon="10.7689334"><ele>107.5</ele><time>2026-04-19T08:27:20.01Z</time></trkpt><trkpt lat="44.5527905" lon="10.7689766"><ele>107.0</ele><time>2026-04-19T08:27:21.009Z</time></trkpt><trkpt lat="44.5526616" lon="10.7689939"><ele>106.5</ele><time>2026-04-19T08:27:22.01Z</time></trkpt><trkpt lat="44.5525462" lon="10.7689872"><ele>106.0</ele><time>2026-04-19T08:27:23.009Z</time></trkpt><trkpt lat="44.5524294" lon="10.7689649"><ele>106.0</ele><time>2026-04-19T08:27:24.01Z</time></trkpt><trkpt lat="44.5523324" lon="10.7689524"><ele>106.0</ele><time>2026-04-19T08:27:25.01Z</time></trkpt><trkpt lat="44.5522246" lon="10.7689678"><ele>106.0</ele><time>2026-04-19T08:27:26.01Z</time></trkpt><trkpt lat="44.552114" lon="10.7690124"><ele>106.0</ele><time>2026-04-19T08:27:27.01Z</time></trkpt><trkpt lat="44.5519961" lon="10.7690631"><ele>106.0</ele><time>2026-04-19T08:27:28.01Z</time></trkpt><trkpt lat="44.5518666" lon="10.7691033"><ele>106.33333333333334</ele><time>2026-04-19T08:27:29.01Z</time></trkpt><trkpt lat="44.5517118" lon="10.7691155"><ele>106.66666666666666</ele><time>2026-04-19T08:27:30.011Z</time></trkpt><trkpt lat="44.5515493" lon="10.7691053"><ele>107.0</ele><time>2026-04-19T08:27:31.01Z</time></trkpt><trkpt lat="44.5513694" lon="10.7690855"><ele>107.33333333333333</ele><time>2026-04-19T08:27:32.011Z</time></trkpt><trkpt lat="44.5511855" lon="10.7690571"><ele>107.66666666666666</ele><time>2026-04-19T08:27:33.01Z</time></trkpt><trkpt lat="44.5509869" lon="10.7690142"><ele>108.0</ele><time>2026-04-19T08:27:34.01Z</time></trkpt><trkpt lat="44.5507702" lon="10.7689612"><ele>108.0</ele><time>2026-04-19T08:27:35.01Z</time></trkpt><trkpt lat="44.5505542" lon="10.7688939"><ele>108.0</ele><time>2026-04-19T08:27:36.009Z</time></trkpt><trkpt lat="44.5503356" lon="10.7688105"><ele>108.0</ele><time>2026-04-19T08:27:37.009Z</time></trkpt><trkpt lat="44.5501147" lon="10.7687244"><ele>108.0</ele><time>2026-04-19T08:27:38.01Z</time></trkpt><trkpt lat="44.5498952" lon="10.7686356"><ele>108.0</ele><time>2026-04-19T08:27:39.01Z</time></trkpt><trkpt lat="44.5496701" lon="10.7685393"><ele>111.0</ele><time>2026-04-19T08:27:40.009Z</time></trkpt><trkpt lat="44.5494393" lon="10.7684433"><ele>114.0</ele><time>2026-04-19T08:27:41.01Z</time></trkpt><trkpt lat="44.5492049" lon="10.7683347"><ele>114.0</ele><time>2026-04-19T08:27:42.01Z</time></trkpt><trkpt lat="44.5489603" lon="10.7682293"><ele>114.0</ele><time>2026-04-19T08:27:43.01Z</time></trkpt><trkpt lat="44.5487082" lon="10.7681263"><ele>113.0</ele><time>2026-04-19T08:27:44.01Z</time></trkpt><trkpt lat="44.5484504" lon="10.7680174"><ele>112.0</ele><time>2026-04-19T08:27:45.011Z</time></trkpt><trkpt lat="44.5481926" lon="10.7679038"><ele>112.0</ele><time>2026-04-19T08:27:46.01Z</time></trkpt><trkpt lat="44.5479342" lon="10.7677944"><ele>112.0</ele><time>2026-04-19T08:27:47.011Z</time></trkpt><trkpt lat="44.5476761" lon="10.7676881"><ele>114.0</ele><time>2026-04-19T08:27:48.009Z</time></trkpt><trkpt lat="44.5474174" lon="10.7675809"><ele>116.0</ele><time>2026-04-19T08:27:49.01Z</time></trkpt><trkpt lat="44.5471616" lon="10.76747"><ele>116.5</ele><time>2026-04-19T08:27:50.009Z</time></trkpt><trkpt lat="44.5469014" lon="10.7673665"><ele>117.0</ele><time>2026-04-19T08:27:51.01Z</time></trkpt><trkpt lat="44.5466462" lon="10.7672591"><ele>117.0</ele><time>2026-04-19T08:27:52.011Z</time></trkpt><trkpt lat="44.5463898" lon="10.7671551"><ele>117.0</ele><time>2026-04-19T08:27:53.009Z</time></trkpt><trkpt lat="44.5461342" lon="10.767048"><ele>117.0</ele><time>2026-04-19T08:27:54.009Z</time></trkpt><trkpt lat="44.5458812" lon="10.7669353"><ele>117.0</ele><time>2026-04-19T08:27:55.009Z</time></trkpt><trkpt lat="44.5456229" lon="10.7668253"><ele>116.5</ele><time>2026-04-19T08:27:56.01Z</time></trkpt><trkpt lat="44.5453621" lon="10.7667188"><ele>116.0</ele><time>2026-04-19T08:27:57.01Z</time></trkpt><trkpt lat="44.5451024" lon="10.7665959"><ele>116.0</ele><time>2026-04-19T08:27:58.01Z</time></trkpt><trkpt lat="44.544847" lon="10.766467"><ele>116.0</ele><time>2026-04-19T08:27:59.01Z</time></trkpt><trkpt lat="44.5445949" lon="10.7663322"><ele>115.5</ele><time>2026-04-19T08:28:00.009Z</time></trkpt><trkpt lat="44.5443489" lon="10.7661856"><ele>115.0</ele><time>2026-04-19T08:28:01.009Z</time></trkpt><trkpt lat="44.5441072" lon="10.7660324"><ele>116.0</ele><time>2026-04-19T08:28:02.009Z</time></trkpt><trkpt lat="44.5438717" lon="10.7658758"><ele>117.0</ele><time>2026-04-19T08:28:03.01Z</time></trkpt><trkpt lat="44.54365" lon="10.7657027"><ele>117.5</ele><time>2026-04-19T08:28:04.009Z</time></trkpt><trkpt lat="44.543429" lon="10.76553"><ele>118.0</ele><time>2026-04-19T08:28:05.011Z</time></trkpt><trkpt lat="44.5432126" lon="10.7653639"><ele>118.0</ele><time>2026-04-19T08:28:06.009Z</time></trkpt><trkpt lat="44.5430053" lon="10.7651999"><ele>118.0</ele><time>2026-04-19T08:28:07.01Z</time></trkpt><trkpt lat="44.5427981" lon="10.7650304"><ele>118.0</ele><time>2026-04-19T08:28:08.009Z</time></trkpt><trkpt lat="44.5426112" lon="10.7648916"><ele>118.0</ele><time>2026-04-19T08:28:09.009Z</time></trkpt><trkpt lat="44.5424388" lon="10.7647505"><ele>118.0</ele><time>2026-04-19T08:28:10.009Z</time></trkpt><trkpt lat="44.5422914" lon="10.7646217"><ele>118.0</ele><time>2026-04-19T08:28:11.009Z</time></trkpt><trkpt lat="44.5421561" lon="10.7645005"><ele>118.0</ele><time>2026-04-19T08:28:12.01Z</time></trkpt><trkpt lat="44.5420277" lon="10.7643832"><ele>118.0</ele><time>2026-04-19T08:28:13.01Z</time></trkpt><trkpt lat="44.5419095" lon="10.7642757"><ele>117.0</ele><time>2026-04-19T08:28:14.011Z</time></trkpt><trkpt lat="44.541802" lon="10.7641768"><ele>116.0</ele><time>2026-04-19T08:28:15.009Z</time></trkpt><trkpt lat="44.5417095" lon="10.7640703"><ele>115.0</ele><time>2026-04-19T08:28:16.009Z</time></trkpt><trkpt lat="44.5416252" lon="10.7639619"><ele>114.0</ele><time>2026-04-19T08:28:17.009Z</time></trkpt><trkpt lat="44.5415483" lon="10.7638481"><ele>114.0</ele><time>2026-04-19T08:28:18.01Z</time></trkpt><trkpt lat="44.5414763" lon="10.763725"><ele>114.0</ele><time>2026-04-19T08:28:19.009Z</time></trkpt><trkpt lat="44.5414116" lon="10.7635933"><ele>114.0</ele><time>2026-04-19T08:28:20.009Z</time></trkpt><trkpt lat="44.5413595" lon="10.7634631"><ele>114.0</ele><time>2026-04-19T08:28:21.01Z</time></trkpt><trkpt lat="44.541312" lon="10.7633398"><ele>114.0</ele><time>2026-04-19T08:28:22.011Z</time></trkpt><trkpt lat="44.541258" lon="10.7632389"><ele>115.2</ele><time>2026-04-19T08:28:23.01Z</time></trkpt><trkpt lat="44.5411944" lon="10.763161"><ele>116.4</ele><time>2026-04-19T08:28:24.009Z</time></trkpt><trkpt lat="44.5411201" lon="10.7631013"><ele>117.6</ele><time>2026-04-19T08:28:25.01Z</time></trkpt><trkpt lat="44.5410362" lon="10.7630815"><ele>118.8</ele><time>2026-04-19T08:28:26.009Z</time></trkpt><trkpt lat="44.5409439" lon="10.7630941"><ele>120.0</ele><time>2026-04-19T08:28:27.009Z</time></trkpt><trkpt lat="44.5408409" lon="10.7631099"><ele>120.0</ele><time>2026-04-19T08:28:28.01Z</time></trkpt><trkpt lat="44.5407299" lon="10.7631034"><ele>120.0</ele><time>2026-04-19T08:28:29.009Z</time></trkpt><trkpt lat="44.5406118" lon="10.7630934"><ele>120.0</ele><time>2026-04-19T08:28:30.009Z</time></trkpt><trkpt lat="44.5404999" lon="10.763023"><ele>120.0</ele><time>2026-04-19T08:28:31.01Z</time></trkpt><trkpt lat="44.5403827" lon="10.7629398"><ele>119.0</ele><time>2026-04-19T08:28:32.009Z</time></trkpt><trkpt lat="44.5402524" lon="10.76283"><ele>118.0</ele><time>2026-04-19T08:28:33.009Z</time></trkpt><trkpt lat="44.5401265" lon="10.7627116"><ele>117.0</ele><time>2026-04-19T08:28:34.009Z</time></trkpt><trkpt lat="44.5399867" lon="10.7625898"><ele>117.0</ele><time>2026-04-19T08:28:35.009Z</time></trkpt><trkpt lat="44.5398442" lon="10.7624622"><ele>117.0</ele><time>2026-04-19T08:28:36.009Z</time></trkpt><trkpt lat="44.5397001" lon="10.7623437"><ele>117.0</ele><time>2026-04-19T08:28:37.009Z</time></trkpt><trkpt lat="44.5395666" lon="10.7622282"><ele>118.33333333333334</ele><time>2026-04-19T08:28:38.009Z</time></trkpt><trkpt lat="44.539434" lon="10.7621159"><ele>119.66666666666667</ele><time>2026-04-19T08:28:39.009Z</time></trkpt><trkpt lat="44.5393053" lon="10.762006"><ele>121.0</ele><time>2026-04-19T08:28:40.01Z</time></trkpt><trkpt lat="44.5391737" lon="10.7618884"><ele>121.66666666666667</ele><time>2026-04-19T08:28:41.01Z</time></trkpt><trkpt lat="44.5390356" lon="10.7617651"><ele>122.33333333333334</ele><time>2026-04-19T08:28:42.009Z</time></trkpt><trkpt lat="44.5388886" lon="10.7616274"><ele>123.0</ele><time>2026-04-19T08:28:43.01Z</time></trkpt><trkpt lat="44.5387266" lon="10.7614661"><ele>122.33333333333334</ele><time>2026-04-19T08:28:44.01Z</time></trkpt><trkpt lat="44.5385581" lon="10.7613032"><ele>121.66666666666667</ele><time>2026-04-19T08:28:45.008Z</time></trkpt><trkpt lat="44.5383826" lon="10.7611271"><ele>121.0</ele><time>2026-04-19T08:28:46.01Z</time></trkpt><trkpt lat="44.5381978" lon="10.7609388"><ele>120.5</ele><time>2026-04-19T08:28:47.01Z</time></trkpt><trkpt lat="44.5380016" lon="10.7607436"><ele>120.0</ele><time>2026-04-19T08:28:48.01Z</time></trkpt><trkpt lat="44.5378014" lon="10.760545"><ele>119.0</ele><time>2026-04-19T08:28:49.009Z</time></trkpt><trkpt lat="44.5375959" lon="10.7603382"><ele>118.0</ele><time>2026-04-19T08:28:50.009Z</time></trkpt><trkpt lat="44.5373933" lon="10.7601294"><ele>120.0</ele><time>2026-04-19T08:28:51.009Z</time></trkpt><trkpt lat="44.5371894" lon="10.7599152"><ele>122.0</ele><time>2026-04-19T08:28:52.01Z</time></trkpt><trkpt lat="44.5369881" lon="10.7597018"><ele>122.0</ele><time>2026-04-19T08:28:53.009Z</time></trkpt><trkpt lat="44.5367908" lon="10.7594932"><ele>122.0</ele><time>2026-04-19T08:28:54.008Z</time></trkpt><trkpt lat="44.5365958" lon="10.759287"><ele>123.0</ele><time>2026-04-19T08:28:55.009Z</time></trkpt><trkpt lat="44.5363981" lon="10.7590848"><ele>124.0</ele><time>2026-04-19T08:28:56.01Z</time></trkpt><trkpt lat="44.5362053" lon="10.7588816"><ele>123.0</ele><time>2026-04-19T08:28:57.01Z</time></trkpt><trkpt lat="44.5360107" lon="10.7586817"><ele>122.0</ele><time>2026-04-19T08:28:58.009Z</time></trkpt><trkpt lat="44.5358089" lon="10.7584817"><ele>122.0</ele><time>2026-04-19T08:28:59.011Z</time></trkpt><trkpt lat="44.5356023" lon="10.7582805"><ele>122.0</ele><time>2026-04-19T08:29:00.01Z</time></trkpt><trkpt lat="44.5353916" lon="10.7580738"><ele>122.0</ele><time>2026-04-19T08:29:01.01Z</time></trkpt><trkpt lat="44.5351752" lon="10.7578584"><ele>122.0</ele><time>2026-04-19T08:29:02.01Z</time></trkpt><trkpt lat="44.5349583" lon="10.7576486"><ele>122.0</ele><time>2026-04-19T08:29:03.009Z</time></trkpt><trkpt lat="44.5347354" lon="10.7574267"><ele>122.0</ele><time>2026-04-19T08:29:04.01Z</time></trkpt><trkpt lat="44.5345144" lon="10.7572059"><ele>122.0</ele><time>2026-04-19T08:29:05.009Z</time></trkpt><trkpt lat="44.5342886" lon="10.7569759"><ele>122.0</ele><time>2026-04-19T08:29:06.009Z</time></trkpt><trkpt lat="44.5340618" lon="10.7567412"><ele>122.0</ele><time>2026-04-19T08:29:07.01Z</time></trkpt><trkpt lat="44.5338306" lon="10.7565088"><ele>122.0</ele><time>2026-04-19T08:29:08.01Z</time></trkpt><trkpt lat="44.5336085" lon="10.7562803"><ele>122.0</ele><time>2026-04-19T08:29:09.01Z</time></trkpt><trkpt lat="44.5333888" lon="10.7560571"><ele>122.0</ele><time>2026-04-19T08:29:10.011Z</time></trkpt><trkpt lat="44.5331759" lon="10.7558374"><ele>122.5</ele><time>2026-04-19T08:29:11.009Z</time></trkpt><trkpt lat="44.5329605" lon="10.7556197"><ele>123.0</ele><time>2026-04-19T08:29:12.01Z</time></trkpt><trkpt lat="44.5327486" lon="10.7554082"><ele>124.0</ele><time>2026-04-19T08:29:13.009Z</time></trkpt><trkpt lat="44.5325388" lon="10.7552017"><ele>125.0</ele><time>2026-04-19T08:29:14.009Z</time></trkpt><trkpt lat="44.5323356" lon="10.7549959"><ele>125.0</ele><time>2026-04-19T08:29:15.01Z</time></trkpt><trkpt lat="44.5321412" lon="10.754799"><ele>125.0</ele><time>2026-04-19T08:29:16.009Z</time></trkpt><trkpt lat="44.5319495" lon="10.7546011"><ele>126.0</ele><time>2026-04-19T08:29:17.01Z</time></trkpt><trkpt lat="44.5317559" lon="10.7544075"><ele>127.0</ele><time>2026-04-19T08:29:18.01Z</time></trkpt><trkpt lat="44.5315629" lon="10.7542139"><ele>126.5</ele><time>2026-04-19T08:29:19.011Z</time></trkpt><trkpt lat="44.5313745" lon="10.7540192"><ele>126.0</ele><time>2026-04-19T08:29:20.01Z</time></trkpt><trkpt lat="44.5311879" lon="10.7538285"><ele>126.0</ele><time>2026-04-19T08:29:21.009Z</time></trkpt><trkpt lat="44.5309964" lon="10.7536382"><ele>126.0</ele><time>2026-04-19T08:29:22.011Z</time></trkpt><trkpt lat="44.5308033" lon="10.7534481"><ele>126.5</ele><time>2026-04-19T08:29:23.01Z</time></trkpt><trkpt lat="44.5306113" lon="10.7532627"><ele>127.0</ele><time>2026-04-19T08:29:24.01Z</time></trkpt><trkpt lat="44.5304261" lon="10.753075"><ele>128.5</ele><time>2026-04-19T08:29:25.009Z</time></trkpt><trkpt lat="44.5302362" lon="10.7528881"><ele>130.0</ele><time>2026-04-19T08:29:26.009Z</time></trkpt><trkpt lat="44.5300455" lon="10.7526996"><ele>130.0</ele><time>2026-04-19T08:29:27.01Z</time></trkpt><trkpt lat="44.5298502" lon="10.752511"><ele>130.0</ele><time>2026-04-19T08:29:28.009Z</time></trkpt><trkpt lat="44.5296559" lon="10.7523157"><ele>130.5</ele><time>2026-04-19T08:29:29.009Z</time></trkpt><trkpt lat="44.529461" lon="10.7521221"><ele>131.0</ele><time>2026-04-19T08:29:30.009Z</time></trkpt><trkpt lat="44.5292691" lon="10.7519323"><ele>131.5</ele><time>2026-04-19T08:29:31.01Z</time></trkpt><trkpt lat="44.5290826" lon="10.7517386"><ele>132.0</ele><time>2026-04-19T08:29:32.009Z</time></trkpt><trkpt lat="44.5288943" lon="10.7515471"><ele>131.5</ele><time>2026-04-19T08:29:33.011Z</time></trkpt><trkpt lat="44.5287085" lon="10.7513544"><ele>131.0</ele><time>2026-04-19T08:29:34.009Z</time></trkpt><trkpt lat="44.5285236" lon="10.7511635"><ele>132.0</ele><time>2026-04-19T08:29:35.01Z</time></trkpt><trkpt lat="44.5283394" lon="10.7509801"><ele>133.0</ele><time>2026-04-19T08:29:36.009Z</time></trkpt><trkpt lat="44.5281554" lon="10.7507944"><ele>133.0</ele><time>2026-04-19T08:29:37.01Z</time></trkpt><trkpt lat="44.5279707" lon="10.7506127"><ele>133.0</ele><time>2026-04-19T08:29:38.009Z</time></trkpt><trkpt lat="44.527787" lon="10.7504331"><ele>133.0</ele><time>2026-04-19T08:29:39.011Z</time></trkpt><trkpt lat="44.5276064" lon="10.7502537"><ele>133.33333333333334</ele><time>2026-04-19T08:29:40.01Z</time></trkpt><trkpt lat="44.5274312" lon="10.750076"><ele>133.66666666666666</ele><time>2026-04-19T08:29:41.01Z</time></trkpt><trkpt lat="44.5272605" lon="10.7499014"><ele>134.0</ele><time>2026-04-19T08:29:42.01Z</time></trkpt><trkpt lat="44.5270904" lon="10.7497271"><ele>134.0</ele><time>2026-04-19T08:29:43.01Z</time></trkpt><trkpt lat="44.526925" lon="10.7495564"><ele>134.0</ele><time>2026-04-19T08:29:44.01Z</time></trkpt><trkpt lat="44.5267528" lon="10.7493917"><ele>134.0</ele><time>2026-04-19T08:29:45.011Z</time></trkpt><trkpt lat="44.5265806" lon="10.7492334"><ele>134.0</ele><time>2026-04-19T08:29:46.01Z</time></trkpt><trkpt lat="44.5264147" lon="10.7490801"><ele>134.0</ele><time>2026-04-19T08:29:47.009Z</time></trkpt><trkpt lat="44.5262507" lon="10.7489345"><ele>134.0</ele><time>2026-04-19T08:29:48.01Z</time></trkpt><trkpt lat="44.5260916" lon="10.7487955"><ele>134.0</ele><time>2026-04-19T08:29:49.01Z</time></trkpt><trkpt lat="44.5259391" lon="10.7486651"><ele>134.0</ele><time>2026-04-19T08:29:50.009Z</time></trkpt><trkpt lat="44.5257881" lon="10.7485381"><ele>134.0</ele><time>2026-04-19T08:29:51.01Z</time></trkpt><trkpt lat="44.5256419" lon="10.748421"><ele>134.0</ele><time>2026-04-19T08:29:52.011Z</time></trkpt><trkpt lat="44.5254976" lon="10.7483069"><ele>134.0</ele><time>2026-04-19T08:29:53.01Z</time></trkpt><trkpt lat="44.5253558" lon="10.7481977"><ele>134.0</ele><time>2026-04-19T08:29:54.01Z</time></trkpt><trkpt lat="44.525218" lon="10.7480872"><ele>134.5</ele><time>2026-04-19T08:29:55.01Z</time></trkpt><trkpt lat="44.5250818" lon="10.7479829"><ele>135.0</ele><time>2026-04-19T08:29:56.011Z</time></trkpt><trkpt lat="44.5249492" lon="10.7478909"><ele>135.5</ele><time>2026-04-19T08:29:57.009Z</time></trkpt><trkpt lat="44.5248282" lon="10.7478017"><ele>136.0</ele><time>2026-04-19T08:29:58.009Z</time></trkpt><trkpt lat="44.5247084" lon="10.747716"><ele>136.0</ele><time>2026-04-19T08:29:59.01Z</time></trkpt><trkpt lat="44.5245848" lon="10.7476342"><ele>136.0</ele><time>2026-04-19T08:30:00.009Z</time></trkpt><trkpt lat="44.5244645" lon="10.7475483"><ele>136.0</ele><time>2026-04-19T08:30:01.011Z</time></trkpt><trkpt lat="44.524357" lon="10.747475"><ele>136.0</ele><time>2026-04-19T08:30:02.01Z</time></trkpt><trkpt lat="44.5242547" lon="10.7474057"><ele>136.0</ele><time>2026-04-19T08:30:03.01Z</time></trkpt><trkpt lat="44.5241703" lon="10.7473536"><ele>136.0</ele><time>2026-04-19T08:30:04.01Z</time></trkpt><trkpt lat="44.5240983" lon="10.7473071"><ele>136.0</ele><time>2026-04-19T08:30:05.009Z</time></trkpt><trkpt lat="44.5240312" lon="10.7472626"><ele>136.0</ele><time>2026-04-19T08:30:06.009Z</time></trkpt><trkpt lat="44.5239517" lon="10.7472166"><ele>136.0</ele><time>2026-04-19T08:30:07.009Z</time></trkpt><trkpt lat="44.5238511" lon="10.747161"><ele>136.0</ele><time>2026-04-19T08:30:08.011Z</time></trkpt><trkpt lat="44.5237258" lon="10.7470886"><ele>135.66666666666669</ele><time>2026-04-19T08:30:09.01Z</time></trkpt><trkpt lat="44.5235686" lon="10.7470021"><ele>135.33333333333334</ele><time>2026-04-19T08:30:10.01Z</time></trkpt><trkpt lat="44.5234087" lon="10.7469117"><ele>135.0</ele><time>2026-04-19T08:30:11.009Z</time></trkpt><trkpt lat="44.5232413" lon="10.7468161"><ele>134.66666666666666</ele><time>2026-04-19T08:30:12.01Z</time></trkpt><trkpt lat="44.5230626" lon="10.7467186"><ele>134.33333333333331</ele><time>2026-04-19T08:30:13.01Z</time></trkpt><trkpt lat="44.5228756" lon="10.7466142"><ele>134.0</ele><time>2026-04-19T08:30:14.01Z</time></trkpt><trkpt lat="44.5226999" lon="10.7465158"><ele>134.0</ele><time>2026-04-19T08:30:15.009Z</time></trkpt><trkpt lat="44.522532" lon="10.7464271"><ele>134.0</ele><time>2026-04-19T08:30:16.01Z</time></trkpt><trkpt lat="44.5223572" lon="10.7463321"><ele>134.0</ele><time>2026-04-19T08:30:17.009Z</time></trkpt><trkpt lat="44.5221772" lon="10.7462418"><ele>133.33333333333331</ele><time>2026-04-19T08:30:18.01Z</time></trkpt><trkpt lat="44.5219847" lon="10.746141"><ele>132.66666666666666</ele><time>2026-04-19T08:30:19.009Z</time></trkpt><trkpt lat="44.5217963" lon="10.74604"><ele>132.0</ele><time>2026-04-19T08:30:20.01Z</time></trkpt><trkpt lat="44.5216007" lon="10.7459342"><ele>133.66666666666666</ele><time>2026-04-19T08:30:21.011Z</time></trkpt><trkpt lat="44.5214022" lon="10.7458268"><ele>135.33333333333331</ele><time>2026-04-19T08:30:22.009Z</time></trkpt><trkpt lat="44.521194" lon="10.7457135"><ele>137.0</ele><time>2026-04-19T08:30:23.01Z</time></trkpt><trkpt lat="44.5209761" lon="10.7455974"><ele>138.0</ele><time>2026-04-19T08:30:24.011Z</time></trkpt><trkpt lat="44.5207476" lon="10.7454864"><ele>139.0</ele><time>2026-04-19T08:30:25.01Z</time></trkpt><trkpt lat="44.5205151" lon="10.7453704"><ele>138.5</ele><time>2026-04-19T08:30:26.01Z</time></trkpt><trkpt lat="44.5202795" lon="10.745246"><ele>138.0</ele><time>2026-04-19T08:30:27.01Z</time></trkpt><trkpt lat="44.5200449" lon="10.7451172"><ele>138.0</ele><time>2026-04-19T08:30:28.01Z</time></trkpt><trkpt lat="44.5198093" lon="10.7449927"><ele>138.0</ele><time>2026-04-19T08:30:29.009Z</time></trkpt><trkpt lat="44.5195768" lon="10.7448662"><ele>137.5</ele><time>2026-04-19T08:30:30.01Z</time></trkpt><trkpt lat="44.5193472" lon="10.7447419"><ele>137.0</ele><time>2026-04-19T08:30:31.009Z</time></trkpt><trkpt lat="44.5191161" lon="10.7446199"><ele>137.0</ele><time>2026-04-19T08:30:32.009Z</time></trkpt><trkpt lat="44.51888" lon="10.7445007"><ele>137.0</ele><time>2026-04-19T08:30:33.009Z</time></trkpt><trkpt lat="44.5186393" lon="10.7443805"><ele>139.0</ele><time>2026-04-19T08:30:34.01Z</time></trkpt><trkpt lat="44.5183916" lon="10.7442507"><ele>141.0</ele><time>2026-04-19T08:30:35.01Z</time></trkpt><trkpt lat="44.5181387" lon="10.7441219"><ele>140.5</ele><time>2026-04-19T08:30:36.009Z</time></trkpt><trkpt lat="44.5178852" lon="10.7439893"><ele>140.0</ele><time>2026-04-19T08:30:37.009Z</time></trkpt><trkpt lat="44.5176301" lon="10.7438537"><ele>140.0</ele><time>2026-04-19T08:30:38.01Z</time></trkpt><trkpt lat="44.5173782" lon="10.7437126"><ele>140.0</ele><time>2026-04-19T08:30:39.009Z</time></trkpt><trkpt lat="44.5171283" lon="10.7435785"><ele>141.0</ele><time>2026-04-19T08:30:40.01Z</time></trkpt><trkpt lat="44.5168826" lon="10.743444"><ele>142.0</ele><time>2026-04-19T08:30:41.01Z</time></trkpt><trkpt lat="44.516651" lon="10.7433155"><ele>142.0</ele><time>2026-04-19T08:30:42.01Z</time></trkpt><trkpt lat="44.5164263" lon="10.7431866"><ele>142.0</ele><time>2026-04-19T08:30:43.01Z</time></trkpt><trkpt lat="44.5162149" lon="10.7430593"><ele>142.66666666666669</ele><time>2026-04-19T08:30:44.01Z</time></trkpt><trkpt lat="44.5160132" lon="10.7429334"><ele>143.33333333333334</ele><time>2026-04-19T08:30:45.008Z</time></trkpt><trkpt lat="44.5158137" lon="10.7428063"><ele>144.0</ele><time>2026-04-19T08:30:46.009Z</time></trkpt><trkpt lat="44.5156156" lon="10.7426773"><ele>144.0</ele><time>2026-04-19T08:30:47.011Z</time></trkpt><trkpt lat="44.5154201" lon="10.742542"><ele>144.0</ele><time>2026-04-19T08:30:48.01Z</time></trkpt><trkpt lat="44.5152232" lon="10.7424071"><ele>144.0</ele><time>2026-04-19T08:30:49.011Z</time></trkpt><trkpt lat="44.515038" lon="10.7422639"><ele>143.66666666666666</ele><time>2026-04-19T08:30:50.01Z</time></trkpt><trkpt lat="44.5148488" lon="10.7421082"><ele>143.33333333333331</ele><time>2026-04-19T08:30:51.011Z</time></trkpt><trkpt lat="44.5146631" lon="10.7419457"><ele>143.0</ele><time>2026-04-19T08:30:52.009Z</time></trkpt><trkpt lat="44.5144604" lon="10.741768"><ele>143.0</ele><time>2026-04-19T08:30:53.01Z</time></trkpt><trkpt lat="44.5142461" lon="10.7415827"><ele>143.0</ele><time>2026-04-19T08:30:54.01Z</time></trkpt><trkpt lat="44.5140222" lon="10.7413861"><ele>143.0</ele><time>2026-04-19T08:30:55.009Z</time></trkpt><trkpt lat="44.5138028" lon="10.7411866"><ele>143.0</ele><time>2026-04-19T08:30:56.009Z</time></trkpt><trkpt lat="44.5135917" lon="10.7409915"><ele>143.0</ele><time>2026-04-19T08:30:57.01Z</time></trkpt><trkpt lat="44.5133929" lon="10.7408101"><ele>143.0</ele><time>2026-04-19T08:30:58.009Z</time></trkpt><trkpt lat="44.513206" lon="10.7406393"><ele>143.0</ele><time>2026-04-19T08:30:59.011Z</time></trkpt><trkpt lat="44.5130276" lon="10.740477"><ele>143.0</ele><time>2026-04-19T08:31:00.009Z</time></trkpt><trkpt lat="44.5128475" lon="10.7403142"><ele>143.0</ele><time>2026-04-19T08:31:01.01Z</time></trkpt><trkpt lat="44.5126634" lon="10.7401497"><ele>144.5</ele><time>2026-04-19T08:31:02.009Z</time></trkpt><trkpt lat="44.5124692" lon="10.7399744"><ele>146.0</ele><time>2026-04-19T08:31:03.009Z</time></trkpt><trkpt lat="44.5122617" lon="10.7397997"><ele>146.0</ele><time>2026-04-19T08:31:04.01Z</time></trkpt><trkpt lat="44.5120405" lon="10.739616"><ele>146.0</ele><time>2026-04-19T08:31:05.009Z</time></trkpt><trkpt lat="44.5118173" lon="10.7394199"><ele>147.0</ele><time>2026-04-19T08:31:06.009Z</time></trkpt><trkpt lat="44.5115715" lon="10.7391967"><ele>148.0</ele><time>2026-04-19T08:31:07.009Z</time></trkpt><trkpt lat="44.5113364" lon="10.7389743"><ele>147.5</ele><time>2026-04-19T08:31:08.009Z</time></trkpt><trkpt lat="44.511105" lon="10.7387575"><ele>147.0</ele><time>2026-04-19T08:31:09.01Z</time></trkpt><trkpt lat="44.5108764" lon="10.7385491"><ele>147.0</ele><time>2026-04-19T08:31:10.01Z</time></trkpt><trkpt lat="44.5106544" lon="10.7383468"><ele>147.0</ele><time>2026-04-19T08:31:11.01Z</time></trkpt><trkpt lat="44.5104357" lon="10.7381461"><ele>146.5</ele><time>2026-04-19T08:31:12.01Z</time></trkpt><trkpt lat="44.5102241" lon="10.7379536"><ele>146.0</ele><time>2026-04-19T08:31:13.01Z</time></trkpt><trkpt lat="44.5100176" lon="10.7377592"><ele>147.0</ele><time>2026-04-19T08:31:14.01Z</time></trkpt><trkpt lat="44.5098123" lon="10.737574"><ele>148.0</ele><time>2026-04-19T08:31:15.01Z</time></trkpt><trkpt lat="44.5096123" lon="10.7373805"><ele>146.0</ele><time>2026-04-19T08:31:16.01Z</time></trkpt><trkpt lat="44.5094113" lon="10.7371751"><ele>144.0</ele><time>2026-04-19T08:31:17.009Z</time></trkpt><trkpt lat="44.5092153" lon="10.7369616"><ele>146.0</ele><time>2026-04-19T08:31:18.01Z</time></trkpt><trkpt lat="44.5090239" lon="10.7367421"><ele>148.0</ele><time>2026-04-19T08:31:19.01Z</time></trkpt><trkpt lat="44.5088338" lon="10.7365156"><ele>148.0</ele><time>2026-04-19T08:31:20.01Z</time></trkpt><trkpt lat="44.508646" lon="10.7362814"><ele>148.0</ele><time>2026-04-19T08:31:21.011Z</time></trkpt><trkpt lat="44.5084612" lon="10.7360408"><ele>148.0</ele><time>2026-04-19T08:31:22.01Z</time></trkpt><trkpt lat="44.5082795" lon="10.7357886"><ele>148.0</ele><time>2026-04-19T08:31:23.01Z</time></trkpt><trkpt lat="44.5081002" lon="10.7355271"><ele>148.0</ele><time>2026-04-19T08:31:24.01Z</time></trkpt><trkpt lat="44.5079249" lon="10.7352529"><ele>148.0</ele><time>2026-04-19T08:31:25.01Z</time></trkpt><trkpt lat="44.507752" lon="10.7349717"><ele>147.5</ele><time>2026-04-19T08:31:26.01Z</time></trkpt><trkpt lat="44.5075796" lon="10.7346837"><ele>147.0</ele><time>2026-04-19T08:31:27.01Z</time></trkpt><trkpt lat="44.5074169" lon="10.7343869"><ele>148.5</ele><time>2026-04-19T08:31:28.011Z</time></trkpt><trkpt lat="44.5072571" lon="10.7340784"><ele>150.0</ele><time>2026-04-19T08:31:29.01Z</time></trkpt><trkpt lat="44.5071047" lon="10.7337629"><ele>149.0</ele><time>2026-04-19T08:31:30.01Z</time></trkpt><trkpt lat="44.5069602" lon="10.7334368"><ele>148.0</ele><time>2026-04-19T08:31:31.01Z</time></trkpt><trkpt lat="44.5068253" lon="10.7331033"><ele>148.0</ele><time>2026-04-19T08:31:32.01Z</time></trkpt><trkpt lat="44.5066955" lon="10.7327636"><ele>148.0</ele><time>2026-04-19T08:31:33.01Z</time></trkpt><trkpt lat="44.5065754" lon="10.7324098"><ele>150.5</ele><time>2026-04-19T08:31:34.01Z</time></trkpt><trkpt lat="44.5064612" lon="10.7320508"><ele>153.0</ele><time>2026-04-19T08:31:35.009Z</time></trkpt><trkpt lat="44.5063481" lon="10.7316844"><ele>152.5</ele><time>2026-04-19T08:31:36.009Z</time></trkpt><trkpt lat="44.5062364" lon="10.7313337"><ele>152.0</ele><time>2026-04-19T08:31:37.01Z</time></trkpt><trkpt lat="44.5061287" lon="10.7309811"><ele>152.0</ele><time>2026-04-19T08:31:38.01Z</time></trkpt><trkpt lat="44.5060172" lon="10.7306332"><ele>152.0</ele><time>2026-04-19T08:31:39.009Z</time></trkpt><trkpt lat="44.505908" lon="10.7302922"><ele>153.0</ele><time>2026-04-19T08:31:40.008Z</time></trkpt><trkpt lat="44.5058014" lon="10.7299621"><ele>154.0</ele><time>2026-04-19T08:31:41.01Z</time></trkpt><trkpt lat="44.5056985" lon="10.7296409"><ele>154.5</ele><time>2026-04-19T08:31:42.009Z</time></trkpt><trkpt lat="44.5056028" lon="10.7293257"><ele>155.0</ele><time>2026-04-19T08:31:43.01Z</time></trkpt><trkpt lat="44.5055099" lon="10.7290349"><ele>155.0</ele><time>2026-04-19T08:31:44.01Z</time></trkpt><trkpt lat="44.5054186" lon="10.7287404"><ele>155.0</ele><time>2026-04-19T08:31:45.01Z</time></trkpt><trkpt lat="44.5053403" lon="10.7284762"><ele>155.0</ele><time>2026-04-19T08:31:46.009Z</time></trkpt><trkpt lat="44.5052632" lon="10.7282155"><ele>155.0</ele><time>2026-04-19T08:31:47.009Z</time></trkpt><trkpt lat="44.5051938" lon="10.7279601"><ele>155.0</ele><time>2026-04-19T08:31:48.01Z</time></trkpt><trkpt lat="44.5051298" lon="10.7277053"><ele>155.0</ele><time>2026-04-19T08:31:49.01Z</time></trkpt><trkpt lat="44.5050768" lon="10.7274435"><ele>156.0</ele><time>2026-04-19T08:31:50.01Z</time></trkpt><trkpt lat="44.5050293" lon="10.7271736"><ele>157.0</ele><time>2026-04-19T08:31:51.01Z</time></trkpt><trkpt lat="44.5049897" lon="10.7268973"><ele>158.0</ele><time>2026-04-19T08:31:52.009Z</time></trkpt><trkpt lat="44.5049663" lon="10.7266372"><ele>158.33333333333331</ele><time>2026-04-19T08:31:53.008Z</time></trkpt><trkpt lat="44.5049466" lon="10.7263869"><ele>158.66666666666666</ele><time>2026-04-19T08:31:54.011Z</time></trkpt><trkpt lat="44.5049308" lon="10.7261573"><ele>159.0</ele><time>2026-04-19T08:31:55.01Z</time></trkpt><trkpt lat="44.5049153" lon="10.7259586"><ele>159.6</ele><time>2026-04-19T08:31:56.009Z</time></trkpt><trkpt lat="44.5049115" lon="10.7257845"><ele>160.2</ele><time>2026-04-19T08:31:57.01Z</time></trkpt><trkpt lat="44.5049168" lon="10.7256285"><ele>160.79999999999998</ele><time>2026-04-19T08:31:58.009Z</time></trkpt><trkpt lat="44.5049371" lon="10.7255099"><ele>161.4</ele><time>2026-04-19T08:31:59.01Z</time></trkpt><trkpt lat="44.5049607" lon="10.725396"><ele>162.0</ele><time>2026-04-19T08:32:00.01Z</time></trkpt><trkpt lat="44.5049644" lon="10.72528"><ele>163.8</ele><time>2026-04-19T08:32:01.01Z</time></trkpt><trkpt lat="44.504945" lon="10.7251674"><ele>165.6</ele><time>2026-04-19T08:32:02.009Z</time></trkpt><trkpt lat="44.5048934" lon="10.7250673"><ele>167.4</ele><time>2026-04-19T08:32:03.009Z</time></trkpt><trkpt lat="44.5048231" lon="10.7249709"><ele>169.20000000000002</ele><time>2026-04-19T08:32:04.01Z</time></trkpt><trkpt lat="44.5047249" lon="10.7248712"><ele>171.0</ele><time>2026-04-19T08:32:05.009Z</time></trkpt><trkpt lat="44.5046398" lon="10.7247393"><ele>171.33333333333334</ele><time>2026-04-19T08:32:06.009Z</time></trkpt><trkpt lat="44.5045541" lon="10.7245737"><ele>171.66666666666669</ele><time>2026-04-19T08:32:07.01Z</time></trkpt><trkpt lat="44.5044766" lon="10.7243803"><ele>172.0</ele><time>2026-04-19T08:32:08.01Z</time></trkpt><trkpt lat="44.5043935" lon="10.7241619"><ele>172.0</ele><time>2026-04-19T08:32:09.009Z</time></trkpt><trkpt lat="44.5043086" lon="10.7239179"><ele>172.0</ele><time>2026-04-19T08:32:10.009Z</time></trkpt><trkpt lat="44.5042215" lon="10.7236831"><ele>172.0</ele><time>2026-04-19T08:32:11.009Z</time></trkpt><trkpt lat="44.5041282" lon="10.7234332"><ele>174.0</ele><time>2026-04-19T08:32:12.011Z</time></trkpt><trkpt lat="44.5040325" lon="10.7231791"><ele>176.0</ele><time>2026-04-19T08:32:13.01Z</time></trkpt><trkpt lat="44.5039346" lon="10.7229176"><ele>178.0</ele><time>2026-04-19T08:32:14.009Z</time></trkpt><trkpt lat="44.5038298" lon="10.7226516"><ele>174.0</ele><time>2026-04-19T08:32:15.009Z</time></trkpt><trkpt lat="44.5037265" lon="10.7223716"><ele>170.0</ele><time>2026-04-19T08:32:16.01Z</time></trkpt><trkpt lat="44.5036176" lon="10.7220927"><ele>174.0</ele><time>2026-04-19T08:32:17.009Z</time></trkpt><trkpt lat="44.5035061" lon="10.7218067"><ele>178.0</ele><time>2026-04-19T08:32:18.009Z</time></trkpt><trkpt lat="44.5033999" lon="10.7215241"><ele>178.0</ele><time>2026-04-19T08:32:19.009Z</time></trkpt><trkpt lat="44.5032971" lon="10.7212443"><ele>178.0</ele><time>2026-04-19T08:32:20.009Z</time></trkpt><trkpt lat="44.5031966" lon="10.7209703"><ele>178.0</ele><time>2026-04-19T08:32:21.009Z</time></trkpt><trkpt lat="44.503095" lon="10.7207069"><ele>178.66666666666669</ele><time>2026-04-19T08:32:22.009Z</time></trkpt><trkpt lat="44.50299" lon="10.7204524"><ele>179.33333333333334</ele><time>2026-04-19T08:32:23.01Z</time></trkpt><trkpt lat="44.5028855" lon="10.7202215"><ele>180.0</ele><time>2026-04-19T08:32:24.011Z</time></trkpt><trkpt lat="44.502769" lon="10.7200147"><ele>180.0</ele><time>2026-04-19T08:32:25.01Z</time></trkpt><trkpt lat="44.5026354" lon="10.7198257"><ele>180.0</ele><time>2026-04-19T08:32:26.01Z</time></trkpt><trkpt lat="44.5024824" lon="10.7196653"><ele>180.0</ele><time>2026-04-19T08:32:27.01Z</time></trkpt><trkpt lat="44.502309" lon="10.7195268"><ele>180.0</ele><time>2026-04-19T08:32:28.01Z</time></trkpt><trkpt lat="44.5021187" lon="10.7194107"><ele>180.0</ele><time>2026-04-19T08:32:29.01Z</time></trkpt><trkpt lat="44.5019166" lon="10.7193066"><ele>180.0</ele><time>2026-04-19T08:32:30.01Z</time></trkpt><trkpt lat="44.5017137" lon="10.7192018"><ele>185.0</ele><time>2026-04-19T08:32:31.008Z</time></trkpt><trkpt lat="44.5015021" lon="10.7190886"><ele>190.0</ele><time>2026-04-19T08:32:32.008Z</time></trkpt><trkpt lat="44.5012848" lon="10.7189722"><ele>184.0</ele><time>2026-04-19T08:32:33.009Z</time></trkpt><trkpt lat="44.5010659" lon="10.7188579"><ele>178.0</ele><time>2026-04-19T08:32:34.009Z</time></trkpt><trkpt lat="44.5008584" lon="10.71875"><ele>178.0</ele><time>2026-04-19T08:32:35.009Z</time></trkpt><trkpt lat="44.5006573" lon="10.718649"><ele>178.0</ele><time>2026-04-19T08:32:36.011Z</time></trkpt><trkpt lat="44.5004739" lon="10.718552"><ele>178.0</ele><time>2026-04-19T08:32:37.009Z</time></trkpt><trkpt lat="44.5003037" lon="10.718461"><ele>182.0</ele><time>2026-04-19T08:32:38.009Z</time></trkpt><trkpt lat="44.5001417" lon="10.7183781"><ele>186.0</ele><time>2026-04-19T08:32:39.009Z</time></trkpt><trkpt lat="44.4999909" lon="10.7182981"><ele>190.0</ele><time>2026-04-19T08:32:40.009Z</time></trkpt><trkpt lat="44.4998492" lon="10.7182209"><ele>190.0</ele><time>2026-04-19T08:32:41.008Z</time></trkpt><trkpt lat="44.4997183" lon="10.7181488"><ele>190.0</ele><time>2026-04-19T08:32:42.01Z</time></trkpt><trkpt lat="44.4995836" lon="10.7180802"><ele>190.0</ele><time>2026-04-19T08:32:43.008Z</time></trkpt><trkpt lat="44.4994576" lon="10.7180052"><ele>190.0</ele><time>2026-04-19T08:32:44.009Z</time></trkpt><trkpt lat="44.499331" lon="10.7179131"><ele>189.5</ele><time>2026-04-19T08:32:45.009Z</time></trkpt><trkpt lat="44.499216" lon="10.7178024"><ele>189.0</ele><time>2026-04-19T08:32:46.009Z</time></trkpt><trkpt lat="44.499107" lon="10.7176742"><ele>188.5</ele><time>2026-04-19T08:32:47.01Z</time></trkpt><trkpt lat="44.499028" lon="10.7175239"><ele>188.0</ele><time>2026-04-19T08:32:48.009Z</time></trkpt><trkpt lat="44.4989584" lon="10.7173571"><ele>189.5</ele><time>2026-04-19T08:32:49.01Z</time></trkpt><trkpt lat="44.4988951" lon="10.7171909"><ele>191.0</ele><time>2026-04-19T08:32:50.01Z</time></trkpt><trkpt lat="44.4988337" lon="10.717032"><ele>192.5</ele><time>2026-04-19T08:32:51.009Z</time></trkpt><trkpt lat="44.4987754" lon="10.7168791"><ele>194.0</ele><time>2026-04-19T08:32:52.01Z</time></trkpt><trkpt lat="44.4987086" lon="10.7167258"><ele>194.0</ele><time>2026-04-19T08:32:53.009Z</time></trkpt><trkpt lat="44.4986366" lon="10.7165801"><ele>194.0</ele><time>2026-04-19T08:32:54.01Z</time></trkpt><trkpt lat="44.4985567" lon="10.7164364"><ele>194.0</ele><time>2026-04-19T08:32:55.008Z</time></trkpt><trkpt lat="44.4984756" lon="10.7162872"><ele>194.0</ele><time>2026-04-19T08:32:56.008Z</time></trkpt><trkpt lat="44.4983865" lon="10.7161684"><ele>196.5</ele><time>2026-04-19T08:32:57.009Z</time></trkpt><trkpt lat="44.4982931" lon="10.7160391"><ele>199.0</ele><time>2026-04-19T08:32:58.009Z</time></trkpt><trkpt lat="44.4982024" lon="10.7159345"><ele>201.5</ele><time>2026-04-19T08:32:59.01Z</time></trkpt><trkpt lat="44.4981053" lon="10.715848"><ele>204.0</ele><time>2026-04-19T08:33:00.01Z</time></trkpt><trkpt lat="44.4979974" lon="10.7157791"><ele>204.5</ele><time>2026-04-19T08:33:01.009Z</time></trkpt><trkpt lat="44.4978764" lon="10.7157405"><ele>205.0</ele><time>2026-04-19T08:33:02.009Z</time></trkpt><trkpt lat="44.4977644" lon="10.715712"><ele>205.5</ele><time>2026-04-19T08:33:03.01Z</time></trkpt><trkpt lat="44.497653" lon="10.7156805"><ele>206.0</ele><time>2026-04-19T08:33:04.01Z</time></trkpt><trkpt lat="44.4975556" lon="10.7156471"><ele>206.00000000000003</ele><time>2026-04-19T08:33:05.009Z</time></trkpt><trkpt lat="44.4974628" lon="10.7156192"><ele>206.0</ele><time>2026-04-19T08:33:06.01Z</time></trkpt><trkpt lat="44.4973729" lon="10.7155714"><ele>206.0</ele><time>2026-04-19T08:33:07.009Z</time></trkpt><trkpt lat="44.497288" lon="10.7155381"><ele>206.0</ele><time>2026-04-19T08:33:08.009Z</time></trkpt><trkpt lat="44.4972135" lon="10.7154928"><ele>206.00000000000003</ele><time>2026-04-19T08:33:09.009Z</time></trkpt><trkpt lat="44.497143" lon="10.7154666"><ele>206.0</ele><time>2026-04-19T08:33:10.009Z</time></trkpt><trkpt lat="44.497078" lon="10.7154294"><ele>206.66666666666669</ele><time>2026-04-19T08:33:11.01Z</time></trkpt><trkpt lat="44.4970079" lon="10.7154041"><ele>207.33333333333334</ele><time>2026-04-19T08:33:12.009Z</time></trkpt><trkpt lat="44.4969007" lon="10.7153346"><ele>208.0</ele><time>2026-04-19T08:33:14.01Z</time></trkpt><trkpt lat="44.4968362" lon="10.7153004"><ele>208.66666666666669</ele><time>2026-04-19T08:33:15.009Z</time></trkpt><trkpt lat="44.4967758" lon="10.7152549"><ele>209.33333333333334</ele><time>2026-04-19T08:33:16.01Z</time></trkpt><trkpt lat="44.496719" lon="10.7152159"><ele>210.0</ele><time>2026-04-19T08:33:17.009Z</time></trkpt><trkpt lat="44.4966564" lon="10.7151774"><ele>210.0</ele><time>2026-04-19T08:33:18.01Z</time></trkpt><trkpt lat="44.4965893" lon="10.7151328"><ele>210.0</ele><time>2026-04-19T08:33:19.01Z</time></trkpt><trkpt lat="44.4965238" lon="10.7150843"><ele>210.0</ele><time>2026-04-19T08:33:20.009Z</time></trkpt><trkpt lat="44.4964607" lon="10.7150446"><ele>210.0</ele><time>2026-04-19T08:33:21.009Z</time></trkpt><trkpt lat="44.4963905" lon="10.7150039"><ele>210.0</ele><time>2026-04-19T08:33:22.009Z</time></trkpt><trkpt lat="44.4963178" lon="10.71496"><ele>210.0</ele><time>2026-04-19T08:33:23.01Z</time></trkpt><trkpt lat="44.4962342" lon="10.7149191"><ele>209.0</ele><time>2026-04-19T08:33:24.01Z</time></trkpt><trkpt lat="44.4961498" lon="10.7148886"><ele>208.0</ele><time>2026-04-19T08:33:25.009Z</time></trkpt><trkpt lat="44.4960655" lon="10.7148574"><ele>207.0</ele><time>2026-04-19T08:33:26.01Z</time></trkpt><trkpt lat="44.4959777" lon="10.7148317"><ele>206.0</ele><time>2026-04-19T08:33:27.01Z</time></trkpt><trkpt lat="44.4958905" lon="10.7148145"><ele>205.0</ele><time>2026-04-19T08:33:28.01Z</time></trkpt><trkpt lat="44.4958105" lon="10.7148083"><ele>204.0</ele><time>2026-04-19T08:33:29.01Z</time></trkpt><trkpt lat="44.4957334" lon="10.7148033"><ele>204.0</ele><time>2026-04-19T08:33:30.009Z</time></trkpt><trkpt lat="44.4956087" lon="10.7147973"><ele>204.0</ele><time>2026-04-19T08:33:32.009Z</time></trkpt><trkpt lat="44.4955387" lon="10.7147894"><ele>204.0</ele><time>2026-04-19T08:33:33.01Z</time></trkpt><trkpt lat="44.495462" lon="10.714773"><ele>204.0</ele><time>2026-04-19T08:33:34.01Z</time></trkpt><trkpt lat="44.4953832" lon="10.714761"><ele>204.0</ele><time>2026-04-19T08:33:35.009Z</time></trkpt><trkpt lat="44.4952973" lon="10.7147369"><ele>204.0</ele><time>2026-04-19T08:33:36.009Z</time></trkpt><trkpt lat="44.4952057" lon="10.7146857"><ele>203.79999999999998</ele><time>2026-04-19T08:33:37.009Z</time></trkpt><trkpt lat="44.4951163" lon="10.7146361"><ele>203.6</ele><time>2026-04-19T08:33:38.01Z</time></trkpt><trkpt lat="44.4950406" lon="10.7145462"><ele>203.4</ele><time>2026-04-19T08:33:39.01Z</time></trkpt><trkpt lat="44.4949796" lon="10.7144488"><ele>203.2</ele><time>2026-04-19T08:33:40.01Z</time></trkpt><trkpt lat="44.4949207" lon="10.7143531"><ele>203.0</ele><time>2026-04-19T08:33:41.009Z</time></trkpt><trkpt lat="44.494867" lon="10.7142605"><ele>201.60000000000002</ele><time>2026-04-19T08:33:42.01Z</time></trkpt><trkpt lat="44.4948115" lon="10.7141615"><ele>200.20000000000002</ele><time>2026-04-19T08:33:43.009Z</time></trkpt><trkpt lat="44.4947464" lon="10.714044"><ele>198.8</ele><time>2026-04-19T08:33:44.009Z</time></trkpt><trkpt lat="44.4946731" lon="10.7139116"><ele>197.4</ele><time>2026-04-19T08:33:45.009Z</time></trkpt><trkpt lat="44.4945943" lon="10.7137679"><ele>196.0</ele><time>2026-04-19T08:33:46.009Z</time></trkpt><trkpt lat="44.4945033" lon="10.7136236"><ele>201.66666666666666</ele><time>2026-04-19T08:33:47.01Z</time></trkpt><trkpt lat="44.4943932" lon="10.7134816"><ele>207.33333333333331</ele><time>2026-04-19T08:33:48.01Z</time></trkpt><trkpt lat="44.4942749" lon="10.7133503"><ele>213.0</ele><time>2026-04-19T08:33:49.009Z</time></trkpt><trkpt lat="44.49415" lon="10.7132288"><ele>213.0</ele><time>2026-04-19T08:33:50.009Z</time></trkpt><trkpt lat="44.4940249" lon="10.7131109"><ele>213.0</ele><time>2026-04-19T08:33:51.01Z</time></trkpt><trkpt lat="44.4939022" lon="10.7130011"><ele>213.0</ele><time>2026-04-19T08:33:52.01Z</time></trkpt><trkpt lat="44.4937777" lon="10.7128897"><ele>213.0</ele><time>2026-04-19T08:33:53.009Z</time></trkpt><trkpt lat="44.4936628" lon="10.7127784"><ele>213.75</ele><time>2026-04-19T08:33:54.009Z</time></trkpt><trkpt lat="44.4935501" lon="10.7126707"><ele>214.5</ele><time>2026-04-19T08:33:55.01Z</time></trkpt><trkpt lat="44.4934462" lon="10.7125572"><ele>215.25</ele><time>2026-04-19T08:33:56.009Z</time></trkpt><trkpt lat="44.4933563" lon="10.712418"><ele>216.0</ele><time>2026-04-19T08:33:57.01Z</time></trkpt><trkpt lat="44.4932765" lon="10.7122752"><ele>216.0</ele><time>2026-04-19T08:33:58.009Z</time></trkpt><trkpt lat="44.4932081" lon="10.7121272"><ele>216.0</ele><time>2026-04-19T08:33:59.009Z</time></trkpt><trkpt lat="44.4931549" lon="10.7119783"><ele>216.0</ele><time>2026-04-19T08:34:00.01Z</time></trkpt><trkpt lat="44.4931141" lon="10.7118317"><ele>216.0</ele><time>2026-04-19T08:34:01.01Z</time></trkpt><trkpt lat="44.4930823" lon="10.7116872"><ele>216.20000000000002</ele><time>2026-04-19T08:34:02.009Z</time></trkpt><trkpt lat="44.4930563" lon="10.7115346"><ele>216.40000000000003</ele><time>2026-04-19T08:34:03.009Z</time></trkpt><trkpt lat="44.4930307" lon="10.7113857"><ele>216.6</ele><time>2026-04-19T08:34:04.01Z</time></trkpt><trkpt lat="44.4930063" lon="10.7112429"><ele>216.8</ele><time>2026-04-19T08:34:05.01Z</time></trkpt><trkpt lat="44.4929849" lon="10.7110878"><ele>217.0</ele><time>2026-04-19T08:34:06.01Z</time></trkpt><trkpt lat="44.4929661" lon="10.7109358"><ele>217.0</ele><time>2026-04-19T08:34:07.01Z</time></trkpt><trkpt lat="44.4929485" lon="10.7107937"><ele>217.0</ele><time>2026-04-19T08:34:08.01Z</time></trkpt><trkpt lat="44.4929273" lon="10.7106547"><ele>217.0</ele><time>2026-04-19T08:34:09.009Z</time></trkpt><trkpt lat="44.4929091" lon="10.7105095"><ele>217.0</ele><time>2026-04-19T08:34:10.01Z</time></trkpt><trkpt lat="44.4928884" lon="10.7103635"><ele>217.0</ele><time>2026-04-19T08:34:11.009Z</time></trkpt><trkpt lat="44.4928681" lon="10.7102023"><ele>210.6</ele><time>2026-04-19T08:34:12.009Z</time></trkpt><trkpt lat="44.4928491" lon="10.7100456"><ele>204.2</ele><time>2026-04-19T08:34:13.009Z</time></trkpt><trkpt lat="44.4928265" lon="10.7099069"><ele>197.8</ele><time>2026-04-19T08:34:14.009Z</time></trkpt><trkpt lat="44.492806" lon="10.7097636"><ele>191.4</ele><time>2026-04-19T08:34:15.009Z</time></trkpt><trkpt lat="44.4927864" lon="10.7096239"><ele>185.0</ele><time>2026-04-19T08:34:16.009Z</time></trkpt><trkpt lat="44.4927629" lon="10.7094784"><ele>187.25</ele><time>2026-04-19T08:34:17.01Z</time></trkpt><trkpt lat="44.492742" lon="10.7093206"><ele>189.5</ele><time>2026-04-19T08:34:18.009Z</time></trkpt><trkpt lat="44.4927202" lon="10.7091496"><ele>191.75</ele><time>2026-04-19T08:34:19.01Z</time></trkpt><trkpt lat="44.4926957" lon="10.7089846"><ele>194.0</ele><time>2026-04-19T08:34:20.008Z</time></trkpt><trkpt lat="44.4926736" lon="10.7088215"><ele>194.0</ele><time>2026-04-19T08:34:21.009Z</time></trkpt><trkpt lat="44.4926499" lon="10.7086623"><ele>194.0</ele><time>2026-04-19T08:34:22.009Z</time></trkpt><trkpt lat="44.4926335" lon="10.70848"><ele>194.0</ele><time>2026-04-19T08:34:23.01Z</time></trkpt><trkpt lat="44.492624" lon="10.7083002"><ele>194.0</ele><time>2026-04-19T08:34:24.009Z</time></trkpt><trkpt lat="44.4926318" lon="10.7081227"><ele>194.5</ele><time>2026-04-19T08:34:25.009Z</time></trkpt><trkpt lat="44.4926596" lon="10.707931"><ele>195.0</ele><time>2026-04-19T08:34:26.01Z</time></trkpt><trkpt lat="44.4926967" lon="10.7077413"><ele>195.5</ele><time>2026-04-19T08:34:27.009Z</time></trkpt><trkpt lat="44.4927445" lon="10.7075444"><ele>196.0</ele><time>2026-04-19T08:34:28.009Z</time></trkpt><trkpt lat="44.4927963" lon="10.7073531"><ele>194.75</ele><time>2026-04-19T08:34:29.01Z</time></trkpt><trkpt lat="44.4928495" lon="10.7071666"><ele>193.5</ele><time>2026-04-19T08:34:30.009Z</time></trkpt><trkpt lat="44.4928999" lon="10.7069899"><ele>192.25</ele><time>2026-04-19T08:34:31.01Z</time></trkpt><trkpt lat="44.4929497" lon="10.7068215"><ele>191.0</ele><time>2026-04-19T08:34:32.01Z</time></trkpt><trkpt lat="44.4929992" lon="10.7066567"><ele>193.0</ele><time>2026-04-19T08:34:33.009Z</time></trkpt><trkpt lat="44.4930496" lon="10.7064943"><ele>195.0</ele><time>2026-04-19T08:34:34.008Z</time></trkpt><trkpt lat="44.493102" lon="10.7063319"><ele>197.0</ele><time>2026-04-19T08:34:35.009Z</time></trkpt><trkpt lat="44.4931546" lon="10.7061736"><ele>199.0</ele><time>2026-04-19T08:34:36.009Z</time></trkpt><trkpt lat="44.4932069" lon="10.7060059"><ele>199.0</ele><time>2026-04-19T08:34:37.01Z</time></trkpt><trkpt lat="44.493248" lon="10.7058386"><ele>199.0</ele><time>2026-04-19T08:34:38.01Z</time></trkpt><trkpt lat="44.4932798" lon="10.7056648"><ele>199.0</ele><time>2026-04-19T08:34:39.008Z</time></trkpt><trkpt lat="44.4933025" lon="10.7054881"><ele>199.0</ele><time>2026-04-19T08:34:40.01Z</time></trkpt><trkpt lat="44.4933189" lon="10.7053095"><ele>198.0</ele><time>2026-04-19T08:34:41.009Z</time></trkpt><trkpt lat="44.4933289" lon="10.7051265"><ele>197.0</ele><time>2026-04-19T08:34:42.009Z</time></trkpt><trkpt lat="44.4933379" lon="10.7049336"><ele>196.0</ele><time>2026-04-19T08:34:43.009Z</time></trkpt><trkpt lat="44.4933407" lon="10.7047437"><ele>195.0</ele><time>2026-04-19T08:34:44.009Z</time></trkpt><trkpt lat="44.4933329" lon="10.7045636"><ele>194.5</ele><time>2026-04-19T08:34:45.009Z</time></trkpt><trkpt lat="44.4933116" lon="10.7043869"><ele>194.0</ele><time>2026-04-19T08:34:46.01Z</time></trkpt><trkpt lat="44.4932792" lon="10.7042112"><ele>193.5</ele><time>2026-04-19T08:34:47.009Z</time></trkpt><trkpt lat="44.4932284" lon="10.704028"><ele>193.0</ele><time>2026-04-19T08:34:48.008Z</time></trkpt><trkpt lat="44.4931651" lon="10.7038621"><ele>193.0</ele><time>2026-04-19T08:34:49.01Z</time></trkpt><trkpt lat="44.4930905" lon="10.7037019"><ele>193.0</ele><time>2026-04-19T08:34:50.009Z</time></trkpt><trkpt lat="44.4930091" lon="10.7035412"><ele>193.0</ele><time>2026-04-19T08:34:51.009Z</time></trkpt><trkpt lat="44.4929277" lon="10.7033856"><ele>193.0</ele><time>2026-04-19T08:34:52.009Z</time></trkpt><trkpt lat="44.4928463" lon="10.7032334"><ele>193.0</ele><time>2026-04-19T08:34:53.01Z</time></trkpt><trkpt lat="44.4927672" lon="10.7030876"><ele>193.0</ele><time>2026-04-19T08:34:54.01Z</time></trkpt><trkpt lat="44.4926904" lon="10.702944"><ele>193.0</ele><time>2026-04-19T08:34:55.008Z</time></trkpt><trkpt lat="44.492619" lon="10.7027985"><ele>193.0</ele><time>2026-04-19T08:34:56.009Z</time></trkpt><trkpt lat="44.4925443" lon="10.7026534"><ele>193.0</ele><time>2026-04-19T08:34:57.01Z</time></trkpt><trkpt lat="44.4924686" lon="10.7025055"><ele>193.0</ele><time>2026-04-19T08:34:58.01Z</time></trkpt><trkpt lat="44.4923882" lon="10.7023577"><ele>193.0</ele><time>2026-04-19T08:34:59.009Z</time></trkpt><trkpt lat="44.4923088" lon="10.7022006"><ele>193.0</ele><time>2026-04-19T08:35:00.01Z</time></trkpt><trkpt lat="44.4922349" lon="10.7020517"><ele>193.0</ele><time>2026-04-19T08:35:01.009Z</time></trkpt><trkpt lat="44.4921669" lon="10.7019157"><ele>193.0</ele><time>2026-04-19T08:35:02.01Z</time></trkpt><trkpt lat="44.4920994" lon="10.7017853"><ele>193.0</ele><time>2026-04-19T08:35:03.009Z</time></trkpt><trkpt lat="44.492032" lon="10.7016565"><ele>193.0</ele><time>2026-04-19T08:35:04.009Z</time></trkpt><trkpt lat="44.4919719" lon="10.7015386"><ele>192.4</ele><time>2026-04-19T08:35:05.009Z</time></trkpt><trkpt lat="44.4919149" lon="10.7014336"><ele>191.8</ele><time>2026-04-19T08:35:06.01Z</time></trkpt><trkpt lat="44.4918616" lon="10.7013299"><ele>191.2</ele><time>2026-04-19T08:35:07.01Z</time></trkpt><trkpt lat="44.4918109" lon="10.70123"><ele>190.6</ele><time>2026-04-19T08:35:08.009Z</time></trkpt><trkpt lat="44.4917563" lon="10.7011271"><ele>190.0</ele><time>2026-04-19T08:35:09.009Z</time></trkpt><trkpt lat="44.4916994" lon="10.7010194"><ele>190.0</ele><time>2026-04-19T08:35:10.009Z</time></trkpt><trkpt lat="44.4916487" lon="10.7009092"><ele>190.0</ele><time>2026-04-19T08:35:11.008Z</time></trkpt><trkpt lat="44.491592" lon="10.7007902"><ele>190.0</ele><time>2026-04-19T08:35:12.01Z</time></trkpt><trkpt lat="44.4915272" lon="10.700669"><ele>190.0</ele><time>2026-04-19T08:35:13.009Z</time></trkpt><trkpt lat="44.4914624" lon="10.7005438"><ele>190.0</ele><time>2026-04-19T08:35:14.008Z</time></trkpt><trkpt lat="44.4914015" lon="10.7004225"><ele>190.0</ele><time>2026-04-19T08:35:15.01Z</time></trkpt><trkpt lat="44.4913427" lon="10.7003099"><ele>190.0</ele><time>2026-04-19T08:35:16.01Z</time></trkpt><trkpt lat="44.491285" lon="10.7001968"><ele>190.0</ele><time>2026-04-19T08:35:17.009Z</time></trkpt><trkpt lat="44.4912255" lon="10.7000799"><ele>190.0</ele><time>2026-04-19T08:35:18.01Z</time></trkpt><trkpt lat="44.4911687" lon="10.699966"><ele>190.0</ele><time>2026-04-19T08:35:19.009Z</time></trkpt><trkpt lat="44.4911165" lon="10.6998654"><ele>189.66666666666669</ele><time>2026-04-19T08:35:20.01Z</time></trkpt><trkpt lat="44.4910663" lon="10.6997601"><ele>189.33333333333334</ele><time>2026-04-19T08:35:21.009Z</time></trkpt><trkpt lat="44.4910265" lon="10.6996424"><ele>189.0</ele><time>2026-04-19T08:35:22.01Z</time></trkpt><trkpt lat="44.4910007" lon="10.699528"><ele>188.66666666666666</ele><time>2026-04-19T08:35:23.01Z</time></trkpt><trkpt lat="44.4909871" lon="10.6994141"><ele>188.33333333333331</ele><time>2026-04-19T08:35:24.009Z</time></trkpt><trkpt lat="44.4909764" lon="10.6993139"><ele>188.0</ele><time>2026-04-19T08:35:25.01Z</time></trkpt><trkpt lat="44.4909603" lon="10.6992219"><ele>188.0</ele><time>2026-04-19T08:35:26.01Z</time></trkpt><trkpt lat="44.4909263" lon="10.6991319"><ele>188.0</ele><time>2026-04-19T08:35:27.01Z</time></trkpt><trkpt lat="44.4908724" lon="10.6990592"><ele>188.0</ele><time>2026-04-19T08:35:28.01Z</time></trkpt><trkpt lat="44.4908046" lon="10.6990024"><ele>188.0</ele><time>2026-04-19T08:35:29.01Z</time></trkpt><trkpt lat="44.4907327" lon="10.6989419"><ele>188.0</ele><time>2026-04-19T08:35:30.01Z</time></trkpt><trkpt lat="44.4906543" lon="10.6988697"><ele>188.0</ele><time>2026-04-19T08:35:31.009Z</time></trkpt><trkpt lat="44.4905771" lon="10.6987753"><ele>188.0</ele><time>2026-04-19T08:35:32.01Z</time></trkpt><trkpt lat="44.4904919" lon="10.698668"><ele>188.0</ele><time>2026-04-19T08:35:33.01Z</time></trkpt><trkpt lat="44.4904194" lon="10.6985623"><ele>188.0</ele><time>2026-04-19T08:35:34.009Z</time></trkpt><trkpt lat="44.4903446" lon="10.6984435"><ele>188.0</ele><time>2026-04-19T08:35:35.01Z</time></trkpt><trkpt lat="44.4902713" lon="10.6983258"><ele>188.0</ele><time>2026-04-19T08:35:36.009Z</time></trkpt><trkpt lat="44.4902074" lon="10.6982095"><ele>188.25</ele><time>2026-04-19T08:35:37.008Z</time></trkpt><trkpt lat="44.4901336" lon="10.6980842"><ele>188.5</ele><time>2026-04-19T08:35:38.01Z</time></trkpt><trkpt lat="44.4900576" lon="10.6979629"><ele>188.75</ele><time>2026-04-19T08:35:39.01Z</time></trkpt><trkpt lat="44.4899777" lon="10.6978368"><ele>189.0</ele><time>2026-04-19T08:35:40.009Z</time></trkpt><trkpt lat="44.4899036" lon="10.6977119"><ele>189.75</ele><time>2026-04-19T08:35:41.009Z</time></trkpt><trkpt lat="44.4898262" lon="10.6975818"><ele>190.5</ele><time>2026-04-19T08:35:42.011Z</time></trkpt><trkpt lat="44.4897519" lon="10.697455"><ele>191.25</ele><time>2026-04-19T08:35:43.01Z</time></trkpt><trkpt lat="44.4896751" lon="10.6973289"><ele>192.0</ele><time>2026-04-19T08:35:44.01Z</time></trkpt><trkpt lat="44.4896001" lon="10.6971997"><ele>191.75</ele><time>2026-04-19T08:35:45.01Z</time></trkpt><trkpt lat="44.4895204" lon="10.6970683"><ele>191.5</ele><time>2026-04-19T08:35:46.01Z</time></trkpt><trkpt lat="44.4894228" lon="10.6969185"><ele>191.25</ele><time>2026-04-19T08:35:47.01Z</time></trkpt><trkpt lat="44.4893278" lon="10.6967631"><ele>191.0</ele><time>2026-04-19T08:35:48.009Z</time></trkpt><trkpt lat="44.4892392" lon="10.6966124"><ele>191.0</ele><time>2026-04-19T08:35:49.009Z</time></trkpt><trkpt lat="44.4891535" lon="10.696457"><ele>191.0</ele><time>2026-04-19T08:35:50.009Z</time></trkpt><trkpt lat="44.4890756" lon="10.6962992"><ele>191.0</ele><time>2026-04-19T08:35:51.009Z</time></trkpt><trkpt lat="44.4890065" lon="10.6961447"><ele>191.0</ele><time>2026-04-19T08:35:52.009Z</time></trkpt><trkpt lat="44.4889453" lon="10.6959881"><ele>191.5</ele><time>2026-04-19T08:35:53.01Z</time></trkpt><trkpt lat="44.4888923" lon="10.6958283"><ele>192.0</ele><time>2026-04-19T08:35:54.009Z</time></trkpt><trkpt lat="44.4888455" lon="10.6956684"><ele>192.5</ele><time>2026-04-19T08:35:55.009Z</time></trkpt><trkpt lat="44.4888078" lon="10.6955105"><ele>193.0</ele><time>2026-04-19T08:35:56.01Z</time></trkpt><trkpt lat="44.4887752" lon="10.6953692"><ele>192.4</ele><time>2026-04-19T08:35:57.009Z</time></trkpt><trkpt lat="44.4887401" lon="10.6952366"><ele>191.8</ele><time>2026-04-19T08:35:58.01Z</time></trkpt><trkpt lat="44.4887059" lon="10.6951117"><ele>191.2</ele><time>2026-04-19T08:35:59.01Z</time></trkpt><trkpt lat="44.4886667" lon="10.6949882"><ele>190.6</ele><time>2026-04-19T08:36:00.009Z</time></trkpt><trkpt lat="44.488627" lon="10.6948736"><ele>190.0</ele><time>2026-04-19T08:36:01.01Z</time></trkpt><trkpt lat="44.4885824" lon="10.6947704"><ele>190.0</ele><time>2026-04-19T08:36:02.01Z</time></trkpt><trkpt lat="44.4885356" lon="10.6946901"><ele>190.0</ele><time>2026-04-19T08:36:03.01Z</time></trkpt><trkpt lat="44.4884682" lon="10.6946448"><ele>190.0</ele><time>2026-04-19T08:36:04.009Z</time></trkpt><trkpt lat="44.4883898" lon="10.6946308"><ele>190.0</ele><time>2026-04-19T08:36:05.01Z</time></trkpt><trkpt lat="44.4882992" lon="10.6946408"><ele>190.0</ele><time>2026-04-19T08:36:06.01Z</time></trkpt><trkpt lat="44.4882031" lon="10.6946401"><ele>190.0</ele><time>2026-04-19T08:36:07.01Z</time></trkpt><trkpt lat="44.4881083" lon="10.6946006"><ele>190.0</ele><time>2026-04-19T08:36:08.009Z</time></trkpt><trkpt lat="44.4880182" lon="10.6945193"><ele>190.0</ele><time>2026-04-19T08:36:09.01Z</time></trkpt><trkpt lat="44.4879242" lon="10.6944091"><ele>190.0</ele><time>2026-04-19T08:36:10.009Z</time></trkpt><trkpt lat="44.4878181" lon="10.6942563"><ele>190.0</ele><time>2026-04-19T08:36:11.008Z</time></trkpt><trkpt lat="44.4877145" lon="10.6941071"><ele>189.33333333333334</ele><time>2026-04-19T08:36:12.009Z</time></trkpt><trkpt lat="44.4876135" lon="10.6939456"><ele>188.66666666666666</ele><time>2026-04-19T08:36:13.009Z</time></trkpt><trkpt lat="44.48751" lon="10.6937829"><ele>188.0</ele><time>2026-04-19T08:36:14.009Z</time></trkpt><trkpt lat="44.4874104" lon="10.6936126"><ele>187.66666666666666</ele><time>2026-04-19T08:36:15.01Z</time></trkpt><trkpt lat="44.4873076" lon="10.6934409"><ele>187.33333333333334</ele><time>2026-04-19T08:36:16.008Z</time></trkpt><trkpt lat="44.4872106" lon="10.6932768"><ele>187.0</ele><time>2026-04-19T08:36:17.01Z</time></trkpt><trkpt lat="44.4871056" lon="10.693105"><ele>186.0</ele><time>2026-04-19T08:36:18.008Z</time></trkpt><trkpt lat="44.487" lon="10.6929254"><ele>185.0</ele><time>2026-04-19T08:36:19.009Z</time></trkpt><trkpt lat="44.4868895" lon="10.692739"><ele>184.0</ele><time>2026-04-19T08:36:20.01Z</time></trkpt><trkpt lat="44.4867721" lon="10.6925463"><ele>184.0</ele><time>2026-04-19T08:36:21.01Z</time></trkpt><trkpt lat="44.4866541" lon="10.6923564"><ele>184.0</ele><time>2026-04-19T08:36:22.009Z</time></trkpt><trkpt lat="44.4865404" lon="10.6921773"><ele>184.0</ele><time>2026-04-19T08:36:23.01Z</time></trkpt><trkpt lat="44.4864196" lon="10.6919915"><ele>184.66666666666669</ele><time>2026-04-19T08:36:24.01Z</time></trkpt><trkpt lat="44.4862945" lon="10.6918038"><ele>185.33333333333334</ele><time>2026-04-19T08:36:25.01Z</time></trkpt><trkpt lat="44.4861697" lon="10.6916252"><ele>186.0</ele><time>2026-04-19T08:36:26.009Z</time></trkpt><trkpt lat="44.4860471" lon="10.6914497"><ele>185.66666666666666</ele><time>2026-04-19T08:36:27.009Z</time></trkpt><trkpt lat="44.4859248" lon="10.691274"><ele>185.33333333333331</ele><time>2026-04-19T08:36:28.008Z</time></trkpt><trkpt lat="44.4857968" lon="10.6911054"><ele>185.0</ele><time>2026-04-19T08:36:29.01Z</time></trkpt><trkpt lat="44.485664" lon="10.6909302"><ele>185.0</ele><time>2026-04-19T08:36:30.01Z</time></trkpt><trkpt lat="44.4855326" lon="10.6907562"><ele>185.0</ele><time>2026-04-19T08:36:31.009Z</time></trkpt><trkpt lat="44.4854059" lon="10.6905923"><ele>185.0</ele><time>2026-04-19T08:36:32.01Z</time></trkpt><trkpt lat="44.4852789" lon="10.6904227"><ele>184.33333333333331</ele><time>2026-04-19T08:36:33.01Z</time></trkpt><trkpt lat="44.4851549" lon="10.6902616"><ele>183.66666666666666</ele><time>2026-04-19T08:36:34.011Z</time></trkpt><trkpt lat="44.4850346" lon="10.6901062"><ele>183.0</ele><time>2026-04-19T08:36:35.01Z</time></trkpt><trkpt lat="44.4849194" lon="10.689952"><ele>182.66666666666666</ele><time>2026-04-19T08:36:36.009Z</time></trkpt><trkpt lat="44.4847971" lon="10.6897953"><ele>182.33333333333331</ele><time>2026-04-19T08:36:37.009Z</time></trkpt><trkpt lat="44.4846619" lon="10.6896324"><ele>182.0</ele><time>2026-04-19T08:36:38.01Z</time></trkpt><trkpt lat="44.4845144" lon="10.6894535"><ele>182.33333333333331</ele><time>2026-04-19T08:36:39.01Z</time></trkpt><trkpt lat="44.4843563" lon="10.6892454"><ele>182.66666666666666</ele><time>2026-04-19T08:36:40.009Z</time></trkpt><trkpt lat="44.4841921" lon="10.6890297"><ele>183.0</ele><time>2026-04-19T08:36:41.008Z</time></trkpt><trkpt lat="44.4840144" lon="10.6888025"><ele>184.0</ele><time>2026-04-19T08:36:42.009Z</time></trkpt><trkpt lat="44.4838466" lon="10.6885687"><ele>185.0</ele><time>2026-04-19T08:36:43.01Z</time></trkpt><trkpt lat="44.4836741" lon="10.6883326"><ele>185.0</ele><time>2026-04-19T08:36:44.009Z</time></trkpt><trkpt lat="44.483506" lon="10.6881011"><ele>185.0</ele><time>2026-04-19T08:36:45.01Z</time></trkpt><trkpt lat="44.4833309" lon="10.6878716"><ele>185.0</ele><time>2026-04-19T08:36:46.009Z</time></trkpt><trkpt lat="44.4831572" lon="10.6876367"><ele>185.0</ele><time>2026-04-19T08:36:47.008Z</time></trkpt><trkpt lat="44.4829852" lon="10.6873982"><ele>186.0</ele><time>2026-04-19T08:36:48.009Z</time></trkpt><trkpt lat="44.4828172" lon="10.6871419"><ele>187.0</ele><time>2026-04-19T08:36:49.009Z</time></trkpt><trkpt lat="44.4826516" lon="10.6868837"><ele>187.0</ele><time>2026-04-19T08:36:50.01Z</time></trkpt><trkpt lat="44.4824851" lon="10.6866254"><ele>187.0</ele><time>2026-04-19T08:36:51.01Z</time></trkpt><trkpt lat="44.4823223" lon="10.6863647"><ele>187.0</ele><time>2026-04-19T08:36:52.01Z</time></trkpt><trkpt lat="44.482168" lon="10.6861193"><ele>187.0</ele><time>2026-04-19T08:36:53.01Z</time></trkpt><trkpt lat="44.4820217" lon="10.685885"><ele>186.66666666666669</ele><time>2026-04-19T08:36:54.009Z</time></trkpt><trkpt lat="44.4818845" lon="10.6856591"><ele>186.33333333333334</ele><time>2026-04-19T08:36:55.009Z</time></trkpt><trkpt lat="44.4817518" lon="10.6854448"><ele>186.0</ele><time>2026-04-19T08:36:56.009Z</time></trkpt><trkpt lat="44.4816269" lon="10.6852419"><ele>185.33333333333334</ele><time>2026-04-19T08:36:57.009Z</time></trkpt><trkpt lat="44.4815164" lon="10.685057"><ele>184.66666666666669</ele><time>2026-04-19T08:36:58.009Z</time></trkpt><trkpt lat="44.4814179" lon="10.6849037"><ele>184.0</ele><time>2026-04-19T08:36:59.01Z</time></trkpt><trkpt lat="44.4813283" lon="10.6847533"><ele>184.39999999999998</ele><time>2026-04-19T08:37:00.01Z</time></trkpt><trkpt lat="44.481242" lon="10.6846151"><ele>184.8</ele><time>2026-04-19T08:37:01.01Z</time></trkpt><trkpt lat="44.4811606" lon="10.684479"><ele>185.2</ele><time>2026-04-19T08:37:02.008Z</time></trkpt><trkpt lat="44.4811044" lon="10.684375"><ele>185.60000000000002</ele><time>2026-04-19T08:37:03.009Z</time></trkpt><trkpt lat="44.4810504" lon="10.6843015"><ele>186.0</ele><time>2026-04-19T08:37:04.01Z</time></trkpt><trkpt lat="44.4809833" lon="10.6841977"><ele>186.20000000000002</ele><time>2026-04-19T08:37:06.009Z</time></trkpt><trkpt lat="44.4808977" lon="10.6840775"><ele>186.4</ele><time>2026-04-19T08:37:08.009Z</time></trkpt><trkpt lat="44.4808317" lon="10.6839776"><ele>186.6</ele><time>2026-04-19T08:37:09.009Z</time></trkpt><trkpt lat="44.4807634" lon="10.6838773"><ele>186.8</ele><time>2026-04-19T08:37:10.01Z</time></trkpt><trkpt lat="44.4807007" lon="10.6837707"><ele>187.0</ele><time>2026-04-19T08:37:11.008Z</time></trkpt><trkpt lat="44.4806422" lon="10.6836744"><ele>187.0</ele><time>2026-04-19T08:37:12.009Z</time></trkpt><trkpt lat="44.4806032" lon="10.6835878"><ele>187.0</ele><time>2026-04-19T08:37:13.01Z</time></trkpt><trkpt lat="44.4805747" lon="10.683496"><ele>187.0</ele><time>2026-04-19T08:37:14.009Z</time></trkpt><trkpt lat="44.4805545" lon="10.6833987"><ele>187.0</ele><time>2026-04-19T08:37:15.009Z</time></trkpt><trkpt lat="44.48053" lon="10.6833092"><ele>187.0</ele><time>2026-04-19T08:37:16.009Z</time></trkpt><trkpt lat="44.4804348" lon="10.6831709"><ele>187.0</ele><time>2026-04-19T08:37:18.009Z</time></trkpt><trkpt lat="44.4803626" lon="10.6831074"><ele>187.2</ele><time>2026-04-19T08:37:19.009Z</time></trkpt><trkpt lat="44.4802873" lon="10.6830262"><ele>187.39999999999998</ele><time>2026-04-19T08:37:20.008Z</time></trkpt><trkpt lat="44.4802048" lon="10.6829218"><ele>187.60000000000002</ele><time>2026-04-19T08:37:21.01Z</time></trkpt><trkpt lat="44.4801286" lon="10.682803"><ele>187.8</ele><time>2026-04-19T08:37:22.01Z</time></trkpt><trkpt lat="44.4800498" lon="10.6826827"><ele>188.0</ele><time>2026-04-19T08:37:23.01Z</time></trkpt><trkpt lat="44.4799634" lon="10.6825512"><ele>188.0</ele><time>2026-04-19T08:37:24.01Z</time></trkpt><trkpt lat="44.4798754" lon="10.6824095"><ele>188.0</ele><time>2026-04-19T08:37:25.01Z</time></trkpt><trkpt lat="44.4797809" lon="10.6822577"><ele>188.0</ele><time>2026-04-19T08:37:26.01Z</time></trkpt><trkpt lat="44.4796811" lon="10.6821044"><ele>188.0</ele><time>2026-04-19T08:37:27.009Z</time></trkpt><trkpt lat="44.479577" lon="10.6819429"><ele>188.0</ele><time>2026-04-19T08:37:28.01Z</time></trkpt><trkpt lat="44.4794775" lon="10.6817775"><ele>188.0</ele><time>2026-04-19T08:37:29.01Z</time></trkpt><trkpt lat="44.4793789" lon="10.681613"><ele>188.0</ele><time>2026-04-19T08:37:30.01Z</time></trkpt><trkpt lat="44.4792838" lon="10.6814485"><ele>188.0</ele><time>2026-04-19T08:37:31.009Z</time></trkpt><trkpt lat="44.4791855" lon="10.6812877"><ele>188.0</ele><time>2026-04-19T08:37:32.008Z</time></trkpt><trkpt lat="44.4790834" lon="10.6811248"><ele>188.0</ele><time>2026-04-19T08:37:33.01Z</time></trkpt><trkpt lat="44.4789807" lon="10.68096"><ele>188.33333333333331</ele><time>2026-04-19T08:37:34.008Z</time></trkpt><trkpt lat="44.4788812" lon="10.680794"><ele>188.66666666666666</ele><time>2026-04-19T08:37:35.009Z</time></trkpt><trkpt lat="44.4787797" lon="10.6806298"><ele>189.0</ele><time>2026-04-19T08:37:36.01Z</time></trkpt><trkpt lat="44.4786752" lon="10.6804621"><ele>189.33333333333334</ele><time>2026-04-19T08:37:37.009Z</time></trkpt><trkpt lat="44.4785691" lon="10.6802912"><ele>189.66666666666669</ele><time>2026-04-19T08:37:38.009Z</time></trkpt><trkpt lat="44.4784632" lon="10.6801187"><ele>190.0</ele><time>2026-04-19T08:37:39.009Z</time></trkpt><trkpt lat="44.4783517" lon="10.6799441"><ele>190.0</ele><time>2026-04-19T08:37:40.009Z</time></trkpt><trkpt lat="44.4782441" lon="10.679768"><ele>190.0</ele><time>2026-04-19T08:37:41.009Z</time></trkpt><trkpt lat="44.4781394" lon="10.6795986"><ele>190.0</ele><time>2026-04-19T08:37:42.009Z</time></trkpt><trkpt lat="44.4780359" lon="10.6794346"><ele>189.66666666666669</ele><time>2026-04-19T08:37:43.009Z</time></trkpt><trkpt lat="44.4779375" lon="10.6792731"><ele>189.33333333333334</ele><time>2026-04-19T08:37:44.01Z</time></trkpt><trkpt lat="44.4778367" lon="10.6791104"><ele>189.0</ele><time>2026-04-19T08:37:45.009Z</time></trkpt><trkpt lat="44.4777344" lon="10.6789412"><ele>190.0</ele><time>2026-04-19T08:37:46.009Z</time></trkpt><trkpt lat="44.4776307" lon="10.6787753"><ele>191.0</ele><time>2026-04-19T08:37:47.009Z</time></trkpt><trkpt lat="44.4775259" lon="10.6786038"><ele>192.0</ele><time>2026-04-19T08:37:48.008Z</time></trkpt><trkpt lat="44.4774185" lon="10.6784336"><ele>192.33333333333331</ele><time>2026-04-19T08:37:49.009Z</time></trkpt><trkpt lat="44.4773121" lon="10.6782593"><ele>192.66666666666666</ele><time>2026-04-19T08:37:50.008Z</time></trkpt><trkpt lat="44.4772031" lon="10.6780831"><ele>193.0</ele><time>2026-04-19T08:37:51.009Z</time></trkpt><trkpt lat="44.4770963" lon="10.6779077"><ele>193.66666666666666</ele><time>2026-04-19T08:37:52.01Z</time></trkpt><trkpt lat="44.4769851" lon="10.6777266"><ele>194.33333333333331</ele><time>2026-04-19T08:37:53.008Z</time></trkpt><trkpt lat="44.4768737" lon="10.6775453"><ele>195.0</ele><time>2026-04-19T08:37:54.009Z</time></trkpt><trkpt lat="44.4767631" lon="10.6773654"><ele>195.0</ele><time>2026-04-19T08:37:55.009Z</time></trkpt><trkpt lat="44.4766571" lon="10.6771949"><ele>195.0</ele><time>2026-04-19T08:37:56.01Z</time></trkpt><trkpt lat="44.4765565" lon="10.6770377"><ele>195.0</ele><time>2026-04-19T08:37:57.009Z</time></trkpt><trkpt lat="44.4764537" lon="10.6768777"><ele>195.33333333333331</ele><time>2026-04-19T08:37:58.009Z</time></trkpt><trkpt lat="44.4763509" lon="10.6767138"><ele>195.66666666666666</ele><time>2026-04-19T08:37:59.01Z</time></trkpt><trkpt lat="44.4762473" lon="10.6765476"><ele>196.0</ele><time>2026-04-19T08:38:00.008Z</time></trkpt><trkpt lat="44.4761389" lon="10.6763755"><ele>196.0</ele><time>2026-04-19T08:38:01.009Z</time></trkpt><trkpt lat="44.4760318" lon="10.6761932"><ele>196.0</ele><time>2026-04-19T08:38:02.01Z</time></trkpt><trkpt lat="44.4759208" lon="10.6760193"><ele>196.0</ele><time>2026-04-19T08:38:03.008Z</time></trkpt><trkpt lat="44.4758109" lon="10.6758373"><ele>196.33333333333331</ele><time>2026-04-19T08:38:04.01Z</time></trkpt><trkpt lat="44.4757054" lon="10.6756597"><ele>196.66666666666669</ele><time>2026-04-19T08:38:05.01Z</time></trkpt><trkpt lat="44.4755961" lon="10.6754932"><ele>197.0</ele><time>2026-04-19T08:38:06.009Z</time></trkpt><trkpt lat="44.475482" lon="10.6753122"><ele>197.0</ele><time>2026-04-19T08:38:07.009Z</time></trkpt><trkpt lat="44.4753652" lon="10.6751309"><ele>197.0</ele><time>2026-04-19T08:38:08.009Z</time></trkpt><trkpt lat="44.4752581" lon="10.674945"><ele>197.0</ele><time>2026-04-19T08:38:09.01Z</time></trkpt><trkpt lat="44.4751458" lon="10.6747658"><ele>197.0</ele><time>2026-04-19T08:38:10.01Z</time></trkpt><trkpt lat="44.4750257" lon="10.6745754"><ele>197.0</ele><time>2026-04-19T08:38:11.009Z</time></trkpt><trkpt lat="44.4749048" lon="10.6743837"><ele>197.0</ele><time>2026-04-19T08:38:12.008Z</time></trkpt><trkpt lat="44.474785" lon="10.6741908"><ele>197.0</ele><time>2026-04-19T08:38:13.009Z</time></trkpt><trkpt lat="44.4746712" lon="10.6740066"><ele>197.0</ele><time>2026-04-19T08:38:14.01Z</time></trkpt><trkpt lat="44.4745596" lon="10.6738298"><ele>197.0</ele><time>2026-04-19T08:38:15.009Z</time></trkpt><trkpt lat="44.4744551" lon="10.6736581"><ele>197.33333333333334</ele><time>2026-04-19T08:38:16.009Z</time></trkpt><trkpt lat="44.4743514" lon="10.6734933"><ele>197.66666666666669</ele><time>2026-04-19T08:38:17.008Z</time></trkpt><trkpt lat="44.4742463" lon="10.6733264"><ele>198.0</ele><time>2026-04-19T08:38:18.009Z</time></trkpt><trkpt lat="44.4741418" lon="10.6731648"><ele>198.0</ele><time>2026-04-19T08:38:19.01Z</time></trkpt><trkpt lat="44.4740401" lon="10.6730008"><ele>198.0</ele><time>2026-04-19T08:38:20.008Z</time></trkpt><trkpt lat="44.4739327" lon="10.6728244"><ele>198.0</ele><time>2026-04-19T08:38:21.009Z</time></trkpt><trkpt lat="44.4738243" lon="10.672645"><ele>198.0</ele><time>2026-04-19T08:38:22.01Z</time></trkpt><trkpt lat="44.4737159" lon="10.6724688"><ele>198.0</ele><time>2026-04-19T08:38:23.01Z</time></trkpt><trkpt lat="44.4735998" lon="10.6722892"><ele>198.0</ele><time>2026-04-19T08:38:24.009Z</time></trkpt><trkpt lat="44.4734883" lon="10.672114"><ele>198.0</ele><time>2026-04-19T08:38:25.009Z</time></trkpt><trkpt lat="44.4733793" lon="10.6719407"><ele>198.0</ele><time>2026-04-19T08:38:26.008Z</time></trkpt><trkpt lat="44.4732647" lon="10.6717576"><ele>198.0</ele><time>2026-04-19T08:38:27.008Z</time></trkpt><trkpt lat="44.4731488" lon="10.6715707"><ele>197.66666666666669</ele><time>2026-04-19T08:38:28.009Z</time></trkpt><trkpt lat="44.4730351" lon="10.6713846"><ele>197.33333333333334</ele><time>2026-04-19T08:38:29.01Z</time></trkpt><trkpt lat="44.4729189" lon="10.6712004"><ele>197.0</ele><time>2026-04-19T08:38:30.009Z</time></trkpt><trkpt lat="44.4728011" lon="10.6710191"><ele>196.66666666666669</ele><time>2026-04-19T08:38:31.01Z</time></trkpt><trkpt lat="44.472684" lon="10.6708455"><ele>196.33333333333331</ele><time>2026-04-19T08:38:32.01Z</time></trkpt><trkpt lat="44.4725692" lon="10.6706713"><ele>196.0</ele><time>2026-04-19T08:38:33.009Z</time></trkpt><trkpt lat="44.4724542" lon="10.670503"><ele>196.0</ele><time>2026-04-19T08:38:34.009Z</time></trkpt><trkpt lat="44.472344" lon="10.6703435"><ele>196.0</ele><time>2026-04-19T08:38:35.009Z</time></trkpt><trkpt lat="44.4722357" lon="10.6701782"><ele>196.0</ele><time>2026-04-19T08:38:36.009Z</time></trkpt><trkpt lat="44.4721239" lon="10.6700194"><ele>197.33333333333331</ele><time>2026-04-19T08:38:37.009Z</time></trkpt><trkpt lat="44.4720103" lon="10.6698554"><ele>198.66666666666669</ele><time>2026-04-19T08:38:38.009Z</time></trkpt><trkpt lat="44.4718974" lon="10.669684"><ele>200.0</ele><time>2026-04-19T08:38:39.01Z</time></trkpt><trkpt lat="44.4717882" lon="10.6695135"><ele>200.33333333333334</ele><time>2026-04-19T08:38:40.01Z</time></trkpt><trkpt lat="44.4716745" lon="10.6693442"><ele>200.66666666666669</ele><time>2026-04-19T08:38:41.011Z</time></trkpt><trkpt lat="44.4715686" lon="10.669179"><ele>201.0</ele><time>2026-04-19T08:38:42.009Z</time></trkpt><trkpt lat="44.4714558" lon="10.6690176"><ele>201.0</ele><time>2026-04-19T08:38:43.008Z</time></trkpt><trkpt lat="44.471343" lon="10.6688605"><ele>201.0</ele><time>2026-04-19T08:38:44.009Z</time></trkpt><trkpt lat="44.4712267" lon="10.6687015"><ele>201.0</ele><time>2026-04-19T08:38:45.01Z</time></trkpt><trkpt lat="44.4711124" lon="10.6685396"><ele>201.0</ele><time>2026-04-19T08:38:46.008Z</time></trkpt><trkpt lat="44.4710003" lon="10.668374"><ele>201.0</ele><time>2026-04-19T08:38:47.009Z</time></trkpt><trkpt lat="44.4708886" lon="10.6682055"><ele>201.0</ele><time>2026-04-19T08:38:48.01Z</time></trkpt><trkpt lat="44.4707825" lon="10.6680348"><ele>201.0</ele><time>2026-04-19T08:38:49.01Z</time></trkpt><trkpt lat="44.4706859" lon="10.6678741"><ele>201.0</ele><time>2026-04-19T08:38:50.008Z</time></trkpt><trkpt lat="44.4706019" lon="10.6677046"><ele>201.0</ele><time>2026-04-19T08:38:51.01Z</time></trkpt><trkpt lat="44.4705088" lon="10.6675378"><ele>201.0</ele><time>2026-04-19T08:38:52.01Z</time></trkpt><trkpt lat="44.4704248" lon="10.6673565"><ele>201.25</ele><time>2026-04-19T08:38:53.009Z</time></trkpt><trkpt lat="44.4703463" lon="10.667191"><ele>201.5</ele><time>2026-04-19T08:38:54.009Z</time></trkpt><trkpt lat="44.470271" lon="10.6670301"><ele>201.75</ele><time>2026-04-19T08:38:55.009Z</time></trkpt><trkpt lat="44.4701936" lon="10.6668642"><ele>202.0</ele><time>2026-04-19T08:38:56.009Z</time></trkpt><trkpt lat="44.4701134" lon="10.6667029"><ele>202.75</ele><time>2026-04-19T08:38:57.009Z</time></trkpt><trkpt lat="44.4700344" lon="10.6665379"><ele>203.5</ele><time>2026-04-19T08:38:58.01Z</time></trkpt><trkpt lat="44.4699556" lon="10.6663737"><ele>204.25</ele><time>2026-04-19T08:38:59.009Z</time></trkpt><trkpt lat="44.4698783" lon="10.6662089"><ele>205.0</ele><time>2026-04-19T08:39:00.01Z</time></trkpt><trkpt lat="44.4698004" lon="10.6660487"><ele>204.5</ele><time>2026-04-19T08:39:01.01Z</time></trkpt><trkpt lat="44.4697195" lon="10.6658784"><ele>204.0</ele><time>2026-04-19T08:39:02.009Z</time></trkpt><trkpt lat="44.469638" lon="10.6657039"><ele>203.5</ele><time>2026-04-19T08:39:03.009Z</time></trkpt><trkpt lat="44.4695576" lon="10.6655233"><ele>203.0</ele><time>2026-04-19T08:39:04.009Z</time></trkpt><trkpt lat="44.4694744" lon="10.6653402"><ele>204.0</ele><time>2026-04-19T08:39:05.009Z</time></trkpt><trkpt lat="44.4693916" lon="10.6651563"><ele>205.0</ele><time>2026-04-19T08:39:06.01Z</time></trkpt><trkpt lat="44.4693069" lon="10.6649761"><ele>206.0</ele><time>2026-04-19T08:39:07.01Z</time></trkpt><trkpt lat="44.4692284" lon="10.6648027"><ele>206.0</ele><time>2026-04-19T08:39:08.009Z</time></trkpt><trkpt lat="44.4691487" lon="10.6646327"><ele>206.0</ele><time>2026-04-19T08:39:09.009Z</time></trkpt><trkpt lat="44.4690682" lon="10.6644597"><ele>206.0</ele><time>2026-04-19T08:39:10.009Z</time></trkpt><trkpt lat="44.4689869" lon="10.6642934"><ele>206.0</ele><time>2026-04-19T08:39:11.008Z</time></trkpt><trkpt lat="44.468908" lon="10.6641382"><ele>206.0</ele><time>2026-04-19T08:39:12.01Z</time></trkpt><trkpt lat="44.4688309" lon="10.6639843"><ele>206.0</ele><time>2026-04-19T08:39:13.009Z</time></trkpt><trkpt lat="44.4687576" lon="10.6638261"><ele>206.0</ele><time>2026-04-19T08:39:14.01Z</time></trkpt><trkpt lat="44.4686825" lon="10.66367"><ele>206.0</ele><time>2026-04-19T08:39:15.01Z</time></trkpt><trkpt lat="44.4686102" lon="10.6635234"><ele>206.25</ele><time>2026-04-19T08:39:16.009Z</time></trkpt><trkpt lat="44.468534" lon="10.6633685"><ele>206.5</ele><time>2026-04-19T08:39:17.01Z</time></trkpt><trkpt lat="44.4684547" lon="10.6632221"><ele>206.75</ele><time>2026-04-19T08:39:18.008Z</time></trkpt><trkpt lat="44.4683649" lon="10.6630834"><ele>207.0</ele><time>2026-04-19T08:39:19.009Z</time></trkpt><trkpt lat="44.46828" lon="10.6629593"><ele>207.0</ele><time>2026-04-19T08:39:20.009Z</time></trkpt><trkpt lat="44.4681911" lon="10.6628396"><ele>207.0</ele><time>2026-04-19T08:39:21.009Z</time></trkpt><trkpt lat="44.4680987" lon="10.6627144"><ele>207.0</ele><time>2026-04-19T08:39:22.009Z</time></trkpt><trkpt lat="44.4680019" lon="10.6625913"><ele>207.0</ele><time>2026-04-19T08:39:23.01Z</time></trkpt><trkpt lat="44.4679116" lon="10.6624662"><ele>207.0</ele><time>2026-04-19T08:39:24.01Z</time></trkpt><trkpt lat="44.4678244" lon="10.6623443"><ele>207.0</ele><time>2026-04-19T08:39:25.008Z</time></trkpt><trkpt lat="44.4677438" lon="10.6622362"><ele>207.0</ele><time>2026-04-19T08:39:26.009Z</time></trkpt><trkpt lat="44.467667" lon="10.6621285"><ele>207.0</ele><time>2026-04-19T08:39:27.009Z</time></trkpt><trkpt lat="44.4675998" lon="10.6620328"><ele>207.0</ele><time>2026-04-19T08:39:28.009Z</time></trkpt><trkpt lat="44.4675435" lon="10.6619509"><ele>207.2857142857143</ele><time>2026-04-19T08:39:29.009Z</time></trkpt><trkpt lat="44.4674887" lon="10.661871"><ele>207.57142857142858</ele><time>2026-04-19T08:39:30.009Z</time></trkpt><trkpt lat="44.4674404" lon="10.6618042"><ele>207.85714285714286</ele><time>2026-04-19T08:39:31.01Z</time></trkpt><trkpt lat="44.4674039" lon="10.6617311"><ele>208.14285714285717</ele><time>2026-04-19T08:39:32.01Z</time></trkpt><trkpt lat="44.4673757" lon="10.6616498"><ele>208.42857142857142</ele><time>2026-04-19T08:39:33.009Z</time></trkpt><trkpt lat="44.4673495" lon="10.6615599"><ele>208.71428571428572</ele><time>2026-04-19T08:39:34.01Z</time></trkpt><trkpt lat="44.4673178" lon="10.6614763"><ele>209.0</ele><time>2026-04-19T08:39:35.009Z</time></trkpt><trkpt lat="44.4672318" lon="10.661356"><ele>209.00000000000003</ele><time>2026-04-19T08:39:37.009Z</time></trkpt><trkpt lat="44.4671712" lon="10.6613103"><ele>209.0</ele><time>2026-04-19T08:39:38.009Z</time></trkpt><trkpt lat="44.4670996" lon="10.6612714"><ele>209.0</ele><time>2026-04-19T08:39:39.009Z</time></trkpt><trkpt lat="44.4670216" lon="10.661224"><ele>209.0</ele><time>2026-04-19T08:39:40.009Z</time></trkpt><trkpt lat="44.466931" lon="10.6611474"><ele>209.00000000000003</ele><time>2026-04-19T08:39:41.01Z</time></trkpt><trkpt lat="44.4668434" lon="10.6610563"><ele>209.0</ele><time>2026-04-19T08:39:42.009Z</time></trkpt><trkpt lat="44.4667441" lon="10.6609484"><ele>208.79999999999998</ele><time>2026-04-19T08:39:43.009Z</time></trkpt><trkpt lat="44.4666388" lon="10.6608333"><ele>208.6</ele><time>2026-04-19T08:39:44.01Z</time></trkpt><trkpt lat="44.4665503" lon="10.6607352"><ele>208.4</ele><time>2026-04-19T08:39:45.01Z</time></trkpt><trkpt lat="44.4664767" lon="10.660656"><ele>208.2</ele><time>2026-04-19T08:39:46.01Z</time></trkpt><trkpt lat="44.4664119" lon="10.6605836"><ele>208.0</ele><time>2026-04-19T08:39:47.01Z</time></trkpt><trkpt lat="44.4663513" lon="10.6605166"><ele>207.99999999999997</ele><time>2026-04-19T08:39:48.009Z</time></trkpt><trkpt lat="44.4662938" lon="10.6604437"><ele>208.0</ele><time>2026-04-19T08:39:49.01Z</time></trkpt><trkpt lat="44.4662358" lon="10.6603646"><ele>208.0</ele><time>2026-04-19T08:39:50.008Z</time></trkpt><trkpt lat="44.4661753" lon="10.6602805"><ele>208.0</ele><time>2026-04-19T08:39:51.009Z</time></trkpt><trkpt lat="44.4661077" lon="10.6601983"><ele>207.99999999999997</ele><time>2026-04-19T08:39:52.009Z</time></trkpt><trkpt lat="44.4660352" lon="10.6601064"><ele>208.0</ele><time>2026-04-19T08:39:53.01Z</time></trkpt><trkpt lat="44.4659542" lon="10.6600001"><ele>207.75</ele><time>2026-04-19T08:39:54.009Z</time></trkpt><trkpt lat="44.4658644" lon="10.6598882"><ele>207.5</ele><time>2026-04-19T08:39:55.009Z</time></trkpt><trkpt lat="44.4657758" lon="10.6597717"><ele>207.25</ele><time>2026-04-19T08:39:56.007Z</time></trkpt><trkpt lat="44.4656902" lon="10.6596664"><ele>207.0</ele><time>2026-04-19T08:39:57.009Z</time></trkpt><trkpt lat="44.4656016" lon="10.6595613"><ele>207.0</ele><time>2026-04-19T08:39:58.01Z</time></trkpt><trkpt lat="44.4655083" lon="10.659458"><ele>207.0</ele><time>2026-04-19T08:39:59.009Z</time></trkpt><trkpt lat="44.4654152" lon="10.6593521"><ele>207.0</ele><time>2026-04-19T08:40:00.01Z</time></trkpt><trkpt lat="44.465321" lon="10.6592564"><ele>207.0</ele><time>2026-04-19T08:40:01.009Z</time></trkpt><trkpt lat="44.4652359" lon="10.6591656"><ele>207.75</ele><time>2026-04-19T08:40:02.01Z</time></trkpt><trkpt lat="44.4651456" lon="10.659078"><ele>208.5</ele><time>2026-04-19T08:40:03.009Z</time></trkpt><trkpt lat="44.4650522" lon="10.6589785"><ele>209.25</ele><time>2026-04-19T08:40:04.01Z</time></trkpt><trkpt lat="44.4649606" lon="10.6588769"><ele>210.0</ele><time>2026-04-19T08:40:05.008Z</time></trkpt><trkpt lat="44.4648483" lon="10.6587807"><ele>210.0</ele><time>2026-04-19T08:40:06.01Z</time></trkpt><trkpt lat="44.4647429" lon="10.6586735"><ele>210.0</ele><time>2026-04-19T08:40:07.01Z</time></trkpt><trkpt lat="44.4646334" lon="10.6585657"><ele>210.0</ele><time>2026-04-19T08:40:08.008Z</time></trkpt><trkpt lat="44.4645292" lon="10.6584665"><ele>210.0</ele><time>2026-04-19T08:40:09.009Z</time></trkpt><trkpt lat="44.464431" lon="10.6583728"><ele>210.0</ele><time>2026-04-19T08:40:10.009Z</time></trkpt><trkpt lat="44.4643287" lon="10.6582724"><ele>210.0</ele><time>2026-04-19T08:40:11.008Z</time></trkpt><trkpt lat="44.4642328" lon="10.658174"><ele>210.0</ele><time>2026-04-19T08:40:12.008Z</time></trkpt><trkpt lat="44.4641259" lon="10.658079"><ele>210.0</ele><time>2026-04-19T08:40:13.01Z</time></trkpt><trkpt lat="44.4640271" lon="10.6579883"><ele>210.0</ele><time>2026-04-19T08:40:14.008Z</time></trkpt><trkpt lat="44.4639347" lon="10.6578966"><ele>210.0</ele><time>2026-04-19T08:40:15.01Z</time></trkpt><trkpt lat="44.4638434" lon="10.6578097"><ele>210.0</ele><time>2026-04-19T08:40:16.009Z</time></trkpt><trkpt lat="44.4637488" lon="10.6577122"><ele>210.0</ele><time>2026-04-19T08:40:17.009Z</time></trkpt><trkpt lat="44.4636516" lon="10.6576165"><ele>210.0</ele><time>2026-04-19T08:40:18.009Z</time></trkpt><trkpt lat="44.4635574" lon="10.6575251"><ele>210.0</ele><time>2026-04-19T08:40:19.01Z</time></trkpt><trkpt lat="44.4634623" lon="10.6574289"><ele>210.0</ele><time>2026-04-19T08:40:20.01Z</time></trkpt><trkpt lat="44.4633711" lon="10.6573273"><ele>210.0</ele><time>2026-04-19T08:40:21.01Z</time></trkpt><trkpt lat="44.4632752" lon="10.657232"><ele>210.0</ele><time>2026-04-19T08:40:22.01Z</time></trkpt><trkpt lat="44.463181" lon="10.6571379"><ele>210.0</ele><time>2026-04-19T08:40:23.007Z</time></trkpt><trkpt lat="44.4630846" lon="10.6570431"><ele>210.0</ele><time>2026-04-19T08:40:24.01Z</time></trkpt><trkpt lat="44.4629785" lon="10.6569498"><ele>210.0</ele><time>2026-04-19T08:40:25.008Z</time></trkpt><trkpt lat="44.4628714" lon="10.6568491"><ele>210.75</ele><time>2026-04-19T08:40:26.009Z</time></trkpt><trkpt lat="44.4627635" lon="10.6567422"><ele>211.5</ele><time>2026-04-19T08:40:27.01Z</time></trkpt><trkpt lat="44.4626539" lon="10.6566321"><ele>212.25</ele><time>2026-04-19T08:40:28.011Z</time></trkpt><trkpt lat="44.4625442" lon="10.6565149"><ele>213.0</ele><time>2026-04-19T08:40:29.009Z</time></trkpt><trkpt lat="44.4624341" lon="10.6564016"><ele>213.0</ele><time>2026-04-19T08:40:30.009Z</time></trkpt><trkpt lat="44.4623228" lon="10.6562876"><ele>213.0</ele><time>2026-04-19T08:40:31.008Z</time></trkpt><trkpt lat="44.4622096" lon="10.6561768"><ele>213.0</ele><time>2026-04-19T08:40:32.009Z</time></trkpt><trkpt lat="44.4620938" lon="10.6560593"><ele>213.0</ele><time>2026-04-19T08:40:33.01Z</time></trkpt><trkpt lat="44.4619772" lon="10.6559442"><ele>212.5</ele><time>2026-04-19T08:40:34.009Z</time></trkpt><trkpt lat="44.4618561" lon="10.6558331"><ele>212.0</ele><time>2026-04-19T08:40:35.008Z</time></trkpt><trkpt lat="44.4617404" lon="10.6557219"><ele>211.5</ele><time>2026-04-19T08:40:36.009Z</time></trkpt><trkpt lat="44.4616286" lon="10.6556171"><ele>211.0</ele><time>2026-04-19T08:40:37.009Z</time></trkpt><trkpt lat="44.4615256" lon="10.6555167"><ele>211.0</ele><time>2026-04-19T08:40:38.009Z</time></trkpt><trkpt lat="44.4614261" lon="10.6554203"><ele>211.0</ele><time>2026-04-19T08:40:39.008Z</time></trkpt><trkpt lat="44.4613313" lon="10.6553337"><ele>211.0</ele><time>2026-04-19T08:40:40.01Z</time></trkpt><trkpt lat="44.461246" lon="10.6552459"><ele>211.0</ele><time>2026-04-19T08:40:41.01Z</time></trkpt><trkpt lat="44.4611585" lon="10.6551609"><ele>211.0</ele><time>2026-04-19T08:40:42.009Z</time></trkpt><trkpt lat="44.4610706" lon="10.6550761"><ele>211.4</ele><time>2026-04-19T08:40:43.009Z</time></trkpt><trkpt lat="44.4609839" lon="10.654989"><ele>211.8</ele><time>2026-04-19T08:40:44.009Z</time></trkpt><trkpt lat="44.4609023" lon="10.6549093"><ele>212.20000000000002</ele><time>2026-04-19T08:40:45.01Z</time></trkpt><trkpt lat="44.4608226" lon="10.6548331"><ele>212.60000000000002</ele><time>2026-04-19T08:40:46.01Z</time></trkpt><trkpt lat="44.4607447" lon="10.6547599"><ele>213.0</ele><time>2026-04-19T08:40:47.008Z</time></trkpt><trkpt lat="44.4606625" lon="10.6546893"><ele>213.0</ele><time>2026-04-19T08:40:48.009Z</time></trkpt><trkpt lat="44.460583" lon="10.654624"><ele>213.0</ele><time>2026-04-19T08:40:49.009Z</time></trkpt><trkpt lat="44.4605057" lon="10.654564"><ele>213.0</ele><time>2026-04-19T08:40:50.01Z</time></trkpt><trkpt lat="44.4604404" lon="10.6545065"><ele>213.0</ele><time>2026-04-19T08:40:51.009Z</time></trkpt><trkpt lat="44.4603726" lon="10.654456"><ele>213.0</ele><time>2026-04-19T08:40:52.009Z</time></trkpt><trkpt lat="44.4603059" lon="10.654413"><ele>213.0</ele><time>2026-04-19T08:40:53.009Z</time></trkpt><trkpt lat="44.4602495" lon="10.6543689"><ele>213.16666666666666</ele><time>2026-04-19T08:40:54.008Z</time></trkpt><trkpt lat="44.4601485" lon="10.6542581"><ele>213.33333333333331</ele><time>2026-04-19T08:40:56.008Z</time></trkpt><trkpt lat="44.4600844" lon="10.6542018"><ele>213.5</ele><time>2026-04-19T08:40:57.01Z</time></trkpt><trkpt lat="44.4600172" lon="10.6541652"><ele>213.66666666666666</ele><time>2026-04-19T08:40:58.01Z</time></trkpt><trkpt lat="44.4599427" lon="10.6541486"><ele>213.83333333333331</ele><time>2026-04-19T08:40:59.008Z</time></trkpt><trkpt lat="44.4598573" lon="10.6541411"><ele>214.0</ele><time>2026-04-19T08:41:00.009Z</time></trkpt><trkpt lat="44.4597557" lon="10.6541496"><ele>214.0</ele><time>2026-04-19T08:41:01.008Z</time></trkpt><trkpt lat="44.459656" lon="10.6541528"><ele>214.0</ele><time>2026-04-19T08:41:02.01Z</time></trkpt><trkpt lat="44.459534" lon="10.6541428"><ele>214.0</ele><time>2026-04-19T08:41:03.01Z</time></trkpt><trkpt lat="44.459397" lon="10.6541285"><ele>214.0</ele><time>2026-04-19T08:41:04.008Z</time></trkpt><trkpt lat="44.4592512" lon="10.6541151"><ele>214.5</ele><time>2026-04-19T08:41:05.009Z</time></trkpt><trkpt lat="44.4591084" lon="10.6541024"><ele>215.0</ele><time>2026-04-19T08:41:06.009Z</time></trkpt><trkpt lat="44.4589695" lon="10.6540779"><ele>215.5</ele><time>2026-04-19T08:41:07.008Z</time></trkpt><trkpt lat="44.458841" lon="10.6540625"><ele>216.0</ele><time>2026-04-19T08:41:08.009Z</time></trkpt><trkpt lat="44.4587195" lon="10.6540423"><ele>216.0</ele><time>2026-04-19T08:41:09.009Z</time></trkpt><trkpt lat="44.4585966" lon="10.6540268"><ele>216.0</ele><time>2026-04-19T08:41:10.01Z</time></trkpt><trkpt lat="44.45847" lon="10.654014"><ele>216.0</ele><time>2026-04-19T08:41:11.01Z</time></trkpt><trkpt lat="44.4583467" lon="10.6539945"><ele>216.0</ele><time>2026-04-19T08:41:12.01Z</time></trkpt><trkpt lat="44.4582271" lon="10.6539743"><ele>216.0</ele><time>2026-04-19T08:41:13.009Z</time></trkpt><trkpt lat="44.4581007" lon="10.6539588"><ele>216.0</ele><time>2026-04-19T08:41:14.009Z</time></trkpt><trkpt lat="44.4579736" lon="10.6539384"><ele>216.0</ele><time>2026-04-19T08:41:15.009Z</time></trkpt><trkpt lat="44.4578423" lon="10.6539228"><ele>216.0</ele><time>2026-04-19T08:41:16.01Z</time></trkpt><trkpt lat="44.4577113" lon="10.6538944"><ele>216.25</ele><time>2026-04-19T08:41:17.01Z</time></trkpt><trkpt lat="44.4575815" lon="10.6538744"><ele>216.5</ele><time>2026-04-19T08:41:18.01Z</time></trkpt><trkpt lat="44.4574519" lon="10.6538551"><ele>216.75</ele><time>2026-04-19T08:41:19.01Z</time></trkpt><trkpt lat="44.457326" lon="10.6538304"><ele>217.0</ele><time>2026-04-19T08:41:20.01Z</time></trkpt><trkpt lat="44.4572062" lon="10.6538003"><ele>217.5</ele><time>2026-04-19T08:41:21.01Z</time></trkpt><trkpt lat="44.457087" lon="10.6537562"><ele>218.0</ele><time>2026-04-19T08:41:22.008Z</time></trkpt><trkpt lat="44.4569704" lon="10.653705"><ele>218.5</ele><time>2026-04-19T08:41:23.007Z</time></trkpt><trkpt lat="44.4568566" lon="10.6536393"><ele>219.0</ele><time>2026-04-19T08:41:24.009Z</time></trkpt><trkpt lat="44.4567436" lon="10.6535685"><ele>219.0</ele><time>2026-04-19T08:41:25.008Z</time></trkpt><trkpt lat="44.4566283" lon="10.653482"><ele>219.0</ele><time>2026-04-19T08:41:26.01Z</time></trkpt><trkpt lat="44.4565144" lon="10.6533885"><ele>219.0</ele><time>2026-04-19T08:41:27.01Z</time></trkpt><trkpt lat="44.456396" lon="10.6532881"><ele>219.0</ele><time>2026-04-19T08:41:28.009Z</time></trkpt><trkpt lat="44.4562828" lon="10.6531909"><ele>219.0</ele><time>2026-04-19T08:41:29.009Z</time></trkpt><trkpt lat="44.456172" lon="10.6530932"><ele>219.0</ele><time>2026-04-19T08:41:30.009Z</time></trkpt><trkpt lat="44.4560567" lon="10.652994"><ele>219.0</ele><time>2026-04-19T08:41:31.01Z</time></trkpt><trkpt lat="44.4559435" lon="10.6528971"><ele>219.0</ele><time>2026-04-19T08:41:32.009Z</time></trkpt><trkpt lat="44.4558285" lon="10.6528066"><ele>223.25</ele><time>2026-04-19T08:41:33.01Z</time></trkpt><trkpt lat="44.455716" lon="10.6527134"><ele>227.5</ele><time>2026-04-19T08:41:34.009Z</time></trkpt><trkpt lat="44.4555989" lon="10.652634"><ele>231.75</ele><time>2026-04-19T08:41:35.008Z</time></trkpt><trkpt lat="44.455474" lon="10.6525637"><ele>236.0</ele><time>2026-04-19T08:41:36.009Z</time></trkpt><trkpt lat="44.4553402" lon="10.6525248"><ele>236.0</ele><time>2026-04-19T08:41:37.01Z</time></trkpt><trkpt lat="44.4552112" lon="10.6525034"><ele>236.0</ele><time>2026-04-19T08:41:38.01Z</time></trkpt><trkpt lat="44.4550863" lon="10.6524939"><ele>236.0</ele><time>2026-04-19T08:41:39.009Z</time></trkpt><trkpt lat="44.4549604" lon="10.6524927"><ele>236.0</ele><time>2026-04-19T08:41:40.008Z</time></trkpt><trkpt lat="44.4548348" lon="10.6524857"><ele>236.0</ele><time>2026-04-19T08:41:41.009Z</time></trkpt><trkpt lat="44.4547082" lon="10.6524807"><ele>236.0</ele><time>2026-04-19T08:41:42.008Z</time></trkpt><trkpt lat="44.4545771" lon="10.6524755"><ele>236.0</ele><time>2026-04-19T08:41:43.009Z</time></trkpt><trkpt lat="44.4544496" lon="10.6524686"><ele>236.0</ele><time>2026-04-19T08:41:44.01Z</time></trkpt><trkpt lat="44.4543168" lon="10.6524625"><ele>235.5</ele><time>2026-04-19T08:41:45.008Z</time></trkpt><trkpt lat="44.4541865" lon="10.6524583"><ele>235.0</ele><time>2026-04-19T08:41:46.008Z</time></trkpt><trkpt lat="44.4540522" lon="10.6524512"><ele>234.5</ele><time>2026-04-19T08:41:47.009Z</time></trkpt><trkpt lat="44.4539181" lon="10.6524455"><ele>234.0</ele><time>2026-04-19T08:41:48.01Z</time></trkpt><trkpt lat="44.4537902" lon="10.6524403"><ele>233.0</ele><time>2026-04-19T08:41:49.009Z</time></trkpt><trkpt lat="44.4536645" lon="10.6524386"><ele>232.0</ele><time>2026-04-19T08:41:50.009Z</time></trkpt><trkpt lat="44.4535385" lon="10.6524308"><ele>231.0</ele><time>2026-04-19T08:41:51.008Z</time></trkpt><trkpt lat="44.4534105" lon="10.6524265"><ele>230.0</ele><time>2026-04-19T08:41:52.009Z</time></trkpt><trkpt lat="44.4532817" lon="10.6524208"><ele>230.0</ele><time>2026-04-19T08:41:53.009Z</time></trkpt><trkpt lat="44.4531546" lon="10.6523995"><ele>230.0</ele><time>2026-04-19T08:41:54.008Z</time></trkpt><trkpt lat="44.4530282" lon="10.652375"><ele>230.0</ele><time>2026-04-19T08:41:55.008Z</time></trkpt><trkpt lat="44.4528919" lon="10.6523397"><ele>230.0</ele><time>2026-04-19T08:41:56.008Z</time></trkpt><trkpt lat="44.452752" lon="10.6522969"><ele>229.5</ele><time>2026-04-19T08:41:57.01Z</time></trkpt><trkpt lat="44.4526025" lon="10.6522503"><ele>229.0</ele><time>2026-04-19T08:41:58.009Z</time></trkpt><trkpt lat="44.4524581" lon="10.6522029"><ele>228.5</ele><time>2026-04-19T08:41:59.01Z</time></trkpt><trkpt lat="44.4523224" lon="10.6521543"><ele>228.0</ele><time>2026-04-19T08:42:00.01Z</time></trkpt><trkpt lat="44.4521894" lon="10.652103"><ele>226.75</ele><time>2026-04-19T08:42:01.009Z</time></trkpt><trkpt lat="44.4520531" lon="10.6520563"><ele>225.5</ele><time>2026-04-19T08:42:02.008Z</time></trkpt><trkpt lat="44.4519165" lon="10.6520045"><ele>224.25</ele><time>2026-04-19T08:42:03.009Z</time></trkpt><trkpt lat="44.4517772" lon="10.6519521"><ele>223.0</ele><time>2026-04-19T08:42:04.01Z</time></trkpt><trkpt lat="44.4516471" lon="10.6518956"><ele>226.0</ele><time>2026-04-19T08:42:05.01Z</time></trkpt><trkpt lat="44.4515034" lon="10.651851"><ele>229.0</ele><time>2026-04-19T08:42:06.009Z</time></trkpt><trkpt lat="44.4513573" lon="10.6518057"><ele>232.0</ele><time>2026-04-19T08:42:07.009Z</time></trkpt><trkpt lat="44.4512148" lon="10.6517512"><ele>235.0</ele><time>2026-04-19T08:42:08.009Z</time></trkpt><trkpt lat="44.451074" lon="10.6516974"><ele>235.0</ele><time>2026-04-19T08:42:09.008Z</time></trkpt><trkpt lat="44.4509368" lon="10.651645"><ele>235.0</ele><time>2026-04-19T08:42:10.009Z</time></trkpt><trkpt lat="44.450797" lon="10.6515854"><ele>235.0</ele><time>2026-04-19T08:42:11.009Z</time></trkpt><trkpt lat="44.4506635" lon="10.6515315"><ele>235.0</ele><time>2026-04-19T08:42:12.009Z</time></trkpt><trkpt lat="44.4505303" lon="10.6514766"><ele>233.25</ele><time>2026-04-19T08:42:13.01Z</time></trkpt><trkpt lat="44.4504041" lon="10.6514145"><ele>231.5</ele><time>2026-04-19T08:42:14.008Z</time></trkpt><trkpt lat="44.4502774" lon="10.6513666"><ele>229.75</ele><time>2026-04-19T08:42:15.009Z</time></trkpt><trkpt lat="44.450157" lon="10.6513141"><ele>228.0</ele><time>2026-04-19T08:42:16.008Z</time></trkpt><trkpt lat="44.4500426" lon="10.651253"><ele>228.0</ele><time>2026-04-19T08:42:17.008Z</time></trkpt><trkpt lat="44.4499242" lon="10.6511826"><ele>228.0</ele><time>2026-04-19T08:42:18.008Z</time></trkpt><trkpt lat="44.4498044" lon="10.6510984"><ele>228.0</ele><time>2026-04-19T08:42:19.01Z</time></trkpt><trkpt lat="44.4497037" lon="10.6509792"><ele>228.0</ele><time>2026-04-19T08:42:20.008Z</time></trkpt><trkpt lat="44.4496061" lon="10.6508612"><ele>229.0</ele><time>2026-04-19T08:42:21.009Z</time></trkpt><trkpt lat="44.4495149" lon="10.6507351"><ele>230.0</ele><time>2026-04-19T08:42:22.01Z</time></trkpt><trkpt lat="44.4494275" lon="10.6505999"><ele>231.0</ele><time>2026-04-19T08:42:23.009Z</time></trkpt><trkpt lat="44.4493473" lon="10.6504695"><ele>232.0</ele><time>2026-04-19T08:42:24.009Z</time></trkpt><trkpt lat="44.4492739" lon="10.6503394"><ele>233.2</ele><time>2026-04-19T08:42:25.01Z</time></trkpt><trkpt lat="44.4492031" lon="10.6502137"><ele>234.39999999999998</ele><time>2026-04-19T08:42:26.008Z</time></trkpt><trkpt lat="44.4491322" lon="10.6501"><ele>235.60000000000002</ele><time>2026-04-19T08:42:27.009Z</time></trkpt><trkpt lat="44.4490596" lon="10.6499862"><ele>236.8</ele><time>2026-04-19T08:42:28.01Z</time></trkpt><trkpt lat="44.4489764" lon="10.6498845"><ele>238.0</ele><time>2026-04-19T08:42:29.008Z</time></trkpt><trkpt lat="44.4488834" lon="10.6498046"><ele>237.75</ele><time>2026-04-19T08:42:30.009Z</time></trkpt><trkpt lat="44.4487762" lon="10.6497546"><ele>237.5</ele><time>2026-04-19T08:42:31.01Z</time></trkpt><trkpt lat="44.4486676" lon="10.6497195"><ele>237.25</ele><time>2026-04-19T08:42:32.009Z</time></trkpt><trkpt lat="44.4485435" lon="10.6497321"><ele>237.0</ele><time>2026-04-19T08:42:33.009Z</time></trkpt><trkpt lat="44.4484059" lon="10.6497576"><ele>237.0</ele><time>2026-04-19T08:42:34.008Z</time></trkpt><trkpt lat="44.4482575" lon="10.6498017"><ele>237.0</ele><time>2026-04-19T08:42:35.01Z</time></trkpt><trkpt lat="44.4481132" lon="10.6498452"><ele>237.0</ele><time>2026-04-19T08:42:36.008Z</time></trkpt><trkpt lat="44.4479629" lon="10.6498908"><ele>238.33333333333331</ele><time>2026-04-19T08:42:37.008Z</time></trkpt><trkpt lat="44.4477928" lon="10.6499544"><ele>239.66666666666666</ele><time>2026-04-19T08:42:38.01Z</time></trkpt><trkpt lat="44.4476162" lon="10.6500118"><ele>241.0</ele><time>2026-04-19T08:42:39.009Z</time></trkpt><trkpt lat="44.447426" lon="10.6500672"><ele>241.0</ele><time>2026-04-19T08:42:40.01Z</time></trkpt><trkpt lat="44.4472441" lon="10.6501275"><ele>241.0</ele><time>2026-04-19T08:42:41.01Z</time></trkpt><trkpt lat="44.4470743" lon="10.6501862"><ele>241.0</ele><time>2026-04-19T08:42:42.009Z</time></trkpt><trkpt lat="44.4469114" lon="10.6502337"><ele>241.0</ele><time>2026-04-19T08:42:43.009Z</time></trkpt><trkpt lat="44.4467533" lon="10.6502908"><ele>241.0</ele><time>2026-04-19T08:42:44.01Z</time></trkpt><trkpt lat="44.4465929" lon="10.6503435"><ele>241.0</ele><time>2026-04-19T08:42:45.009Z</time></trkpt><trkpt lat="44.4464274" lon="10.6504008"><ele>238.66666666666666</ele><time>2026-04-19T08:42:46.01Z</time></trkpt><trkpt lat="44.4462726" lon="10.6504587"><ele>236.33333333333331</ele><time>2026-04-19T08:42:47.009Z</time></trkpt><trkpt lat="44.446123" lon="10.6505142"><ele>234.0</ele><time>2026-04-19T08:42:48.009Z</time></trkpt><trkpt lat="44.445974" lon="10.6505715"><ele>234.0</ele><time>2026-04-19T08:42:49.008Z</time></trkpt><trkpt lat="44.4458284" lon="10.6506359"><ele>234.0</ele><time>2026-04-19T08:42:50.009Z</time></trkpt><trkpt lat="44.4456856" lon="10.6507056"><ele>234.0</ele><time>2026-04-19T08:42:51.008Z</time></trkpt><trkpt lat="44.4455533" lon="10.6507727"><ele>234.0</ele><time>2026-04-19T08:42:52.01Z</time></trkpt><trkpt lat="44.4454345" lon="10.6508311"><ele>234.75</ele><time>2026-04-19T08:42:53.009Z</time></trkpt><trkpt lat="44.44532" lon="10.6509002"><ele>235.5</ele><time>2026-04-19T08:42:54.01Z</time></trkpt><trkpt lat="44.4452034" lon="10.6509688"><ele>236.25</ele><time>2026-04-19T08:42:55.01Z</time></trkpt><trkpt lat="44.4450762" lon="10.6510427"><ele>237.0</ele><time>2026-04-19T08:42:56.009Z</time></trkpt><trkpt lat="44.4449345" lon="10.6511212"><ele>235.0</ele><time>2026-04-19T08:42:57.009Z</time></trkpt><trkpt lat="44.4447631" lon="10.6512111"><ele>233.0</ele><time>2026-04-19T08:42:58.01Z</time></trkpt><trkpt lat="44.4445948" lon="10.6512998"><ele>231.0</ele><time>2026-04-19T08:42:59.009Z</time></trkpt><trkpt lat="44.4444137" lon="10.6513884"><ele>231.0</ele><time>2026-04-19T08:43:00.009Z</time></trkpt><trkpt lat="44.4442111" lon="10.6514997"><ele>231.0</ele><time>2026-04-19T08:43:01.009Z</time></trkpt><trkpt lat="44.4439966" lon="10.6516095"><ele>231.0</ele><time>2026-04-19T08:43:02.009Z</time></trkpt><trkpt lat="44.4437723" lon="10.6517243"><ele>233.5</ele><time>2026-04-19T08:43:03.008Z</time></trkpt><trkpt lat="44.4435525" lon="10.6518391"><ele>236.0</ele><time>2026-04-19T08:43:04.01Z</time></trkpt><trkpt lat="44.4433251" lon="10.6519567"><ele>231.5</ele><time>2026-04-19T08:43:05.008Z</time></trkpt><trkpt lat="44.4430938" lon="10.6520756"><ele>227.0</ele><time>2026-04-19T08:43:06.008Z</time></trkpt><trkpt lat="44.4428611" lon="10.6521906"><ele>226.5</ele><time>2026-04-19T08:43:07.01Z</time></trkpt><trkpt lat="44.4426193" lon="10.6522986"><ele>226.0</ele><time>2026-04-19T08:43:08.01Z</time></trkpt><trkpt lat="44.4423738" lon="10.6524001"><ele>227.0</ele><time>2026-04-19T08:43:09.008Z</time></trkpt><trkpt lat="44.4421263" lon="10.6524946"><ele>228.0</ele><time>2026-04-19T08:43:10.007Z</time></trkpt><trkpt lat="44.4418733" lon="10.6525755"><ele>228.0</ele><time>2026-04-19T08:43:11.008Z</time></trkpt><trkpt lat="44.4416214" lon="10.6526487"><ele>228.0</ele><time>2026-04-19T08:43:12.008Z</time></trkpt><trkpt lat="44.4413702" lon="10.6527171"><ele>227.5</ele><time>2026-04-19T08:43:13.008Z</time></trkpt><trkpt lat="44.4411204" lon="10.6527736"><ele>227.0</ele><time>2026-04-19T08:43:14.01Z</time></trkpt><trkpt lat="44.4408667" lon="10.6528178"><ele>227.0</ele><time>2026-04-19T08:43:15.008Z</time></trkpt><trkpt lat="44.4406108" lon="10.6528524"><ele>227.0</ele><time>2026-04-19T08:43:16.008Z</time></trkpt><trkpt lat="44.440358" lon="10.6528756"><ele>228.0</ele><time>2026-04-19T08:43:17.01Z</time></trkpt><trkpt lat="44.4401064" lon="10.65288"><ele>229.0</ele><time>2026-04-19T08:43:18.01Z</time></trkpt><trkpt lat="44.439854" lon="10.6528774"><ele>229.5</ele><time>2026-04-19T08:43:19.01Z</time></trkpt><trkpt lat="44.4395966" lon="10.6528443"><ele>230.0</ele><time>2026-04-19T08:43:20.008Z</time></trkpt><trkpt lat="44.4393514" lon="10.6528018"><ele>231.0</ele><time>2026-04-19T08:43:21.008Z</time></trkpt><trkpt lat="44.439111" lon="10.6527492"><ele>232.0</ele><time>2026-04-19T08:43:22.009Z</time></trkpt><trkpt lat="44.4388831" lon="10.6526889"><ele>232.33333333333331</ele><time>2026-04-19T08:43:23.008Z</time></trkpt><trkpt lat="44.4386725" lon="10.6526123"><ele>232.66666666666669</ele><time>2026-04-19T08:43:24.01Z</time></trkpt><trkpt lat="44.4384828" lon="10.6525383"><ele>233.0</ele><time>2026-04-19T08:43:25.009Z</time></trkpt><trkpt lat="44.4383113" lon="10.6524643"><ele>233.0</ele><time>2026-04-19T08:43:26.01Z</time></trkpt><trkpt lat="44.4381603" lon="10.6523919"><ele>233.0</ele><time>2026-04-19T08:43:27.009Z</time></trkpt><trkpt lat="44.4380142" lon="10.6523214"><ele>233.0</ele><time>2026-04-19T08:43:28.009Z</time></trkpt><trkpt lat="44.437892" lon="10.6522545"><ele>233.0</ele><time>2026-04-19T08:43:29.009Z</time></trkpt><trkpt lat="44.4377624" lon="10.6521874"><ele>233.25</ele><time>2026-04-19T08:43:30.008Z</time></trkpt><trkpt lat="44.4376351" lon="10.6521219"><ele>233.5</ele><time>2026-04-19T08:43:31.009Z</time></trkpt><trkpt lat="44.4375116" lon="10.6520563"><ele>233.75</ele><time>2026-04-19T08:43:32.008Z</time></trkpt><trkpt lat="44.4373878" lon="10.6519888"><ele>234.0</ele><time>2026-04-19T08:43:33.008Z</time></trkpt><trkpt lat="44.4372693" lon="10.6519198"><ele>235.75</ele><time>2026-04-19T08:43:34.009Z</time></trkpt><trkpt lat="44.4371462" lon="10.6518529"><ele>237.5</ele><time>2026-04-19T08:43:35.008Z</time></trkpt><trkpt lat="44.4370272" lon="10.6517761"><ele>239.25</ele><time>2026-04-19T08:43:36.009Z</time></trkpt><trkpt lat="44.4369046" lon="10.6517079"><ele>241.0</ele><time>2026-04-19T08:43:37.01Z</time></trkpt><trkpt lat="44.4367869" lon="10.6516273"><ele>249.25</ele><time>2026-04-19T08:43:38.009Z</time></trkpt><trkpt lat="44.4366682" lon="10.6515858"><ele>257.5</ele><time>2026-04-19T08:43:39.009Z</time></trkpt><trkpt lat="44.4365479" lon="10.6515235"><ele>265.75</ele><time>2026-04-19T08:43:40.008Z</time></trkpt><trkpt lat="44.4364279" lon="10.6514628"><ele>274.0</ele><time>2026-04-19T08:43:41.009Z</time></trkpt><trkpt lat="44.4363136" lon="10.6514036"><ele>280.25</ele><time>2026-04-19T08:43:42.008Z</time></trkpt><trkpt lat="44.4361976" lon="10.6513437"><ele>286.5</ele><time>2026-04-19T08:43:43.008Z</time></trkpt><trkpt lat="44.4360818" lon="10.6512838"><ele>292.75</ele><time>2026-04-19T08:43:44.008Z</time></trkpt><trkpt lat="44.4359866" lon="10.6512336"><ele>299.0</ele><time>2026-04-19T08:43:45.009Z</time></trkpt><trkpt lat="44.435875" lon="10.6511757"><ele>299.0</ele><time>2026-04-19T08:43:46.009Z</time></trkpt><trkpt lat="44.43579" lon="10.6511304"><ele>299.0</ele><time>2026-04-19T08:43:47.008Z</time></trkpt><trkpt lat="44.4356966" lon="10.651093"><ele>299.0</ele><time>2026-04-19T08:43:48.009Z</time></trkpt><trkpt lat="44.4355681" lon="10.650969"><ele>299.0</ele><time>2026-04-19T08:43:49.009Z</time></trkpt><trkpt lat="44.435456" lon="10.6509056"><ele>299.5</ele><time>2026-04-19T08:43:50.008Z</time></trkpt><trkpt lat="44.4353469" lon="10.650845"><ele>300.0</ele><time>2026-04-19T08:43:51.009Z</time></trkpt><trkpt lat="44.4352359" lon="10.6507826"><ele>300.5</ele><time>2026-04-19T08:43:52.009Z</time></trkpt><trkpt lat="44.435129" lon="10.6507223"><ele>301.0</ele><time>2026-04-19T08:43:53.008Z</time></trkpt><trkpt lat="44.4349404" lon="10.6507082"><ele>301.0</ele><time>2026-04-19T08:43:54.009Z</time></trkpt><trkpt lat="44.4348179" lon="10.6506487"><ele>301.0</ele><time>2026-04-19T08:43:55.008Z</time></trkpt><trkpt lat="44.4346974" lon="10.650589"><ele>301.0</ele><time>2026-04-19T08:43:56.008Z</time></trkpt><trkpt lat="44.4345776" lon="10.6505298"><ele>301.0</ele><time>2026-04-19T08:43:57.007Z</time></trkpt><trkpt lat="44.4344577" lon="10.6504705"><ele>244.0</ele><time>2026-04-19T08:43:58.009Z</time></trkpt><trkpt lat="44.4336818" lon="10.6497234"><ele>244.0</ele><time>2026-04-19T08:44:03.009Z</time></trkpt><trkpt lat="44.4337643" lon="10.649997"><ele>244.0</ele><time>2026-04-19T08:44:05.009Z</time></trkpt><trkpt lat="44.4336442" lon="10.6499103"><ele>244.0</ele><time>2026-04-19T08:44:06.008Z</time></trkpt><trkpt lat="44.4335154" lon="10.6498196"><ele>244.0</ele><time>2026-04-19T08:44:07.009Z</time></trkpt><trkpt lat="44.4333773" lon="10.6497334"><ele>244.0</ele><time>2026-04-19T08:44:08.008Z</time></trkpt><trkpt lat="44.4332361" lon="10.6496433"><ele>244.0</ele><time>2026-04-19T08:44:09.008Z</time></trkpt><trkpt lat="44.4330967" lon="10.6495487"><ele>243.5</ele><time>2026-04-19T08:44:10.009Z</time></trkpt><trkpt lat="44.4329682" lon="10.6494579"><ele>243.0</ele><time>2026-04-19T08:44:11.009Z</time></trkpt><trkpt lat="44.4328425" lon="10.6493734"><ele>242.5</ele><time>2026-04-19T08:44:12.008Z</time></trkpt><trkpt lat="44.4327183" lon="10.6492881"><ele>242.0</ele><time>2026-04-19T08:44:13.009Z</time></trkpt><trkpt lat="44.4325917" lon="10.6491965"><ele>242.0</ele><time>2026-04-19T08:44:14.007Z</time></trkpt><trkpt lat="44.4324697" lon="10.6491031"><ele>242.0</ele><time>2026-04-19T08:44:15.007Z</time></trkpt><trkpt lat="44.4323581" lon="10.6490101"><ele>242.0</ele><time>2026-04-19T08:44:16.009Z</time></trkpt><trkpt lat="44.4322497" lon="10.6489151"><ele>242.0</ele><time>2026-04-19T08:44:17.008Z</time></trkpt><trkpt lat="44.4321367" lon="10.6488132"><ele>242.75</ele><time>2026-04-19T08:44:18.008Z</time></trkpt><trkpt lat="44.4320206" lon="10.6487033"><ele>243.5</ele><time>2026-04-19T08:44:19.009Z</time></trkpt><trkpt lat="44.4319088" lon="10.6485935"><ele>244.25</ele><time>2026-04-19T08:44:20.008Z</time></trkpt><trkpt lat="44.431803" lon="10.6484852"><ele>245.0</ele><time>2026-04-19T08:44:21.009Z</time></trkpt><trkpt lat="44.431693" lon="10.6483661"><ele>245.0</ele><time>2026-04-19T08:44:22.008Z</time></trkpt><trkpt lat="44.4315891" lon="10.6482455"><ele>245.0</ele><time>2026-04-19T08:44:23.008Z</time></trkpt><trkpt lat="44.4314929" lon="10.6481269"><ele>245.0</ele><time>2026-04-19T08:44:24.007Z</time></trkpt><trkpt lat="44.4314006" lon="10.6480055"><ele>245.0</ele><time>2026-04-19T08:44:25.009Z</time></trkpt><trkpt lat="44.4313085" lon="10.6478813"><ele>245.5</ele><time>2026-04-19T08:44:26.008Z</time></trkpt><trkpt lat="44.4312172" lon="10.6477555"><ele>246.0</ele><time>2026-04-19T08:44:27.008Z</time></trkpt><trkpt lat="44.4311246" lon="10.647625"><ele>246.5</ele><time>2026-04-19T08:44:28.009Z</time></trkpt><trkpt lat="44.4310321" lon="10.64749"><ele>247.0</ele><time>2026-04-19T08:44:29.009Z</time></trkpt><trkpt lat="44.4309387" lon="10.6473513"><ele>247.0</ele><time>2026-04-19T08:44:30.009Z</time></trkpt><trkpt lat="44.4308427" lon="10.6472045"><ele>247.0</ele><time>2026-04-19T08:44:31.009Z</time></trkpt><trkpt lat="44.4307423" lon="10.6470491"><ele>247.0</ele><time>2026-04-19T08:44:32.008Z</time></trkpt><trkpt lat="44.4306347" lon="10.646878"><ele>247.0</ele><time>2026-04-19T08:44:33.009Z</time></trkpt><trkpt lat="44.4305177" lon="10.64669"><ele>247.0</ele><time>2026-04-19T08:44:34.007Z</time></trkpt><trkpt lat="44.4303912" lon="10.6464763"><ele>247.0</ele><time>2026-04-19T08:44:35.008Z</time></trkpt><trkpt lat="44.4302585" lon="10.6462356"><ele>247.5</ele><time>2026-04-19T08:44:36.008Z</time></trkpt><trkpt lat="44.4301257" lon="10.6459848"><ele>248.0</ele><time>2026-04-19T08:44:37.008Z</time></trkpt><trkpt lat="44.4299796" lon="10.6457064"><ele>248.0</ele><time>2026-04-19T08:44:38.008Z</time></trkpt><trkpt lat="44.4298265" lon="10.6454175"><ele>248.0</ele><time>2026-04-19T08:44:39.008Z</time></trkpt><trkpt lat="44.4296741" lon="10.6451272"><ele>246.5</ele><time>2026-04-19T08:44:40.009Z</time></trkpt><trkpt lat="44.4295144" lon="10.644826"><ele>245.0</ele><time>2026-04-19T08:44:41.008Z</time></trkpt><trkpt lat="44.4293553" lon="10.6445166"><ele>246.0</ele><time>2026-04-19T08:44:42.009Z</time></trkpt><trkpt lat="44.4291944" lon="10.6442048"><ele>247.0</ele><time>2026-04-19T08:44:43.009Z</time></trkpt><trkpt lat="44.4290318" lon="10.6438875"><ele>246.5</ele><time>2026-04-19T08:44:44.01Z</time></trkpt><trkpt lat="44.4288686" lon="10.6435657"><ele>246.0</ele><time>2026-04-19T08:44:45.01Z</time></trkpt><trkpt lat="44.4287092" lon="10.643252"><ele>245.5</ele><time>2026-04-19T08:44:46.01Z</time></trkpt><trkpt lat="44.4285553" lon="10.6429511"><ele>245.0</ele><time>2026-04-19T08:44:47.009Z</time></trkpt><trkpt lat="44.4284002" lon="10.6426461"><ele>245.0</ele><time>2026-04-19T08:44:48.009Z</time></trkpt><trkpt lat="44.4282352" lon="10.6423397"><ele>245.0</ele><time>2026-04-19T08:44:49.009Z</time></trkpt><trkpt lat="44.4280778" lon="10.6420368"><ele>247.5</ele><time>2026-04-19T08:44:50.01Z</time></trkpt><trkpt lat="44.4279135" lon="10.641748"><ele>250.0</ele><time>2026-04-19T08:44:51.009Z</time></trkpt><trkpt lat="44.4277554" lon="10.6414457"><ele>250.0</ele><time>2026-04-19T08:44:52.008Z</time></trkpt><trkpt lat="44.4275964" lon="10.6411357"><ele>250.0</ele><time>2026-04-19T08:44:53.009Z</time></trkpt><trkpt lat="44.4274327" lon="10.6408115"><ele>249.5</ele><time>2026-04-19T08:44:54.009Z</time></trkpt><trkpt lat="44.4272744" lon="10.64049"><ele>249.0</ele><time>2026-04-19T08:44:55.009Z</time></trkpt><trkpt lat="44.427113" lon="10.6401758"><ele>251.0</ele><time>2026-04-19T08:44:56.008Z</time></trkpt><trkpt lat="44.4269534" lon="10.6398676"><ele>253.0</ele><time>2026-04-19T08:44:57.01Z</time></trkpt><trkpt lat="44.4267905" lon="10.6395659"><ele>252.0</ele><time>2026-04-19T08:44:58.009Z</time></trkpt><trkpt lat="44.4266258" lon="10.6392688"><ele>251.0</ele><time>2026-04-19T08:44:59.009Z</time></trkpt><trkpt lat="44.426459" lon="10.6389731"><ele>252.5</ele><time>2026-04-19T08:45:00.008Z</time></trkpt><trkpt lat="44.4262885" lon="10.6386697"><ele>254.0</ele><time>2026-04-19T08:45:01.009Z</time></trkpt><trkpt lat="44.4261145" lon="10.6383799"><ele>254.0</ele><time>2026-04-19T08:45:02.008Z</time></trkpt><trkpt lat="44.4259404" lon="10.6380886"><ele>254.0</ele><time>2026-04-19T08:45:03.01Z</time></trkpt><trkpt lat="44.4257679" lon="10.6378051"><ele>253.5</ele><time>2026-04-19T08:45:04.009Z</time></trkpt><trkpt lat="44.4255929" lon="10.6375229"><ele>253.0</ele><time>2026-04-19T08:45:05.009Z</time></trkpt><trkpt lat="44.4254126" lon="10.637235"><ele>254.5</ele><time>2026-04-19T08:45:06.008Z</time></trkpt><trkpt lat="44.4252313" lon="10.6369585"><ele>256.0</ele><time>2026-04-19T08:45:07.01Z</time></trkpt><trkpt lat="44.4250591" lon="10.6366976"><ele>256.0</ele><time>2026-04-19T08:45:08.009Z</time></trkpt><trkpt lat="44.4248935" lon="10.6364453"><ele>256.0</ele><time>2026-04-19T08:45:09.008Z</time></trkpt><trkpt lat="44.4247323" lon="10.6362064"><ele>256.5</ele><time>2026-04-19T08:45:10.009Z</time></trkpt><trkpt lat="44.4245677" lon="10.6359661"><ele>257.0</ele><time>2026-04-19T08:45:11.007Z</time></trkpt><trkpt lat="44.4244023" lon="10.6357207"><ele>257.0</ele><time>2026-04-19T08:45:12.009Z</time></trkpt><trkpt lat="44.4242372" lon="10.6354833"><ele>257.0</ele><time>2026-04-19T08:45:13.008Z</time></trkpt><trkpt lat="44.4240669" lon="10.635243"><ele>256.5</ele><time>2026-04-19T08:45:14.009Z</time></trkpt><trkpt lat="44.423899" lon="10.6350019"><ele>256.0</ele><time>2026-04-19T08:45:15.009Z</time></trkpt><trkpt lat="44.4237302" lon="10.6347648"><ele>256.0</ele><time>2026-04-19T08:45:16.008Z</time></trkpt><trkpt lat="44.4235572" lon="10.6345285"><ele>256.0</ele><time>2026-04-19T08:45:17.007Z</time></trkpt><trkpt lat="44.4233892" lon="10.6342974"><ele>257.0</ele><time>2026-04-19T08:45:18.01Z</time></trkpt><trkpt lat="44.4232225" lon="10.6340669"><ele>258.0</ele><time>2026-04-19T08:45:19.01Z</time></trkpt><trkpt lat="44.4230566" lon="10.6338363"><ele>259.0</ele><time>2026-04-19T08:45:20.008Z</time></trkpt><trkpt lat="44.4228899" lon="10.633607"><ele>260.0</ele><time>2026-04-19T08:45:21.008Z</time></trkpt><trkpt lat="44.4227285" lon="10.6333813"><ele>260.0</ele><time>2026-04-19T08:45:22.009Z</time></trkpt><trkpt lat="44.4225665" lon="10.6331547"><ele>260.0</ele><time>2026-04-19T08:45:23.009Z</time></trkpt><trkpt lat="44.4223985" lon="10.6329227"><ele>259.0</ele><time>2026-04-19T08:45:24.01Z</time></trkpt><trkpt lat="44.4222284" lon="10.6326911"><ele>258.0</ele><time>2026-04-19T08:45:25.01Z</time></trkpt><trkpt lat="44.4220532" lon="10.6324638"><ele>258.0</ele><time>2026-04-19T08:45:26.008Z</time></trkpt><trkpt lat="44.4218692" lon="10.632225"><ele>258.0</ele><time>2026-04-19T08:45:27.008Z</time></trkpt><trkpt lat="44.4216871" lon="10.6319951"><ele>260.0</ele><time>2026-04-19T08:45:28.009Z</time></trkpt><trkpt lat="44.4215082" lon="10.6317659"><ele>262.0</ele><time>2026-04-19T08:45:29.009Z</time></trkpt><trkpt lat="44.4213297" lon="10.6315444"><ele>261.0</ele><time>2026-04-19T08:45:30.009Z</time></trkpt><trkpt lat="44.4211492" lon="10.631325"><ele>260.0</ele><time>2026-04-19T08:45:31.009Z</time></trkpt><trkpt lat="44.420967" lon="10.6311071"><ele>260.0</ele><time>2026-04-19T08:45:32.01Z</time></trkpt><trkpt lat="44.4207814" lon="10.6308946"><ele>260.0</ele><time>2026-04-19T08:45:33.01Z</time></trkpt><trkpt lat="44.4205952" lon="10.6306911"><ele>259.5</ele><time>2026-04-19T08:45:34.008Z</time></trkpt><trkpt lat="44.4204094" lon="10.6304863"><ele>259.0</ele><time>2026-04-19T08:45:35.008Z</time></trkpt><trkpt lat="44.4202229" lon="10.630288"><ele>260.0</ele><time>2026-04-19T08:45:36.009Z</time></trkpt><trkpt lat="44.4200363" lon="10.6300908"><ele>261.0</ele><time>2026-04-19T08:45:37.01Z</time></trkpt><trkpt lat="44.4198468" lon="10.6298996"><ele>261.0</ele><time>2026-04-19T08:45:38.007Z</time></trkpt><trkpt lat="44.4196604" lon="10.6297189"><ele>261.0</ele><time>2026-04-19T08:45:39.009Z</time></trkpt><trkpt lat="44.419475" lon="10.6295441"><ele>261.0</ele><time>2026-04-19T08:45:40.009Z</time></trkpt><trkpt lat="44.4192838" lon="10.6293735"><ele>261.0</ele><time>2026-04-19T08:45:41.008Z</time></trkpt><trkpt lat="44.4190929" lon="10.62921"><ele>261.0</ele><time>2026-04-19T08:45:42.009Z</time></trkpt><trkpt lat="44.4188959" lon="10.6290538"><ele>261.0</ele><time>2026-04-19T08:45:43.007Z</time></trkpt><trkpt lat="44.418696" lon="10.6288976"><ele>260.0</ele><time>2026-04-19T08:45:44.009Z</time></trkpt><trkpt lat="44.4184884" lon="10.6287503"><ele>259.0</ele><time>2026-04-19T08:45:45.009Z</time></trkpt><trkpt lat="44.4182754" lon="10.6286052"><ele>260.0</ele><time>2026-04-19T08:45:46.01Z</time></trkpt><trkpt lat="44.418059" lon="10.6284644"><ele>261.0</ele><time>2026-04-19T08:45:47.009Z</time></trkpt><trkpt lat="44.4178377" lon="10.6283319"><ele>261.0</ele><time>2026-04-19T08:45:48.009Z</time></trkpt><trkpt lat="44.4176169" lon="10.6282068"><ele>261.0</ele><time>2026-04-19T08:45:49.008Z</time></trkpt><trkpt lat="44.4173956" lon="10.6280861"><ele>261.0</ele><time>2026-04-19T08:45:50.009Z</time></trkpt><trkpt lat="44.4171702" lon="10.6279749"><ele>261.0</ele><time>2026-04-19T08:45:51.01Z</time></trkpt><trkpt lat="44.4169461" lon="10.6278718"><ele>263.0</ele><time>2026-04-19T08:45:52.009Z</time></trkpt><trkpt lat="44.4167203" lon="10.6277792"><ele>265.0</ele><time>2026-04-19T08:45:53.009Z</time></trkpt><trkpt lat="44.4164915" lon="10.6276992"><ele>265.0</ele><time>2026-04-19T08:45:54.008Z</time></trkpt><trkpt lat="44.4162619" lon="10.6276315"><ele>265.0</ele><time>2026-04-19T08:45:55.008Z</time></trkpt><trkpt lat="44.4160321" lon="10.6275728"><ele>265.0</ele><time>2026-04-19T08:45:56.008Z</time></trkpt><trkpt lat="44.4158041" lon="10.6275261"><ele>265.0</ele><time>2026-04-19T08:45:57.009Z</time></trkpt><trkpt lat="44.4155846" lon="10.6274904"><ele>265.0</ele><time>2026-04-19T08:45:58.009Z</time></trkpt><trkpt lat="44.4153668" lon="10.6274683"><ele>265.0</ele><time>2026-04-19T08:45:59.009Z</time></trkpt><trkpt lat="44.4151522" lon="10.6274474"><ele>265.0</ele><time>2026-04-19T08:46:00.01Z</time></trkpt><trkpt lat="44.4149406" lon="10.6274342"><ele>265.0</ele><time>2026-04-19T08:46:01.009Z</time></trkpt><trkpt lat="44.4147286" lon="10.6274215"><ele>265.0</ele><time>2026-04-19T08:46:02.01Z</time></trkpt><trkpt lat="44.4145224" lon="10.627415"><ele>265.0</ele><time>2026-04-19T08:46:03.009Z</time></trkpt><trkpt lat="44.4143197" lon="10.6274036"><ele>266.0</ele><time>2026-04-19T08:46:04.01Z</time></trkpt><trkpt lat="44.4141138" lon="10.627401"><ele>267.0</ele><time>2026-04-19T08:46:05.008Z</time></trkpt><trkpt lat="44.4139106" lon="10.6273881"><ele>268.0</ele><time>2026-04-19T08:46:06.01Z</time></trkpt><trkpt lat="44.413709" lon="10.6273808"><ele>268.3333333333333</ele><time>2026-04-19T08:46:07.009Z</time></trkpt><trkpt lat="44.4135059" lon="10.6273695"><ele>268.6666666666667</ele><time>2026-04-19T08:46:08.009Z</time></trkpt><trkpt lat="44.4133025" lon="10.6273495"><ele>269.0</ele><time>2026-04-19T08:46:09.009Z</time></trkpt><trkpt lat="44.4131005" lon="10.6273271"><ele>270.0</ele><time>2026-04-19T08:46:10.009Z</time></trkpt><trkpt lat="44.4128918" lon="10.6273022"><ele>271.0</ele><time>2026-04-19T08:46:11.008Z</time></trkpt><trkpt lat="44.4126762" lon="10.6272614"><ele>272.0</ele><time>2026-04-19T08:46:12.008Z</time></trkpt><trkpt lat="44.4124595" lon="10.6272038"><ele>272.0</ele><time>2026-04-19T08:46:13.008Z</time></trkpt><trkpt lat="44.4122396" lon="10.6271394"><ele>272.0</ele><time>2026-04-19T08:46:14.008Z</time></trkpt><trkpt lat="44.4120227" lon="10.6270622"><ele>272.0</ele><time>2026-04-19T08:46:15.009Z</time></trkpt><trkpt lat="44.411806" lon="10.6269767"><ele>271.6666666666667</ele><time>2026-04-19T08:46:16.009Z</time></trkpt><trkpt lat="44.4115975" lon="10.6268778"><ele>271.3333333333333</ele><time>2026-04-19T08:46:17.008Z</time></trkpt><trkpt lat="44.4113981" lon="10.6267767"><ele>271.0</ele><time>2026-04-19T08:46:18.011Z</time></trkpt><trkpt lat="44.4112052" lon="10.6266615"><ele>271.0</ele><time>2026-04-19T08:46:19.01Z</time></trkpt><trkpt lat="44.4110202" lon="10.6265382"><ele>271.0</ele><time>2026-04-19T08:46:20.01Z</time></trkpt><trkpt lat="44.4108379" lon="10.626404"><ele>271.0</ele><time>2026-04-19T08:46:21.009Z</time></trkpt><trkpt lat="44.4106579" lon="10.6262607"><ele>272.66666666666663</ele><time>2026-04-19T08:46:22.009Z</time></trkpt><trkpt lat="44.4104779" lon="10.6260992"><ele>274.3333333333333</ele><time>2026-04-19T08:46:23.009Z</time></trkpt><trkpt lat="44.4102994" lon="10.6259292"><ele>276.0</ele><time>2026-04-19T08:46:24.008Z</time></trkpt><trkpt lat="44.4101279" lon="10.6257555"><ele>276.0</ele><time>2026-04-19T08:46:25.01Z</time></trkpt><trkpt lat="44.4099625" lon="10.6255688"><ele>276.0</ele><time>2026-04-19T08:46:26.01Z</time></trkpt><trkpt lat="44.4098002" lon="10.6253668"><ele>276.0</ele><time>2026-04-19T08:46:27.009Z</time></trkpt><trkpt lat="44.4096415" lon="10.6251566"><ele>277.0</ele><time>2026-04-19T08:46:28.009Z</time></trkpt><trkpt lat="44.4094823" lon="10.6249322"><ele>278.0</ele><time>2026-04-19T08:46:29.009Z</time></trkpt><trkpt lat="44.4093224" lon="10.6246913"><ele>277.33333333333337</ele><time>2026-04-19T08:46:30.009Z</time></trkpt><trkpt lat="44.4091779" lon="10.624456"><ele>276.6666666666667</ele><time>2026-04-19T08:46:31.009Z</time></trkpt><trkpt lat="44.4090416" lon="10.6242234"><ele>276.0</ele><time>2026-04-19T08:46:32.009Z</time></trkpt><trkpt lat="44.4089097" lon="10.6239931"><ele>276.3333333333333</ele><time>2026-04-19T08:46:33.009Z</time></trkpt><trkpt lat="44.4087841" lon="10.6237629"><ele>276.66666666666663</ele><time>2026-04-19T08:46:34.009Z</time></trkpt><trkpt lat="44.4086665" lon="10.6235339"><ele>277.0</ele><time>2026-04-19T08:46:35.008Z</time></trkpt><trkpt lat="44.4085434" lon="10.6232927"><ele>277.0</ele><time>2026-04-19T08:46:36.01Z</time></trkpt><trkpt lat="44.4084264" lon="10.6230439"><ele>277.0</ele><time>2026-04-19T08:46:37.01Z</time></trkpt><trkpt lat="44.4083068" lon="10.6227883"><ele>277.0</ele><time>2026-04-19T08:46:38.009Z</time></trkpt><trkpt lat="44.4081954" lon="10.6225273"><ele>276.66666666666663</ele><time>2026-04-19T08:46:39.009Z</time></trkpt><trkpt lat="44.4080902" lon="10.622261"><ele>276.3333333333333</ele><time>2026-04-19T08:46:40.009Z</time></trkpt><trkpt lat="44.4079898" lon="10.6219919"><ele>276.0</ele><time>2026-04-19T08:46:41.01Z</time></trkpt><trkpt lat="44.4079016" lon="10.6217143"><ele>276.0</ele><time>2026-04-19T08:46:42.009Z</time></trkpt><trkpt lat="44.407817" lon="10.6214319"><ele>276.0</ele><time>2026-04-19T08:46:43.008Z</time></trkpt><trkpt lat="44.4077415" lon="10.6211437"><ele>276.0</ele><time>2026-04-19T08:46:44.008Z</time></trkpt><trkpt lat="44.4076715" lon="10.6208596"><ele>276.6666666666667</ele><time>2026-04-19T08:46:45.009Z</time></trkpt><trkpt lat="44.4076097" lon="10.6205671"><ele>277.33333333333337</ele><time>2026-04-19T08:46:46.009Z</time></trkpt><trkpt lat="44.4075526" lon="10.6202761"><ele>278.0</ele><time>2026-04-19T08:46:47.008Z</time></trkpt><trkpt lat="44.4074978" lon="10.61999"><ele>278.6666666666667</ele><time>2026-04-19T08:46:48.009Z</time></trkpt><trkpt lat="44.407447" lon="10.6196997"><ele>279.3333333333333</ele><time>2026-04-19T08:46:49.009Z</time></trkpt><trkpt lat="44.4074017" lon="10.6194156"><ele>280.0</ele><time>2026-04-19T08:46:50.009Z</time></trkpt><trkpt lat="44.4073531" lon="10.619137"><ele>281.3333333333333</ele><time>2026-04-19T08:46:51.009Z</time></trkpt><trkpt lat="44.4073119" lon="10.6188748"><ele>282.6666666666667</ele><time>2026-04-19T08:46:52.01Z</time></trkpt><trkpt lat="44.4072662" lon="10.6186213"><ele>284.0</ele><time>2026-04-19T08:46:53.009Z</time></trkpt><trkpt lat="44.4072295" lon="10.6183755"><ele>284.0</ele><time>2026-04-19T08:46:54.009Z</time></trkpt><trkpt lat="44.4071956" lon="10.6181384"><ele>284.0</ele><time>2026-04-19T08:46:55.008Z</time></trkpt><trkpt lat="44.407159" lon="10.6179151"><ele>284.0</ele><time>2026-04-19T08:46:56.01Z</time></trkpt><trkpt lat="44.4071206" lon="10.6176856"><ele>284.0</ele><time>2026-04-19T08:46:57.009Z</time></trkpt><trkpt lat="44.4070827" lon="10.6174654"><ele>284.0</ele><time>2026-04-19T08:46:58.008Z</time></trkpt><trkpt lat="44.4070445" lon="10.617262"><ele>284.0</ele><time>2026-04-19T08:46:59.008Z</time></trkpt><trkpt lat="44.4070047" lon="10.6170637"><ele>285.0</ele><time>2026-04-19T08:47:00.008Z</time></trkpt><trkpt lat="44.4069721" lon="10.6168672"><ele>286.0</ele><time>2026-04-19T08:47:01.01Z</time></trkpt><trkpt lat="44.4069459" lon="10.616688"><ele>287.0</ele><time>2026-04-19T08:47:02.009Z</time></trkpt><trkpt lat="44.4069279" lon="10.6165042"><ele>288.0</ele><time>2026-04-19T08:47:03.009Z</time></trkpt><trkpt lat="44.4069187" lon="10.6163413"><ele>288.0</ele><time>2026-04-19T08:47:04.01Z</time></trkpt><trkpt lat="44.4069184" lon="10.6161917"><ele>288.0</ele><time>2026-04-19T08:47:05.009Z</time></trkpt><trkpt lat="44.4069271" lon="10.6160483"><ele>288.0</ele><time>2026-04-19T08:47:06.009Z</time></trkpt><trkpt lat="44.4069433" lon="10.6159408"><ele>288.0</ele><time>2026-04-19T08:47:07.008Z</time></trkpt><trkpt lat="44.4069587" lon="10.6158403"><ele>288.0</ele><time>2026-04-19T08:47:08.009Z</time></trkpt><trkpt lat="44.4069804" lon="10.6157492"><ele>288.0</ele><time>2026-04-19T08:47:09.01Z</time></trkpt><trkpt lat="44.4070248" lon="10.6156574"><ele>287.8</ele><time>2026-04-19T08:47:10.009Z</time></trkpt><trkpt lat="44.4070721" lon="10.615565"><ele>287.6</ele><time>2026-04-19T08:47:11.008Z</time></trkpt><trkpt lat="44.4071558" lon="10.6154683"><ele>287.4</ele><time>2026-04-19T08:47:12.009Z</time></trkpt><trkpt lat="44.4072492" lon="10.6153794"><ele>287.2</ele><time>2026-04-19T08:47:13.008Z</time></trkpt><trkpt lat="44.4073488" lon="10.6152757"><ele>287.0</ele><time>2026-04-19T08:47:14.009Z</time></trkpt><trkpt lat="44.4074598" lon="10.6151595"><ele>288.33333333333337</ele><time>2026-04-19T08:47:15.007Z</time></trkpt><trkpt lat="44.4075883" lon="10.615028"><ele>289.6666666666667</ele><time>2026-04-19T08:47:16.008Z</time></trkpt><trkpt lat="44.4077175" lon="10.6148977"><ele>291.0</ele><time>2026-04-19T08:47:17.01Z</time></trkpt><trkpt lat="44.4078539" lon="10.6147663"><ele>294.0</ele><time>2026-04-19T08:47:18.008Z</time></trkpt><trkpt lat="44.4079939" lon="10.6146318"><ele>297.0</ele><time>2026-04-19T08:47:19.01Z</time></trkpt><trkpt lat="44.408132" lon="10.6144923"><ele>300.0</ele><time>2026-04-19T08:47:20.009Z</time></trkpt><trkpt lat="44.4082703" lon="10.6143596"><ele>300.0</ele><time>2026-04-19T08:47:21.008Z</time></trkpt><trkpt lat="44.4083943" lon="10.6142214"><ele>300.0</ele><time>2026-04-19T08:47:22.009Z</time></trkpt><trkpt lat="44.4085127" lon="10.6140757"><ele>300.0</ele><time>2026-04-19T08:47:23.009Z</time></trkpt><trkpt lat="44.4085882" lon="10.6138809"><ele>300.0</ele><time>2026-04-19T08:47:24.009Z</time></trkpt><trkpt lat="44.4086557" lon="10.6136748"><ele>300.0</ele><time>2026-04-19T08:47:25.009Z</time></trkpt><trkpt lat="44.4086989" lon="10.6134405"><ele>300.0</ele><time>2026-04-19T08:47:26.009Z</time></trkpt><trkpt lat="44.4087141" lon="10.6131909"><ele>300.0</ele><time>2026-04-19T08:47:27.008Z</time></trkpt><trkpt lat="44.4087005" lon="10.6129157"><ele>300.0</ele><time>2026-04-19T08:47:28.009Z</time></trkpt><trkpt lat="44.4086763" lon="10.6126252"><ele>300.0</ele><time>2026-04-19T08:47:29.009Z</time></trkpt><trkpt lat="44.4086439" lon="10.6123143"><ele>300.0</ele><time>2026-04-19T08:47:30.008Z</time></trkpt><trkpt lat="44.4086137" lon="10.6120055"><ele>300.0</ele><time>2026-04-19T08:47:31.009Z</time></trkpt><trkpt lat="44.4085821" lon="10.6116947"><ele>300.0</ele><time>2026-04-19T08:47:32.009Z</time></trkpt><trkpt lat="44.4085479" lon="10.6113848"><ele>303.6666666666667</ele><time>2026-04-19T08:47:33.008Z</time></trkpt><trkpt lat="44.4085151" lon="10.6110736"><ele>307.33333333333337</ele><time>2026-04-19T08:47:34.008Z</time></trkpt><trkpt lat="44.4084824" lon="10.6107808"><ele>311.0</ele><time>2026-04-19T08:47:35.007Z</time></trkpt><trkpt lat="44.4084504" lon="10.6105028"><ele>315.0</ele><time>2026-04-19T08:47:36.009Z</time></trkpt><trkpt lat="44.4083861" lon="10.6102332"><ele>319.0</ele><time>2026-04-19T08:47:37.01Z</time></trkpt><trkpt lat="44.4083005" lon="10.6099594"><ele>323.0</ele><time>2026-04-19T08:47:38.01Z</time></trkpt><trkpt lat="44.4082022" lon="10.6097151"><ele>323.0</ele><time>2026-04-19T08:47:39.009Z</time></trkpt><trkpt lat="44.4080989" lon="10.6094974"><ele>323.0</ele><time>2026-04-19T08:47:40.009Z</time></trkpt><trkpt lat="44.4080021" lon="10.609301"><ele>323.0</ele><time>2026-04-19T08:47:41.008Z</time></trkpt><trkpt lat="44.4079177" lon="10.6091046"><ele>320.33333333333337</ele><time>2026-04-19T08:47:42.009Z</time></trkpt><trkpt lat="44.4078605" lon="10.6088977"><ele>317.6666666666667</ele><time>2026-04-19T08:47:43.009Z</time></trkpt><trkpt lat="44.4078233" lon="10.6086828"><ele>315.0</ele><time>2026-04-19T08:47:44.009Z</time></trkpt><trkpt lat="44.4078643" lon="10.6084512"><ele>315.0</ele><time>2026-04-19T08:47:45.008Z</time></trkpt><trkpt lat="44.407919" lon="10.6082262"><ele>315.0</ele><time>2026-04-19T08:47:46.009Z</time></trkpt><trkpt lat="44.4080134" lon="10.608033"><ele>315.0</ele><time>2026-04-19T08:47:47.008Z</time></trkpt><trkpt lat="44.408145" lon="10.6078704"><ele>318.0</ele><time>2026-04-19T08:47:48.009Z</time></trkpt><trkpt lat="44.4082998" lon="10.6077328"><ele>321.0</ele><time>2026-04-19T08:47:49.008Z</time></trkpt><trkpt lat="44.4084531" lon="10.6076033"><ele>324.0</ele><time>2026-04-19T08:47:50.008Z</time></trkpt><trkpt lat="44.4085843" lon="10.6074582"><ele>324.0</ele><time>2026-04-19T08:47:51.01Z</time></trkpt><trkpt lat="44.4086896" lon="10.6072791"><ele>324.0</ele><time>2026-04-19T08:47:52.009Z</time></trkpt><trkpt lat="44.4087623" lon="10.6070737"><ele>324.0</ele><time>2026-04-19T08:47:53.009Z</time></trkpt><trkpt lat="44.4087996" lon="10.6068455"><ele>324.3333333333333</ele><time>2026-04-19T08:47:54.009Z</time></trkpt><trkpt lat="44.4088018" lon="10.6065966"><ele>324.66666666666663</ele><time>2026-04-19T08:47:55.009Z</time></trkpt><trkpt lat="44.4087749" lon="10.6063344"><ele>325.0</ele><time>2026-04-19T08:47:56.007Z</time></trkpt><trkpt lat="44.4087268" lon="10.6060599"><ele>325.0</ele><time>2026-04-19T08:47:57.009Z</time></trkpt><trkpt lat="44.408676" lon="10.6057965"><ele>325.0</ele><time>2026-04-19T08:47:58.009Z</time></trkpt><trkpt lat="44.4086431" lon="10.6055483"><ele>325.0</ele><time>2026-04-19T08:47:59.008Z</time></trkpt><trkpt lat="44.4086252" lon="10.6053111"><ele>325.3333333333333</ele><time>2026-04-19T08:48:00.008Z</time></trkpt><trkpt lat="44.4086287" lon="10.6050821"><ele>325.6666666666667</ele><time>2026-04-19T08:48:01.009Z</time></trkpt><trkpt lat="44.4086503" lon="10.6048537"><ele>326.0</ele><time>2026-04-19T08:48:02.009Z</time></trkpt><trkpt lat="44.4087288" lon="10.6046321"><ele>323.6666666666667</ele><time>2026-04-19T08:48:03.01Z</time></trkpt><trkpt lat="44.4088124" lon="10.6044207"><ele>321.3333333333333</ele><time>2026-04-19T08:48:04.008Z</time></trkpt><trkpt lat="44.4089682" lon="10.6042244"><ele>319.0</ele><time>2026-04-19T08:48:05.01Z</time></trkpt><trkpt lat="44.4091279" lon="10.6040343"><ele>324.0</ele><time>2026-04-19T08:48:06.009Z</time></trkpt><trkpt lat="44.409312" lon="10.6038479"><ele>329.0</ele><time>2026-04-19T08:48:07.01Z</time></trkpt><trkpt lat="44.4094926" lon="10.6036631"><ele>334.33333333333337</ele><time>2026-04-19T08:48:08.01Z</time></trkpt><trkpt lat="44.4096764" lon="10.6034828"><ele>339.6666666666667</ele><time>2026-04-19T08:48:09.008Z</time></trkpt><trkpt lat="44.4098496" lon="10.6033101"><ele>345.0</ele><time>2026-04-19T08:48:10.009Z</time></trkpt><trkpt lat="44.4100108" lon="10.6031443"><ele>345.0</ele><time>2026-04-19T08:48:11.009Z</time></trkpt><trkpt lat="44.4101561" lon="10.6029745"><ele>345.0</ele><time>2026-04-19T08:48:12.009Z</time></trkpt><trkpt lat="44.4102808" lon="10.60279"><ele>345.0</ele><time>2026-04-19T08:48:13.009Z</time></trkpt><trkpt lat="44.4103848" lon="10.6025725"><ele>341.0</ele><time>2026-04-19T08:48:14.008Z</time></trkpt><trkpt lat="44.4104603" lon="10.6023203"><ele>337.0</ele><time>2026-04-19T08:48:15.009Z</time></trkpt><trkpt lat="44.4105036" lon="10.6020449"><ele>333.0</ele><time>2026-04-19T08:48:16.009Z</time></trkpt><trkpt lat="44.410509" lon="10.6017425"><ele>333.5</ele><time>2026-04-19T08:48:17.008Z</time></trkpt><trkpt lat="44.4104797" lon="10.6014286"><ele>334.0</ele><time>2026-04-19T08:48:18.009Z</time></trkpt><trkpt lat="44.4104251" lon="10.6010965"><ele>334.0</ele><time>2026-04-19T08:48:19.01Z</time></trkpt><trkpt lat="44.4103678" lon="10.6007665"><ele>334.0</ele><time>2026-04-19T08:48:20.009Z</time></trkpt><trkpt lat="44.4103079" lon="10.60046"><ele>335.66666666666663</ele><time>2026-04-19T08:48:21.009Z</time></trkpt><trkpt lat="44.4102485" lon="10.6001641"><ele>337.3333333333333</ele><time>2026-04-19T08:48:22.009Z</time></trkpt><trkpt lat="44.4102046" lon="10.5998735"><ele>339.0</ele><time>2026-04-19T08:48:23.009Z</time></trkpt><trkpt lat="44.4101863" lon="10.5995782"><ele>339.6666666666667</ele><time>2026-04-19T08:48:24.008Z</time></trkpt><trkpt lat="44.4101908" lon="10.5992912"><ele>340.33333333333337</ele><time>2026-04-19T08:48:25.009Z</time></trkpt><trkpt lat="44.4102219" lon="10.599021"><ele>341.0</ele><time>2026-04-19T08:48:26.009Z</time></trkpt><trkpt lat="44.4102768" lon="10.5987579"><ele>339.0</ele><time>2026-04-19T08:48:27.009Z</time></trkpt><trkpt lat="44.4103619" lon="10.5985005"><ele>337.0</ele><time>2026-04-19T08:48:28.009Z</time></trkpt><trkpt lat="44.4104713" lon="10.5982395"><ele>335.0</ele><time>2026-04-19T08:48:29.008Z</time></trkpt><trkpt lat="44.4105908" lon="10.59799"><ele>339.0</ele><time>2026-04-19T08:48:30.009Z</time></trkpt><trkpt lat="44.4107507" lon="10.5977612"><ele>343.0</ele><time>2026-04-19T08:48:31.007Z</time></trkpt><trkpt lat="44.4109246" lon="10.5975198"><ele>343.0</ele><time>2026-04-19T08:48:32.008Z</time></trkpt><trkpt lat="44.4111132" lon="10.5972763"><ele>343.0</ele><time>2026-04-19T08:48:33.011Z</time></trkpt><trkpt lat="44.4112959" lon="10.5970455"><ele>343.5</ele><time>2026-04-19T08:48:34.01Z</time></trkpt><trkpt lat="44.4114693" lon="10.5968172"><ele>344.0</ele><time>2026-04-19T08:48:35.008Z</time></trkpt><trkpt lat="44.4116369" lon="10.5966013"><ele>344.0</ele><time>2026-04-19T08:48:36.008Z</time></trkpt><trkpt lat="44.4117989" lon="10.5963958"><ele>344.0</ele><time>2026-04-19T08:48:37.01Z</time></trkpt><trkpt lat="44.4119357" lon="10.5962051"><ele>344.0</ele><time>2026-04-19T08:48:38.008Z</time></trkpt><trkpt lat="44.4120539" lon="10.5960177"><ele>345.6666666666667</ele><time>2026-04-19T08:48:39.008Z</time></trkpt><trkpt lat="44.4121416" lon="10.5958215"><ele>347.3333333333333</ele><time>2026-04-19T08:48:40.009Z</time></trkpt><trkpt lat="44.4122131" lon="10.5956032"><ele>349.0</ele><time>2026-04-19T08:48:41.01Z</time></trkpt><trkpt lat="44.4122497" lon="10.5953448"><ele>346.66666666666663</ele><time>2026-04-19T08:48:42.01Z</time></trkpt><trkpt lat="44.4122483" lon="10.5950614"><ele>344.3333333333333</ele><time>2026-04-19T08:48:43.009Z</time></trkpt><trkpt lat="44.4122162" lon="10.5947663"><ele>342.0</ele><time>2026-04-19T08:48:44.01Z</time></trkpt><trkpt lat="44.4121724" lon="10.5944852"><ele>342.0</ele><time>2026-04-19T08:48:45.008Z</time></trkpt><trkpt lat="44.412143" lon="10.5942121"><ele>342.0</ele><time>2026-04-19T08:48:46.009Z</time></trkpt><trkpt lat="44.4121362" lon="10.5939476"><ele>342.0</ele><time>2026-04-19T08:48:47.009Z</time></trkpt><trkpt lat="44.4121622" lon="10.5936969"><ele>340.0</ele><time>2026-04-19T08:48:48.009Z</time></trkpt><trkpt lat="44.4122246" lon="10.5934416"><ele>338.0</ele><time>2026-04-19T08:48:49.01Z</time></trkpt><trkpt lat="44.4123141" lon="10.5931896"><ele>336.0</ele><time>2026-04-19T08:48:50.009Z</time></trkpt><trkpt lat="44.4124121" lon="10.5929457"><ele>332.3333333333333</ele><time>2026-04-19T08:48:51.01Z</time></trkpt><trkpt lat="44.4124948" lon="10.5926992"><ele>328.66666666666663</ele><time>2026-04-19T08:48:52.009Z</time></trkpt><trkpt lat="44.4125493" lon="10.5924273"><ele>325.0</ele><time>2026-04-19T08:48:53.008Z</time></trkpt><trkpt lat="44.412575" lon="10.5921518"><ele>324.3333333333333</ele><time>2026-04-19T08:48:54.008Z</time></trkpt><trkpt lat="44.4125896" lon="10.5918659"><ele>323.6666666666667</ele><time>2026-04-19T08:48:55.009Z</time></trkpt><trkpt lat="44.4125623" lon="10.5915497"><ele>323.0</ele><time>2026-04-19T08:48:56.009Z</time></trkpt><trkpt lat="44.4125411" lon="10.5912219"><ele>320.0</ele><time>2026-04-19T08:48:57.009Z</time></trkpt><trkpt lat="44.4125192" lon="10.5908877"><ele>317.0</ele><time>2026-04-19T08:48:58.01Z</time></trkpt><trkpt lat="44.4125046" lon="10.5905501"><ele>317.5</ele><time>2026-04-19T08:48:59.008Z</time></trkpt><trkpt lat="44.4124953" lon="10.5902222"><ele>318.0</ele><time>2026-04-19T08:49:00.01Z</time></trkpt><trkpt lat="44.4124928" lon="10.5898955"><ele>318.0</ele><time>2026-04-19T08:49:01.009Z</time></trkpt><trkpt lat="44.4125019" lon="10.5895659"><ele>318.0</ele><time>2026-04-19T08:49:02.009Z</time></trkpt><trkpt lat="44.4125164" lon="10.5892322"><ele>315.5</ele><time>2026-04-19T08:49:03.01Z</time></trkpt><trkpt lat="44.4125416" lon="10.5888897"><ele>313.0</ele><time>2026-04-19T08:49:04.01Z</time></trkpt><trkpt lat="44.4125757" lon="10.5885398"><ele>312.0</ele><time>2026-04-19T08:49:05.009Z</time></trkpt><trkpt lat="44.4126082" lon="10.5881943"><ele>311.0</ele><time>2026-04-19T08:49:06.008Z</time></trkpt><trkpt lat="44.4126443" lon="10.5878569"><ele>310.5</ele><time>2026-04-19T08:49:07.008Z</time></trkpt><trkpt lat="44.4126779" lon="10.5875233"><ele>310.0</ele><time>2026-04-19T08:49:08.007Z</time></trkpt><trkpt lat="44.4127073" lon="10.5871916"><ele>308.5</ele><time>2026-04-19T08:49:09.009Z</time></trkpt><trkpt lat="44.4127308" lon="10.5868528"><ele>307.0</ele><time>2026-04-19T08:49:10.009Z</time></trkpt><trkpt lat="44.4127433" lon="10.586499"><ele>305.5</ele><time>2026-04-19T08:49:11.009Z</time></trkpt><trkpt lat="44.4127468" lon="10.5861313"><ele>304.0</ele><time>2026-04-19T08:49:12.007Z</time></trkpt><trkpt lat="44.412749" lon="10.5857514"><ele>304.0</ele><time>2026-04-19T08:49:13.008Z</time></trkpt><trkpt lat="44.4127498" lon="10.5853881"><ele>304.0</ele><time>2026-04-19T08:49:14.009Z</time></trkpt><trkpt lat="44.4127516" lon="10.5850439"><ele>305.0</ele><time>2026-04-19T08:49:15.008Z</time></trkpt><trkpt lat="44.4127538" lon="10.5847175"><ele>306.0</ele><time>2026-04-19T08:49:16.009Z</time></trkpt><trkpt lat="44.4127579" lon="10.5844036"><ele>306.0</ele><time>2026-04-19T08:49:17.008Z</time></trkpt><trkpt lat="44.41276" lon="10.5840893"><ele>306.0</ele><time>2026-04-19T08:49:18.009Z</time></trkpt><trkpt lat="44.4127619" lon="10.5837915"><ele>306.0</ele><time>2026-04-19T08:49:19.008Z</time></trkpt><trkpt lat="44.4127629" lon="10.5835062"><ele>307.0</ele><time>2026-04-19T08:49:20.008Z</time></trkpt><trkpt lat="44.4127648" lon="10.5832538"><ele>308.0</ele><time>2026-04-19T08:49:21.009Z</time></trkpt><trkpt lat="44.4127701" lon="10.5830242"><ele>309.0</ele><time>2026-04-19T08:49:22.009Z</time></trkpt><trkpt lat="44.412784" lon="10.5828184"><ele>309.0</ele><time>2026-04-19T08:49:23.008Z</time></trkpt><trkpt lat="44.4128148" lon="10.5826262"><ele>309.0</ele><time>2026-04-19T08:49:24.009Z</time></trkpt><trkpt lat="44.4128756" lon="10.5824442"><ele>309.0</ele><time>2026-04-19T08:49:25.008Z</time></trkpt><trkpt lat="44.4129637" lon="10.5822773"><ele>309.0</ele><time>2026-04-19T08:49:26.008Z</time></trkpt><trkpt lat="44.4130749" lon="10.5821378"><ele>309.0</ele><time>2026-04-19T08:49:27.008Z</time></trkpt><trkpt lat="44.4132106" lon="10.5820244"><ele>309.0</ele><time>2026-04-19T08:49:28.008Z</time></trkpt><trkpt lat="44.413379" lon="10.5819547"><ele>309.0</ele><time>2026-04-19T08:49:29.009Z</time></trkpt><trkpt lat="44.4135628" lon="10.5819111"><ele>311.0</ele><time>2026-04-19T08:49:30.007Z</time></trkpt><trkpt lat="44.4137643" lon="10.5818804"><ele>313.0</ele><time>2026-04-19T08:49:31.009Z</time></trkpt><trkpt lat="44.4139821" lon="10.581842"><ele>315.0</ele><time>2026-04-19T08:49:32.009Z</time></trkpt><trkpt lat="44.4141944" lon="10.5817982"><ele>315.0</ele><time>2026-04-19T08:49:33.009Z</time></trkpt><trkpt lat="44.4143985" lon="10.5817542"><ele>315.0</ele><time>2026-04-19T08:49:34.008Z</time></trkpt><trkpt lat="44.4145877" lon="10.5816951"><ele>315.0</ele><time>2026-04-19T08:49:35.01Z</time></trkpt><trkpt lat="44.4147713" lon="10.5816095"><ele>313.6666666666667</ele><time>2026-04-19T08:49:36.009Z</time></trkpt><trkpt lat="44.4149453" lon="10.5814956"><ele>312.33333333333337</ele><time>2026-04-19T08:49:37.009Z</time></trkpt><trkpt lat="44.4151095" lon="10.5813451"><ele>311.0</ele><time>2026-04-19T08:49:38.008Z</time></trkpt><trkpt lat="44.4152543" lon="10.5811625"><ele>309.6666666666667</ele><time>2026-04-19T08:49:39.009Z</time></trkpt><trkpt lat="44.4153991" lon="10.5809558"><ele>308.3333333333333</ele><time>2026-04-19T08:49:40.009Z</time></trkpt><trkpt lat="44.4155117" lon="10.5806922"><ele>307.0</ele><time>2026-04-19T08:49:41.008Z</time></trkpt><trkpt lat="44.4156226" lon="10.5804017"><ele>309.5</ele><time>2026-04-19T08:49:42.008Z</time></trkpt><trkpt lat="44.4157295" lon="10.5801038"><ele>312.0</ele><time>2026-04-19T08:49:43.008Z</time></trkpt><trkpt lat="44.4158356" lon="10.5798005"><ele>313.5</ele><time>2026-04-19T08:49:44.008Z</time></trkpt><trkpt lat="44.4159432" lon="10.5794943"><ele>315.0</ele><time>2026-04-19T08:49:45.009Z</time></trkpt><trkpt lat="44.4160495" lon="10.5792042"><ele>315.0</ele><time>2026-04-19T08:49:46.008Z</time></trkpt><trkpt lat="44.4161503" lon="10.5789344"><ele>315.0</ele><time>2026-04-19T08:49:47.009Z</time></trkpt><trkpt lat="44.4162382" lon="10.578652"><ele>315.0</ele><time>2026-04-19T08:49:48.008Z</time></trkpt><trkpt lat="44.4163113" lon="10.5783639"><ele>314.5</ele><time>2026-04-19T08:49:49.009Z</time></trkpt><trkpt lat="44.4163613" lon="10.5780567"><ele>314.0</ele><time>2026-04-19T08:49:50.009Z</time></trkpt><trkpt lat="44.4163942" lon="10.5777254"><ele>314.0</ele><time>2026-04-19T08:49:51.008Z</time></trkpt><trkpt lat="44.4164172" lon="10.5773708"><ele>314.0</ele><time>2026-04-19T08:49:52.009Z</time></trkpt><trkpt lat="44.4164382" lon="10.577"><ele>314.5</ele><time>2026-04-19T08:49:53.01Z</time></trkpt><trkpt lat="44.416454" lon="10.5766451"><ele>315.0</ele><time>2026-04-19T08:49:54.008Z</time></trkpt><trkpt lat="44.4164703" lon="10.5762994"><ele>314.0</ele><time>2026-04-19T08:49:55.01Z</time></trkpt><trkpt lat="44.4164871" lon="10.5759743"><ele>313.0</ele><time>2026-04-19T08:49:56.007Z</time></trkpt><trkpt lat="44.4165029" lon="10.5756644"><ele>313.0</ele><time>2026-04-19T08:49:57.009Z</time></trkpt><trkpt lat="44.416526" lon="10.5753607"><ele>313.0</ele><time>2026-04-19T08:49:58.01Z</time></trkpt><trkpt lat="44.4165672" lon="10.5750584"><ele>313.0</ele><time>2026-04-19T08:49:59.009Z</time></trkpt><trkpt lat="44.4166299" lon="10.5747538"><ele>311.0</ele><time>2026-04-19T08:50:00.009Z</time></trkpt><trkpt lat="44.4167119" lon="10.5744525"><ele>309.0</ele><time>2026-04-19T08:50:01.009Z</time></trkpt><trkpt lat="44.416813" lon="10.5741578"><ele>309.0</ele><time>2026-04-19T08:50:02.009Z</time></trkpt><trkpt lat="44.4169231" lon="10.5738785"><ele>309.0</ele><time>2026-04-19T08:50:03.008Z</time></trkpt><trkpt lat="44.4170376" lon="10.5736038"><ele>310.0</ele><time>2026-04-19T08:50:04.009Z</time></trkpt><trkpt lat="44.4171499" lon="10.5733297"><ele>311.0</ele><time>2026-04-19T08:50:05.009Z</time></trkpt><trkpt lat="44.4172632" lon="10.5730592"><ele>310.0</ele><time>2026-04-19T08:50:06.009Z</time></trkpt><trkpt lat="44.4173757" lon="10.5727795"><ele>309.0</ele><time>2026-04-19T08:50:07.009Z</time></trkpt><trkpt lat="44.4174996" lon="10.5725021"><ele>309.0</ele><time>2026-04-19T08:50:08.009Z</time></trkpt><trkpt lat="44.4176154" lon="10.5722236"><ele>309.0</ele><time>2026-04-19T08:50:09.008Z</time></trkpt><trkpt lat="44.4177287" lon="10.5719423"><ele>310.5</ele><time>2026-04-19T08:50:10.009Z</time></trkpt><trkpt lat="44.4178482" lon="10.5716554"><ele>312.0</ele><time>2026-04-19T08:50:11.009Z</time></trkpt><trkpt lat="44.4179629" lon="10.5713714"><ele>311.0</ele><time>2026-04-19T08:50:12.009Z</time></trkpt><trkpt lat="44.4180789" lon="10.571092"><ele>310.0</ele><time>2026-04-19T08:50:13.009Z</time></trkpt><trkpt lat="44.418187" lon="10.5708234"><ele>310.0</ele><time>2026-04-19T08:50:14.008Z</time></trkpt><trkpt lat="44.4182909" lon="10.5705607"><ele>310.0</ele><time>2026-04-19T08:50:15.008Z</time></trkpt><trkpt lat="44.4183953" lon="10.5702987"><ele>310.0</ele><time>2026-04-19T08:50:16.007Z</time></trkpt><trkpt lat="44.4184923" lon="10.5700332"><ele>312.0</ele><time>2026-04-19T08:50:17.009Z</time></trkpt><trkpt lat="44.4185805" lon="10.5697312"><ele>314.0</ele><time>2026-04-19T08:50:18.009Z</time></trkpt><trkpt lat="44.418669" lon="10.5694271"><ele>313.33333333333337</ele><time>2026-04-19T08:50:19.008Z</time></trkpt><trkpt lat="44.4187511" lon="10.5691227"><ele>312.6666666666667</ele><time>2026-04-19T08:50:20.009Z</time></trkpt><trkpt lat="44.4188246" lon="10.5688379"><ele>312.0</ele><time>2026-04-19T08:50:21.009Z</time></trkpt><trkpt lat="44.4188975" lon="10.5685547"><ele>312.0</ele><time>2026-04-19T08:50:22.009Z</time></trkpt><trkpt lat="44.4189749" lon="10.5682645"><ele>312.0</ele><time>2026-04-19T08:50:23.008Z</time></trkpt><trkpt lat="44.4190493" lon="10.5679744"><ele>312.0</ele><time>2026-04-19T08:50:24.009Z</time></trkpt><trkpt lat="44.4191253" lon="10.5676881"><ele>312.0</ele><time>2026-04-19T08:50:25.009Z</time></trkpt><trkpt lat="44.4191979" lon="10.5673939"><ele>312.0</ele><time>2026-04-19T08:50:26.009Z</time></trkpt><trkpt lat="44.4192656" lon="10.567108"><ele>312.0</ele><time>2026-04-19T08:50:27.008Z</time></trkpt><trkpt lat="44.4193341" lon="10.5668316"><ele>312.0</ele><time>2026-04-19T08:50:28.008Z</time></trkpt><trkpt lat="44.4194032" lon="10.5665679"><ele>312.0</ele><time>2026-04-19T08:50:29.008Z</time></trkpt><trkpt lat="44.4194666" lon="10.566313"><ele>312.0</ele><time>2026-04-19T08:50:30.008Z</time></trkpt><trkpt lat="44.4195258" lon="10.5660614"><ele>312.6666666666667</ele><time>2026-04-19T08:50:31.009Z</time></trkpt><trkpt lat="44.4195857" lon="10.5658151"><ele>313.33333333333337</ele><time>2026-04-19T08:50:32.009Z</time></trkpt><trkpt lat="44.4196201" lon="10.565555"><ele>314.0</ele><time>2026-04-19T08:50:33.009Z</time></trkpt><trkpt lat="44.419628" lon="10.5652816"><ele>315.0</ele><time>2026-04-19T08:50:34.008Z</time></trkpt><trkpt lat="44.4196116" lon="10.5649902"><ele>316.0</ele><time>2026-04-19T08:50:35.008Z</time></trkpt><trkpt lat="44.4195675" lon="10.5646908"><ele>317.0</ele><time>2026-04-19T08:50:36.009Z</time></trkpt><trkpt lat="44.4195006" lon="10.5643846"><ele>317.6666666666667</ele><time>2026-04-19T08:50:37.008Z</time></trkpt><trkpt lat="44.4194339" lon="10.5640913"><ele>318.3333333333333</ele><time>2026-04-19T08:50:38.008Z</time></trkpt><trkpt lat="44.4193657" lon="10.5638057"><ele>319.0</ele><time>2026-04-19T08:50:39.007Z</time></trkpt><trkpt lat="44.4192969" lon="10.5635235"><ele>320.3333333333333</ele><time>2026-04-19T08:50:40.008Z</time></trkpt><trkpt lat="44.4192275" lon="10.5632414"><ele>321.6666666666667</ele><time>2026-04-19T08:50:41.008Z</time></trkpt><trkpt lat="44.4191609" lon="10.5629576"><ele>323.0</ele><time>2026-04-19T08:50:42.009Z</time></trkpt><trkpt lat="44.4190946" lon="10.5626723"><ele>323.6666666666667</ele><time>2026-04-19T08:50:43.008Z</time></trkpt><trkpt lat="44.4190277" lon="10.5623838"><ele>324.3333333333333</ele><time>2026-04-19T08:50:44.008Z</time></trkpt><trkpt lat="44.4189649" lon="10.5620963"><ele>325.0</ele><time>2026-04-19T08:50:45.008Z</time></trkpt><trkpt lat="44.4189091" lon="10.5618033"><ele>325.0</ele><time>2026-04-19T08:50:46.008Z</time></trkpt><trkpt lat="44.4188677" lon="10.5615094"><ele>325.0</ele><time>2026-04-19T08:50:47.009Z</time></trkpt><trkpt lat="44.4188354" lon="10.5612227"><ele>325.0</ele><time>2026-04-19T08:50:48.009Z</time></trkpt><trkpt lat="44.4188176" lon="10.5609288"><ele>326.66666666666663</ele><time>2026-04-19T08:50:49.009Z</time></trkpt><trkpt lat="44.4188155" lon="10.5606291"><ele>328.3333333333333</ele><time>2026-04-19T08:50:50.009Z</time></trkpt><trkpt lat="44.4188296" lon="10.5603299"><ele>330.0</ele><time>2026-04-19T08:50:51.009Z</time></trkpt><trkpt lat="44.4188528" lon="10.5600375"><ele>330.0</ele><time>2026-04-19T08:50:52.009Z</time></trkpt><trkpt lat="44.4188912" lon="10.5597423"><ele>330.0</ele><time>2026-04-19T08:50:53.01Z</time></trkpt><trkpt lat="44.4189473" lon="10.5594482"><ele>330.0</ele><time>2026-04-19T08:50:54.008Z</time></trkpt><trkpt lat="44.41902" lon="10.5591665"><ele>329.0</ele><time>2026-04-19T08:50:55.007Z</time></trkpt><trkpt lat="44.4191058" lon="10.5588968"><ele>328.0</ele><time>2026-04-19T08:50:56.008Z</time></trkpt><trkpt lat="44.4192142" lon="10.5586311"><ele>327.0</ele><time>2026-04-19T08:50:57.008Z</time></trkpt><trkpt lat="44.4193262" lon="10.5583853"><ele>324.6666666666667</ele><time>2026-04-19T08:50:58.009Z</time></trkpt><trkpt lat="44.4194325" lon="10.5581492"><ele>322.33333333333337</ele><time>2026-04-19T08:50:59.009Z</time></trkpt><trkpt lat="44.4195386" lon="10.5579192"><ele>320.0</ele><time>2026-04-19T08:51:00.01Z</time></trkpt><trkpt lat="44.4196405" lon="10.5576875"><ele>322.6666666666667</ele><time>2026-04-19T08:51:01.008Z</time></trkpt><trkpt lat="44.4197381" lon="10.5574474"><ele>325.3333333333333</ele><time>2026-04-19T08:51:02.008Z</time></trkpt><trkpt lat="44.4198284" lon="10.5572042"><ele>328.0</ele><time>2026-04-19T08:51:03.008Z</time></trkpt><trkpt lat="44.4199065" lon="10.5569601"><ele>328.0</ele><time>2026-04-19T08:51:04.008Z</time></trkpt><trkpt lat="44.4199629" lon="10.5567101"><ele>328.0</ele><time>2026-04-19T08:51:05.008Z</time></trkpt><trkpt lat="44.4199976" lon="10.5564319"><ele>328.0</ele><time>2026-04-19T08:51:06.009Z</time></trkpt><trkpt lat="44.4200223" lon="10.5561299"><ele>328.0</ele><time>2026-04-19T08:51:07.009Z</time></trkpt><trkpt lat="44.4200344" lon="10.5558056"><ele>328.0</ele><time>2026-04-19T08:51:08.01Z</time></trkpt><trkpt lat="44.4200419" lon="10.5554629"><ele>328.0</ele><time>2026-04-19T08:51:09.01Z</time></trkpt><trkpt lat="44.4200459" lon="10.5550983"><ele>328.0</ele><time>2026-04-19T08:51:10.008Z</time></trkpt><trkpt lat="44.4200502" lon="10.5547201"><ele>326.0</ele><time>2026-04-19T08:51:11.009Z</time></trkpt><trkpt lat="44.4200594" lon="10.554325"><ele>324.0</ele><time>2026-04-19T08:51:12.01Z</time></trkpt><trkpt lat="44.4200745" lon="10.5539507"><ele>324.5</ele><time>2026-04-19T08:51:13.009Z</time></trkpt><trkpt lat="44.4200894" lon="10.5535876"><ele>325.0</ele><time>2026-04-19T08:51:14.008Z</time></trkpt><trkpt lat="44.4201076" lon="10.5532443"><ele>325.0</ele><time>2026-04-19T08:51:15.008Z</time></trkpt><trkpt lat="44.4201304" lon="10.5529228"><ele>325.0</ele><time>2026-04-19T08:51:16.009Z</time></trkpt><trkpt lat="44.4201625" lon="10.5526187"><ele>325.0</ele><time>2026-04-19T08:51:17.009Z</time></trkpt><trkpt lat="44.4202093" lon="10.5523304"><ele>325.0</ele><time>2026-04-19T08:51:18.009Z</time></trkpt><trkpt lat="44.4202612" lon="10.5520494"><ele>325.0</ele><time>2026-04-19T08:51:19.008Z</time></trkpt><trkpt lat="44.4203179" lon="10.5517784"><ele>325.0</ele><time>2026-04-19T08:51:20.008Z</time></trkpt><trkpt lat="44.4203786" lon="10.5515055"><ele>325.0</ele><time>2026-04-19T08:51:21.009Z</time></trkpt><trkpt lat="44.4204376" lon="10.5512359"><ele>325.0</ele><time>2026-04-19T08:51:22.009Z</time></trkpt><trkpt lat="44.4204855" lon="10.5509738"><ele>326.66666666666663</ele><time>2026-04-19T08:51:23.009Z</time></trkpt><trkpt lat="44.4205198" lon="10.5507111"><ele>328.3333333333333</ele><time>2026-04-19T08:51:24.007Z</time></trkpt><trkpt lat="44.4205343" lon="10.5504466"><ele>330.0</ele><time>2026-04-19T08:51:25.008Z</time></trkpt><trkpt lat="44.4205311" lon="10.5501871"><ele>330.0</ele><time>2026-04-19T08:51:26.01Z</time></trkpt><trkpt lat="44.4205087" lon="10.5499377"><ele>330.0</ele><time>2026-04-19T08:51:27.009Z</time></trkpt><trkpt lat="44.4204719" lon="10.5496947"><ele>330.0</ele><time>2026-04-19T08:51:28.01Z</time></trkpt><trkpt lat="44.4204185" lon="10.5494588"><ele>327.3333333333333</ele><time>2026-04-19T08:51:29.009Z</time></trkpt><trkpt lat="44.4203593" lon="10.5492252"><ele>324.66666666666663</ele><time>2026-04-19T08:51:30.009Z</time></trkpt><trkpt lat="44.4202811" lon="10.5489981"><ele>322.0</ele><time>2026-04-19T08:51:31.009Z</time></trkpt><trkpt lat="44.4202034" lon="10.5487689"><ele>322.66666666666663</ele><time>2026-04-19T08:51:32.009Z</time></trkpt><trkpt lat="44.4201282" lon="10.5485251"><ele>323.3333333333333</ele><time>2026-04-19T08:51:33.009Z</time></trkpt><trkpt lat="44.4200528" lon="10.5482848"><ele>324.0</ele><time>2026-04-19T08:51:34.009Z</time></trkpt><trkpt lat="44.419972" lon="10.5480425"><ele>324.0</ele><time>2026-04-19T08:51:35.009Z</time></trkpt><trkpt lat="44.4198954" lon="10.5477973"><ele>324.0</ele><time>2026-04-19T08:51:36.009Z</time></trkpt><trkpt lat="44.4198143" lon="10.5475481"><ele>324.0</ele><time>2026-04-19T08:51:37.009Z</time></trkpt><trkpt lat="44.4197307" lon="10.5473021"><ele>323.6666666666667</ele><time>2026-04-19T08:51:38.009Z</time></trkpt><trkpt lat="44.4196468" lon="10.547062"><ele>323.33333333333337</ele><time>2026-04-19T08:51:39.008Z</time></trkpt><trkpt lat="44.4195643" lon="10.5468255"><ele>323.0</ele><time>2026-04-19T08:51:40.009Z</time></trkpt><trkpt lat="44.4194808" lon="10.5465893"><ele>323.0</ele><time>2026-04-19T08:51:41.009Z</time></trkpt><trkpt lat="44.419398" lon="10.5463476"><ele>323.0</ele><time>2026-04-19T08:51:42.009Z</time></trkpt><trkpt lat="44.4193204" lon="10.5461248"><ele>323.0</ele><time>2026-04-19T08:51:43.008Z</time></trkpt><trkpt lat="44.4192502" lon="10.5459066"><ele>324.33333333333337</ele><time>2026-04-19T08:51:44.009Z</time></trkpt><trkpt lat="44.4191814" lon="10.5456782"><ele>325.6666666666667</ele><time>2026-04-19T08:51:45.008Z</time></trkpt><trkpt lat="44.4191243" lon="10.5454524"><ele>327.0</ele><time>2026-04-19T08:51:46.01Z</time></trkpt><trkpt lat="44.4190853" lon="10.5452237"><ele>327.6666666666667</ele><time>2026-04-19T08:51:47.008Z</time></trkpt><trkpt lat="44.4190655" lon="10.544984"><ele>328.33333333333337</ele><time>2026-04-19T08:51:48.009Z</time></trkpt><trkpt lat="44.4190577" lon="10.5447321"><ele>329.0</ele><time>2026-04-19T08:51:49.008Z</time></trkpt><trkpt lat="44.4190648" lon="10.5444723"><ele>329.33333333333337</ele><time>2026-04-19T08:51:50.008Z</time></trkpt><trkpt lat="44.4190882" lon="10.5441941"><ele>329.6666666666667</ele><time>2026-04-19T08:51:51.009Z</time></trkpt><trkpt lat="44.4191151" lon="10.5439178"><ele>330.0</ele><time>2026-04-19T08:51:52.009Z</time></trkpt><trkpt lat="44.419148" lon="10.5436403"><ele>330.0</ele><time>2026-04-19T08:51:53.008Z</time></trkpt><trkpt lat="44.4191808" lon="10.543362"><ele>330.0</ele><time>2026-04-19T08:51:54.007Z</time></trkpt><trkpt lat="44.419215" lon="10.5430829"><ele>330.0</ele><time>2026-04-19T08:51:55.008Z</time></trkpt><trkpt lat="44.4192469" lon="10.5428044"><ele>330.0</ele><time>2026-04-19T08:51:56.008Z</time></trkpt><trkpt lat="44.4192778" lon="10.5425379"><ele>330.0</ele><time>2026-04-19T08:51:57.008Z</time></trkpt><trkpt lat="44.4193031" lon="10.5422769"><ele>330.0</ele><time>2026-04-19T08:51:58.01Z</time></trkpt><trkpt lat="44.4193176" lon="10.5420261"><ele>330.3333333333333</ele><time>2026-04-19T08:51:59.008Z</time></trkpt><trkpt lat="44.419317" lon="10.5417676"><ele>330.66666666666663</ele><time>2026-04-19T08:52:00.009Z</time></trkpt><trkpt lat="44.419301" lon="10.5415168"><ele>331.0</ele><time>2026-04-19T08:52:01.009Z</time></trkpt><trkpt lat="44.4192655" lon="10.5412695"><ele>331.66666666666663</ele><time>2026-04-19T08:52:02.008Z</time></trkpt><trkpt lat="44.41921" lon="10.5410224"><ele>332.3333333333333</ele><time>2026-04-19T08:52:03.009Z</time></trkpt><trkpt lat="44.4191418" lon="10.5407843"><ele>333.0</ele><time>2026-04-19T08:52:04.007Z</time></trkpt><trkpt lat="44.4190633" lon="10.5405449"><ele>333.3333333333333</ele><time>2026-04-19T08:52:05.009Z</time></trkpt><trkpt lat="44.4189836" lon="10.5403156"><ele>333.66666666666663</ele><time>2026-04-19T08:52:06.008Z</time></trkpt><trkpt lat="44.418891" lon="10.5400726"><ele>334.0</ele><time>2026-04-19T08:52:07.009Z</time></trkpt><trkpt lat="44.418794" lon="10.5398003"><ele>331.0</ele><time>2026-04-19T08:52:08.009Z</time></trkpt><trkpt lat="44.4186931" lon="10.5395017"><ele>328.0</ele><time>2026-04-19T08:52:09.009Z</time></trkpt><trkpt lat="44.4185957" lon="10.5392035"><ele>328.0</ele><time>2026-04-19T08:52:10.009Z</time></trkpt><trkpt lat="44.4184933" lon="10.5388871"><ele>328.0</ele><time>2026-04-19T08:52:11.009Z</time></trkpt><trkpt lat="44.4183822" lon="10.5385537"><ele>331.0</ele><time>2026-04-19T08:52:12.009Z</time></trkpt><trkpt lat="44.4182652" lon="10.5382015"><ele>334.0</ele><time>2026-04-19T08:52:13.008Z</time></trkpt><trkpt lat="44.4181505" lon="10.5378409"><ele>332.5</ele><time>2026-04-19T08:52:14.009Z</time></trkpt><trkpt lat="44.4180445" lon="10.5375039"><ele>331.0</ele><time>2026-04-19T08:52:15.008Z</time></trkpt><trkpt lat="44.4179428" lon="10.5371816"><ele>331.66666666666663</ele><time>2026-04-19T08:52:16.01Z</time></trkpt><trkpt lat="44.41785" lon="10.536897"><ele>332.3333333333333</ele><time>2026-04-19T08:52:17.008Z</time></trkpt><trkpt lat="44.4177624" lon="10.536637"><ele>333.0</ele><time>2026-04-19T08:52:18.009Z</time></trkpt><trkpt lat="44.4176717" lon="10.5364023"><ele>334.6666666666667</ele><time>2026-04-19T08:52:19.008Z</time></trkpt><trkpt lat="44.4175697" lon="10.5361809"><ele>336.33333333333337</ele><time>2026-04-19T08:52:20.008Z</time></trkpt><trkpt lat="44.4174441" lon="10.535981"><ele>338.0</ele><time>2026-04-19T08:52:21.009Z</time></trkpt><trkpt lat="44.4172983" lon="10.5358001"><ele>336.33333333333337</ele><time>2026-04-19T08:52:22.009Z</time></trkpt><trkpt lat="44.4171332" lon="10.5356415"><ele>334.6666666666667</ele><time>2026-04-19T08:52:23.007Z</time></trkpt><trkpt lat="44.4169401" lon="10.5354879"><ele>333.0</ele><time>2026-04-19T08:52:24.009Z</time></trkpt><trkpt lat="44.4167248" lon="10.535341"><ele>333.0</ele><time>2026-04-19T08:52:25.009Z</time></trkpt><trkpt lat="44.4165095" lon="10.5351923"><ele>333.0</ele><time>2026-04-19T08:52:26.007Z</time></trkpt><trkpt lat="44.4163009" lon="10.5350524"><ele>333.0</ele><time>2026-04-19T08:52:27.007Z</time></trkpt><trkpt lat="44.4161024" lon="10.5349221"><ele>333.0</ele><time>2026-04-19T08:52:28.007Z</time></trkpt><trkpt lat="44.4159127" lon="10.5347946"><ele>333.0</ele><time>2026-04-19T08:52:29.008Z</time></trkpt><trkpt lat="44.4157356" lon="10.5346673"><ele>333.6666666666667</ele><time>2026-04-19T08:52:30.008Z</time></trkpt><trkpt lat="44.4155792" lon="10.5345232"><ele>334.33333333333337</ele><time>2026-04-19T08:52:31.009Z</time></trkpt><trkpt lat="44.415436" lon="10.53436"><ele>335.0</ele><time>2026-04-19T08:52:32.007Z</time></trkpt><trkpt lat="44.4153086" lon="10.53417"><ele>336.6666666666667</ele><time>2026-04-19T08:52:33.008Z</time></trkpt><trkpt lat="44.4151967" lon="10.5339492"><ele>338.3333333333333</ele><time>2026-04-19T08:52:34.009Z</time></trkpt><trkpt lat="44.4151052" lon="10.5337048"><ele>340.0</ele><time>2026-04-19T08:52:35.009Z</time></trkpt><trkpt lat="44.4150361" lon="10.5334428"><ele>340.0</ele><time>2026-04-19T08:52:36.008Z</time></trkpt><trkpt lat="44.4149805" lon="10.5331496"><ele>340.0</ele><time>2026-04-19T08:52:37.008Z</time></trkpt><trkpt lat="44.4149304" lon="10.5328356"><ele>340.0</ele><time>2026-04-19T08:52:38.01Z</time></trkpt><trkpt lat="44.4148828" lon="10.5325079"><ele>340.0</ele><time>2026-04-19T08:52:39.009Z</time></trkpt><trkpt lat="44.4148385" lon="10.5321897"><ele>340.0</ele><time>2026-04-19T08:52:40.009Z</time></trkpt><trkpt lat="44.4147936" lon="10.5318795"><ele>340.0</ele><time>2026-04-19T08:52:41.008Z</time></trkpt><trkpt lat="44.4147526" lon="10.5315894"><ele>340.0</ele><time>2026-04-19T08:52:42.009Z</time></trkpt><trkpt lat="44.4147103" lon="10.5313043"><ele>340.0</ele><time>2026-04-19T08:52:43.008Z</time></trkpt><trkpt lat="44.4146735" lon="10.5310294"><ele>343.0</ele><time>2026-04-19T08:52:44.01Z</time></trkpt><trkpt lat="44.4146347" lon="10.5307625"><ele>346.0</ele><time>2026-04-19T08:52:45.009Z</time></trkpt><trkpt lat="44.4145959" lon="10.5305067"><ele>349.0</ele><time>2026-04-19T08:52:46.008Z</time></trkpt><trkpt lat="44.4145485" lon="10.5302591"><ele>349.0</ele><time>2026-04-19T08:52:47.01Z</time></trkpt><trkpt lat="44.414496" lon="10.5300127"><ele>349.0</ele><time>2026-04-19T08:52:48.01Z</time></trkpt><trkpt lat="44.4144244" lon="10.5297745"><ele>349.0</ele><time>2026-04-19T08:52:49.008Z</time></trkpt><trkpt lat="44.4143425" lon="10.5295361"><ele>347.66666666666663</ele><time>2026-04-19T08:52:50.009Z</time></trkpt><trkpt lat="44.4142379" lon="10.5293103"><ele>346.3333333333333</ele><time>2026-04-19T08:52:51.008Z</time></trkpt><trkpt lat="44.4141256" lon="10.5290866"><ele>345.0</ele><time>2026-04-19T08:52:52.009Z</time></trkpt><trkpt lat="44.4139957" lon="10.5288774"><ele>346.0</ele><time>2026-04-19T08:52:53.008Z</time></trkpt><trkpt lat="44.4138538" lon="10.5286735"><ele>347.0</ele><time>2026-04-19T08:52:54.008Z</time></trkpt><trkpt lat="44.4137034" lon="10.5284715"><ele>348.0</ele><time>2026-04-19T08:52:55.009Z</time></trkpt><trkpt lat="44.4135492" lon="10.5282744"><ele>348.0</ele><time>2026-04-19T08:52:56.009Z</time></trkpt><trkpt lat="44.4133884" lon="10.5280679"><ele>348.0</ele><time>2026-04-19T08:52:57.009Z</time></trkpt><trkpt lat="44.4132242" lon="10.52786"><ele>348.0</ele><time>2026-04-19T08:52:58.009Z</time></trkpt><trkpt lat="44.4130646" lon="10.5276512"><ele>348.6666666666667</ele><time>2026-04-19T08:52:59.007Z</time></trkpt><trkpt lat="44.4129043" lon="10.5274378"><ele>349.33333333333337</ele><time>2026-04-19T08:53:00.008Z</time></trkpt><trkpt lat="44.4127412" lon="10.5272254"><ele>350.0</ele><time>2026-04-19T08:53:01.008Z</time></trkpt><trkpt lat="44.4125804" lon="10.5270119"><ele>350.33333333333337</ele><time>2026-04-19T08:53:02.008Z</time></trkpt><trkpt lat="44.4124177" lon="10.5268023"><ele>350.6666666666667</ele><time>2026-04-19T08:53:03.009Z</time></trkpt><trkpt lat="44.4122596" lon="10.5265934"><ele>351.0</ele><time>2026-04-19T08:53:04.009Z</time></trkpt><trkpt lat="44.4120974" lon="10.5263873"><ele>348.5</ele><time>2026-04-19T08:53:05.007Z</time></trkpt><trkpt lat="44.4119267" lon="10.5261892"><ele>346.0</ele><time>2026-04-19T08:53:06.009Z</time></trkpt><trkpt lat="44.4117388" lon="10.5259991"><ele>346.0</ele><time>2026-04-19T08:53:07.008Z</time></trkpt><trkpt lat="44.4115478" lon="10.5258148"><ele>346.0</ele><time>2026-04-19T08:53:08.008Z</time></trkpt><trkpt lat="44.4113511" lon="10.5256448"><ele>347.5</ele><time>2026-04-19T08:53:09.009Z</time></trkpt><trkpt lat="44.411149" lon="10.5254797"><ele>349.0</ele><time>2026-04-19T08:53:10.008Z</time></trkpt><trkpt lat="44.4109469" lon="10.5253115"><ele>349.0</ele><time>2026-04-19T08:53:11.009Z</time></trkpt><trkpt lat="44.4107412" lon="10.5251347"><ele>349.0</ele><time>2026-04-19T08:53:12.009Z</time></trkpt><trkpt lat="44.4105346" lon="10.5249605"><ele>353.0</ele><time>2026-04-19T08:53:13.008Z</time></trkpt><trkpt lat="44.4103281" lon="10.5247894"><ele>357.0</ele><time>2026-04-19T08:53:14.008Z</time></trkpt><trkpt lat="44.4101275" lon="10.5246223"><ele>351.0</ele><time>2026-04-19T08:53:15.009Z</time></trkpt><trkpt lat="44.4099285" lon="10.5244597"><ele>345.0</ele><time>2026-04-19T08:53:16.008Z</time></trkpt><trkpt lat="44.4097353" lon="10.5242952"><ele>346.6666666666667</ele><time>2026-04-19T08:53:17.009Z</time></trkpt><trkpt lat="44.4095499" lon="10.5241358"><ele>348.33333333333337</ele><time>2026-04-19T08:53:18.008Z</time></trkpt><trkpt lat="44.4093685" lon="10.5239861"><ele>350.0</ele><time>2026-04-19T08:53:19.009Z</time></trkpt><trkpt lat="44.4092002" lon="10.5238424"><ele>348.33333333333337</ele><time>2026-04-19T08:53:20.009Z</time></trkpt><trkpt lat="44.4090447" lon="10.523712"><ele>346.6666666666667</ele><time>2026-04-19T08:53:21.009Z</time></trkpt><trkpt lat="44.408904" lon="10.5235923"><ele>345.0</ele><time>2026-04-19T08:53:22.009Z</time></trkpt><trkpt lat="44.4087767" lon="10.5235041"><ele>345.0</ele><time>2026-04-19T08:53:23.009Z</time></trkpt><trkpt lat="44.4086733" lon="10.5234451"><ele>345.0</ele><time>2026-04-19T08:53:24.008Z</time></trkpt><trkpt lat="44.4085957" lon="10.5234028"><ele>345.0</ele><time>2026-04-19T08:53:25.008Z</time></trkpt><trkpt lat="44.4085079" lon="10.5233712"><ele>345.0</ele><time>2026-04-19T08:53:27.009Z</time></trkpt><trkpt lat="44.408418" lon="10.5233333"><ele>345.0</ele><time>2026-04-19T08:53:30.008Z</time></trkpt><trkpt lat="44.408295" lon="10.5232846"><ele>345.0</ele><time>2026-04-19T08:53:32.008Z</time></trkpt><trkpt lat="44.408219" lon="10.5232556"><ele>345.0</ele><time>2026-04-19T08:53:33.009Z</time></trkpt><trkpt lat="44.4081206" lon="10.5232053"><ele>345.0</ele><time>2026-04-19T08:53:34.008Z</time></trkpt><trkpt lat="44.4080102" lon="10.5231425"><ele>345.0</ele><time>2026-04-19T08:53:35.009Z</time></trkpt><trkpt lat="44.4078903" lon="10.5230632"><ele>345.0</ele><time>2026-04-19T08:53:36.008Z</time></trkpt><trkpt lat="44.4077538" lon="10.5229599"><ele>346.3333333333333</ele><time>2026-04-19T08:53:37.007Z</time></trkpt><trkpt lat="44.4076063" lon="10.5228407"><ele>347.66666666666663</ele><time>2026-04-19T08:53:38.008Z</time></trkpt><trkpt lat="44.4074453" lon="10.522676"><ele>349.0</ele><time>2026-04-19T08:53:39.007Z</time></trkpt><trkpt lat="44.4072893" lon="10.5225196"><ele>353.3333333333333</ele><time>2026-04-19T08:53:40.008Z</time></trkpt><trkpt lat="44.4071321" lon="10.5223769"><ele>357.6666666666667</ele><time>2026-04-19T08:53:41.008Z</time></trkpt><trkpt lat="44.4069937" lon="10.5222502"><ele>362.0</ele><time>2026-04-19T08:53:42.008Z</time></trkpt><trkpt lat="44.406871" lon="10.5221193"><ele>360.33333333333337</ele><time>2026-04-19T08:53:43.009Z</time></trkpt><trkpt lat="44.4067601" lon="10.5219704"><ele>358.6666666666667</ele><time>2026-04-19T08:53:44.009Z</time></trkpt><trkpt lat="44.4066743" lon="10.5217985"><ele>357.0</ele><time>2026-04-19T08:53:45.009Z</time></trkpt><trkpt lat="44.4065928" lon="10.5216138"><ele>357.0</ele><time>2026-04-19T08:53:46.009Z</time></trkpt><trkpt lat="44.4065214" lon="10.5214169"><ele>357.0</ele><time>2026-04-19T08:53:47.009Z</time></trkpt><trkpt lat="44.4064449" lon="10.52121"><ele>357.0</ele><time>2026-04-19T08:53:48.009Z</time></trkpt><trkpt lat="44.4063681" lon="10.5209981"><ele>363.3333333333333</ele><time>2026-04-19T08:53:49.009Z</time></trkpt><trkpt lat="44.4063037" lon="10.5207798"><ele>369.66666666666663</ele><time>2026-04-19T08:53:50.009Z</time></trkpt><trkpt lat="44.4062492" lon="10.5205515"><ele>376.0</ele><time>2026-04-19T08:53:51.009Z</time></trkpt><trkpt lat="44.4061999" lon="10.5203227"><ele>376.0</ele><time>2026-04-19T08:53:52.008Z</time></trkpt><trkpt lat="44.4061581" lon="10.5200979"><ele>376.0</ele><time>2026-04-19T08:53:53.009Z</time></trkpt><trkpt lat="44.4061168" lon="10.5198702"><ele>376.0</ele><time>2026-04-19T08:53:54.009Z</time></trkpt><trkpt lat="44.4060737" lon="10.5196437"><ele>375.66666666666663</ele><time>2026-04-19T08:53:55.009Z</time></trkpt><trkpt lat="44.4060358" lon="10.5194068"><ele>375.3333333333333</ele><time>2026-04-19T08:53:56.009Z</time></trkpt><trkpt lat="44.4060079" lon="10.519166"><ele>375.0</ele><time>2026-04-19T08:53:57.009Z</time></trkpt><trkpt lat="44.4059923" lon="10.5189315"><ele>374.6666666666667</ele><time>2026-04-19T08:53:58.009Z</time></trkpt><trkpt lat="44.4059813" lon="10.5186932"><ele>374.33333333333337</ele><time>2026-04-19T08:53:59.009Z</time></trkpt><trkpt lat="44.4059817" lon="10.5184517"><ele>374.0</ele><time>2026-04-19T08:54:00.009Z</time></trkpt><trkpt lat="44.4059806" lon="10.5182104"><ele>374.0</ele><time>2026-04-19T08:54:01.009Z</time></trkpt><trkpt lat="44.4059828" lon="10.5179665"><ele>374.0</ele><time>2026-04-19T08:54:02.009Z</time></trkpt><trkpt lat="44.4059894" lon="10.5177259"><ele>374.0</ele><time>2026-04-19T08:54:03.008Z</time></trkpt><trkpt lat="44.4059938" lon="10.5174769"><ele>374.0</ele><time>2026-04-19T08:54:04.009Z</time></trkpt><trkpt lat="44.405998" lon="10.51723"><ele>374.0</ele><time>2026-04-19T08:54:05.009Z</time></trkpt><trkpt lat="44.4059948" lon="10.5169711"><ele>374.0</ele><time>2026-04-19T08:54:06.009Z</time></trkpt><trkpt lat="44.4059986" lon="10.516708"><ele>373.33333333333337</ele><time>2026-04-19T08:54:07.008Z</time></trkpt><trkpt lat="44.4060024" lon="10.5164456"><ele>372.6666666666667</ele><time>2026-04-19T08:54:08.008Z</time></trkpt><trkpt lat="44.4060054" lon="10.516192"><ele>372.0</ele><time>2026-04-19T08:54:09.008Z</time></trkpt><trkpt lat="44.4060153" lon="10.5159368"><ele>372.3333333333333</ele><time>2026-04-19T08:54:10.008Z</time></trkpt><trkpt lat="44.4060502" lon="10.5156798"><ele>372.66666666666663</ele><time>2026-04-19T08:54:11.008Z</time></trkpt><trkpt lat="44.4061084" lon="10.5154258"><ele>373.0</ele><time>2026-04-19T08:54:12.009Z</time></trkpt><trkpt lat="44.4061827" lon="10.5151728"><ele>373.0</ele><time>2026-04-19T08:54:13.008Z</time></trkpt><trkpt lat="44.4062511" lon="10.5149352"><ele>373.0</ele><time>2026-04-19T08:54:14.009Z</time></trkpt><trkpt lat="44.4063119" lon="10.5147131"><ele>373.0</ele><time>2026-04-19T08:54:15.008Z</time></trkpt><trkpt lat="44.4063584" lon="10.5144885"><ele>367.66666666666663</ele><time>2026-04-19T08:54:16.008Z</time></trkpt><trkpt lat="44.4063843" lon="10.5142616"><ele>362.3333333333333</ele><time>2026-04-19T08:54:17.008Z</time></trkpt><trkpt lat="44.4063809" lon="10.5140305"><ele>357.0</ele><time>2026-04-19T08:54:18.008Z</time></trkpt><trkpt lat="44.4063502" lon="10.5138009"><ele>363.6666666666667</ele><time>2026-04-19T08:54:19.008Z</time></trkpt><trkpt lat="44.4062961" lon="10.5135731"><ele>370.33333333333337</ele><time>2026-04-19T08:54:20.008Z</time></trkpt><trkpt lat="44.4062181" lon="10.5133557"><ele>377.0</ele><time>2026-04-19T08:54:21.008Z</time></trkpt><trkpt lat="44.4061181" lon="10.5131437"><ele>377.0</ele><time>2026-04-19T08:54:22.008Z</time></trkpt><trkpt lat="44.4060032" lon="10.5129382"><ele>377.0</ele><time>2026-04-19T08:54:23.009Z</time></trkpt><trkpt lat="44.4058909" lon="10.5127227"><ele>377.0</ele><time>2026-04-19T08:54:24.009Z</time></trkpt><trkpt lat="44.4057898" lon="10.5124941"><ele>374.6666666666667</ele><time>2026-04-19T08:54:25.009Z</time></trkpt><trkpt lat="44.4056943" lon="10.5122482"><ele>372.3333333333333</ele><time>2026-04-19T08:54:26.008Z</time></trkpt><trkpt lat="44.4056096" lon="10.5120021"><ele>370.0</ele><time>2026-04-19T08:54:27.008Z</time></trkpt><trkpt lat="44.4055214" lon="10.5117528"><ele>373.66666666666663</ele><time>2026-04-19T08:54:28.009Z</time></trkpt><trkpt lat="44.4054351" lon="10.5114985"><ele>377.3333333333333</ele><time>2026-04-19T08:54:29.009Z</time></trkpt><trkpt lat="44.4053494" lon="10.5112449"><ele>381.0</ele><time>2026-04-19T08:54:30.008Z</time></trkpt><trkpt lat="44.4052735" lon="10.5109918"><ele>381.0</ele><time>2026-04-19T08:54:31.008Z</time></trkpt><trkpt lat="44.405209" lon="10.5107404"><ele>381.0</ele><time>2026-04-19T08:54:32.009Z</time></trkpt><trkpt lat="44.4051568" lon="10.5104845"><ele>381.0</ele><time>2026-04-19T08:54:33.009Z</time></trkpt><trkpt lat="44.4051206" lon="10.5102289"><ele>377.6666666666667</ele><time>2026-04-19T08:54:34.009Z</time></trkpt><trkpt lat="44.4050907" lon="10.5099678"><ele>374.33333333333337</ele><time>2026-04-19T08:54:35.009Z</time></trkpt><trkpt lat="44.4050643" lon="10.5097045"><ele>371.0</ele><time>2026-04-19T08:54:36.009Z</time></trkpt><trkpt lat="44.4050401" lon="10.509443"><ele>369.0</ele><time>2026-04-19T08:54:37.009Z</time></trkpt><trkpt lat="44.4050132" lon="10.5091953"><ele>367.0</ele><time>2026-04-19T08:54:38.008Z</time></trkpt><trkpt lat="44.4049789" lon="10.5089579"><ele>365.0</ele><time>2026-04-19T08:54:39.009Z</time></trkpt><trkpt lat="44.4049379" lon="10.5087233"><ele>363.6666666666667</ele><time>2026-04-19T08:54:40.008Z</time></trkpt><trkpt lat="44.4048945" lon="10.508499"><ele>362.3333333333333</ele><time>2026-04-19T08:54:41.008Z</time></trkpt><trkpt lat="44.4048363" lon="10.508299"><ele>361.0</ele><time>2026-04-19T08:54:42.008Z</time></trkpt><trkpt lat="44.4047751" lon="10.508091"><ele>360.66666666666663</ele><time>2026-04-19T08:54:43.009Z</time></trkpt><trkpt lat="44.4047165" lon="10.5078765"><ele>360.3333333333333</ele><time>2026-04-19T08:54:44.008Z</time></trkpt><trkpt lat="44.4046773" lon="10.5076532"><ele>360.0</ele><time>2026-04-19T08:54:45.008Z</time></trkpt><trkpt lat="44.404649" lon="10.5074239"><ele>366.3333333333333</ele><time>2026-04-19T08:54:46.009Z</time></trkpt><trkpt lat="44.4046467" lon="10.5071843"><ele>372.66666666666663</ele><time>2026-04-19T08:54:47.008Z</time></trkpt><trkpt lat="44.4046432" lon="10.5069397"><ele>379.0</ele><time>2026-04-19T08:54:48.009Z</time></trkpt><trkpt lat="44.4046385" lon="10.5066883"><ele>381.3333333333333</ele><time>2026-04-19T08:54:49.009Z</time></trkpt><trkpt lat="44.404637" lon="10.5064366"><ele>383.66666666666663</ele><time>2026-04-19T08:54:50.009Z</time></trkpt><trkpt lat="44.4046349" lon="10.5061893"><ele>386.0</ele><time>2026-04-19T08:54:51.009Z</time></trkpt><trkpt lat="44.404639" lon="10.5059466"><ele>387.3333333333333</ele><time>2026-04-19T08:54:52.007Z</time></trkpt><trkpt lat="44.4046486" lon="10.5056974"><ele>388.66666666666663</ele><time>2026-04-19T08:54:53.009Z</time></trkpt><trkpt lat="44.4046779" lon="10.5054558"><ele>390.0</ele><time>2026-04-19T08:54:54.008Z</time></trkpt><trkpt lat="44.4047204" lon="10.5052188"><ele>380.6666666666667</ele><time>2026-04-19T08:54:55.008Z</time></trkpt><trkpt lat="44.4047725" lon="10.50498"><ele>371.33333333333337</ele><time>2026-04-19T08:54:56.007Z</time></trkpt><trkpt lat="44.4048245" lon="10.5047403"><ele>362.0</ele><time>2026-04-19T08:54:57.009Z</time></trkpt><trkpt lat="44.4048778" lon="10.5044977"><ele>362.0</ele><time>2026-04-19T08:54:58.009Z</time></trkpt><trkpt lat="44.4049264" lon="10.5042538"><ele>362.0</ele><time>2026-04-19T08:54:59.008Z</time></trkpt><trkpt lat="44.4049703" lon="10.5040044"><ele>362.0</ele><time>2026-04-19T08:55:00.009Z</time></trkpt><trkpt lat="44.4050032" lon="10.5037519"><ele>362.33333333333337</ele><time>2026-04-19T08:55:01.008Z</time></trkpt><trkpt lat="44.4050206" lon="10.5035024"><ele>362.6666666666667</ele><time>2026-04-19T08:55:02.009Z</time></trkpt><trkpt lat="44.4050286" lon="10.5032568"><ele>363.0</ele><time>2026-04-19T08:55:03.008Z</time></trkpt><trkpt lat="44.4050377" lon="10.5030151"><ele>362.6666666666667</ele><time>2026-04-19T08:55:04.009Z</time></trkpt><trkpt lat="44.4050442" lon="10.5027706"><ele>362.33333333333337</ele><time>2026-04-19T08:55:05.008Z</time></trkpt><trkpt lat="44.4050491" lon="10.5025257"><ele>362.0</ele><time>2026-04-19T08:55:06.008Z</time></trkpt><trkpt lat="44.4050585" lon="10.502282"><ele>362.6666666666667</ele><time>2026-04-19T08:55:07.008Z</time></trkpt><trkpt lat="44.4050674" lon="10.502043"><ele>363.3333333333333</ele><time>2026-04-19T08:55:08.007Z</time></trkpt><trkpt lat="44.4050698" lon="10.5018131"><ele>364.0</ele><time>2026-04-19T08:55:09.009Z</time></trkpt><trkpt lat="44.4050676" lon="10.5015841"><ele>364.0</ele><time>2026-04-19T08:55:10.008Z</time></trkpt><trkpt lat="44.4050573" lon="10.5013553"><ele>364.0</ele><time>2026-04-19T08:55:11.009Z</time></trkpt><trkpt lat="44.4050361" lon="10.5011253"><ele>364.0</ele><time>2026-04-19T08:55:12.008Z</time></trkpt><trkpt lat="44.4050044" lon="10.5008913"><ele>364.0</ele><time>2026-04-19T08:55:13.009Z</time></trkpt><trkpt lat="44.4049344" lon="10.5006545"><ele>364.0</ele><time>2026-04-19T08:55:14.008Z</time></trkpt><trkpt lat="44.4048609" lon="10.500421"><ele>364.0</ele><time>2026-04-19T08:55:15.009Z</time></trkpt><trkpt lat="44.4047768" lon="10.5001837"><ele>362.66666666666663</ele><time>2026-04-19T08:55:16.008Z</time></trkpt><trkpt lat="44.4046848" lon="10.4999286"><ele>361.3333333333333</ele><time>2026-04-19T08:55:17.008Z</time></trkpt><trkpt lat="44.4045908" lon="10.4996745"><ele>360.0</ele><time>2026-04-19T08:55:18.008Z</time></trkpt><trkpt lat="44.4044962" lon="10.4994106"><ele>360.6666666666667</ele><time>2026-04-19T08:55:19.008Z</time></trkpt><trkpt lat="44.4043993" lon="10.4991522"><ele>361.33333333333337</ele><time>2026-04-19T08:55:20.009Z</time></trkpt><trkpt lat="44.4043053" lon="10.4988858"><ele>362.0</ele><time>2026-04-19T08:55:21.009Z</time></trkpt><trkpt lat="44.4042102" lon="10.4986195"><ele>362.0</ele><time>2026-04-19T08:55:22.009Z</time></trkpt><trkpt lat="44.404114" lon="10.4983556"><ele>362.0</ele><time>2026-04-19T08:55:23.007Z</time></trkpt><trkpt lat="44.4040127" lon="10.4980763"><ele>362.0</ele><time>2026-04-19T08:55:24.009Z</time></trkpt><trkpt lat="44.4039092" lon="10.4977952"><ele>372.5</ele><time>2026-04-19T08:55:25.008Z</time></trkpt><trkpt lat="44.4038036" lon="10.4975115"><ele>383.0</ele><time>2026-04-19T08:55:26.008Z</time></trkpt><trkpt lat="44.403697" lon="10.4972262"><ele>377.5</ele><time>2026-04-19T08:55:27.009Z</time></trkpt><trkpt lat="44.4035896" lon="10.496942"><ele>372.0</ele><time>2026-04-19T08:55:28.008Z</time></trkpt><trkpt lat="44.4034851" lon="10.496654"><ele>372.0</ele><time>2026-04-19T08:55:29.008Z</time></trkpt><trkpt lat="44.4033798" lon="10.4963668"><ele>372.0</ele><time>2026-04-19T08:55:30.009Z</time></trkpt><trkpt lat="44.4032758" lon="10.496077"><ele>368.0</ele><time>2026-04-19T08:55:31.009Z</time></trkpt><trkpt lat="44.4031691" lon="10.4957883"><ele>364.0</ele><time>2026-04-19T08:55:32.009Z</time></trkpt><trkpt lat="44.4030664" lon="10.4955124"><ele>368.0</ele><time>2026-04-19T08:55:33.009Z</time></trkpt><trkpt lat="44.4029663" lon="10.4952422"><ele>372.0</ele><time>2026-04-19T08:55:34.009Z</time></trkpt><trkpt lat="44.402866" lon="10.4949703"><ele>376.0</ele><time>2026-04-19T08:55:35.007Z</time></trkpt><trkpt lat="44.4027712" lon="10.4947047"><ele>373.66666666666663</ele><time>2026-04-19T08:55:36.007Z</time></trkpt><trkpt lat="44.402681" lon="10.4944462"><ele>371.3333333333333</ele><time>2026-04-19T08:55:37.009Z</time></trkpt><trkpt lat="44.4025913" lon="10.4942004"><ele>369.0</ele><time>2026-04-19T08:55:38.006Z</time></trkpt><trkpt lat="44.4025097" lon="10.4939654"><ele>368.0</ele><time>2026-04-19T08:55:39.009Z</time></trkpt><trkpt lat="44.4024283" lon="10.4937324"><ele>367.0</ele><time>2026-04-19T08:55:40.008Z</time></trkpt><trkpt lat="44.4023602" lon="10.4934992"><ele>366.0</ele><time>2026-04-19T08:55:41.009Z</time></trkpt><trkpt lat="44.402302" lon="10.4932602"><ele>366.0</ele><time>2026-04-19T08:55:42.009Z</time></trkpt><trkpt lat="44.402299" lon="10.4929894"><ele>366.0</ele><time>2026-04-19T08:55:43.008Z</time></trkpt><trkpt lat="44.4023026" lon="10.4927039"><ele>366.0</ele><time>2026-04-19T08:55:44.009Z</time></trkpt><trkpt lat="44.4023285" lon="10.4923946"><ele>365.0</ele><time>2026-04-19T08:55:45.008Z</time></trkpt><trkpt lat="44.4023601" lon="10.4920731"><ele>364.0</ele><time>2026-04-19T08:55:46.009Z</time></trkpt><trkpt lat="44.4024025" lon="10.4917403"><ele>364.0</ele><time>2026-04-19T08:55:47.009Z</time></trkpt><trkpt lat="44.4024459" lon="10.4913955"><ele>364.0</ele><time>2026-04-19T08:55:48.009Z</time></trkpt><trkpt lat="44.4024893" lon="10.4910581"><ele>365.5</ele><time>2026-04-19T08:55:49.008Z</time></trkpt><trkpt lat="44.402535" lon="10.4907292"><ele>367.0</ele><time>2026-04-19T08:55:50.008Z</time></trkpt><trkpt lat="44.4025762" lon="10.4904"><ele>367.5</ele><time>2026-04-19T08:55:51.008Z</time></trkpt><trkpt lat="44.4026154" lon="10.4900791"><ele>368.0</ele><time>2026-04-19T08:55:52.009Z</time></trkpt><trkpt lat="44.4026564" lon="10.4897655"><ele>367.6666666666667</ele><time>2026-04-19T08:55:53.006Z</time></trkpt><trkpt lat="44.402695" lon="10.4894534"><ele>367.3333333333333</ele><time>2026-04-19T08:55:54.007Z</time></trkpt><trkpt lat="44.4027321" lon="10.4891523"><ele>367.0</ele><time>2026-04-19T08:55:55.008Z</time></trkpt><trkpt lat="44.4027716" lon="10.4888495"><ele>366.0</ele><time>2026-04-19T08:55:56.007Z</time></trkpt><trkpt lat="44.4028122" lon="10.488559"><ele>365.0</ele><time>2026-04-19T08:55:57.009Z</time></trkpt><trkpt lat="44.402855" lon="10.4882648"><ele>364.0</ele><time>2026-04-19T08:55:58.008Z</time></trkpt><trkpt lat="44.4028933" lon="10.4879793"><ele>364.0</ele><time>2026-04-19T08:55:59.009Z</time></trkpt><trkpt lat="44.4029314" lon="10.4876919"><ele>364.0</ele><time>2026-04-19T08:56:00.009Z</time></trkpt><trkpt lat="44.4029652" lon="10.4874017"><ele>364.0</ele><time>2026-04-19T08:56:01.008Z</time></trkpt><trkpt lat="44.4029977" lon="10.4871118"><ele>364.66666666666663</ele><time>2026-04-19T08:56:02.009Z</time></trkpt><trkpt lat="44.4030324" lon="10.4868193"><ele>365.3333333333333</ele><time>2026-04-19T08:56:03.009Z</time></trkpt><trkpt lat="44.4030691" lon="10.4865252"><ele>366.0</ele><time>2026-04-19T08:56:04.009Z</time></trkpt><trkpt lat="44.4031089" lon="10.4862291"><ele>366.0</ele><time>2026-04-19T08:56:05.009Z</time></trkpt><trkpt lat="44.403148" lon="10.4859305"><ele>366.0</ele><time>2026-04-19T08:56:06.007Z</time></trkpt><trkpt lat="44.4031898" lon="10.4856309"><ele>366.0</ele><time>2026-04-19T08:56:07.008Z</time></trkpt><trkpt lat="44.4032267" lon="10.4853257"><ele>367.0</ele><time>2026-04-19T08:56:08.007Z</time></trkpt><trkpt lat="44.4032652" lon="10.4850208"><ele>368.0</ele><time>2026-04-19T08:56:09.008Z</time></trkpt><trkpt lat="44.4033027" lon="10.4847118"><ele>369.0</ele><time>2026-04-19T08:56:10.008Z</time></trkpt><trkpt lat="44.4033437" lon="10.4844072"><ele>370.0</ele><time>2026-04-19T08:56:11.009Z</time></trkpt><trkpt lat="44.4033816" lon="10.4840981"><ele>371.0</ele><time>2026-04-19T08:56:12.008Z</time></trkpt><trkpt lat="44.4034191" lon="10.4837908"><ele>372.0</ele><time>2026-04-19T08:56:13.009Z</time></trkpt><trkpt lat="44.4034526" lon="10.4834927"><ele>372.0</ele><time>2026-04-19T08:56:14.009Z</time></trkpt><trkpt lat="44.4034767" lon="10.4831953"><ele>372.0</ele><time>2026-04-19T08:56:15.008Z</time></trkpt><trkpt lat="44.4034866" lon="10.4828934"><ele>372.0</ele><time>2026-04-19T08:56:16.007Z</time></trkpt><trkpt lat="44.4034712" lon="10.4825832"><ele>374.0</ele><time>2026-04-19T08:56:17.009Z</time></trkpt><trkpt lat="44.4034431" lon="10.4822766"><ele>376.0</ele><time>2026-04-19T08:56:18.008Z</time></trkpt><trkpt lat="44.4034033" lon="10.4819667"><ele>378.0</ele><time>2026-04-19T08:56:19.008Z</time></trkpt><trkpt lat="44.4033652" lon="10.4816597"><ele>378.6666666666667</ele><time>2026-04-19T08:56:20.009Z</time></trkpt><trkpt lat="44.4033215" lon="10.4813624"><ele>379.33333333333337</ele><time>2026-04-19T08:56:21.009Z</time></trkpt><trkpt lat="44.4032745" lon="10.4810637"><ele>380.0</ele><time>2026-04-19T08:56:22.009Z</time></trkpt><trkpt lat="44.4032246" lon="10.480764"><ele>380.33333333333337</ele><time>2026-04-19T08:56:23.008Z</time></trkpt><trkpt lat="44.4031761" lon="10.4804721"><ele>380.6666666666667</ele><time>2026-04-19T08:56:24.008Z</time></trkpt><trkpt lat="44.4031285" lon="10.4801991"><ele>381.0</ele><time>2026-04-19T08:56:25.008Z</time></trkpt><trkpt lat="44.4030791" lon="10.4799449"><ele>380.3333333333333</ele><time>2026-04-19T08:56:26.007Z</time></trkpt><trkpt lat="44.4030175" lon="10.4797105"><ele>379.66666666666663</ele><time>2026-04-19T08:56:27.009Z</time></trkpt><trkpt lat="44.4029375" lon="10.4794832"><ele>379.0</ele><time>2026-04-19T08:56:28.007Z</time></trkpt><trkpt lat="44.4028335" lon="10.4792801"><ele>380.66666666666663</ele><time>2026-04-19T08:56:29.008Z</time></trkpt><trkpt lat="44.4027163" lon="10.4790695"><ele>382.3333333333333</ele><time>2026-04-19T08:56:30.008Z</time></trkpt><trkpt lat="44.4025826" lon="10.4788572"><ele>384.0</ele><time>2026-04-19T08:56:31.007Z</time></trkpt><trkpt lat="44.4024408" lon="10.478636"><ele>384.0</ele><time>2026-04-19T08:56:32.008Z</time></trkpt><trkpt lat="44.4022905" lon="10.4784135"><ele>384.0</ele><time>2026-04-19T08:56:33.009Z</time></trkpt><trkpt lat="44.4021262" lon="10.4781722"><ele>385.33333333333337</ele><time>2026-04-19T08:56:34.009Z</time></trkpt><trkpt lat="44.401971" lon="10.4779334"><ele>386.6666666666667</ele><time>2026-04-19T08:56:35.009Z</time></trkpt><trkpt lat="44.401827" lon="10.4777234"><ele>388.0</ele><time>2026-04-19T08:56:36.009Z</time></trkpt><trkpt lat="44.4016868" lon="10.4775191"><ele>388.0</ele><time>2026-04-19T08:56:37.009Z</time></trkpt><trkpt lat="44.4015558" lon="10.4772992"><ele>388.0</ele><time>2026-04-19T08:56:38.009Z</time></trkpt><trkpt lat="44.4014384" lon="10.4770721"><ele>388.0</ele><time>2026-04-19T08:56:39.008Z</time></trkpt><trkpt lat="44.4013281" lon="10.4768381"><ele>391.6666666666667</ele><time>2026-04-19T08:56:40.008Z</time></trkpt><trkpt lat="44.4012294" lon="10.4765877"><ele>395.33333333333337</ele><time>2026-04-19T08:56:41.009Z</time></trkpt><trkpt lat="44.401133" lon="10.4763376"><ele>399.0</ele><time>2026-04-19T08:56:42.009Z</time></trkpt><trkpt lat="44.4010324" lon="10.4760821"><ele>399.0</ele><time>2026-04-19T08:56:43.008Z</time></trkpt><trkpt lat="44.4009333" lon="10.4758257"><ele>399.0</ele><time>2026-04-19T08:56:44.008Z</time></trkpt><trkpt lat="44.400836" lon="10.4755711"><ele>399.0</ele><time>2026-04-19T08:56:45.009Z</time></trkpt><trkpt lat="44.4007417" lon="10.475339"><ele>397.0</ele><time>2026-04-19T08:56:46.009Z</time></trkpt><trkpt lat="44.4006559" lon="10.4751128"><ele>395.0</ele><time>2026-04-19T08:56:47.009Z</time></trkpt><trkpt lat="44.4005699" lon="10.4748861"><ele>393.0</ele><time>2026-04-19T08:56:48.008Z</time></trkpt><trkpt lat="44.4004913" lon="10.4746764"><ele>397.66666666666663</ele><time>2026-04-19T08:56:49.009Z</time></trkpt><trkpt lat="44.4004147" lon="10.4744741"><ele>402.3333333333333</ele><time>2026-04-19T08:56:50.008Z</time></trkpt><trkpt lat="44.4003494" lon="10.4742794"><ele>407.0</ele><time>2026-04-19T08:56:51.008Z</time></trkpt><trkpt lat="44.400299" lon="10.4740759"><ele>407.0</ele><time>2026-04-19T08:56:52.007Z</time></trkpt><trkpt lat="44.4002633" lon="10.4738537"><ele>407.0</ele><time>2026-04-19T08:56:53.007Z</time></trkpt><trkpt lat="44.4002542" lon="10.4736311"><ele>407.0</ele><time>2026-04-19T08:56:54.008Z</time></trkpt><trkpt lat="44.4002582" lon="10.4734072"><ele>405.3333333333333</ele><time>2026-04-19T08:56:55.007Z</time></trkpt><trkpt lat="44.400293" lon="10.4731882"><ele>403.66666666666663</ele><time>2026-04-19T08:56:56.009Z</time></trkpt><trkpt lat="44.4003569" lon="10.4729582"><ele>402.0</ele><time>2026-04-19T08:56:57.009Z</time></trkpt><trkpt lat="44.4004262" lon="10.4727159"><ele>397.33333333333337</ele><time>2026-04-19T08:56:58.009Z</time></trkpt><trkpt lat="44.4005114" lon="10.4724563"><ele>392.6666666666667</ele><time>2026-04-19T08:56:59.007Z</time></trkpt><trkpt lat="44.400599" lon="10.472189"><ele>388.0</ele><time>2026-04-19T08:57:00.008Z</time></trkpt><trkpt lat="44.4006825" lon="10.4719248"><ele>388.0</ele><time>2026-04-19T08:57:01.009Z</time></trkpt><trkpt lat="44.4007689" lon="10.4716676"><ele>388.0</ele><time>2026-04-19T08:57:02.009Z</time></trkpt><trkpt lat="44.4008517" lon="10.4714089"><ele>388.0</ele><time>2026-04-19T08:57:03.008Z</time></trkpt><trkpt lat="44.4009308" lon="10.4711675"><ele>389.6666666666667</ele><time>2026-04-19T08:57:04.008Z</time></trkpt><trkpt lat="44.40101" lon="10.4709339"><ele>391.33333333333337</ele><time>2026-04-19T08:57:05.007Z</time></trkpt><trkpt lat="44.4010853" lon="10.4706997"><ele>393.0</ele><time>2026-04-19T08:57:06.009Z</time></trkpt><trkpt lat="44.4011569" lon="10.4704726"><ele>394.0</ele><time>2026-04-19T08:57:07.009Z</time></trkpt><trkpt lat="44.4012298" lon="10.4702476"><ele>395.0</ele><time>2026-04-19T08:57:08.009Z</time></trkpt><trkpt lat="44.4013066" lon="10.4700276"><ele>396.0</ele><time>2026-04-19T08:57:09.009Z</time></trkpt><trkpt lat="44.4013862" lon="10.4697968"><ele>396.66666666666663</ele><time>2026-04-19T08:57:10.008Z</time></trkpt><trkpt lat="44.4014616" lon="10.4695734"><ele>397.3333333333333</ele><time>2026-04-19T08:57:11.009Z</time></trkpt><trkpt lat="44.4015308" lon="10.4693542"><ele>398.0</ele><time>2026-04-19T08:57:12.008Z</time></trkpt><trkpt lat="44.4016002" lon="10.4691365"><ele>398.0</ele><time>2026-04-19T08:57:13.009Z</time></trkpt><trkpt lat="44.4016677" lon="10.4689306"><ele>398.0</ele><time>2026-04-19T08:57:14.008Z</time></trkpt><trkpt lat="44.4017326" lon="10.4687338"><ele>398.0</ele><time>2026-04-19T08:57:15.007Z</time></trkpt><trkpt lat="44.401776" lon="10.4685329"><ele>398.3333333333333</ele><time>2026-04-19T08:57:16.009Z</time></trkpt><trkpt lat="44.4017934" lon="10.4683167"><ele>398.66666666666663</ele><time>2026-04-19T08:57:17.008Z</time></trkpt><trkpt lat="44.4017864" lon="10.4681046"><ele>399.0</ele><time>2026-04-19T08:57:18.008Z</time></trkpt><trkpt lat="44.4017626" lon="10.4678989"><ele>399.0</ele><time>2026-04-19T08:57:19.009Z</time></trkpt><trkpt lat="44.4017481" lon="10.4677123"><ele>399.0</ele><time>2026-04-19T08:57:20.007Z</time></trkpt><trkpt lat="44.4017536" lon="10.4675278"><ele>399.0</ele><time>2026-04-19T08:57:21.008Z</time></trkpt><trkpt lat="44.401792" lon="10.4673603"><ele>399.0</ele><time>2026-04-19T08:57:22.009Z</time></trkpt><trkpt lat="44.401855" lon="10.4672017"><ele>397.0</ele><time>2026-04-19T08:57:23.009Z</time></trkpt><trkpt lat="44.4019481" lon="10.4670507"><ele>395.0</ele><time>2026-04-19T08:57:24.008Z</time></trkpt><trkpt lat="44.4020624" lon="10.4669131"><ele>393.0</ele><time>2026-04-19T08:57:25.009Z</time></trkpt><trkpt lat="44.4022055" lon="10.4667847"><ele>390.0</ele><time>2026-04-19T08:57:26.008Z</time></trkpt><trkpt lat="44.4023605" lon="10.4666447"><ele>387.0</ele><time>2026-04-19T08:57:27.008Z</time></trkpt><trkpt lat="44.4025261" lon="10.4665004"><ele>384.0</ele><time>2026-04-19T08:57:28.007Z</time></trkpt><trkpt lat="44.4026986" lon="10.466346"><ele>384.0</ele><time>2026-04-19T08:57:29.008Z</time></trkpt><trkpt lat="44.402863" lon="10.4662027"><ele>384.0</ele><time>2026-04-19T08:57:30.008Z</time></trkpt><trkpt lat="44.4030136" lon="10.4660558"><ele>384.0</ele><time>2026-04-19T08:57:31.008Z</time></trkpt><trkpt lat="44.4031559" lon="10.4659239"><ele>384.0</ele><time>2026-04-19T08:57:32.009Z</time></trkpt><trkpt lat="44.403288" lon="10.4658118"><ele>384.0</ele><time>2026-04-19T08:57:33.008Z</time></trkpt><trkpt lat="44.4034228" lon="10.4657239"><ele>384.0</ele><time>2026-04-19T08:57:34.009Z</time></trkpt><trkpt lat="44.4035707" lon="10.4656639"><ele>384.0</ele><time>2026-04-19T08:57:35.008Z</time></trkpt><trkpt lat="44.4037287" lon="10.4656159"><ele>384.0</ele><time>2026-04-19T08:57:36.007Z</time></trkpt><trkpt lat="44.4038939" lon="10.4656042"><ele>384.0</ele><time>2026-04-19T08:57:37.008Z</time></trkpt><trkpt lat="44.4040487" lon="10.4656009"><ele>387.66666666666663</ele><time>2026-04-19T08:57:38.008Z</time></trkpt><trkpt lat="44.4042051" lon="10.4656216"><ele>391.3333333333333</ele><time>2026-04-19T08:57:39.008Z</time></trkpt><trkpt lat="44.4043329" lon="10.4657204"><ele>395.0</ele><time>2026-04-19T08:57:40.008Z</time></trkpt><trkpt lat="44.4044718" lon="10.4658348"><ele>395.0</ele><time>2026-04-19T08:57:41.008Z</time></trkpt><trkpt lat="44.4046214" lon="10.4659807"><ele>395.0</ele><time>2026-04-19T08:57:42.008Z</time></trkpt><trkpt lat="44.4047608" lon="10.4661178"><ele>395.0</ele><time>2026-04-19T08:57:43.009Z</time></trkpt><trkpt lat="44.404886" lon="10.4662558"><ele>393.5</ele><time>2026-04-19T08:57:44.008Z</time></trkpt><trkpt lat="44.40501" lon="10.4663661"><ele>392.0</ele><time>2026-04-19T08:57:45.009Z</time></trkpt><trkpt lat="44.4051323" lon="10.4664471"><ele>390.5</ele><time>2026-04-19T08:57:46.009Z</time></trkpt><trkpt lat="44.4052436" lon="10.4664789"><ele>389.0</ele><time>2026-04-19T08:57:47.008Z</time></trkpt><trkpt lat="44.4053804" lon="10.4664471"><ele>389.3333333333333</ele><time>2026-04-19T08:57:48.007Z</time></trkpt><trkpt lat="44.4055201" lon="10.4663857"><ele>389.66666666666663</ele><time>2026-04-19T08:57:49.008Z</time></trkpt><trkpt lat="44.4056741" lon="10.4662992"><ele>390.0</ele><time>2026-04-19T08:57:50.009Z</time></trkpt><trkpt lat="44.4058451" lon="10.4661973"><ele>395.0</ele><time>2026-04-19T08:57:51.009Z</time></trkpt><trkpt lat="44.4060082" lon="10.4660974"><ele>400.0</ele><time>2026-04-19T08:57:52.008Z</time></trkpt><trkpt lat="44.4061669" lon="10.4660215"><ele>405.0</ele><time>2026-04-19T08:57:53.007Z</time></trkpt><trkpt lat="44.4063193" lon="10.4659477"><ele>404.0</ele><time>2026-04-19T08:57:54.007Z</time></trkpt><trkpt lat="44.40646" lon="10.4658902"><ele>403.0</ele><time>2026-04-19T08:57:55.009Z</time></trkpt><trkpt lat="44.4066011" lon="10.4658233"><ele>402.0</ele><time>2026-04-19T08:57:56.007Z</time></trkpt><trkpt lat="44.4067411" lon="10.4657582"><ele>401.0</ele><time>2026-04-19T08:57:57.007Z</time></trkpt><trkpt lat="44.4068798" lon="10.4657078"><ele>401.0</ele><time>2026-04-19T08:57:58.009Z</time></trkpt><trkpt lat="44.4070194" lon="10.4656767"><ele>401.0</ele><time>2026-04-19T08:57:59.007Z</time></trkpt><trkpt lat="44.4071482" lon="10.4656545"><ele>401.0</ele><time>2026-04-19T08:58:00.009Z</time></trkpt><trkpt lat="44.4072732" lon="10.4656285"><ele>401.0</ele><time>2026-04-19T08:58:01.009Z</time></trkpt><trkpt lat="44.4073927" lon="10.4655877"><ele>402.25</ele><time>2026-04-19T08:58:02.009Z</time></trkpt><trkpt lat="44.4075108" lon="10.4654938"><ele>403.5</ele><time>2026-04-19T08:58:03.008Z</time></trkpt><trkpt lat="44.4076354" lon="10.4653876"><ele>404.75</ele><time>2026-04-19T08:58:04.009Z</time></trkpt><trkpt lat="44.4077623" lon="10.4652696"><ele>406.0</ele><time>2026-04-19T08:58:05.009Z</time></trkpt><trkpt lat="44.4078954" lon="10.4651252"><ele>406.0</ele><time>2026-04-19T08:58:06.008Z</time></trkpt><trkpt lat="44.4080363" lon="10.4649647"><ele>406.0</ele><time>2026-04-19T08:58:07.007Z</time></trkpt><trkpt lat="44.4081808" lon="10.4647768"><ele>406.0</ele><time>2026-04-19T08:58:08.008Z</time></trkpt><trkpt lat="44.4083182" lon="10.4646032"><ele>406.0</ele><time>2026-04-19T08:58:09.008Z</time></trkpt><trkpt lat="44.4084473" lon="10.4644431"><ele>406.0</ele><time>2026-04-19T08:58:10.008Z</time></trkpt><trkpt lat="44.4085688" lon="10.4642947"><ele>406.0</ele><time>2026-04-19T08:58:11.009Z</time></trkpt><trkpt lat="44.4086951" lon="10.4641745"><ele>404.0</ele><time>2026-04-19T08:58:12.008Z</time></trkpt><trkpt lat="44.4088303" lon="10.4640842"><ele>402.0</ele><time>2026-04-19T08:58:13.009Z</time></trkpt><trkpt lat="44.4089786" lon="10.464025"><ele>400.0</ele><time>2026-04-19T08:58:14.008Z</time></trkpt><trkpt lat="44.4091357" lon="10.463985"><ele>400.0</ele><time>2026-04-19T08:58:15.008Z</time></trkpt><trkpt lat="44.4093003" lon="10.4639386"><ele>400.0</ele><time>2026-04-19T08:58:16.009Z</time></trkpt><trkpt lat="44.4094677" lon="10.4638669"><ele>400.0</ele><time>2026-04-19T08:58:17.008Z</time></trkpt><trkpt lat="44.4096428" lon="10.4637579"><ele>402.0</ele><time>2026-04-19T08:58:18.009Z</time></trkpt><trkpt lat="44.4098104" lon="10.4636485"><ele>404.0</ele><time>2026-04-19T08:58:19.009Z</time></trkpt><trkpt lat="44.4099661" lon="10.463541"><ele>406.0</ele><time>2026-04-19T08:58:20.006Z</time></trkpt><trkpt lat="44.4101078" lon="10.4634276"><ele>406.0</ele><time>2026-04-19T08:58:21.009Z</time></trkpt><trkpt lat="44.410245" lon="10.4632919"><ele>406.0</ele><time>2026-04-19T08:58:22.009Z</time></trkpt><trkpt lat="44.4103736" lon="10.4631406"><ele>406.0</ele><time>2026-04-19T08:58:23.009Z</time></trkpt><trkpt lat="44.4104867" lon="10.4629295"><ele>404.6666666666667</ele><time>2026-04-19T08:58:24.008Z</time></trkpt><trkpt lat="44.4105886" lon="10.4627402"><ele>403.33333333333337</ele><time>2026-04-19T08:58:25.008Z</time></trkpt><trkpt lat="44.4106843" lon="10.4625515"><ele>402.0</ele><time>2026-04-19T08:58:26.008Z</time></trkpt><trkpt lat="44.4107822" lon="10.4623868"><ele>402.0</ele><time>2026-04-19T08:58:27.008Z</time></trkpt><trkpt lat="44.4108945" lon="10.4622382"><ele>402.0</ele><time>2026-04-19T08:58:28.008Z</time></trkpt><trkpt lat="44.4110147" lon="10.4621005"><ele>402.0</ele><time>2026-04-19T08:58:29.008Z</time></trkpt><trkpt lat="44.4111609" lon="10.4620111"><ele>404.25</ele><time>2026-04-19T08:58:30.008Z</time></trkpt><trkpt lat="44.4112983" lon="10.4619145"><ele>406.5</ele><time>2026-04-19T08:58:31.008Z</time></trkpt><trkpt lat="44.4114104" lon="10.4618048"><ele>408.75</ele><time>2026-04-19T08:58:32.007Z</time></trkpt><trkpt lat="44.4115171" lon="10.4616761"><ele>411.0</ele><time>2026-04-19T08:58:33.008Z</time></trkpt><trkpt lat="44.4116135" lon="10.4615271"><ele>411.0</ele><time>2026-04-19T08:58:34.007Z</time></trkpt><trkpt lat="44.4117086" lon="10.4613615"><ele>411.0</ele><time>2026-04-19T08:58:35.008Z</time></trkpt><trkpt lat="44.4118102" lon="10.4611995"><ele>411.0</ele><time>2026-04-19T08:58:36.008Z</time></trkpt><trkpt lat="44.4119276" lon="10.4610445"><ele>409.33333333333337</ele><time>2026-04-19T08:58:37.008Z</time></trkpt><trkpt lat="44.4120605" lon="10.4609104"><ele>407.6666666666667</ele><time>2026-04-19T08:58:38.007Z</time></trkpt><trkpt lat="44.4122119" lon="10.460776"><ele>406.0</ele><time>2026-04-19T08:58:39.008Z</time></trkpt><trkpt lat="44.412387" lon="10.4606439"><ele>407.0</ele><time>2026-04-19T08:58:40.008Z</time></trkpt><trkpt lat="44.4125687" lon="10.4605009"><ele>408.0</ele><time>2026-04-19T08:58:41.008Z</time></trkpt><trkpt lat="44.4127481" lon="10.4603537"><ele>409.0</ele><time>2026-04-19T08:58:42.007Z</time></trkpt><trkpt lat="44.4129087" lon="10.4602066"><ele>412.0</ele><time>2026-04-19T08:58:43.008Z</time></trkpt><trkpt lat="44.4130491" lon="10.4600492"><ele>415.0</ele><time>2026-04-19T08:58:44.009Z</time></trkpt><trkpt lat="44.4131722" lon="10.4598734"><ele>418.0</ele><time>2026-04-19T08:58:45.009Z</time></trkpt><trkpt lat="44.4132788" lon="10.4596995"><ele>415.6666666666667</ele><time>2026-04-19T08:58:46.008Z</time></trkpt><trkpt lat="44.4133936" lon="10.4595371"><ele>413.33333333333337</ele><time>2026-04-19T08:58:47.009Z</time></trkpt><trkpt lat="44.4135418" lon="10.4594322"><ele>411.0</ele><time>2026-04-19T08:58:48.007Z</time></trkpt><trkpt lat="44.4137084" lon="10.4593467"><ele>413.33333333333337</ele><time>2026-04-19T08:58:49.009Z</time></trkpt><trkpt lat="44.4138954" lon="10.459277"><ele>415.6666666666667</ele><time>2026-04-19T08:58:50.008Z</time></trkpt><trkpt lat="44.4140825" lon="10.4592315"><ele>418.0</ele><time>2026-04-19T08:58:51.007Z</time></trkpt><trkpt lat="44.4142606" lon="10.4592197"><ele>418.0</ele><time>2026-04-19T08:58:52.007Z</time></trkpt><trkpt lat="44.4144266" lon="10.4592164"><ele>418.0</ele><time>2026-04-19T08:58:53.009Z</time></trkpt><trkpt lat="44.4145717" lon="10.4592109"><ele>418.0</ele><time>2026-04-19T08:58:54.008Z</time></trkpt><trkpt lat="44.4147111" lon="10.4591811"><ele>420.6666666666667</ele><time>2026-04-19T08:58:55.009Z</time></trkpt><trkpt lat="44.414839" lon="10.4590982"><ele>423.33333333333337</ele><time>2026-04-19T08:58:56.009Z</time></trkpt><trkpt lat="44.4149644" lon="10.458964"><ele>426.0</ele><time>2026-04-19T08:58:57.008Z</time></trkpt><trkpt lat="44.4150956" lon="10.4587992"><ele>423.0</ele><time>2026-04-19T08:58:58.009Z</time></trkpt><trkpt lat="44.4152189" lon="10.4586279"><ele>420.0</ele><time>2026-04-19T08:58:59.007Z</time></trkpt><trkpt lat="44.4153379" lon="10.4584725"><ele>417.0</ele><time>2026-04-19T08:59:00.007Z</time></trkpt><trkpt lat="44.4154661" lon="10.4583501"><ele>419.66666666666663</ele><time>2026-04-19T08:59:01.008Z</time></trkpt><trkpt lat="44.4156178" lon="10.4582713"><ele>422.3333333333333</ele><time>2026-04-19T08:59:02.009Z</time></trkpt><trkpt lat="44.4157904" lon="10.458246"><ele>425.0</ele><time>2026-04-19T08:59:03.008Z</time></trkpt><trkpt lat="44.4159775" lon="10.4582468"><ele>425.0</ele><time>2026-04-19T08:59:04.009Z</time></trkpt><trkpt lat="44.4161512" lon="10.4582413"><ele>425.0</ele><time>2026-04-19T08:59:05.008Z</time></trkpt><trkpt lat="44.4163182" lon="10.4582148"><ele>425.0</ele><time>2026-04-19T08:59:06.009Z</time></trkpt><trkpt lat="44.4164743" lon="10.458151"><ele>424.66666666666663</ele><time>2026-04-19T08:59:07.007Z</time></trkpt><trkpt lat="44.416613" lon="10.4580329"><ele>424.33333333333337</ele><time>2026-04-19T08:59:08.009Z</time></trkpt><trkpt lat="44.4167446" lon="10.4578602"><ele>424.0</ele><time>2026-04-19T08:59:09.008Z</time></trkpt><trkpt lat="44.4168745" lon="10.457654"><ele>424.0</ele><time>2026-04-19T08:59:10.008Z</time></trkpt><trkpt lat="44.4169933" lon="10.4574342"><ele>424.0</ele><time>2026-04-19T08:59:11.009Z</time></trkpt><trkpt lat="44.4170845" lon="10.4571982"><ele>424.0</ele><time>2026-04-19T08:59:12.008Z</time></trkpt><trkpt lat="44.4171576" lon="10.4569663"><ele>428.6666666666667</ele><time>2026-04-19T08:59:13.009Z</time></trkpt><trkpt lat="44.4172167" lon="10.4567512"><ele>433.33333333333337</ele><time>2026-04-19T08:59:14.008Z</time></trkpt><trkpt lat="44.4172982" lon="10.4565373"><ele>438.0</ele><time>2026-04-19T08:59:15.008Z</time></trkpt><trkpt lat="44.4174187" lon="10.456331"><ele>434.66666666666663</ele><time>2026-04-19T08:59:16.009Z</time></trkpt><trkpt lat="44.4175636" lon="10.4561559"><ele>431.3333333333333</ele><time>2026-04-19T08:59:17.009Z</time></trkpt><trkpt lat="44.417699" lon="10.4560108"><ele>428.0</ele><time>2026-04-19T08:59:18.009Z</time></trkpt><trkpt lat="44.417837" lon="10.4559116"><ele>429.0</ele><time>2026-04-19T08:59:19.008Z</time></trkpt><trkpt lat="44.4179908" lon="10.4558648"><ele>430.0</ele><time>2026-04-19T08:59:20.009Z</time></trkpt><trkpt lat="44.4181731" lon="10.455867"><ele>431.0</ele><time>2026-04-19T08:59:21.009Z</time></trkpt><trkpt lat="44.4183598" lon="10.4558892"><ele>431.0</ele><time>2026-04-19T08:59:22.007Z</time></trkpt><trkpt lat="44.4185451" lon="10.4559296"><ele>431.0</ele><time>2026-04-19T08:59:23.008Z</time></trkpt><trkpt lat="44.4187331" lon="10.4559878"><ele>431.0</ele><time>2026-04-19T08:59:24.008Z</time></trkpt><trkpt lat="44.4189201" lon="10.4561009"><ele>431.0</ele><time>2026-04-19T08:59:25.009Z</time></trkpt><trkpt lat="44.4191054" lon="10.45621"><ele>431.0</ele><time>2026-04-19T08:59:26.007Z</time></trkpt><trkpt lat="44.4193053" lon="10.4562989"><ele>431.0</ele><time>2026-04-19T08:59:27.009Z</time></trkpt><trkpt lat="44.4194992" lon="10.4563661"><ele>431.66666666666663</ele><time>2026-04-19T08:59:28.009Z</time></trkpt><trkpt lat="44.4196795" lon="10.4564529"><ele>432.33333333333337</ele><time>2026-04-19T08:59:29.008Z</time></trkpt><trkpt lat="44.4198406" lon="10.4565563"><ele>433.0</ele><time>2026-04-19T08:59:30.009Z</time></trkpt><trkpt lat="44.4199776" lon="10.4566572"><ele>433.0</ele><time>2026-04-19T08:59:31.008Z</time></trkpt><trkpt lat="44.4200971" lon="10.4567018"><ele>433.0</ele><time>2026-04-19T08:59:32.009Z</time></trkpt><trkpt lat="44.4202222" lon="10.4567007"><ele>433.0</ele><time>2026-04-19T08:59:33.008Z</time></trkpt><trkpt lat="44.4203511" lon="10.4566744"><ele>433.0</ele><time>2026-04-19T08:59:34.008Z</time></trkpt><trkpt lat="44.420496" lon="10.4565957"><ele>436.75</ele><time>2026-04-19T08:59:35.008Z</time></trkpt><trkpt lat="44.4206363" lon="10.4565573"><ele>440.5</ele><time>2026-04-19T08:59:36.008Z</time></trkpt><trkpt lat="44.4207794" lon="10.4565478"><ele>444.25</ele><time>2026-04-19T08:59:37.006Z</time></trkpt><trkpt lat="44.4209117" lon="10.4566259"><ele>448.0</ele><time>2026-04-19T08:59:38.007Z</time></trkpt><trkpt lat="44.4210499" lon="10.4567265"><ele>448.0</ele><time>2026-04-19T08:59:39.008Z</time></trkpt><trkpt lat="44.4211739" lon="10.4568598"><ele>448.0</ele><time>2026-04-19T08:59:40.008Z</time></trkpt><trkpt lat="44.4212814" lon="10.4570121"><ele>448.0</ele><time>2026-04-19T08:59:41.008Z</time></trkpt><trkpt lat="44.4213736" lon="10.4571688"><ele>449.75</ele><time>2026-04-19T08:59:42.008Z</time></trkpt><trkpt lat="44.421438" lon="10.4573502"><ele>451.5</ele><time>2026-04-19T08:59:43.008Z</time></trkpt><trkpt lat="44.4215343" lon="10.45749"><ele>453.25</ele><time>2026-04-19T08:59:44.009Z</time></trkpt><trkpt lat="44.4216469" lon="10.4576219"><ele>455.0</ele><time>2026-04-19T08:59:45.009Z</time></trkpt><trkpt lat="44.4217819" lon="10.45775"><ele>455.0</ele><time>2026-04-19T08:59:46.008Z</time></trkpt><trkpt lat="44.4219261" lon="10.4578964"><ele>455.0</ele><time>2026-04-19T08:59:47.007Z</time></trkpt><trkpt lat="44.422059" lon="10.4580385"><ele>455.0</ele><time>2026-04-19T08:59:48.009Z</time></trkpt><trkpt lat="44.4221904" lon="10.4581562"><ele>456.66666666666663</ele><time>2026-04-19T08:59:49.008Z</time></trkpt><trkpt lat="44.4223264" lon="10.458245"><ele>458.33333333333337</ele><time>2026-04-19T08:59:50.008Z</time></trkpt><trkpt lat="44.4224781" lon="10.4582996"><ele>460.0</ele><time>2026-04-19T08:59:51.008Z</time></trkpt><trkpt lat="44.4226412" lon="10.4583292"><ele>460.0</ele><time>2026-04-19T08:59:52.009Z</time></trkpt><trkpt lat="44.4228247" lon="10.4583481"><ele>460.0</ele><time>2026-04-19T08:59:53.008Z</time></trkpt><trkpt lat="44.4230279" lon="10.4583609"><ele>460.0</ele><time>2026-04-19T08:59:54.007Z</time></trkpt><trkpt lat="44.4232336" lon="10.4583754"><ele>462.0</ele><time>2026-04-19T08:59:55.009Z</time></trkpt><trkpt lat="44.4234559" lon="10.4583839"><ele>464.0</ele><time>2026-04-19T08:59:56.006Z</time></trkpt><trkpt lat="44.4236885" lon="10.4583813"><ele>466.66666666666663</ele><time>2026-04-19T08:59:57.007Z</time></trkpt><trkpt lat="44.4239022" lon="10.4583771"><ele>469.33333333333337</ele><time>2026-04-19T08:59:58.008Z</time></trkpt><trkpt lat="44.4241044" lon="10.4583794"><ele>472.0</ele><time>2026-04-19T08:59:59.007Z</time></trkpt><trkpt lat="44.4242938" lon="10.4583673"><ele>472.0</ele><time>2026-04-19T09:00:00.008Z</time></trkpt><trkpt lat="44.4244594" lon="10.4583521"><ele>472.0</ele><time>2026-04-19T09:00:01.008Z</time></trkpt><trkpt lat="44.4245991" lon="10.4583155"><ele>472.0</ele><time>2026-04-19T09:00:02.009Z</time></trkpt><trkpt lat="44.4247308" lon="10.4582031"><ele>471.33333333333337</ele><time>2026-04-19T09:00:03.009Z</time></trkpt><trkpt lat="44.4248631" lon="10.4580879"><ele>470.66666666666663</ele><time>2026-04-19T09:00:04.008Z</time></trkpt><trkpt lat="44.425025" lon="10.4579797"><ele>470.0</ele><time>2026-04-19T09:00:05.007Z</time></trkpt><trkpt lat="44.4251975" lon="10.4578937"><ele>477.3333333333333</ele><time>2026-04-19T09:00:06.008Z</time></trkpt><trkpt lat="44.4253875" lon="10.4578435"><ele>484.66666666666663</ele><time>2026-04-19T09:00:07.009Z</time></trkpt><trkpt lat="44.4255837" lon="10.4578113"><ele>492.0</ele><time>2026-04-19T09:00:08.009Z</time></trkpt><trkpt lat="44.4257931" lon="10.4577413"><ele>492.0</ele><time>2026-04-19T09:00:09.008Z</time></trkpt><trkpt lat="44.4260108" lon="10.4576632"><ele>492.0</ele><time>2026-04-19T09:00:10.007Z</time></trkpt><trkpt lat="44.4262379" lon="10.4575798"><ele>488.0</ele><time>2026-04-19T09:00:11.008Z</time></trkpt><trkpt lat="44.4264728" lon="10.4574865"><ele>484.0</ele><time>2026-04-19T09:00:12.008Z</time></trkpt><trkpt lat="44.4266975" lon="10.457397"><ele>484.0</ele><time>2026-04-19T09:00:13.008Z</time></trkpt><trkpt lat="44.4269036" lon="10.4573132"><ele>484.0</ele><time>2026-04-19T09:00:14.009Z</time></trkpt><trkpt lat="44.4271035" lon="10.4572326"><ele>484.0</ele><time>2026-04-19T09:00:15.008Z</time></trkpt><trkpt lat="44.4273086" lon="10.4571578"><ele>491.0</ele><time>2026-04-19T09:00:16.008Z</time></trkpt><trkpt lat="44.4275205" lon="10.457104"><ele>498.0</ele><time>2026-04-19T09:00:17.008Z</time></trkpt><trkpt lat="44.4277289" lon="10.4570667"><ele>505.0</ele><time>2026-04-19T09:00:18.009Z</time></trkpt><trkpt lat="44.4279248" lon="10.4570231"><ele>502.6666666666667</ele><time>2026-04-19T09:00:19.008Z</time></trkpt><trkpt lat="44.4280865" lon="10.4569978"><ele>500.33333333333337</ele><time>2026-04-19T09:00:20.008Z</time></trkpt><trkpt lat="44.428242" lon="10.4569618"><ele>498.0</ele><time>2026-04-19T09:00:21.008Z</time></trkpt><trkpt lat="44.4283731" lon="10.4568881"><ele>498.0</ele><time>2026-04-19T09:00:22.009Z</time></trkpt><trkpt lat="44.4284931" lon="10.456758"><ele>498.0</ele><time>2026-04-19T09:00:23.008Z</time></trkpt><trkpt lat="44.4285884" lon="10.4565768"><ele>498.0</ele><time>2026-04-19T09:00:24.008Z</time></trkpt><trkpt lat="44.428668" lon="10.4563888"><ele>501.0</ele><time>2026-04-19T09:00:25.008Z</time></trkpt><trkpt lat="44.4287531" lon="10.456226"><ele>504.0</ele><time>2026-04-19T09:00:26.007Z</time></trkpt><trkpt lat="44.4288571" lon="10.4560964"><ele>507.0</ele><time>2026-04-19T09:00:27.008Z</time></trkpt><trkpt lat="44.4289761" lon="10.456017"><ele>510.0</ele><time>2026-04-19T09:00:28.009Z</time></trkpt><trkpt lat="44.4291064" lon="10.4559679"><ele>510.0</ele><time>2026-04-19T09:00:29.008Z</time></trkpt><trkpt lat="44.4292506" lon="10.4560022"><ele>510.0</ele><time>2026-04-19T09:00:30.007Z</time></trkpt><trkpt lat="44.4293781" lon="10.4559999"><ele>510.0</ele><time>2026-04-19T09:00:31.008Z</time></trkpt><trkpt lat="44.4295123" lon="10.4559747"><ele>510.0</ele><time>2026-04-19T09:00:32.008Z</time></trkpt><trkpt lat="44.4296357" lon="10.4558653"><ele>511.66666666666663</ele><time>2026-04-19T09:00:33.007Z</time></trkpt><trkpt lat="44.4297439" lon="10.4556952"><ele>513.3333333333333</ele><time>2026-04-19T09:00:34.007Z</time></trkpt><trkpt lat="44.429862" lon="10.4555056"><ele>515.0</ele><time>2026-04-19T09:00:35.009Z</time></trkpt><trkpt lat="44.4299677" lon="10.455298"><ele>515.0</ele><time>2026-04-19T09:00:36.007Z</time></trkpt><trkpt lat="44.4301136" lon="10.4551101"><ele>515.0</ele><time>2026-04-19T09:00:37.009Z</time></trkpt><trkpt lat="44.4302841" lon="10.4549226"><ele>515.0</ele><time>2026-04-19T09:00:38.009Z</time></trkpt><trkpt lat="44.4304626" lon="10.4547315"><ele>513.0</ele><time>2026-04-19T09:00:39.009Z</time></trkpt><trkpt lat="44.4306541" lon="10.4545362"><ele>511.0</ele><time>2026-04-19T09:00:40.009Z</time></trkpt><trkpt lat="44.430863" lon="10.4543473"><ele>511.0</ele><time>2026-04-19T09:00:41.008Z</time></trkpt><trkpt lat="44.4310736" lon="10.4541881"><ele>511.0</ele><time>2026-04-19T09:00:42.008Z</time></trkpt><trkpt lat="44.4312756" lon="10.4540428"><ele>510.33333333333337</ele><time>2026-04-19T09:00:43.008Z</time></trkpt><trkpt lat="44.4314651" lon="10.4539013"><ele>509.66666666666663</ele><time>2026-04-19T09:00:44.008Z</time></trkpt><trkpt lat="44.4316451" lon="10.4537533"><ele>509.0</ele><time>2026-04-19T09:00:45.009Z</time></trkpt><trkpt lat="44.431817" lon="10.4536142"><ele>510.0</ele><time>2026-04-19T09:00:46.009Z</time></trkpt><trkpt lat="44.4319914" lon="10.4535192"><ele>511.0</ele><time>2026-04-19T09:00:47.009Z</time></trkpt><trkpt lat="44.4321687" lon="10.453454"><ele>512.0</ele><time>2026-04-19T09:00:48.008Z</time></trkpt><trkpt lat="44.4323383" lon="10.4533983"><ele>512.0</ele><time>2026-04-19T09:00:49.007Z</time></trkpt><trkpt lat="44.4324913" lon="10.4533274"><ele>512.0</ele><time>2026-04-19T09:00:50.008Z</time></trkpt><trkpt lat="44.4326449" lon="10.4532109"><ele>512.0</ele><time>2026-04-19T09:00:51.009Z</time></trkpt><trkpt lat="44.4327873" lon="10.4530864"><ele>512.6666666666666</ele><time>2026-04-19T09:00:52.008Z</time></trkpt><trkpt lat="44.4329147" lon="10.4529282"><ele>513.3333333333334</ele><time>2026-04-19T09:00:53.009Z</time></trkpt><trkpt lat="44.4330431" lon="10.4527913"><ele>514.0</ele><time>2026-04-19T09:00:54.009Z</time></trkpt><trkpt lat="44.4331609" lon="10.4526414"><ele>514.0</ele><time>2026-04-19T09:00:55.009Z</time></trkpt><trkpt lat="44.4332651" lon="10.4524846"><ele>514.0</ele><time>2026-04-19T09:00:56.009Z</time></trkpt><trkpt lat="44.4333437" lon="10.4523216"><ele>514.0</ele><time>2026-04-19T09:00:57.009Z</time></trkpt><trkpt lat="44.4334142" lon="10.4521552"><ele>514.0</ele><time>2026-04-19T09:00:58.007Z</time></trkpt><trkpt lat="44.4334732" lon="10.4520183"><ele>513.0</ele><time>2026-04-19T09:00:59.007Z</time></trkpt><trkpt lat="44.4335547" lon="10.4519022"><ele>512.0</ele><time>2026-04-19T09:01:00.009Z</time></trkpt><trkpt lat="44.4336546" lon="10.4518305"><ele>511.0</ele><time>2026-04-19T09:01:01.008Z</time></trkpt><trkpt lat="44.4337646" lon="10.4517885"><ele>510.0</ele><time>2026-04-19T09:01:02.008Z</time></trkpt><trkpt lat="44.4338785" lon="10.4517568"><ele>510.0</ele><time>2026-04-19T09:01:03.007Z</time></trkpt><trkpt lat="44.4339761" lon="10.4517264"><ele>510.0</ele><time>2026-04-19T09:01:04.008Z</time></trkpt><trkpt lat="44.4340693" lon="10.4516814"><ele>510.0</ele><time>2026-04-19T09:01:05.006Z</time></trkpt><trkpt lat="44.4341441" lon="10.451601"><ele>510.0</ele><time>2026-04-19T09:01:06.008Z</time></trkpt><trkpt lat="44.4342083" lon="10.4514889"><ele>510.0</ele><time>2026-04-19T09:01:07.008Z</time></trkpt><trkpt lat="44.4342506" lon="10.4513398"><ele>510.75</ele><time>2026-04-19T09:01:08.009Z</time></trkpt><trkpt lat="44.4342735" lon="10.4511573"><ele>511.5</ele><time>2026-04-19T09:01:09.008Z</time></trkpt><trkpt lat="44.4342859" lon="10.4509644"><ele>512.25</ele><time>2026-04-19T09:01:10.008Z</time></trkpt><trkpt lat="44.4342947" lon="10.4507808"><ele>513.0</ele><time>2026-04-19T09:01:11.009Z</time></trkpt><trkpt lat="44.4343059" lon="10.4506077"><ele>513.5</ele><time>2026-04-19T09:01:12.009Z</time></trkpt><trkpt lat="44.4343149" lon="10.4504367"><ele>514.0</ele><time>2026-04-19T09:01:13.008Z</time></trkpt><trkpt lat="44.4343496" lon="10.4502856"><ele>514.5</ele><time>2026-04-19T09:01:14.008Z</time></trkpt><trkpt lat="44.4344114" lon="10.4501482"><ele>515.0</ele><time>2026-04-19T09:01:15.007Z</time></trkpt><trkpt lat="44.4344922" lon="10.450022"><ele>515.0</ele><time>2026-04-19T09:01:16.007Z</time></trkpt><trkpt lat="44.4346194" lon="10.4498976"><ele>515.0</ele><time>2026-04-19T09:01:17.008Z</time></trkpt><trkpt lat="44.4347461" lon="10.4497814"><ele>515.0</ele><time>2026-04-19T09:01:18.008Z</time></trkpt><trkpt lat="44.4348778" lon="10.4496702"><ele>516.75</ele><time>2026-04-19T09:01:19.007Z</time></trkpt><trkpt lat="44.4350196" lon="10.4495836"><ele>518.5</ele><time>2026-04-19T09:01:20.008Z</time></trkpt><trkpt lat="44.4351667" lon="10.44953"><ele>520.25</ele><time>2026-04-19T09:01:21.008Z</time></trkpt><trkpt lat="44.4353041" lon="10.4494885"><ele>522.0</ele><time>2026-04-19T09:01:22.007Z</time></trkpt><trkpt lat="44.435441" lon="10.4494575"><ele>524.5</ele><time>2026-04-19T09:01:23.008Z</time></trkpt><trkpt lat="44.4355782" lon="10.449433"><ele>527.0</ele><time>2026-04-19T09:01:24.007Z</time></trkpt><trkpt lat="44.4357205" lon="10.4494163"><ele>529.5</ele><time>2026-04-19T09:01:25.007Z</time></trkpt><trkpt lat="44.4358683" lon="10.4494076"><ele>532.0</ele><time>2026-04-19T09:01:26.008Z</time></trkpt><trkpt lat="44.4360219" lon="10.4494037"><ele>532.0</ele><time>2026-04-19T09:01:27.007Z</time></trkpt><trkpt lat="44.4361873" lon="10.4493988"><ele>532.0</ele><time>2026-04-19T09:01:28.008Z</time></trkpt><trkpt lat="44.4363636" lon="10.4493909"><ele>532.0</ele><time>2026-04-19T09:01:29.008Z</time></trkpt><trkpt lat="44.4365469" lon="10.4493821"><ele>533.6666666666667</ele><time>2026-04-19T09:01:30.008Z</time></trkpt><trkpt lat="44.4367291" lon="10.4493761"><ele>535.3333333333334</ele><time>2026-04-19T09:01:31.007Z</time></trkpt><trkpt lat="44.4369064" lon="10.4493757"><ele>537.0</ele><time>2026-04-19T09:01:32.009Z</time></trkpt><trkpt lat="44.4370717" lon="10.4493735"><ele>538.3333333333334</ele><time>2026-04-19T09:01:33.008Z</time></trkpt><trkpt lat="44.4372292" lon="10.4493674"><ele>539.6666666666667</ele><time>2026-04-19T09:01:34.008Z</time></trkpt><trkpt lat="44.4373813" lon="10.4493472"><ele>541.0</ele><time>2026-04-19T09:01:35.009Z</time></trkpt><trkpt lat="44.4375271" lon="10.4492959"><ele>541.0</ele><time>2026-04-19T09:01:36.009Z</time></trkpt><trkpt lat="44.4376738" lon="10.4492143"><ele>541.0</ele><time>2026-04-19T09:01:37.008Z</time></trkpt><trkpt lat="44.4378112" lon="10.449118"><ele>541.0</ele><time>2026-04-19T09:01:38.007Z</time></trkpt><trkpt lat="44.43794" lon="10.4490201"><ele>541.5</ele><time>2026-04-19T09:01:39.008Z</time></trkpt><trkpt lat="44.438054" lon="10.4489342"><ele>542.0</ele><time>2026-04-19T09:01:40.008Z</time></trkpt><trkpt lat="44.4381616" lon="10.4488651"><ele>542.5</ele><time>2026-04-19T09:01:41.008Z</time></trkpt><trkpt lat="44.4382731" lon="10.4488761"><ele>543.0</ele><time>2026-04-19T09:01:42.009Z</time></trkpt><trkpt lat="44.438379" lon="10.4489214"><ele>543.0</ele><time>2026-04-19T09:01:43.008Z</time></trkpt><trkpt lat="44.4384848" lon="10.4490231"><ele>543.0</ele><time>2026-04-19T09:01:44.009Z</time></trkpt><trkpt lat="44.4386037" lon="10.4491446"><ele>543.0</ele><time>2026-04-19T09:01:45.008Z</time></trkpt><trkpt lat="44.4387501" lon="10.4492638"><ele>543.0</ele><time>2026-04-19T09:01:46.008Z</time></trkpt><trkpt lat="44.4388891" lon="10.4493605"><ele>548.0</ele><time>2026-04-19T09:01:47.008Z</time></trkpt><trkpt lat="44.4390297" lon="10.4494531"><ele>553.0</ele><time>2026-04-19T09:01:48.008Z</time></trkpt><trkpt lat="44.43919" lon="10.449494"><ele>558.0</ele><time>2026-04-19T09:01:49.009Z</time></trkpt><trkpt lat="44.4393514" lon="10.4495001"><ele>558.0</ele><time>2026-04-19T09:01:50.009Z</time></trkpt><trkpt lat="44.4395198" lon="10.4494912"><ele>558.0</ele><time>2026-04-19T09:01:51.009Z</time></trkpt><trkpt lat="44.4396918" lon="10.44949"><ele>558.0</ele><time>2026-04-19T09:01:52.009Z</time></trkpt><trkpt lat="44.4398649" lon="10.4495663"><ele>559.0</ele><time>2026-04-19T09:01:53.008Z</time></trkpt><trkpt lat="44.4400298" lon="10.4496522"><ele>560.0</ele><time>2026-04-19T09:01:54.007Z</time></trkpt><trkpt lat="44.4401899" lon="10.4497454"><ele>561.0</ele><time>2026-04-19T09:01:55.008Z</time></trkpt><trkpt lat="44.4403391" lon="10.4498168"><ele>562.75</ele><time>2026-04-19T09:01:56.008Z</time></trkpt><trkpt lat="44.4404824" lon="10.4498641"><ele>564.5</ele><time>2026-04-19T09:01:57.008Z</time></trkpt><trkpt lat="44.4406175" lon="10.4498765"><ele>566.25</ele><time>2026-04-19T09:01:58.008Z</time></trkpt><trkpt lat="44.4407617" lon="10.4498572"><ele>568.0</ele><time>2026-04-19T09:01:59.008Z</time></trkpt><trkpt lat="44.4409131" lon="10.4498067"><ele>568.0</ele><time>2026-04-19T09:02:00.009Z</time></trkpt><trkpt lat="44.4410814" lon="10.449751"><ele>568.0</ele><time>2026-04-19T09:02:01.009Z</time></trkpt><trkpt lat="44.441267" lon="10.4497128"><ele>568.0</ele><time>2026-04-19T09:02:02.009Z</time></trkpt><trkpt lat="44.4414667" lon="10.4496754"><ele>570.3333333333334</ele><time>2026-04-19T09:02:03.008Z</time></trkpt><trkpt lat="44.4416852" lon="10.449636"><ele>572.6666666666666</ele><time>2026-04-19T09:02:04.006Z</time></trkpt><trkpt lat="44.4418984" lon="10.4495923"><ele>575.0</ele><time>2026-04-19T09:02:05.008Z</time></trkpt><trkpt lat="44.4421041" lon="10.449547"><ele>578.3333333333333</ele><time>2026-04-19T09:02:06.006Z</time></trkpt><trkpt lat="44.4422962" lon="10.4495012"><ele>581.6666666666666</ele><time>2026-04-19T09:02:07.009Z</time></trkpt><trkpt lat="44.4424762" lon="10.4494556"><ele>585.0</ele><time>2026-04-19T09:02:08.009Z</time></trkpt><trkpt lat="44.4426493" lon="10.4493895"><ele>585.0</ele><time>2026-04-19T09:02:09.008Z</time></trkpt><trkpt lat="44.442814" lon="10.4492984"><ele>585.0</ele><time>2026-04-19T09:02:10.009Z</time></trkpt><trkpt lat="44.4429735" lon="10.4491695"><ele>585.0</ele><time>2026-04-19T09:02:11.008Z</time></trkpt><trkpt lat="44.4431263" lon="10.4490155"><ele>585.6666666666666</ele><time>2026-04-19T09:02:12.008Z</time></trkpt><trkpt lat="44.4432683" lon="10.4488211"><ele>586.3333333333333</ele><time>2026-04-19T09:02:13.007Z</time></trkpt><trkpt lat="44.4433979" lon="10.448632"><ele>587.0</ele><time>2026-04-19T09:02:14.008Z</time></trkpt><trkpt lat="44.4434962" lon="10.4484467"><ele>589.2</ele><time>2026-04-19T09:02:15.007Z</time></trkpt><trkpt lat="44.4435774" lon="10.448309"><ele>591.4000000000001</ele><time>2026-04-19T09:02:16.008Z</time></trkpt><trkpt lat="44.4436598" lon="10.4481958"><ele>593.5999999999999</ele><time>2026-04-19T09:02:17.008Z</time></trkpt><trkpt lat="44.4437553" lon="10.4481414"><ele>595.8</ele><time>2026-04-19T09:02:18.007Z</time></trkpt><trkpt lat="44.4438568" lon="10.4481459"><ele>598.0</ele><time>2026-04-19T09:02:19.008Z</time></trkpt><trkpt lat="44.4439607" lon="10.4482142"><ele>599.25</ele><time>2026-04-19T09:02:20.008Z</time></trkpt><trkpt lat="44.444051" lon="10.4483385"><ele>600.5</ele><time>2026-04-19T09:02:21.009Z</time></trkpt><trkpt lat="44.4441436" lon="10.4484817"><ele>601.75</ele><time>2026-04-19T09:02:22.007Z</time></trkpt><trkpt lat="44.4442602" lon="10.4486066"><ele>603.0</ele><time>2026-04-19T09:02:23.009Z</time></trkpt><trkpt lat="44.4443986" lon="10.4487053"><ele>603.0</ele><time>2026-04-19T09:02:24.008Z</time></trkpt><trkpt lat="44.4445476" lon="10.4487884"><ele>603.0</ele><time>2026-04-19T09:02:25.008Z</time></trkpt><trkpt lat="44.4447061" lon="10.4488274"><ele>603.0</ele><time>2026-04-19T09:02:26.009Z</time></trkpt><trkpt lat="44.4448811" lon="10.4488381"><ele>601.6666666666666</ele><time>2026-04-19T09:02:27.007Z</time></trkpt><trkpt lat="44.4450631" lon="10.4488192"><ele>600.3333333333333</ele><time>2026-04-19T09:02:28.008Z</time></trkpt><trkpt lat="44.4452617" lon="10.4487871"><ele>599.0</ele><time>2026-04-19T09:02:29.009Z</time></trkpt><trkpt lat="44.4454721" lon="10.4487525"><ele>602.3333333333333</ele><time>2026-04-19T09:02:30.009Z</time></trkpt><trkpt lat="44.4456684" lon="10.4487194"><ele>605.6666666666666</ele><time>2026-04-19T09:02:31.009Z</time></trkpt><trkpt lat="44.4458635" lon="10.4486855"><ele>609.0</ele><time>2026-04-19T09:02:32.009Z</time></trkpt><trkpt lat="44.4460607" lon="10.4486461"><ele>609.0</ele><time>2026-04-19T09:02:33.007Z</time></trkpt><trkpt lat="44.4462529" lon="10.4486212"><ele>609.0</ele><time>2026-04-19T09:02:34.008Z</time></trkpt><trkpt lat="44.4464382" lon="10.4485934"><ele>609.0</ele><time>2026-04-19T09:02:35.008Z</time></trkpt><trkpt lat="44.4466271" lon="10.4485583"><ele>611.0</ele><time>2026-04-19T09:02:36.008Z</time></trkpt><trkpt lat="44.4468172" lon="10.4485198"><ele>613.0</ele><time>2026-04-19T09:02:37.008Z</time></trkpt><trkpt lat="44.4469945" lon="10.4484714"><ele>615.0</ele><time>2026-04-19T09:02:38.008Z</time></trkpt><trkpt lat="44.4471488" lon="10.4484117"><ele>617.25</ele><time>2026-04-19T09:02:39.008Z</time></trkpt><trkpt lat="44.4472874" lon="10.4483452"><ele>619.5</ele><time>2026-04-19T09:02:40.009Z</time></trkpt><trkpt lat="44.4474083" lon="10.4482785"><ele>621.75</ele><time>2026-04-19T09:02:41.008Z</time></trkpt><trkpt lat="44.4475157" lon="10.4482033"><ele>624.0</ele><time>2026-04-19T09:02:42.008Z</time></trkpt><trkpt lat="44.4476122" lon="10.4481125"><ele>624.0</ele><time>2026-04-19T09:02:43.008Z</time></trkpt><trkpt lat="44.4476865" lon="10.448004"><ele>624.0</ele><time>2026-04-19T09:02:44.009Z</time></trkpt><trkpt lat="44.4477358" lon="10.4478754"><ele>624.0</ele><time>2026-04-19T09:02:45.009Z</time></trkpt><trkpt lat="44.4477717" lon="10.4477427"><ele>624.0</ele><time>2026-04-19T09:02:46.009Z</time></trkpt><trkpt lat="44.4477691" lon="10.4475864"><ele>624.0</ele><time>2026-04-19T09:02:47.009Z</time></trkpt><trkpt lat="44.447718" lon="10.4474522"><ele>626.4</ele><time>2026-04-19T09:02:48.008Z</time></trkpt><trkpt lat="44.4476449" lon="10.4473338"><ele>628.8</ele><time>2026-04-19T09:02:49.008Z</time></trkpt><trkpt lat="44.4475593" lon="10.4472495"><ele>631.2</ele><time>2026-04-19T09:02:50.009Z</time></trkpt><trkpt lat="44.4474516" lon="10.4472059"><ele>633.6</ele><time>2026-04-19T09:02:51.008Z</time></trkpt><trkpt lat="44.4473513" lon="10.4472037"><ele>636.0</ele><time>2026-04-19T09:02:52.008Z</time></trkpt><trkpt lat="44.4472464" lon="10.4472431"><ele>636.0</ele><time>2026-04-19T09:02:53.008Z</time></trkpt><trkpt lat="44.4471625" lon="10.4473111"><ele>636.0</ele><time>2026-04-19T09:02:54.007Z</time></trkpt><trkpt lat="44.4470871" lon="10.4474016"><ele>636.0</ele><time>2026-04-19T09:02:55.008Z</time></trkpt><trkpt lat="44.4470265" lon="10.4474912"><ele>636.0</ele><time>2026-04-19T09:02:56.009Z</time></trkpt><trkpt lat="44.446967" lon="10.4475736"><ele>636.0</ele><time>2026-04-19T09:02:57.008Z</time></trkpt><trkpt lat="44.4468999" lon="10.4476485"><ele>634.6</ele><time>2026-04-19T09:02:58.007Z</time></trkpt><trkpt lat="44.4468211" lon="10.4477085"><ele>633.2</ele><time>2026-04-19T09:02:59.009Z</time></trkpt><trkpt lat="44.4467353" lon="10.4477442"><ele>631.8</ele><time>2026-04-19T09:03:00.007Z</time></trkpt><trkpt lat="44.4466345" lon="10.4477138"><ele>630.4</ele><time>2026-04-19T09:03:01.008Z</time></trkpt><trkpt lat="44.4465251" lon="10.4476859"><ele>629.0</ele><time>2026-04-19T09:03:02.007Z</time></trkpt><trkpt lat="44.4464093" lon="10.4476076"><ele>626.3333333333333</ele><time>2026-04-19T09:03:03.009Z</time></trkpt><trkpt lat="44.4462738" lon="10.4475158"><ele>623.6666666666666</ele><time>2026-04-19T09:03:04.008Z</time></trkpt><trkpt lat="44.4461198" lon="10.4474177"><ele>621.0</ele><time>2026-04-19T09:03:05.007Z</time></trkpt><trkpt lat="44.4459621" lon="10.4473102"><ele>621.0</ele><time>2026-04-19T09:03:06.008Z</time></trkpt><trkpt lat="44.4457906" lon="10.4471937"><ele>621.0</ele><time>2026-04-19T09:03:07.008Z</time></trkpt><trkpt lat="44.4456115" lon="10.447065"><ele>621.0</ele><time>2026-04-19T09:03:08.008Z</time></trkpt><trkpt lat="44.4454383" lon="10.446933"><ele>623.6666666666666</ele><time>2026-04-19T09:03:09.009Z</time></trkpt><trkpt lat="44.4452728" lon="10.4468002"><ele>626.3333333333333</ele><time>2026-04-19T09:03:10.008Z</time></trkpt><trkpt lat="44.4451284" lon="10.4466405"><ele>629.0</ele><time>2026-04-19T09:03:11.008Z</time></trkpt><trkpt lat="44.4449875" lon="10.446461"><ele>629.3333333333333</ele><time>2026-04-19T09:03:12.008Z</time></trkpt><trkpt lat="44.4448527" lon="10.4462612"><ele>629.6666666666666</ele><time>2026-04-19T09:03:13.008Z</time></trkpt><trkpt lat="44.4447189" lon="10.4460669"><ele>630.0</ele><time>2026-04-19T09:03:14.007Z</time></trkpt><trkpt lat="44.4445901" lon="10.445881"><ele>630.0</ele><time>2026-04-19T09:03:15.009Z</time></trkpt><trkpt lat="44.444468" lon="10.4457017"><ele>630.0</ele><time>2026-04-19T09:03:16.009Z</time></trkpt><trkpt lat="44.4443523" lon="10.4455393"><ele>630.0</ele><time>2026-04-19T09:03:17.008Z</time></trkpt><trkpt lat="44.4442343" lon="10.4453789"><ele>631.3333333333334</ele><time>2026-04-19T09:03:18.008Z</time></trkpt><trkpt lat="44.4441118" lon="10.4452243"><ele>632.6666666666667</ele><time>2026-04-19T09:03:19.008Z</time></trkpt><trkpt lat="44.4439996" lon="10.4450607"><ele>634.0</ele><time>2026-04-19T09:03:20.008Z</time></trkpt><trkpt lat="44.4438886" lon="10.4448945"><ele>633.6666666666667</ele><time>2026-04-19T09:03:21.008Z</time></trkpt><trkpt lat="44.4437763" lon="10.4447243"><ele>633.3333333333334</ele><time>2026-04-19T09:03:22.009Z</time></trkpt><trkpt lat="44.4436646" lon="10.4445583"><ele>633.0</ele><time>2026-04-19T09:03:23.008Z</time></trkpt><trkpt lat="44.4435505" lon="10.4443879"><ele>633.0</ele><time>2026-04-19T09:03:24.008Z</time></trkpt><trkpt lat="44.4434234" lon="10.4442018"><ele>633.0</ele><time>2026-04-19T09:03:25.009Z</time></trkpt><trkpt lat="44.4432872" lon="10.4439926"><ele>633.0</ele><time>2026-04-19T09:03:26.008Z</time></trkpt><trkpt lat="44.4431517" lon="10.4437824"><ele>632.6666666666666</ele><time>2026-04-19T09:03:27.009Z</time></trkpt><trkpt lat="44.4430202" lon="10.4435846"><ele>632.3333333333333</ele><time>2026-04-19T09:03:28.008Z</time></trkpt><trkpt lat="44.4428874" lon="10.4433992"><ele>632.0</ele><time>2026-04-19T09:03:29.009Z</time></trkpt><trkpt lat="44.4427422" lon="10.4432377"><ele>632.0</ele><time>2026-04-19T09:03:30.009Z</time></trkpt><trkpt lat="44.4425916" lon="10.4431212"><ele>632.0</ele><time>2026-04-19T09:03:31.007Z</time></trkpt><trkpt lat="44.4424421" lon="10.443022"><ele>632.0</ele><time>2026-04-19T09:03:32.009Z</time></trkpt><trkpt lat="44.442307" lon="10.4429181"><ele>631.0</ele><time>2026-04-19T09:03:33.008Z</time></trkpt><trkpt lat="44.4421846" lon="10.4428039"><ele>630.0</ele><time>2026-04-19T09:03:34.008Z</time></trkpt><trkpt lat="44.4420857" lon="10.4426709"><ele>629.0</ele><time>2026-04-19T09:03:35.008Z</time></trkpt><trkpt lat="44.4420063" lon="10.4425192"><ele>628.0</ele><time>2026-04-19T09:03:36.008Z</time></trkpt><trkpt lat="44.441953" lon="10.4423399"><ele>628.0</ele><time>2026-04-19T09:03:37.009Z</time></trkpt><trkpt lat="44.4419075" lon="10.4421507"><ele>628.0</ele><time>2026-04-19T09:03:38.009Z</time></trkpt><trkpt lat="44.4418897" lon="10.4419323"><ele>628.0</ele><time>2026-04-19T09:03:39.009Z</time></trkpt><trkpt lat="44.4418603" lon="10.4417175"><ele>629.75</ele><time>2026-04-19T09:03:40.008Z</time></trkpt><trkpt lat="44.4418126" lon="10.441516"><ele>631.5</ele><time>2026-04-19T09:03:41.008Z</time></trkpt><trkpt lat="44.4417518" lon="10.4413378"><ele>633.25</ele><time>2026-04-19T09:03:42.006Z</time></trkpt><trkpt lat="44.4416828" lon="10.4411692"><ele>635.0</ele><time>2026-04-19T09:03:43.008Z</time></trkpt><trkpt lat="44.4416073" lon="10.4410038"><ele>636.5</ele><time>2026-04-19T09:03:44.008Z</time></trkpt><trkpt lat="44.4415272" lon="10.4408416"><ele>638.0</ele><time>2026-04-19T09:03:45.007Z</time></trkpt><trkpt lat="44.4414447" lon="10.4406721"><ele>639.5</ele><time>2026-04-19T09:03:46.008Z</time></trkpt><trkpt lat="44.4413716" lon="10.4404886"><ele>641.0</ele><time>2026-04-19T09:03:47.008Z</time></trkpt><trkpt lat="44.4413152" lon="10.4402862"><ele>640.25</ele><time>2026-04-19T09:03:48.009Z</time></trkpt><trkpt lat="44.4412643" lon="10.4400806"><ele>639.5</ele><time>2026-04-19T09:03:49.009Z</time></trkpt><trkpt lat="44.4412164" lon="10.439885"><ele>638.75</ele><time>2026-04-19T09:03:50.007Z</time></trkpt><trkpt lat="44.4411625" lon="10.4396955"><ele>638.0</ele><time>2026-04-19T09:03:51.009Z</time></trkpt><trkpt lat="44.4410995" lon="10.4395139"><ele>638.0</ele><time>2026-04-19T09:03:52.007Z</time></trkpt><trkpt lat="44.441043" lon="10.4393438"><ele>638.0</ele><time>2026-04-19T09:03:53.008Z</time></trkpt><trkpt lat="44.4409703" lon="10.4391636"><ele>638.0</ele><time>2026-04-19T09:03:54.007Z</time></trkpt><trkpt lat="44.4408853" lon="10.438979"><ele>638.0</ele><time>2026-04-19T09:03:55.009Z</time></trkpt><trkpt lat="44.4408044" lon="10.438803"><ele>639.3333333333333</ele><time>2026-04-19T09:03:56.007Z</time></trkpt><trkpt lat="44.4407078" lon="10.4386268"><ele>640.6666666666666</ele><time>2026-04-19T09:03:57.009Z</time></trkpt><trkpt lat="44.4406044" lon="10.4384586"><ele>642.0</ele><time>2026-04-19T09:03:58.007Z</time></trkpt><trkpt lat="44.4404988" lon="10.4382938"><ele>641.0</ele><time>2026-04-19T09:03:59.008Z</time></trkpt><trkpt lat="44.4403797" lon="10.4381417"><ele>640.0</ele><time>2026-04-19T09:04:00.008Z</time></trkpt><trkpt lat="44.4402613" lon="10.4379924"><ele>639.0</ele><time>2026-04-19T09:04:01.007Z</time></trkpt><trkpt lat="44.4401472" lon="10.4378478"><ele>644.6666666666666</ele><time>2026-04-19T09:04:02.008Z</time></trkpt><trkpt lat="44.4400312" lon="10.4377023"><ele>650.3333333333333</ele><time>2026-04-19T09:04:03.007Z</time></trkpt><trkpt lat="44.4399157" lon="10.4375575"><ele>656.0</ele><time>2026-04-19T09:04:04.008Z</time></trkpt><trkpt lat="44.437265" lon="10.4336681"><ele>656.5</ele><time>2026-04-19T09:04:28.007Z</time></trkpt><trkpt lat="44.4372119" lon="10.433486"><ele>657.0</ele><time>2026-04-19T09:04:29.007Z</time></trkpt><trkpt lat="44.4371616" lon="10.4332959"><ele>657.5</ele><time>2026-04-19T09:04:30.007Z</time></trkpt><trkpt lat="44.4371113" lon="10.433099"><ele>658.0</ele><time>2026-04-19T09:04:31.007Z</time></trkpt><trkpt lat="44.4370741" lon="10.4328933"><ele>658.0</ele><time>2026-04-19T09:04:32.008Z</time></trkpt><trkpt lat="44.4370482" lon="10.432683"><ele>658.0</ele><time>2026-04-19T09:04:33.008Z</time></trkpt><trkpt lat="44.4370199" lon="10.4324683"><ele>658.0</ele><time>2026-04-19T09:04:34.008Z</time></trkpt><trkpt lat="44.4369968" lon="10.4322609"><ele>658.5</ele><time>2026-04-19T09:04:35.008Z</time></trkpt><trkpt lat="44.4369806" lon="10.4320657"><ele>659.0</ele><time>2026-04-19T09:04:36.008Z</time></trkpt><trkpt lat="44.4369659" lon="10.4318701"><ele>659.5</ele><time>2026-04-19T09:04:37.007Z</time></trkpt><trkpt lat="44.4369518" lon="10.431681"><ele>660.0</ele><time>2026-04-19T09:04:38.007Z</time></trkpt><trkpt lat="44.4369389" lon="10.4314954"><ele>660.0</ele><time>2026-04-19T09:04:39.008Z</time></trkpt><trkpt lat="44.4369251" lon="10.4313162"><ele>660.0</ele><time>2026-04-19T09:04:40.007Z</time></trkpt><trkpt lat="44.4369105" lon="10.4311436"><ele>660.0</ele><time>2026-04-19T09:04:41.007Z</time></trkpt><trkpt lat="44.4368921" lon="10.4309813"><ele>660.0</ele><time>2026-04-19T09:04:42.006Z</time></trkpt><trkpt lat="44.4368667" lon="10.4308272"><ele>660.75</ele><time>2026-04-19T09:04:43.008Z</time></trkpt><trkpt lat="44.4368279" lon="10.4306715"><ele>661.5</ele><time>2026-04-19T09:04:44.008Z</time></trkpt><trkpt lat="44.4367786" lon="10.4305125"><ele>662.25</ele><time>2026-04-19T09:04:45.007Z</time></trkpt><trkpt lat="44.4367186" lon="10.4303476"><ele>663.0</ele><time>2026-04-19T09:04:46.007Z</time></trkpt><trkpt lat="44.436655" lon="10.4301754"><ele>664.0</ele><time>2026-04-19T09:04:47.009Z</time></trkpt><trkpt lat="44.4365879" lon="10.4299946"><ele>665.0</ele><time>2026-04-19T09:04:48.007Z</time></trkpt><trkpt lat="44.4365222" lon="10.4298191"><ele>666.0</ele><time>2026-04-19T09:04:49.008Z</time></trkpt><trkpt lat="44.4364631" lon="10.429644"><ele>667.0</ele><time>2026-04-19T09:04:50.007Z</time></trkpt><trkpt lat="44.4364216" lon="10.4294575"><ele>667.5</ele><time>2026-04-19T09:04:51.007Z</time></trkpt><trkpt lat="44.4363962" lon="10.4292632"><ele>668.0</ele><time>2026-04-19T09:04:52.008Z</time></trkpt><trkpt lat="44.4363789" lon="10.4290634"><ele>668.5</ele><time>2026-04-19T09:04:53.007Z</time></trkpt><trkpt lat="44.4363637" lon="10.4288584"><ele>669.0</ele><time>2026-04-19T09:04:54.007Z</time></trkpt><trkpt lat="44.4363495" lon="10.4286486"><ele>669.0</ele><time>2026-04-19T09:04:55.007Z</time></trkpt><trkpt lat="44.4363367" lon="10.4284375"><ele>669.0</ele><time>2026-04-19T09:04:56.008Z</time></trkpt><trkpt lat="44.4363255" lon="10.4282266"><ele>669.0</ele><time>2026-04-19T09:04:57.007Z</time></trkpt><trkpt lat="44.4363143" lon="10.4280164"><ele>668.25</ele><time>2026-04-19T09:04:58.006Z</time></trkpt><trkpt lat="44.4363037" lon="10.4278075"><ele>667.5</ele><time>2026-04-19T09:04:59.008Z</time></trkpt><trkpt lat="44.4362926" lon="10.4276005"><ele>666.75</ele><time>2026-04-19T09:05:00.008Z</time></trkpt><trkpt lat="44.4362799" lon="10.4273961"><ele>666.0</ele><time>2026-04-19T09:05:01.007Z</time></trkpt><trkpt lat="44.4362622" lon="10.4271946"><ele>664.5</ele><time>2026-04-19T09:05:02.008Z</time></trkpt><trkpt lat="44.4362341" lon="10.4269982"><ele>663.0</ele><time>2026-04-19T09:05:03.008Z</time></trkpt><trkpt lat="44.4361892" lon="10.426805"><ele>661.5</ele><time>2026-04-19T09:05:04.008Z</time></trkpt><trkpt lat="44.4361336" lon="10.4266304"><ele>660.0</ele><time>2026-04-19T09:05:05.007Z</time></trkpt><trkpt lat="44.4360705" lon="10.4264645"><ele>660.0</ele><time>2026-04-19T09:05:06.008Z</time></trkpt><trkpt lat="44.4360052" lon="10.4263041"><ele>660.0</ele><time>2026-04-19T09:05:07.008Z</time></trkpt><trkpt lat="44.4359414" lon="10.4261471"><ele>660.0</ele><time>2026-04-19T09:05:08.008Z</time></trkpt><trkpt lat="44.4358739" lon="10.4259987"><ele>660.0</ele><time>2026-04-19T09:05:09.008Z</time></trkpt><trkpt lat="44.4357997" lon="10.4258713"><ele>660.0</ele><time>2026-04-19T09:05:10.007Z</time></trkpt><trkpt lat="44.4357241" lon="10.4257645"><ele>660.0</ele><time>2026-04-19T09:05:11.008Z</time></trkpt><trkpt lat="44.4356528" lon="10.4256693"><ele>660.0</ele><time>2026-04-19T09:05:12.007Z</time></trkpt><trkpt lat="44.4355888" lon="10.4255774"><ele>660.0</ele><time>2026-04-19T09:05:13.007Z</time></trkpt><trkpt lat="44.435538" lon="10.42549"><ele>660.0</ele><time>2026-04-19T09:05:14.007Z</time></trkpt><trkpt lat="44.4354991" lon="10.4253975"><ele>660.0000000000001</ele><time>2026-04-19T09:05:15.007Z</time></trkpt><trkpt lat="44.43548" lon="10.4253112"><ele>660.0</ele><time>2026-04-19T09:05:16.008Z</time></trkpt><trkpt lat="44.4354643" lon="10.4252229"><ele>660.0</ele><time>2026-04-19T09:05:17.008Z</time></trkpt><trkpt lat="44.4354684" lon="10.425125"><ele>660.0</ele><time>2026-04-19T09:05:18.007Z</time></trkpt><trkpt lat="44.4354797" lon="10.4250172"><ele>660.0</ele><time>2026-04-19T09:05:19.009Z</time></trkpt><trkpt lat="44.4354903" lon="10.4249067"><ele>660.0000000000001</ele><time>2026-04-19T09:05:20.008Z</time></trkpt><trkpt lat="44.4355056" lon="10.4247848"><ele>660.0</ele><time>2026-04-19T09:05:21.008Z</time></trkpt><trkpt lat="44.4355258" lon="10.4246588"><ele>659.25</ele><time>2026-04-19T09:05:22.008Z</time></trkpt><trkpt lat="44.4355473" lon="10.4245048"><ele>658.5</ele><time>2026-04-19T09:05:23.008Z</time></trkpt><trkpt lat="44.4355603" lon="10.4243674"><ele>657.75</ele><time>2026-04-19T09:05:24.008Z</time></trkpt><trkpt lat="44.435566" lon="10.4242012"><ele>657.0</ele><time>2026-04-19T09:05:25.008Z</time></trkpt><trkpt lat="44.4355581" lon="10.4240228"><ele>657.0</ele><time>2026-04-19T09:05:26.009Z</time></trkpt><trkpt lat="44.4355325" lon="10.423837"><ele>657.0</ele><time>2026-04-19T09:05:27.009Z</time></trkpt><trkpt lat="44.4354865" lon="10.4236408"><ele>657.0</ele><time>2026-04-19T09:05:28.007Z</time></trkpt><trkpt lat="44.4354365" lon="10.4234565"><ele>657.0</ele><time>2026-04-19T09:05:29.007Z</time></trkpt><trkpt lat="44.435372" lon="10.4232594"><ele>661.3333333333334</ele><time>2026-04-19T09:05:30.007Z</time></trkpt><trkpt lat="44.4353021" lon="10.4230622"><ele>665.6666666666667</ele><time>2026-04-19T09:05:31.008Z</time></trkpt><trkpt lat="44.4352375" lon="10.4228492"><ele>670.0</ele><time>2026-04-19T09:05:32.008Z</time></trkpt><trkpt lat="44.4351839" lon="10.4226386"><ele>670.0</ele><time>2026-04-19T09:05:33.007Z</time></trkpt><trkpt lat="44.4351399" lon="10.4224242"><ele>670.0</ele><time>2026-04-19T09:05:34.008Z</time></trkpt><trkpt lat="44.4350999" lon="10.4222187"><ele>670.0</ele><time>2026-04-19T09:05:35.008Z</time></trkpt><trkpt lat="44.4350605" lon="10.4220158"><ele>669.3333333333334</ele><time>2026-04-19T09:05:36.007Z</time></trkpt><trkpt lat="44.435024" lon="10.4218147"><ele>668.6666666666666</ele><time>2026-04-19T09:05:37.009Z</time></trkpt><trkpt lat="44.4349829" lon="10.4216076"><ele>668.0</ele><time>2026-04-19T09:05:38.007Z</time></trkpt><trkpt lat="44.43494" lon="10.421391"><ele>667.3333333333333</ele><time>2026-04-19T09:05:39.008Z</time></trkpt><trkpt lat="44.4348868" lon="10.4211689"><ele>666.6666666666666</ele><time>2026-04-19T09:05:40.009Z</time></trkpt><trkpt lat="44.4348267" lon="10.4209402"><ele>666.0</ele><time>2026-04-19T09:05:41.008Z</time></trkpt><trkpt lat="44.4347563" lon="10.4207311"><ele>666.0</ele><time>2026-04-19T09:05:42.007Z</time></trkpt><trkpt lat="44.4346732" lon="10.420531"><ele>666.0</ele><time>2026-04-19T09:05:43.009Z</time></trkpt><trkpt lat="44.4345882" lon="10.420339"><ele>666.0</ele><time>2026-04-19T09:05:44.009Z</time></trkpt><trkpt lat="44.4345146" lon="10.4201624"><ele>671.0</ele><time>2026-04-19T09:05:45.007Z</time></trkpt><trkpt lat="44.4344467" lon="10.4199761"><ele>676.0</ele><time>2026-04-19T09:05:46.009Z</time></trkpt><trkpt lat="44.4343859" lon="10.4197795"><ele>681.0</ele><time>2026-04-19T09:05:47.007Z</time></trkpt><trkpt lat="44.4343325" lon="10.4195801"><ele>681.3333333333334</ele><time>2026-04-19T09:05:48.008Z</time></trkpt><trkpt lat="44.4342813" lon="10.419364"><ele>681.6666666666667</ele><time>2026-04-19T09:05:49.009Z</time></trkpt><trkpt lat="44.4342311" lon="10.4191408"><ele>682.0</ele><time>2026-04-19T09:05:50.008Z</time></trkpt><trkpt lat="44.4341853" lon="10.4189263"><ele>682.0</ele><time>2026-04-19T09:05:51.007Z</time></trkpt><trkpt lat="44.4341361" lon="10.4187208"><ele>682.0</ele><time>2026-04-19T09:05:52.007Z</time></trkpt><trkpt lat="44.4340747" lon="10.418522"><ele>682.0</ele><time>2026-04-19T09:05:53.008Z</time></trkpt><trkpt lat="44.4340123" lon="10.4183322"><ele>682.0</ele><time>2026-04-19T09:05:54.009Z</time></trkpt><trkpt lat="44.4339376" lon="10.4181586"><ele>682.0</ele><time>2026-04-19T09:05:55.008Z</time></trkpt><trkpt lat="44.4338648" lon="10.4179925"><ele>682.0</ele><time>2026-04-19T09:05:56.007Z</time></trkpt><trkpt lat="44.4337952" lon="10.4178357"><ele>682.0</ele><time>2026-04-19T09:05:57.008Z</time></trkpt><trkpt lat="44.4337237" lon="10.4176878"><ele>685.0</ele><time>2026-04-19T09:05:58.007Z</time></trkpt><trkpt lat="44.4336582" lon="10.4175396"><ele>688.0</ele><time>2026-04-19T09:05:59.008Z</time></trkpt><trkpt lat="44.4335941" lon="10.4174029"><ele>691.0</ele><time>2026-04-19T09:06:00.009Z</time></trkpt><trkpt lat="44.4335338" lon="10.4172593"><ele>694.0</ele><time>2026-04-19T09:06:01.007Z</time></trkpt><trkpt lat="44.4334828" lon="10.4171207"><ele>694.0</ele><time>2026-04-19T09:06:02.006Z</time></trkpt><trkpt lat="44.433445" lon="10.4169853"><ele>694.0</ele><time>2026-04-19T09:06:03.008Z</time></trkpt><trkpt lat="44.433413" lon="10.4168478"><ele>694.0</ele><time>2026-04-19T09:06:04.007Z</time></trkpt><trkpt lat="44.4334136" lon="10.4167381"><ele>694.0</ele><time>2026-04-19T09:06:05.008Z</time></trkpt><trkpt lat="44.4334134" lon="10.4166235"><ele>694.0</ele><time>2026-04-19T09:06:06.009Z</time></trkpt><trkpt lat="44.4334267" lon="10.4165146"><ele>694.0</ele><time>2026-04-19T09:06:07.008Z</time></trkpt><trkpt lat="44.4334437" lon="10.416413"><ele>693.0</ele><time>2026-04-19T09:06:08.008Z</time></trkpt><trkpt lat="44.4334625" lon="10.4163178"><ele>692.0</ele><time>2026-04-19T09:06:09.007Z</time></trkpt><trkpt lat="44.4334616" lon="10.4162213"><ele>691.0</ele><time>2026-04-19T09:06:10.008Z</time></trkpt><trkpt lat="44.4334424" lon="10.4161308"><ele>690.0</ele><time>2026-04-19T09:06:11.007Z</time></trkpt><trkpt lat="44.4334008" lon="10.4160558"><ele>689.0</ele><time>2026-04-19T09:06:12.008Z</time></trkpt><trkpt lat="44.4333388" lon="10.4159976"><ele>688.0</ele><time>2026-04-19T09:06:13.01Z</time></trkpt><trkpt lat="44.433278" lon="10.4159388"><ele>687.0</ele><time>2026-04-19T09:06:14.007Z</time></trkpt><trkpt lat="44.4332037" lon="10.4158496"><ele>687.0</ele><time>2026-04-19T09:06:15.008Z</time></trkpt><trkpt lat="44.4331239" lon="10.4157501"><ele>687.0</ele><time>2026-04-19T09:06:16.007Z</time></trkpt><trkpt lat="44.4330573" lon="10.4156317"><ele>687.0</ele><time>2026-04-19T09:06:17.009Z</time></trkpt><trkpt lat="44.4329957" lon="10.4155021"><ele>687.0</ele><time>2026-04-19T09:06:18.007Z</time></trkpt><trkpt lat="44.4329525" lon="10.4153388"><ele>693.0</ele><time>2026-04-19T09:06:19.009Z</time></trkpt><trkpt lat="44.4329262" lon="10.4151338"><ele>699.0</ele><time>2026-04-19T09:06:20.009Z</time></trkpt><trkpt lat="44.4328971" lon="10.4149185"><ele>705.0</ele><time>2026-04-19T09:06:21.007Z</time></trkpt><trkpt lat="44.4328951" lon="10.4147167"><ele>711.0</ele><time>2026-04-19T09:06:22.008Z</time></trkpt><trkpt lat="44.432896" lon="10.4145275"><ele>711.5</ele><time>2026-04-19T09:06:23.009Z</time></trkpt><trkpt lat="44.4329051" lon="10.4143424"><ele>712.0</ele><time>2026-04-19T09:06:24.007Z</time></trkpt><trkpt lat="44.4329328" lon="10.4141662"><ele>712.5</ele><time>2026-04-19T09:06:25.008Z</time></trkpt><trkpt lat="44.43297" lon="10.413991"><ele>713.0</ele><time>2026-04-19T09:06:26.008Z</time></trkpt><trkpt lat="44.4330146" lon="10.4138163"><ele>709.25</ele><time>2026-04-19T09:06:27.008Z</time></trkpt><trkpt lat="44.4330612" lon="10.4136279"><ele>705.5</ele><time>2026-04-19T09:06:28.009Z</time></trkpt><trkpt lat="44.4331142" lon="10.413439"><ele>701.75</ele><time>2026-04-19T09:06:29.008Z</time></trkpt><trkpt lat="44.433158" lon="10.41325"><ele>698.0</ele><time>2026-04-19T09:06:30.008Z</time></trkpt><trkpt lat="44.4331901" lon="10.4130643"><ele>699.75</ele><time>2026-04-19T09:06:31.007Z</time></trkpt><trkpt lat="44.4332234" lon="10.4128834"><ele>701.5</ele><time>2026-04-19T09:06:32.008Z</time></trkpt><trkpt lat="44.4332434" lon="10.4127077"><ele>703.25</ele><time>2026-04-19T09:06:33.008Z</time></trkpt><trkpt lat="44.4332428" lon="10.4125413"><ele>705.0</ele><time>2026-04-19T09:06:34.007Z</time></trkpt><trkpt lat="44.433236" lon="10.4123693"><ele>705.0</ele><time>2026-04-19T09:06:35.008Z</time></trkpt><trkpt lat="44.4332197" lon="10.4122162"><ele>705.0</ele><time>2026-04-19T09:06:36.009Z</time></trkpt><trkpt lat="44.4331968" lon="10.4120695"><ele>705.0</ele><time>2026-04-19T09:06:37.009Z</time></trkpt><trkpt lat="44.4331615" lon="10.4119299"><ele>705.0</ele><time>2026-04-19T09:06:38.007Z</time></trkpt><trkpt lat="44.4331094" lon="10.4117998"><ele>705.0</ele><time>2026-04-19T09:06:39.007Z</time></trkpt><trkpt lat="44.4330537" lon="10.4116759"><ele>707.0</ele><time>2026-04-19T09:06:40.008Z</time></trkpt><trkpt lat="44.4329975" lon="10.4115629"><ele>709.0</ele><time>2026-04-19T09:06:41.008Z</time></trkpt><trkpt lat="44.4329391" lon="10.4114554"><ele>711.0</ele><time>2026-04-19T09:06:42.009Z</time></trkpt><trkpt lat="44.4328873" lon="10.4113675"><ele>713.0</ele><time>2026-04-19T09:06:43.007Z</time></trkpt><trkpt lat="44.4328396" lon="10.4112889"><ele>715.0</ele><time>2026-04-19T09:06:44.008Z</time></trkpt><trkpt lat="44.4327653" lon="10.4111717"><ele>715.6666666666667</ele><time>2026-04-19T09:06:46.007Z</time></trkpt><trkpt lat="44.4327208" lon="10.411106"><ele>716.3333333333334</ele><time>2026-04-19T09:06:47.006Z</time></trkpt><trkpt lat="44.4326786" lon="10.4110401"><ele>717.0</ele><time>2026-04-19T09:06:48.008Z</time></trkpt><trkpt lat="44.4326043" lon="10.4109257"><ele>717.6666666666666</ele><time>2026-04-19T09:06:50.007Z</time></trkpt><trkpt lat="44.4325531" lon="10.410835"><ele>718.3333333333333</ele><time>2026-04-19T09:06:52.009Z</time></trkpt><trkpt lat="44.4325105" lon="10.4107091"><ele>719.0</ele><time>2026-04-19T09:06:54.008Z</time></trkpt><trkpt lat="44.4324975" lon="10.410616"><ele>719.2</ele><time>2026-04-19T09:06:55.008Z</time></trkpt><trkpt lat="44.432492" lon="10.4104413"><ele>719.4000000000001</ele><time>2026-04-19T09:06:57.007Z</time></trkpt><trkpt lat="44.4325031" lon="10.4102851"><ele>719.6</ele><time>2026-04-19T09:06:59.008Z</time></trkpt><trkpt lat="44.4325255" lon="10.410118"><ele>719.8</ele><time>2026-04-19T09:07:01.009Z</time></trkpt><trkpt lat="44.4325394" lon="10.4100313"><ele>720.0</ele><time>2026-04-19T09:07:02.009Z</time></trkpt><trkpt lat="44.4325736" lon="10.4098617"><ele>720.0</ele><time>2026-04-19T09:07:04.009Z</time></trkpt><trkpt lat="44.43262" lon="10.4097064"><ele>720.0</ele><time>2026-04-19T09:07:06.007Z</time></trkpt><trkpt lat="44.4326441" lon="10.4096142"><ele>720.0</ele><time>2026-04-19T09:07:07.008Z</time></trkpt><trkpt lat="44.4326659" lon="10.4095262"><ele>720.0</ele><time>2026-04-19T09:07:08.008Z</time></trkpt><trkpt lat="44.4326862" lon="10.409439"><ele>720.0</ele><time>2026-04-19T09:07:09.008Z</time></trkpt><trkpt lat="44.4327132" lon="10.4093546"><ele>720.0</ele><time>2026-04-19T09:07:10.008Z</time></trkpt><trkpt lat="44.4327376" lon="10.4092719"><ele>719.6666666666666</ele><time>2026-04-19T09:07:11.007Z</time></trkpt><trkpt lat="44.4327612" lon="10.4091788"><ele>719.3333333333334</ele><time>2026-04-19T09:07:12.009Z</time></trkpt><trkpt lat="44.4327845" lon="10.4090931"><ele>719.0</ele><time>2026-04-19T09:07:13.009Z</time></trkpt><trkpt lat="44.4328423" lon="10.4089269"><ele>718.6666666666667</ele><time>2026-04-19T09:07:15.008Z</time></trkpt><trkpt lat="44.4328637" lon="10.4088438"><ele>718.3333333333334</ele><time>2026-04-19T09:07:16.009Z</time></trkpt><trkpt lat="44.4329089" lon="10.4087074"><ele>718.0</ele><time>2026-04-19T09:07:18.007Z</time></trkpt><trkpt lat="44.4329499" lon="10.4085928"><ele>714.0</ele><time>2026-04-19T09:07:20.008Z</time></trkpt><trkpt lat="44.4329936" lon="10.4085152"><ele>705.0</ele><time>2026-04-19T09:07:22.008Z</time></trkpt><trkpt lat="44.4329877" lon="10.408397"><ele>705.0</ele><time>2026-04-19T09:07:25.007Z</time></trkpt></trkseg><trkseg><trkpt lat="44.4329756" lon="10.4083989"><ele>705.0</ele><time>2026-04-19T09:36:22.006Z</time></trkpt><trkpt lat="44.4330328" lon="10.4083422"><ele>705.0</ele><time>2026-04-19T09:36:33.005Z</time></trkpt><trkpt lat="44.4331258" lon="10.4083372"><ele>705.0</ele><time>2026-04-19T09:36:35.007Z</time></trkpt><trkpt lat="44.4332326" lon="10.4082883"><ele>705.0</ele><time>2026-04-19T09:36:37.007Z</time></trkpt><trkpt lat="44.4333326" lon="10.4082142"><ele>705.0</ele><time>2026-04-19T09:36:39.006Z</time></trkpt><trkpt lat="44.4334303" lon="10.4081493"><ele>705.0</ele><time>2026-04-19T09:36:41.007Z</time></trkpt><trkpt lat="44.4335263" lon="10.408087"><ele>705.0</ele><time>2026-04-19T09:36:43.006Z</time></trkpt><trkpt lat="44.4336127" lon="10.4080482"><ele>705.0</ele><time>2026-04-19T09:36:45.007Z</time></trkpt><trkpt lat="44.4337116" lon="10.408022"><ele>705.0</ele><time>2026-04-19T09:36:47.006Z</time></trkpt><trkpt lat="44.4338053" lon="10.4079782"><ele>705.0</ele><time>2026-04-19T09:36:49.007Z</time></trkpt><trkpt lat="44.4338543" lon="10.4078751"><ele>704.3333333333334</ele><time>2026-04-19T09:36:51.007Z</time></trkpt><trkpt lat="44.4338407" lon="10.4077168"><ele>703.6666666666666</ele><time>2026-04-19T09:36:53.006Z</time></trkpt><trkpt lat="44.4338349" lon="10.4075472"><ele>703.0</ele><time>2026-04-19T09:36:55.006Z</time></trkpt><trkpt lat="44.4338475" lon="10.4074549"><ele>702.3333333333333</ele><time>2026-04-19T09:36:56.007Z</time></trkpt><trkpt lat="44.4338627" lon="10.4073649"><ele>701.6666666666666</ele><time>2026-04-19T09:36:57.006Z</time></trkpt><trkpt lat="44.433881" lon="10.4072758"><ele>701.0</ele><time>2026-04-19T09:36:58.006Z</time></trkpt><trkpt lat="44.4339051" lon="10.4071745"><ele>700.5999999999999</ele><time>2026-04-19T09:36:59.006Z</time></trkpt><trkpt lat="44.4339323" lon="10.4070553"><ele>700.2</ele><time>2026-04-19T09:37:00.006Z</time></trkpt><trkpt lat="44.433956" lon="10.4069327"><ele>699.8</ele><time>2026-04-19T09:37:01.007Z</time></trkpt><trkpt lat="44.43398" lon="10.4068089"><ele>699.4000000000001</ele><time>2026-04-19T09:37:02.006Z</time></trkpt><trkpt lat="44.4340066" lon="10.4066806"><ele>699.0</ele><time>2026-04-19T09:37:03.007Z</time></trkpt><trkpt lat="44.4340323" lon="10.4065387"><ele>699.0</ele><time>2026-04-19T09:37:04.007Z</time></trkpt><trkpt lat="44.4340566" lon="10.4063864"><ele>699.0</ele><time>2026-04-19T09:37:05.006Z</time></trkpt><trkpt lat="44.4340788" lon="10.4062216"><ele>699.0</ele><time>2026-04-19T09:37:06.006Z</time></trkpt><trkpt lat="44.4340928" lon="10.4060603"><ele>699.0</ele><time>2026-04-19T09:37:07.006Z</time></trkpt><trkpt lat="44.4340948" lon="10.4059113"><ele>698.8000000000001</ele><time>2026-04-19T09:37:08.005Z</time></trkpt><trkpt lat="44.4340852" lon="10.4057729"><ele>698.6</ele><time>2026-04-19T09:37:09.007Z</time></trkpt><trkpt lat="44.4340672" lon="10.4056361"><ele>698.4</ele><time>2026-04-19T09:37:10.007Z</time></trkpt><trkpt lat="44.4340371" lon="10.4055008"><ele>698.2</ele><time>2026-04-19T09:37:11.005Z</time></trkpt><trkpt lat="44.4339992" lon="10.4053723"><ele>698.0</ele><time>2026-04-19T09:37:12.007Z</time></trkpt><trkpt lat="44.4339539" lon="10.4052504"><ele>698.0</ele><time>2026-04-19T09:37:13.006Z</time></trkpt><trkpt lat="44.4339043" lon="10.405131"><ele>698.0</ele><time>2026-04-19T09:37:14.007Z</time></trkpt><trkpt lat="44.4338516" lon="10.4050097"><ele>698.0</ele><time>2026-04-19T09:37:15.007Z</time></trkpt><trkpt lat="44.4338011" lon="10.4048933"><ele>698.0</ele><time>2026-04-19T09:37:16.007Z</time></trkpt><trkpt lat="44.4337507" lon="10.4047817"><ele>698.0</ele><time>2026-04-19T09:37:17.007Z</time></trkpt><trkpt lat="44.4337018" lon="10.4046707"><ele>697.1666666666666</ele><time>2026-04-19T09:37:18.007Z</time></trkpt><trkpt lat="44.4336559" lon="10.4045642"><ele>696.3333333333333</ele><time>2026-04-19T09:37:19.007Z</time></trkpt><trkpt lat="44.4336163" lon="10.4044667"><ele>695.5</ele><time>2026-04-19T09:37:20.005Z</time></trkpt><trkpt lat="44.4335854" lon="10.4043818"><ele>694.6666666666666</ele><time>2026-04-19T09:37:21.007Z</time></trkpt><trkpt lat="44.4335443" lon="10.4042716"><ele>693.8333333333334</ele><time>2026-04-19T09:37:23.006Z</time></trkpt><trkpt lat="44.4335112" lon="10.404192"><ele>693.0</ele><time>2026-04-19T09:37:38.007Z</time></trkpt><trkpt lat="44.4334434" lon="10.4040748"><ele>693.0</ele><time>2026-04-19T09:37:41.006Z</time></trkpt><trkpt lat="44.4334079" lon="10.4039979"><ele>693.0</ele><time>2026-04-19T09:37:42.006Z</time></trkpt><trkpt lat="44.4333703" lon="10.4039118"><ele>693.0</ele><time>2026-04-19T09:37:43.006Z</time></trkpt><trkpt lat="44.4333282" lon="10.4038173"><ele>693.0</ele><time>2026-04-19T09:37:44.005Z</time></trkpt><trkpt lat="44.4332799" lon="10.4037031"><ele>693.0</ele><time>2026-04-19T09:37:45.007Z</time></trkpt><trkpt lat="44.4332243" lon="10.4035733"><ele>693.0</ele><time>2026-04-19T09:37:46.006Z</time></trkpt><trkpt lat="44.4331652" lon="10.403441"><ele>692.75</ele><time>2026-04-19T09:37:47.006Z</time></trkpt><trkpt lat="44.4331004" lon="10.4032947"><ele>692.5</ele><time>2026-04-19T09:37:48.005Z</time></trkpt><trkpt lat="44.4330328" lon="10.4031432"><ele>692.25</ele><time>2026-04-19T09:37:49.007Z</time></trkpt><trkpt lat="44.4329642" lon="10.4029885"><ele>692.0</ele><time>2026-04-19T09:37:50.007Z</time></trkpt><trkpt lat="44.4328934" lon="10.4028276"><ele>692.0</ele><time>2026-04-19T09:37:51.007Z</time></trkpt><trkpt lat="44.4328264" lon="10.4026709"><ele>692.0</ele><time>2026-04-19T09:37:52.007Z</time></trkpt><trkpt lat="44.4327536" lon="10.4025048"><ele>692.0</ele><time>2026-04-19T09:37:53.006Z</time></trkpt><trkpt lat="44.4326784" lon="10.4023338"><ele>692.0</ele><time>2026-04-19T09:37:54.006Z</time></trkpt><trkpt lat="44.4326013" lon="10.4021611"><ele>692.5</ele><time>2026-04-19T09:37:55.007Z</time></trkpt><trkpt lat="44.4325257" lon="10.4019839"><ele>693.0</ele><time>2026-04-19T09:37:56.006Z</time></trkpt><trkpt lat="44.4324493" lon="10.4018055"><ele>693.5</ele><time>2026-04-19T09:37:57.005Z</time></trkpt><trkpt lat="44.4323706" lon="10.4016273"><ele>694.0</ele><time>2026-04-19T09:37:58.007Z</time></trkpt><trkpt lat="44.4322913" lon="10.4014472"><ele>695.0</ele><time>2026-04-19T09:37:59.007Z</time></trkpt><trkpt lat="44.4322113" lon="10.4012656"><ele>696.0</ele><time>2026-04-19T09:38:00.007Z</time></trkpt><trkpt lat="44.4321299" lon="10.4010819"><ele>697.0</ele><time>2026-04-19T09:38:01.006Z</time></trkpt><trkpt lat="44.4320502" lon="10.4008982"><ele>696.25</ele><time>2026-04-19T09:38:02.006Z</time></trkpt><trkpt lat="44.431976" lon="10.4007269"><ele>695.5</ele><time>2026-04-19T09:38:03.007Z</time></trkpt><trkpt lat="44.4318993" lon="10.4005637"><ele>694.75</ele><time>2026-04-19T09:38:04.007Z</time></trkpt><trkpt lat="44.4318241" lon="10.4004014"><ele>694.0</ele><time>2026-04-19T09:38:05.006Z</time></trkpt><trkpt lat="44.431752" lon="10.4002348"><ele>694.0</ele><time>2026-04-19T09:38:06.007Z</time></trkpt><trkpt lat="44.4316818" lon="10.4000663"><ele>694.0</ele><time>2026-04-19T09:38:07.006Z</time></trkpt><trkpt lat="44.4316115" lon="10.399897"><ele>694.0</ele><time>2026-04-19T09:38:08.006Z</time></trkpt><trkpt lat="44.4315342" lon="10.3997341"><ele>694.0</ele><time>2026-04-19T09:38:09.007Z</time></trkpt><trkpt lat="44.4314563" lon="10.3995713"><ele>693.5</ele><time>2026-04-19T09:38:10.007Z</time></trkpt><trkpt lat="44.4313809" lon="10.3994063"><ele>693.0</ele><time>2026-04-19T09:38:11.006Z</time></trkpt><trkpt lat="44.4313102" lon="10.3992445"><ele>692.5</ele><time>2026-04-19T09:38:12.006Z</time></trkpt><trkpt lat="44.4312433" lon="10.3990867"><ele>692.0</ele><time>2026-04-19T09:38:13.007Z</time></trkpt><trkpt lat="44.4311776" lon="10.3989342"><ele>692.25</ele><time>2026-04-19T09:38:14.007Z</time></trkpt><trkpt lat="44.4311259" lon="10.3987855"><ele>692.5</ele><time>2026-04-19T09:38:15.006Z</time></trkpt><trkpt lat="44.431083" lon="10.3986262"><ele>692.75</ele><time>2026-04-19T09:38:16.007Z</time></trkpt><trkpt lat="44.4310558" lon="10.3984647"><ele>693.0</ele><time>2026-04-19T09:38:17.006Z</time></trkpt><trkpt lat="44.4310434" lon="10.3982902"><ele>693.0</ele><time>2026-04-19T09:38:18.005Z</time></trkpt><trkpt lat="44.4310504" lon="10.3981085"><ele>693.0</ele><time>2026-04-19T09:38:19.005Z</time></trkpt><trkpt lat="44.4310749" lon="10.3979271"><ele>693.0</ele><time>2026-04-19T09:38:20.007Z</time></trkpt><trkpt lat="44.4311106" lon="10.3977397"><ele>693.0</ele><time>2026-04-19T09:38:21.006Z</time></trkpt><trkpt lat="44.4311531" lon="10.3975468"><ele>692.25</ele><time>2026-04-19T09:38:22.007Z</time></trkpt><trkpt lat="44.4311995" lon="10.3973458"><ele>691.5</ele><time>2026-04-19T09:38:23.007Z</time></trkpt><trkpt lat="44.4312422" lon="10.3971509"><ele>690.75</ele><time>2026-04-19T09:38:24.006Z</time></trkpt><trkpt lat="44.4312797" lon="10.396969"><ele>690.0</ele><time>2026-04-19T09:38:25.006Z</time></trkpt><trkpt lat="44.4313162" lon="10.3967975"><ele>692.2</ele><time>2026-04-19T09:38:26.006Z</time></trkpt><trkpt lat="44.4313513" lon="10.3966373"><ele>694.4</ele><time>2026-04-19T09:38:27.007Z</time></trkpt><trkpt lat="44.431384" lon="10.3964846"><ele>696.5999999999999</ele><time>2026-04-19T09:38:28.007Z</time></trkpt><trkpt lat="44.4314088" lon="10.3963411"><ele>698.8</ele><time>2026-04-19T09:38:29.006Z</time></trkpt><trkpt lat="44.4314246" lon="10.3962104"><ele>701.0</ele><time>2026-04-19T09:38:30.007Z</time></trkpt><trkpt lat="44.4314315" lon="10.3960891"><ele>701.0</ele><time>2026-04-19T09:38:31.007Z</time></trkpt><trkpt lat="44.4314301" lon="10.3959628"><ele>701.0</ele><time>2026-04-19T09:38:32.006Z</time></trkpt><trkpt lat="44.4314243" lon="10.3958376"><ele>701.0</ele><time>2026-04-19T09:38:33.007Z</time></trkpt><trkpt lat="44.4314118" lon="10.3957002"><ele>701.0</ele><time>2026-04-19T09:38:34.007Z</time></trkpt><trkpt lat="44.4313856" lon="10.3955564"><ele>701.0</ele><time>2026-04-19T09:38:35.007Z</time></trkpt><trkpt lat="44.4313361" lon="10.3954129"><ele>699.25</ele><time>2026-04-19T09:38:36.007Z</time></trkpt><trkpt lat="44.4312656" lon="10.395274"><ele>697.5</ele><time>2026-04-19T09:38:37.007Z</time></trkpt><trkpt lat="44.4311807" lon="10.3951434"><ele>695.75</ele><time>2026-04-19T09:38:38.007Z</time></trkpt><trkpt lat="44.4310985" lon="10.3950325"><ele>694.0</ele><time>2026-04-19T09:38:39.005Z</time></trkpt><trkpt lat="44.4310185" lon="10.3949326"><ele>694.0</ele><time>2026-04-19T09:38:40.007Z</time></trkpt><trkpt lat="44.4309357" lon="10.3948356"><ele>694.0</ele><time>2026-04-19T09:38:41.007Z</time></trkpt><trkpt lat="44.4308504" lon="10.3947355"><ele>694.0</ele><time>2026-04-19T09:38:42.007Z</time></trkpt><trkpt lat="44.430763" lon="10.394633"><ele>694.0</ele><time>2026-04-19T09:38:43.007Z</time></trkpt><trkpt lat="44.430674" lon="10.394529"><ele>694.0</ele><time>2026-04-19T09:38:44.007Z</time></trkpt><trkpt lat="44.4305844" lon="10.3944233"><ele>693.25</ele><time>2026-04-19T09:38:45.006Z</time></trkpt><trkpt lat="44.4304952" lon="10.3943148"><ele>692.5</ele><time>2026-04-19T09:38:46.007Z</time></trkpt><trkpt lat="44.4304044" lon="10.3942061"><ele>691.75</ele><time>2026-04-19T09:38:47.006Z</time></trkpt><trkpt lat="44.4303147" lon="10.3940989"><ele>691.0</ele><time>2026-04-19T09:38:48.006Z</time></trkpt><trkpt lat="44.4302305" lon="10.3939997"><ele>691.0</ele><time>2026-04-19T09:38:49.007Z</time></trkpt><trkpt lat="44.4301451" lon="10.393899"><ele>691.0</ele><time>2026-04-19T09:38:50.006Z</time></trkpt><trkpt lat="44.4300685" lon="10.3937925"><ele>691.0</ele><time>2026-04-19T09:38:51.007Z</time></trkpt><trkpt lat="44.4300006" lon="10.3936735"><ele>691.0</ele><time>2026-04-19T09:38:52.007Z</time></trkpt><trkpt lat="44.4299367" lon="10.3935472"><ele>691.0</ele><time>2026-04-19T09:38:53.006Z</time></trkpt><trkpt lat="44.4298792" lon="10.3934075"><ele>693.75</ele><time>2026-04-19T09:38:54.006Z</time></trkpt><trkpt lat="44.4298243" lon="10.3932615"><ele>696.5</ele><time>2026-04-19T09:38:55.007Z</time></trkpt><trkpt lat="44.4297794" lon="10.3931071"><ele>699.25</ele><time>2026-04-19T09:38:56.007Z</time></trkpt><trkpt lat="44.4297276" lon="10.3929468"><ele>702.0</ele><time>2026-04-19T09:38:57.006Z</time></trkpt><trkpt lat="44.4296688" lon="10.3927808"><ele>699.0</ele><time>2026-04-19T09:38:58.005Z</time></trkpt><trkpt lat="44.4296177" lon="10.3926205"><ele>696.0</ele><time>2026-04-19T09:38:59.005Z</time></trkpt><trkpt lat="44.429564" lon="10.3924481"><ele>693.0</ele><time>2026-04-19T09:39:00.006Z</time></trkpt><trkpt lat="44.4295124" lon="10.3922759"><ele>690.0</ele><time>2026-04-19T09:39:01.005Z</time></trkpt><trkpt lat="44.4294576" lon="10.3921066"><ele>690.0</ele><time>2026-04-19T09:39:02.007Z</time></trkpt><trkpt lat="44.4294098" lon="10.3919443"><ele>690.0</ele><time>2026-04-19T09:39:03.007Z</time></trkpt><trkpt lat="44.4293622" lon="10.3917827"><ele>690.0</ele><time>2026-04-19T09:39:04.006Z</time></trkpt><trkpt lat="44.4293135" lon="10.391615"><ele>690.0</ele><time>2026-04-19T09:39:05.007Z</time></trkpt><trkpt lat="44.4292633" lon="10.3914463"><ele>690.75</ele><time>2026-04-19T09:39:06.007Z</time></trkpt><trkpt lat="44.4292116" lon="10.391281"><ele>691.5</ele><time>2026-04-19T09:39:07.007Z</time></trkpt><trkpt lat="44.4291597" lon="10.391121"><ele>692.25</ele><time>2026-04-19T09:39:08.005Z</time></trkpt><trkpt lat="44.4291103" lon="10.3909662"><ele>693.0</ele><time>2026-04-19T09:39:09.007Z</time></trkpt><trkpt lat="44.4290646" lon="10.390816"><ele>693.0</ele><time>2026-04-19T09:39:10.006Z</time></trkpt><trkpt lat="44.4290251" lon="10.3906693"><ele>693.0</ele><time>2026-04-19T09:39:11.006Z</time></trkpt><trkpt lat="44.4289946" lon="10.3905251"><ele>693.0</ele><time>2026-04-19T09:39:12.007Z</time></trkpt><trkpt lat="44.4289748" lon="10.3903738"><ele>693.0</ele><time>2026-04-19T09:39:13.006Z</time></trkpt><trkpt lat="44.4289692" lon="10.3902119"><ele>693.0</ele><time>2026-04-19T09:39:14.006Z</time></trkpt><trkpt lat="44.4289799" lon="10.3900524"><ele>692.5</ele><time>2026-04-19T09:39:15.007Z</time></trkpt><trkpt lat="44.4290078" lon="10.3898862"><ele>692.0</ele><time>2026-04-19T09:39:16.006Z</time></trkpt><trkpt lat="44.4290501" lon="10.3897284"><ele>691.5</ele><time>2026-04-19T09:39:17.007Z</time></trkpt><trkpt lat="44.4291045" lon="10.3895812"><ele>691.0</ele><time>2026-04-19T09:39:18.007Z</time></trkpt><trkpt lat="44.4291757" lon="10.3894326"><ele>688.5</ele><time>2026-04-19T09:39:19.007Z</time></trkpt><trkpt lat="44.4292631" lon="10.3892918"><ele>686.0</ele><time>2026-04-19T09:39:20.006Z</time></trkpt><trkpt lat="44.429351" lon="10.3891532"><ele>683.5</ele><time>2026-04-19T09:39:21.007Z</time></trkpt><trkpt lat="44.4294328" lon="10.3890156"><ele>681.0</ele><time>2026-04-19T09:39:22.006Z</time></trkpt><trkpt lat="44.429505" lon="10.3888797"><ele>679.75</ele><time>2026-04-19T09:39:23.006Z</time></trkpt><trkpt lat="44.429568" lon="10.3887396"><ele>678.5</ele><time>2026-04-19T09:39:24.006Z</time></trkpt><trkpt lat="44.4296213" lon="10.38859"><ele>677.25</ele><time>2026-04-19T09:39:25.007Z</time></trkpt><trkpt lat="44.4296637" lon="10.3884257"><ele>676.0</ele><time>2026-04-19T09:39:26.006Z</time></trkpt><trkpt lat="44.4296925" lon="10.3882526"><ele>675.5</ele><time>2026-04-19T09:39:27.006Z</time></trkpt><trkpt lat="44.4297061" lon="10.3880844"><ele>675.0</ele><time>2026-04-19T09:39:28.005Z</time></trkpt><trkpt lat="44.4296979" lon="10.3879086"><ele>674.5</ele><time>2026-04-19T09:39:29.007Z</time></trkpt><trkpt lat="44.4296689" lon="10.3877344"><ele>674.0</ele><time>2026-04-19T09:39:30.007Z</time></trkpt><trkpt lat="44.4296237" lon="10.387565"><ele>674.0</ele><time>2026-04-19T09:39:31.006Z</time></trkpt><trkpt lat="44.4295635" lon="10.387412"><ele>674.0</ele><time>2026-04-19T09:39:32.007Z</time></trkpt><trkpt lat="44.4294858" lon="10.3872643"><ele>674.0</ele><time>2026-04-19T09:39:33.007Z</time></trkpt><trkpt lat="44.4294027" lon="10.3871385"><ele>674.0</ele><time>2026-04-19T09:39:34.007Z</time></trkpt><trkpt lat="44.4293102" lon="10.387015"><ele>675.0</ele><time>2026-04-19T09:39:35.006Z</time></trkpt><trkpt lat="44.4292178" lon="10.3868899"><ele>676.0</ele><time>2026-04-19T09:39:36.006Z</time></trkpt><trkpt lat="44.4291257" lon="10.3867591"><ele>677.0</ele><time>2026-04-19T09:39:37.007Z</time></trkpt><trkpt lat="44.4290324" lon="10.3866236"><ele>678.0</ele><time>2026-04-19T09:39:38.006Z</time></trkpt><trkpt lat="44.4289357" lon="10.3864902"><ele>678.0</ele><time>2026-04-19T09:39:39.006Z</time></trkpt><trkpt lat="44.4288376" lon="10.386356"><ele>678.0</ele><time>2026-04-19T09:39:40.006Z</time></trkpt><trkpt lat="44.4287349" lon="10.3862183"><ele>678.0</ele><time>2026-04-19T09:39:41.007Z</time></trkpt><trkpt lat="44.4286147" lon="10.3860771"><ele>678.0</ele><time>2026-04-19T09:39:42.007Z</time></trkpt><trkpt lat="44.4284713" lon="10.385909"><ele>676.3333333333334</ele><time>2026-04-19T09:39:43.006Z</time></trkpt><trkpt lat="44.4283295" lon="10.3857285"><ele>674.6666666666667</ele><time>2026-04-19T09:39:44.006Z</time></trkpt><trkpt lat="44.4281733" lon="10.3855165"><ele>673.0</ele><time>2026-04-19T09:39:45.006Z</time></trkpt><trkpt lat="44.4280159" lon="10.3852904"><ele>672.3333333333334</ele><time>2026-04-19T09:39:46.006Z</time></trkpt><trkpt lat="44.4278713" lon="10.3850896"><ele>671.6666666666666</ele><time>2026-04-19T09:39:47.006Z</time></trkpt><trkpt lat="44.4277349" lon="10.3848983"><ele>671.0</ele><time>2026-04-19T09:39:48.005Z</time></trkpt><trkpt lat="44.4276138" lon="10.3847127"><ele>672.6666666666666</ele><time>2026-04-19T09:39:49.006Z</time></trkpt><trkpt lat="44.4275112" lon="10.3845206"><ele>674.3333333333334</ele><time>2026-04-19T09:39:50.007Z</time></trkpt><trkpt lat="44.4274223" lon="10.3843162"><ele>676.0</ele><time>2026-04-19T09:39:51.007Z</time></trkpt><trkpt lat="44.4273472" lon="10.3841045"><ele>676.0</ele><time>2026-04-19T09:39:52.007Z</time></trkpt><trkpt lat="44.4272814" lon="10.3838745"><ele>676.0</ele><time>2026-04-19T09:39:53.006Z</time></trkpt><trkpt lat="44.4272201" lon="10.3836289"><ele>676.0</ele><time>2026-04-19T09:39:54.007Z</time></trkpt><trkpt lat="44.4271599" lon="10.3833777"><ele>676.3333333333334</ele><time>2026-04-19T09:39:55.007Z</time></trkpt><trkpt lat="44.4271044" lon="10.3831542"><ele>676.6666666666666</ele><time>2026-04-19T09:39:56.006Z</time></trkpt><trkpt lat="44.4270527" lon="10.3829445"><ele>677.0</ele><time>2026-04-19T09:39:57.007Z</time></trkpt><trkpt lat="44.4270021" lon="10.3827544"><ele>677.75</ele><time>2026-04-19T09:39:58.006Z</time></trkpt><trkpt lat="44.4269475" lon="10.3825975"><ele>678.5</ele><time>2026-04-19T09:39:59.007Z</time></trkpt><trkpt lat="44.4268824" lon="10.3824545"><ele>679.25</ele><time>2026-04-19T09:40:00.007Z</time></trkpt><trkpt lat="44.4267985" lon="10.3823211"><ele>680.0</ele><time>2026-04-19T09:40:01.006Z</time></trkpt><trkpt lat="44.4266969" lon="10.382195"><ele>680.0</ele><time>2026-04-19T09:40:02.006Z</time></trkpt><trkpt lat="44.4265862" lon="10.3820652"><ele>680.0</ele><time>2026-04-19T09:40:03.007Z</time></trkpt><trkpt lat="44.4264714" lon="10.3819336"><ele>680.0</ele><time>2026-04-19T09:40:04.007Z</time></trkpt><trkpt lat="44.4263543" lon="10.381801"><ele>680.0</ele><time>2026-04-19T09:40:05.007Z</time></trkpt><trkpt lat="44.4262419" lon="10.381685"><ele>680.0</ele><time>2026-04-19T09:40:06.007Z</time></trkpt><trkpt lat="44.4261234" lon="10.3815838"><ele>680.0</ele><time>2026-04-19T09:40:07.006Z</time></trkpt><trkpt lat="44.4259936" lon="10.3815041"><ele>680.0</ele><time>2026-04-19T09:40:08.007Z</time></trkpt><trkpt lat="44.4258536" lon="10.3814458"><ele>680.0</ele><time>2026-04-19T09:40:09.005Z</time></trkpt><trkpt lat="44.4257042" lon="10.3813937"><ele>677.6666666666666</ele><time>2026-04-19T09:40:10.007Z</time></trkpt><trkpt lat="44.425552" lon="10.3813347"><ele>675.3333333333334</ele><time>2026-04-19T09:40:11.006Z</time></trkpt><trkpt lat="44.4254014" lon="10.3812591"><ele>673.0</ele><time>2026-04-19T09:40:12.007Z</time></trkpt><trkpt lat="44.425255" lon="10.3811681"><ele>673.0</ele><time>2026-04-19T09:40:13.007Z</time></trkpt><trkpt lat="44.425108" lon="10.3810754"><ele>673.0</ele><time>2026-04-19T09:40:14.005Z</time></trkpt><trkpt lat="44.4249614" lon="10.3809856"><ele>673.0</ele><time>2026-04-19T09:40:15.006Z</time></trkpt><trkpt lat="44.4248159" lon="10.3808973"><ele>673.0</ele><time>2026-04-19T09:40:16.006Z</time></trkpt><trkpt lat="44.4246664" lon="10.3808149"><ele>673.0</ele><time>2026-04-19T09:40:17.007Z</time></trkpt><trkpt lat="44.4245064" lon="10.3807366"><ele>673.0</ele><time>2026-04-19T09:40:18.007Z</time></trkpt><trkpt lat="44.4243366" lon="10.3806586"><ele>674.3333333333334</ele><time>2026-04-19T09:40:19.007Z</time></trkpt><trkpt lat="44.4241662" lon="10.3805632"><ele>675.6666666666666</ele><time>2026-04-19T09:40:20.006Z</time></trkpt><trkpt lat="44.4240037" lon="10.3804621"><ele>677.0</ele><time>2026-04-19T09:40:21.006Z</time></trkpt><trkpt lat="44.4238445" lon="10.3803494"><ele>679.6666666666666</ele><time>2026-04-19T09:40:22.007Z</time></trkpt><trkpt lat="44.4236895" lon="10.3802304"><ele>682.3333333333334</ele><time>2026-04-19T09:40:23.007Z</time></trkpt><trkpt lat="44.4235375" lon="10.3801037"><ele>685.0</ele><time>2026-04-19T09:40:24.007Z</time></trkpt><trkpt lat="44.4233817" lon="10.3799674"><ele>685.0</ele><time>2026-04-19T09:40:25.006Z</time></trkpt><trkpt lat="44.4232236" lon="10.3798195"><ele>685.0</ele><time>2026-04-19T09:40:26.007Z</time></trkpt><trkpt lat="44.4230531" lon="10.3796602"><ele>685.0</ele><time>2026-04-19T09:40:27.006Z</time></trkpt><trkpt lat="44.4228845" lon="10.3795116"><ele>686.3333333333334</ele><time>2026-04-19T09:40:28.006Z</time></trkpt><trkpt lat="44.4227191" lon="10.3793641"><ele>687.6666666666666</ele><time>2026-04-19T09:40:29.007Z</time></trkpt><trkpt lat="44.4225562" lon="10.3792138"><ele>689.0</ele><time>2026-04-19T09:40:30.006Z</time></trkpt><trkpt lat="44.4224011" lon="10.3790634"><ele>689.0</ele><time>2026-04-19T09:40:31.007Z</time></trkpt><trkpt lat="44.4222521" lon="10.3789189"><ele>689.0</ele><time>2026-04-19T09:40:32.006Z</time></trkpt><trkpt lat="44.4220927" lon="10.3787919"><ele>689.0</ele><time>2026-04-19T09:40:33.007Z</time></trkpt><trkpt lat="44.421938" lon="10.3786754"><ele>690.0</ele><time>2026-04-19T09:40:34.006Z</time></trkpt><trkpt lat="44.4217921" lon="10.3785458"><ele>691.0</ele><time>2026-04-19T09:40:35.006Z</time></trkpt><trkpt lat="44.4216515" lon="10.3783934"><ele>692.0</ele><time>2026-04-19T09:40:36.007Z</time></trkpt><trkpt lat="44.4215134" lon="10.3782252"><ele>692.0</ele><time>2026-04-19T09:40:37.007Z</time></trkpt><trkpt lat="44.4213737" lon="10.3780469"><ele>692.0</ele><time>2026-04-19T09:40:38.006Z</time></trkpt><trkpt lat="44.4212326" lon="10.3778604"><ele>692.0</ele><time>2026-04-19T09:40:39.007Z</time></trkpt><trkpt lat="44.4210925" lon="10.3776825"><ele>691.6666666666666</ele><time>2026-04-19T09:40:40.006Z</time></trkpt><trkpt lat="44.4209631" lon="10.3775191"><ele>691.3333333333334</ele><time>2026-04-19T09:40:41.007Z</time></trkpt><trkpt lat="44.4208403" lon="10.3773502"><ele>691.0</ele><time>2026-04-19T09:40:42.007Z</time></trkpt><trkpt lat="44.4207323" lon="10.3771695"><ele>691.0</ele><time>2026-04-19T09:40:43.006Z</time></trkpt><trkpt lat="44.4206413" lon="10.3769712"><ele>691.0</ele><time>2026-04-19T09:40:44.006Z</time></trkpt><trkpt lat="44.4205623" lon="10.3767621"><ele>691.0</ele><time>2026-04-19T09:40:45.007Z</time></trkpt><trkpt lat="44.4204879" lon="10.3765397"><ele>692.0</ele><time>2026-04-19T09:40:46.007Z</time></trkpt><trkpt lat="44.4204093" lon="10.3763056"><ele>693.0</ele><time>2026-04-19T09:40:47.005Z</time></trkpt><trkpt lat="44.4203225" lon="10.3760544"><ele>694.0</ele><time>2026-04-19T09:40:48.006Z</time></trkpt><trkpt lat="44.4202382" lon="10.3757993"><ele>694.0</ele><time>2026-04-19T09:40:49.006Z</time></trkpt><trkpt lat="44.4201643" lon="10.3755603"><ele>694.0</ele><time>2026-04-19T09:40:50.006Z</time></trkpt><trkpt lat="44.4200956" lon="10.3753299"><ele>694.0</ele><time>2026-04-19T09:40:51.007Z</time></trkpt><trkpt lat="44.4200294" lon="10.3751082"><ele>694.0</ele><time>2026-04-19T09:40:52.006Z</time></trkpt><trkpt lat="44.4199641" lon="10.3748921"><ele>694.0</ele><time>2026-04-19T09:40:53.007Z</time></trkpt><trkpt lat="44.4198927" lon="10.3746951"><ele>694.0</ele><time>2026-04-19T09:40:54.005Z</time></trkpt><trkpt lat="44.4198057" lon="10.3745158"><ele>694.0</ele><time>2026-04-19T09:40:55.006Z</time></trkpt><trkpt lat="44.4197046" lon="10.3743289"><ele>694.0</ele><time>2026-04-19T09:40:56.007Z</time></trkpt><trkpt lat="44.4196033" lon="10.374125"><ele>694.0</ele><time>2026-04-19T09:40:57.005Z</time></trkpt><trkpt lat="44.4195001" lon="10.3739068"><ele>697.3333333333334</ele><time>2026-04-19T09:40:58.006Z</time></trkpt><trkpt lat="44.4193857" lon="10.3736937"><ele>700.6666666666666</ele><time>2026-04-19T09:40:59.007Z</time></trkpt><trkpt lat="44.419268" lon="10.373519"><ele>704.0</ele><time>2026-04-19T09:41:00.006Z</time></trkpt><trkpt lat="44.419158" lon="10.373366"><ele>704.0</ele><time>2026-04-19T09:41:01.006Z</time></trkpt><trkpt lat="44.4190615" lon="10.3732319"><ele>704.0</ele><time>2026-04-19T09:41:02.005Z</time></trkpt><trkpt lat="44.4189862" lon="10.3731128"><ele>704.0</ele><time>2026-04-19T09:41:03.007Z</time></trkpt><trkpt lat="44.4189344" lon="10.372992"><ele>704.0</ele><time>2026-04-19T09:41:04.006Z</time></trkpt><trkpt lat="44.4189207" lon="10.3728633"><ele>704.0</ele><time>2026-04-19T09:41:05.006Z</time></trkpt><trkpt lat="44.4189407" lon="10.3727165"><ele>705.25</ele><time>2026-04-19T09:41:06.006Z</time></trkpt><trkpt lat="44.4189847" lon="10.372541"><ele>706.5</ele><time>2026-04-19T09:41:07.007Z</time></trkpt><trkpt lat="44.4190406" lon="10.3723585"><ele>707.75</ele><time>2026-04-19T09:41:08.005Z</time></trkpt><trkpt lat="44.4190989" lon="10.3721678"><ele>709.0</ele><time>2026-04-19T09:41:09.006Z</time></trkpt><trkpt lat="44.4191505" lon="10.3719615"><ele>710.75</ele><time>2026-04-19T09:41:10.006Z</time></trkpt><trkpt lat="44.4191722" lon="10.3717741"><ele>712.5</ele><time>2026-04-19T09:41:11.006Z</time></trkpt><trkpt lat="44.4191782" lon="10.3716015"><ele>714.25</ele><time>2026-04-19T09:41:12.006Z</time></trkpt><trkpt lat="44.4192012" lon="10.3714611"><ele>716.0</ele><time>2026-04-19T09:41:13.007Z</time></trkpt><trkpt lat="44.4192478" lon="10.3713357"><ele>718.5</ele><time>2026-04-19T09:41:14.007Z</time></trkpt><trkpt lat="44.4193447" lon="10.3712925"><ele>721.0</ele><time>2026-04-19T09:41:15.007Z</time></trkpt><trkpt lat="44.4194535" lon="10.3712579"><ele>723.5</ele><time>2026-04-19T09:41:16.007Z</time></trkpt><trkpt lat="44.4195851" lon="10.3712315"><ele>726.0</ele><time>2026-04-19T09:41:17.007Z</time></trkpt><trkpt lat="44.4197368" lon="10.3711904"><ele>727.0</ele><time>2026-04-19T09:41:18.006Z</time></trkpt><trkpt lat="44.4199134" lon="10.3711482"><ele>728.0</ele><time>2026-04-19T09:41:19.005Z</time></trkpt><trkpt lat="44.420095" lon="10.3711097"><ele>729.0</ele><time>2026-04-19T09:41:20.006Z</time></trkpt><trkpt lat="44.4202929" lon="10.3710661"><ele>730.6666666666666</ele><time>2026-04-19T09:41:21.006Z</time></trkpt><trkpt lat="44.4204962" lon="10.3710182"><ele>732.3333333333333</ele><time>2026-04-19T09:41:22.006Z</time></trkpt><trkpt lat="44.4206788" lon="10.3709759"><ele>734.0</ele><time>2026-04-19T09:41:23.005Z</time></trkpt><trkpt lat="44.4208641" lon="10.3709318"><ele>734.0</ele><time>2026-04-19T09:41:24.007Z</time></trkpt><trkpt lat="44.4210514" lon="10.3708907"><ele>734.0</ele><time>2026-04-19T09:41:25.006Z</time></trkpt><trkpt lat="44.4212374" lon="10.3708773"><ele>734.0</ele><time>2026-04-19T09:41:26.007Z</time></trkpt><trkpt lat="44.4214219" lon="10.3708957"><ele>735.3333333333333</ele><time>2026-04-19T09:41:27.006Z</time></trkpt><trkpt lat="44.4215901" lon="10.3709398"><ele>736.6666666666666</ele><time>2026-04-19T09:41:28.005Z</time></trkpt><trkpt lat="44.4217469" lon="10.3709908"><ele>738.0</ele><time>2026-04-19T09:41:29.006Z</time></trkpt><trkpt lat="44.4218835" lon="10.3710338"><ele>738.0</ele><time>2026-04-19T09:41:30.007Z</time></trkpt><trkpt lat="44.4219882" lon="10.3710667"><ele>738.0</ele><time>2026-04-19T09:41:31.006Z</time></trkpt><trkpt lat="44.4220769" lon="10.3710847"><ele>738.0</ele><time>2026-04-19T09:41:32.006Z</time></trkpt><trkpt lat="44.4221509" lon="10.3710783"><ele>738.0</ele><time>2026-04-19T09:41:33.006Z</time></trkpt><trkpt lat="44.4222149" lon="10.3709516"><ele>738.0</ele><time>2026-04-19T09:41:35.007Z</time></trkpt><trkpt lat="44.4221363" lon="10.3708235"><ele>738.0</ele><time>2026-04-19T09:41:37.007Z</time></trkpt><trkpt lat="44.4220536" lon="10.3707547"><ele>738.0</ele><time>2026-04-19T09:41:38.006Z</time></trkpt><trkpt lat="44.4219562" lon="10.3706598"><ele>738.0</ele><time>2026-04-19T09:41:39.007Z</time></trkpt><trkpt lat="44.4218821" lon="10.3705429"><ele>738.0</ele><time>2026-04-19T09:41:40.005Z</time></trkpt><trkpt lat="44.4218139" lon="10.3704019"><ele>738.0</ele><time>2026-04-19T09:41:41.007Z</time></trkpt><trkpt lat="44.4217468" lon="10.3702541"><ele>740.5</ele><time>2026-04-19T09:41:42.007Z</time></trkpt><trkpt lat="44.4216717" lon="10.3701381"><ele>743.0</ele><time>2026-04-19T09:41:43.006Z</time></trkpt><trkpt lat="44.4215679" lon="10.3700339"><ele>745.5</ele><time>2026-04-19T09:41:44.006Z</time></trkpt><trkpt lat="44.4214396" lon="10.369939"><ele>748.0</ele><time>2026-04-19T09:41:45.007Z</time></trkpt><trkpt lat="44.42131" lon="10.3698377"><ele>748.0</ele><time>2026-04-19T09:41:46.006Z</time></trkpt><trkpt lat="44.421182" lon="10.3697382"><ele>748.0</ele><time>2026-04-19T09:41:47.007Z</time></trkpt><trkpt lat="44.4210607" lon="10.3696486"><ele>748.0</ele><time>2026-04-19T09:41:48.005Z</time></trkpt><trkpt lat="44.4209393" lon="10.369584"><ele>748.0</ele><time>2026-04-19T09:41:49.007Z</time></trkpt><trkpt lat="44.420818" lon="10.369545"><ele>749.8</ele><time>2026-04-19T09:41:50.006Z</time></trkpt><trkpt lat="44.4207146" lon="10.369501"><ele>751.5999999999999</ele><time>2026-04-19T09:41:51.007Z</time></trkpt><trkpt lat="44.4206307" lon="10.3694333"><ele>753.4000000000001</ele><time>2026-04-19T09:41:52.007Z</time></trkpt><trkpt lat="44.4205722" lon="10.3693307"><ele>755.2</ele><time>2026-04-19T09:41:53.006Z</time></trkpt><trkpt lat="44.4205477" lon="10.3692156"><ele>757.0</ele><time>2026-04-19T09:41:54.007Z</time></trkpt><trkpt lat="44.4205509" lon="10.3690897"><ele>757.0</ele><time>2026-04-19T09:41:55.005Z</time></trkpt><trkpt lat="44.4205768" lon="10.3689594"><ele>757.0</ele><time>2026-04-19T09:41:56.007Z</time></trkpt><trkpt lat="44.4206019" lon="10.3688301"><ele>757.0</ele><time>2026-04-19T09:41:57.007Z</time></trkpt><trkpt lat="44.4205934" lon="10.368697"><ele>757.0</ele><time>2026-04-19T09:41:58.007Z</time></trkpt><trkpt lat="44.4205542" lon="10.3685711"><ele>757.0</ele><time>2026-04-19T09:41:59.006Z</time></trkpt><trkpt lat="44.4204856" lon="10.3684678"><ele>759.25</ele><time>2026-04-19T09:42:00.007Z</time></trkpt><trkpt lat="44.4203881" lon="10.3683688"><ele>761.5</ele><time>2026-04-19T09:42:01.006Z</time></trkpt><trkpt lat="44.4202657" lon="10.3682792"><ele>763.75</ele><time>2026-04-19T09:42:02.007Z</time></trkpt><trkpt lat="44.4201269" lon="10.3681882"><ele>766.0</ele><time>2026-04-19T09:42:03.006Z</time></trkpt><trkpt lat="44.4199956" lon="10.3680745"><ele>767.3333333333334</ele><time>2026-04-19T09:42:04.006Z</time></trkpt><trkpt lat="44.4198637" lon="10.3679068"><ele>768.6666666666667</ele><time>2026-04-19T09:42:05.007Z</time></trkpt><trkpt lat="44.4197335" lon="10.3677352"><ele>770.0</ele><time>2026-04-19T09:42:06.005Z</time></trkpt><trkpt lat="44.4196009" lon="10.3675491"><ele>770.0</ele><time>2026-04-19T09:42:07.007Z</time></trkpt><trkpt lat="44.4194584" lon="10.3673397"><ele>770.0</ele><time>2026-04-19T09:42:08.007Z</time></trkpt><trkpt lat="44.4193184" lon="10.3671413"><ele>770.0</ele><time>2026-04-19T09:42:09.007Z</time></trkpt><trkpt lat="44.4191911" lon="10.3669635"><ele>771.5</ele><time>2026-04-19T09:42:10.006Z</time></trkpt><trkpt lat="44.4190736" lon="10.3668216"><ele>773.0</ele><time>2026-04-19T09:42:11.007Z</time></trkpt><trkpt lat="44.4189452" lon="10.3667029"><ele>774.5</ele><time>2026-04-19T09:42:12.006Z</time></trkpt><trkpt lat="44.418819" lon="10.3666228"><ele>776.0</ele><time>2026-04-19T09:42:13.007Z</time></trkpt><trkpt lat="44.4187019" lon="10.3665653"><ele>776.0</ele><time>2026-04-19T09:42:14.007Z</time></trkpt><trkpt lat="44.4185981" lon="10.3665039"><ele>776.0</ele><time>2026-04-19T09:42:15.006Z</time></trkpt><trkpt lat="44.4185007" lon="10.3663986"><ele>776.0</ele><time>2026-04-19T09:42:16.007Z</time></trkpt><trkpt lat="44.4184128" lon="10.3662416"><ele>776.0</ele><time>2026-04-19T09:42:17.005Z</time></trkpt><trkpt lat="44.4183268" lon="10.3660466"><ele>781.0</ele><time>2026-04-19T09:42:18.007Z</time></trkpt><trkpt lat="44.4182352" lon="10.3658234"><ele>786.0</ele><time>2026-04-19T09:42:19.005Z</time></trkpt><trkpt lat="44.4181478" lon="10.3655909"><ele>791.0</ele><time>2026-04-19T09:42:20.006Z</time></trkpt><trkpt lat="44.4180697" lon="10.3653337"><ele>790.0</ele><time>2026-04-19T09:42:21.007Z</time></trkpt><trkpt lat="44.4180072" lon="10.3650943"><ele>789.0</ele><time>2026-04-19T09:42:22.006Z</time></trkpt><trkpt lat="44.4179599" lon="10.3648719"><ele>788.0</ele><time>2026-04-19T09:42:23.007Z</time></trkpt><trkpt lat="44.4179332" lon="10.3646429"><ele>788.0</ele><time>2026-04-19T09:42:24.005Z</time></trkpt><trkpt lat="44.4179274" lon="10.364404"><ele>788.0</ele><time>2026-04-19T09:42:25.005Z</time></trkpt><trkpt lat="44.4179404" lon="10.3641407"><ele>788.0</ele><time>2026-04-19T09:42:26.007Z</time></trkpt><trkpt lat="44.4179712" lon="10.3638569"><ele>793.6666666666667</ele><time>2026-04-19T09:42:27.007Z</time></trkpt><trkpt lat="44.4180168" lon="10.3635561"><ele>799.3333333333333</ele><time>2026-04-19T09:42:28.007Z</time></trkpt><trkpt lat="44.4180673" lon="10.3632615"><ele>805.0</ele><time>2026-04-19T09:42:29.006Z</time></trkpt><trkpt lat="44.4181204" lon="10.3629526"><ele>807.3333333333333</ele><time>2026-04-19T09:42:30.007Z</time></trkpt><trkpt lat="44.4181708" lon="10.3626796"><ele>809.6666666666667</ele><time>2026-04-19T09:42:31.006Z</time></trkpt><trkpt lat="44.4182209" lon="10.3624256"><ele>812.0</ele><time>2026-04-19T09:42:32.006Z</time></trkpt><trkpt lat="44.4182666" lon="10.362191"><ele>812.75</ele><time>2026-04-19T09:42:33.007Z</time></trkpt><trkpt lat="44.4183119" lon="10.361976"><ele>813.5</ele><time>2026-04-19T09:42:34.007Z</time></trkpt><trkpt lat="44.4183529" lon="10.3617815"><ele>814.25</ele><time>2026-04-19T09:42:35.006Z</time></trkpt><trkpt lat="44.4183879" lon="10.3616014"><ele>815.0</ele><time>2026-04-19T09:42:36.007Z</time></trkpt><trkpt lat="44.4184142" lon="10.3614449"><ele>816.4</ele><time>2026-04-19T09:42:37.007Z</time></trkpt><trkpt lat="44.4184147" lon="10.3613111"><ele>817.8</ele><time>2026-04-19T09:42:38.006Z</time></trkpt><trkpt lat="44.4183905" lon="10.3611936"><ele>819.2</ele><time>2026-04-19T09:42:39.006Z</time></trkpt><trkpt lat="44.4183396" lon="10.3610857"><ele>820.6</ele><time>2026-04-19T09:42:40.007Z</time></trkpt><trkpt lat="44.4182661" lon="10.3609863"><ele>822.0</ele><time>2026-04-19T09:42:41.006Z</time></trkpt><trkpt lat="44.418178" lon="10.3608845"><ele>822.0</ele><time>2026-04-19T09:42:42.006Z</time></trkpt><trkpt lat="44.4180739" lon="10.3607678"><ele>822.0</ele><time>2026-04-19T09:42:43.006Z</time></trkpt><trkpt lat="44.4179676" lon="10.3606207"><ele>822.0</ele><time>2026-04-19T09:42:44.007Z</time></trkpt><trkpt lat="44.4178664" lon="10.3604348"><ele>823.25</ele><time>2026-04-19T09:42:45.006Z</time></trkpt><trkpt lat="44.4177765" lon="10.3602833"><ele>824.5</ele><time>2026-04-19T09:42:46.007Z</time></trkpt><trkpt lat="44.4176924" lon="10.3601394"><ele>825.75</ele><time>2026-04-19T09:42:47.006Z</time></trkpt><trkpt lat="44.4176139" lon="10.360002"><ele>827.0</ele><time>2026-04-19T09:42:48.007Z</time></trkpt><trkpt lat="44.4175129" lon="10.3598648"><ele>827.0</ele><time>2026-04-19T09:42:49.007Z</time></trkpt><trkpt lat="44.4173874" lon="10.3597512"><ele>827.0</ele><time>2026-04-19T09:42:50.006Z</time></trkpt><trkpt lat="44.4172412" lon="10.3596407"><ele>827.0</ele><time>2026-04-19T09:42:51.005Z</time></trkpt><trkpt lat="44.4171098" lon="10.3595385"><ele>829.25</ele><time>2026-04-19T09:42:52.006Z</time></trkpt><trkpt lat="44.416989" lon="10.3594215"><ele>831.5</ele><time>2026-04-19T09:42:53.006Z</time></trkpt><trkpt lat="44.416886" lon="10.3592857"><ele>833.75</ele><time>2026-04-19T09:42:54.007Z</time></trkpt><trkpt lat="44.4168034" lon="10.3591498"><ele>836.0</ele><time>2026-04-19T09:42:55.006Z</time></trkpt><trkpt lat="44.41671" lon="10.3590214"><ele>836.0</ele><time>2026-04-19T09:42:56.007Z</time></trkpt><trkpt lat="44.4165882" lon="10.3589138"><ele>836.0</ele><time>2026-04-19T09:42:57.007Z</time></trkpt><trkpt lat="44.4164517" lon="10.3588164"><ele>836.0</ele><time>2026-04-19T09:42:58.006Z</time></trkpt><trkpt lat="44.4163144" lon="10.3587329"><ele>836.0</ele><time>2026-04-19T09:42:59.007Z</time></trkpt><trkpt lat="44.4161829" lon="10.3586538"><ele>839.0</ele><time>2026-04-19T09:43:00.006Z</time></trkpt><trkpt lat="44.4160551" lon="10.3585776"><ele>842.0</ele><time>2026-04-19T09:43:01.007Z</time></trkpt><trkpt lat="44.4159206" lon="10.3584968"><ele>845.0</ele><time>2026-04-19T09:43:02.006Z</time></trkpt><trkpt lat="44.4157741" lon="10.3584096"><ele>848.0</ele><time>2026-04-19T09:43:03.007Z</time></trkpt><trkpt lat="44.4156223" lon="10.3583294"><ele>848.0</ele><time>2026-04-19T09:43:04.007Z</time></trkpt><trkpt lat="44.4154876" lon="10.3582573"><ele>848.0</ele><time>2026-04-19T09:43:05.007Z</time></trkpt><trkpt lat="44.4153673" lon="10.3581875"><ele>848.0</ele><time>2026-04-19T09:43:06.007Z</time></trkpt><trkpt lat="44.4152651" lon="10.3581067"><ele>848.0</ele><time>2026-04-19T09:43:07.007Z</time></trkpt><trkpt lat="44.415174" lon="10.3579992"><ele>849.25</ele><time>2026-04-19T09:43:08.006Z</time></trkpt><trkpt lat="44.4150964" lon="10.3578591"><ele>850.5</ele><time>2026-04-19T09:43:09.007Z</time></trkpt><trkpt lat="44.4150456" lon="10.3577"><ele>851.75</ele><time>2026-04-19T09:43:10.006Z</time></trkpt><trkpt lat="44.4150198" lon="10.3575399"><ele>853.0</ele><time>2026-04-19T09:43:11.007Z</time></trkpt><trkpt lat="44.4150226" lon="10.3573749"><ele>853.0</ele><time>2026-04-19T09:43:12.005Z</time></trkpt><trkpt lat="44.4150637" lon="10.3572055"><ele>853.0</ele><time>2026-04-19T09:43:13.006Z</time></trkpt><trkpt lat="44.4151385" lon="10.3570471"><ele>853.0</ele><time>2026-04-19T09:43:14.006Z</time></trkpt><trkpt lat="44.4152395" lon="10.3569241"><ele>853.0</ele><time>2026-04-19T09:43:15.007Z</time></trkpt><trkpt lat="44.4153703" lon="10.356835"><ele>858.0</ele><time>2026-04-19T09:43:16.006Z</time></trkpt><trkpt lat="44.4155245" lon="10.3567872"><ele>863.0</ele><time>2026-04-19T09:43:17.006Z</time></trkpt><trkpt lat="44.4156789" lon="10.3567689"><ele>868.0</ele><time>2026-04-19T09:43:18.005Z</time></trkpt><trkpt lat="44.4158374" lon="10.3567559"><ele>868.0</ele><time>2026-04-19T09:43:19.005Z</time></trkpt><trkpt lat="44.4159977" lon="10.3567442"><ele>868.0</ele><time>2026-04-19T09:43:20.007Z</time></trkpt><trkpt lat="44.4161504" lon="10.3567371"><ele>868.0</ele><time>2026-04-19T09:43:21.007Z</time></trkpt><trkpt lat="44.4162924" lon="10.3567322"><ele>868.4</ele><time>2026-04-19T09:43:22.007Z</time></trkpt><trkpt lat="44.4164194" lon="10.3567319"><ele>868.8</ele><time>2026-04-19T09:43:23.006Z</time></trkpt><trkpt lat="44.4165276" lon="10.3567389"><ele>869.2</ele><time>2026-04-19T09:43:24.006Z</time></trkpt><trkpt lat="44.4166214" lon="10.3567452"><ele>869.6</ele><time>2026-04-19T09:43:25.007Z</time></trkpt><trkpt lat="44.4166996" lon="10.3567406"><ele>870.0</ele><time>2026-04-19T09:43:26.006Z</time></trkpt><trkpt lat="44.4167601" lon="10.3567085"><ele>870.0</ele><time>2026-04-19T09:43:27.006Z</time></trkpt><trkpt lat="44.4168037" lon="10.3565634"><ele>870.0</ele><time>2026-04-19T09:43:29.006Z</time></trkpt><trkpt lat="44.4167718" lon="10.3564725"><ele>870.0</ele><time>2026-04-19T09:43:30.006Z</time></trkpt><trkpt lat="44.4167016" lon="10.3563786"><ele>870.0</ele><time>2026-04-19T09:43:31.006Z</time></trkpt><trkpt lat="44.4165955" lon="10.3562818"><ele>870.0</ele><time>2026-04-19T09:43:32.007Z</time></trkpt><trkpt lat="44.4164617" lon="10.3561627"><ele>871.3333333333333</ele><time>2026-04-19T09:43:33.005Z</time></trkpt><trkpt lat="44.4163229" lon="10.3560222"><ele>872.6666666666666</ele><time>2026-04-19T09:43:34.006Z</time></trkpt><trkpt lat="44.4161743" lon="10.3558386"><ele>874.0</ele><time>2026-04-19T09:43:35.006Z</time></trkpt><trkpt lat="44.4160296" lon="10.3556562"><ele>878.6666666666666</ele><time>2026-04-19T09:43:36.007Z</time></trkpt><trkpt lat="44.4158891" lon="10.355513"><ele>883.3333333333333</ele><time>2026-04-19T09:43:37.006Z</time></trkpt><trkpt lat="44.4157376" lon="10.3553876"><ele>888.0</ele><time>2026-04-19T09:43:38.006Z</time></trkpt><trkpt lat="44.4155689" lon="10.3552948"><ele>888.0</ele><time>2026-04-19T09:43:39.006Z</time></trkpt><trkpt lat="44.415397" lon="10.3552244"><ele>888.0</ele><time>2026-04-19T09:43:40.006Z</time></trkpt><trkpt lat="44.4152469" lon="10.3551574"><ele>888.0</ele><time>2026-04-19T09:43:41.007Z</time></trkpt><trkpt lat="44.4151109" lon="10.3550766"><ele>888.0</ele><time>2026-04-19T09:43:42.007Z</time></trkpt><trkpt lat="44.4149953" lon="10.3549613"><ele>888.0</ele><time>2026-04-19T09:43:43.007Z</time></trkpt><trkpt lat="44.4148872" lon="10.3547945"><ele>888.0</ele><time>2026-04-19T09:43:44.007Z</time></trkpt><trkpt lat="44.4147816" lon="10.3545974"><ele>888.4</ele><time>2026-04-19T09:43:45.006Z</time></trkpt><trkpt lat="44.4146971" lon="10.3544383"><ele>888.8</ele><time>2026-04-19T09:43:46.007Z</time></trkpt><trkpt lat="44.4146328" lon="10.3543073"><ele>889.2</ele><time>2026-04-19T09:43:47.005Z</time></trkpt><trkpt lat="44.414599" lon="10.3541978"><ele>889.6</ele><time>2026-04-19T09:43:48.006Z</time></trkpt><trkpt lat="44.4146065" lon="10.354094"><ele>890.0</ele><time>2026-04-19T09:43:49.006Z</time></trkpt><trkpt lat="44.4146553" lon="10.3540011"><ele>891.0</ele><time>2026-04-19T09:43:50.006Z</time></trkpt><trkpt lat="44.414745" lon="10.3539431"><ele>892.0</ele><time>2026-04-19T09:43:51.006Z</time></trkpt><trkpt lat="44.4148739" lon="10.3538993"><ele>893.0</ele><time>2026-04-19T09:43:52.006Z</time></trkpt><trkpt lat="44.4150324" lon="10.3538524"><ele>894.0</ele><time>2026-04-19T09:43:53.006Z</time></trkpt><trkpt lat="44.4152042" lon="10.353794"><ele>896.3333333333333</ele><time>2026-04-19T09:43:54.005Z</time></trkpt><trkpt lat="44.4153977" lon="10.3537271"><ele>898.6666666666666</ele><time>2026-04-19T09:43:55.006Z</time></trkpt><trkpt lat="44.4155633" lon="10.3536702"><ele>901.0</ele><time>2026-04-19T09:43:56.006Z</time></trkpt><trkpt lat="44.4157126" lon="10.3536176"><ele>901.75</ele><time>2026-04-19T09:43:57.006Z</time></trkpt><trkpt lat="44.4158363" lon="10.3535621"><ele>902.5</ele><time>2026-04-19T09:43:58.007Z</time></trkpt><trkpt lat="44.4159342" lon="10.3534786"><ele>903.25</ele><time>2026-04-19T09:43:59.006Z</time></trkpt><trkpt lat="44.4160183" lon="10.3533472"><ele>904.0</ele><time>2026-04-19T09:44:00.006Z</time></trkpt><trkpt lat="44.4160709" lon="10.3531665"><ele>906.6666666666666</ele><time>2026-04-19T09:44:01.007Z</time></trkpt><trkpt lat="44.4161044" lon="10.3529443"><ele>909.3333333333333</ele><time>2026-04-19T09:44:02.005Z</time></trkpt><trkpt lat="44.4161273" lon="10.3526851"><ele>912.0</ele><time>2026-04-19T09:44:03.007Z</time></trkpt><trkpt lat="44.4161499" lon="10.3524356"><ele>916.3333333333333</ele><time>2026-04-19T09:44:04.006Z</time></trkpt><trkpt lat="44.4161761" lon="10.3522053"><ele>920.6666666666666</ele><time>2026-04-19T09:44:05.007Z</time></trkpt><trkpt lat="44.4162238" lon="10.3519985"><ele>925.0</ele><time>2026-04-19T09:44:06.006Z</time></trkpt><trkpt lat="44.4163046" lon="10.3518154"><ele>923.5</ele><time>2026-04-19T09:44:07.005Z</time></trkpt><trkpt lat="44.4164165" lon="10.3516636"><ele>922.0</ele><time>2026-04-19T09:44:08.005Z</time></trkpt><trkpt lat="44.4165407" lon="10.3515364"><ele>920.5</ele><time>2026-04-19T09:44:09.006Z</time></trkpt><trkpt lat="44.4166424" lon="10.3514224"><ele>919.0</ele><time>2026-04-19T09:44:10.006Z</time></trkpt><trkpt lat="44.4167056" lon="10.3513127"><ele>918.9999999999999</ele><time>2026-04-19T09:44:11.006Z</time></trkpt><trkpt lat="44.4167331" lon="10.351223"><ele>919.0</ele><time>2026-04-19T09:44:12.007Z</time></trkpt><trkpt lat="44.4167257" lon="10.3511336"><ele>919.0</ele><time>2026-04-19T09:44:13.007Z</time></trkpt><trkpt lat="44.4166195" lon="10.3510492"><ele>919.0</ele><time>2026-04-19T09:44:15.006Z</time></trkpt><trkpt lat="44.4165362" lon="10.3510667"><ele>918.9999999999999</ele><time>2026-04-19T09:44:16.006Z</time></trkpt><trkpt lat="44.4164447" lon="10.3511075"><ele>919.0</ele><time>2026-04-19T09:44:17.005Z</time></trkpt><trkpt lat="44.4163199" lon="10.3511535"><ele>924.0</ele><time>2026-04-19T09:44:18.006Z</time></trkpt><trkpt lat="44.4161758" lon="10.3511944"><ele>929.0</ele><time>2026-04-19T09:44:19.007Z</time></trkpt><trkpt lat="44.4160169" lon="10.3512488"><ele>934.0</ele><time>2026-04-19T09:44:20.007Z</time></trkpt><trkpt lat="44.415837" lon="10.3513071"><ele>934.0</ele><time>2026-04-19T09:44:21.007Z</time></trkpt><trkpt lat="44.4156747" lon="10.3513432"><ele>934.0</ele><time>2026-04-19T09:44:22.007Z</time></trkpt><trkpt lat="44.4155065" lon="10.3513451"><ele>934.0</ele><time>2026-04-19T09:44:23.006Z</time></trkpt><trkpt lat="44.4153297" lon="10.3513083"><ele>936.3333333333333</ele><time>2026-04-19T09:44:24.007Z</time></trkpt><trkpt lat="44.4151687" lon="10.3512607"><ele>938.6666666666667</ele><time>2026-04-19T09:44:25.006Z</time></trkpt><trkpt lat="44.41502" lon="10.3512042"><ele>941.0</ele><time>2026-04-19T09:44:26.007Z</time></trkpt><trkpt lat="44.4148789" lon="10.3511203"><ele>941.0</ele><time>2026-04-19T09:44:27.007Z</time></trkpt><trkpt lat="44.4147554" lon="10.3509964"><ele>941.0</ele><time>2026-04-19T09:44:28.006Z</time></trkpt><trkpt lat="44.4146264" lon="10.3508322"><ele>941.0</ele><time>2026-04-19T09:44:29.007Z</time></trkpt><trkpt lat="44.4145035" lon="10.3506499"><ele>943.0</ele><time>2026-04-19T09:44:30.007Z</time></trkpt><trkpt lat="44.4143803" lon="10.3504645"><ele>945.0</ele><time>2026-04-19T09:44:31.007Z</time></trkpt><trkpt lat="44.4142411" lon="10.3503062"><ele>947.0</ele><time>2026-04-19T09:44:32.006Z</time></trkpt><trkpt lat="44.4141052" lon="10.3501845"><ele>947.0</ele><time>2026-04-19T09:44:33.006Z</time></trkpt><trkpt lat="44.4139891" lon="10.3500562"><ele>947.0</ele><time>2026-04-19T09:44:34.007Z</time></trkpt><trkpt lat="44.4138797" lon="10.3499057"><ele>947.0</ele><time>2026-04-19T09:44:35.006Z</time></trkpt><trkpt lat="44.4137907" lon="10.3497241"><ele>948.6666666666667</ele><time>2026-04-19T09:44:36.006Z</time></trkpt><trkpt lat="44.4137098" lon="10.3495121"><ele>950.3333333333333</ele><time>2026-04-19T09:44:37.007Z</time></trkpt><trkpt lat="44.4136285" lon="10.3492789"><ele>952.0</ele><time>2026-04-19T09:44:38.005Z</time></trkpt><trkpt lat="44.413538" lon="10.3490536"><ele>956.3333333333333</ele><time>2026-04-19T09:44:39.007Z</time></trkpt><trkpt lat="44.4134421" lon="10.3488587"><ele>960.6666666666667</ele><time>2026-04-19T09:44:40.006Z</time></trkpt><trkpt lat="44.4133529" lon="10.348676"><ele>965.0</ele><time>2026-04-19T09:44:41.006Z</time></trkpt><trkpt lat="44.4132803" lon="10.3484778"><ele>965.0</ele><time>2026-04-19T09:44:42.006Z</time></trkpt><trkpt lat="44.4132205" lon="10.3482585"><ele>965.0</ele><time>2026-04-19T09:44:43.007Z</time></trkpt><trkpt lat="44.4131625" lon="10.3480247"><ele>965.0</ele><time>2026-04-19T09:44:44.006Z</time></trkpt><trkpt lat="44.4131024" lon="10.3477659"><ele>965.6666666666667</ele><time>2026-04-19T09:44:45.006Z</time></trkpt><trkpt lat="44.413048" lon="10.3475282"><ele>966.3333333333333</ele><time>2026-04-19T09:44:46.006Z</time></trkpt><trkpt lat="44.4129971" lon="10.3473122"><ele>967.0</ele><time>2026-04-19T09:44:47.006Z</time></trkpt><trkpt lat="44.4129464" lon="10.3470846"><ele>970.3333333333333</ele><time>2026-04-19T09:44:48.007Z</time></trkpt><trkpt lat="44.4128959" lon="10.3468521"><ele>973.6666666666667</ele><time>2026-04-19T09:44:49.007Z</time></trkpt><trkpt lat="44.4128438" lon="10.3466416"><ele>977.0</ele><time>2026-04-19T09:44:50.007Z</time></trkpt><trkpt lat="44.4127838" lon="10.3464473"><ele>973.0</ele><time>2026-04-19T09:44:51.005Z</time></trkpt><trkpt lat="44.4127057" lon="10.3462561"><ele>969.0</ele><time>2026-04-19T09:44:52.006Z</time></trkpt><trkpt lat="44.4126092" lon="10.3460736"><ele>965.0</ele><time>2026-04-19T09:44:53.007Z</time></trkpt><trkpt lat="44.4125012" lon="10.3459171"><ele>965.0</ele><time>2026-04-19T09:44:54.007Z</time></trkpt><trkpt lat="44.4123781" lon="10.3457755"><ele>965.0</ele><time>2026-04-19T09:44:55.007Z</time></trkpt><trkpt lat="44.4122422" lon="10.3456472"><ele>965.0</ele><time>2026-04-19T09:44:56.005Z</time></trkpt><trkpt lat="44.4120984" lon="10.3455281"><ele>964.0</ele><time>2026-04-19T09:44:57.007Z</time></trkpt><trkpt lat="44.4119611" lon="10.3454244"><ele>963.0</ele><time>2026-04-19T09:44:58.006Z</time></trkpt><trkpt lat="44.4118292" lon="10.3453241"><ele>962.0</ele><time>2026-04-19T09:44:59.005Z</time></trkpt><trkpt lat="44.4117028" lon="10.3452266"><ele>962.0</ele><time>2026-04-19T09:45:00.006Z</time></trkpt><trkpt lat="44.4115772" lon="10.3451301"><ele>962.0</ele><time>2026-04-19T09:45:01.007Z</time></trkpt><trkpt lat="44.41145" lon="10.345036"><ele>962.0</ele><time>2026-04-19T09:45:02.007Z</time></trkpt><trkpt lat="44.4113173" lon="10.3449351"><ele>962.0</ele><time>2026-04-19T09:45:03.007Z</time></trkpt><trkpt lat="44.4111799" lon="10.3448352"><ele>961.3333333333334</ele><time>2026-04-19T09:45:04.007Z</time></trkpt><trkpt lat="44.4110376" lon="10.3447329"><ele>960.6666666666667</ele><time>2026-04-19T09:45:05.006Z</time></trkpt><trkpt lat="44.4108911" lon="10.3446206"><ele>960.0</ele><time>2026-04-19T09:45:06.006Z</time></trkpt><trkpt lat="44.4107395" lon="10.3445059"><ele>960.0</ele><time>2026-04-19T09:45:07.006Z</time></trkpt><trkpt lat="44.4105833" lon="10.3443891"><ele>960.0</ele><time>2026-04-19T09:45:08.006Z</time></trkpt><trkpt lat="44.4104156" lon="10.3442645"><ele>960.0</ele><time>2026-04-19T09:45:09.007Z</time></trkpt><trkpt lat="44.410247" lon="10.3441431"><ele>962.0</ele><time>2026-04-19T09:45:10.007Z</time></trkpt><trkpt lat="44.4100826" lon="10.3440272"><ele>964.0</ele><time>2026-04-19T09:45:11.006Z</time></trkpt><trkpt lat="44.4099195" lon="10.3438971"><ele>966.0</ele><time>2026-04-19T09:45:12.007Z</time></trkpt><trkpt lat="44.4097648" lon="10.34374"><ele>970.3333333333333</ele><time>2026-04-19T09:45:13.007Z</time></trkpt><trkpt lat="44.4096222" lon="10.3435529"><ele>974.6666666666666</ele><time>2026-04-19T09:45:14.006Z</time></trkpt><trkpt lat="44.4094873" lon="10.3433454"><ele>979.0</ele><time>2026-04-19T09:45:15.007Z</time></trkpt><trkpt lat="44.409353" lon="10.3431224"><ele>975.3333333333333</ele><time>2026-04-19T09:45:16.007Z</time></trkpt><trkpt lat="44.4092186" lon="10.342904"><ele>971.6666666666667</ele><time>2026-04-19T09:45:17.007Z</time></trkpt><trkpt lat="44.4090874" lon="10.3426892"><ele>968.0</ele><time>2026-04-19T09:45:18.007Z</time></trkpt><trkpt lat="44.4089632" lon="10.3424886"><ele>968.0</ele><time>2026-04-19T09:45:19.007Z</time></trkpt><trkpt lat="44.4088426" lon="10.3422971"><ele>968.0</ele><time>2026-04-19T09:45:20.007Z</time></trkpt><trkpt lat="44.4087274" lon="10.3421105"><ele>968.0</ele><time>2026-04-19T09:45:21.006Z</time></trkpt><trkpt lat="44.408624" lon="10.3419113"><ele>968.0</ele><time>2026-04-19T09:45:22.007Z</time></trkpt><trkpt lat="44.4085311" lon="10.3416954"><ele>968.0</ele><time>2026-04-19T09:45:23.006Z</time></trkpt><trkpt lat="44.4084515" lon="10.341469"><ele>968.0</ele><time>2026-04-19T09:45:24.007Z</time></trkpt><trkpt lat="44.4083914" lon="10.3412445"><ele>968.0</ele><time>2026-04-19T09:45:25.006Z</time></trkpt><trkpt lat="44.4083457" lon="10.3410001"><ele>968.0</ele><time>2026-04-19T09:45:26.006Z</time></trkpt><trkpt lat="44.4083134" lon="10.3407281"><ele>968.0</ele><time>2026-04-19T09:45:27.007Z</time></trkpt><trkpt lat="44.4082889" lon="10.340439"><ele>968.0</ele><time>2026-04-19T09:45:28.005Z</time></trkpt><trkpt lat="44.4082651" lon="10.3401535"><ele>968.0</ele><time>2026-04-19T09:45:29.006Z</time></trkpt><trkpt lat="44.4082422" lon="10.3398638"><ele>968.0</ele><time>2026-04-19T09:45:30.006Z</time></trkpt><trkpt lat="44.4082198" lon="10.3395831"><ele>967.0</ele><time>2026-04-19T09:45:31.006Z</time></trkpt><trkpt lat="44.4082" lon="10.339316"><ele>966.0</ele><time>2026-04-19T09:45:32.007Z</time></trkpt><trkpt lat="44.4081829" lon="10.3390613"><ele>965.0</ele><time>2026-04-19T09:45:33.006Z</time></trkpt><trkpt lat="44.408164" lon="10.3388177"><ele>965.0</ele><time>2026-04-19T09:45:34.007Z</time></trkpt><trkpt lat="44.4081359" lon="10.3385827"><ele>965.0</ele><time>2026-04-19T09:45:35.007Z</time></trkpt><trkpt lat="44.4080829" lon="10.3383613"><ele>965.0</ele><time>2026-04-19T09:45:36.005Z</time></trkpt><trkpt lat="44.4080019" lon="10.3381621"><ele>964.0</ele><time>2026-04-19T09:45:37.005Z</time></trkpt><trkpt lat="44.4078953" lon="10.3379902"><ele>963.0</ele><time>2026-04-19T09:45:38.006Z</time></trkpt><trkpt lat="44.4077594" lon="10.3378378"><ele>962.0</ele><time>2026-04-19T09:45:39.006Z</time></trkpt><trkpt lat="44.4076102" lon="10.3377232"><ele>962.0</ele><time>2026-04-19T09:45:40.007Z</time></trkpt><trkpt lat="44.4074465" lon="10.3376447"><ele>962.0</ele><time>2026-04-19T09:45:41.006Z</time></trkpt><trkpt lat="44.4072739" lon="10.337603"><ele>962.0</ele><time>2026-04-19T09:45:42.006Z</time></trkpt><trkpt lat="44.4071027" lon="10.3375491"><ele>963.6666666666667</ele><time>2026-04-19T09:45:43.007Z</time></trkpt><trkpt lat="44.4069307" lon="10.3374375"><ele>965.3333333333333</ele><time>2026-04-19T09:45:44.007Z</time></trkpt><trkpt lat="44.4067573" lon="10.3372793"><ele>967.0</ele><time>2026-04-19T09:45:45.007Z</time></trkpt><trkpt lat="44.4065818" lon="10.3371007"><ele>967.0</ele><time>2026-04-19T09:45:46.007Z</time></trkpt><trkpt lat="44.4064152" lon="10.3369287"><ele>967.0</ele><time>2026-04-19T09:45:47.005Z</time></trkpt><trkpt lat="44.4062572" lon="10.3367631"><ele>967.0</ele><time>2026-04-19T09:45:48.007Z</time></trkpt><trkpt lat="44.406115" lon="10.3365951"><ele>966.0</ele><time>2026-04-19T09:45:49.007Z</time></trkpt><trkpt lat="44.4059966" lon="10.3364162"><ele>965.0</ele><time>2026-04-19T09:45:50.007Z</time></trkpt><trkpt lat="44.4058938" lon="10.336205"><ele>964.0</ele><time>2026-04-19T09:45:51.006Z</time></trkpt><trkpt lat="44.4058154" lon="10.3359643"><ele>964.0</ele><time>2026-04-19T09:45:52.007Z</time></trkpt><trkpt lat="44.4057493" lon="10.3357032"><ele>964.0</ele><time>2026-04-19T09:45:53.007Z</time></trkpt><trkpt lat="44.4056681" lon="10.3354298"><ele>964.0</ele><time>2026-04-19T09:45:54.007Z</time></trkpt><trkpt lat="44.4055596" lon="10.3351516"><ele>960.0</ele><time>2026-04-19T09:45:55.006Z</time></trkpt><trkpt lat="44.4054393" lon="10.3348707"><ele>956.0</ele><time>2026-04-19T09:45:56.006Z</time></trkpt><trkpt lat="44.4053189" lon="10.3345867"><ele>956.0</ele><time>2026-04-19T09:45:57.007Z</time></trkpt><trkpt lat="44.405193" lon="10.3342923"><ele>956.0</ele><time>2026-04-19T09:45:58.007Z</time></trkpt><trkpt lat="44.4050665" lon="10.334001"><ele>959.0</ele><time>2026-04-19T09:45:59.007Z</time></trkpt><trkpt lat="44.4049406" lon="10.3337096"><ele>962.0</ele><time>2026-04-19T09:46:00.007Z</time></trkpt><trkpt lat="44.404817" lon="10.3334265"><ele>962.0</ele><time>2026-04-19T09:46:01.006Z</time></trkpt><trkpt lat="44.4046924" lon="10.3331424"><ele>962.0</ele><time>2026-04-19T09:46:02.006Z</time></trkpt><trkpt lat="44.4045665" lon="10.332859"><ele>956.5</ele><time>2026-04-19T09:46:03.007Z</time></trkpt><trkpt lat="44.4044326" lon="10.3325802"><ele>951.0</ele><time>2026-04-19T09:46:04.006Z</time></trkpt><trkpt lat="44.4042849" lon="10.3322921"><ele>954.5</ele><time>2026-04-19T09:46:05.007Z</time></trkpt><trkpt lat="44.4041241" lon="10.3319959"><ele>958.0</ele><time>2026-04-19T09:46:06.006Z</time></trkpt><trkpt lat="44.4039728" lon="10.3317219"><ele>958.5</ele><time>2026-04-19T09:46:07.007Z</time></trkpt><trkpt lat="44.4038255" lon="10.3314613"><ele>959.0</ele><time>2026-04-19T09:46:08.007Z</time></trkpt><trkpt lat="44.4036857" lon="10.3312168"><ele>959.0</ele><time>2026-04-19T09:46:09.007Z</time></trkpt><trkpt lat="44.4035553" lon="10.3309885"><ele>959.0</ele><time>2026-04-19T09:46:10.006Z</time></trkpt><trkpt lat="44.403433" lon="10.3307794"><ele>959.0</ele><time>2026-04-19T09:46:11.006Z</time></trkpt><trkpt lat="44.4033225" lon="10.3305854"><ele>961.0</ele><time>2026-04-19T09:46:12.006Z</time></trkpt><trkpt lat="44.4032163" lon="10.3304109"><ele>963.0</ele><time>2026-04-19T09:46:13.006Z</time></trkpt><trkpt lat="44.4031082" lon="10.3302663"><ele>965.0</ele><time>2026-04-19T09:46:14.006Z</time></trkpt><trkpt lat="44.4029919" lon="10.3301666"><ele>966.0</ele><time>2026-04-19T09:46:15.007Z</time></trkpt><trkpt lat="44.4028558" lon="10.3301141"><ele>967.0</ele><time>2026-04-19T09:46:16.006Z</time></trkpt><trkpt lat="44.4027146" lon="10.330117"><ele>968.0</ele><time>2026-04-19T09:46:17.007Z</time></trkpt><trkpt lat="44.4025757" lon="10.3301669"><ele>969.0</ele><time>2026-04-19T09:46:18.006Z</time></trkpt><trkpt lat="44.4024404" lon="10.3302521"><ele>969.0</ele><time>2026-04-19T09:46:19.006Z</time></trkpt><trkpt lat="44.4023006" lon="10.3303458"><ele>969.0</ele><time>2026-04-19T09:46:20.006Z</time></trkpt><trkpt lat="44.402161" lon="10.3304135"><ele>969.0</ele><time>2026-04-19T09:46:21.006Z</time></trkpt><trkpt lat="44.4020159" lon="10.3304485"><ele>970.0</ele><time>2026-04-19T09:46:22.007Z</time></trkpt><trkpt lat="44.4018628" lon="10.3304435"><ele>971.0</ele><time>2026-04-19T09:46:23.007Z</time></trkpt><trkpt lat="44.401686" lon="10.3304017"><ele>972.0</ele><time>2026-04-19T09:46:24.006Z</time></trkpt><trkpt lat="44.4014895" lon="10.3303344"><ele>967.5</ele><time>2026-04-19T09:46:25.006Z</time></trkpt><trkpt lat="44.4012737" lon="10.3302423"><ele>963.0</ele><time>2026-04-19T09:46:26.007Z</time></trkpt><trkpt lat="44.4010556" lon="10.3301275"><ele>963.0</ele><time>2026-04-19T09:46:27.006Z</time></trkpt><trkpt lat="44.4008203" lon="10.3299811"><ele>963.0</ele><time>2026-04-19T09:46:28.007Z</time></trkpt><trkpt lat="44.4005917" lon="10.3298305"><ele>963.5</ele><time>2026-04-19T09:46:29.005Z</time></trkpt><trkpt lat="44.4003754" lon="10.3296841"><ele>964.0</ele><time>2026-04-19T09:46:30.006Z</time></trkpt><trkpt lat="44.4001664" lon="10.329542"><ele>964.0</ele><time>2026-04-19T09:46:31.006Z</time></trkpt><trkpt lat="44.399968" lon="10.329406"><ele>964.0</ele><time>2026-04-19T09:46:32.006Z</time></trkpt><trkpt lat="44.3997754" lon="10.3292822"><ele>964.0</ele><time>2026-04-19T09:46:33.006Z</time></trkpt><trkpt lat="44.3995682" lon="10.3291803"><ele>962.3333333333333</ele><time>2026-04-19T09:46:34.007Z</time></trkpt><trkpt lat="44.3993454" lon="10.3290986"><ele>960.6666666666667</ele><time>2026-04-19T09:46:35.006Z</time></trkpt><trkpt lat="44.3991335" lon="10.3290273"><ele>959.0</ele><time>2026-04-19T09:46:36.007Z</time></trkpt><trkpt lat="44.398931" lon="10.3289585"><ele>958.6666666666667</ele><time>2026-04-19T09:46:37.007Z</time></trkpt><trkpt lat="44.3987378" lon="10.3289"><ele>958.3333333333333</ele><time>2026-04-19T09:46:38.007Z</time></trkpt><trkpt lat="44.3985498" lon="10.3288675"><ele>958.0</ele><time>2026-04-19T09:46:39.006Z</time></trkpt><trkpt lat="44.3983461" lon="10.3288679"><ele>958.0</ele><time>2026-04-19T09:46:40.007Z</time></trkpt><trkpt lat="44.3981272" lon="10.3289046"><ele>958.0</ele><time>2026-04-19T09:46:41.006Z</time></trkpt><trkpt lat="44.3978953" lon="10.3289668"><ele>958.0</ele><time>2026-04-19T09:46:42.007Z</time></trkpt><trkpt lat="44.3976766" lon="10.3290296"><ele>958.0</ele><time>2026-04-19T09:46:43.007Z</time></trkpt><trkpt lat="44.3974704" lon="10.3290942"><ele>958.0</ele><time>2026-04-19T09:46:44.007Z</time></trkpt><trkpt lat="44.3972737" lon="10.3291532"><ele>957.3333333333333</ele><time>2026-04-19T09:46:45.007Z</time></trkpt><trkpt lat="44.397102" lon="10.329194"><ele>956.6666666666667</ele><time>2026-04-19T09:46:46.007Z</time></trkpt><trkpt lat="44.3969381" lon="10.3292156"><ele>956.0</ele><time>2026-04-19T09:46:47.006Z</time></trkpt><trkpt lat="44.3967806" lon="10.3292058"><ele>956.0</ele><time>2026-04-19T09:46:48.006Z</time></trkpt><trkpt lat="44.3966223" lon="10.3291691"><ele>956.0</ele><time>2026-04-19T09:46:49.006Z</time></trkpt><trkpt lat="44.3964641" lon="10.3291096"><ele>956.0</ele><time>2026-04-19T09:46:50.006Z</time></trkpt><trkpt lat="44.3963052" lon="10.3290275"><ele>955.3333333333334</ele><time>2026-04-19T09:46:51.006Z</time></trkpt><trkpt lat="44.3961396" lon="10.3289339"><ele>954.6666666666667</ele><time>2026-04-19T09:46:52.007Z</time></trkpt><trkpt lat="44.3959691" lon="10.3288385"><ele>954.0</ele><time>2026-04-19T09:46:53.007Z</time></trkpt><trkpt lat="44.3958033" lon="10.3287468"><ele>954.6666666666667</ele><time>2026-04-19T09:46:54.006Z</time></trkpt><trkpt lat="44.3956411" lon="10.3286563"><ele>955.3333333333334</ele><time>2026-04-19T09:46:55.007Z</time></trkpt><trkpt lat="44.3954805" lon="10.3285683"><ele>956.0</ele><time>2026-04-19T09:46:56.007Z</time></trkpt><trkpt lat="44.3953179" lon="10.328482"><ele>956.0</ele><time>2026-04-19T09:46:57.007Z</time></trkpt><trkpt lat="44.3951478" lon="10.3284066"><ele>956.0</ele><time>2026-04-19T09:46:58.006Z</time></trkpt><trkpt lat="44.3949684" lon="10.3283503"><ele>956.0</ele><time>2026-04-19T09:46:59.007Z</time></trkpt><trkpt lat="44.3947778" lon="10.3283141"><ele>956.0</ele><time>2026-04-19T09:47:00.007Z</time></trkpt><trkpt lat="44.3945885" lon="10.3282964"><ele>956.0</ele><time>2026-04-19T09:47:01.007Z</time></trkpt><trkpt lat="44.3944078" lon="10.3282847"><ele>956.0</ele><time>2026-04-19T09:47:02.007Z</time></trkpt><trkpt lat="44.39423" lon="10.3282694"><ele>956.0</ele><time>2026-04-19T09:47:03.007Z</time></trkpt><trkpt lat="44.3940507" lon="10.3282543"><ele>956.0</ele><time>2026-04-19T09:47:04.006Z</time></trkpt><trkpt lat="44.3938741" lon="10.3282348"><ele>956.0</ele><time>2026-04-19T09:47:05.007Z</time></trkpt><trkpt lat="44.3937" lon="10.3282113"><ele>958.3333333333334</ele><time>2026-04-19T09:47:06.006Z</time></trkpt><trkpt lat="44.3935362" lon="10.3281777"><ele>960.6666666666667</ele><time>2026-04-19T09:47:07.007Z</time></trkpt><trkpt lat="44.3933848" lon="10.3281189"><ele>963.0</ele><time>2026-04-19T09:47:08.007Z</time></trkpt><trkpt lat="44.3932504" lon="10.3280299"><ele>963.0</ele><time>2026-04-19T09:47:09.007Z</time></trkpt><trkpt lat="44.3931325" lon="10.327913"><ele>963.0</ele><time>2026-04-19T09:47:10.007Z</time></trkpt><trkpt lat="44.3930283" lon="10.3277715"><ele>963.0</ele><time>2026-04-19T09:47:11.007Z</time></trkpt><trkpt lat="44.3929335" lon="10.3276277"><ele>963.0</ele><time>2026-04-19T09:47:12.007Z</time></trkpt><trkpt lat="44.3928349" lon="10.3274805"><ele>963.75</ele><time>2026-04-19T09:47:13.007Z</time></trkpt><trkpt lat="44.3927292" lon="10.3273563"><ele>964.5</ele><time>2026-04-19T09:47:14.006Z</time></trkpt><trkpt lat="44.3926105" lon="10.3272586"><ele>965.25</ele><time>2026-04-19T09:47:15.006Z</time></trkpt><trkpt lat="44.3924873" lon="10.3272008"><ele>966.0</ele><time>2026-04-19T09:47:16.007Z</time></trkpt><trkpt lat="44.3923521" lon="10.327196"><ele>962.3333333333333</ele><time>2026-04-19T09:47:17.006Z</time></trkpt><trkpt lat="44.3922095" lon="10.3272427"><ele>958.6666666666666</ele><time>2026-04-19T09:47:18.006Z</time></trkpt><trkpt lat="44.3920601" lon="10.3273397"><ele>955.0</ele><time>2026-04-19T09:47:19.006Z</time></trkpt><trkpt lat="44.391903" lon="10.3274758"><ele>955.0</ele><time>2026-04-19T09:47:20.006Z</time></trkpt><trkpt lat="44.3917296" lon="10.3276415"><ele>955.0</ele><time>2026-04-19T09:47:21.006Z</time></trkpt><trkpt lat="44.391557" lon="10.327811"><ele>955.0</ele><time>2026-04-19T09:47:22.007Z</time></trkpt><trkpt lat="44.3913941" lon="10.3279698"><ele>954.3333333333333</ele><time>2026-04-19T09:47:23.007Z</time></trkpt><trkpt lat="44.3912361" lon="10.3281233"><ele>953.6666666666667</ele><time>2026-04-19T09:47:24.007Z</time></trkpt><trkpt lat="44.3910858" lon="10.3282757"><ele>953.0</ele><time>2026-04-19T09:47:25.006Z</time></trkpt><trkpt lat="44.3909424" lon="10.3284206"><ele>953.0</ele><time>2026-04-19T09:47:26.006Z</time></trkpt><trkpt lat="44.3908038" lon="10.3285585"><ele>953.0</ele><time>2026-04-19T09:47:27.006Z</time></trkpt><trkpt lat="44.3906687" lon="10.3286895"><ele>953.0</ele><time>2026-04-19T09:47:28.006Z</time></trkpt><trkpt lat="44.3905341" lon="10.3288051"><ele>955.0</ele><time>2026-04-19T09:47:29.007Z</time></trkpt><trkpt lat="44.3903897" lon="10.3288855"><ele>957.0</ele><time>2026-04-19T09:47:30.007Z</time></trkpt><trkpt lat="44.3902346" lon="10.328918"><ele>959.0</ele><time>2026-04-19T09:47:31.006Z</time></trkpt><trkpt lat="44.390075" lon="10.3288955"><ele>959.0</ele><time>2026-04-19T09:47:32.007Z</time></trkpt><trkpt lat="44.3899039" lon="10.3288338"><ele>959.0</ele><time>2026-04-19T09:47:33.007Z</time></trkpt><trkpt lat="44.389732" lon="10.328766"><ele>959.0</ele><time>2026-04-19T09:47:34.006Z</time></trkpt><trkpt lat="44.389567" lon="10.3287019"><ele>958.0</ele><time>2026-04-19T09:47:35.007Z</time></trkpt><trkpt lat="44.3894043" lon="10.3286453"><ele>957.0</ele><time>2026-04-19T09:47:36.007Z</time></trkpt><trkpt lat="44.3892424" lon="10.328614"><ele>956.0</ele><time>2026-04-19T09:47:37.006Z</time></trkpt><trkpt lat="44.3890623" lon="10.3286148"><ele>956.0</ele><time>2026-04-19T09:47:38.006Z</time></trkpt><trkpt lat="44.3888757" lon="10.3286423"><ele>956.0</ele><time>2026-04-19T09:47:39.007Z</time></trkpt><trkpt lat="44.3886969" lon="10.3286892"><ele>956.0</ele><time>2026-04-19T09:47:40.006Z</time></trkpt><trkpt lat="44.3885238" lon="10.3287415"><ele>956.3333333333334</ele><time>2026-04-19T09:47:41.006Z</time></trkpt><trkpt lat="44.3883483" lon="10.3287966"><ele>956.6666666666667</ele><time>2026-04-19T09:47:42.007Z</time></trkpt><trkpt lat="44.3881679" lon="10.3288555"><ele>957.0</ele><time>2026-04-19T09:47:43.006Z</time></trkpt><trkpt lat="44.3879984" lon="10.328909"><ele>949.6666666666667</ele><time>2026-04-19T09:47:44.007Z</time></trkpt><trkpt lat="44.3878313" lon="10.3289607"><ele>942.3333333333334</ele><time>2026-04-19T09:47:45.005Z</time></trkpt><trkpt lat="44.3876626" lon="10.3290147"><ele>935.0</ele><time>2026-04-19T09:47:46.007Z</time></trkpt><trkpt lat="44.3874982" lon="10.3290586"><ele>935.0</ele><time>2026-04-19T09:47:47.006Z</time></trkpt><trkpt lat="44.3873284" lon="10.3290894"><ele>935.0</ele><time>2026-04-19T09:47:48.007Z</time></trkpt><trkpt lat="44.387137" lon="10.3291086"><ele>935.0</ele><time>2026-04-19T09:47:49.007Z</time></trkpt><trkpt lat="44.386928" lon="10.3291051"><ele>933.6666666666667</ele><time>2026-04-19T09:47:50.007Z</time></trkpt><trkpt lat="44.386724" lon="10.3290876"><ele>932.3333333333333</ele><time>2026-04-19T09:47:51.007Z</time></trkpt><trkpt lat="44.3865135" lon="10.3290658"><ele>931.0</ele><time>2026-04-19T09:47:52.007Z</time></trkpt><trkpt lat="44.3863119" lon="10.3290406"><ele>930.0</ele><time>2026-04-19T09:47:53.006Z</time></trkpt><trkpt lat="44.3861169" lon="10.3290133"><ele>929.0</ele><time>2026-04-19T09:47:54.007Z</time></trkpt><trkpt lat="44.3859267" lon="10.3289899"><ele>928.0</ele><time>2026-04-19T09:47:55.006Z</time></trkpt><trkpt lat="44.3857431" lon="10.3289665"><ele>928.0</ele><time>2026-04-19T09:47:56.007Z</time></trkpt><trkpt lat="44.3855623" lon="10.3289432"><ele>928.0</ele><time>2026-04-19T09:47:57.007Z</time></trkpt><trkpt lat="44.3853821" lon="10.3289196"><ele>928.0</ele><time>2026-04-19T09:47:58.006Z</time></trkpt><trkpt lat="44.3851965" lon="10.3288981"><ele>929.0</ele><time>2026-04-19T09:47:59.006Z</time></trkpt><trkpt lat="44.3850027" lon="10.3288764"><ele>930.0</ele><time>2026-04-19T09:48:00.007Z</time></trkpt><trkpt lat="44.3848142" lon="10.3288564"><ele>931.0</ele><time>2026-04-19T09:48:01.005Z</time></trkpt><trkpt lat="44.3846306" lon="10.3288423"><ele>931.0</ele><time>2026-04-19T09:48:02.007Z</time></trkpt><trkpt lat="44.3844532" lon="10.3288513"><ele>931.0</ele><time>2026-04-19T09:48:03.006Z</time></trkpt><trkpt lat="44.384279" lon="10.3288982"><ele>931.0</ele><time>2026-04-19T09:48:04.006Z</time></trkpt><trkpt lat="44.3841151" lon="10.3289816"><ele>929.6666666666666</ele><time>2026-04-19T09:48:05.007Z</time></trkpt><trkpt lat="44.3839655" lon="10.329106"><ele>928.3333333333333</ele><time>2026-04-19T09:48:06.007Z</time></trkpt><trkpt lat="44.3838351" lon="10.3292672"><ele>927.0</ele><time>2026-04-19T09:48:07.006Z</time></trkpt><trkpt lat="44.3837152" lon="10.3294783"><ele>925.0</ele><time>2026-04-19T09:48:08.006Z</time></trkpt><trkpt lat="44.3836091" lon="10.3297324"><ele>923.0</ele><time>2026-04-19T09:48:09.006Z</time></trkpt><trkpt lat="44.3835008" lon="10.3300172"><ele>921.0</ele><time>2026-04-19T09:48:10.006Z</time></trkpt><trkpt lat="44.3833933" lon="10.3302925"><ele>917.3333333333333</ele><time>2026-04-19T09:48:11.006Z</time></trkpt><trkpt lat="44.3832863" lon="10.3305588"><ele>913.6666666666666</ele><time>2026-04-19T09:48:12.006Z</time></trkpt><trkpt lat="44.3831694" lon="10.3308217"><ele>910.0</ele><time>2026-04-19T09:48:13.006Z</time></trkpt><trkpt lat="44.3830444" lon="10.3310702"><ele>914.3333333333333</ele><time>2026-04-19T09:48:14.007Z</time></trkpt><trkpt lat="44.3829224" lon="10.3313028"><ele>918.6666666666667</ele><time>2026-04-19T09:48:15.006Z</time></trkpt><trkpt lat="44.3828038" lon="10.331525"><ele>923.0</ele><time>2026-04-19T09:48:16.007Z</time></trkpt><trkpt lat="44.3826859" lon="10.3317417"><ele>923.0</ele><time>2026-04-19T09:48:17.006Z</time></trkpt><trkpt lat="44.3825658" lon="10.3319564"><ele>923.0</ele><time>2026-04-19T09:48:18.006Z</time></trkpt><trkpt lat="44.3824457" lon="10.3321689"><ele>923.0</ele><time>2026-04-19T09:48:19.007Z</time></trkpt><trkpt lat="44.3823273" lon="10.3323834"><ele>926.3333333333334</ele><time>2026-04-19T09:48:20.007Z</time></trkpt><trkpt lat="44.3822152" lon="10.3325904"><ele>929.6666666666667</ele><time>2026-04-19T09:48:21.006Z</time></trkpt><trkpt lat="44.382108" lon="10.3327892"><ele>933.0</ele><time>2026-04-19T09:48:22.005Z</time></trkpt><trkpt lat="44.3820033" lon="10.3329773"><ele>927.6666666666667</ele><time>2026-04-19T09:48:23.006Z</time></trkpt><trkpt lat="44.3818921" lon="10.3331427"><ele>922.3333333333334</ele><time>2026-04-19T09:48:24.007Z</time></trkpt><trkpt lat="44.3817697" lon="10.3332794"><ele>917.0</ele><time>2026-04-19T09:48:25.006Z</time></trkpt><trkpt lat="44.3816269" lon="10.3333886"><ele>917.0</ele><time>2026-04-19T09:48:26.007Z</time></trkpt><trkpt lat="44.3814619" lon="10.3334628"><ele>917.0</ele><time>2026-04-19T09:48:27.007Z</time></trkpt><trkpt lat="44.3812714" lon="10.3335023"><ele>917.0</ele><time>2026-04-19T09:48:28.006Z</time></trkpt><trkpt lat="44.381066" lon="10.3335132"><ele>920.0</ele><time>2026-04-19T09:48:29.006Z</time></trkpt><trkpt lat="44.3808682" lon="10.333524"><ele>923.0</ele><time>2026-04-19T09:48:30.007Z</time></trkpt><trkpt lat="44.3806826" lon="10.333543"><ele>926.0</ele><time>2026-04-19T09:48:31.006Z</time></trkpt><trkpt lat="44.3805197" lon="10.3335445"><ele>922.0</ele><time>2026-04-19T09:48:32.007Z</time></trkpt><trkpt lat="44.3803648" lon="10.3335072"><ele>918.0</ele><time>2026-04-19T09:48:33.005Z</time></trkpt><trkpt lat="44.3802169" lon="10.333434"><ele>914.0</ele><time>2026-04-19T09:48:34.007Z</time></trkpt><trkpt lat="44.3800982" lon="10.3333532"><ele>910.0</ele><time>2026-04-19T09:48:35.006Z</time></trkpt><trkpt lat="44.3800014" lon="10.3332699"><ele>910.0</ele><time>2026-04-19T09:48:36.006Z</time></trkpt><trkpt lat="44.3799278" lon="10.3331778"><ele>910.0</ele><time>2026-04-19T09:48:37.007Z</time></trkpt><trkpt lat="44.3798822" lon="10.3330693"><ele>910.0</ele><time>2026-04-19T09:48:38.006Z</time></trkpt><trkpt lat="44.3798689" lon="10.3329428"><ele>910.0</ele><time>2026-04-19T09:48:39.007Z</time></trkpt><trkpt lat="44.3798919" lon="10.3327963"><ele>910.0</ele><time>2026-04-19T09:48:40.005Z</time></trkpt><trkpt lat="44.3799317" lon="10.3326337"><ele>912.25</ele><time>2026-04-19T09:48:41.005Z</time></trkpt><trkpt lat="44.3799669" lon="10.3324801"><ele>914.5</ele><time>2026-04-19T09:48:42.007Z</time></trkpt><trkpt lat="44.3800031" lon="10.3323316"><ele>916.75</ele><time>2026-04-19T09:48:43.007Z</time></trkpt><trkpt lat="44.3800239" lon="10.332183"><ele>919.0</ele><time>2026-04-19T09:48:44.005Z</time></trkpt><trkpt lat="44.3800093" lon="10.3320176"><ele>921.0</ele><time>2026-04-19T09:48:45.006Z</time></trkpt><trkpt lat="44.379961" lon="10.3318463"><ele>923.0</ele><time>2026-04-19T09:48:46.006Z</time></trkpt><trkpt lat="44.379894" lon="10.33169"><ele>925.0</ele><time>2026-04-19T09:48:47.006Z</time></trkpt><trkpt lat="44.3798249" lon="10.331539"><ele>927.0</ele><time>2026-04-19T09:48:48.007Z</time></trkpt><trkpt lat="44.3797573" lon="10.3313844"><ele>919.0</ele><time>2026-04-19T09:48:49.006Z</time></trkpt><trkpt lat="44.379674" lon="10.3312485"><ele>911.0</ele><time>2026-04-19T09:48:50.007Z</time></trkpt><trkpt lat="44.3795916" lon="10.3311226"><ele>903.0</ele><time>2026-04-19T09:48:51.006Z</time></trkpt><trkpt lat="44.3795214" lon="10.3310016"><ele>895.0</ele><time>2026-04-19T09:48:52.006Z</time></trkpt><trkpt lat="44.3794737" lon="10.3308692"><ele>895.0</ele><time>2026-04-19T09:48:53.007Z</time></trkpt><trkpt lat="44.3794582" lon="10.3307219"><ele>895.0</ele><time>2026-04-19T09:48:54.005Z</time></trkpt><trkpt lat="44.3794768" lon="10.3305663"><ele>895.0</ele><time>2026-04-19T09:48:55.006Z</time></trkpt><trkpt lat="44.3795217" lon="10.3303853"><ele>895.0</ele><time>2026-04-19T09:48:56.007Z</time></trkpt><trkpt lat="44.3795747" lon="10.3301963"><ele>896.0</ele><time>2026-04-19T09:48:57.007Z</time></trkpt><trkpt lat="44.3796223" lon="10.3300301"><ele>897.0</ele><time>2026-04-19T09:48:58.007Z</time></trkpt><trkpt lat="44.3796721" lon="10.32987"><ele>898.0</ele><time>2026-04-19T09:48:59.006Z</time></trkpt><trkpt lat="44.3797164" lon="10.3297289"><ele>899.0</ele><time>2026-04-19T09:49:00.007Z</time></trkpt><trkpt lat="44.379728" lon="10.3295962"><ele>901.0</ele><time>2026-04-19T09:49:01.007Z</time></trkpt><trkpt lat="44.3796953" lon="10.3294462"><ele>903.0</ele><time>2026-04-19T09:49:02.006Z</time></trkpt><trkpt lat="44.3796324" lon="10.3292907"><ele>905.0</ele><time>2026-04-19T09:49:03.006Z</time></trkpt><trkpt lat="44.379577" lon="10.3291362"><ele>907.0</ele><time>2026-04-19T09:49:04.006Z</time></trkpt><trkpt lat="44.3795468" lon="10.3289708"><ele>909.75</ele><time>2026-04-19T09:49:05.006Z</time></trkpt><trkpt lat="44.3795262" lon="10.3288053"><ele>912.5</ele><time>2026-04-19T09:49:06.007Z</time></trkpt><trkpt lat="44.3795228" lon="10.3286388"><ele>915.25</ele><time>2026-04-19T09:49:07.006Z</time></trkpt><trkpt lat="44.3795283" lon="10.3284673"><ele>918.0</ele><time>2026-04-19T09:49:08.007Z</time></trkpt><trkpt lat="44.3795308" lon="10.3283011"><ele>918.0</ele><time>2026-04-19T09:49:09.007Z</time></trkpt><trkpt lat="44.37952" lon="10.3281348"><ele>918.0</ele><time>2026-04-19T09:49:10.007Z</time></trkpt><trkpt lat="44.3794875" lon="10.32798"><ele>918.0</ele><time>2026-04-19T09:49:11.006Z</time></trkpt><trkpt lat="44.37944" lon="10.3278234"><ele>918.0</ele><time>2026-04-19T09:49:12.006Z</time></trkpt><trkpt lat="44.3793843" lon="10.3276493"><ele>921.3333333333333</ele><time>2026-04-19T09:49:13.007Z</time></trkpt><trkpt lat="44.3793186" lon="10.3274547"><ele>924.6666666666666</ele><time>2026-04-19T09:49:14.006Z</time></trkpt><trkpt lat="44.3792568" lon="10.3272681"><ele>928.0</ele><time>2026-04-19T09:49:15.007Z</time></trkpt><trkpt lat="44.3792067" lon="10.3270664"><ele>930.0</ele><time>2026-04-19T09:49:16.007Z</time></trkpt><trkpt lat="44.37917" lon="10.3268586"><ele>932.0</ele><time>2026-04-19T09:49:17.006Z</time></trkpt><trkpt lat="44.3791337" lon="10.3266583"><ele>934.0</ele><time>2026-04-19T09:49:18.006Z</time></trkpt><trkpt lat="44.3791015" lon="10.3264746"><ele>936.0</ele><time>2026-04-19T09:49:19.007Z</time></trkpt><trkpt lat="44.379067" lon="10.326308"><ele>936.75</ele><time>2026-04-19T09:49:20.007Z</time></trkpt><trkpt lat="44.3790215" lon="10.3261725"><ele>937.5</ele><time>2026-04-19T09:49:21.006Z</time></trkpt><trkpt lat="44.3789496" lon="10.3260633"><ele>938.25</ele><time>2026-04-19T09:49:22.006Z</time></trkpt><trkpt lat="44.3788484" lon="10.3260015"><ele>939.0</ele><time>2026-04-19T09:49:23.007Z</time></trkpt><trkpt lat="44.3787212" lon="10.325978"><ele>939.25</ele><time>2026-04-19T09:49:24.005Z</time></trkpt><trkpt lat="44.3785924" lon="10.3259862"><ele>939.5</ele><time>2026-04-19T09:49:25.006Z</time></trkpt><trkpt lat="44.3784807" lon="10.3260307"><ele>939.75</ele><time>2026-04-19T09:49:26.006Z</time></trkpt><trkpt lat="44.3783941" lon="10.3261284"><ele>940.0</ele><time>2026-04-19T09:49:27.007Z</time></trkpt><trkpt lat="44.3783169" lon="10.3262747"><ele>938.75</ele><time>2026-04-19T09:49:28.007Z</time></trkpt><trkpt lat="44.3782427" lon="10.3264431"><ele>937.5</ele><time>2026-04-19T09:49:29.007Z</time></trkpt><trkpt lat="44.3781706" lon="10.3266251"><ele>936.25</ele><time>2026-04-19T09:49:30.007Z</time></trkpt><trkpt lat="44.3781033" lon="10.3268201"><ele>935.0</ele><time>2026-04-19T09:49:31.006Z</time></trkpt><trkpt lat="44.3780578" lon="10.327033"><ele>936.25</ele><time>2026-04-19T09:49:32.006Z</time></trkpt><trkpt lat="44.3780346" lon="10.3272568"><ele>937.5</ele><time>2026-04-19T09:49:33.007Z</time></trkpt><trkpt lat="44.3780145" lon="10.3274628"><ele>938.75</ele><time>2026-04-19T09:49:34.007Z</time></trkpt><trkpt lat="44.3779821" lon="10.3276493"><ele>940.0</ele><time>2026-04-19T09:49:35.006Z</time></trkpt><trkpt lat="44.3779328" lon="10.3278245"><ele>940.0</ele><time>2026-04-19T09:49:36.007Z</time></trkpt><trkpt lat="44.3778649" lon="10.3279947"><ele>940.0</ele><time>2026-04-19T09:49:37.006Z</time></trkpt><trkpt lat="44.3778024" lon="10.3281455"><ele>940.0</ele><time>2026-04-19T09:49:38.006Z</time></trkpt><trkpt lat="44.3777377" lon="10.3282628"><ele>940.0</ele><time>2026-04-19T09:49:39.006Z</time></trkpt><trkpt lat="44.37766" lon="10.3283519"><ele>937.5</ele><time>2026-04-19T09:49:40.006Z</time></trkpt><trkpt lat="44.3775651" lon="10.3284035"><ele>935.0</ele><time>2026-04-19T09:49:41.006Z</time></trkpt><trkpt lat="44.3774463" lon="10.3284126"><ele>932.5</ele><time>2026-04-19T09:49:42.006Z</time></trkpt><trkpt lat="44.3773101" lon="10.3284091"><ele>930.0</ele><time>2026-04-19T09:49:43.007Z</time></trkpt><trkpt lat="44.3771464" lon="10.3284277"><ele>930.0</ele><time>2026-04-19T09:49:44.007Z</time></trkpt><trkpt lat="44.3769954" lon="10.3284568"><ele>930.0</ele><time>2026-04-19T09:49:45.007Z</time></trkpt><trkpt lat="44.3768496" lon="10.3284655"><ele>930.0</ele><time>2026-04-19T09:49:46.007Z</time></trkpt><trkpt lat="44.3767137" lon="10.3284436"><ele>930.0</ele><time>2026-04-19T09:49:47.006Z</time></trkpt><trkpt lat="44.3765951" lon="10.3283868"><ele>930.0</ele><time>2026-04-19T09:49:48.006Z</time></trkpt><trkpt lat="44.3764867" lon="10.328296"><ele>930.0</ele><time>2026-04-19T09:49:49.007Z</time></trkpt><trkpt lat="44.3763829" lon="10.3281967"><ele>930.0</ele><time>2026-04-19T09:49:50.006Z</time></trkpt><trkpt lat="44.3762755" lon="10.3281158"><ele>930.0</ele><time>2026-04-19T09:49:51.006Z</time></trkpt><trkpt lat="44.3761593" lon="10.3280646"><ele>931.25</ele><time>2026-04-19T09:49:52.007Z</time></trkpt><trkpt lat="44.3760357" lon="10.3280404"><ele>932.5</ele><time>2026-04-19T09:49:53.007Z</time></trkpt><trkpt lat="44.3759082" lon="10.3280209"><ele>933.75</ele><time>2026-04-19T09:49:54.007Z</time></trkpt><trkpt lat="44.3757895" lon="10.328018"><ele>935.0</ele><time>2026-04-19T09:49:55.007Z</time></trkpt><trkpt lat="44.3756955" lon="10.3280333"><ele>932.25</ele><time>2026-04-19T09:49:56.006Z</time></trkpt><trkpt lat="44.3756" lon="10.3280707"><ele>929.5</ele><time>2026-04-19T09:49:57.006Z</time></trkpt><trkpt lat="44.3755018" lon="10.3281475"><ele>926.75</ele><time>2026-04-19T09:49:58.007Z</time></trkpt><trkpt lat="44.3754016" lon="10.3282649"><ele>924.0</ele><time>2026-04-19T09:49:59.006Z</time></trkpt><trkpt lat="44.3753113" lon="10.3284245"><ele>924.0</ele><time>2026-04-19T09:50:00.006Z</time></trkpt><trkpt lat="44.3752309" lon="10.3285876"><ele>924.0</ele><time>2026-04-19T09:50:01.005Z</time></trkpt><trkpt lat="44.3751437" lon="10.3287204"><ele>924.0</ele><time>2026-04-19T09:50:02.006Z</time></trkpt><trkpt lat="44.3750501" lon="10.3288085"><ele>924.0</ele><time>2026-04-19T09:50:03.006Z</time></trkpt><trkpt lat="44.3749416" lon="10.3288569"><ele>924.0</ele><time>2026-04-19T09:50:04.007Z</time></trkpt><trkpt lat="44.3748184" lon="10.328851"><ele>924.0</ele><time>2026-04-19T09:50:05.006Z</time></trkpt><trkpt lat="44.3746801" lon="10.3287837"><ele>924.0</ele><time>2026-04-19T09:50:06.007Z</time></trkpt><trkpt lat="44.3745218" lon="10.3286863"><ele>924.0</ele><time>2026-04-19T09:50:07.006Z</time></trkpt><trkpt lat="44.3743434" lon="10.3285649"><ele>920.3333333333333</ele><time>2026-04-19T09:50:08.006Z</time></trkpt><trkpt lat="44.3741415" lon="10.328443"><ele>916.6666666666666</ele><time>2026-04-19T09:50:09.007Z</time></trkpt><trkpt lat="44.3739321" lon="10.3283146"><ele>913.0</ele><time>2026-04-19T09:50:10.007Z</time></trkpt><trkpt lat="44.3737369" lon="10.3281817"><ele>914.3333333333333</ele><time>2026-04-19T09:50:11.007Z</time></trkpt><trkpt lat="44.3735514" lon="10.3280473"><ele>915.6666666666667</ele><time>2026-04-19T09:50:12.006Z</time></trkpt><trkpt lat="44.3733707" lon="10.3279026"><ele>917.0</ele><time>2026-04-19T09:50:13.007Z</time></trkpt><trkpt lat="44.3732031" lon="10.3277383"><ele>917.0</ele><time>2026-04-19T09:50:14.007Z</time></trkpt><trkpt lat="44.3730534" lon="10.3275712"><ele>917.0</ele><time>2026-04-19T09:50:15.006Z</time></trkpt><trkpt lat="44.3729163" lon="10.3274242"><ele>917.0</ele><time>2026-04-19T09:50:16.007Z</time></trkpt><trkpt lat="44.3727763" lon="10.327308"><ele>920.3333333333334</ele><time>2026-04-19T09:50:17.005Z</time></trkpt><trkpt lat="44.3726278" lon="10.3272368"><ele>923.6666666666667</ele><time>2026-04-19T09:50:18.006Z</time></trkpt><trkpt lat="44.3724658" lon="10.3272183"><ele>927.0</ele><time>2026-04-19T09:50:19.007Z</time></trkpt><trkpt lat="44.3722898" lon="10.3272557"><ele>917.6666666666667</ele><time>2026-04-19T09:50:20.007Z</time></trkpt><trkpt lat="44.3721103" lon="10.3273239"><ele>908.3333333333334</ele><time>2026-04-19T09:50:21.006Z</time></trkpt><trkpt lat="44.3719428" lon="10.3273769"><ele>899.0</ele><time>2026-04-19T09:50:22.007Z</time></trkpt><trkpt lat="44.3717787" lon="10.327403"><ele>899.0</ele><time>2026-04-19T09:50:23.007Z</time></trkpt><trkpt lat="44.3716241" lon="10.3273882"><ele>899.0</ele><time>2026-04-19T09:50:24.005Z</time></trkpt><trkpt lat="44.371476" lon="10.327337"><ele>899.0</ele><time>2026-04-19T09:50:25.006Z</time></trkpt><trkpt lat="44.3713288" lon="10.3272443"><ele>900.0</ele><time>2026-04-19T09:50:26.007Z</time></trkpt><trkpt lat="44.371168" lon="10.3271081"><ele>901.0</ele><time>2026-04-19T09:50:27.006Z</time></trkpt><trkpt lat="44.3709918" lon="10.326944"><ele>902.0</ele><time>2026-04-19T09:50:28.006Z</time></trkpt><trkpt lat="44.3707964" lon="10.3267638"><ele>902.0</ele><time>2026-04-19T09:50:29.006Z</time></trkpt><trkpt lat="44.3706122" lon="10.3265923"><ele>902.0</ele><time>2026-04-19T09:50:30.007Z</time></trkpt><trkpt lat="44.3704353" lon="10.3264266"><ele>902.0</ele><time>2026-04-19T09:50:31.006Z</time></trkpt><trkpt lat="44.3702684" lon="10.3262681"><ele>898.3333333333334</ele><time>2026-04-19T09:50:32.005Z</time></trkpt><trkpt lat="44.3701131" lon="10.3261057"><ele>894.6666666666667</ele><time>2026-04-19T09:50:33.007Z</time></trkpt><trkpt lat="44.3699767" lon="10.3259407"><ele>891.0</ele><time>2026-04-19T09:50:34.007Z</time></trkpt><trkpt lat="44.3698713" lon="10.3257682"><ele>891.0</ele><time>2026-04-19T09:50:35.006Z</time></trkpt><trkpt lat="44.3697921" lon="10.3255815"><ele>891.0</ele><time>2026-04-19T09:50:36.007Z</time></trkpt><trkpt lat="44.3697365" lon="10.325367"><ele>891.0</ele><time>2026-04-19T09:50:37.006Z</time></trkpt><trkpt lat="44.3697123" lon="10.3251378"><ele>892.3333333333333</ele><time>2026-04-19T09:50:38.005Z</time></trkpt><trkpt lat="44.3697162" lon="10.3248956"><ele>893.6666666666666</ele><time>2026-04-19T09:50:39.006Z</time></trkpt><trkpt lat="44.36975" lon="10.3246224"><ele>895.0</ele><time>2026-04-19T09:50:40.007Z</time></trkpt><trkpt lat="44.369795" lon="10.3243188"><ele>895.0</ele><time>2026-04-19T09:50:41.007Z</time></trkpt><trkpt lat="44.3698373" lon="10.3240286"><ele>895.0</ele><time>2026-04-19T09:50:42.006Z</time></trkpt><trkpt lat="44.3698762" lon="10.3237529"><ele>895.0</ele><time>2026-04-19T09:50:43.006Z</time></trkpt><trkpt lat="44.3698971" lon="10.3234739"><ele>894.0</ele><time>2026-04-19T09:50:44.007Z</time></trkpt><trkpt lat="44.3698985" lon="10.323181"><ele>893.0</ele><time>2026-04-19T09:50:45.007Z</time></trkpt><trkpt lat="44.3698838" lon="10.3229276"><ele>892.0</ele><time>2026-04-19T09:50:46.006Z</time></trkpt><trkpt lat="44.3698672" lon="10.3226593"><ele>892.0</ele><time>2026-04-19T09:50:47.007Z</time></trkpt><trkpt lat="44.3698626" lon="10.3223835"><ele>892.0</ele><time>2026-04-19T09:50:48.005Z</time></trkpt><trkpt lat="44.369858" lon="10.3221057"><ele>892.0</ele><time>2026-04-19T09:50:49.006Z</time></trkpt><trkpt lat="44.3698478" lon="10.3218424"><ele>892.0</ele><time>2026-04-19T09:50:50.006Z</time></trkpt><trkpt lat="44.3698331" lon="10.321588"><ele>892.0</ele><time>2026-04-19T09:50:51.006Z</time></trkpt><trkpt lat="44.3698035" lon="10.3213434"><ele>892.0</ele><time>2026-04-19T09:50:52.007Z</time></trkpt><trkpt lat="44.369744" lon="10.321099"><ele>887.0</ele><time>2026-04-19T09:50:53.007Z</time></trkpt><trkpt lat="44.3696599" lon="10.3208856"><ele>882.0</ele><time>2026-04-19T09:50:54.006Z</time></trkpt><trkpt lat="44.3695674" lon="10.3206958"><ele>877.0</ele><time>2026-04-19T09:50:55.007Z</time></trkpt><trkpt lat="44.3694889" lon="10.3205128"><ele>877.0</ele><time>2026-04-19T09:50:56.007Z</time></trkpt><trkpt lat="44.3694314" lon="10.320305"><ele>877.0</ele><time>2026-04-19T09:50:57.006Z</time></trkpt><trkpt lat="44.3694119" lon="10.3200911"><ele>877.0</ele><time>2026-04-19T09:50:58.006Z</time></trkpt><trkpt lat="44.3694256" lon="10.3198896"><ele>872.0</ele><time>2026-04-19T09:50:59.005Z</time></trkpt><trkpt lat="44.3694711" lon="10.3196901"><ele>867.0</ele><time>2026-04-19T09:51:00.007Z</time></trkpt><trkpt lat="44.3695556" lon="10.3195077"><ele>862.0</ele><time>2026-04-19T09:51:01.006Z</time></trkpt><trkpt lat="44.3696796" lon="10.3193225"><ele>866.3333333333333</ele><time>2026-04-19T09:51:02.007Z</time></trkpt><trkpt lat="44.3698254" lon="10.3191372"><ele>870.6666666666667</ele><time>2026-04-19T09:51:03.007Z</time></trkpt><trkpt lat="44.3699795" lon="10.3189437"><ele>875.0</ele><time>2026-04-19T09:51:04.007Z</time></trkpt><trkpt lat="44.3701455" lon="10.3187347"><ele>875.0</ele><time>2026-04-19T09:51:05.005Z</time></trkpt><trkpt lat="44.3702946" lon="10.3185469"><ele>875.0</ele><time>2026-04-19T09:51:06.006Z</time></trkpt><trkpt lat="44.3704293" lon="10.3183579"><ele>875.0</ele><time>2026-04-19T09:51:07.006Z</time></trkpt><trkpt lat="44.370552" lon="10.3181546"><ele>877.3333333333334</ele><time>2026-04-19T09:51:08.007Z</time></trkpt><trkpt lat="44.3706565" lon="10.317941"><ele>879.6666666666667</ele><time>2026-04-19T09:51:09.005Z</time></trkpt><trkpt lat="44.3707441" lon="10.3177357"><ele>882.0</ele><time>2026-04-19T09:51:10.005Z</time></trkpt><trkpt lat="44.3708348" lon="10.3175442"><ele>882.0</ele><time>2026-04-19T09:51:11.005Z</time></trkpt><trkpt lat="44.370932" lon="10.3173865"><ele>882.0</ele><time>2026-04-19T09:51:12.006Z</time></trkpt><trkpt lat="44.3710459" lon="10.3172654"><ele>882.0</ele><time>2026-04-19T09:51:13.007Z</time></trkpt><trkpt lat="44.3711775" lon="10.3171834"><ele>882.0</ele><time>2026-04-19T09:51:14.007Z</time></trkpt><trkpt lat="44.3713368" lon="10.3171582"><ele>879.0</ele><time>2026-04-19T09:51:15.005Z</time></trkpt><trkpt lat="44.3715134" lon="10.3171362"><ele>876.0</ele><time>2026-04-19T09:51:16.006Z</time></trkpt><trkpt lat="44.3717166" lon="10.3171113"><ele>873.0</ele><time>2026-04-19T09:51:17.006Z</time></trkpt><trkpt lat="44.3719344" lon="10.3170833"><ele>873.0</ele><time>2026-04-19T09:51:18.007Z</time></trkpt><trkpt lat="44.3721319" lon="10.3170651"><ele>873.0</ele><time>2026-04-19T09:51:19.006Z</time></trkpt><trkpt lat="44.3723208" lon="10.3170521"><ele>873.0</ele><time>2026-04-19T09:51:20.007Z</time></trkpt><trkpt lat="44.3724955" lon="10.3170381"><ele>875.0</ele><time>2026-04-19T09:51:21.007Z</time></trkpt><trkpt lat="44.372641" lon="10.317031"><ele>877.0</ele><time>2026-04-19T09:51:22.007Z</time></trkpt><trkpt lat="44.372771" lon="10.3170219"><ele>879.0</ele><time>2026-04-19T09:51:23.006Z</time></trkpt><trkpt lat="44.3728862" lon="10.316986"><ele>881.0</ele><time>2026-04-19T09:51:24.007Z</time></trkpt><trkpt lat="44.3729901" lon="10.316897"><ele>882.75</ele><time>2026-04-19T09:51:25.006Z</time></trkpt><trkpt lat="44.3730874" lon="10.3167621"><ele>884.5</ele><time>2026-04-19T09:51:26.007Z</time></trkpt><trkpt lat="44.3731854" lon="10.3166048"><ele>886.25</ele><time>2026-04-19T09:51:27.007Z</time></trkpt><trkpt lat="44.3732699" lon="10.3164699"><ele>888.0</ele><time>2026-04-19T09:51:28.006Z</time></trkpt><trkpt lat="44.373334" lon="10.3163274"><ele>888.0</ele><time>2026-04-19T09:51:29.007Z</time></trkpt><trkpt lat="44.3733681" lon="10.3161734"><ele>888.0</ele><time>2026-04-19T09:51:30.007Z</time></trkpt><trkpt lat="44.3733684" lon="10.3159876"><ele>888.0</ele><time>2026-04-19T09:51:31.007Z</time></trkpt><trkpt lat="44.3733446" lon="10.3157986"><ele>888.0</ele><time>2026-04-19T09:51:32.007Z</time></trkpt><trkpt lat="44.3732843" lon="10.3156184"><ele>885.0</ele><time>2026-04-19T09:51:33.006Z</time></trkpt><trkpt lat="44.3731854" lon="10.3154314"><ele>882.0</ele><time>2026-04-19T09:51:34.006Z</time></trkpt><trkpt lat="44.3730637" lon="10.3152391"><ele>879.0</ele><time>2026-04-19T09:51:35.006Z</time></trkpt><trkpt lat="44.3729356" lon="10.3150497"><ele>879.0</ele><time>2026-04-19T09:51:36.007Z</time></trkpt><trkpt lat="44.3727929" lon="10.3148669"><ele>879.0</ele><time>2026-04-19T09:51:37.006Z</time></trkpt><trkpt lat="44.372628" lon="10.3146938"><ele>879.0</ele><time>2026-04-19T09:51:38.006Z</time></trkpt><trkpt lat="44.3724492" lon="10.3145305"><ele>880.3333333333333</ele><time>2026-04-19T09:51:39.006Z</time></trkpt><trkpt lat="44.3722922" lon="10.3143839"><ele>881.6666666666666</ele><time>2026-04-19T09:51:40.006Z</time></trkpt><trkpt lat="44.3721649" lon="10.314268"><ele>883.0</ele><time>2026-04-19T09:51:41.006Z</time></trkpt><trkpt lat="44.3720488" lon="10.3141875"><ele>883.0</ele><time>2026-04-19T09:51:42.006Z</time></trkpt><trkpt lat="44.3719234" lon="10.3141633"><ele>883.0</ele><time>2026-04-19T09:51:43.006Z</time></trkpt><trkpt lat="44.3717832" lon="10.3142003"><ele>883.0</ele><time>2026-04-19T09:51:44.006Z</time></trkpt><trkpt lat="44.3716327" lon="10.3142437"><ele>883.0</ele><time>2026-04-19T09:51:45.005Z</time></trkpt><trkpt lat="44.3714853" lon="10.3142576"><ele>881.0</ele><time>2026-04-19T09:51:46.007Z</time></trkpt><trkpt lat="44.3713407" lon="10.3142307"><ele>879.0</ele><time>2026-04-19T09:51:47.007Z</time></trkpt><trkpt lat="44.3712059" lon="10.3141719"><ele>877.0</ele><time>2026-04-19T09:51:48.007Z</time></trkpt><trkpt lat="44.3710784" lon="10.3140728"><ele>875.0</ele><time>2026-04-19T09:51:49.006Z</time></trkpt><trkpt lat="44.3709482" lon="10.3139287"><ele>881.3333333333334</ele><time>2026-04-19T09:51:50.007Z</time></trkpt><trkpt lat="44.370809" lon="10.3137504"><ele>887.6666666666667</ele><time>2026-04-19T09:51:51.007Z</time></trkpt><trkpt lat="44.3706691" lon="10.3135724"><ele>894.0</ele><time>2026-04-19T09:51:52.007Z</time></trkpt><trkpt lat="44.3705348" lon="10.3134022"><ele>893.0</ele><time>2026-04-19T09:51:53.006Z</time></trkpt><trkpt lat="44.3704057" lon="10.3132406"><ele>892.0</ele><time>2026-04-19T09:51:54.007Z</time></trkpt><trkpt lat="44.3702639" lon="10.3131125"><ele>891.0</ele><time>2026-04-19T09:51:55.007Z</time></trkpt><trkpt lat="44.3700964" lon="10.3130246"><ele>891.0</ele><time>2026-04-19T09:51:56.006Z</time></trkpt><trkpt lat="44.3698974" lon="10.3129713"><ele>891.0</ele><time>2026-04-19T09:51:57.006Z</time></trkpt><trkpt lat="44.3696761" lon="10.3129293"><ele>891.0</ele><time>2026-04-19T09:51:58.006Z</time></trkpt><trkpt lat="44.3694675" lon="10.3128944"><ele>889.6666666666667</ele><time>2026-04-19T09:51:59.006Z</time></trkpt><trkpt lat="44.3692645" lon="10.3128598"><ele>888.3333333333334</ele><time>2026-04-19T09:52:00.006Z</time></trkpt><trkpt lat="44.3690713" lon="10.3128241"><ele>887.0</ele><time>2026-04-19T09:52:01.006Z</time></trkpt><trkpt lat="44.368887" lon="10.3127947"><ele>884.0</ele><time>2026-04-19T09:52:02.007Z</time></trkpt><trkpt lat="44.3687123" lon="10.312759"><ele>881.0</ele><time>2026-04-19T09:52:03.007Z</time></trkpt><trkpt lat="44.368545" lon="10.3127282"><ele>878.0</ele><time>2026-04-19T09:52:04.006Z</time></trkpt><trkpt lat="44.3683923" lon="10.3127052"><ele>878.0</ele><time>2026-04-19T09:52:05.006Z</time></trkpt><trkpt lat="44.3682778" lon="10.3126871"><ele>878.0</ele><time>2026-04-19T09:52:06.007Z</time></trkpt><trkpt lat="44.3681883" lon="10.31266"><ele>878.0</ele><time>2026-04-19T09:52:07.006Z</time></trkpt><trkpt lat="44.3681135" lon="10.3126101"><ele>878.0</ele><time>2026-04-19T09:52:08.006Z</time></trkpt><trkpt lat="44.3680531" lon="10.3125164"><ele>878.0</ele><time>2026-04-19T09:52:09.007Z</time></trkpt><trkpt lat="44.3680208" lon="10.31239"><ele>880.25</ele><time>2026-04-19T09:52:10.006Z</time></trkpt><trkpt lat="44.3680166" lon="10.3122353"><ele>882.5</ele><time>2026-04-19T09:52:11.007Z</time></trkpt><trkpt lat="44.3680363" lon="10.3120535"><ele>884.75</ele><time>2026-04-19T09:52:12.007Z</time></trkpt><trkpt lat="44.3680516" lon="10.3118883"><ele>887.0</ele><time>2026-04-19T09:52:13.007Z</time></trkpt><trkpt lat="44.3680654" lon="10.3117238"><ele>887.0</ele><time>2026-04-19T09:52:14.006Z</time></trkpt><trkpt lat="44.3680751" lon="10.3115656"><ele>887.0</ele><time>2026-04-19T09:52:15.006Z</time></trkpt><trkpt lat="44.3680809" lon="10.3114166"><ele>887.0</ele><time>2026-04-19T09:52:16.006Z</time></trkpt><trkpt lat="44.3680798" lon="10.311273"><ele>887.0</ele><time>2026-04-19T09:52:17.007Z</time></trkpt><trkpt lat="44.3680609" lon="10.3111304"><ele>887.0</ele><time>2026-04-19T09:52:18.006Z</time></trkpt><trkpt lat="44.3680215" lon="10.311007"><ele>885.75</ele><time>2026-04-19T09:52:19.006Z</time></trkpt><trkpt lat="44.3679372" lon="10.3109172"><ele>884.5</ele><time>2026-04-19T09:52:20.005Z</time></trkpt><trkpt lat="44.3678371" lon="10.3108585"><ele>883.25</ele><time>2026-04-19T09:52:21.006Z</time></trkpt><trkpt lat="44.3677043" lon="10.3108547"><ele>882.0</ele><time>2026-04-19T09:52:22.007Z</time></trkpt><trkpt lat="44.3675688" lon="10.3108597"><ele>882.0</ele><time>2026-04-19T09:52:23.007Z</time></trkpt><trkpt lat="44.3674419" lon="10.31086"><ele>882.0</ele><time>2026-04-19T09:52:24.007Z</time></trkpt><trkpt lat="44.3673186" lon="10.3108404"><ele>882.0</ele><time>2026-04-19T09:52:25.006Z</time></trkpt><trkpt lat="44.3671922" lon="10.3107854"><ele>882.0</ele><time>2026-04-19T09:52:26.006Z</time></trkpt><trkpt lat="44.3670717" lon="10.3106938"><ele>886.0</ele><time>2026-04-19T09:52:27.007Z</time></trkpt><trkpt lat="44.3669648" lon="10.3105985"><ele>890.0</ele><time>2026-04-19T09:52:28.006Z</time></trkpt><trkpt lat="44.3668456" lon="10.3105385"><ele>894.0</ele><time>2026-04-19T09:52:29.007Z</time></trkpt><trkpt lat="44.3667234" lon="10.3104987"><ele>898.0</ele><time>2026-04-19T09:52:30.007Z</time></trkpt><trkpt lat="44.3666067" lon="10.3104673"><ele>898.0</ele><time>2026-04-19T09:52:31.007Z</time></trkpt><trkpt lat="44.3664829" lon="10.3104302"><ele>898.0</ele><time>2026-04-19T09:52:32.006Z</time></trkpt><trkpt lat="44.3663644" lon="10.3103756"><ele>898.0</ele><time>2026-04-19T09:52:33.007Z</time></trkpt><trkpt lat="44.3662605" lon="10.3102954"><ele>898.0</ele><time>2026-04-19T09:52:34.007Z</time></trkpt><trkpt lat="44.3661728" lon="10.3101931"><ele>894.75</ele><time>2026-04-19T09:52:35.007Z</time></trkpt><trkpt lat="44.3661054" lon="10.31006"><ele>891.5</ele><time>2026-04-19T09:52:36.007Z</time></trkpt><trkpt lat="44.3660453" lon="10.3099083"><ele>888.25</ele><time>2026-04-19T09:52:37.006Z</time></trkpt><trkpt lat="44.3659621" lon="10.3097675"><ele>885.0</ele><time>2026-04-19T09:52:38.007Z</time></trkpt><trkpt lat="44.3658608" lon="10.3096545"><ele>885.0</ele><time>2026-04-19T09:52:39.006Z</time></trkpt><trkpt lat="44.3657462" lon="10.3095502"><ele>885.0</ele><time>2026-04-19T09:52:40.006Z</time></trkpt><trkpt lat="44.3656334" lon="10.3094524"><ele>885.0</ele><time>2026-04-19T09:52:41.006Z</time></trkpt><trkpt lat="44.3655199" lon="10.3093573"><ele>885.0</ele><time>2026-04-19T09:52:42.006Z</time></trkpt><trkpt lat="44.365408" lon="10.3092491"><ele>878.0</ele><time>2026-04-19T09:52:43.006Z</time></trkpt><trkpt lat="44.3653141" lon="10.3091253"><ele>871.0</ele><time>2026-04-19T09:52:44.006Z</time></trkpt><trkpt lat="44.3652305" lon="10.3089724"><ele>864.0</ele><time>2026-04-19T09:52:45.005Z</time></trkpt><trkpt lat="44.3651579" lon="10.3087863"><ele>857.0</ele><time>2026-04-19T09:52:46.006Z</time></trkpt><trkpt lat="44.3650949" lon="10.3085925"><ele>857.0</ele><time>2026-04-19T09:52:47.007Z</time></trkpt><trkpt lat="44.365038" lon="10.3084052"><ele>857.0</ele><time>2026-04-19T09:52:48.007Z</time></trkpt><trkpt lat="44.3649972" lon="10.3082168"><ele>857.0</ele><time>2026-04-19T09:52:49.007Z</time></trkpt><trkpt lat="44.3649928" lon="10.3080221"><ele>857.0</ele><time>2026-04-19T09:52:50.007Z</time></trkpt><trkpt lat="44.3650107" lon="10.3078085"><ele>856.5</ele><time>2026-04-19T09:52:51.006Z</time></trkpt><trkpt lat="44.3650343" lon="10.3076056"><ele>856.0</ele><time>2026-04-19T09:52:52.006Z</time></trkpt><trkpt lat="44.3650513" lon="10.3074104"><ele>855.5</ele><time>2026-04-19T09:52:53.007Z</time></trkpt><trkpt lat="44.3650552" lon="10.3072171"><ele>855.0</ele><time>2026-04-19T09:52:54.005Z</time></trkpt><trkpt lat="44.3650423" lon="10.3070183"><ele>855.0</ele><time>2026-04-19T09:52:55.007Z</time></trkpt><trkpt lat="44.3650188" lon="10.3068262"><ele>855.0</ele><time>2026-04-19T09:52:56.007Z</time></trkpt><trkpt lat="44.3649906" lon="10.3066347"><ele>855.0</ele><time>2026-04-19T09:52:57.006Z</time></trkpt><trkpt lat="44.3649539" lon="10.306445"><ele>855.0</ele><time>2026-04-19T09:52:58.007Z</time></trkpt><trkpt lat="44.3649166" lon="10.3062631"><ele>856.5</ele><time>2026-04-19T09:52:59.006Z</time></trkpt><trkpt lat="44.3648806" lon="10.3060763"><ele>858.0</ele><time>2026-04-19T09:53:00.006Z</time></trkpt><trkpt lat="44.3648505" lon="10.3058886"><ele>859.5</ele><time>2026-04-19T09:53:01.007Z</time></trkpt><trkpt lat="44.3648327" lon="10.305748"><ele>861.0</ele><time>2026-04-19T09:53:02.007Z</time></trkpt><trkpt lat="44.3648244" lon="10.3056373"><ele>861.6666666666666</ele><time>2026-04-19T09:53:03.006Z</time></trkpt><trkpt lat="44.3648199" lon="10.3054938"><ele>862.3333333333333</ele><time>2026-04-19T09:53:05.006Z</time></trkpt><trkpt lat="44.3648094" lon="10.3054009"><ele>863.0</ele><time>2026-04-19T09:53:08.007Z</time></trkpt><trkpt lat="44.3647736" lon="10.3052991"><ele>863.6666666666666</ele><time>2026-04-19T09:53:41.007Z</time></trkpt><trkpt lat="44.3647703" lon="10.3051974"><ele>864.3333333333333</ele><time>2026-04-19T09:53:42.007Z</time></trkpt><trkpt lat="44.3647725" lon="10.3050465"><ele>865.0</ele><time>2026-04-19T09:53:43.006Z</time></trkpt><trkpt lat="44.3647795" lon="10.3049093"><ele>864.9999999999999</ele><time>2026-04-19T09:53:44.007Z</time></trkpt><trkpt lat="44.3647802" lon="10.304785"><ele>865.0</ele><time>2026-04-19T09:53:45.007Z</time></trkpt><trkpt lat="44.3647813" lon="10.3046604"><ele>865.0</ele><time>2026-04-19T09:53:46.007Z</time></trkpt><trkpt lat="44.36477" lon="10.3045351"><ele>865.0</ele><time>2026-04-19T09:53:47.006Z</time></trkpt><trkpt lat="44.3647514" lon="10.304427"><ele>864.9999999999999</ele><time>2026-04-19T09:53:48.005Z</time></trkpt><trkpt lat="44.3647145" lon="10.304322"><ele>865.0</ele><time>2026-04-19T09:53:49.006Z</time></trkpt><trkpt lat="44.3646649" lon="10.30421"><ele>858.4</ele><time>2026-04-19T09:53:50.006Z</time></trkpt><trkpt lat="44.3646099" lon="10.3040908"><ele>851.8</ele><time>2026-04-19T09:53:51.006Z</time></trkpt><trkpt lat="44.3645663" lon="10.3039652"><ele>845.2</ele><time>2026-04-19T09:53:52.006Z</time></trkpt><trkpt lat="44.3645428" lon="10.3038374"><ele>838.6</ele><time>2026-04-19T09:53:53.007Z</time></trkpt><trkpt lat="44.3645336" lon="10.3037034"><ele>832.0</ele><time>2026-04-19T09:53:54.007Z</time></trkpt><trkpt lat="44.3645444" lon="10.3035664"><ele>832.0</ele><time>2026-04-19T09:53:55.006Z</time></trkpt><trkpt lat="44.3645778" lon="10.303448"><ele>832.0</ele><time>2026-04-19T09:53:56.007Z</time></trkpt><trkpt lat="44.3646238" lon="10.3033277"><ele>832.0</ele><time>2026-04-19T09:53:57.007Z</time></trkpt><trkpt lat="44.364681" lon="10.3032147"><ele>832.0</ele><time>2026-04-19T09:53:58.007Z</time></trkpt><trkpt lat="44.3647413" lon="10.3031104"><ele>832.0</ele><time>2026-04-19T09:53:59.006Z</time></trkpt><trkpt lat="44.3647895" lon="10.3030114"><ele>832.9999999999999</ele><time>2026-04-19T09:54:00.007Z</time></trkpt><trkpt lat="44.364827" lon="10.3029124"><ele>834.0</ele><time>2026-04-19T09:54:01.007Z</time></trkpt><trkpt lat="44.3648369" lon="10.3028104"><ele>835.0</ele><time>2026-04-19T09:54:02.007Z</time></trkpt><trkpt lat="44.3648172" lon="10.302705"><ele>836.0</ele><time>2026-04-19T09:54:03.007Z</time></trkpt><trkpt lat="44.3647744" lon="10.3025961"><ele>836.9999999999999</ele><time>2026-04-19T09:54:04.006Z</time></trkpt><trkpt lat="44.3647079" lon="10.3024794"><ele>838.0</ele><time>2026-04-19T09:54:05.007Z</time></trkpt><trkpt lat="44.3646289" lon="10.3023754"><ele>838.0</ele><time>2026-04-19T09:54:06.006Z</time></trkpt><trkpt lat="44.3645318" lon="10.3022881"><ele>838.0</ele><time>2026-04-19T09:54:07.006Z</time></trkpt><trkpt lat="44.3644245" lon="10.3022178"><ele>838.0</ele><time>2026-04-19T09:54:08.007Z</time></trkpt><trkpt lat="44.3643081" lon="10.3021336"><ele>838.0</ele><time>2026-04-19T09:54:09.007Z</time></trkpt><trkpt lat="44.3641832" lon="10.3020239"><ele>836.3333333333333</ele><time>2026-04-19T09:54:10.006Z</time></trkpt><trkpt lat="44.3640445" lon="10.3019047"><ele>834.6666666666667</ele><time>2026-04-19T09:54:11.006Z</time></trkpt><trkpt lat="44.3639109" lon="10.301786"><ele>833.0</ele><time>2026-04-19T09:54:12.006Z</time></trkpt><trkpt lat="44.3637754" lon="10.3016645"><ele>833.0</ele><time>2026-04-19T09:54:13.007Z</time></trkpt><trkpt lat="44.3636427" lon="10.3015472"><ele>833.0</ele><time>2026-04-19T09:54:14.005Z</time></trkpt><trkpt lat="44.3635123" lon="10.3014286"><ele>833.0</ele><time>2026-04-19T09:54:15.006Z</time></trkpt><trkpt lat="44.3633818" lon="10.3013182"><ele>836.25</ele><time>2026-04-19T09:54:16.007Z</time></trkpt><trkpt lat="44.3632552" lon="10.3012071"><ele>839.5</ele><time>2026-04-19T09:54:17.005Z</time></trkpt><trkpt lat="44.3631296" lon="10.3011051"><ele>842.75</ele><time>2026-04-19T09:54:18.006Z</time></trkpt><trkpt lat="44.363006" lon="10.3010243"><ele>846.0</ele><time>2026-04-19T09:54:19.007Z</time></trkpt><trkpt lat="44.3628826" lon="10.3009673"><ele>847.25</ele><time>2026-04-19T09:54:20.006Z</time></trkpt><trkpt lat="44.3627415" lon="10.3009307"><ele>848.5</ele><time>2026-04-19T09:54:21.007Z</time></trkpt><trkpt lat="44.3626026" lon="10.3009287"><ele>849.75</ele><time>2026-04-19T09:54:22.007Z</time></trkpt><trkpt lat="44.362452" lon="10.3009609"><ele>851.0</ele><time>2026-04-19T09:54:23.006Z</time></trkpt><trkpt lat="44.3622872" lon="10.3010017"><ele>847.6666666666667</ele><time>2026-04-19T09:54:24.006Z</time></trkpt><trkpt lat="44.3621299" lon="10.3010199"><ele>844.3333333333333</ele><time>2026-04-19T09:54:25.007Z</time></trkpt><trkpt lat="44.3619681" lon="10.3010228"><ele>841.0</ele><time>2026-04-19T09:54:26.006Z</time></trkpt><trkpt lat="44.3618016" lon="10.3010083"><ele>841.0</ele><time>2026-04-19T09:54:27.007Z</time></trkpt><trkpt lat="44.3616412" lon="10.3009742"><ele>841.0</ele><time>2026-04-19T09:54:28.007Z</time></trkpt><trkpt lat="44.3614914" lon="10.3009217"><ele>841.0</ele><time>2026-04-19T09:54:29.006Z</time></trkpt><trkpt lat="44.3613511" lon="10.3008503"><ele>838.75</ele><time>2026-04-19T09:54:30.005Z</time></trkpt><trkpt lat="44.3612224" lon="10.3007777"><ele>836.5</ele><time>2026-04-19T09:54:31.007Z</time></trkpt><trkpt lat="44.3611015" lon="10.3007418"><ele>834.25</ele><time>2026-04-19T09:54:32.007Z</time></trkpt><trkpt lat="44.3609788" lon="10.3007522"><ele>832.0</ele><time>2026-04-19T09:54:33.007Z</time></trkpt><trkpt lat="44.3608539" lon="10.3008176"><ele>832.0</ele><time>2026-04-19T09:54:34.007Z</time></trkpt><trkpt lat="44.3607375" lon="10.3009236"><ele>832.0</ele><time>2026-04-19T09:54:35.005Z</time></trkpt><trkpt lat="44.3606244" lon="10.3010423"><ele>832.0</ele><time>2026-04-19T09:54:36.006Z</time></trkpt><trkpt lat="44.3605075" lon="10.3011454"><ele>832.0</ele><time>2026-04-19T09:54:37.006Z</time></trkpt><trkpt lat="44.3604008" lon="10.3012289"><ele>833.6</ele><time>2026-04-19T09:54:38.006Z</time></trkpt><trkpt lat="44.360303" lon="10.3012975"><ele>835.2</ele><time>2026-04-19T09:54:39.006Z</time></trkpt><trkpt lat="44.3602072" lon="10.3013394"><ele>836.8</ele><time>2026-04-19T09:54:40.006Z</time></trkpt><trkpt lat="44.3600995" lon="10.3013471"><ele>838.4</ele><time>2026-04-19T09:54:41.007Z</time></trkpt><trkpt lat="44.3599866" lon="10.3013154"><ele>840.0</ele><time>2026-04-19T09:54:42.006Z</time></trkpt><trkpt lat="44.3598722" lon="10.3012674"><ele>840.0</ele><time>2026-04-19T09:54:43.007Z</time></trkpt><trkpt lat="44.3597484" lon="10.3012189"><ele>840.0</ele><time>2026-04-19T09:54:44.007Z</time></trkpt><trkpt lat="44.3596157" lon="10.301177"><ele>840.0</ele><time>2026-04-19T09:54:45.006Z</time></trkpt><trkpt lat="44.3594639" lon="10.3011543"><ele>840.0</ele><time>2026-04-19T09:54:46.006Z</time></trkpt><trkpt lat="44.3592967" lon="10.3011708"><ele>838.3333333333333</ele><time>2026-04-19T09:54:47.007Z</time></trkpt><trkpt lat="44.3591241" lon="10.301206"><ele>836.6666666666666</ele><time>2026-04-19T09:54:48.006Z</time></trkpt><trkpt lat="44.3589547" lon="10.3012393"><ele>835.0</ele><time>2026-04-19T09:54:49.006Z</time></trkpt><trkpt lat="44.3587899" lon="10.3012501"><ele>831.0</ele><time>2026-04-19T09:54:50.006Z</time></trkpt><trkpt lat="44.3586279" lon="10.3012482"><ele>827.0</ele><time>2026-04-19T09:54:51.006Z</time></trkpt><trkpt lat="44.3584601" lon="10.3012426"><ele>823.0</ele><time>2026-04-19T09:54:52.006Z</time></trkpt><trkpt lat="44.3583009" lon="10.3012224"><ele>823.0</ele><time>2026-04-19T09:54:53.007Z</time></trkpt><trkpt lat="44.3581428" lon="10.301173"><ele>823.0</ele><time>2026-04-19T09:54:54.006Z</time></trkpt><trkpt lat="44.3579879" lon="10.3010969"><ele>823.0</ele><time>2026-04-19T09:54:55.006Z</time></trkpt><trkpt lat="44.3578427" lon="10.3010114"><ele>813.6666666666666</ele><time>2026-04-19T09:54:56.007Z</time></trkpt><trkpt lat="44.3577069" lon="10.3009112"><ele>804.3333333333333</ele><time>2026-04-19T09:54:57.007Z</time></trkpt><trkpt lat="44.3575925" lon="10.3007773"><ele>795.0</ele><time>2026-04-19T09:54:58.007Z</time></trkpt><trkpt lat="44.3574869" lon="10.300603"><ele>800.6666666666667</ele><time>2026-04-19T09:54:59.007Z</time></trkpt><trkpt lat="44.3573814" lon="10.3004197"><ele>806.3333333333334</ele><time>2026-04-19T09:55:00.007Z</time></trkpt><trkpt lat="44.3572807" lon="10.3002482"><ele>812.0</ele><time>2026-04-19T09:55:01.006Z</time></trkpt><trkpt lat="44.3571845" lon="10.3000749"><ele>804.0</ele><time>2026-04-19T09:55:02.005Z</time></trkpt><trkpt lat="44.3570973" lon="10.2999165"><ele>796.0</ele><time>2026-04-19T09:55:03.006Z</time></trkpt><trkpt lat="44.3570223" lon="10.2997722"><ele>788.0</ele><time>2026-04-19T09:55:04.006Z</time></trkpt><trkpt lat="44.356965" lon="10.2996382"><ele>780.0</ele><time>2026-04-19T09:55:05.006Z</time></trkpt><trkpt lat="44.3569314" lon="10.2994921"><ele>780.0</ele><time>2026-04-19T09:55:06.005Z</time></trkpt><trkpt lat="44.3569447" lon="10.2993285"><ele>780.0</ele><time>2026-04-19T09:55:07.006Z</time></trkpt><trkpt lat="44.3569855" lon="10.2991585"><ele>780.0</ele><time>2026-04-19T09:55:08.005Z</time></trkpt><trkpt lat="44.3570229" lon="10.2989842"><ele>780.0</ele><time>2026-04-19T09:55:09.006Z</time></trkpt><trkpt lat="44.3570371" lon="10.2988079"><ele>778.0</ele><time>2026-04-19T09:55:10.005Z</time></trkpt><trkpt lat="44.3570765" lon="10.2986486"><ele>776.0</ele><time>2026-04-19T09:55:11.006Z</time></trkpt><trkpt lat="44.3571455" lon="10.29851"><ele>774.0</ele><time>2026-04-19T09:55:12.004Z</time></trkpt><trkpt lat="44.3572279" lon="10.2983867"><ele>772.0</ele><time>2026-04-19T09:55:13.006Z</time></trkpt><trkpt lat="44.3572955" lon="10.2982554"><ele>776.0</ele><time>2026-04-19T09:55:14.004Z</time></trkpt><trkpt lat="44.3573362" lon="10.2981075"><ele>780.0</ele><time>2026-04-19T09:55:15.005Z</time></trkpt><trkpt lat="44.357341" lon="10.2979653"><ele>784.0</ele><time>2026-04-19T09:55:16.006Z</time></trkpt><trkpt lat="44.3573195" lon="10.297822"><ele>788.0</ele><time>2026-04-19T09:55:17.006Z</time></trkpt><trkpt lat="44.3572898" lon="10.2976428"><ele>788.0</ele><time>2026-04-19T09:55:18.006Z</time></trkpt><trkpt lat="44.3572613" lon="10.2974533"><ele>788.0</ele><time>2026-04-19T09:55:19.006Z</time></trkpt><trkpt lat="44.3572329" lon="10.2972514"><ele>788.0</ele><time>2026-04-19T09:55:20.006Z</time></trkpt><trkpt lat="44.357205" lon="10.2970358"><ele>788.0</ele><time>2026-04-19T09:55:21.005Z</time></trkpt><trkpt lat="44.3571683" lon="10.2968221"><ele>783.25</ele><time>2026-04-19T09:55:22.005Z</time></trkpt><trkpt lat="44.3571179" lon="10.296624"><ele>778.5</ele><time>2026-04-19T09:55:23.005Z</time></trkpt><trkpt lat="44.3570555" lon="10.2964412"><ele>773.75</ele><time>2026-04-19T09:55:24.005Z</time></trkpt><trkpt lat="44.356988" lon="10.2962719"><ele>769.0</ele><time>2026-04-19T09:55:25.006Z</time></trkpt><trkpt lat="44.356928" lon="10.2961034"><ele>769.0</ele><time>2026-04-19T09:55:26.006Z</time></trkpt><trkpt lat="44.356885" lon="10.2959311"><ele>769.0</ele><time>2026-04-19T09:55:27.006Z</time></trkpt><trkpt lat="44.3568642" lon="10.2957552"><ele>769.0</ele><time>2026-04-19T09:55:28.005Z</time></trkpt><trkpt lat="44.3568662" lon="10.2955675"><ele>769.0</ele><time>2026-04-19T09:55:29.004Z</time></trkpt><trkpt lat="44.3568808" lon="10.2953764"><ele>769.25</ele><time>2026-04-19T09:55:30.006Z</time></trkpt><trkpt lat="44.3568869" lon="10.2951873"><ele>769.5</ele><time>2026-04-19T09:55:31.006Z</time></trkpt><trkpt lat="44.3568728" lon="10.2949962"><ele>769.75</ele><time>2026-04-19T09:55:32.006Z</time></trkpt><trkpt lat="44.3568363" lon="10.2948053"><ele>770.0</ele><time>2026-04-19T09:55:33.005Z</time></trkpt><trkpt lat="44.3567811" lon="10.2946202"><ele>770.75</ele><time>2026-04-19T09:55:34.005Z</time></trkpt><trkpt lat="44.3567161" lon="10.2944434"><ele>771.5</ele><time>2026-04-19T09:55:35.005Z</time></trkpt><trkpt lat="44.3566548" lon="10.2942743"><ele>772.25</ele><time>2026-04-19T09:55:36.004Z</time></trkpt><trkpt lat="44.3565968" lon="10.294105"><ele>773.0</ele><time>2026-04-19T09:55:37.006Z</time></trkpt><trkpt lat="44.3565418" lon="10.2939411"><ele>775.0</ele><time>2026-04-19T09:55:38.006Z</time></trkpt><trkpt lat="44.3564914" lon="10.2937806"><ele>777.0</ele><time>2026-04-19T09:55:39.006Z</time></trkpt><trkpt lat="44.3564469" lon="10.2936259"><ele>779.0</ele><time>2026-04-19T09:55:40.005Z</time></trkpt><trkpt lat="44.3564058" lon="10.2934777"><ele>781.0</ele><time>2026-04-19T09:55:41.006Z</time></trkpt><trkpt lat="44.3563678" lon="10.2933421"><ele>777.4</ele><time>2026-04-19T09:55:42.005Z</time></trkpt><trkpt lat="44.3563332" lon="10.2932151"><ele>773.8</ele><time>2026-04-19T09:55:43.006Z</time></trkpt><trkpt lat="44.3562991" lon="10.2930916"><ele>770.1999999999999</ele><time>2026-04-19T09:55:44.004Z</time></trkpt><trkpt lat="44.3562644" lon="10.2929665"><ele>766.5999999999999</ele><time>2026-04-19T09:55:45.005Z</time></trkpt><trkpt lat="44.3562309" lon="10.2928433"><ele>763.0</ele><time>2026-04-19T09:55:46.006Z</time></trkpt><trkpt lat="44.3561983" lon="10.2927251"><ele>763.0</ele><time>2026-04-19T09:55:47.006Z</time></trkpt><trkpt lat="44.3561611" lon="10.2925981"><ele>763.0</ele><time>2026-04-19T09:55:48.005Z</time></trkpt><trkpt lat="44.356116" lon="10.2924593"><ele>763.0</ele><time>2026-04-19T09:55:49.005Z</time></trkpt><trkpt lat="44.3560602" lon="10.2923104"><ele>763.0</ele><time>2026-04-19T09:55:50.006Z</time></trkpt><trkpt lat="44.3560046" lon="10.2921653"><ele>763.0</ele><time>2026-04-19T09:55:51.005Z</time></trkpt><trkpt lat="44.3559589" lon="10.2920273"><ele>765.5</ele><time>2026-04-19T09:55:52.005Z</time></trkpt><trkpt lat="44.3559188" lon="10.2918762"><ele>768.0</ele><time>2026-04-19T09:55:53.005Z</time></trkpt><trkpt lat="44.3559055" lon="10.2917305"><ele>770.5</ele><time>2026-04-19T09:55:54.005Z</time></trkpt><trkpt lat="44.3559138" lon="10.2915701"><ele>773.0</ele><time>2026-04-19T09:55:55.005Z</time></trkpt><trkpt lat="44.3559349" lon="10.2914027"><ele>773.5999999999999</ele><time>2026-04-19T09:55:56.006Z</time></trkpt><trkpt lat="44.3559578" lon="10.2912448"><ele>774.1999999999999</ele><time>2026-04-19T09:55:57.005Z</time></trkpt><trkpt lat="44.3559721" lon="10.2910996"><ele>774.8</ele><time>2026-04-19T09:55:58.005Z</time></trkpt><trkpt lat="44.3559748" lon="10.2909498"><ele>775.4</ele><time>2026-04-19T09:55:59.006Z</time></trkpt><trkpt lat="44.3559635" lon="10.2908074"><ele>776.0</ele><time>2026-04-19T09:56:00.004Z</time></trkpt><trkpt lat="44.3559324" lon="10.2906761"><ele>776.8</ele><time>2026-04-19T09:56:01.006Z</time></trkpt><trkpt lat="44.3558736" lon="10.2905568"><ele>777.5999999999999</ele><time>2026-04-19T09:56:02.005Z</time></trkpt><trkpt lat="44.355787" lon="10.2904634"><ele>778.4</ele><time>2026-04-19T09:56:03.005Z</time></trkpt><trkpt lat="44.35569" lon="10.2903963"><ele>779.2</ele><time>2026-04-19T09:56:04.006Z</time></trkpt><trkpt lat="44.3555968" lon="10.2903453"><ele>780.0</ele><time>2026-04-19T09:56:05.006Z</time></trkpt><trkpt lat="44.3555006" lon="10.2903118"><ele>780.0</ele><time>2026-04-19T09:56:06.005Z</time></trkpt><trkpt lat="44.3554094" lon="10.2903209"><ele>780.0</ele><time>2026-04-19T09:56:07.006Z</time></trkpt><trkpt lat="44.3553156" lon="10.290391"><ele>780.0</ele><time>2026-04-19T09:56:08.005Z</time></trkpt><trkpt lat="44.3552391" lon="10.2904751"><ele>780.0</ele><time>2026-04-19T09:56:09.006Z</time></trkpt><trkpt lat="44.3551709" lon="10.2905361"><ele>780.0</ele><time>2026-04-19T09:56:10.006Z</time></trkpt><trkpt lat="44.3551109" lon="10.2905656"><ele>780.0</ele><time>2026-04-19T09:56:11.005Z</time></trkpt><trkpt lat="44.3550088" lon="10.2905011"><ele>780.0</ele><time>2026-04-19T09:56:13.006Z</time></trkpt><trkpt lat="44.3549785" lon="10.2904137"><ele>780.0</ele><time>2026-04-19T09:56:14.006Z</time></trkpt><trkpt lat="44.354954" lon="10.2902972"><ele>780.0</ele><time>2026-04-19T09:56:15.005Z</time></trkpt><trkpt lat="44.3549225" lon="10.2901649"><ele>780.0</ele><time>2026-04-19T09:56:16.005Z</time></trkpt><trkpt lat="44.3548729" lon="10.2900289"><ele>780.0</ele><time>2026-04-19T09:56:17.005Z</time></trkpt><trkpt lat="44.3548076" lon="10.2899039"><ele>780.0</ele><time>2026-04-19T09:56:18.006Z</time></trkpt><trkpt lat="44.3547156" lon="10.2898012"><ele>780.0</ele><time>2026-04-19T09:56:19.006Z</time></trkpt><trkpt lat="44.3546023" lon="10.2897307"><ele>780.0</ele><time>2026-04-19T09:56:20.004Z</time></trkpt><trkpt lat="44.3544761" lon="10.2896902"><ele>780.0</ele><time>2026-04-19T09:56:21.006Z</time></trkpt><trkpt lat="44.3543616" lon="10.2896422"><ele>777.5</ele><time>2026-04-19T09:56:22.005Z</time></trkpt><trkpt lat="44.3542635" lon="10.2895701"><ele>775.0</ele><time>2026-04-19T09:56:23.005Z</time></trkpt><trkpt lat="44.3541852" lon="10.289468"><ele>772.5</ele><time>2026-04-19T09:56:24.004Z</time></trkpt><trkpt lat="44.3541258" lon="10.2893285"><ele>770.0</ele><time>2026-04-19T09:56:25.005Z</time></trkpt><trkpt lat="44.3540806" lon="10.2891701"><ele>770.0</ele><time>2026-04-19T09:56:26.005Z</time></trkpt><trkpt lat="44.3540277" lon="10.2890024"><ele>770.0</ele><time>2026-04-19T09:56:27.005Z</time></trkpt><trkpt lat="44.3539579" lon="10.2888295"><ele>770.0</ele><time>2026-04-19T09:56:28.005Z</time></trkpt><trkpt lat="44.353872" lon="10.2886608"><ele>770.0</ele><time>2026-04-19T09:56:29.006Z</time></trkpt><trkpt lat="44.3537712" lon="10.2885106"><ele>769.5</ele><time>2026-04-19T09:56:30.005Z</time></trkpt><trkpt lat="44.3536755" lon="10.2883656"><ele>769.0</ele><time>2026-04-19T09:56:31.005Z</time></trkpt><trkpt lat="44.3535811" lon="10.2882248"><ele>768.5</ele><time>2026-04-19T09:56:32.005Z</time></trkpt><trkpt lat="44.3534968" lon="10.2881109"><ele>768.0</ele><time>2026-04-19T09:56:33.006Z</time></trkpt><trkpt lat="44.3534118" lon="10.2880266"><ele>768.0</ele><time>2026-04-19T09:56:34.006Z</time></trkpt><trkpt lat="44.3533143" lon="10.2879744"><ele>768.0</ele><time>2026-04-19T09:56:35.005Z</time></trkpt><trkpt lat="44.3532036" lon="10.2879829"><ele>768.0</ele><time>2026-04-19T09:56:36.006Z</time></trkpt><trkpt lat="44.3530902" lon="10.2880307"><ele>768.0</ele><time>2026-04-19T09:56:37.006Z</time></trkpt><trkpt lat="44.3529918" lon="10.2881001"><ele>768.0</ele><time>2026-04-19T09:56:38.006Z</time></trkpt><trkpt lat="44.3528832" lon="10.2881472"><ele>764.75</ele><time>2026-04-19T09:56:39.006Z</time></trkpt><trkpt lat="44.3527676" lon="10.2881505"><ele>761.5</ele><time>2026-04-19T09:56:40.005Z</time></trkpt><trkpt lat="44.3526585" lon="10.2881172"><ele>758.25</ele><time>2026-04-19T09:56:41.005Z</time></trkpt><trkpt lat="44.3525634" lon="10.2880473"><ele>755.0</ele><time>2026-04-19T09:56:42.006Z</time></trkpt><trkpt lat="44.3524779" lon="10.2879307"><ele>755.0</ele><time>2026-04-19T09:56:43.006Z</time></trkpt><trkpt lat="44.3523865" lon="10.2877611"><ele>755.0</ele><time>2026-04-19T09:56:44.004Z</time></trkpt><trkpt lat="44.3522919" lon="10.2875687"><ele>755.0</ele><time>2026-04-19T09:56:45.006Z</time></trkpt><trkpt lat="44.3522074" lon="10.2873937"><ele>752.25</ele><time>2026-04-19T09:56:46.006Z</time></trkpt><trkpt lat="44.352126" lon="10.2872207"><ele>749.5</ele><time>2026-04-19T09:56:47.006Z</time></trkpt><trkpt lat="44.3520569" lon="10.2870509"><ele>746.75</ele><time>2026-04-19T09:56:48.005Z</time></trkpt><trkpt lat="44.3520051" lon="10.286889"><ele>744.0</ele><time>2026-04-19T09:56:49.006Z</time></trkpt><trkpt lat="44.3519798" lon="10.2867276"><ele>744.0</ele><time>2026-04-19T09:56:50.006Z</time></trkpt><trkpt lat="44.3519834" lon="10.2865564"><ele>744.0</ele><time>2026-04-19T09:56:51.005Z</time></trkpt><trkpt lat="44.352005" lon="10.2863881"><ele>744.0</ele><time>2026-04-19T09:56:52.006Z</time></trkpt><trkpt lat="44.3520521" lon="10.2862322"><ele>744.0</ele><time>2026-04-19T09:56:53.006Z</time></trkpt><trkpt lat="44.3521262" lon="10.2860736"><ele>744.5</ele><time>2026-04-19T09:56:54.006Z</time></trkpt><trkpt lat="44.3522106" lon="10.2859316"><ele>745.0</ele><time>2026-04-19T09:56:55.006Z</time></trkpt><trkpt lat="44.3523128" lon="10.2858187"><ele>745.5</ele><time>2026-04-19T09:56:56.006Z</time></trkpt><trkpt lat="44.3524229" lon="10.2857337"><ele>746.0</ele><time>2026-04-19T09:56:57.006Z</time></trkpt><trkpt lat="44.352509" lon="10.2856571"><ele>743.0</ele><time>2026-04-19T09:56:58.006Z</time></trkpt><trkpt lat="44.3525717" lon="10.2855529"><ele>740.0</ele><time>2026-04-19T09:56:59.005Z</time></trkpt><trkpt lat="44.3526052" lon="10.285415"><ele>737.0</ele><time>2026-04-19T09:57:00.006Z</time></trkpt><trkpt lat="44.3526164" lon="10.285241"><ele>734.0</ele><time>2026-04-19T09:57:01.005Z</time></trkpt><trkpt lat="44.352614" lon="10.2850487"><ele>734.0</ele><time>2026-04-19T09:57:02.006Z</time></trkpt><trkpt lat="44.3526123" lon="10.2848418"><ele>734.0</ele><time>2026-04-19T09:57:03.004Z</time></trkpt><trkpt lat="44.352614" lon="10.2846269"><ele>734.0</ele><time>2026-04-19T09:57:04.005Z</time></trkpt><trkpt lat="44.3526154" lon="10.2844124"><ele>732.0</ele><time>2026-04-19T09:57:05.004Z</time></trkpt><trkpt lat="44.3526164" lon="10.2841969"><ele>730.0</ele><time>2026-04-19T09:57:06.006Z</time></trkpt><trkpt lat="44.3526249" lon="10.2839862"><ele>728.0</ele><time>2026-04-19T09:57:07.006Z</time></trkpt><trkpt lat="44.3526435" lon="10.2837787"><ele>724.75</ele><time>2026-04-19T09:57:08.005Z</time></trkpt><trkpt lat="44.3526658" lon="10.2835918"><ele>721.5</ele><time>2026-04-19T09:57:09.006Z</time></trkpt><trkpt lat="44.3526969" lon="10.2834344"><ele>718.25</ele><time>2026-04-19T09:57:10.005Z</time></trkpt><trkpt lat="44.3527484" lon="10.2833069"><ele>715.0</ele><time>2026-04-19T09:57:11.006Z</time></trkpt><trkpt lat="44.3528166" lon="10.2831945"><ele>713.2</ele><time>2026-04-19T09:57:12.004Z</time></trkpt><trkpt lat="44.3528926" lon="10.2830932"><ele>711.4</ele><time>2026-04-19T09:57:13.005Z</time></trkpt><trkpt lat="44.3529597" lon="10.2829858"><ele>709.5999999999999</ele><time>2026-04-19T09:57:14.006Z</time></trkpt><trkpt lat="44.3530051" lon="10.2828475"><ele>707.8</ele><time>2026-04-19T09:57:15.006Z</time></trkpt><trkpt lat="44.3530257" lon="10.2826804"><ele>706.0</ele><time>2026-04-19T09:57:16.005Z</time></trkpt><trkpt lat="44.353016" lon="10.2825129"><ele>706.0</ele><time>2026-04-19T09:57:17.004Z</time></trkpt><trkpt lat="44.352982" lon="10.2823691"><ele>706.0</ele><time>2026-04-19T09:57:18.005Z</time></trkpt><trkpt lat="44.3529169" lon="10.2822535"><ele>706.0</ele><time>2026-04-19T09:57:19.006Z</time></trkpt><trkpt lat="44.3528172" lon="10.2821556"><ele>706.0</ele><time>2026-04-19T09:57:20.006Z</time></trkpt><trkpt lat="44.3526853" lon="10.2820791"><ele>710.6666666666667</ele><time>2026-04-19T09:57:21.005Z</time></trkpt><trkpt lat="44.3525426" lon="10.2820265"><ele>715.3333333333334</ele><time>2026-04-19T09:57:22.006Z</time></trkpt><trkpt lat="44.3523874" lon="10.2819686"><ele>720.0</ele><time>2026-04-19T09:57:23.005Z</time></trkpt><trkpt lat="44.3522398" lon="10.2819045"><ele>725.0</ele><time>2026-04-19T09:57:24.006Z</time></trkpt><trkpt lat="44.3520908" lon="10.2818398"><ele>730.0</ele><time>2026-04-19T09:57:25.006Z</time></trkpt><trkpt lat="44.3519313" lon="10.2817934"><ele>735.0</ele><time>2026-04-19T09:57:26.005Z</time></trkpt><trkpt lat="44.3517665" lon="10.2817736"><ele>735.0</ele><time>2026-04-19T09:57:27.005Z</time></trkpt><trkpt lat="44.3515977" lon="10.2817823"><ele>735.0</ele><time>2026-04-19T09:57:28.006Z</time></trkpt><trkpt lat="44.3514419" lon="10.2818173"><ele>735.0</ele><time>2026-04-19T09:57:29.006Z</time></trkpt><trkpt lat="44.3512958" lon="10.281878"><ele>735.5</ele><time>2026-04-19T09:57:30.005Z</time></trkpt><trkpt lat="44.3511503" lon="10.2819302"><ele>736.0</ele><time>2026-04-19T09:57:31.005Z</time></trkpt><trkpt lat="44.351017" lon="10.2819483"><ele>736.5</ele><time>2026-04-19T09:57:32.004Z</time></trkpt><trkpt lat="44.3508857" lon="10.281938"><ele>737.0</ele><time>2026-04-19T09:57:33.004Z</time></trkpt><trkpt lat="44.3507455" lon="10.2818988"><ele>737.0</ele><time>2026-04-19T09:57:34.005Z</time></trkpt><trkpt lat="44.3506047" lon="10.2818386"><ele>737.0</ele><time>2026-04-19T09:57:35.005Z</time></trkpt><trkpt lat="44.350472" lon="10.2817778"><ele>737.0</ele><time>2026-04-19T09:57:36.005Z</time></trkpt><trkpt lat="44.3503474" lon="10.2817224"><ele>737.0</ele><time>2026-04-19T09:57:37.006Z</time></trkpt><trkpt lat="44.3502293" lon="10.2816779"><ele>736.5</ele><time>2026-04-19T09:57:38.006Z</time></trkpt><trkpt lat="44.35011" lon="10.2816607"><ele>736.0</ele><time>2026-04-19T09:57:39.005Z</time></trkpt><trkpt lat="44.349986" lon="10.2816751"><ele>735.5</ele><time>2026-04-19T09:57:40.006Z</time></trkpt><trkpt lat="44.3498613" lon="10.2817051"><ele>735.0</ele><time>2026-04-19T09:57:41.005Z</time></trkpt><trkpt lat="44.3497358" lon="10.2817282"><ele>736.75</ele><time>2026-04-19T09:57:42.005Z</time></trkpt><trkpt lat="44.3495913" lon="10.2817281"><ele>738.5</ele><time>2026-04-19T09:57:43.005Z</time></trkpt><trkpt lat="44.349438" lon="10.2817056"><ele>740.25</ele><time>2026-04-19T09:57:44.005Z</time></trkpt><trkpt lat="44.3492972" lon="10.2816786"><ele>742.0</ele><time>2026-04-19T09:57:45.005Z</time></trkpt><trkpt lat="44.3491484" lon="10.281644"><ele>742.0</ele><time>2026-04-19T09:57:46.005Z</time></trkpt><trkpt lat="44.3490008" lon="10.2816063"><ele>742.0</ele><time>2026-04-19T09:57:47.005Z</time></trkpt><trkpt lat="44.3488467" lon="10.2815657"><ele>742.0</ele><time>2026-04-19T09:57:48.005Z</time></trkpt><trkpt lat="44.3486894" lon="10.2815227"><ele>745.0</ele><time>2026-04-19T09:57:49.005Z</time></trkpt><trkpt lat="44.348536" lon="10.2814762"><ele>748.0</ele><time>2026-04-19T09:57:50.006Z</time></trkpt><trkpt lat="44.3483859" lon="10.2814249"><ele>751.0</ele><time>2026-04-19T09:57:51.005Z</time></trkpt><trkpt lat="44.3482386" lon="10.2813644"><ele>754.3333333333334</ele><time>2026-04-19T09:57:52.005Z</time></trkpt><trkpt lat="44.348095" lon="10.2812917"><ele>757.6666666666666</ele><time>2026-04-19T09:57:53.006Z</time></trkpt><trkpt lat="44.3479556" lon="10.2812175"><ele>761.0</ele><time>2026-04-19T09:57:54.005Z</time></trkpt><trkpt lat="44.3478104" lon="10.281137"><ele>761.0</ele><time>2026-04-19T09:57:55.005Z</time></trkpt><trkpt lat="44.3476678" lon="10.2810581"><ele>761.0</ele><time>2026-04-19T09:57:56.006Z</time></trkpt><trkpt lat="44.347152" lon="10.2804188"><ele>763.0</ele><time>2026-04-19T09:58:00.006Z</time></trkpt><trkpt lat="44.3470181" lon="10.2802162"><ele>765.0</ele><time>2026-04-19T09:58:01.005Z</time></trkpt><trkpt lat="44.3468753" lon="10.2799875"><ele>767.0</ele><time>2026-04-19T09:58:02.005Z</time></trkpt><trkpt lat="44.3467323" lon="10.2797531"><ele>767.0</ele><time>2026-04-19T09:58:03.004Z</time></trkpt><trkpt lat="44.3465848" lon="10.2794938"><ele>767.0</ele><time>2026-04-19T09:58:04.004Z</time></trkpt><trkpt lat="44.3464416" lon="10.2792376"><ele>768.5</ele><time>2026-04-19T09:58:05.005Z</time></trkpt><trkpt lat="44.346293" lon="10.2789788"><ele>770.0</ele><time>2026-04-19T09:58:06.005Z</time></trkpt><trkpt lat="44.346147" lon="10.2787141"><ele>770.0</ele><time>2026-04-19T09:58:07.006Z</time></trkpt><trkpt lat="44.3460033" lon="10.2784504"><ele>770.0</ele><time>2026-04-19T09:58:08.005Z</time></trkpt><trkpt lat="44.3458573" lon="10.278184"><ele>772.0</ele><time>2026-04-19T09:58:09.006Z</time></trkpt><trkpt lat="44.3457107" lon="10.2779159"><ele>774.0</ele><time>2026-04-19T09:58:10.005Z</time></trkpt><trkpt lat="44.3452531" lon="10.2770736"><ele>774.0</ele><time>2026-04-19T09:58:13.006Z</time></trkpt><trkpt lat="44.3451033" lon="10.2768056"><ele>774.0</ele><time>2026-04-19T09:58:14.005Z</time></trkpt><trkpt lat="44.344954" lon="10.2765369"><ele>770.0</ele><time>2026-04-19T09:58:15.006Z</time></trkpt><trkpt lat="44.3448004" lon="10.2762588"><ele>766.0</ele><time>2026-04-19T09:58:16.006Z</time></trkpt><trkpt lat="44.3446434" lon="10.2759804"><ele>766.0</ele><time>2026-04-19T09:58:17.005Z</time></trkpt><trkpt lat="44.3444836" lon="10.275694"><ele>766.0</ele><time>2026-04-19T09:58:18.006Z</time></trkpt><trkpt lat="44.3443178" lon="10.2754016"><ele>770.0</ele><time>2026-04-19T09:58:19.005Z</time></trkpt><trkpt lat="44.3441561" lon="10.2751152"><ele>774.0</ele><time>2026-04-19T09:58:20.005Z</time></trkpt><trkpt lat="44.343999" lon="10.2748377"><ele>777.0</ele><time>2026-04-19T09:58:21.005Z</time></trkpt><trkpt lat="44.3438445" lon="10.2745653"><ele>780.0</ele><time>2026-04-19T09:58:22.006Z</time></trkpt><trkpt lat="44.3436906" lon="10.2742992"><ele>780.0</ele><time>2026-04-19T09:58:23.004Z</time></trkpt><trkpt lat="44.3435374" lon="10.2740341"><ele>780.0</ele><time>2026-04-19T09:58:24.005Z</time></trkpt><trkpt lat="44.3433876" lon="10.273772"><ele>786.5</ele><time>2026-04-19T09:58:25.005Z</time></trkpt><trkpt lat="44.3432453" lon="10.2735139"><ele>793.0</ele><time>2026-04-19T09:58:26.006Z</time></trkpt><trkpt lat="44.3431063" lon="10.2732484"><ele>791.0</ele><time>2026-04-19T09:58:27.006Z</time></trkpt><trkpt lat="44.3429784" lon="10.2729709"><ele>789.0</ele><time>2026-04-19T09:58:28.006Z</time></trkpt><trkpt lat="44.3428619" lon="10.2726802"><ele>789.0</ele><time>2026-04-19T09:58:29.005Z</time></trkpt><trkpt lat="44.3427559" lon="10.2723826"><ele>789.0</ele><time>2026-04-19T09:58:30.005Z</time></trkpt><trkpt lat="44.3426639" lon="10.2720704"><ele>794.0</ele><time>2026-04-19T09:58:31.006Z</time></trkpt><trkpt lat="44.3425858" lon="10.271752"><ele>799.0</ele><time>2026-04-19T09:58:32.005Z</time></trkpt><trkpt lat="44.3425248" lon="10.2714276"><ele>801.5</ele><time>2026-04-19T09:58:33.004Z</time></trkpt><trkpt lat="44.3424826" lon="10.2710969"><ele>804.0</ele><time>2026-04-19T09:58:34.005Z</time></trkpt><trkpt lat="44.3424497" lon="10.2707643"><ele>807.0</ele><time>2026-04-19T09:58:35.005Z</time></trkpt><trkpt lat="44.3424256" lon="10.2704222"><ele>810.0</ele><time>2026-04-19T09:58:36.006Z</time></trkpt><trkpt lat="44.3424056" lon="10.2700745"><ele>810.5</ele><time>2026-04-19T09:58:37.005Z</time></trkpt><trkpt lat="44.3423841" lon="10.2697439"><ele>811.0</ele><time>2026-04-19T09:58:38.005Z</time></trkpt><trkpt lat="44.3423624" lon="10.2694264"><ele>811.0</ele><time>2026-04-19T09:58:39.005Z</time></trkpt><trkpt lat="44.3423423" lon="10.269118"><ele>811.0</ele><time>2026-04-19T09:58:40.006Z</time></trkpt><trkpt lat="44.3423195" lon="10.2688123"><ele>811.0</ele><time>2026-04-19T09:58:41.005Z</time></trkpt><trkpt lat="44.3422853" lon="10.2685134"><ele>810.6666666666666</ele><time>2026-04-19T09:58:42.006Z</time></trkpt><trkpt lat="44.3422349" lon="10.2682254"><ele>810.3333333333333</ele><time>2026-04-19T09:58:43.006Z</time></trkpt><trkpt lat="44.3421693" lon="10.2679388"><ele>810.0</ele><time>2026-04-19T09:58:44.005Z</time></trkpt><trkpt lat="44.3420866" lon="10.2676601"><ele>809.0</ele><time>2026-04-19T09:58:45.006Z</time></trkpt><trkpt lat="44.341985" lon="10.2673903"><ele>808.0</ele><time>2026-04-19T09:58:46.006Z</time></trkpt><trkpt lat="44.3418656" lon="10.2671355"><ele>807.0</ele><time>2026-04-19T09:58:47.005Z</time></trkpt><trkpt lat="44.3417362" lon="10.2669012"><ele>807.0</ele><time>2026-04-19T09:58:48.006Z</time></trkpt><trkpt lat="44.341598" lon="10.2666846"><ele>807.0</ele><time>2026-04-19T09:58:49.005Z</time></trkpt><trkpt lat="44.3414511" lon="10.2664939"><ele>807.0</ele><time>2026-04-19T09:58:50.006Z</time></trkpt><trkpt lat="44.3412882" lon="10.2663196"><ele>806.3333333333333</ele><time>2026-04-19T09:58:51.006Z</time></trkpt><trkpt lat="44.3411169" lon="10.26616"><ele>805.6666666666666</ele><time>2026-04-19T09:58:52.005Z</time></trkpt><trkpt lat="44.3409266" lon="10.2660241"><ele>805.0</ele><time>2026-04-19T09:58:53.005Z</time></trkpt><trkpt lat="44.3407429" lon="10.2659125"><ele>805.0</ele><time>2026-04-19T09:58:54.005Z</time></trkpt><trkpt lat="44.3405655" lon="10.2658183"><ele>805.0</ele><time>2026-04-19T09:58:55.005Z</time></trkpt><trkpt lat="44.3404049" lon="10.2657348"><ele>805.0</ele><time>2026-04-19T09:58:56.006Z</time></trkpt><trkpt lat="44.3402611" lon="10.2656519"><ele>808.5</ele><time>2026-04-19T09:58:57.006Z</time></trkpt><trkpt lat="44.340136" lon="10.2655764"><ele>812.0</ele><time>2026-04-19T09:58:58.006Z</time></trkpt><trkpt lat="44.3400295" lon="10.2654999"><ele>815.5</ele><time>2026-04-19T09:58:59.006Z</time></trkpt><trkpt lat="44.3399308" lon="10.2654205"><ele>819.0</ele><time>2026-04-19T09:59:00.006Z</time></trkpt><trkpt lat="44.3398468" lon="10.2653328"><ele>819.0</ele><time>2026-04-19T09:59:01.006Z</time></trkpt><trkpt lat="44.3397575" lon="10.2652347"><ele>819.0</ele><time>2026-04-19T09:59:02.006Z</time></trkpt><trkpt lat="44.3396709" lon="10.2651398"><ele>819.0</ele><time>2026-04-19T09:59:03.005Z</time></trkpt><trkpt lat="44.3395966" lon="10.2650454"><ele>819.0</ele><time>2026-04-19T09:59:04.006Z</time></trkpt><trkpt lat="44.3395399" lon="10.2649296"><ele>819.0</ele><time>2026-04-19T09:59:05.005Z</time></trkpt><trkpt lat="44.3395066" lon="10.2647829"><ele>813.25</ele><time>2026-04-19T09:59:06.006Z</time></trkpt><trkpt lat="44.3395085" lon="10.2646033"><ele>807.5</ele><time>2026-04-19T09:59:07.006Z</time></trkpt><trkpt lat="44.3395364" lon="10.2643945"><ele>801.75</ele><time>2026-04-19T09:59:08.005Z</time></trkpt><trkpt lat="44.3395531" lon="10.2641706"><ele>796.0</ele><time>2026-04-19T09:59:09.005Z</time></trkpt><trkpt lat="44.3395434" lon="10.2639383"><ele>796.0</ele><time>2026-04-19T09:59:10.005Z</time></trkpt><trkpt lat="44.3395153" lon="10.263714"><ele>796.0</ele><time>2026-04-19T09:59:11.006Z</time></trkpt><trkpt lat="44.3394884" lon="10.2635077"><ele>796.0</ele><time>2026-04-19T09:59:12.006Z</time></trkpt><trkpt lat="44.3394828" lon="10.2633263"><ele>796.0</ele><time>2026-04-19T09:59:13.005Z</time></trkpt><trkpt lat="44.3395152" lon="10.2631572"><ele>795.0</ele><time>2026-04-19T09:59:14.006Z</time></trkpt><trkpt lat="44.3395891" lon="10.2629982"><ele>794.0</ele><time>2026-04-19T09:59:15.005Z</time></trkpt><trkpt lat="44.3396738" lon="10.2628595"><ele>793.0</ele><time>2026-04-19T09:59:16.005Z</time></trkpt><trkpt lat="44.3397272" lon="10.262725"><ele>792.0</ele><time>2026-04-19T09:59:17.005Z</time></trkpt><trkpt lat="44.3397468" lon="10.2625764"><ele>793.25</ele><time>2026-04-19T09:59:18.006Z</time></trkpt><trkpt lat="44.3397208" lon="10.2624192"><ele>794.5</ele><time>2026-04-19T09:59:19.005Z</time></trkpt><trkpt lat="44.3396508" lon="10.2622541"><ele>795.75</ele><time>2026-04-19T09:59:20.006Z</time></trkpt><trkpt lat="44.3395495" lon="10.2621033"><ele>797.0</ele><time>2026-04-19T09:59:21.005Z</time></trkpt><trkpt lat="44.3394241" lon="10.2619817"><ele>797.0</ele><time>2026-04-19T09:59:22.006Z</time></trkpt><trkpt lat="44.3392956" lon="10.2618826"><ele>797.0</ele><time>2026-04-19T09:59:23.004Z</time></trkpt><trkpt lat="44.3391923" lon="10.2617526"><ele>797.0</ele><time>2026-04-19T09:59:24.004Z</time></trkpt><trkpt lat="44.3390991" lon="10.2615862"><ele>797.0</ele><time>2026-04-19T09:59:25.005Z</time></trkpt><trkpt lat="44.3390291" lon="10.2614219"><ele>798.0</ele><time>2026-04-19T09:59:26.006Z</time></trkpt><trkpt lat="44.3389875" lon="10.2612254"><ele>799.0</ele><time>2026-04-19T09:59:27.006Z</time></trkpt><trkpt lat="44.3389855" lon="10.2609862"><ele>800.0</ele><time>2026-04-19T09:59:28.005Z</time></trkpt><trkpt lat="44.3390045" lon="10.2607356"><ele>798.75</ele><time>2026-04-19T09:59:29.006Z</time></trkpt><trkpt lat="44.3390432" lon="10.2605112"><ele>797.5</ele><time>2026-04-19T09:59:30.006Z</time></trkpt><trkpt lat="44.3390842" lon="10.2603149"><ele>796.25</ele><time>2026-04-19T09:59:31.005Z</time></trkpt><trkpt lat="44.3391084" lon="10.2601256"><ele>795.0</ele><time>2026-04-19T09:59:32.005Z</time></trkpt><trkpt lat="44.3390876" lon="10.2599163"><ele>798.6666666666667</ele><time>2026-04-19T09:59:33.006Z</time></trkpt><trkpt lat="44.3390361" lon="10.2597013"><ele>802.3333333333334</ele><time>2026-04-19T09:59:34.005Z</time></trkpt><trkpt lat="44.3389724" lon="10.2595149"><ele>806.0</ele><time>2026-04-19T09:59:35.006Z</time></trkpt><trkpt lat="44.3388866" lon="10.2593549"><ele>798.3333333333334</ele><time>2026-04-19T09:59:36.006Z</time></trkpt><trkpt lat="44.3387632" lon="10.2592134"><ele>790.6666666666667</ele><time>2026-04-19T09:59:37.005Z</time></trkpt><trkpt lat="44.3386193" lon="10.259105"><ele>783.0</ele><time>2026-04-19T09:59:38.006Z</time></trkpt><trkpt lat="44.3384544" lon="10.2590133"><ele>782.3333333333333</ele><time>2026-04-19T09:59:39.005Z</time></trkpt><trkpt lat="44.3382998" lon="10.2589292"><ele>781.6666666666666</ele><time>2026-04-19T09:59:40.006Z</time></trkpt><trkpt lat="44.338166" lon="10.2588265"><ele>781.0</ele><time>2026-04-19T09:59:41.005Z</time></trkpt><trkpt lat="44.3380475" lon="10.2587005"><ele>781.0</ele><time>2026-04-19T09:59:42.006Z</time></trkpt><trkpt lat="44.3379583" lon="10.2585479"><ele>781.0</ele><time>2026-04-19T09:59:43.006Z</time></trkpt><trkpt lat="44.337885" lon="10.2583596"><ele>781.0</ele><time>2026-04-19T09:59:44.006Z</time></trkpt><trkpt lat="44.3378315" lon="10.2581349"><ele>782.6666666666666</ele><time>2026-04-19T09:59:45.006Z</time></trkpt><trkpt lat="44.3377846" lon="10.2578774"><ele>784.3333333333333</ele><time>2026-04-19T09:59:46.005Z</time></trkpt><trkpt lat="44.3377361" lon="10.2575916"><ele>786.0</ele><time>2026-04-19T09:59:47.005Z</time></trkpt><trkpt lat="44.3376875" lon="10.2573109"><ele>789.0</ele><time>2026-04-19T09:59:48.005Z</time></trkpt><trkpt lat="44.3376465" lon="10.2570526"><ele>792.0</ele><time>2026-04-19T09:59:49.005Z</time></trkpt><trkpt lat="44.3376078" lon="10.2568114"><ele>795.0</ele><time>2026-04-19T09:59:50.006Z</time></trkpt><trkpt lat="44.3375662" lon="10.2566052"><ele>796.5</ele><time>2026-04-19T09:59:51.005Z</time></trkpt><trkpt lat="44.3375161" lon="10.2564237"><ele>798.0</ele><time>2026-04-19T09:59:52.005Z</time></trkpt><trkpt lat="44.3374419" lon="10.2562553"><ele>799.5</ele><time>2026-04-19T09:59:53.005Z</time></trkpt><trkpt lat="44.3373438" lon="10.2561046"><ele>801.0</ele><time>2026-04-19T09:59:54.005Z</time></trkpt><trkpt lat="44.337238" lon="10.2559942"><ele>793.4</ele><time>2026-04-19T09:59:55.005Z</time></trkpt><trkpt lat="44.337153" lon="10.2559065"><ele>785.8</ele><time>2026-04-19T09:59:56.006Z</time></trkpt><trkpt lat="44.3370947" lon="10.2558153"><ele>778.1999999999999</ele><time>2026-04-19T09:59:57.005Z</time></trkpt><trkpt lat="44.3370678" lon="10.2557105"><ele>770.5999999999999</ele><time>2026-04-19T09:59:58.004Z</time></trkpt><trkpt lat="44.3370852" lon="10.2556027"><ele>763.0</ele><time>2026-04-19T09:59:59.005Z</time></trkpt><trkpt lat="44.3371408" lon="10.2554878"><ele>771.0</ele><time>2026-04-19T10:00:00.005Z</time></trkpt><trkpt lat="44.3372316" lon="10.2553549"><ele>779.0</ele><time>2026-04-19T10:00:01.005Z</time></trkpt><trkpt lat="44.3373329" lon="10.2551792"><ele>787.0</ele><time>2026-04-19T10:00:02.006Z</time></trkpt><trkpt lat="44.3374122" lon="10.2549757"><ele>782.6666666666666</ele><time>2026-04-19T10:00:03.006Z</time></trkpt><trkpt lat="44.337471" lon="10.2547448"><ele>778.3333333333333</ele><time>2026-04-19T10:00:04.006Z</time></trkpt><trkpt lat="44.3375095" lon="10.2545073"><ele>774.0</ele><time>2026-04-19T10:00:05.006Z</time></trkpt><trkpt lat="44.3375251" lon="10.2542905"><ele>774.0</ele><time>2026-04-19T10:00:06.005Z</time></trkpt><trkpt lat="44.3375043" lon="10.2540947"><ele>774.0</ele><time>2026-04-19T10:00:07.006Z</time></trkpt><trkpt lat="44.3374474" lon="10.2538937"><ele>774.0</ele><time>2026-04-19T10:00:08.006Z</time></trkpt><trkpt lat="44.3373553" lon="10.2536917"><ele>775.3333333333333</ele><time>2026-04-19T10:00:09.005Z</time></trkpt><trkpt lat="44.337235" lon="10.2534981"><ele>776.6666666666666</ele><time>2026-04-19T10:00:10.005Z</time></trkpt><trkpt lat="44.3370982" lon="10.2532903"><ele>778.0</ele><time>2026-04-19T10:00:11.006Z</time></trkpt><trkpt lat="44.3369676" lon="10.2530864"><ele>782.25</ele><time>2026-04-19T10:00:12.005Z</time></trkpt><trkpt lat="44.3368515" lon="10.2529042"><ele>786.5</ele><time>2026-04-19T10:00:13.005Z</time></trkpt><trkpt lat="44.3367533" lon="10.2527534"><ele>790.75</ele><time>2026-04-19T10:00:14.005Z</time></trkpt><trkpt lat="44.3366718" lon="10.2526308"><ele>795.0</ele><time>2026-04-19T10:00:15.006Z</time></trkpt><trkpt lat="44.3366044" lon="10.2525261"><ele>795.0</ele><time>2026-04-19T10:00:16.006Z</time></trkpt><trkpt lat="44.3365408" lon="10.2524535"><ele>795.0</ele><time>2026-04-19T10:00:17.005Z</time></trkpt><trkpt lat="44.3364715" lon="10.2524296"><ele>795.0</ele><time>2026-04-19T10:00:18.006Z</time></trkpt><trkpt lat="44.3364047" lon="10.2524567"><ele>795.0</ele><time>2026-04-19T10:00:19.005Z</time></trkpt><trkpt lat="44.3363339" lon="10.2525155"><ele>795.0</ele><time>2026-04-19T10:00:20.006Z</time></trkpt><trkpt lat="44.3362586" lon="10.2526592"><ele>795.0</ele><time>2026-04-19T10:00:21.006Z</time></trkpt><trkpt lat="44.3361739" lon="10.2528165"><ele>797.2</ele><time>2026-04-19T10:00:22.006Z</time></trkpt><trkpt lat="44.3361123" lon="10.2529963"><ele>799.4</ele><time>2026-04-19T10:00:23.005Z</time></trkpt><trkpt lat="44.3360801" lon="10.2531455"><ele>801.5999999999999</ele><time>2026-04-19T10:00:24.006Z</time></trkpt><trkpt lat="44.3360493" lon="10.2532511"><ele>803.8</ele><time>2026-04-19T10:00:25.005Z</time></trkpt><trkpt lat="44.3360149" lon="10.2533339"><ele>806.0</ele><time>2026-04-19T10:00:26.006Z</time></trkpt><trkpt lat="44.3359298" lon="10.2533483"><ele>806.0</ele><time>2026-04-19T10:00:28.006Z</time></trkpt><trkpt lat="44.3359064" lon="10.2532206"><ele>806.0</ele><time>2026-04-19T10:00:30.006Z</time></trkpt><trkpt lat="44.3359363" lon="10.2531134"><ele>806.0</ele><time>2026-04-19T10:00:31.006Z</time></trkpt><trkpt lat="44.3359793" lon="10.2529792"><ele>806.0</ele><time>2026-04-19T10:00:32.005Z</time></trkpt><trkpt lat="44.3360374" lon="10.2528198"><ele>806.0</ele><time>2026-04-19T10:00:33.005Z</time></trkpt><trkpt lat="44.3361121" lon="10.2526212"><ele>806.3333333333334</ele><time>2026-04-19T10:00:34.005Z</time></trkpt><trkpt lat="44.3361968" lon="10.2524136"><ele>806.6666666666667</ele><time>2026-04-19T10:00:35.006Z</time></trkpt><trkpt lat="44.3362993" lon="10.2521659"><ele>807.0</ele><time>2026-04-19T10:00:36.005Z</time></trkpt><trkpt lat="44.3364037" lon="10.2519155"><ele>807.0</ele><time>2026-04-19T10:00:37.005Z</time></trkpt><trkpt lat="44.3364931" lon="10.2517013"><ele>807.0</ele><time>2026-04-19T10:00:38.005Z</time></trkpt><trkpt lat="44.3365638" lon="10.2515202"><ele>807.0</ele><time>2026-04-19T10:00:39.005Z</time></trkpt><trkpt lat="44.3366215" lon="10.2513638"><ele>809.8</ele><time>2026-04-19T10:00:40.005Z</time></trkpt><trkpt lat="44.3366546" lon="10.2512387"><ele>812.6</ele><time>2026-04-19T10:00:41.006Z</time></trkpt><trkpt lat="44.3366618" lon="10.2511389"><ele>815.4</ele><time>2026-04-19T10:00:42.005Z</time></trkpt><trkpt lat="44.33661" lon="10.2510277"><ele>818.1999999999999</ele><time>2026-04-19T10:00:44.006Z</time></trkpt><trkpt lat="44.3365034" lon="10.2511108"><ele>821.0</ele><time>2026-04-19T10:00:46.005Z</time></trkpt><trkpt lat="44.3364448" lon="10.2512253"><ele>827.6666666666667</ele><time>2026-04-19T10:00:47.006Z</time></trkpt><trkpt lat="44.3363833" lon="10.2513746"><ele>834.3333333333333</ele><time>2026-04-19T10:00:48.006Z</time></trkpt><trkpt lat="44.3362905" lon="10.2515582"><ele>841.0</ele><time>2026-04-19T10:00:49.006Z</time></trkpt><trkpt lat="44.3361845" lon="10.2517427"><ele>841.0</ele><time>2026-04-19T10:00:50.006Z</time></trkpt><trkpt lat="44.3360553" lon="10.2519541"><ele>841.0</ele><time>2026-04-19T10:00:51.006Z</time></trkpt><trkpt lat="44.335909" lon="10.2521811"><ele>841.0</ele><time>2026-04-19T10:00:52.006Z</time></trkpt><trkpt lat="44.3357569" lon="10.2524159"><ele>831.0</ele><time>2026-04-19T10:00:53.004Z</time></trkpt><trkpt lat="44.3355908" lon="10.2526729"><ele>821.0</ele><time>2026-04-19T10:00:54.006Z</time></trkpt><trkpt lat="44.3354173" lon="10.2529257"><ele>832.5</ele><time>2026-04-19T10:00:55.006Z</time></trkpt><trkpt lat="44.3352277" lon="10.2531787"><ele>844.0</ele><time>2026-04-19T10:00:56.005Z</time></trkpt><trkpt lat="44.3350521" lon="10.2534089"><ele>844.0</ele><time>2026-04-19T10:00:57.006Z</time></trkpt><trkpt lat="44.3348873" lon="10.2536208"><ele>844.0</ele><time>2026-04-19T10:00:58.006Z</time></trkpt><trkpt lat="44.3347368" lon="10.2538152"><ele>844.0</ele><time>2026-04-19T10:00:59.006Z</time></trkpt><trkpt lat="44.3346083" lon="10.2539981"><ele>849.0</ele><time>2026-04-19T10:01:00.006Z</time></trkpt><trkpt lat="44.334511" lon="10.254165"><ele>854.0</ele><time>2026-04-19T10:01:01.006Z</time></trkpt><trkpt lat="44.3344393" lon="10.2543302"><ele>859.0</ele><time>2026-04-19T10:01:02.005Z</time></trkpt><trkpt lat="44.3343911" lon="10.2545042"><ele>864.0</ele><time>2026-04-19T10:01:03.006Z</time></trkpt><trkpt lat="44.3343636" lon="10.2546693"><ele>860.4000000000001</ele><time>2026-04-19T10:01:04.005Z</time></trkpt><trkpt lat="44.3343439" lon="10.2548209"><ele>856.8000000000001</ele><time>2026-04-19T10:01:05.005Z</time></trkpt><trkpt lat="44.3343296" lon="10.2549395"><ele>853.2</ele><time>2026-04-19T10:01:06.005Z</time></trkpt><trkpt lat="44.3342892" lon="10.255074"><ele>849.5999999999999</ele><time>2026-04-19T10:01:08.005Z</time></trkpt><trkpt lat="44.3342188" lon="10.2550694"><ele>846.0</ele><time>2026-04-19T10:01:10.005Z</time></trkpt><trkpt lat="44.3342077" lon="10.2549333"><ele>846.0</ele><time>2026-04-19T10:01:12.004Z</time></trkpt><trkpt lat="44.3342178" lon="10.2547884"><ele>846.0</ele><time>2026-04-19T10:01:13.006Z</time></trkpt><trkpt lat="44.3342338" lon="10.2546315"><ele>846.0</ele><time>2026-04-19T10:01:14.006Z</time></trkpt><trkpt lat="44.3342667" lon="10.2544671"><ele>846.0</ele><time>2026-04-19T10:01:15.006Z</time></trkpt><trkpt lat="44.3343052" lon="10.2543468"><ele>846.0</ele><time>2026-04-19T10:01:16.005Z</time></trkpt><trkpt lat="44.3343286" lon="10.2542453"><ele>849.5999999999999</ele><time>2026-04-19T10:01:17.006Z</time></trkpt><trkpt lat="44.3343311" lon="10.2541552"><ele>853.2</ele><time>2026-04-19T10:01:18.006Z</time></trkpt><trkpt lat="44.3342522" lon="10.2540874"><ele>856.8000000000001</ele><time>2026-04-19T10:01:20.006Z</time></trkpt><trkpt lat="44.3341588" lon="10.2542145"><ele>860.4000000000001</ele><time>2026-04-19T10:01:22.005Z</time></trkpt><trkpt lat="44.3341105" lon="10.2543401"><ele>864.0</ele><time>2026-04-19T10:01:23.006Z</time></trkpt><trkpt lat="44.3340527" lon="10.2545082"><ele>864.0</ele><time>2026-04-19T10:01:24.006Z</time></trkpt><trkpt lat="44.3339873" lon="10.2546981"><ele>864.0</ele><time>2026-04-19T10:01:25.006Z</time></trkpt><trkpt lat="44.3339122" lon="10.2548867"><ele>864.0</ele><time>2026-04-19T10:01:26.005Z</time></trkpt><trkpt lat="44.3338317" lon="10.2550695"><ele>870.0</ele><time>2026-04-19T10:01:27.004Z</time></trkpt><trkpt lat="44.3337429" lon="10.2552054"><ele>876.0</ele><time>2026-04-19T10:01:28.006Z</time></trkpt><trkpt lat="44.3336299" lon="10.2553111"><ele>882.0</ele><time>2026-04-19T10:01:29.006Z</time></trkpt><trkpt lat="44.3335186" lon="10.2554252"><ele>888.0</ele><time>2026-04-19T10:01:30.005Z</time></trkpt><trkpt lat="44.3334402" lon="10.2555735"><ele>891.75</ele><time>2026-04-19T10:01:31.006Z</time></trkpt><trkpt lat="44.3333674" lon="10.2557402"><ele>895.5</ele><time>2026-04-19T10:01:32.005Z</time></trkpt><trkpt lat="44.3332783" lon="10.2558776"><ele>899.25</ele><time>2026-04-19T10:01:33.005Z</time></trkpt><trkpt lat="44.3331602" lon="10.2560094"><ele>903.0</ele><time>2026-04-19T10:01:34.005Z</time></trkpt><trkpt lat="44.3330211" lon="10.2561521"><ele>903.0</ele><time>2026-04-19T10:01:35.006Z</time></trkpt><trkpt lat="44.3328839" lon="10.2563027"><ele>903.0</ele><time>2026-04-19T10:01:36.005Z</time></trkpt><trkpt lat="44.3327681" lon="10.256445"><ele>903.0</ele><time>2026-04-19T10:01:37.005Z</time></trkpt><trkpt lat="44.3326629" lon="10.2565837"><ele>897.75</ele><time>2026-04-19T10:01:38.005Z</time></trkpt><trkpt lat="44.3325678" lon="10.2567103"><ele>892.5</ele><time>2026-04-19T10:01:39.004Z</time></trkpt><trkpt lat="44.3324814" lon="10.2568195"><ele>887.25</ele><time>2026-04-19T10:01:40.005Z</time></trkpt><trkpt lat="44.3323953" lon="10.2569054"><ele>882.0</ele><time>2026-04-19T10:01:41.006Z</time></trkpt><trkpt lat="44.3323064" lon="10.2569713"><ele>885.0</ele><time>2026-04-19T10:01:42.006Z</time></trkpt><trkpt lat="44.3322081" lon="10.257011"><ele>888.0</ele><time>2026-04-19T10:01:43.004Z</time></trkpt><trkpt lat="44.3321055" lon="10.2570344"><ele>891.0</ele><time>2026-04-19T10:01:44.005Z</time></trkpt><trkpt lat="44.3319986" lon="10.2570499"><ele>894.0</ele><time>2026-04-19T10:01:45.005Z</time></trkpt><trkpt lat="44.3318931" lon="10.2570615"><ele>897.0</ele><time>2026-04-19T10:01:46.005Z</time></trkpt><trkpt lat="44.3318031" lon="10.2570516"><ele>897.0</ele><time>2026-04-19T10:01:47.004Z</time></trkpt><trkpt lat="44.3317214" lon="10.2570148"><ele>897.0</ele><time>2026-04-19T10:01:48.006Z</time></trkpt><trkpt lat="44.3316466" lon="10.2569503"><ele>897.0</ele><time>2026-04-19T10:01:49.006Z</time></trkpt><trkpt lat="44.3315767" lon="10.2568652"><ele>897.0</ele><time>2026-04-19T10:01:50.004Z</time></trkpt><trkpt lat="44.3315025" lon="10.2567661"><ele>897.0</ele><time>2026-04-19T10:01:51.005Z</time></trkpt><trkpt lat="44.331427" lon="10.2566643"><ele>901.0</ele><time>2026-04-19T10:01:52.004Z</time></trkpt><trkpt lat="44.331346" lon="10.2565734"><ele>905.0</ele><time>2026-04-19T10:01:53.006Z</time></trkpt><trkpt lat="44.3312528" lon="10.2565064"><ele>909.0</ele><time>2026-04-19T10:01:54.006Z</time></trkpt><trkpt lat="44.3311557" lon="10.2564568"><ele>913.0</ele><time>2026-04-19T10:01:55.006Z</time></trkpt><trkpt lat="44.3310627" lon="10.2564075"><ele>917.0</ele><time>2026-04-19T10:01:56.004Z</time></trkpt><trkpt lat="44.3309744" lon="10.2563489"><ele>917.0</ele><time>2026-04-19T10:01:57.005Z</time></trkpt><trkpt lat="44.3308862" lon="10.2562844"><ele>917.0</ele><time>2026-04-19T10:01:58.005Z</time></trkpt><trkpt lat="44.3307987" lon="10.2562116"><ele>917.0</ele><time>2026-04-19T10:01:59.005Z</time></trkpt><trkpt lat="44.330705" lon="10.2561422"><ele>917.0</ele><time>2026-04-19T10:02:00.005Z</time></trkpt><trkpt lat="44.3306067" lon="10.2560772"><ele>917.0</ele><time>2026-04-19T10:02:01.006Z</time></trkpt><trkpt lat="44.3305078" lon="10.2560023"><ele>919.8</ele><time>2026-04-19T10:02:02.006Z</time></trkpt><trkpt lat="44.3304279" lon="10.2559217"><ele>922.6</ele><time>2026-04-19T10:02:03.006Z</time></trkpt><trkpt lat="44.3303748" lon="10.2558142"><ele>925.3999999999999</ele><time>2026-04-19T10:02:04.005Z</time></trkpt><trkpt lat="44.3303433" lon="10.2556879"><ele>928.1999999999999</ele><time>2026-04-19T10:02:05.005Z</time></trkpt><trkpt lat="44.3303234" lon="10.2555605"><ele>931.0</ele><time>2026-04-19T10:02:06.005Z</time></trkpt><trkpt lat="44.3302904" lon="10.2554578"><ele>931.0</ele><time>2026-04-19T10:02:07.006Z</time></trkpt><trkpt lat="44.3302345" lon="10.2553687"><ele>930.9999999999999</ele><time>2026-04-19T10:02:08.006Z</time></trkpt><trkpt lat="44.3301477" lon="10.2553288"><ele>930.9999999999999</ele><time>2026-04-19T10:02:09.005Z</time></trkpt><trkpt lat="44.3300469" lon="10.2553255"><ele>931.0</ele><time>2026-04-19T10:02:10.005Z</time></trkpt><trkpt lat="44.3299234" lon="10.2553457"><ele>931.0</ele><time>2026-04-19T10:02:11.006Z</time></trkpt><trkpt lat="44.329794" lon="10.2553719"><ele>924.9999999999999</ele><time>2026-04-19T10:02:12.004Z</time></trkpt><trkpt lat="44.3296898" lon="10.2553882"><ele>919.0</ele><time>2026-04-19T10:02:13.005Z</time></trkpt><trkpt lat="44.3295989" lon="10.2553844"><ele>913.0</ele><time>2026-04-19T10:02:14.005Z</time></trkpt><trkpt lat="44.3295296" lon="10.255342"><ele>907.0</ele><time>2026-04-19T10:02:15.005Z</time></trkpt><trkpt lat="44.3294833" lon="10.2552527"><ele>900.9999999999999</ele><time>2026-04-19T10:02:16.006Z</time></trkpt><trkpt lat="44.3294676" lon="10.2551259"><ele>895.0</ele><time>2026-04-19T10:02:17.006Z</time></trkpt><trkpt lat="44.3294751" lon="10.2549634"><ele>895.0</ele><time>2026-04-19T10:02:18.006Z</time></trkpt><trkpt lat="44.3294848" lon="10.2547964"><ele>895.0</ele><time>2026-04-19T10:02:19.006Z</time></trkpt><trkpt lat="44.32948" lon="10.2546625"><ele>895.0</ele><time>2026-04-19T10:02:20.006Z</time></trkpt><trkpt lat="44.3294466" lon="10.2545555"><ele>895.0</ele><time>2026-04-19T10:02:21.005Z</time></trkpt><trkpt lat="44.3293769" lon="10.254479"><ele>895.0</ele><time>2026-04-19T10:02:22.006Z</time></trkpt><trkpt lat="44.3292766" lon="10.2544432"><ele>895.2</ele><time>2026-04-19T10:02:23.004Z</time></trkpt><trkpt lat="44.3291737" lon="10.2544511"><ele>895.4</ele><time>2026-04-19T10:02:24.005Z</time></trkpt><trkpt lat="44.3290842" lon="10.2544256"><ele>895.5999999999999</ele><time>2026-04-19T10:02:25.006Z</time></trkpt><trkpt lat="44.3289919" lon="10.2543382"><ele>895.8</ele><time>2026-04-19T10:02:26.006Z</time></trkpt><trkpt lat="44.3289058" lon="10.2542028"><ele>896.0</ele><time>2026-04-19T10:02:27.006Z</time></trkpt><trkpt lat="44.3288198" lon="10.2541097"><ele>896.0000000000001</ele><time>2026-04-19T10:02:28.006Z</time></trkpt><trkpt lat="44.3287313" lon="10.2540736"><ele>896.0</ele><time>2026-04-19T10:02:29.004Z</time></trkpt><trkpt lat="44.3286415" lon="10.2540716"><ele>896.0</ele><time>2026-04-19T10:02:30.006Z</time></trkpt><trkpt lat="44.3285684" lon="10.2540233"><ele>896.0</ele><time>2026-04-19T10:02:31.006Z</time></trkpt><trkpt lat="44.328517" lon="10.2539295"><ele>896.0000000000001</ele><time>2026-04-19T10:02:32.006Z</time></trkpt><trkpt lat="44.3285041" lon="10.2538089"><ele>896.0</ele><time>2026-04-19T10:02:33.005Z</time></trkpt><trkpt lat="44.3284876" lon="10.2536692"><ele>903.5999999999999</ele><time>2026-04-19T10:02:34.005Z</time></trkpt><trkpt lat="44.3284377" lon="10.2535583"><ele>911.1999999999999</ele><time>2026-04-19T10:02:35.006Z</time></trkpt><trkpt lat="44.32836" lon="10.2534829"><ele>918.8000000000001</ele><time>2026-04-19T10:02:36.004Z</time></trkpt><trkpt lat="44.3282566" lon="10.2534492"><ele>926.4000000000001</ele><time>2026-04-19T10:02:37.005Z</time></trkpt><trkpt lat="44.3281745" lon="10.2533893"><ele>934.0</ele><time>2026-04-19T10:02:38.005Z</time></trkpt><trkpt lat="44.3280834" lon="10.2532719"><ele>929.0</ele><time>2026-04-19T10:02:39.005Z</time></trkpt><trkpt lat="44.3279786" lon="10.2531094"><ele>924.0</ele><time>2026-04-19T10:02:40.006Z</time></trkpt><trkpt lat="44.3278715" lon="10.2529487"><ele>919.0</ele><time>2026-04-19T10:02:41.005Z</time></trkpt><trkpt lat="44.3277828" lon="10.2528049"><ele>914.0</ele><time>2026-04-19T10:02:42.006Z</time></trkpt><trkpt lat="44.3277315" lon="10.2526803"><ele>914.0</ele><time>2026-04-19T10:02:43.006Z</time></trkpt><trkpt lat="44.3277119" lon="10.2525412"><ele>914.0000000000001</ele><time>2026-04-19T10:02:44.005Z</time></trkpt><trkpt lat="44.3277165" lon="10.2523901"><ele>914.0000000000001</ele><time>2026-04-19T10:02:45.005Z</time></trkpt><trkpt lat="44.3276912" lon="10.2522605"><ele>914.0</ele><time>2026-04-19T10:02:46.006Z</time></trkpt><trkpt lat="44.3276128" lon="10.2521651"><ele>914.0</ele><time>2026-04-19T10:02:47.005Z</time></trkpt><trkpt lat="44.3275014" lon="10.2520509"><ele>910.25</ele><time>2026-04-19T10:02:48.006Z</time></trkpt><trkpt lat="44.3273752" lon="10.2519465"><ele>906.5</ele><time>2026-04-19T10:02:49.006Z</time></trkpt><trkpt lat="44.3272255" lon="10.2518652"><ele>902.75</ele><time>2026-04-19T10:02:50.005Z</time></trkpt><trkpt lat="44.3270903" lon="10.2518057"><ele>899.0</ele><time>2026-04-19T10:02:51.005Z</time></trkpt><trkpt lat="44.3269819" lon="10.2517494"><ele>899.0</ele><time>2026-04-19T10:02:52.006Z</time></trkpt><trkpt lat="44.3268929" lon="10.2516758"><ele>899.0</ele><time>2026-04-19T10:02:53.005Z</time></trkpt><trkpt lat="44.3268232" lon="10.2515422"><ele>899.0</ele><time>2026-04-19T10:02:54.006Z</time></trkpt><trkpt lat="44.3267794" lon="10.2513513"><ele>899.0</ele><time>2026-04-19T10:02:55.005Z</time></trkpt><trkpt lat="44.3267106" lon="10.2511268"><ele>904.0</ele><time>2026-04-19T10:02:56.005Z</time></trkpt><trkpt lat="44.3266147" lon="10.2508843"><ele>909.0</ele><time>2026-04-19T10:02:57.006Z</time></trkpt><trkpt lat="44.3265242" lon="10.2506579"><ele>914.0</ele><time>2026-04-19T10:02:58.004Z</time></trkpt><trkpt lat="44.3264509" lon="10.2504756"><ele>914.0</ele><time>2026-04-19T10:02:59.006Z</time></trkpt><trkpt lat="44.3263895" lon="10.2503247"><ele>914.0000000000001</ele><time>2026-04-19T10:03:00.004Z</time></trkpt><trkpt lat="44.3263512" lon="10.2501941"><ele>914.0000000000001</ele><time>2026-04-19T10:03:01.005Z</time></trkpt><trkpt lat="44.3263525" lon="10.2500723"><ele>914.0</ele><time>2026-04-19T10:03:02.005Z</time></trkpt><trkpt lat="44.3263961" lon="10.2499753"><ele>914.0</ele><time>2026-04-19T10:03:03.005Z</time></trkpt><trkpt lat="44.3264691" lon="10.24988"><ele>915.4000000000001</ele><time>2026-04-19T10:03:04.004Z</time></trkpt><trkpt lat="44.3265317" lon="10.2497769"><ele>916.8000000000001</ele><time>2026-04-19T10:03:05.004Z</time></trkpt><trkpt lat="44.3265609" lon="10.2496482"><ele>918.1999999999999</ele><time>2026-04-19T10:03:06.006Z</time></trkpt><trkpt lat="44.3265507" lon="10.249485"><ele>919.5999999999999</ele><time>2026-04-19T10:03:07.006Z</time></trkpt><trkpt lat="44.3265043" lon="10.2493103"><ele>921.0</ele><time>2026-04-19T10:03:08.005Z</time></trkpt><trkpt lat="44.3264104" lon="10.2491259"><ele>913.0</ele><time>2026-04-19T10:03:09.005Z</time></trkpt><trkpt lat="44.3263087" lon="10.2489773"><ele>905.0</ele><time>2026-04-19T10:03:10.005Z</time></trkpt><trkpt lat="44.3262168" lon="10.2488412"><ele>897.0</ele><time>2026-04-19T10:03:11.006Z</time></trkpt><trkpt lat="44.3261534" lon="10.2486843"><ele>889.0</ele><time>2026-04-19T10:03:12.006Z</time></trkpt><trkpt lat="44.3261022" lon="10.2484936"><ele>889.0</ele><time>2026-04-19T10:03:13.005Z</time></trkpt><trkpt lat="44.3260478" lon="10.248259"><ele>889.0</ele><time>2026-04-19T10:03:14.006Z</time></trkpt><trkpt lat="44.325993" lon="10.2480024"><ele>889.0</ele><time>2026-04-19T10:03:15.005Z</time></trkpt><trkpt lat="44.3259441" lon="10.2477702"><ele>890.6666666666666</ele><time>2026-04-19T10:03:16.006Z</time></trkpt><trkpt lat="44.3258839" lon="10.2475564"><ele>892.3333333333333</ele><time>2026-04-19T10:03:17.006Z</time></trkpt><trkpt lat="44.3257947" lon="10.2473635"><ele>894.0</ele><time>2026-04-19T10:03:18.005Z</time></trkpt><trkpt lat="44.3256748" lon="10.2471866"><ele>893.3333333333333</ele><time>2026-04-19T10:03:19.005Z</time></trkpt><trkpt lat="44.3255159" lon="10.2470253"><ele>892.6666666666666</ele><time>2026-04-19T10:03:20.004Z</time></trkpt><trkpt lat="44.3253616" lon="10.2468777"><ele>892.0</ele><time>2026-04-19T10:03:21.006Z</time></trkpt><trkpt lat="44.3252255" lon="10.2467498"><ele>892.0</ele><time>2026-04-19T10:03:22.005Z</time></trkpt><trkpt lat="44.3251237" lon="10.2466363"><ele>892.0</ele><time>2026-04-19T10:03:23.005Z</time></trkpt><trkpt lat="44.3250431" lon="10.2465129"><ele>892.0</ele><time>2026-04-19T10:03:24.006Z</time></trkpt><trkpt lat="44.3249796" lon="10.2463624"><ele>892.0</ele><time>2026-04-19T10:03:25.006Z</time></trkpt><trkpt lat="44.3249303" lon="10.2461776"><ele>893.6666666666666</ele><time>2026-04-19T10:03:26.006Z</time></trkpt><trkpt lat="44.3248835" lon="10.2459575"><ele>895.3333333333333</ele><time>2026-04-19T10:03:27.006Z</time></trkpt><trkpt lat="44.3248388" lon="10.2457189"><ele>897.0</ele><time>2026-04-19T10:03:28.005Z</time></trkpt><trkpt lat="44.3247924" lon="10.2454641"><ele>900.3333333333333</ele><time>2026-04-19T10:03:29.006Z</time></trkpt><trkpt lat="44.3247394" lon="10.2451717"><ele>903.6666666666666</ele><time>2026-04-19T10:03:30.005Z</time></trkpt><trkpt lat="44.324685" lon="10.2448877"><ele>907.0</ele><time>2026-04-19T10:03:31.005Z</time></trkpt><trkpt lat="44.324636" lon="10.2446246"><ele>903.3333333333333</ele><time>2026-04-19T10:03:32.006Z</time></trkpt><trkpt lat="44.3245895" lon="10.2443754"><ele>899.6666666666667</ele><time>2026-04-19T10:03:33.005Z</time></trkpt><trkpt lat="44.3245434" lon="10.2441301"><ele>896.0</ele><time>2026-04-19T10:03:34.006Z</time></trkpt><trkpt lat="44.3244782" lon="10.2438832"><ele>896.0</ele><time>2026-04-19T10:03:35.006Z</time></trkpt><trkpt lat="44.3243799" lon="10.2436354"><ele>896.0</ele><time>2026-04-19T10:03:36.005Z</time></trkpt><trkpt lat="44.3242547" lon="10.2433823"><ele>896.0</ele><time>2026-04-19T10:03:37.005Z</time></trkpt><trkpt lat="44.3241234" lon="10.2431338"><ele>894.3333333333334</ele><time>2026-04-19T10:03:38.005Z</time></trkpt><trkpt lat="44.3239942" lon="10.2429003"><ele>892.6666666666667</ele><time>2026-04-19T10:03:39.006Z</time></trkpt><trkpt lat="44.3238746" lon="10.2426939"><ele>891.0</ele><time>2026-04-19T10:03:40.004Z</time></trkpt><trkpt lat="44.3237599" lon="10.2425116"><ele>891.0</ele><time>2026-04-19T10:03:41.005Z</time></trkpt><trkpt lat="44.3236475" lon="10.2423553"><ele>891.0</ele><time>2026-04-19T10:03:42.005Z</time></trkpt><trkpt lat="44.3235426" lon="10.2422176"><ele>891.0</ele><time>2026-04-19T10:03:43.005Z</time></trkpt><trkpt lat="44.323453" lon="10.2420821"><ele>891.0</ele><time>2026-04-19T10:03:44.006Z</time></trkpt><trkpt lat="44.3233729" lon="10.2419342"><ele>893.0</ele><time>2026-04-19T10:03:45.006Z</time></trkpt><trkpt lat="44.3232986" lon="10.2417771"><ele>895.0</ele><time>2026-04-19T10:03:46.005Z</time></trkpt><trkpt lat="44.3232328" lon="10.2416021"><ele>897.0</ele><time>2026-04-19T10:03:47.006Z</time></trkpt><trkpt lat="44.3231672" lon="10.2414144"><ele>899.0</ele><time>2026-04-19T10:03:48.005Z</time></trkpt><trkpt lat="44.3230992" lon="10.2412204"><ele>900.3333333333334</ele><time>2026-04-19T10:03:49.004Z</time></trkpt><trkpt lat="44.323032" lon="10.241025"><ele>901.6666666666667</ele><time>2026-04-19T10:03:50.006Z</time></trkpt><trkpt lat="44.3229619" lon="10.2408236"><ele>903.0</ele><time>2026-04-19T10:03:51.006Z</time></trkpt><trkpt lat="44.3228931" lon="10.240628"><ele>906.75</ele><time>2026-04-19T10:03:52.005Z</time></trkpt><trkpt lat="44.3228324" lon="10.2404484"><ele>910.5</ele><time>2026-04-19T10:03:53.006Z</time></trkpt><trkpt lat="44.3227781" lon="10.2402866"><ele>914.25</ele><time>2026-04-19T10:03:54.005Z</time></trkpt><trkpt lat="44.3227245" lon="10.2401441"><ele>918.0</ele><time>2026-04-19T10:03:55.006Z</time></trkpt><trkpt lat="44.3226608" lon="10.2400314"><ele>918.0</ele><time>2026-04-19T10:03:56.006Z</time></trkpt><trkpt lat="44.3225749" lon="10.2399533"><ele>918.0</ele><time>2026-04-19T10:03:57.005Z</time></trkpt><trkpt lat="44.3224732" lon="10.2399239"><ele>918.0</ele><time>2026-04-19T10:03:58.004Z</time></trkpt><trkpt lat="44.3223745" lon="10.2399021"><ele>918.0</ele><time>2026-04-19T10:03:59.005Z</time></trkpt><trkpt lat="44.3222849" lon="10.2398431"><ele>918.0</ele><time>2026-04-19T10:04:00.006Z</time></trkpt><trkpt lat="44.3222084" lon="10.2397336"><ele>921.3333333333334</ele><time>2026-04-19T10:04:01.005Z</time></trkpt><trkpt lat="44.3221508" lon="10.2396099"><ele>924.6666666666667</ele><time>2026-04-19T10:04:02.005Z</time></trkpt><trkpt lat="44.3220913" lon="10.2395193"><ele>928.0</ele><time>2026-04-19T10:04:03.006Z</time></trkpt><trkpt lat="44.3220319" lon="10.2394347"><ele>931.3333333333334</ele><time>2026-04-19T10:04:04.006Z</time></trkpt><trkpt lat="44.3219447" lon="10.2394592"><ele>934.6666666666667</ele><time>2026-04-19T10:04:05.006Z</time></trkpt><trkpt lat="44.3218757" lon="10.2394808"><ele>938.0</ele><time>2026-04-19T10:04:06.005Z</time></trkpt><trkpt lat="44.3217977" lon="10.2395923"><ele>938.0</ele><time>2026-04-19T10:04:07.006Z</time></trkpt><trkpt lat="44.3217119" lon="10.2396353"><ele>938.0</ele><time>2026-04-19T10:04:08.005Z</time></trkpt><trkpt lat="44.3215969" lon="10.2396402"><ele>938.0</ele><time>2026-04-19T10:04:09.006Z</time></trkpt><trkpt lat="44.321466" lon="10.2396184"><ele>938.0</ele><time>2026-04-19T10:04:10.005Z</time></trkpt><trkpt lat="44.321313" lon="10.239595"><ele>938.0</ele><time>2026-04-19T10:04:11.005Z</time></trkpt><trkpt lat="44.3211463" lon="10.2395586"><ele>938.0</ele><time>2026-04-19T10:04:12.005Z</time></trkpt><trkpt lat="44.3209838" lon="10.2394866"><ele>938.0</ele><time>2026-04-19T10:04:13.006Z</time></trkpt><trkpt lat="44.3208285" lon="10.2393981"><ele>938.0</ele><time>2026-04-19T10:04:14.006Z</time></trkpt><trkpt lat="44.3206784" lon="10.2392993"><ele>938.0</ele><time>2026-04-19T10:04:15.005Z</time></trkpt><trkpt lat="44.3205482" lon="10.2391917"><ele>938.0</ele><time>2026-04-19T10:04:16.005Z</time></trkpt><trkpt lat="44.3204266" lon="10.2390479"><ele>939.3333333333334</ele><time>2026-04-19T10:04:17.005Z</time></trkpt><trkpt lat="44.3203056" lon="10.238879"><ele>940.6666666666667</ele><time>2026-04-19T10:04:18.005Z</time></trkpt><trkpt lat="44.3201623" lon="10.2387297"><ele>942.0</ele><time>2026-04-19T10:04:19.005Z</time></trkpt><trkpt lat="44.3200064" lon="10.238592"><ele>942.0</ele><time>2026-04-19T10:04:20.004Z</time></trkpt><trkpt lat="44.319839" lon="10.2384676"><ele>942.0</ele><time>2026-04-19T10:04:21.005Z</time></trkpt><trkpt lat="44.3196633" lon="10.2383572"><ele>942.0</ele><time>2026-04-19T10:04:22.004Z</time></trkpt><trkpt lat="44.3194892" lon="10.2382517"><ele>940.3333333333333</ele><time>2026-04-19T10:04:23.006Z</time></trkpt><trkpt lat="44.3193231" lon="10.2381619"><ele>938.6666666666666</ele><time>2026-04-19T10:04:24.006Z</time></trkpt><trkpt lat="44.3191432" lon="10.2381046"><ele>937.0</ele><time>2026-04-19T10:04:25.005Z</time></trkpt><trkpt lat="44.3189542" lon="10.2380761"><ele>940.3333333333333</ele><time>2026-04-19T10:04:26.005Z</time></trkpt><trkpt lat="44.3187849" lon="10.2380565"><ele>943.6666666666667</ele><time>2026-04-19T10:04:27.004Z</time></trkpt><trkpt lat="44.3186332" lon="10.2380394"><ele>947.0</ele><time>2026-04-19T10:04:28.005Z</time></trkpt><trkpt lat="44.3184952" lon="10.238037"><ele>947.0</ele><time>2026-04-19T10:04:29.005Z</time></trkpt><trkpt lat="44.3183741" lon="10.2380658"><ele>947.0</ele><time>2026-04-19T10:04:30.006Z</time></trkpt><trkpt lat="44.3182675" lon="10.2381286"><ele>947.0</ele><time>2026-04-19T10:04:31.006Z</time></trkpt><trkpt lat="44.3181673" lon="10.2382136"><ele>947.0</ele><time>2026-04-19T10:04:32.005Z</time></trkpt><trkpt lat="44.3180763" lon="10.2382845"><ele>949.2</ele><time>2026-04-19T10:04:33.005Z</time></trkpt><trkpt lat="44.3179964" lon="10.2383299"><ele>951.4000000000001</ele><time>2026-04-19T10:04:34.006Z</time></trkpt><trkpt lat="44.3179147" lon="10.2383354"><ele>953.5999999999999</ele><time>2026-04-19T10:04:35.006Z</time></trkpt><trkpt lat="44.3178222" lon="10.2382954"><ele>955.8</ele><time>2026-04-19T10:04:36.006Z</time></trkpt><trkpt lat="44.3177247" lon="10.2382254"><ele>958.0</ele><time>2026-04-19T10:04:37.005Z</time></trkpt><trkpt lat="44.317639" lon="10.2381356"><ele>956.4</ele><time>2026-04-19T10:04:38.006Z</time></trkpt><trkpt lat="44.3175765" lon="10.2380337"><ele>954.8</ele><time>2026-04-19T10:04:39.005Z</time></trkpt><trkpt lat="44.3175297" lon="10.237917"><ele>953.2</ele><time>2026-04-19T10:04:40.005Z</time></trkpt><trkpt lat="44.3174927" lon="10.2377884"><ele>951.6</ele><time>2026-04-19T10:04:41.005Z</time></trkpt><trkpt lat="44.3174615" lon="10.2376426"><ele>950.0</ele><time>2026-04-19T10:04:42.006Z</time></trkpt><trkpt lat="44.3174274" lon="10.23748"><ele>950.0</ele><time>2026-04-19T10:04:43.005Z</time></trkpt><trkpt lat="44.3173914" lon="10.2373084"><ele>950.0</ele><time>2026-04-19T10:04:44.005Z</time></trkpt><trkpt lat="44.3173497" lon="10.2371497"><ele>950.0</ele><time>2026-04-19T10:04:45.005Z</time></trkpt><trkpt lat="44.3172994" lon="10.2370137"><ele>950.0</ele><time>2026-04-19T10:04:46.006Z</time></trkpt><trkpt lat="44.3172314" lon="10.2368862"><ele>953.5</ele><time>2026-04-19T10:04:47.005Z</time></trkpt><trkpt lat="44.3171404" lon="10.2367776"><ele>957.0</ele><time>2026-04-19T10:04:48.006Z</time></trkpt><trkpt lat="44.3170288" lon="10.2367004"><ele>960.5</ele><time>2026-04-19T10:04:49.005Z</time></trkpt><trkpt lat="44.3169009" lon="10.2366694"><ele>964.0</ele><time>2026-04-19T10:04:50.005Z</time></trkpt><trkpt lat="44.3167598" lon="10.2366784"><ele>964.0</ele><time>2026-04-19T10:04:51.005Z</time></trkpt><trkpt lat="44.3166144" lon="10.2366877"><ele>964.0</ele><time>2026-04-19T10:04:52.005Z</time></trkpt><trkpt lat="44.316458" lon="10.236666"><ele>964.0</ele><time>2026-04-19T10:04:53.005Z</time></trkpt><trkpt lat="44.3163167" lon="10.2366313"><ele>964.0</ele><time>2026-04-19T10:04:54.006Z</time></trkpt><trkpt lat="44.3161693" lon="10.2365742"><ele>966.6666666666666</ele><time>2026-04-19T10:04:55.006Z</time></trkpt><trkpt lat="44.3160283" lon="10.2364074"><ele>969.3333333333333</ele><time>2026-04-19T10:04:56.006Z</time></trkpt><trkpt lat="44.3159121" lon="10.2362747"><ele>972.0</ele><time>2026-04-19T10:04:57.005Z</time></trkpt><trkpt lat="44.3158267" lon="10.2361483"><ele>972.0</ele><time>2026-04-19T10:04:58.006Z</time></trkpt><trkpt lat="44.3157649" lon="10.2360337"><ele>972.0</ele><time>2026-04-19T10:04:59.005Z</time></trkpt><trkpt lat="44.3157168" lon="10.2359401"><ele>972.0</ele><time>2026-04-19T10:05:00.005Z</time></trkpt><trkpt lat="44.3156723" lon="10.2358776"><ele>972.0</ele><time>2026-04-19T10:05:01.005Z</time></trkpt><trkpt lat="44.3155681" lon="10.2358549"><ele>972.0</ele><time>2026-04-19T10:05:03.006Z</time></trkpt><trkpt lat="44.3155412" lon="10.2359793"><ele>972.0</ele><time>2026-04-19T10:05:05.006Z</time></trkpt><trkpt lat="44.3155817" lon="10.2360541"><ele>972.0</ele><time>2026-04-19T10:05:06.006Z</time></trkpt><trkpt lat="44.3156502" lon="10.236144"><ele>972.0</ele><time>2026-04-19T10:05:07.006Z</time></trkpt><trkpt lat="44.3157189" lon="10.2362483"><ele>972.0</ele><time>2026-04-19T10:05:08.005Z</time></trkpt><trkpt lat="44.3157899" lon="10.2363972"><ele>972.0</ele><time>2026-04-19T10:05:09.006Z</time></trkpt><trkpt lat="44.3158596" lon="10.236574"><ele>977.6666666666667</ele><time>2026-04-19T10:05:10.006Z</time></trkpt><trkpt lat="44.31593" lon="10.2367711"><ele>983.3333333333334</ele><time>2026-04-19T10:05:11.006Z</time></trkpt><trkpt lat="44.3160087" lon="10.2370016"><ele>989.0</ele><time>2026-04-19T10:05:12.005Z</time></trkpt><trkpt lat="44.3160827" lon="10.2372363"><ele>994.6666666666667</ele><time>2026-04-19T10:05:13.005Z</time></trkpt><trkpt lat="44.3161551" lon="10.2374933"><ele>1000.3333333333333</ele><time>2026-04-19T10:05:14.005Z</time></trkpt><trkpt lat="44.3162087" lon="10.2377058"><ele>1006.0</ele><time>2026-04-19T10:05:15.006Z</time></trkpt><trkpt lat="44.3162546" lon="10.2378879"><ele>1006.0</ele><time>2026-04-19T10:05:16.006Z</time></trkpt><trkpt lat="44.3162996" lon="10.2380348"><ele>1005.9999999999999</ele><time>2026-04-19T10:05:17.004Z</time></trkpt><trkpt lat="44.3163489" lon="10.2381523"><ele>1005.9999999999999</ele><time>2026-04-19T10:05:18.005Z</time></trkpt><trkpt lat="44.3163999" lon="10.2382429"><ele>1006.0</ele><time>2026-04-19T10:05:19.006Z</time></trkpt><trkpt lat="44.3164377" lon="10.2383202"><ele>1006.0</ele><time>2026-04-19T10:05:20.005Z</time></trkpt><trkpt lat="44.3164477" lon="10.2384429"><ele>1006.0</ele><time>2026-04-19T10:05:22.006Z</time></trkpt><trkpt lat="44.3163837" lon="10.2384639"><ele>1005.9999999999999</ele><time>2026-04-19T10:05:24.006Z</time></trkpt><trkpt lat="44.3163237" lon="10.2383196"><ele>1005.9999999999999</ele><time>2026-04-19T10:05:26.006Z</time></trkpt><trkpt lat="44.3162793" lon="10.2381796"><ele>1006.0</ele><time>2026-04-19T10:05:27.005Z</time></trkpt><trkpt lat="44.3162189" lon="10.238025"><ele>1006.0</ele><time>2026-04-19T10:05:28.006Z</time></trkpt><trkpt lat="44.31615" lon="10.2378567"><ele>1006.0</ele><time>2026-04-19T10:05:29.006Z</time></trkpt><trkpt lat="44.3160642" lon="10.2376984"><ele>1006.0</ele><time>2026-04-19T10:05:30.005Z</time></trkpt><trkpt lat="44.3159443" lon="10.2375444"><ele>1006.0</ele><time>2026-04-19T10:05:31.005Z</time></trkpt><trkpt lat="44.3158001" lon="10.2373978"><ele>1000.3333333333333</ele><time>2026-04-19T10:05:32.006Z</time></trkpt><trkpt lat="44.3156664" lon="10.237261"><ele>994.6666666666667</ele><time>2026-04-19T10:05:33.006Z</time></trkpt><trkpt lat="44.3155315" lon="10.2370976"><ele>989.0</ele><time>2026-04-19T10:05:34.006Z</time></trkpt><trkpt lat="44.3153903" lon="10.2369248"><ele>995.3333333333334</ele><time>2026-04-19T10:05:35.006Z</time></trkpt><trkpt lat="44.3152632" lon="10.236701"><ele>1001.6666666666667</ele><time>2026-04-19T10:05:36.005Z</time></trkpt><trkpt lat="44.3151336" lon="10.2364499"><ele>1008.0</ele><time>2026-04-19T10:05:37.005Z</time></trkpt><trkpt lat="44.3149916" lon="10.2361928"><ele>1008.0</ele><time>2026-04-19T10:05:38.006Z</time></trkpt><trkpt lat="44.3148716" lon="10.2359615"><ele>1008.0</ele><time>2026-04-19T10:05:39.005Z</time></trkpt><trkpt lat="44.3147541" lon="10.2357522"><ele>1008.0</ele><time>2026-04-19T10:05:40.006Z</time></trkpt><trkpt lat="44.3146385" lon="10.2355489"><ele>1012.75</ele><time>2026-04-19T10:05:41.005Z</time></trkpt><trkpt lat="44.3145373" lon="10.2353708"><ele>1017.5</ele><time>2026-04-19T10:05:42.006Z</time></trkpt><trkpt lat="44.3144472" lon="10.2352197"><ele>1022.25</ele><time>2026-04-19T10:05:43.005Z</time></trkpt><trkpt lat="44.3143767" lon="10.2350975"><ele>1027.0</ele><time>2026-04-19T10:05:44.006Z</time></trkpt><trkpt lat="44.3143157" lon="10.2349936"><ele>1027.0</ele><time>2026-04-19T10:05:45.005Z</time></trkpt><trkpt lat="44.3142621" lon="10.2349154"><ele>1027.0</ele><time>2026-04-19T10:05:46.004Z</time></trkpt><trkpt lat="44.3142061" lon="10.2348735"><ele>1027.0</ele><time>2026-04-19T10:05:47.005Z</time></trkpt><trkpt lat="44.314099" lon="10.2349373"><ele>1027.0</ele><time>2026-04-19T10:05:49.004Z</time></trkpt><trkpt lat="44.3140936" lon="10.2350315"><ele>1027.0</ele><time>2026-04-19T10:05:50.006Z</time></trkpt><trkpt lat="44.3141141" lon="10.2351612"><ele>1027.0</ele><time>2026-04-19T10:05:51.005Z</time></trkpt><trkpt lat="44.3141673" lon="10.2353228"><ele>1027.0</ele><time>2026-04-19T10:05:52.006Z</time></trkpt><trkpt lat="44.3142283" lon="10.2355103"><ele>1027.0</ele><time>2026-04-19T10:05:53.005Z</time></trkpt><trkpt lat="44.3142903" lon="10.2357229"><ele>1027.0</ele><time>2026-04-19T10:05:54.005Z</time></trkpt><trkpt lat="44.3143509" lon="10.2359648"><ele>1031.0</ele><time>2026-04-19T10:05:55.004Z</time></trkpt><trkpt lat="44.3143939" lon="10.2362154"><ele>1035.0</ele><time>2026-04-19T10:05:56.004Z</time></trkpt><trkpt lat="44.3144175" lon="10.2364306"><ele>1039.0</ele><time>2026-04-19T10:05:57.006Z</time></trkpt><trkpt lat="44.3144277" lon="10.2365996"><ele>1041.6000000000001</ele><time>2026-04-19T10:05:58.005Z</time></trkpt><trkpt lat="44.3144309" lon="10.2367303"><ele>1044.2</ele><time>2026-04-19T10:05:59.005Z</time></trkpt><trkpt lat="44.3144235" lon="10.2368283"><ele>1046.8000000000002</ele><time>2026-04-19T10:06:00.005Z</time></trkpt><trkpt lat="44.3143576" lon="10.2369133"><ele>1049.4</ele><time>2026-04-19T10:06:02.005Z</time></trkpt><trkpt lat="44.3143075" lon="10.2368407"><ele>1052.0</ele><time>2026-04-19T10:06:04.006Z</time></trkpt><trkpt lat="44.3143151" lon="10.2366205"><ele>1052.0</ele><time>2026-04-19T10:06:06.006Z</time></trkpt><trkpt lat="44.3142903" lon="10.2364972"><ele>1052.0</ele><time>2026-04-19T10:06:07.005Z</time></trkpt><trkpt lat="44.3142298" lon="10.2363556"><ele>1052.0</ele><time>2026-04-19T10:06:08.005Z</time></trkpt><trkpt lat="44.3141335" lon="10.2362131"><ele>1052.0</ele><time>2026-04-19T10:06:09.004Z</time></trkpt><trkpt lat="44.3140244" lon="10.2360766"><ele>1048.75</ele><time>2026-04-19T10:06:10.006Z</time></trkpt><trkpt lat="44.3139094" lon="10.2359371"><ele>1045.5</ele><time>2026-04-19T10:06:11.006Z</time></trkpt><trkpt lat="44.3138192" lon="10.2358093"><ele>1042.25</ele><time>2026-04-19T10:06:12.006Z</time></trkpt><trkpt lat="44.3137551" lon="10.2356661"><ele>1039.0</ele><time>2026-04-19T10:06:13.006Z</time></trkpt><trkpt lat="44.3137141" lon="10.2354909"><ele>1048.6666666666665</ele><time>2026-04-19T10:06:14.005Z</time></trkpt><trkpt lat="44.3136713" lon="10.2352812"><ele>1058.3333333333333</ele><time>2026-04-19T10:06:15.004Z</time></trkpt><trkpt lat="44.3135945" lon="10.2350664"><ele>1068.0</ele><time>2026-04-19T10:06:16.006Z</time></trkpt><trkpt lat="44.313507" lon="10.2348526"><ele>1065.5</ele><time>2026-04-19T10:06:17.006Z</time></trkpt><trkpt lat="44.3134258" lon="10.2346828"><ele>1063.0</ele><time>2026-04-19T10:06:18.006Z</time></trkpt><trkpt lat="44.3133353" lon="10.2345459"><ele>1060.5</ele><time>2026-04-19T10:06:19.006Z</time></trkpt><trkpt lat="44.3132174" lon="10.2344468"><ele>1058.0</ele><time>2026-04-19T10:06:20.004Z</time></trkpt><trkpt lat="44.3130909" lon="10.2343771"><ele>1064.1666666666667</ele><time>2026-04-19T10:06:21.004Z</time></trkpt><trkpt lat="44.3129944" lon="10.234324"><ele>1070.3333333333335</ele><time>2026-04-19T10:06:22.005Z</time></trkpt><trkpt lat="44.3129217" lon="10.2342704"><ele>1076.5</ele><time>2026-04-19T10:06:23.005Z</time></trkpt><trkpt lat="44.3128692" lon="10.2342041"><ele>1082.6666666666667</ele><time>2026-04-19T10:06:24.005Z</time></trkpt><trkpt lat="44.3128642" lon="10.2341094"><ele>1088.8333333333333</ele><time>2026-04-19T10:06:25.006Z</time></trkpt><trkpt lat="44.3128931" lon="10.2340251"><ele>1095.0</ele><time>2026-04-19T10:06:26.005Z</time></trkpt><trkpt lat="44.3129577" lon="10.2339569"><ele>1095.0</ele><time>2026-04-19T10:06:27.005Z</time></trkpt><trkpt lat="44.3130408" lon="10.2338694"><ele>1095.0</ele><time>2026-04-19T10:06:28.005Z</time></trkpt><trkpt lat="44.3131089" lon="10.2337585"><ele>1095.0</ele><time>2026-04-19T10:06:29.005Z</time></trkpt><trkpt lat="44.3131416" lon="10.2336192"><ele>1095.0</ele><time>2026-04-19T10:06:30.005Z</time></trkpt><trkpt lat="44.3131382" lon="10.233483"><ele>1095.0</ele><time>2026-04-19T10:06:31.006Z</time></trkpt><trkpt lat="44.3131044" lon="10.2333472"><ele>1095.0</ele><time>2026-04-19T10:06:32.006Z</time></trkpt><trkpt lat="44.3130159" lon="10.2332023"><ele>1095.0</ele><time>2026-04-19T10:06:33.005Z</time></trkpt><trkpt lat="44.3129169" lon="10.2330466"><ele>1095.0</ele><time>2026-04-19T10:06:34.005Z</time></trkpt><trkpt lat="44.3128078" lon="10.2328807"><ele>1095.0</ele><time>2026-04-19T10:06:35.006Z</time></trkpt><trkpt lat="44.3126833" lon="10.2326874"><ele>1091.0</ele><time>2026-04-19T10:06:36.005Z</time></trkpt><trkpt lat="44.3125573" lon="10.2324799"><ele>1087.0</ele><time>2026-04-19T10:06:37.006Z</time></trkpt><trkpt lat="44.3124349" lon="10.2322618"><ele>1083.0</ele><time>2026-04-19T10:06:38.006Z</time></trkpt><trkpt lat="44.3123274" lon="10.2320668"><ele>1086.0</ele><time>2026-04-19T10:06:39.006Z</time></trkpt><trkpt lat="44.3122243" lon="10.2318902"><ele>1089.0</ele><time>2026-04-19T10:06:40.005Z</time></trkpt><trkpt lat="44.3121221" lon="10.2317432"><ele>1092.0</ele><time>2026-04-19T10:06:41.006Z</time></trkpt><trkpt lat="44.3120023" lon="10.2316325"><ele>1092.0</ele><time>2026-04-19T10:06:42.005Z</time></trkpt><trkpt lat="44.3118544" lon="10.231573"><ele>1092.0</ele><time>2026-04-19T10:06:43.004Z</time></trkpt><trkpt lat="44.3116913" lon="10.2315253"><ele>1092.0</ele><time>2026-04-19T10:06:44.005Z</time></trkpt><trkpt lat="44.3115444" lon="10.2314574"><ele>1095.6666666666667</ele><time>2026-04-19T10:06:45.005Z</time></trkpt><trkpt lat="44.3114025" lon="10.2313517"><ele>1099.3333333333335</ele><time>2026-04-19T10:06:46.005Z</time></trkpt><trkpt lat="44.3112675" lon="10.2312031"><ele>1103.0</ele><time>2026-04-19T10:06:47.005Z</time></trkpt><trkpt lat="44.3111494" lon="10.2310347"><ele>1103.0</ele><time>2026-04-19T10:06:48.004Z</time></trkpt><trkpt lat="44.3110619" lon="10.230867"><ele>1103.0</ele><time>2026-04-19T10:06:49.005Z</time></trkpt><trkpt lat="44.3109746" lon="10.2307203"><ele>1103.0</ele><time>2026-04-19T10:06:50.006Z</time></trkpt><trkpt lat="44.31088" lon="10.2306168"><ele>1103.0</ele><time>2026-04-19T10:06:51.006Z</time></trkpt><trkpt lat="44.3107663" lon="10.2305511"><ele>1102.5</ele><time>2026-04-19T10:06:52.005Z</time></trkpt><trkpt lat="44.3106493" lon="10.2305034"><ele>1102.0</ele><time>2026-04-19T10:06:53.004Z</time></trkpt><trkpt lat="44.3105579" lon="10.23046"><ele>1101.5</ele><time>2026-04-19T10:06:54.006Z</time></trkpt><trkpt lat="44.310485" lon="10.2304147"><ele>1101.0</ele><time>2026-04-19T10:06:55.005Z</time></trkpt><trkpt lat="44.3104455" lon="10.2303334"><ele>1100.5</ele><time>2026-04-19T10:06:56.006Z</time></trkpt><trkpt lat="44.3104474" lon="10.2302318"><ele>1100.0</ele><time>2026-04-19T10:06:57.006Z</time></trkpt><trkpt lat="44.3104841" lon="10.2301467"><ele>1100.0</ele><time>2026-04-19T10:06:58.005Z</time></trkpt><trkpt lat="44.3105563" lon="10.2300561"><ele>1100.0</ele><time>2026-04-19T10:06:59.005Z</time></trkpt><trkpt lat="44.3106713" lon="10.2299398"><ele>1100.0</ele><time>2026-04-19T10:07:00.005Z</time></trkpt><trkpt lat="44.3107774" lon="10.229805"><ele>1100.0</ele><time>2026-04-19T10:07:01.006Z</time></trkpt><trkpt lat="44.3108948" lon="10.2296637"><ele>1105.5</ele><time>2026-04-19T10:07:02.005Z</time></trkpt><trkpt lat="44.3110299" lon="10.2295635"><ele>1111.0</ele><time>2026-04-19T10:07:03.005Z</time></trkpt><trkpt lat="44.3111671" lon="10.2295033"><ele>1116.5</ele><time>2026-04-19T10:07:04.006Z</time></trkpt><trkpt lat="44.3112845" lon="10.2294354"><ele>1122.0</ele><time>2026-04-19T10:07:05.006Z</time></trkpt><trkpt lat="44.3113915" lon="10.2293182"><ele>1120.0</ele><time>2026-04-19T10:07:06.005Z</time></trkpt><trkpt lat="44.3114867" lon="10.2291459"><ele>1118.0</ele><time>2026-04-19T10:07:07.006Z</time></trkpt><trkpt lat="44.311574" lon="10.2289629"><ele>1116.0</ele><time>2026-04-19T10:07:08.005Z</time></trkpt><trkpt lat="44.3116512" lon="10.2288112"><ele>1114.0</ele><time>2026-04-19T10:07:09.005Z</time></trkpt><trkpt lat="44.3117072" lon="10.2286682"><ele>1114.0</ele><time>2026-04-19T10:07:10.006Z</time></trkpt><trkpt lat="44.311739" lon="10.2285237"><ele>1114.0</ele><time>2026-04-19T10:07:11.006Z</time></trkpt><trkpt lat="44.3117383" lon="10.228357"><ele>1114.0</ele><time>2026-04-19T10:07:12.005Z</time></trkpt><trkpt lat="44.3117122" lon="10.2281731"><ele>1114.0</ele><time>2026-04-19T10:07:13.006Z</time></trkpt><trkpt lat="44.3116644" lon="10.2279778"><ele>1114.0</ele><time>2026-04-19T10:07:14.005Z</time></trkpt><trkpt lat="44.3115833" lon="10.2277824"><ele>1114.0</ele><time>2026-04-19T10:07:15.006Z</time></trkpt><trkpt lat="44.3114687" lon="10.2275962"><ele>1114.0</ele><time>2026-04-19T10:07:16.006Z</time></trkpt><trkpt lat="44.3113251" lon="10.2274259"><ele>1117.0</ele><time>2026-04-19T10:07:17.006Z</time></trkpt><trkpt lat="44.3111736" lon="10.2272581"><ele>1120.0</ele><time>2026-04-19T10:07:18.006Z</time></trkpt><trkpt lat="44.3110196" lon="10.2270625"><ele>1123.0</ele><time>2026-04-19T10:07:19.006Z</time></trkpt><trkpt lat="44.3108798" lon="10.2268689"><ele>1123.0</ele><time>2026-04-19T10:07:20.006Z</time></trkpt><trkpt lat="44.3107539" lon="10.2266912"><ele>1123.0</ele><time>2026-04-19T10:07:21.006Z</time></trkpt><trkpt lat="44.3106442" lon="10.2265296"><ele>1123.0</ele><time>2026-04-19T10:07:22.006Z</time></trkpt><trkpt lat="44.3105594" lon="10.2264007"><ele>1125.0</ele><time>2026-04-19T10:07:23.006Z</time></trkpt><trkpt lat="44.310489" lon="10.2262929"><ele>1127.0</ele><time>2026-04-19T10:07:24.005Z</time></trkpt><trkpt lat="44.3104238" lon="10.2261924"><ele>1129.0</ele><time>2026-04-19T10:07:25.006Z</time></trkpt><trkpt lat="44.3103648" lon="10.2261017"><ele>1131.0</ele><time>2026-04-19T10:07:26.005Z</time></trkpt><trkpt lat="44.3103101" lon="10.2260201"><ele>1133.0</ele><time>2026-04-19T10:07:27.005Z</time></trkpt><trkpt lat="44.310255" lon="10.2259431"><ele>1135.0</ele><time>2026-04-19T10:07:28.005Z</time></trkpt><trkpt lat="44.3102051" lon="10.2258729"><ele>1135.0</ele><time>2026-04-19T10:07:29.006Z</time></trkpt><trkpt lat="44.3101515" lon="10.2257989"><ele>1135.0</ele><time>2026-04-19T10:07:30.005Z</time></trkpt><trkpt lat="44.3100959" lon="10.2257203"><ele>1135.0</ele><time>2026-04-19T10:07:31.006Z</time></trkpt><trkpt lat="44.3100341" lon="10.2256444"><ele>1135.0</ele><time>2026-04-19T10:07:32.005Z</time></trkpt><trkpt lat="44.3099655" lon="10.2255768"><ele>1135.0</ele><time>2026-04-19T10:07:33.006Z</time></trkpt><trkpt lat="44.3098859" lon="10.2255123"><ele>1135.0</ele><time>2026-04-19T10:07:34.006Z</time></trkpt><trkpt lat="44.309794" lon="10.2254466"><ele>1135.75</ele><time>2026-04-19T10:07:35.006Z</time></trkpt><trkpt lat="44.3096814" lon="10.2253691"><ele>1136.5</ele><time>2026-04-19T10:07:36.005Z</time></trkpt><trkpt lat="44.3095521" lon="10.2252904"><ele>1137.25</ele><time>2026-04-19T10:07:37.004Z</time></trkpt><trkpt lat="44.3094271" lon="10.225222"><ele>1138.0</ele><time>2026-04-19T10:07:38.005Z</time></trkpt><trkpt lat="44.3092887" lon="10.2251535"><ele>1138.0</ele><time>2026-04-19T10:07:39.006Z</time></trkpt><trkpt lat="44.3091413" lon="10.2250788"><ele>1138.0</ele><time>2026-04-19T10:07:40.006Z</time></trkpt><trkpt lat="44.3089932" lon="10.2249996"><ele>1138.0</ele><time>2026-04-19T10:07:41.006Z</time></trkpt><trkpt lat="44.3088612" lon="10.224927"><ele>1137.5</ele><time>2026-04-19T10:07:42.005Z</time></trkpt><trkpt lat="44.3087282" lon="10.224853"><ele>1137.0</ele><time>2026-04-19T10:07:43.006Z</time></trkpt><trkpt lat="44.3085966" lon="10.2247834"><ele>1136.5</ele><time>2026-04-19T10:07:44.005Z</time></trkpt><trkpt lat="44.3084633" lon="10.2247287"><ele>1136.0</ele><time>2026-04-19T10:07:45.006Z</time></trkpt><trkpt lat="44.308325" lon="10.2246885"><ele>1136.0</ele><time>2026-04-19T10:07:46.004Z</time></trkpt><trkpt lat="44.308183" lon="10.2246611"><ele>1136.0</ele><time>2026-04-19T10:07:47.005Z</time></trkpt><trkpt lat="44.3080315" lon="10.2246495"><ele>1136.0</ele><time>2026-04-19T10:07:48.005Z</time></trkpt><trkpt lat="44.3078667" lon="10.2246491"><ele>1139.3333333333335</ele><time>2026-04-19T10:07:49.004Z</time></trkpt><trkpt lat="44.3076932" lon="10.224677"><ele>1142.6666666666667</ele><time>2026-04-19T10:07:50.005Z</time></trkpt><trkpt lat="44.3075255" lon="10.2247188"><ele>1146.0</ele><time>2026-04-19T10:07:51.006Z</time></trkpt><trkpt lat="44.3073512" lon="10.2247718"><ele>1150.6666666666667</ele><time>2026-04-19T10:07:52.005Z</time></trkpt><trkpt lat="44.3071822" lon="10.2248292"><ele>1155.3333333333335</ele><time>2026-04-19T10:07:53.005Z</time></trkpt><trkpt lat="44.3070277" lon="10.2248798"><ele>1160.0</ele><time>2026-04-19T10:07:54.006Z</time></trkpt><trkpt lat="44.3068697" lon="10.2249235"><ele>1160.0</ele><time>2026-04-19T10:07:55.006Z</time></trkpt><trkpt lat="44.306715" lon="10.2249621"><ele>1160.0</ele><time>2026-04-19T10:07:56.004Z</time></trkpt><trkpt lat="44.3065563" lon="10.2249927"><ele>1160.0</ele><time>2026-04-19T10:07:57.006Z</time></trkpt><trkpt lat="44.3064012" lon="10.2250153"><ele>1159.5</ele><time>2026-04-19T10:07:58.006Z</time></trkpt><trkpt lat="44.3062475" lon="10.2250374"><ele>1159.0</ele><time>2026-04-19T10:07:59.006Z</time></trkpt><trkpt lat="44.3060998" lon="10.2250703"><ele>1158.5</ele><time>2026-04-19T10:08:00.005Z</time></trkpt><trkpt lat="44.3059631" lon="10.2251152"><ele>1158.0</ele><time>2026-04-19T10:08:01.006Z</time></trkpt><trkpt lat="44.305829" lon="10.225174"><ele>1158.0</ele><time>2026-04-19T10:08:02.005Z</time></trkpt><trkpt lat="44.3056956" lon="10.22524"><ele>1158.0</ele><time>2026-04-19T10:08:03.006Z</time></trkpt><trkpt lat="44.3055657" lon="10.2253177"><ele>1158.0</ele><time>2026-04-19T10:08:04.006Z</time></trkpt><trkpt lat="44.3054384" lon="10.2254041"><ele>1158.0</ele><time>2026-04-19T10:08:05.005Z</time></trkpt><trkpt lat="44.3053084" lon="10.2255053"><ele>1158.5</ele><time>2026-04-19T10:08:06.005Z</time></trkpt><trkpt lat="44.3051996" lon="10.2256091"><ele>1159.0</ele><time>2026-04-19T10:08:07.006Z</time></trkpt><trkpt lat="44.3050976" lon="10.2257034"><ele>1159.5</ele><time>2026-04-19T10:08:08.006Z</time></trkpt><trkpt lat="44.3049966" lon="10.225775"><ele>1160.0</ele><time>2026-04-19T10:08:09.006Z</time></trkpt><trkpt lat="44.3049037" lon="10.2258128"><ele>1162.4</ele><time>2026-04-19T10:08:10.005Z</time></trkpt><trkpt lat="44.3048266" lon="10.2258156"><ele>1164.8</ele><time>2026-04-19T10:08:11.006Z</time></trkpt><trkpt lat="44.3047509" lon="10.2257782"><ele>1167.2</ele><time>2026-04-19T10:08:12.006Z</time></trkpt><trkpt lat="44.3046893" lon="10.2256936"><ele>1169.6</ele><time>2026-04-19T10:08:13.005Z</time></trkpt><trkpt lat="44.3046483" lon="10.2255598"><ele>1172.0</ele><time>2026-04-19T10:08:14.005Z</time></trkpt><trkpt lat="44.3046257" lon="10.2253864"><ele>1174.5</ele><time>2026-04-19T10:08:15.005Z</time></trkpt><trkpt lat="44.3046063" lon="10.225199"><ele>1177.0</ele><time>2026-04-19T10:08:16.005Z</time></trkpt><trkpt lat="44.3045813" lon="10.2249878"><ele>1179.5</ele><time>2026-04-19T10:08:17.006Z</time></trkpt><trkpt lat="44.3045526" lon="10.224782"><ele>1182.0</ele><time>2026-04-19T10:08:18.006Z</time></trkpt><trkpt lat="44.3045464" lon="10.2245849"><ele>1185.6666666666667</ele><time>2026-04-19T10:08:19.005Z</time></trkpt><trkpt lat="44.3045698" lon="10.2243811"><ele>1189.3333333333335</ele><time>2026-04-19T10:08:20.005Z</time></trkpt><trkpt lat="44.3046229" lon="10.2241719"><ele>1193.0</ele><time>2026-04-19T10:08:21.006Z</time></trkpt><trkpt lat="44.3046898" lon="10.2239757"><ele>1191.6666666666667</ele><time>2026-04-19T10:08:22.005Z</time></trkpt><trkpt lat="44.3047747" lon="10.2238024"><ele>1190.3333333333333</ele><time>2026-04-19T10:08:23.005Z</time></trkpt><trkpt lat="44.3048965" lon="10.2236545"><ele>1189.0</ele><time>2026-04-19T10:08:24.006Z</time></trkpt><trkpt lat="44.3050231" lon="10.2235057"><ele>1189.0</ele><time>2026-04-19T10:08:25.005Z</time></trkpt><trkpt lat="44.3051594" lon="10.2233446"><ele>1189.0</ele><time>2026-04-19T10:08:26.005Z</time></trkpt><trkpt lat="44.3052724" lon="10.223131"><ele>1189.0</ele><time>2026-04-19T10:08:27.006Z</time></trkpt><trkpt lat="44.3053935" lon="10.2229205"><ele>1187.3333333333333</ele><time>2026-04-19T10:08:28.006Z</time></trkpt><trkpt lat="44.305503" lon="10.2227271"><ele>1185.6666666666667</ele><time>2026-04-19T10:08:29.006Z</time></trkpt><trkpt lat="44.3055981" lon="10.222515"><ele>1184.0</ele><time>2026-04-19T10:08:30.006Z</time></trkpt><trkpt lat="44.3056625" lon="10.2223057"><ele>1189.75</ele><time>2026-04-19T10:08:31.006Z</time></trkpt><trkpt lat="44.3057107" lon="10.2221148"><ele>1195.5</ele><time>2026-04-19T10:08:32.006Z</time></trkpt><trkpt lat="44.3057559" lon="10.2219437"><ele>1201.25</ele><time>2026-04-19T10:08:33.006Z</time></trkpt><trkpt lat="44.3058122" lon="10.2217998"><ele>1207.0</ele><time>2026-04-19T10:08:34.006Z</time></trkpt><trkpt lat="44.3058971" lon="10.2216669"><ele>1207.0</ele><time>2026-04-19T10:08:35.005Z</time></trkpt><trkpt lat="44.3060112" lon="10.2215732"><ele>1207.0</ele><time>2026-04-19T10:08:36.006Z</time></trkpt><trkpt lat="44.3061515" lon="10.2215153"><ele>1207.0</ele><time>2026-04-19T10:08:37.004Z</time></trkpt><trkpt lat="44.306314" lon="10.2214835"><ele>1207.0</ele><time>2026-04-19T10:08:38.005Z</time></trkpt><trkpt lat="44.3064902" lon="10.2214554"><ele>1209.6666666666665</ele><time>2026-04-19T10:08:39.005Z</time></trkpt><trkpt lat="44.3066572" lon="10.2214071"><ele>1212.3333333333333</ele><time>2026-04-19T10:08:40.006Z</time></trkpt><trkpt lat="44.3068302" lon="10.221329"><ele>1215.0</ele><time>2026-04-19T10:08:41.006Z</time></trkpt><trkpt lat="44.3069915" lon="10.2212228"><ele>1215.0</ele><time>2026-04-19T10:08:42.005Z</time></trkpt><trkpt lat="44.307157" lon="10.2210809"><ele>1215.0</ele><time>2026-04-19T10:08:43.006Z</time></trkpt><trkpt lat="44.3073008" lon="10.2209339"><ele>1215.0</ele><time>2026-04-19T10:08:44.005Z</time></trkpt><trkpt lat="44.3074257" lon="10.2208067"><ele>1215.0</ele><time>2026-04-19T10:08:45.004Z</time></trkpt><trkpt lat="44.3075292" lon="10.2206947"><ele>1215.0</ele><time>2026-04-19T10:08:46.005Z</time></trkpt><trkpt lat="44.3076087" lon="10.2205795"><ele>1215.0</ele><time>2026-04-19T10:08:47.006Z</time></trkpt><trkpt lat="44.3076497" lon="10.2204423"><ele>1215.0</ele><time>2026-04-19T10:08:48.006Z</time></trkpt><trkpt lat="44.3076572" lon="10.2202923"><ele>1215.0</ele><time>2026-04-19T10:08:49.006Z</time></trkpt><trkpt lat="44.3076171" lon="10.2201516"><ele>1215.0</ele><time>2026-04-19T10:08:50.004Z</time></trkpt><trkpt lat="44.3075349" lon="10.2200344"><ele>1215.0</ele><time>2026-04-19T10:08:51.006Z</time></trkpt><trkpt lat="44.3074181" lon="10.2199429"><ele>1215.0</ele><time>2026-04-19T10:08:52.005Z</time></trkpt><trkpt lat="44.3072753" lon="10.2198582"><ele>1216.6666666666667</ele><time>2026-04-19T10:08:53.005Z</time></trkpt><trkpt lat="44.3071104" lon="10.2197909"><ele>1218.3333333333335</ele><time>2026-04-19T10:08:54.005Z</time></trkpt><trkpt lat="44.3069265" lon="10.2197667"><ele>1220.0</ele><time>2026-04-19T10:08:55.004Z</time></trkpt><trkpt lat="44.3067402" lon="10.2197677"><ele>1220.0</ele><time>2026-04-19T10:08:56.005Z</time></trkpt><trkpt lat="44.3065497" lon="10.2197911"><ele>1220.0</ele><time>2026-04-19T10:08:57.006Z</time></trkpt><trkpt lat="44.3063755" lon="10.2197894"><ele>1220.0</ele><time>2026-04-19T10:08:58.006Z</time></trkpt><trkpt lat="44.3062094" lon="10.2197554"><ele>1222.75</ele><time>2026-04-19T10:08:59.005Z</time></trkpt><trkpt lat="44.3060557" lon="10.2197053"><ele>1225.5</ele><time>2026-04-19T10:09:00.006Z</time></trkpt><trkpt lat="44.3059267" lon="10.2196505"><ele>1228.25</ele><time>2026-04-19T10:09:01.005Z</time></trkpt><trkpt lat="44.3058169" lon="10.2195802"><ele>1231.0</ele><time>2026-04-19T10:09:02.005Z</time></trkpt><trkpt lat="44.3057336" lon="10.2194933"><ele>1231.0</ele><time>2026-04-19T10:09:03.006Z</time></trkpt><trkpt lat="44.3056727" lon="10.2193847"><ele>1231.0</ele><time>2026-04-19T10:09:04.005Z</time></trkpt><trkpt lat="44.3056384" lon="10.2192483"><ele>1231.0</ele><time>2026-04-19T10:09:05.006Z</time></trkpt><trkpt lat="44.3056361" lon="10.2191073"><ele>1231.0</ele><time>2026-04-19T10:09:06.005Z</time></trkpt><trkpt lat="44.3056567" lon="10.2189643"><ele>1231.0</ele><time>2026-04-19T10:09:07.005Z</time></trkpt><trkpt lat="44.3056931" lon="10.2188213"><ele>1231.8</ele><time>2026-04-19T10:09:08.005Z</time></trkpt><trkpt lat="44.3057369" lon="10.2186749"><ele>1232.6</ele><time>2026-04-19T10:09:09.004Z</time></trkpt><trkpt lat="44.3057658" lon="10.2185279"><ele>1233.4</ele><time>2026-04-19T10:09:10.006Z</time></trkpt><trkpt lat="44.3057741" lon="10.218395"><ele>1234.2</ele><time>2026-04-19T10:09:11.006Z</time></trkpt><trkpt lat="44.3057532" lon="10.218265"><ele>1235.0</ele><time>2026-04-19T10:09:12.005Z</time></trkpt><trkpt lat="44.3057043" lon="10.2181533"><ele>1233.8</ele><time>2026-04-19T10:09:13.006Z</time></trkpt><trkpt lat="44.3056356" lon="10.2180499"><ele>1232.6</ele><time>2026-04-19T10:09:14.006Z</time></trkpt><trkpt lat="44.3055521" lon="10.217949"><ele>1231.4</ele><time>2026-04-19T10:09:15.005Z</time></trkpt><trkpt lat="44.3054656" lon="10.2178503"><ele>1230.2</ele><time>2026-04-19T10:09:16.006Z</time></trkpt><trkpt lat="44.3053767" lon="10.2177484"><ele>1229.0</ele><time>2026-04-19T10:09:17.006Z</time></trkpt><trkpt lat="44.3052874" lon="10.2176456"><ele>1230.5</ele><time>2026-04-19T10:09:18.006Z</time></trkpt><trkpt lat="44.3051992" lon="10.2175399"><ele>1232.0</ele><time>2026-04-19T10:09:19.005Z</time></trkpt><trkpt lat="44.3051118" lon="10.2174336"><ele>1233.5</ele><time>2026-04-19T10:09:20.005Z</time></trkpt><trkpt lat="44.3050213" lon="10.2173255"><ele>1235.0</ele><time>2026-04-19T10:09:21.005Z</time></trkpt><trkpt lat="44.3049237" lon="10.2172162"><ele>1235.0</ele><time>2026-04-19T10:09:22.006Z</time></trkpt><trkpt lat="44.304831" lon="10.2171268"><ele>1235.0</ele><time>2026-04-19T10:09:23.006Z</time></trkpt><trkpt lat="44.3047353" lon="10.217055"><ele>1235.0</ele><time>2026-04-19T10:09:24.006Z</time></trkpt><trkpt lat="44.3046483" lon="10.2170067"><ele>1235.0</ele><time>2026-04-19T10:09:25.006Z</time></trkpt><trkpt lat="44.3045683" lon="10.2169895"><ele>1235.0</ele><time>2026-04-19T10:09:26.004Z</time></trkpt><trkpt lat="44.3044876" lon="10.2169806"><ele>1237.1666666666667</ele><time>2026-04-19T10:09:27.006Z</time></trkpt><trkpt lat="44.3044016" lon="10.2169922"><ele>1239.3333333333335</ele><time>2026-04-19T10:09:28.005Z</time></trkpt><trkpt lat="44.3043267" lon="10.2170113"><ele>1241.5</ele><time>2026-04-19T10:09:29.006Z</time></trkpt><trkpt lat="44.3042533" lon="10.2170382"><ele>1243.6666666666667</ele><time>2026-04-19T10:09:30.006Z</time></trkpt><trkpt lat="44.3041918" lon="10.2170622"><ele>1245.8333333333333</ele><time>2026-04-19T10:09:31.004Z</time></trkpt><trkpt lat="44.3041178" lon="10.2171028"><ele>1248.0</ele><time>2026-04-19T10:09:33.005Z</time></trkpt><trkpt lat="44.3040745" lon="10.2171764"><ele>1248.0</ele><time>2026-04-19T10:09:41.006Z</time></trkpt><trkpt lat="44.304098" lon="10.2173159"><ele>1248.0</ele><time>2026-04-19T10:09:43.006Z</time></trkpt><trkpt lat="44.3041589" lon="10.2174676"><ele>1248.0</ele><time>2026-04-19T10:09:45.006Z</time></trkpt><trkpt lat="44.3041849" lon="10.2175498"><ele>1248.0</ele><time>2026-04-19T10:09:46.004Z</time></trkpt><trkpt lat="44.3042097" lon="10.2176429"><ele>1248.0</ele><time>2026-04-19T10:09:47.005Z</time></trkpt><trkpt lat="44.3042337" lon="10.2177454"><ele>1248.0</ele><time>2026-04-19T10:09:48.005Z</time></trkpt><trkpt lat="44.3042609" lon="10.2178656"><ele>1249.0</ele><time>2026-04-19T10:09:49.005Z</time></trkpt><trkpt lat="44.3042898" lon="10.2179977"><ele>1250.0</ele><time>2026-04-19T10:09:50.005Z</time></trkpt><trkpt lat="44.304319" lon="10.2181367"><ele>1251.0</ele><time>2026-04-19T10:09:51.005Z</time></trkpt><trkpt lat="44.3043476" lon="10.2182747"><ele>1252.0</ele><time>2026-04-19T10:09:52.005Z</time></trkpt><trkpt lat="44.3043778" lon="10.218418"><ele>1253.0</ele><time>2026-04-19T10:09:53.006Z</time></trkpt><trkpt lat="44.3044094" lon="10.2185693"><ele>1253.6</ele><time>2026-04-19T10:09:54.005Z</time></trkpt><trkpt lat="44.3044447" lon="10.2187299"><ele>1254.1999999999998</ele><time>2026-04-19T10:09:55.005Z</time></trkpt><trkpt lat="44.304473" lon="10.2188816"><ele>1254.8</ele><time>2026-04-19T10:09:56.006Z</time></trkpt><trkpt lat="44.3044859" lon="10.219029"><ele>1255.3999999999999</ele><time>2026-04-19T10:09:57.006Z</time></trkpt><trkpt lat="44.3044804" lon="10.2191798"><ele>1256.0</ele><time>2026-04-19T10:09:58.005Z</time></trkpt><trkpt lat="44.3044557" lon="10.2193413"><ele>1255.6666666666667</ele><time>2026-04-19T10:09:59.006Z</time></trkpt><trkpt lat="44.3044191" lon="10.2195078"><ele>1255.3333333333333</ele><time>2026-04-19T10:10:00.006Z</time></trkpt><trkpt lat="44.3043704" lon="10.2197058"><ele>1255.0</ele><time>2026-04-19T10:10:01.006Z</time></trkpt><trkpt lat="44.3043111" lon="10.219937"><ele>1255.0</ele><time>2026-04-19T10:10:02.006Z</time></trkpt><trkpt lat="44.3042505" lon="10.2201638"><ele>1255.0</ele><time>2026-04-19T10:10:03.005Z</time></trkpt><trkpt lat="44.3041896" lon="10.2204028"><ele>1255.0</ele><time>2026-04-19T10:10:04.005Z</time></trkpt><trkpt lat="44.3041322" lon="10.2206372"><ele>1254.6666666666665</ele><time>2026-04-19T10:10:05.006Z</time></trkpt><trkpt lat="44.3040774" lon="10.220847"><ele>1254.3333333333333</ele><time>2026-04-19T10:10:06.004Z</time></trkpt><trkpt lat="44.3040205" lon="10.2210394"><ele>1254.0</ele><time>2026-04-19T10:10:07.006Z</time></trkpt><trkpt lat="44.3039474" lon="10.2212082"><ele>1255.6666666666667</ele><time>2026-04-19T10:10:08.006Z</time></trkpt><trkpt lat="44.3038533" lon="10.2213688"><ele>1257.3333333333335</ele><time>2026-04-19T10:10:09.005Z</time></trkpt><trkpt lat="44.3037286" lon="10.2215328"><ele>1259.0</ele><time>2026-04-19T10:10:10.005Z</time></trkpt><trkpt lat="44.3035824" lon="10.221706"><ele>1259.3333333333335</ele><time>2026-04-19T10:10:11.004Z</time></trkpt><trkpt lat="44.3034343" lon="10.2218837"><ele>1259.6666666666667</ele><time>2026-04-19T10:10:12.005Z</time></trkpt><trkpt lat="44.3032961" lon="10.2220448"><ele>1260.0</ele><time>2026-04-19T10:10:13.006Z</time></trkpt><trkpt lat="44.3031619" lon="10.2221967"><ele>1258.3333333333333</ele><time>2026-04-19T10:10:14.005Z</time></trkpt><trkpt lat="44.3030328" lon="10.2223364"><ele>1256.6666666666665</ele><time>2026-04-19T10:10:15.005Z</time></trkpt><trkpt lat="44.3029067" lon="10.2224618"><ele>1255.0</ele><time>2026-04-19T10:10:16.006Z</time></trkpt><trkpt lat="44.3027836" lon="10.2225702"><ele>1255.0</ele><time>2026-04-19T10:10:17.006Z</time></trkpt><trkpt lat="44.3026647" lon="10.2226721"><ele>1255.0</ele><time>2026-04-19T10:10:18.005Z</time></trkpt><trkpt lat="44.3025443" lon="10.222779"><ele>1255.0</ele><time>2026-04-19T10:10:19.005Z</time></trkpt><trkpt lat="44.3024216" lon="10.2228883"><ele>1255.0</ele><time>2026-04-19T10:10:20.005Z</time></trkpt><trkpt lat="44.3023037" lon="10.2229872"><ele>1255.5</ele><time>2026-04-19T10:10:21.006Z</time></trkpt><trkpt lat="44.3021854" lon="10.2230915"><ele>1256.0</ele><time>2026-04-19T10:10:22.005Z</time></trkpt><trkpt lat="44.3020658" lon="10.2232043"><ele>1256.5</ele><time>2026-04-19T10:10:23.006Z</time></trkpt><trkpt lat="44.3019515" lon="10.2233236"><ele>1257.0</ele><time>2026-04-19T10:10:24.004Z</time></trkpt><trkpt lat="44.3018481" lon="10.2234533"><ele>1257.0</ele><time>2026-04-19T10:10:25.005Z</time></trkpt><trkpt lat="44.3017501" lon="10.2235973"><ele>1257.0</ele><time>2026-04-19T10:10:26.005Z</time></trkpt><trkpt lat="44.3016575" lon="10.2237461"><ele>1257.0</ele><time>2026-04-19T10:10:27.006Z</time></trkpt><trkpt lat="44.3015733" lon="10.2238891"><ele>1257.0</ele><time>2026-04-19T10:10:28.005Z</time></trkpt><trkpt lat="44.3014881" lon="10.2240377"><ele>1257.25</ele><time>2026-04-19T10:10:29.006Z</time></trkpt><trkpt lat="44.3014008" lon="10.2241639"><ele>1257.5</ele><time>2026-04-19T10:10:30.006Z</time></trkpt><trkpt lat="44.3013006" lon="10.2242784"><ele>1257.75</ele><time>2026-04-19T10:10:31.005Z</time></trkpt><trkpt lat="44.3011905" lon="10.2243734"><ele>1258.0</ele><time>2026-04-19T10:10:32.006Z</time></trkpt><trkpt lat="44.3010682" lon="10.2244391"><ele>1258.0</ele><time>2026-04-19T10:10:33.006Z</time></trkpt><trkpt lat="44.300941" lon="10.2245026"><ele>1258.0</ele><time>2026-04-19T10:10:34.005Z</time></trkpt><trkpt lat="44.3008207" lon="10.2245592"><ele>1258.0</ele><time>2026-04-19T10:10:35.005Z</time></trkpt><trkpt lat="44.3007064" lon="10.2246108"><ele>1258.0</ele><time>2026-04-19T10:10:36.006Z</time></trkpt><trkpt lat="44.300592" lon="10.2246711"><ele>1257.6</ele><time>2026-04-19T10:10:37.004Z</time></trkpt><trkpt lat="44.3004872" lon="10.2247231"><ele>1257.1999999999998</ele><time>2026-04-19T10:10:38.006Z</time></trkpt><trkpt lat="44.3003938" lon="10.2247753"><ele>1256.8</ele><time>2026-04-19T10:10:39.005Z</time></trkpt><trkpt lat="44.3003139" lon="10.2248364"><ele>1256.3999999999999</ele><time>2026-04-19T10:10:40.006Z</time></trkpt><trkpt lat="44.3002488" lon="10.2249216"><ele>1256.0</ele><time>2026-04-19T10:10:41.006Z</time></trkpt><trkpt lat="44.3002075" lon="10.2250305"><ele>1257.6</ele><time>2026-04-19T10:10:42.005Z</time></trkpt><trkpt lat="44.3001864" lon="10.2251494"><ele>1259.1999999999998</ele><time>2026-04-19T10:10:43.006Z</time></trkpt><trkpt lat="44.3002096" lon="10.2252734"><ele>1260.8000000000002</ele><time>2026-04-19T10:10:44.005Z</time></trkpt><trkpt lat="44.3002572" lon="10.225389"><ele>1262.4</ele><time>2026-04-19T10:10:45.006Z</time></trkpt><trkpt lat="44.300334" lon="10.2254923"><ele>1264.0</ele><time>2026-04-19T10:10:46.005Z</time></trkpt><trkpt lat="44.300445" lon="10.2255865"><ele>1266.5</ele><time>2026-04-19T10:10:47.005Z</time></trkpt><trkpt lat="44.3005683" lon="10.2256969"><ele>1269.0</ele><time>2026-04-19T10:10:48.005Z</time></trkpt><trkpt lat="44.30068" lon="10.225799"><ele>1271.5</ele><time>2026-04-19T10:10:49.005Z</time></trkpt><trkpt lat="44.3007835" lon="10.2258945"><ele>1274.0</ele><time>2026-04-19T10:10:50.005Z</time></trkpt><trkpt lat="44.300883" lon="10.2259958"><ele>1274.0</ele><time>2026-04-19T10:10:51.004Z</time></trkpt><trkpt lat="44.3009648" lon="10.2261154"><ele>1274.0</ele><time>2026-04-19T10:10:52.005Z</time></trkpt><trkpt lat="44.3010267" lon="10.22626"><ele>1274.0</ele><time>2026-04-19T10:10:53.006Z</time></trkpt><trkpt lat="44.3010654" lon="10.2264213"><ele>1274.0</ele><time>2026-04-19T10:10:54.005Z</time></trkpt><trkpt lat="44.3010886" lon="10.2265822"><ele>1277.4</ele><time>2026-04-19T10:10:55.005Z</time></trkpt><trkpt lat="44.3011111" lon="10.2267356"><ele>1280.8000000000002</ele><time>2026-04-19T10:10:56.005Z</time></trkpt><trkpt lat="44.3011329" lon="10.2268814"><ele>1284.1999999999998</ele><time>2026-04-19T10:10:57.006Z</time></trkpt><trkpt lat="44.3011641" lon="10.2270261"><ele>1287.6</ele><time>2026-04-19T10:10:58.006Z</time></trkpt><trkpt lat="44.3012106" lon="10.2271682"><ele>1291.0</ele><time>2026-04-19T10:10:59.005Z</time></trkpt><trkpt lat="44.3012735" lon="10.2273049"><ele>1293.0</ele><time>2026-04-19T10:11:00.006Z</time></trkpt><trkpt lat="44.3013384" lon="10.2274348"><ele>1295.0</ele><time>2026-04-19T10:11:01.006Z</time></trkpt><trkpt lat="44.3013937" lon="10.2275656"><ele>1297.0</ele><time>2026-04-19T10:11:02.005Z</time></trkpt><trkpt lat="44.3014391" lon="10.2277059"><ele>1299.0</ele><time>2026-04-19T10:11:03.006Z</time></trkpt><trkpt lat="44.3014649" lon="10.2278616"><ele>1301.0</ele><time>2026-04-19T10:11:04.005Z</time></trkpt><trkpt lat="44.3014775" lon="10.2280233"><ele>1302.25</ele><time>2026-04-19T10:11:05.006Z</time></trkpt><trkpt lat="44.3014757" lon="10.2281914"><ele>1303.5</ele><time>2026-04-19T10:11:06.004Z</time></trkpt><trkpt lat="44.301458" lon="10.2283627"><ele>1304.75</ele><time>2026-04-19T10:11:07.006Z</time></trkpt><trkpt lat="44.3014232" lon="10.228532"><ele>1306.0</ele><time>2026-04-19T10:11:08.005Z</time></trkpt><trkpt lat="44.3013737" lon="10.2286914"><ele>1306.0</ele><time>2026-04-19T10:11:09.006Z</time></trkpt><trkpt lat="44.3013089" lon="10.2288255"><ele>1306.0</ele><time>2026-04-19T10:11:10.006Z</time></trkpt><trkpt lat="44.3012467" lon="10.2289526"><ele>1306.0</ele><time>2026-04-19T10:11:11.005Z</time></trkpt><trkpt lat="44.3011843" lon="10.2290836"><ele>1306.0</ele><time>2026-04-19T10:11:12.006Z</time></trkpt><trkpt lat="44.3011204" lon="10.2292157"><ele>1306.1999999999998</ele><time>2026-04-19T10:11:13.006Z</time></trkpt><trkpt lat="44.3010542" lon="10.2293464"><ele>1306.3999999999999</ele><time>2026-04-19T10:11:14.006Z</time></trkpt><trkpt lat="44.3009723" lon="10.2294606"><ele>1306.6</ele><time>2026-04-19T10:11:15.006Z</time></trkpt><trkpt lat="44.3008833" lon="10.2295493"><ele>1306.8</ele><time>2026-04-19T10:11:16.004Z</time></trkpt><trkpt lat="44.300792" lon="10.2296219"><ele>1307.0</ele><time>2026-04-19T10:11:17.005Z</time></trkpt><trkpt lat="44.3007001" lon="10.2296854"><ele>1307.0</ele><time>2026-04-19T10:11:18.005Z</time></trkpt><trkpt lat="44.3006154" lon="10.2297448"><ele>1307.0</ele><time>2026-04-19T10:11:19.006Z</time></trkpt><trkpt lat="44.3005349" lon="10.2298131"><ele>1307.0</ele><time>2026-04-19T10:11:20.005Z</time></trkpt><trkpt lat="44.3004693" lon="10.2299062"><ele>1307.0</ele><time>2026-04-19T10:11:21.005Z</time></trkpt><trkpt lat="44.3004281" lon="10.230017"><ele>1307.0</ele><time>2026-04-19T10:11:22.006Z</time></trkpt><trkpt lat="44.300414" lon="10.2301317"><ele>1307.1999999999998</ele><time>2026-04-19T10:11:23.005Z</time></trkpt><trkpt lat="44.3004281" lon="10.2302499"><ele>1307.4</ele><time>2026-04-19T10:11:24.006Z</time></trkpt><trkpt lat="44.3004659" lon="10.230365"><ele>1307.6</ele><time>2026-04-19T10:11:25.005Z</time></trkpt><trkpt lat="44.3005206" lon="10.230476"><ele>1307.8000000000002</ele><time>2026-04-19T10:11:26.005Z</time></trkpt><trkpt lat="44.3005863" lon="10.2305837"><ele>1308.0</ele><time>2026-04-19T10:11:27.006Z</time></trkpt><trkpt lat="44.300648" lon="10.2306914"><ele>1309.0</ele><time>2026-04-19T10:11:28.005Z</time></trkpt><trkpt lat="44.3007037" lon="10.2308145"><ele>1310.0</ele><time>2026-04-19T10:11:29.004Z</time></trkpt><trkpt lat="44.3007397" lon="10.2309571"><ele>1311.0</ele><time>2026-04-19T10:11:30.005Z</time></trkpt><trkpt lat="44.3007513" lon="10.2311148"><ele>1312.0</ele><time>2026-04-19T10:11:31.006Z</time></trkpt><trkpt lat="44.3007394" lon="10.2312848"><ele>1313.0</ele><time>2026-04-19T10:11:32.006Z</time></trkpt><trkpt lat="44.3007093" lon="10.2314671"><ele>1313.75</ele><time>2026-04-19T10:11:33.006Z</time></trkpt><trkpt lat="44.3006783" lon="10.2316472"><ele>1314.5</ele><time>2026-04-19T10:11:34.004Z</time></trkpt><trkpt lat="44.3006484" lon="10.2318173"><ele>1315.25</ele><time>2026-04-19T10:11:35.006Z</time></trkpt><trkpt lat="44.3006177" lon="10.2319831"><ele>1316.0</ele><time>2026-04-19T10:11:36.006Z</time></trkpt><trkpt lat="44.3005879" lon="10.2321463"><ele>1321.5</ele><time>2026-04-19T10:11:37.005Z</time></trkpt><trkpt lat="44.3005544" lon="10.2323093"><ele>1327.0</ele><time>2026-04-19T10:11:38.005Z</time></trkpt><trkpt lat="44.3005155" lon="10.2324724"><ele>1332.5</ele><time>2026-04-19T10:11:39.005Z</time></trkpt><trkpt lat="44.3004711" lon="10.2326324"><ele>1338.0</ele><time>2026-04-19T10:11:40.006Z</time></trkpt><trkpt lat="44.3004225" lon="10.2327936"><ele>1338.0</ele><time>2026-04-19T10:11:41.005Z</time></trkpt><trkpt lat="44.3003684" lon="10.2329555"><ele>1338.0</ele><time>2026-04-19T10:11:42.004Z</time></trkpt><trkpt lat="44.3003162" lon="10.2331191"><ele>1338.0</ele><time>2026-04-19T10:11:43.005Z</time></trkpt><trkpt lat="44.300266" lon="10.2332881"><ele>1338.0</ele><time>2026-04-19T10:11:44.006Z</time></trkpt><trkpt lat="44.3002178" lon="10.2334522"><ele>1337.6000000000001</ele><time>2026-04-19T10:11:45.004Z</time></trkpt><trkpt lat="44.3001746" lon="10.2336021"><ele>1337.2</ele><time>2026-04-19T10:11:46.006Z</time></trkpt><trkpt lat="44.3001399" lon="10.2337424"><ele>1336.8</ele><time>2026-04-19T10:11:47.006Z</time></trkpt><trkpt lat="44.3001196" lon="10.2338771"><ele>1336.4</ele><time>2026-04-19T10:11:48.006Z</time></trkpt><trkpt lat="44.3001218" lon="10.2340226"><ele>1336.0</ele><time>2026-04-19T10:11:49.006Z</time></trkpt><trkpt lat="44.3001454" lon="10.2341699"><ele>1335.25</ele><time>2026-04-19T10:11:50.006Z</time></trkpt><trkpt lat="44.3001881" lon="10.234317"><ele>1334.5</ele><time>2026-04-19T10:11:51.005Z</time></trkpt><trkpt lat="44.3002437" lon="10.2344672"><ele>1333.75</ele><time>2026-04-19T10:11:52.005Z</time></trkpt><trkpt lat="44.3003119" lon="10.234629"><ele>1333.0</ele><time>2026-04-19T10:11:53.005Z</time></trkpt><trkpt lat="44.3003812" lon="10.2348001"><ele>1334.0</ele><time>2026-04-19T10:11:54.005Z</time></trkpt><trkpt lat="44.3004613" lon="10.2349746"><ele>1335.0</ele><time>2026-04-19T10:11:55.005Z</time></trkpt><trkpt lat="44.3005493" lon="10.2351434"><ele>1336.0</ele><time>2026-04-19T10:11:56.005Z</time></trkpt><trkpt lat="44.3006378" lon="10.2352957"><ele>1337.0</ele><time>2026-04-19T10:11:57.006Z</time></trkpt><trkpt lat="44.3007255" lon="10.2354315"><ele>1334.75</ele><time>2026-04-19T10:11:58.004Z</time></trkpt><trkpt lat="44.3008126" lon="10.2355648"><ele>1332.5</ele><time>2026-04-19T10:11:59.005Z</time></trkpt><trkpt lat="44.3008928" lon="10.2356974"><ele>1330.25</ele><time>2026-04-19T10:12:00.004Z</time></trkpt><trkpt lat="44.3009586" lon="10.2358318"><ele>1328.0</ele><time>2026-04-19T10:12:01.005Z</time></trkpt><trkpt lat="44.301003" lon="10.2359816"><ele>1328.0</ele><time>2026-04-19T10:12:02.005Z</time></trkpt><trkpt lat="44.3010266" lon="10.2361409"><ele>1328.0</ele><time>2026-04-19T10:12:03.005Z</time></trkpt><trkpt lat="44.3010325" lon="10.2363043"><ele>1328.0</ele><time>2026-04-19T10:12:04.006Z</time></trkpt><trkpt lat="44.3010306" lon="10.2364717"><ele>1328.0</ele><time>2026-04-19T10:12:05.006Z</time></trkpt><trkpt lat="44.3010169" lon="10.2366264"><ele>1330.0</ele><time>2026-04-19T10:12:06.005Z</time></trkpt><trkpt lat="44.3009833" lon="10.2367731"><ele>1332.0</ele><time>2026-04-19T10:12:07.004Z</time></trkpt><trkpt lat="44.3009313" lon="10.236906"><ele>1334.0</ele><time>2026-04-19T10:12:08.006Z</time></trkpt><trkpt lat="44.3008662" lon="10.2370233"><ele>1336.0</ele><time>2026-04-19T10:12:09.004Z</time></trkpt><trkpt lat="44.3007841" lon="10.2371282"><ele>1338.0</ele><time>2026-04-19T10:12:10.006Z</time></trkpt><trkpt lat="44.3006907" lon="10.2372297"><ele>1339.0</ele><time>2026-04-19T10:12:11.006Z</time></trkpt><trkpt lat="44.3005835" lon="10.2373305"><ele>1340.0</ele><time>2026-04-19T10:12:12.005Z</time></trkpt><trkpt lat="44.3004742" lon="10.2374416"><ele>1341.0</ele><time>2026-04-19T10:12:13.006Z</time></trkpt><trkpt lat="44.3003612" lon="10.2375582"><ele>1342.0</ele><time>2026-04-19T10:12:14.006Z</time></trkpt><trkpt lat="44.300239" lon="10.237677"><ele>1342.0</ele><time>2026-04-19T10:12:15.006Z</time></trkpt><trkpt lat="44.3001191" lon="10.237792"><ele>1342.0</ele><time>2026-04-19T10:12:16.006Z</time></trkpt><trkpt lat="44.3000017" lon="10.2379034"><ele>1342.0</ele><time>2026-04-19T10:12:17.006Z</time></trkpt><trkpt lat="44.2998832" lon="10.2380117"><ele>1342.0</ele><time>2026-04-19T10:12:18.005Z</time></trkpt><trkpt lat="44.2997722" lon="10.238112"><ele>1341.5</ele><time>2026-04-19T10:12:19.004Z</time></trkpt><trkpt lat="44.299667" lon="10.2382056"><ele>1341.0</ele><time>2026-04-19T10:12:20.006Z</time></trkpt><trkpt lat="44.2995685" lon="10.2382895"><ele>1340.5</ele><time>2026-04-19T10:12:21.006Z</time></trkpt><trkpt lat="44.2994769" lon="10.2383619"><ele>1340.0</ele><time>2026-04-19T10:12:22.006Z</time></trkpt><trkpt lat="44.2993847" lon="10.2384331"><ele>1340.0</ele><time>2026-04-19T10:12:23.005Z</time></trkpt><trkpt lat="44.2992899" lon="10.2385051"><ele>1340.0</ele><time>2026-04-19T10:12:24.005Z</time></trkpt><trkpt lat="44.2991961" lon="10.2385689"><ele>1340.0</ele><time>2026-04-19T10:12:25.006Z</time></trkpt><trkpt lat="44.2990989" lon="10.238633"><ele>1340.0</ele><time>2026-04-19T10:12:26.005Z</time></trkpt><trkpt lat="44.2990014" lon="10.2387024"><ele>1340.0</ele><time>2026-04-19T10:12:27.005Z</time></trkpt><trkpt lat="44.2989024" lon="10.2387754"><ele>1341.2</ele><time>2026-04-19T10:12:28.006Z</time></trkpt><trkpt lat="44.2988132" lon="10.2388477"><ele>1342.4</ele><time>2026-04-19T10:12:29.005Z</time></trkpt><trkpt lat="44.2987335" lon="10.238927"><ele>1343.6</ele><time>2026-04-19T10:12:30.005Z</time></trkpt><trkpt lat="44.2986642" lon="10.2390189"><ele>1344.8</ele><time>2026-04-19T10:12:31.005Z</time></trkpt><trkpt lat="44.2986105" lon="10.2391235"><ele>1346.0</ele><time>2026-04-19T10:12:32.006Z</time></trkpt><trkpt lat="44.2985831" lon="10.2392356"><ele>1346.0</ele><time>2026-04-19T10:12:33.006Z</time></trkpt><trkpt lat="44.2985753" lon="10.2393669"><ele>1346.0</ele><time>2026-04-19T10:12:34.005Z</time></trkpt><trkpt lat="44.2985934" lon="10.2395061"><ele>1346.0</ele><time>2026-04-19T10:12:35.006Z</time></trkpt><trkpt lat="44.2986319" lon="10.239648"><ele>1346.0</ele><time>2026-04-19T10:12:36.006Z</time></trkpt><trkpt lat="44.2986801" lon="10.2397987"><ele>1346.0</ele><time>2026-04-19T10:12:37.006Z</time></trkpt><trkpt lat="44.2987165" lon="10.2399625"><ele>1346.6</ele><time>2026-04-19T10:12:38.005Z</time></trkpt><trkpt lat="44.2987419" lon="10.2401266"><ele>1347.1999999999998</ele><time>2026-04-19T10:12:39.005Z</time></trkpt><trkpt lat="44.2987584" lon="10.240277"><ele>1347.8000000000002</ele><time>2026-04-19T10:12:40.006Z</time></trkpt><trkpt lat="44.2987513" lon="10.2404141"><ele>1348.4</ele><time>2026-04-19T10:12:41.006Z</time></trkpt><trkpt lat="44.2987195" lon="10.2405356"><ele>1349.0</ele><time>2026-04-19T10:12:42.006Z</time></trkpt><trkpt lat="44.2986788" lon="10.2406685"><ele>1350.6</ele><time>2026-04-19T10:12:43.005Z</time></trkpt><trkpt lat="44.2986561" lon="10.2408114"><ele>1352.2</ele><time>2026-04-19T10:12:44.006Z</time></trkpt><trkpt lat="44.2986643" lon="10.2409549"><ele>1353.8</ele><time>2026-04-19T10:12:45.006Z</time></trkpt><trkpt lat="44.2987012" lon="10.2410962"><ele>1355.3999999999999</ele><time>2026-04-19T10:12:46.006Z</time></trkpt><trkpt lat="44.2987651" lon="10.2412234"><ele>1357.0</ele><time>2026-04-19T10:12:47.006Z</time></trkpt><trkpt lat="44.2988422" lon="10.2413371"><ele>1357.0</ele><time>2026-04-19T10:12:48.006Z</time></trkpt><trkpt lat="44.2989015" lon="10.2414424"><ele>1357.0</ele><time>2026-04-19T10:12:49.005Z</time></trkpt><trkpt lat="44.2989435" lon="10.2415602"><ele>1357.0</ele><time>2026-04-19T10:12:50.006Z</time></trkpt><trkpt lat="44.2989553" lon="10.2416868"><ele>1357.0</ele><time>2026-04-19T10:12:51.005Z</time></trkpt><trkpt lat="44.2989351" lon="10.2418095"><ele>1357.0</ele><time>2026-04-19T10:12:52.005Z</time></trkpt><trkpt lat="44.2988903" lon="10.2419275"><ele>1356.6</ele><time>2026-04-19T10:12:53.006Z</time></trkpt><trkpt lat="44.2988286" lon="10.2420481"><ele>1356.1999999999998</ele><time>2026-04-19T10:12:54.005Z</time></trkpt><trkpt lat="44.2987584" lon="10.2421656"><ele>1355.8</ele><time>2026-04-19T10:12:55.006Z</time></trkpt><trkpt lat="44.2986896" lon="10.2422788"><ele>1355.4</ele><time>2026-04-19T10:12:56.005Z</time></trkpt><trkpt lat="44.298626" lon="10.2423803"><ele>1355.0</ele><time>2026-04-19T10:12:57.005Z</time></trkpt><trkpt lat="44.2985658" lon="10.2424726"><ele>1355.0</ele><time>2026-04-19T10:12:58.006Z</time></trkpt><trkpt lat="44.2985066" lon="10.2425574"><ele>1355.0</ele><time>2026-04-19T10:12:59.006Z</time></trkpt><trkpt lat="44.2984417" lon="10.2426418"><ele>1355.0</ele><time>2026-04-19T10:13:00.006Z</time></trkpt><trkpt lat="44.2983748" lon="10.2427274"><ele>1355.0</ele><time>2026-04-19T10:13:01.006Z</time></trkpt><trkpt lat="44.2983039" lon="10.2428175"><ele>1355.0</ele><time>2026-04-19T10:13:02.005Z</time></trkpt><trkpt lat="44.2982315" lon="10.2429016"><ele>1355.0</ele><time>2026-04-19T10:13:03.005Z</time></trkpt><trkpt lat="44.2981657" lon="10.2429781"><ele>1355.0</ele><time>2026-04-19T10:13:04.006Z</time></trkpt><trkpt lat="44.2981055" lon="10.2430504"><ele>1355.0</ele><time>2026-04-19T10:13:05.006Z</time></trkpt><trkpt lat="44.29805" lon="10.2431187"><ele>1355.0</ele><time>2026-04-19T10:13:06.004Z</time></trkpt><trkpt lat="44.2980006" lon="10.2431838"><ele>1355.0</ele><time>2026-04-19T10:13:07.005Z</time></trkpt><trkpt lat="44.2979551" lon="10.2432468"><ele>1355.0</ele><time>2026-04-19T10:13:08.006Z</time></trkpt><trkpt lat="44.2979034" lon="10.2433362"><ele>1355.0</ele><time>2026-04-19T10:13:10.005Z</time></trkpt><trkpt lat="44.2978534" lon="10.2434124"><ele>1355.0</ele><time>2026-04-19T10:13:12.006Z</time></trkpt><trkpt lat="44.297784" lon="10.2435145"><ele>1355.0</ele><time>2026-04-19T10:13:14.006Z</time></trkpt><trkpt lat="44.2977295" lon="10.2436284"><ele>1355.0</ele><time>2026-04-19T10:13:16.005Z</time></trkpt><trkpt lat="44.2977051" lon="10.2437425"><ele>1355.0</ele><time>2026-04-19T10:13:18.005Z</time></trkpt><trkpt lat="44.2977111" lon="10.2438595"><ele>1355.0</ele><time>2026-04-19T10:13:20.006Z</time></trkpt><trkpt lat="44.2977274" lon="10.2439655"><ele>1354.5714285714287</ele><time>2026-04-19T10:13:22.005Z</time></trkpt><trkpt lat="44.2977337" lon="10.2440885"><ele>1354.142857142857</ele><time>2026-04-19T10:13:25.005Z</time></trkpt><trkpt lat="44.2977282" lon="10.2441762"><ele>1353.7142857142858</ele><time>2026-04-19T10:13:27.005Z</time></trkpt><trkpt lat="44.2977252" lon="10.244271"><ele>1353.2857142857142</ele><time>2026-04-19T10:13:29.004Z</time></trkpt><trkpt lat="44.2977231" lon="10.2443833"><ele>1352.857142857143</ele><time>2026-04-19T10:13:32.006Z</time></trkpt><trkpt lat="44.2977108" lon="10.2444885"><ele>1352.4285714285716</ele><time>2026-04-19T10:13:57.006Z</time></trkpt><trkpt lat="44.2977811" lon="10.2445035"><ele>1352.0</ele><time>2026-04-19T10:14:01.005Z</time></trkpt><trkpt lat="44.2977902" lon="10.2443611"><ele>1352.0</ele><time>2026-04-19T10:14:03.006Z</time></trkpt><trkpt lat="44.2977797" lon="10.2442721"><ele>1352.0</ele><time>2026-04-19T10:14:05.005Z</time></trkpt><trkpt lat="44.2977712" lon="10.2441738"><ele>1352.0</ele><time>2026-04-19T10:14:07.005Z</time></trkpt><trkpt lat="44.2977959" lon="10.2440775"><ele>1352.0</ele><time>2026-04-19T10:14:09.005Z</time></trkpt><trkpt lat="44.2978144" lon="10.2439545"><ele>1352.0</ele><time>2026-04-19T10:14:11.006Z</time></trkpt><trkpt lat="44.2978039" lon="10.2438443"><ele>1352.0</ele><time>2026-04-19T10:14:13.005Z</time></trkpt><trkpt lat="44.2977839" lon="10.2437423"><ele>1355.0</ele><time>2026-04-19T10:14:15.005Z</time></trkpt><trkpt lat="44.2977377" lon="10.2436724"><ele>1355.0</ele><time>2026-04-19T10:14:17.006Z</time></trkpt><trkpt lat="44.2976674" lon="10.2436267"><ele>1355.0</ele><time>2026-04-19T10:14:19.006Z</time></trkpt><trkpt lat="44.2975959" lon="10.2435837"><ele>1355.0</ele><time>2026-04-19T10:14:22.004Z</time></trkpt><trkpt lat="44.297546" lon="10.2435216"><ele>1355.0</ele><time>2026-04-19T10:15:42.005Z</time></trkpt></trkseg><trkseg><trkpt lat="44.2975359" lon="10.2435625"><ele>1355.0</ele><time>2026-04-19T12:00:14.993Z</time></trkpt><trkpt lat="44.2975966" lon="10.2436246"><ele>1355.0</ele><time>2026-04-19T12:00:23.992Z</time></trkpt><trkpt lat="44.2976604" lon="10.2436467"><ele>1355.0</ele><time>2026-04-19T12:00:27.993Z</time></trkpt><trkpt lat="44.2977415" lon="10.2436249"><ele>1355.0</ele><time>2026-04-19T12:00:41.993Z</time></trkpt><trkpt lat="44.2978014" lon="10.2435648"><ele>1355.0</ele><time>2026-04-19T12:00:43.993Z</time></trkpt><trkpt lat="44.2978517" lon="10.243482"><ele>1355.0</ele><time>2026-04-19T12:00:45.992Z</time></trkpt><trkpt lat="44.2979006" lon="10.243383"><ele>1355.0</ele><time>2026-04-19T12:00:47.993Z</time></trkpt><trkpt lat="44.2979577" lon="10.2432824"><ele>1355.0</ele><time>2026-04-19T12:00:49.992Z</time></trkpt><trkpt lat="44.2980221" lon="10.2431891"><ele>1355.0</ele><time>2026-04-19T12:00:51.993Z</time></trkpt><trkpt lat="44.2981038" lon="10.2430884"><ele>1355.0</ele><time>2026-04-19T12:00:53.993Z</time></trkpt><trkpt lat="44.2982029" lon="10.2429847"><ele>1355.0</ele><time>2026-04-19T12:00:55.991Z</time></trkpt><trkpt lat="44.298263" lon="10.2429169"><ele>1355.0</ele><time>2026-04-19T12:00:56.992Z</time></trkpt><trkpt lat="44.2983265" lon="10.2428399"><ele>1355.0</ele><time>2026-04-19T12:00:57.992Z</time></trkpt><trkpt lat="44.2983923" lon="10.2427517"><ele>1355.0</ele><time>2026-04-19T12:00:58.993Z</time></trkpt><trkpt lat="44.2984622" lon="10.2426464"><ele>1355.0</ele><time>2026-04-19T12:00:59.993Z</time></trkpt><trkpt lat="44.2985286" lon="10.2425373"><ele>1355.0</ele><time>2026-04-19T12:01:00.992Z</time></trkpt><trkpt lat="44.2985955" lon="10.2424347"><ele>1355.0</ele><time>2026-04-19T12:01:01.993Z</time></trkpt><trkpt lat="44.2986631" lon="10.2423383"><ele>1355.0</ele><time>2026-04-19T12:01:02.992Z</time></trkpt><trkpt lat="44.2987291" lon="10.2422413"><ele>1355.0</ele><time>2026-04-19T12:01:03.993Z</time></trkpt><trkpt lat="44.298793" lon="10.2421434"><ele>1355.0</ele><time>2026-04-19T12:01:04.992Z</time></trkpt><trkpt lat="44.2988498" lon="10.2420483"><ele>1355.0</ele><time>2026-04-19T12:01:05.993Z</time></trkpt><trkpt lat="44.2988999" lon="10.2419523"><ele>1355.3333333333335</ele><time>2026-04-19T12:01:06.993Z</time></trkpt><trkpt lat="44.2989427" lon="10.2418536"><ele>1355.6666666666667</ele><time>2026-04-19T12:01:07.993Z</time></trkpt><trkpt lat="44.2989701" lon="10.2417473"><ele>1356.0</ele><time>2026-04-19T12:01:08.993Z</time></trkpt><trkpt lat="44.2989754" lon="10.2416395"><ele>1356.3333333333333</ele><time>2026-04-19T12:01:09.992Z</time></trkpt><trkpt lat="44.2989599" lon="10.2415421"><ele>1356.6666666666665</ele><time>2026-04-19T12:01:10.992Z</time></trkpt><trkpt lat="44.2989326" lon="10.2414521"><ele>1357.0</ele><time>2026-04-19T12:01:11.992Z</time></trkpt><trkpt lat="44.2989023" lon="10.2413589"><ele>1357.0</ele><time>2026-04-19T12:01:12.993Z</time></trkpt><trkpt lat="44.2988712" lon="10.241249"><ele>1357.0</ele><time>2026-04-19T12:01:13.993Z</time></trkpt><trkpt lat="44.298842" lon="10.2411291"><ele>1357.0</ele><time>2026-04-19T12:01:14.992Z</time></trkpt><trkpt lat="44.2988163" lon="10.2410016"><ele>1357.0</ele><time>2026-04-19T12:01:15.992Z</time></trkpt><trkpt lat="44.298794" lon="10.2408759"><ele>1357.0</ele><time>2026-04-19T12:01:16.993Z</time></trkpt><trkpt lat="44.2987775" lon="10.2407548"><ele>1357.0</ele><time>2026-04-19T12:01:17.992Z</time></trkpt><trkpt lat="44.2987732" lon="10.2406416"><ele>1357.0</ele><time>2026-04-19T12:01:18.993Z</time></trkpt><trkpt lat="44.2987762" lon="10.2405299"><ele>1357.0</ele><time>2026-04-19T12:01:19.992Z</time></trkpt><trkpt lat="44.2987866" lon="10.2404246"><ele>1357.0</ele><time>2026-04-19T12:01:20.992Z</time></trkpt><trkpt lat="44.2987996" lon="10.2403122"><ele>1357.0</ele><time>2026-04-19T12:01:21.993Z</time></trkpt><trkpt lat="44.2988016" lon="10.2401977"><ele>1357.0</ele><time>2026-04-19T12:01:22.992Z</time></trkpt><trkpt lat="44.2987884" lon="10.2400779"><ele>1355.3999999999999</ele><time>2026-04-19T12:01:23.992Z</time></trkpt><trkpt lat="44.2987603" lon="10.239952"><ele>1353.8</ele><time>2026-04-19T12:01:24.992Z</time></trkpt><trkpt lat="44.2987178" lon="10.239819"><ele>1352.2</ele><time>2026-04-19T12:01:25.992Z</time></trkpt><trkpt lat="44.2986684" lon="10.2396879"><ele>1350.6</ele><time>2026-04-19T12:01:26.991Z</time></trkpt><trkpt lat="44.2986268" lon="10.2395674"><ele>1349.0</ele><time>2026-04-19T12:01:27.993Z</time></trkpt><trkpt lat="44.2985968" lon="10.2394452"><ele>1349.1666666666667</ele><time>2026-04-19T12:01:28.993Z</time></trkpt><trkpt lat="44.2985902" lon="10.2393215"><ele>1349.3333333333335</ele><time>2026-04-19T12:01:29.992Z</time></trkpt><trkpt lat="44.2986084" lon="10.2392023"><ele>1349.5</ele><time>2026-04-19T12:01:30.992Z</time></trkpt><trkpt lat="44.2986517" lon="10.2390921"><ele>1349.6666666666667</ele><time>2026-04-19T12:01:31.992Z</time></trkpt><trkpt lat="44.2987118" lon="10.2390021"><ele>1349.8333333333333</ele><time>2026-04-19T12:01:32.992Z</time></trkpt><trkpt lat="44.2987858" lon="10.238921"><ele>1350.0</ele><time>2026-04-19T12:01:33.992Z</time></trkpt><trkpt lat="44.2988702" lon="10.2388455"><ele>1347.5</ele><time>2026-04-19T12:01:34.993Z</time></trkpt><trkpt lat="44.2989684" lon="10.2387714"><ele>1345.0</ele><time>2026-04-19T12:01:35.992Z</time></trkpt><trkpt lat="44.2990764" lon="10.2386937"><ele>1342.5</ele><time>2026-04-19T12:01:36.993Z</time></trkpt><trkpt lat="44.2991913" lon="10.2386088"><ele>1340.0</ele><time>2026-04-19T12:01:37.993Z</time></trkpt><trkpt lat="44.2992988" lon="10.2385278"><ele>1340.0</ele><time>2026-04-19T12:01:38.992Z</time></trkpt><trkpt lat="44.299404" lon="10.2384513"><ele>1340.0</ele><time>2026-04-19T12:01:39.991Z</time></trkpt><trkpt lat="44.2995076" lon="10.2383704"><ele>1340.0</ele><time>2026-04-19T12:01:40.992Z</time></trkpt><trkpt lat="44.2996133" lon="10.2382868"><ele>1340.0</ele><time>2026-04-19T12:01:41.993Z</time></trkpt><trkpt lat="44.2997242" lon="10.238195"><ele>1340.5</ele><time>2026-04-19T12:01:42.991Z</time></trkpt><trkpt lat="44.2998371" lon="10.2380954"><ele>1341.0</ele><time>2026-04-19T12:01:43.993Z</time></trkpt><trkpt lat="44.2999453" lon="10.2379921"><ele>1341.5</ele><time>2026-04-19T12:01:44.992Z</time></trkpt><trkpt lat="44.3000561" lon="10.2378891"><ele>1342.0</ele><time>2026-04-19T12:01:45.993Z</time></trkpt><trkpt lat="44.300164" lon="10.2377794"><ele>1342.0</ele><time>2026-04-19T12:01:46.993Z</time></trkpt><trkpt lat="44.3002747" lon="10.237669"><ele>1342.0</ele><time>2026-04-19T12:01:47.992Z</time></trkpt><trkpt lat="44.3003837" lon="10.2375585"><ele>1342.0</ele><time>2026-04-19T12:01:48.993Z</time></trkpt><trkpt lat="44.3004905" lon="10.2374528"><ele>1342.0</ele><time>2026-04-19T12:01:49.993Z</time></trkpt><trkpt lat="44.3005925" lon="10.2373606"><ele>1341.1999999999998</ele><time>2026-04-19T12:01:50.992Z</time></trkpt><trkpt lat="44.3006877" lon="10.2372706"><ele>1340.4</ele><time>2026-04-19T12:01:51.991Z</time></trkpt><trkpt lat="44.3007768" lon="10.2371814"><ele>1339.6</ele><time>2026-04-19T12:01:52.993Z</time></trkpt><trkpt lat="44.3008562" lon="10.2370904"><ele>1338.8000000000002</ele><time>2026-04-19T12:01:53.992Z</time></trkpt><trkpt lat="44.3009228" lon="10.2369927"><ele>1338.0</ele><time>2026-04-19T12:01:54.993Z</time></trkpt><trkpt lat="44.3009727" lon="10.2368851"><ele>1338.0</ele><time>2026-04-19T12:01:55.993Z</time></trkpt><trkpt lat="44.3010085" lon="10.2367699"><ele>1338.0</ele><time>2026-04-19T12:01:56.993Z</time></trkpt><trkpt lat="44.3010341" lon="10.2366419"><ele>1338.0</ele><time>2026-04-19T12:01:57.993Z</time></trkpt><trkpt lat="44.3010488" lon="10.2365068"><ele>1338.0</ele><time>2026-04-19T12:01:58.992Z</time></trkpt><trkpt lat="44.3010581" lon="10.2363696"><ele>1338.0</ele><time>2026-04-19T12:01:59.993Z</time></trkpt><trkpt lat="44.3010585" lon="10.2362375"><ele>1336.0</ele><time>2026-04-19T12:02:00.992Z</time></trkpt><trkpt lat="44.3010502" lon="10.2361095"><ele>1334.0</ele><time>2026-04-19T12:02:01.992Z</time></trkpt><trkpt lat="44.3010272" lon="10.2359867"><ele>1332.0</ele><time>2026-04-19T12:02:02.993Z</time></trkpt><trkpt lat="44.3009919" lon="10.2358716"><ele>1330.0</ele><time>2026-04-19T12:02:03.992Z</time></trkpt><trkpt lat="44.3009456" lon="10.2357581"><ele>1328.0</ele><time>2026-04-19T12:02:04.993Z</time></trkpt><trkpt lat="44.3008887" lon="10.2356468"><ele>1326.2</ele><time>2026-04-19T12:02:05.993Z</time></trkpt><trkpt lat="44.3008254" lon="10.235548"><ele>1324.4</ele><time>2026-04-19T12:02:06.993Z</time></trkpt><trkpt lat="44.3007605" lon="10.2354518"><ele>1322.6000000000001</ele><time>2026-04-19T12:02:07.992Z</time></trkpt><trkpt lat="44.3006947" lon="10.2353541"><ele>1320.8000000000002</ele><time>2026-04-19T12:02:08.992Z</time></trkpt><trkpt lat="44.3006303" lon="10.23525"><ele>1319.0</ele><time>2026-04-19T12:02:09.993Z</time></trkpt><trkpt lat="44.3005622" lon="10.2351361"><ele>1322.5</ele><time>2026-04-19T12:02:10.993Z</time></trkpt><trkpt lat="44.3004952" lon="10.235002"><ele>1326.0</ele><time>2026-04-19T12:02:11.992Z</time></trkpt><trkpt lat="44.300426" lon="10.2348559"><ele>1329.5</ele><time>2026-04-19T12:02:12.991Z</time></trkpt><trkpt lat="44.3003605" lon="10.2347058"><ele>1333.0</ele><time>2026-04-19T12:02:13.992Z</time></trkpt><trkpt lat="44.2998371" lon="10.2380954"><ele>1335.25</ele><time>2026-04-19T12:01:43.993Z</time></trkpt><trkpt lat="44.2999453" lon="10.2379921"><ele>1337.5</ele><time>2026-04-19T12:01:44.992Z</time></trkpt><trkpt lat="44.3000561" lon="10.2378891"><ele>1339.75</ele><time>2026-04-19T12:01:45.993Z</time></trkpt><trkpt lat="44.300164" lon="10.2377794"><ele>1342.0</ele><time>2026-04-19T12:01:46.993Z</time></trkpt><trkpt lat="44.3002747" lon="10.237669"><ele>1342.0</ele><time>2026-04-19T12:01:47.992Z</time></trkpt><trkpt lat="44.3003837" lon="10.2375585"><ele>1342.0</ele><time>2026-04-19T12:01:48.993Z</time></trkpt><trkpt lat="44.3004905" lon="10.2374528"><ele>1342.0</ele><time>2026-04-19T12:01:49.993Z</time></trkpt><trkpt lat="44.3005925" lon="10.2373606"><ele>1342.0</ele><time>2026-04-19T12:01:50.992Z</time></trkpt><trkpt lat="44.3006877" lon="10.2372706"><ele>1341.1999999999998</ele><time>2026-04-19T12:01:51.991Z</time></trkpt><trkpt lat="44.3007768" lon="10.2371814"><ele>1340.4</ele><time>2026-04-19T12:01:52.993Z</time></trkpt><trkpt lat="44.3008562" lon="10.2370904"><ele>1339.6</ele><time>2026-04-19T12:01:53.992Z</time></trkpt><trkpt lat="44.3009228" lon="10.2369927"><ele>1338.8000000000002</ele><time>2026-04-19T12:01:54.993Z</time></trkpt><trkpt lat="44.3009727" lon="10.2368851"><ele>1338.0</ele><time>2026-04-19T12:01:55.993Z</time></trkpt><trkpt lat="44.3010085" lon="10.2367699"><ele>1338.0</ele><time>2026-04-19T12:01:56.993Z</time></trkpt><trkpt lat="44.3010341" lon="10.2366419"><ele>1338.0</ele><time>2026-04-19T12:01:57.993Z</time></trkpt><trkpt lat="44.3010488" lon="10.2365068"><ele>1338.0</ele><time>2026-04-19T12:01:58.992Z</time></trkpt><trkpt lat="44.3010581" lon="10.2363696"><ele>1338.0</ele><time>2026-04-19T12:01:59.993Z</time></trkpt><trkpt lat="44.3010585" lon="10.2362375"><ele>1338.0</ele><time>2026-04-19T12:02:00.992Z</time></trkpt><trkpt lat="44.3010502" lon="10.2361095"><ele>1336.0</ele><time>2026-04-19T12:02:01.992Z</time></trkpt><trkpt lat="44.3010272" lon="10.2359867"><ele>1334.0</ele><time>2026-04-19T12:02:02.993Z</time></trkpt><trkpt lat="44.3009919" lon="10.2358716"><ele>1332.0</ele><time>2026-04-19T12:02:03.992Z</time></trkpt><trkpt lat="44.3009456" lon="10.2357581"><ele>1330.0</ele><time>2026-04-19T12:02:04.993Z</time></trkpt><trkpt lat="44.3008887" lon="10.2356468"><ele>1328.0</ele><time>2026-04-19T12:02:05.993Z</time></trkpt><trkpt lat="44.3008254" lon="10.235548"><ele>1326.2</ele><time>2026-04-19T12:02:06.993Z</time></trkpt><trkpt lat="44.3007605" lon="10.2354518"><ele>1324.4</ele><time>2026-04-19T12:02:07.992Z</time></trkpt><trkpt lat="44.3006947" lon="10.2353541"><ele>1322.6000000000001</ele><time>2026-04-19T12:02:08.992Z</time></trkpt><trkpt lat="44.3006303" lon="10.23525"><ele>1320.8000000000002</ele><time>2026-04-19T12:02:09.993Z</time></trkpt><trkpt lat="44.3005622" lon="10.2351361"><ele>1319.0</ele><time>2026-04-19T12:02:10.993Z</time></trkpt><trkpt lat="44.3004952" lon="10.235002"><ele>1322.5</ele><time>2026-04-19T12:02:11.992Z</time></trkpt><trkpt lat="44.300426" lon="10.2348559"><ele>1326.0</ele><time>2026-04-19T12:02:12.991Z</time></trkpt><trkpt lat="44.3003605" lon="10.2347058"><ele>1329.5</ele><time>2026-04-19T12:02:13.992Z</time></trkpt><trkpt lat="44.3003008" lon="10.2345631"><ele>1333.0</ele><time>2026-04-19T12:02:14.992Z</time></trkpt><trkpt lat="44.3002455" lon="10.234423"><ele>1333.0</ele><time>2026-04-19T12:02:15.993Z</time></trkpt><trkpt lat="44.3001978" lon="10.2342862"><ele>1333.0</ele><time>2026-04-19T12:02:16.993Z</time></trkpt><trkpt lat="44.300164" lon="10.2341497"><ele>1333.0</ele><time>2026-04-19T12:02:17.993Z</time></trkpt><trkpt lat="44.3001444" lon="10.234007"><ele>1333.0</ele><time>2026-04-19T12:02:18.993Z</time></trkpt><trkpt lat="44.3001574" lon="10.2338581"><ele>1333.0</ele><time>2026-04-19T12:02:19.993Z</time></trkpt><trkpt lat="44.3001814" lon="10.2337039"><ele>1333.75</ele><time>2026-04-19T12:02:20.991Z</time></trkpt><trkpt lat="44.3002143" lon="10.2335464"><ele>1334.5</ele><time>2026-04-19T12:02:21.992Z</time></trkpt><trkpt lat="44.3002569" lon="10.233385"><ele>1335.25</ele><time>2026-04-19T12:02:22.992Z</time></trkpt><trkpt lat="44.3003035" lon="10.2332234"><ele>1336.0</ele><time>2026-04-19T12:02:23.992Z</time></trkpt><trkpt lat="44.3003525" lon="10.2330612"><ele>1336.5</ele><time>2026-04-19T12:02:24.992Z</time></trkpt><trkpt lat="44.3004048" lon="10.2328987"><ele>1337.0</ele><time>2026-04-19T12:02:25.993Z</time></trkpt><trkpt lat="44.3004578" lon="10.2327348"><ele>1337.5</ele><time>2026-04-19T12:02:26.993Z</time></trkpt><trkpt lat="44.3005061" lon="10.2325612"><ele>1338.0</ele><time>2026-04-19T12:02:27.992Z</time></trkpt><trkpt lat="44.3005502" lon="10.2323835"><ele>1332.5</ele><time>2026-04-19T12:02:28.993Z</time></trkpt><trkpt lat="44.3005881" lon="10.2322032"><ele>1327.0</ele><time>2026-04-19T12:02:29.993Z</time></trkpt><trkpt lat="44.3006211" lon="10.2320344"><ele>1321.5</ele><time>2026-04-19T12:02:30.993Z</time></trkpt><trkpt lat="44.3006515" lon="10.2318756"><ele>1316.0</ele><time>2026-04-19T12:02:31.992Z</time></trkpt><trkpt lat="44.3006751" lon="10.2317249"><ele>1316.0</ele><time>2026-04-19T12:02:32.992Z</time></trkpt><trkpt lat="44.3007008" lon="10.2315832"><ele>1316.0</ele><time>2026-04-19T12:02:33.992Z</time></trkpt><trkpt lat="44.3007237" lon="10.2314492"><ele>1316.0</ele><time>2026-04-19T12:02:34.992Z</time></trkpt><trkpt lat="44.3007466" lon="10.2313211"><ele>1316.0</ele><time>2026-04-19T12:02:35.993Z</time></trkpt><trkpt lat="44.3007663" lon="10.2311985"><ele>1316.0</ele><time>2026-04-19T12:02:36.993Z</time></trkpt><trkpt lat="44.30077" lon="10.2310817"><ele>1316.3333333333335</ele><time>2026-04-19T12:02:37.992Z</time></trkpt><trkpt lat="44.3007624" lon="10.2309707"><ele>1316.6666666666667</ele><time>2026-04-19T12:02:38.991Z</time></trkpt><trkpt lat="44.3007442" lon="10.230862"><ele>1317.0</ele><time>2026-04-19T12:02:39.992Z</time></trkpt><trkpt lat="44.30071" lon="10.2307549"><ele>1317.3333333333333</ele><time>2026-04-19T12:02:40.993Z</time></trkpt><trkpt lat="44.3006473" lon="10.2306459"><ele>1317.6666666666665</ele><time>2026-04-19T12:02:41.992Z</time></trkpt><trkpt lat="44.300581" lon="10.2305422"><ele>1318.0</ele><time>2026-04-19T12:02:42.993Z</time></trkpt><trkpt lat="44.3005204" lon="10.2304422"><ele>1318.0</ele><time>2026-04-19T12:02:43.992Z</time></trkpt><trkpt lat="44.3004738" lon="10.2303345"><ele>1318.0</ele><time>2026-04-19T12:02:44.992Z</time></trkpt><trkpt lat="44.3004442" lon="10.2302231"><ele>1318.0</ele><time>2026-04-19T12:02:45.993Z</time></trkpt><trkpt lat="44.3004374" lon="10.230119"><ele>1318.0</ele><time>2026-04-19T12:02:46.992Z</time></trkpt><trkpt lat="44.3004542" lon="10.2300182"><ele>1318.0</ele><time>2026-04-19T12:02:47.992Z</time></trkpt><trkpt lat="44.3005015" lon="10.2299198"><ele>1318.0</ele><time>2026-04-19T12:02:48.993Z</time></trkpt><trkpt lat="44.3005777" lon="10.2298405"><ele>1315.25</ele><time>2026-04-19T12:02:49.993Z</time></trkpt><trkpt lat="44.3006813" lon="10.2297713"><ele>1312.5</ele><time>2026-04-19T12:02:50.992Z</time></trkpt><trkpt lat="44.3007962" lon="10.229688"><ele>1309.75</ele><time>2026-04-19T12:02:51.993Z</time></trkpt><trkpt lat="44.3009047" lon="10.2295894"><ele>1307.0</ele><time>2026-04-19T12:02:52.993Z</time></trkpt><trkpt lat="44.3009995" lon="10.2294707"><ele>1307.0</ele><time>2026-04-19T12:02:53.992Z</time></trkpt><trkpt lat="44.3010865" lon="10.2293344"><ele>1307.0</ele><time>2026-04-19T12:02:54.993Z</time></trkpt><trkpt lat="44.3011694" lon="10.2291875"><ele>1307.0</ele><time>2026-04-19T12:02:55.993Z</time></trkpt><trkpt lat="44.301246" lon="10.229038"><ele>1307.0</ele><time>2026-04-19T12:02:56.992Z</time></trkpt><trkpt lat="44.3013196" lon="10.2288853"><ele>1306.75</ele><time>2026-04-19T12:02:57.992Z</time></trkpt><trkpt lat="44.3013864" lon="10.2287307"><ele>1306.5</ele><time>2026-04-19T12:02:58.992Z</time></trkpt><trkpt lat="44.3014415" lon="10.2285752"><ele>1306.25</ele><time>2026-04-19T12:02:59.992Z</time></trkpt><trkpt lat="44.3014762" lon="10.2284097"><ele>1306.0</ele><time>2026-04-19T12:03:00.993Z</time></trkpt><trkpt lat="44.3014936" lon="10.2282443"><ele>1299.0</ele><time>2026-04-19T12:03:01.992Z</time></trkpt><trkpt lat="44.301497" lon="10.2280791"><ele>1292.0</ele><time>2026-04-19T12:03:02.992Z</time></trkpt><trkpt lat="44.3014889" lon="10.2279178"><ele>1285.0</ele><time>2026-04-19T12:03:03.993Z</time></trkpt><trkpt lat="44.3014709" lon="10.227764"><ele>1278.0</ele><time>2026-04-19T12:03:04.992Z</time></trkpt><trkpt lat="44.3014348" lon="10.227617"><ele>1281.25</ele><time>2026-04-19T12:03:05.993Z</time></trkpt><trkpt lat="44.3013822" lon="10.2274825"><ele>1284.5</ele><time>2026-04-19T12:03:06.992Z</time></trkpt><trkpt lat="44.3013194" lon="10.2273553"><ele>1287.75</ele><time>2026-04-19T12:03:07.993Z</time></trkpt><trkpt lat="44.3012584" lon="10.2272194"><ele>1291.0</ele><time>2026-04-19T12:03:08.993Z</time></trkpt><trkpt lat="44.3012074" lon="10.2270665"><ele>1291.0</ele><time>2026-04-19T12:03:09.991Z</time></trkpt><trkpt lat="44.3011688" lon="10.226901"><ele>1291.0</ele><time>2026-04-19T12:03:10.993Z</time></trkpt><trkpt lat="44.3011413" lon="10.2267247"><ele>1291.0</ele><time>2026-04-19T12:03:11.991Z</time></trkpt><trkpt lat="44.3011178" lon="10.2265516"><ele>1291.0</ele><time>2026-04-19T12:03:12.992Z</time></trkpt><trkpt lat="44.3010886" lon="10.2263836"><ele>1286.75</ele><time>2026-04-19T12:03:13.991Z</time></trkpt><trkpt lat="44.301045" lon="10.2262291"><ele>1282.5</ele><time>2026-04-19T12:03:14.993Z</time></trkpt><trkpt lat="44.3009795" lon="10.2260977"><ele>1278.25</ele><time>2026-04-19T12:03:15.993Z</time></trkpt><trkpt lat="44.3008983" lon="10.2259895"><ele>1274.0</ele><time>2026-04-19T12:03:16.992Z</time></trkpt><trkpt lat="44.3008048" lon="10.2258915"><ele>1274.0</ele><time>2026-04-19T12:03:17.993Z</time></trkpt><trkpt lat="44.3007019" lon="10.2257976"><ele>1274.0</ele><time>2026-04-19T12:03:18.993Z</time></trkpt><trkpt lat="44.3005945" lon="10.2257056"><ele>1274.0</ele><time>2026-04-19T12:03:19.992Z</time></trkpt><trkpt lat="44.3004905" lon="10.2256144"><ele>1274.0</ele><time>2026-04-19T12:03:20.991Z</time></trkpt><trkpt lat="44.3003988" lon="10.2255373"><ele>1272.0</ele><time>2026-04-19T12:03:21.992Z</time></trkpt><trkpt lat="44.3003202" lon="10.2254608"><ele>1270.0</ele><time>2026-04-19T12:03:22.992Z</time></trkpt><trkpt lat="44.3002626" lon="10.2253746"><ele>1268.0</ele><time>2026-04-19T12:03:23.993Z</time></trkpt><trkpt lat="44.3002241" lon="10.2252652"><ele>1266.0</ele><time>2026-04-19T12:03:24.992Z</time></trkpt><trkpt lat="44.3002143" lon="10.2251391"><ele>1264.0</ele><time>2026-04-19T12:03:25.993Z</time></trkpt><trkpt lat="44.3002421" lon="10.2250163"><ele>1264.0</ele><time>2026-04-19T12:03:26.991Z</time></trkpt><trkpt lat="44.3003044" lon="10.2249054"><ele>1264.0</ele><time>2026-04-19T12:03:27.991Z</time></trkpt><trkpt lat="44.3003973" lon="10.2248205"><ele>1264.0</ele><time>2026-04-19T12:03:28.993Z</time></trkpt><trkpt lat="44.3005124" lon="10.2247622"><ele>1264.0</ele><time>2026-04-19T12:03:29.992Z</time></trkpt><trkpt lat="44.3006415" lon="10.2247087"><ele>1262.5</ele><time>2026-04-19T12:03:30.991Z</time></trkpt><trkpt lat="44.3007671" lon="10.2246311"><ele>1261.0</ele><time>2026-04-19T12:03:31.992Z</time></trkpt><trkpt lat="44.3008919" lon="10.2245758"><ele>1259.5</ele><time>2026-04-19T12:03:32.993Z</time></trkpt><trkpt lat="44.3010153" lon="10.2245254"><ele>1258.0</ele><time>2026-04-19T12:03:33.992Z</time></trkpt><trkpt lat="44.3011287" lon="10.2244597"><ele>1258.0</ele><time>2026-04-19T12:03:34.993Z</time></trkpt><trkpt lat="44.3012297" lon="10.2243842"><ele>1258.0</ele><time>2026-04-19T12:03:35.993Z</time></trkpt><trkpt lat="44.3013235" lon="10.2242944"><ele>1258.0</ele><time>2026-04-19T12:03:36.992Z</time></trkpt><trkpt lat="44.3014176" lon="10.2241918"><ele>1258.0</ele><time>2026-04-19T12:03:37.992Z</time></trkpt><trkpt lat="44.3014939" lon="10.2240541"><ele>1257.75</ele><time>2026-04-19T12:03:38.991Z</time></trkpt><trkpt lat="44.3015751" lon="10.2239117"><ele>1257.5</ele><time>2026-04-19T12:03:39.992Z</time></trkpt><trkpt lat="44.3016561" lon="10.2237781"><ele>1257.25</ele><time>2026-04-19T12:03:40.993Z</time></trkpt><trkpt lat="44.3017387" lon="10.2236449"><ele>1257.0</ele><time>2026-04-19T12:03:41.992Z</time></trkpt><trkpt lat="44.301826" lon="10.2235166"><ele>1257.0</ele><time>2026-04-19T12:03:42.992Z</time></trkpt><trkpt lat="44.3019222" lon="10.2233987"><ele>1257.0</ele><time>2026-04-19T12:03:43.993Z</time></trkpt><trkpt lat="44.3020315" lon="10.2232858"><ele>1257.0</ele><time>2026-04-19T12:03:44.992Z</time></trkpt><trkpt lat="44.3021472" lon="10.2231814"><ele>1257.0</ele><time>2026-04-19T12:03:45.993Z</time></trkpt><trkpt lat="44.3022683" lon="10.2230767"><ele>1256.5</ele><time>2026-04-19T12:03:46.992Z</time></trkpt><trkpt lat="44.3023902" lon="10.2229699"><ele>1256.0</ele><time>2026-04-19T12:03:47.993Z</time></trkpt><trkpt lat="44.3025144" lon="10.2228586"><ele>1255.5</ele><time>2026-04-19T12:03:48.992Z</time></trkpt><trkpt lat="44.3026422" lon="10.222747"><ele>1255.0</ele><time>2026-04-19T12:03:49.991Z</time></trkpt><trkpt lat="44.302765" lon="10.2226369"><ele>1255.0</ele><time>2026-04-19T12:03:50.993Z</time></trkpt><trkpt lat="44.3028782" lon="10.2225322"><ele>1255.0</ele><time>2026-04-19T12:03:51.992Z</time></trkpt><trkpt lat="44.3029915" lon="10.2224205"><ele>1255.0</ele><time>2026-04-19T12:03:52.993Z</time></trkpt><trkpt lat="44.3031041" lon="10.2223062"><ele>1255.0</ele><time>2026-04-19T12:03:53.993Z</time></trkpt><trkpt lat="44.3032102" lon="10.2221872"><ele>1256.25</ele><time>2026-04-19T12:03:54.992Z</time></trkpt><trkpt lat="44.3033091" lon="10.222073"><ele>1257.5</ele><time>2026-04-19T12:03:55.993Z</time></trkpt><trkpt lat="44.3034043" lon="10.2219596"><ele>1258.75</ele><time>2026-04-19T12:03:56.993Z</time></trkpt><trkpt lat="44.3034963" lon="10.2218461"><ele>1260.0</ele><time>2026-04-19T12:03:57.992Z</time></trkpt><trkpt lat="44.3035905" lon="10.2217435"><ele>1260.0</ele><time>2026-04-19T12:03:58.992Z</time></trkpt><trkpt lat="44.3036857" lon="10.2216442"><ele>1260.0</ele><time>2026-04-19T12:03:59.993Z</time></trkpt><trkpt lat="44.3037736" lon="10.2215442"><ele>1260.0</ele><time>2026-04-19T12:04:00.992Z</time></trkpt><trkpt lat="44.3038509" lon="10.2214378"><ele>1260.0</ele><time>2026-04-19T12:04:01.992Z</time></trkpt><trkpt lat="44.3039237" lon="10.2213145"><ele>1258.5</ele><time>2026-04-19T12:04:02.993Z</time></trkpt><trkpt lat="44.3039892" lon="10.2211747"><ele>1257.0</ele><time>2026-04-19T12:04:03.992Z</time></trkpt><trkpt lat="44.3040435" lon="10.2210253"><ele>1255.5</ele><time>2026-04-19T12:04:04.993Z</time></trkpt><trkpt lat="44.304089" lon="10.2208665"><ele>1254.0</ele><time>2026-04-19T12:04:05.992Z</time></trkpt><trkpt lat="44.3041326" lon="10.2207085"><ele>1254.25</ele><time>2026-04-19T12:04:06.991Z</time></trkpt><trkpt lat="44.304171" lon="10.2205464"><ele>1254.5</ele><time>2026-04-19T12:04:07.991Z</time></trkpt><trkpt lat="44.3042116" lon="10.2203787"><ele>1254.75</ele><time>2026-04-19T12:04:08.992Z</time></trkpt><trkpt lat="44.3042524" lon="10.220211"><ele>1255.0</ele><time>2026-04-19T12:04:09.993Z</time></trkpt><trkpt lat="44.3042978" lon="10.2200399"><ele>1255.0</ele><time>2026-04-19T12:04:10.992Z</time></trkpt><trkpt lat="44.3043438" lon="10.2198739"><ele>1255.0</ele><time>2026-04-19T12:04:11.993Z</time></trkpt><trkpt lat="44.3043849" lon="10.2197128"><ele>1255.0</ele><time>2026-04-19T12:04:12.992Z</time></trkpt><trkpt lat="44.3044235" lon="10.2195577"><ele>1255.0</ele><time>2026-04-19T12:04:13.992Z</time></trkpt><trkpt lat="44.3044564" lon="10.2194125"><ele>1255.2</ele><time>2026-04-19T12:04:14.992Z</time></trkpt><trkpt lat="44.3044815" lon="10.2192747"><ele>1255.4</ele><time>2026-04-19T12:04:15.993Z</time></trkpt><trkpt lat="44.3044971" lon="10.2191404"><ele>1255.6</ele><time>2026-04-19T12:04:16.992Z</time></trkpt><trkpt lat="44.3044948" lon="10.2190046"><ele>1255.8</ele><time>2026-04-19T12:04:17.993Z</time></trkpt><trkpt lat="44.3044788" lon="10.2188641"><ele>1256.0</ele><time>2026-04-19T12:04:18.992Z</time></trkpt><trkpt lat="44.3044511" lon="10.2187113"><ele>1256.0</ele><time>2026-04-19T12:04:19.992Z</time></trkpt><trkpt lat="44.3044155" lon="10.218552"><ele>1256.0</ele><time>2026-04-19T12:04:20.992Z</time></trkpt><trkpt lat="44.3043853" lon="10.2184038"><ele>1256.0</ele><time>2026-04-19T12:04:21.992Z</time></trkpt><trkpt lat="44.3043554" lon="10.2182652"><ele>1256.0</ele><time>2026-04-19T12:04:22.991Z</time></trkpt><trkpt lat="44.304324" lon="10.2181336"><ele>1256.0</ele><time>2026-04-19T12:04:23.993Z</time></trkpt><trkpt lat="44.3042965" lon="10.2180064"><ele>1255.5</ele><time>2026-04-19T12:04:24.992Z</time></trkpt><trkpt lat="44.304273" lon="10.217884"><ele>1255.0</ele><time>2026-04-19T12:04:25.993Z</time></trkpt><trkpt lat="44.3042513" lon="10.2177625"><ele>1254.5</ele><time>2026-04-19T12:04:26.993Z</time></trkpt><trkpt lat="44.3042301" lon="10.2176489"><ele>1254.0</ele><time>2026-04-19T12:04:27.992Z</time></trkpt><trkpt lat="44.3042104" lon="10.2175518"><ele>1253.5</ele><time>2026-04-19T12:04:28.991Z</time></trkpt><trkpt lat="44.3041924" lon="10.2174608"><ele>1253.0</ele><time>2026-04-19T12:04:29.992Z</time></trkpt><trkpt lat="44.3041558" lon="10.2173174"><ele>1252.0</ele><time>2026-04-19T12:04:31.993Z</time></trkpt><trkpt lat="44.3041235" lon="10.2172262"><ele>1251.0</ele><time>2026-04-19T12:04:33.993Z</time></trkpt><trkpt lat="44.3040372" lon="10.2171636"><ele>1250.0</ele><time>2026-04-19T12:04:39.993Z</time></trkpt><trkpt lat="44.3039226" lon="10.2171845"><ele>1249.0</ele><time>2026-04-19T12:04:41.992Z</time></trkpt><trkpt lat="44.3037932" lon="10.2171645"><ele>1248.0</ele><time>2026-04-19T12:04:43.993Z</time></trkpt><trkpt lat="44.3037137" lon="10.2171005"><ele>1247.5</ele><time>2026-04-19T12:04:44.992Z</time></trkpt><trkpt lat="44.3036222" lon="10.2170012"><ele>1247.0</ele><time>2026-04-19T12:04:45.992Z</time></trkpt><trkpt lat="44.3035268" lon="10.2168879"><ele>1246.5</ele><time>2026-04-19T12:04:46.992Z</time></trkpt><trkpt lat="44.3034235" lon="10.216764"><ele>1246.0</ele><time>2026-04-19T12:04:47.993Z</time></trkpt><trkpt lat="44.3033077" lon="10.2166381"><ele>1246.0</ele><time>2026-04-19T12:04:48.992Z</time></trkpt><trkpt lat="44.3031771" lon="10.2165078"><ele>1246.0</ele><time>2026-04-19T12:04:49.992Z</time></trkpt><trkpt lat="44.3030357" lon="10.2163901"><ele>1246.0</ele><time>2026-04-19T12:04:50.992Z</time></trkpt><trkpt lat="44.3029074" lon="10.2162749"><ele>1243.25</ele><time>2026-04-19T12:04:51.993Z</time></trkpt><trkpt lat="44.302788" lon="10.2161508"><ele>1240.5</ele><time>2026-04-19T12:04:52.991Z</time></trkpt><trkpt lat="44.3026859" lon="10.2160135"><ele>1237.75</ele><time>2026-04-19T12:04:53.992Z</time></trkpt><trkpt lat="44.3025989" lon="10.2158545"><ele>1235.0</ele><time>2026-04-19T12:04:54.993Z</time></trkpt><trkpt lat="44.3025218" lon="10.2156626"><ele>1236.6666666666667</ele><time>2026-04-19T12:04:55.993Z</time></trkpt><trkpt lat="44.3024644" lon="10.2154288"><ele>1238.3333333333333</ele><time>2026-04-19T12:04:56.992Z</time></trkpt><trkpt lat="44.3024134" lon="10.2152025"><ele>1240.0</ele><time>2026-04-19T12:04:57.991Z</time></trkpt><trkpt lat="44.3023652" lon="10.2149846"><ele>1240.75</ele><time>2026-04-19T12:04:58.992Z</time></trkpt><trkpt lat="44.3023247" lon="10.2148002"><ele>1241.5</ele><time>2026-04-19T12:04:59.992Z</time></trkpt><trkpt lat="44.3022881" lon="10.2146525"><ele>1242.25</ele><time>2026-04-19T12:05:00.992Z</time></trkpt><trkpt lat="44.3022428" lon="10.2145126"><ele>1243.0</ele><time>2026-04-19T12:05:01.992Z</time></trkpt><trkpt lat="44.302177" lon="10.2144174"><ele>1238.0</ele><time>2026-04-19T12:05:02.992Z</time></trkpt><trkpt lat="44.302084" lon="10.2143538"><ele>1233.0</ele><time>2026-04-19T12:05:03.992Z</time></trkpt><trkpt lat="44.3019793" lon="10.2143223"><ele>1228.0</ele><time>2026-04-19T12:05:04.992Z</time></trkpt><trkpt lat="44.3018625" lon="10.2143126"><ele>1223.0</ele><time>2026-04-19T12:05:05.992Z</time></trkpt><trkpt lat="44.301744" lon="10.2142574"><ele>1223.0</ele><time>2026-04-19T12:05:06.992Z</time></trkpt><trkpt lat="44.3016267" lon="10.2141453"><ele>1223.0</ele><time>2026-04-19T12:05:07.992Z</time></trkpt><trkpt lat="44.301499" lon="10.2139999"><ele>1223.0</ele><time>2026-04-19T12:05:08.993Z</time></trkpt><trkpt lat="44.3013773" lon="10.2138405"><ele>1220.3333333333335</ele><time>2026-04-19T12:05:09.992Z</time></trkpt><trkpt lat="44.3012383" lon="10.2136747"><ele>1217.6666666666667</ele><time>2026-04-19T12:05:10.993Z</time></trkpt><trkpt lat="44.3010984" lon="10.2135095"><ele>1215.0</ele><time>2026-04-19T12:05:11.991Z</time></trkpt><trkpt lat="44.300947" lon="10.2133698"><ele>1215.0</ele><time>2026-04-19T12:05:12.993Z</time></trkpt><trkpt lat="44.3007848" lon="10.2132461"><ele>1215.0</ele><time>2026-04-19T12:05:13.993Z</time></trkpt><trkpt lat="44.300619" lon="10.2131136"><ele>1215.0</ele><time>2026-04-19T12:05:14.992Z</time></trkpt><trkpt lat="44.3004612" lon="10.2129823"><ele>1211.0</ele><time>2026-04-19T12:05:15.993Z</time></trkpt><trkpt lat="44.3003249" lon="10.2128578"><ele>1207.0</ele><time>2026-04-19T12:05:16.991Z</time></trkpt><trkpt lat="44.3002057" lon="10.2127271"><ele>1203.0</ele><time>2026-04-19T12:05:17.993Z</time></trkpt><trkpt lat="44.3001066" lon="10.212576"><ele>1203.0</ele><time>2026-04-19T12:05:18.991Z</time></trkpt><trkpt lat="44.3000326" lon="10.2124202"><ele>1203.0</ele><time>2026-04-19T12:05:19.992Z</time></trkpt><trkpt lat="44.2999816" lon="10.2122484"><ele>1203.0</ele><time>2026-04-19T12:05:20.992Z</time></trkpt><trkpt lat="44.2999471" lon="10.212063"><ele>1203.0</ele><time>2026-04-19T12:05:21.992Z</time></trkpt><trkpt lat="44.2999257" lon="10.2118908"><ele>1203.6</ele><time>2026-04-19T12:05:22.993Z</time></trkpt><trkpt lat="44.2999087" lon="10.2117346"><ele>1204.1999999999998</ele><time>2026-04-19T12:05:23.993Z</time></trkpt><trkpt lat="44.2998723" lon="10.2116026"><ele>1204.8</ele><time>2026-04-19T12:05:24.993Z</time></trkpt><trkpt lat="44.2998109" lon="10.2114996"><ele>1205.3999999999999</ele><time>2026-04-19T12:05:25.992Z</time></trkpt><trkpt lat="44.2997251" lon="10.2114353"><ele>1206.0</ele><time>2026-04-19T12:05:26.993Z</time></trkpt><trkpt lat="44.2996295" lon="10.2114134"><ele>1201.2</ele><time>2026-04-19T12:05:27.991Z</time></trkpt><trkpt lat="44.2995296" lon="10.2114609"><ele>1196.3999999999999</ele><time>2026-04-19T12:05:28.993Z</time></trkpt><trkpt lat="44.2994515" lon="10.2115443"><ele>1191.6</ele><time>2026-04-19T12:05:29.992Z</time></trkpt><trkpt lat="44.2993997" lon="10.2116748"><ele>1186.8</ele><time>2026-04-19T12:05:30.992Z</time></trkpt><trkpt lat="44.29938" lon="10.2118354"><ele>1182.0</ele><time>2026-04-19T12:05:31.992Z</time></trkpt><trkpt lat="44.2993949" lon="10.212022"><ele>1182.0</ele><time>2026-04-19T12:05:32.993Z</time></trkpt><trkpt lat="44.2994283" lon="10.2122424"><ele>1182.0</ele><time>2026-04-19T12:05:33.993Z</time></trkpt><trkpt lat="44.2994713" lon="10.2124611"><ele>1182.0</ele><time>2026-04-19T12:05:34.993Z</time></trkpt><trkpt lat="44.2995352" lon="10.2126598"><ele>1182.6</ele><time>2026-04-19T12:05:35.993Z</time></trkpt><trkpt lat="44.2995881" lon="10.2128344"><ele>1183.2</ele><time>2026-04-19T12:05:36.991Z</time></trkpt><trkpt lat="44.2996204" lon="10.2129746"><ele>1183.8</ele><time>2026-04-19T12:05:37.993Z</time></trkpt><trkpt lat="44.2996333" lon="10.2131007"><ele>1184.4</ele><time>2026-04-19T12:05:38.993Z</time></trkpt><trkpt lat="44.2996122" lon="10.213225"><ele>1185.0</ele><time>2026-04-19T12:05:39.993Z</time></trkpt><trkpt lat="44.2995407" lon="10.2133143"><ele>1185.0</ele><time>2026-04-19T12:05:40.991Z</time></trkpt><trkpt lat="44.2994537" lon="10.2133535"><ele>1185.0</ele><time>2026-04-19T12:05:41.993Z</time></trkpt><trkpt lat="44.2993576" lon="10.2133263"><ele>1185.0</ele><time>2026-04-19T12:05:42.992Z</time></trkpt><trkpt lat="44.2992586" lon="10.2132391"><ele>1185.0</ele><time>2026-04-19T12:05:43.993Z</time></trkpt><trkpt lat="44.2991442" lon="10.2131165"><ele>1185.0</ele><time>2026-04-19T12:05:44.992Z</time></trkpt><trkpt lat="44.2990314" lon="10.2130147"><ele>1185.0</ele><time>2026-04-19T12:05:45.993Z</time></trkpt><trkpt lat="44.2989215" lon="10.2129369"><ele>1185.0</ele><time>2026-04-19T12:05:46.992Z</time></trkpt><trkpt lat="44.2988186" lon="10.2129044"><ele>1185.0</ele><time>2026-04-19T12:05:47.993Z</time></trkpt><trkpt lat="44.2987158" lon="10.2128979"><ele>1184.75</ele><time>2026-04-19T12:05:48.993Z</time></trkpt><trkpt lat="44.2986093" lon="10.212926"><ele>1184.5</ele><time>2026-04-19T12:05:49.992Z</time></trkpt><trkpt lat="44.2985002" lon="10.2130071"><ele>1184.25</ele><time>2026-04-19T12:05:50.992Z</time></trkpt><trkpt lat="44.2983843" lon="10.213047"><ele>1184.0</ele><time>2026-04-19T12:05:51.992Z</time></trkpt><trkpt lat="44.2982653" lon="10.2130686"><ele>1184.0</ele><time>2026-04-19T12:05:52.993Z</time></trkpt><trkpt lat="44.2981193" lon="10.2130331"><ele>1184.0</ele><time>2026-04-19T12:05:53.993Z</time></trkpt><trkpt lat="44.2980083" lon="10.2129576"><ele>1184.0</ele><time>2026-04-19T12:05:54.993Z</time></trkpt><trkpt lat="44.2978811" lon="10.2128508"><ele>1184.0</ele><time>2026-04-19T12:05:55.992Z</time></trkpt><trkpt lat="44.2977589" lon="10.2126896"><ele>1184.0</ele><time>2026-04-19T12:05:56.992Z</time></trkpt><trkpt lat="44.297617" lon="10.2125401"><ele>1184.0</ele><time>2026-04-19T12:05:57.992Z</time></trkpt><trkpt lat="44.2974771" lon="10.2124181"><ele>1184.0</ele><time>2026-04-19T12:05:58.992Z</time></trkpt><trkpt lat="44.2973412" lon="10.2122972"><ele>1179.0</ele><time>2026-04-19T12:05:59.993Z</time></trkpt><trkpt lat="44.2972189" lon="10.2121694"><ele>1174.0</ele><time>2026-04-19T12:06:00.993Z</time></trkpt><trkpt lat="44.2970988" lon="10.2120284"><ele>1169.0</ele><time>2026-04-19T12:06:01.993Z</time></trkpt><trkpt lat="44.2969685" lon="10.2118853"><ele>1169.0</ele><time>2026-04-19T12:06:02.993Z</time></trkpt><trkpt lat="44.2968442" lon="10.2117272"><ele>1169.0</ele><time>2026-04-19T12:06:03.992Z</time></trkpt><trkpt lat="44.2967144" lon="10.2115345"><ele>1169.0</ele><time>2026-04-19T12:06:04.992Z</time></trkpt><trkpt lat="44.2965886" lon="10.2113682"><ele>1171.6666666666667</ele><time>2026-04-19T12:06:05.993Z</time></trkpt><trkpt lat="44.296469" lon="10.2111787"><ele>1174.3333333333333</ele><time>2026-04-19T12:06:06.993Z</time></trkpt><trkpt lat="44.2963521" lon="10.2109689"><ele>1177.0</ele><time>2026-04-19T12:06:07.991Z</time></trkpt><trkpt lat="44.2962278" lon="10.2107334"><ele>1169.6666666666665</ele><time>2026-04-19T12:06:08.993Z</time></trkpt><trkpt lat="44.2960998" lon="10.2104914"><ele>1162.3333333333333</ele><time>2026-04-19T12:06:09.992Z</time></trkpt><trkpt lat="44.2959983" lon="10.2102261"><ele>1155.0</ele><time>2026-04-19T12:06:10.993Z</time></trkpt><trkpt lat="44.2959282" lon="10.2099789"><ele>1152.0</ele><time>2026-04-19T12:06:11.993Z</time></trkpt><trkpt lat="44.2958345" lon="10.2097336"><ele>1149.0</ele><time>2026-04-19T12:06:12.993Z</time></trkpt><trkpt lat="44.295738" lon="10.2094825"><ele>1146.0</ele><time>2026-04-19T12:06:13.993Z</time></trkpt><trkpt lat="44.2956453" lon="10.2092287"><ele>1149.0</ele><time>2026-04-19T12:06:14.993Z</time></trkpt><trkpt lat="44.29556" lon="10.2089937"><ele>1152.0</ele><time>2026-04-19T12:06:15.992Z</time></trkpt><trkpt lat="44.2954819" lon="10.2087792"><ele>1155.0</ele><time>2026-04-19T12:06:16.992Z</time></trkpt><trkpt lat="44.295412" lon="10.2085825"><ele>1155.0</ele><time>2026-04-19T12:06:17.993Z</time></trkpt><trkpt lat="44.295361" lon="10.208386"><ele>1155.0</ele><time>2026-04-19T12:06:18.991Z</time></trkpt><trkpt lat="44.2953267" lon="10.2081846"><ele>1155.0</ele><time>2026-04-19T12:06:19.991Z</time></trkpt><trkpt lat="44.2952952" lon="10.2079505"><ele>1154.6666666666667</ele><time>2026-04-19T12:06:20.993Z</time></trkpt><trkpt lat="44.2952701" lon="10.207711"><ele>1154.3333333333335</ele><time>2026-04-19T12:06:21.993Z</time></trkpt><trkpt lat="44.2952422" lon="10.2074803"><ele>1154.0</ele><time>2026-04-19T12:06:22.992Z</time></trkpt><trkpt lat="44.2952023" lon="10.2072459"><ele>1150.6666666666667</ele><time>2026-04-19T12:06:23.992Z</time></trkpt><trkpt lat="44.2951497" lon="10.2070057"><ele>1147.3333333333333</ele><time>2026-04-19T12:06:24.992Z</time></trkpt><trkpt lat="44.2950918" lon="10.2067964"><ele>1144.0</ele><time>2026-04-19T12:06:25.992Z</time></trkpt><trkpt lat="44.2950448" lon="10.2066173"><ele>1140.0</ele><time>2026-04-19T12:06:26.993Z</time></trkpt><trkpt lat="44.2949904" lon="10.2064702"><ele>1136.0</ele><time>2026-04-19T12:06:27.993Z</time></trkpt><trkpt lat="44.2949176" lon="10.2063408"><ele>1132.0</ele><time>2026-04-19T12:06:28.993Z</time></trkpt><trkpt lat="44.2948176" lon="10.2062495"><ele>1128.0</ele><time>2026-04-19T12:06:29.993Z</time></trkpt><trkpt lat="44.2946873" lon="10.2062038"><ele>1128.0</ele><time>2026-04-19T12:06:30.993Z</time></trkpt><trkpt lat="44.2945287" lon="10.2061971"><ele>1128.0</ele><time>2026-04-19T12:06:31.992Z</time></trkpt><trkpt lat="44.2943602" lon="10.2062116"><ele>1128.0</ele><time>2026-04-19T12:06:32.991Z</time></trkpt><trkpt lat="44.2941997" lon="10.2062132"><ele>1128.0</ele><time>2026-04-19T12:06:33.993Z</time></trkpt><trkpt lat="44.2940341" lon="10.2061884"><ele>1128.0</ele><time>2026-04-19T12:06:34.993Z</time></trkpt><trkpt lat="44.2938802" lon="10.2061364"><ele>1128.0</ele><time>2026-04-19T12:06:35.993Z</time></trkpt><trkpt lat="44.2937238" lon="10.2060708"><ele>1131.3333333333333</ele><time>2026-04-19T12:06:36.992Z</time></trkpt><trkpt lat="44.2935922" lon="10.2059428"><ele>1134.6666666666665</ele><time>2026-04-19T12:06:37.993Z</time></trkpt><trkpt lat="44.2934546" lon="10.2058007"><ele>1138.0</ele><time>2026-04-19T12:06:38.992Z</time></trkpt><trkpt lat="44.2933539" lon="10.2056144"><ele>1133.25</ele><time>2026-04-19T12:06:39.992Z</time></trkpt><trkpt lat="44.2932309" lon="10.2054948"><ele>1128.5</ele><time>2026-04-19T12:06:40.992Z</time></trkpt><trkpt lat="44.2931253" lon="10.2053994"><ele>1123.75</ele><time>2026-04-19T12:06:41.992Z</time></trkpt><trkpt lat="44.2930415" lon="10.205284"><ele>1119.0</ele><time>2026-04-19T12:06:42.992Z</time></trkpt><trkpt lat="44.2929674" lon="10.2051395"><ele>1119.0</ele><time>2026-04-19T12:06:43.992Z</time></trkpt><trkpt lat="44.2929509" lon="10.2049774"><ele>1119.0</ele><time>2026-04-19T12:06:44.992Z</time></trkpt><trkpt lat="44.2929212" lon="10.2048626"><ele>1119.0</ele><time>2026-04-19T12:06:45.993Z</time></trkpt><trkpt lat="44.2928682" lon="10.2047735"><ele>1119.0</ele><time>2026-04-19T12:06:46.992Z</time></trkpt><trkpt lat="44.2927907" lon="10.2047184"><ele>1119.0</ele><time>2026-04-19T12:06:47.993Z</time></trkpt><trkpt lat="44.2926815" lon="10.2047271"><ele>1119.0</ele><time>2026-04-19T12:06:48.993Z</time></trkpt><trkpt lat="44.292551" lon="10.2047849"><ele>1119.0</ele><time>2026-04-19T12:06:49.992Z</time></trkpt><trkpt lat="44.292413" lon="10.2048828"><ele>1119.0</ele><time>2026-04-19T12:06:50.993Z</time></trkpt><trkpt lat="44.2922871" lon="10.204983"><ele>1119.0</ele><time>2026-04-19T12:06:51.992Z</time></trkpt><trkpt lat="44.2921765" lon="10.2050523"><ele>1118.0</ele><time>2026-04-19T12:06:52.992Z</time></trkpt><trkpt lat="44.2920747" lon="10.2050914"><ele>1117.0</ele><time>2026-04-19T12:06:53.993Z</time></trkpt><trkpt lat="44.2919682" lon="10.2050802"><ele>1116.0</ele><time>2026-04-19T12:06:54.993Z</time></trkpt><trkpt lat="44.2918646" lon="10.2050105"><ele>1115.0</ele><time>2026-04-19T12:06:55.993Z</time></trkpt><trkpt lat="44.2917589" lon="10.2048756"><ele>1111.0</ele><time>2026-04-19T12:06:56.993Z</time></trkpt><trkpt lat="44.2916708" lon="10.204733"><ele>1107.0</ele><time>2026-04-19T12:06:57.992Z</time></trkpt><trkpt lat="44.2915958" lon="10.2046076"><ele>1103.0</ele><time>2026-04-19T12:06:58.992Z</time></trkpt><trkpt lat="44.2915414" lon="10.2045034"><ele>1099.0</ele><time>2026-04-19T12:06:59.993Z</time></trkpt><trkpt lat="44.2914807" lon="10.2044239"><ele>1095.0</ele><time>2026-04-19T12:07:00.993Z</time></trkpt><trkpt lat="44.2914084" lon="10.2044155"><ele>1093.5</ele><time>2026-04-19T12:07:01.993Z</time></trkpt><trkpt lat="44.2913341" lon="10.2044517"><ele>1092.0</ele><time>2026-04-19T12:07:02.991Z</time></trkpt><trkpt lat="44.291255" lon="10.2045631"><ele>1090.5</ele><time>2026-04-19T12:07:03.992Z</time></trkpt><trkpt lat="44.2911609" lon="10.2047259"><ele>1089.0</ele><time>2026-04-19T12:07:04.993Z</time></trkpt><trkpt lat="44.2910812" lon="10.2049137"><ele>1089.0</ele><time>2026-04-19T12:07:05.993Z</time></trkpt><trkpt lat="44.291017" lon="10.2050854"><ele>1089.0</ele><time>2026-04-19T12:07:06.992Z</time></trkpt><trkpt lat="44.2909495" lon="10.2052384"><ele>1089.0</ele><time>2026-04-19T12:07:07.992Z</time></trkpt><trkpt lat="44.2908525" lon="10.2053529"><ele>1089.0</ele><time>2026-04-19T12:07:08.993Z</time></trkpt><trkpt lat="44.2907413" lon="10.2054428"><ele>1089.0</ele><time>2026-04-19T12:07:09.993Z</time></trkpt><trkpt lat="44.2906119" lon="10.2055202"><ele>1089.0</ele><time>2026-04-19T12:07:10.991Z</time></trkpt><trkpt lat="44.2904849" lon="10.205621"><ele>1089.0</ele><time>2026-04-19T12:07:11.993Z</time></trkpt><trkpt lat="44.2903805" lon="10.2057981"><ele>1088.0</ele><time>2026-04-19T12:07:12.992Z</time></trkpt><trkpt lat="44.2902972" lon="10.2059187"><ele>1087.0</ele><time>2026-04-19T12:07:13.993Z</time></trkpt><trkpt lat="44.2902103" lon="10.2060167"><ele>1086.0</ele><time>2026-04-19T12:07:14.992Z</time></trkpt><trkpt lat="44.2901049" lon="10.2060707"><ele>1085.0</ele><time>2026-04-19T12:07:15.993Z</time></trkpt><trkpt lat="44.2899821" lon="10.2060855"><ele>1085.0</ele><time>2026-04-19T12:07:16.993Z</time></trkpt><trkpt lat="44.2898793" lon="10.2060564"><ele>1085.0</ele><time>2026-04-19T12:07:17.993Z</time></trkpt><trkpt lat="44.2898045" lon="10.2059937"><ele>1085.0</ele><time>2026-04-19T12:07:18.992Z</time></trkpt><trkpt lat="44.2897269" lon="10.20588"><ele>1085.0</ele><time>2026-04-19T12:07:19.993Z</time></trkpt><trkpt lat="44.2896586" lon="10.2057045"><ele>1085.0</ele><time>2026-04-19T12:07:20.993Z</time></trkpt><trkpt lat="44.2895892" lon="10.2055363"><ele>1079.25</ele><time>2026-04-19T12:07:21.993Z</time></trkpt><trkpt lat="44.2895208" lon="10.2054007"><ele>1073.5</ele><time>2026-04-19T12:07:22.992Z</time></trkpt><trkpt lat="44.2894278" lon="10.2053161"><ele>1067.75</ele><time>2026-04-19T12:07:23.992Z</time></trkpt><trkpt lat="44.2893309" lon="10.2052401"><ele>1062.0</ele><time>2026-04-19T12:07:24.992Z</time></trkpt><trkpt lat="44.2891513" lon="10.2052694"><ele>1062.0</ele><time>2026-04-19T12:07:25.992Z</time></trkpt><trkpt lat="44.2889991" lon="10.205272"><ele>1062.0</ele><time>2026-04-19T12:07:26.993Z</time></trkpt><trkpt lat="44.2888486" lon="10.2052888"><ele>1062.0</ele><time>2026-04-19T12:07:27.993Z</time></trkpt><trkpt lat="44.2886968" lon="10.205348"><ele>1060.0</ele><time>2026-04-19T12:07:28.993Z</time></trkpt><trkpt lat="44.2885692" lon="10.2054418"><ele>1058.0</ele><time>2026-04-19T12:07:29.992Z</time></trkpt><trkpt lat="44.2884496" lon="10.2054856"><ele>1056.0</ele><time>2026-04-19T12:07:30.993Z</time></trkpt><trkpt lat="44.2883423" lon="10.2055127"><ele>1054.0</ele><time>2026-04-19T12:07:31.992Z</time></trkpt><trkpt lat="44.2882246" lon="10.205487"><ele>1059.0</ele><time>2026-04-19T12:07:32.992Z</time></trkpt><trkpt lat="44.2880908" lon="10.2054454"><ele>1064.0</ele><time>2026-04-19T12:07:33.992Z</time></trkpt><trkpt lat="44.287954" lon="10.2053618"><ele>1069.0</ele><time>2026-04-19T12:07:34.992Z</time></trkpt><trkpt lat="44.2878419" lon="10.2052992"><ele>1074.0</ele><time>2026-04-19T12:07:35.992Z</time></trkpt><trkpt lat="44.287748" lon="10.2052099"><ele>1074.0</ele><time>2026-04-19T12:07:36.993Z</time></trkpt><trkpt lat="44.2876579" lon="10.2050573"><ele>1074.0</ele><time>2026-04-19T12:07:37.993Z</time></trkpt><trkpt lat="44.2875893" lon="10.2048808"><ele>1074.0</ele><time>2026-04-19T12:07:38.992Z</time></trkpt><trkpt lat="44.2875339" lon="10.2046513"><ele>1069.0</ele><time>2026-04-19T12:07:39.993Z</time></trkpt><trkpt lat="44.2874973" lon="10.2044054"><ele>1064.0</ele><time>2026-04-19T12:07:40.992Z</time></trkpt><trkpt lat="44.2874817" lon="10.2041649"><ele>1059.0</ele><time>2026-04-19T12:07:41.993Z</time></trkpt><trkpt lat="44.287471" lon="10.2039252"><ele>1053.0</ele><time>2026-04-19T12:07:42.992Z</time></trkpt><trkpt lat="44.2874519" lon="10.2036961"><ele>1047.0</ele><time>2026-04-19T12:07:43.993Z</time></trkpt><trkpt lat="44.2874122" lon="10.2035028"><ele>1041.0</ele><time>2026-04-19T12:07:44.992Z</time></trkpt><trkpt lat="44.2873508" lon="10.2033234"><ele>1039.3333333333333</ele><time>2026-04-19T12:07:45.991Z</time></trkpt><trkpt lat="44.2872562" lon="10.2031553"><ele>1037.6666666666665</ele><time>2026-04-19T12:07:46.993Z</time></trkpt><trkpt lat="44.2871402" lon="10.2029928"><ele>1036.0</ele><time>2026-04-19T12:07:47.993Z</time></trkpt><trkpt lat="44.2870127" lon="10.2028401"><ele>1036.0</ele><time>2026-04-19T12:07:48.993Z</time></trkpt><trkpt lat="44.2868736" lon="10.2027043"><ele>1036.0</ele><time>2026-04-19T12:07:49.993Z</time></trkpt><trkpt lat="44.2867272" lon="10.2026119"><ele>1036.0</ele><time>2026-04-19T12:07:50.993Z</time></trkpt><trkpt lat="44.2865752" lon="10.2025375"><ele>1041.0</ele><time>2026-04-19T12:07:51.991Z</time></trkpt><trkpt lat="44.286401" lon="10.2025046"><ele>1046.0</ele><time>2026-04-19T12:07:52.992Z</time></trkpt><trkpt lat="44.2862412" lon="10.2024837"><ele>1051.0</ele><time>2026-04-19T12:07:53.993Z</time></trkpt><trkpt lat="44.286108" lon="10.2024589"><ele>1051.0</ele><time>2026-04-19T12:07:54.992Z</time></trkpt><trkpt lat="44.286002" lon="10.202417"><ele>1051.0</ele><time>2026-04-19T12:07:55.992Z</time></trkpt><trkpt lat="44.2858933" lon="10.2023541"><ele>1051.0</ele><time>2026-04-19T12:07:56.993Z</time></trkpt><trkpt lat="44.2858392" lon="10.2021885"><ele>1051.0</ele><time>2026-04-19T12:07:57.992Z</time></trkpt><trkpt lat="44.2857774" lon="10.2020108"><ele>1050.5</ele><time>2026-04-19T12:07:58.993Z</time></trkpt><trkpt lat="44.2857165" lon="10.201873"><ele>1050.0</ele><time>2026-04-19T12:07:59.992Z</time></trkpt><trkpt lat="44.2856401" lon="10.2017665"><ele>1049.5</ele><time>2026-04-19T12:08:00.993Z</time></trkpt><trkpt lat="44.2855352" lon="10.2016901"><ele>1049.0</ele><time>2026-04-19T12:08:01.993Z</time></trkpt><trkpt lat="44.2854222" lon="10.2016342"><ele>1049.0</ele><time>2026-04-19T12:08:02.992Z</time></trkpt><trkpt lat="44.2853483" lon="10.2015466"><ele>1049.0</ele><time>2026-04-19T12:08:03.993Z</time></trkpt><trkpt lat="44.2852915" lon="10.2014222"><ele>1049.0</ele><time>2026-04-19T12:08:04.992Z</time></trkpt><trkpt lat="44.2852651" lon="10.2012488"><ele>1049.0</ele><time>2026-04-19T12:08:05.993Z</time></trkpt><trkpt lat="44.2852446" lon="10.2010324"><ele>1042.3333333333335</ele><time>2026-04-19T12:08:06.993Z</time></trkpt><trkpt lat="44.2852118" lon="10.2008056"><ele>1035.6666666666667</ele><time>2026-04-19T12:08:07.993Z</time></trkpt><trkpt lat="44.285165" lon="10.2006162"><ele>1029.0</ele><time>2026-04-19T12:08:08.992Z</time></trkpt><trkpt lat="44.2850831" lon="10.2004364"><ele>1023.0</ele><time>2026-04-19T12:08:09.993Z</time></trkpt><trkpt lat="44.2849604" lon="10.2002553"><ele>1017.0</ele><time>2026-04-19T12:08:10.992Z</time></trkpt><trkpt lat="44.2848636" lon="10.2000669"><ele>1011.0</ele><time>2026-04-19T12:08:11.993Z</time></trkpt><trkpt lat="44.2847922" lon="10.1998484"><ele>1014.3333333333333</ele><time>2026-04-19T12:08:12.993Z</time></trkpt><trkpt lat="44.2847232" lon="10.1996146"><ele>1017.6666666666666</ele><time>2026-04-19T12:08:13.992Z</time></trkpt><trkpt lat="44.2846396" lon="10.1993944"><ele>1021.0</ele><time>2026-04-19T12:08:14.992Z</time></trkpt><trkpt lat="44.2845472" lon="10.1991899"><ele>1011.0</ele><time>2026-04-19T12:08:15.992Z</time></trkpt><trkpt lat="44.2844326" lon="10.1989933"><ele>1001.0</ele><time>2026-04-19T12:08:16.993Z</time></trkpt><trkpt lat="44.2842938" lon="10.1987948"><ele>991.0</ele><time>2026-04-19T12:08:17.993Z</time></trkpt><trkpt lat="44.2841651" lon="10.1986232"><ele>991.0</ele><time>2026-04-19T12:08:18.992Z</time></trkpt><trkpt lat="44.2840483" lon="10.1984791"><ele>991.0</ele><time>2026-04-19T12:08:19.993Z</time></trkpt><trkpt lat="44.283935" lon="10.198368"><ele>991.0</ele><time>2026-04-19T12:08:20.993Z</time></trkpt><trkpt lat="44.2838232" lon="10.1983003"><ele>991.0</ele><time>2026-04-19T12:08:21.992Z</time></trkpt><trkpt lat="44.2837" lon="10.1982913"><ele>992.5</ele><time>2026-04-19T12:08:22.992Z</time></trkpt><trkpt lat="44.2835563" lon="10.198331"><ele>994.0</ele><time>2026-04-19T12:08:23.992Z</time></trkpt><trkpt lat="44.2834154" lon="10.1983788"><ele>995.5</ele><time>2026-04-19T12:08:24.993Z</time></trkpt><trkpt lat="44.2832581" lon="10.1983884"><ele>997.0</ele><time>2026-04-19T12:08:25.991Z</time></trkpt><trkpt lat="44.2830916" lon="10.198364"><ele>997.0</ele><time>2026-04-19T12:08:26.993Z</time></trkpt><trkpt lat="44.2829343" lon="10.1983203"><ele>997.0</ele><time>2026-04-19T12:08:27.993Z</time></trkpt><trkpt lat="44.2827741" lon="10.1983226"><ele>997.0</ele><time>2026-04-19T12:08:28.992Z</time></trkpt><trkpt lat="44.2826054" lon="10.1983444"><ele>997.0</ele><time>2026-04-19T12:08:29.993Z</time></trkpt><trkpt lat="44.2824491" lon="10.1983503"><ele>997.0</ele><time>2026-04-19T12:08:30.993Z</time></trkpt><trkpt lat="44.2823121" lon="10.1983346"><ele>997.0</ele><time>2026-04-19T12:08:31.991Z</time></trkpt><trkpt lat="44.2821924" lon="10.1983109"><ele>997.0</ele><time>2026-04-19T12:08:32.993Z</time></trkpt><trkpt lat="44.2820883" lon="10.1982981"><ele>992.25</ele><time>2026-04-19T12:08:33.992Z</time></trkpt><trkpt lat="44.2819947" lon="10.1983148"><ele>987.5</ele><time>2026-04-19T12:08:34.993Z</time></trkpt><trkpt lat="44.2818817" lon="10.1983878"><ele>982.75</ele><time>2026-04-19T12:08:35.992Z</time></trkpt><trkpt lat="44.2817608" lon="10.1984928"><ele>978.0</ele><time>2026-04-19T12:08:36.992Z</time></trkpt><trkpt lat="44.2816432" lon="10.1985829"><ele>978.0</ele><time>2026-04-19T12:08:37.992Z</time></trkpt><trkpt lat="44.2815149" lon="10.1986671"><ele>978.0</ele><time>2026-04-19T12:08:38.992Z</time></trkpt><trkpt lat="44.2813931" lon="10.1987488"><ele>978.0</ele><time>2026-04-19T12:08:39.993Z</time></trkpt><trkpt lat="44.2812732" lon="10.1988272"><ele>978.0</ele><time>2026-04-19T12:08:40.993Z</time></trkpt><trkpt lat="44.2811507" lon="10.1988933"><ele>980.25</ele><time>2026-04-19T12:08:41.992Z</time></trkpt><trkpt lat="44.2810296" lon="10.1989451"><ele>982.5</ele><time>2026-04-19T12:08:42.992Z</time></trkpt><trkpt lat="44.2809112" lon="10.19899"><ele>984.75</ele><time>2026-04-19T12:08:43.992Z</time></trkpt><trkpt lat="44.2807947" lon="10.1990277"><ele>987.0</ele><time>2026-04-19T12:08:44.993Z</time></trkpt><trkpt lat="44.28068" lon="10.1990517"><ele>982.0</ele><time>2026-04-19T12:08:45.993Z</time></trkpt><trkpt lat="44.2805666" lon="10.1990555"><ele>977.0</ele><time>2026-04-19T12:08:46.992Z</time></trkpt><trkpt lat="44.2804562" lon="10.1990427"><ele>972.0</ele><time>2026-04-19T12:08:47.991Z</time></trkpt><trkpt lat="44.2803504" lon="10.1990101"><ele>967.0</ele><time>2026-04-19T12:08:48.993Z</time></trkpt><trkpt lat="44.2802485" lon="10.1989685"><ele>962.0</ele><time>2026-04-19T12:08:49.992Z</time></trkpt><trkpt lat="44.28015" lon="10.198923"><ele>964.0</ele><time>2026-04-19T12:08:50.992Z</time></trkpt><trkpt lat="44.2800542" lon="10.1988761"><ele>966.0</ele><time>2026-04-19T12:08:51.992Z</time></trkpt><trkpt lat="44.279958" lon="10.1988323"><ele>968.0</ele><time>2026-04-19T12:08:52.992Z</time></trkpt><trkpt lat="44.2798624" lon="10.1987862"><ele>970.0</ele><time>2026-04-19T12:08:53.993Z</time></trkpt><trkpt lat="44.2797682" lon="10.1987451"><ele>972.0</ele><time>2026-04-19T12:08:54.993Z</time></trkpt><trkpt lat="44.2796801" lon="10.1987084"><ele>972.0</ele><time>2026-04-19T12:08:55.993Z</time></trkpt><trkpt lat="44.2795946" lon="10.198667"><ele>972.0</ele><time>2026-04-19T12:08:56.993Z</time></trkpt><trkpt lat="44.27951" lon="10.1986062"><ele>972.0</ele><time>2026-04-19T12:08:57.992Z</time></trkpt><trkpt lat="44.2794343" lon="10.1985167"><ele>972.0</ele><time>2026-04-19T12:08:58.993Z</time></trkpt><trkpt lat="44.2793674" lon="10.1984072"><ele>972.0</ele><time>2026-04-19T12:08:59.993Z</time></trkpt><trkpt lat="44.2793074" lon="10.1982884"><ele>970.2</ele><time>2026-04-19T12:09:00.991Z</time></trkpt><trkpt lat="44.2792522" lon="10.1981656"><ele>968.4000000000001</ele><time>2026-04-19T12:09:01.993Z</time></trkpt><trkpt lat="44.2791979" lon="10.1980466"><ele>966.5999999999999</ele><time>2026-04-19T12:09:02.992Z</time></trkpt><trkpt lat="44.2791461" lon="10.1979269"><ele>964.8</ele><time>2026-04-19T12:09:03.993Z</time></trkpt><trkpt lat="44.2790981" lon="10.1978044"><ele>963.0</ele><time>2026-04-19T12:09:04.992Z</time></trkpt><trkpt lat="44.2790542" lon="10.1976787"><ele>963.0</ele><time>2026-04-19T12:09:05.993Z</time></trkpt><trkpt lat="44.2790173" lon="10.1975593"><ele>963.0</ele><time>2026-04-19T12:09:06.992Z</time></trkpt><trkpt lat="44.2789856" lon="10.1974354"><ele>963.0</ele><time>2026-04-19T12:09:07.993Z</time></trkpt><trkpt lat="44.278954" lon="10.1973037"><ele>963.0</ele><time>2026-04-19T12:09:08.993Z</time></trkpt><trkpt lat="44.2789201" lon="10.19717"><ele>963.0</ele><time>2026-04-19T12:09:09.992Z</time></trkpt><trkpt lat="44.2788822" lon="10.1970325"><ele>961.0</ele><time>2026-04-19T12:09:10.993Z</time></trkpt><trkpt lat="44.2788422" lon="10.1968833"><ele>959.0</ele><time>2026-04-19T12:09:11.992Z</time></trkpt><trkpt lat="44.2788016" lon="10.1967192"><ele>957.0</ele><time>2026-04-19T12:09:12.993Z</time></trkpt><trkpt lat="44.2787552" lon="10.196533"><ele>955.0</ele><time>2026-04-19T12:09:13.993Z</time></trkpt><trkpt lat="44.2787048" lon="10.1963376"><ele>953.0</ele><time>2026-04-19T12:09:14.992Z</time></trkpt><trkpt lat="44.2786514" lon="10.1961253"><ele>951.0</ele><time>2026-04-19T12:09:15.993Z</time></trkpt><trkpt lat="44.2785958" lon="10.1958991"><ele>949.0</ele><time>2026-04-19T12:09:16.993Z</time></trkpt><trkpt lat="44.2785365" lon="10.1956679"><ele>953.75</ele><time>2026-04-19T12:09:17.993Z</time></trkpt><trkpt lat="44.2784855" lon="10.1954555"><ele>958.5</ele><time>2026-04-19T12:09:18.993Z</time></trkpt><trkpt lat="44.2784498" lon="10.1952605"><ele>963.25</ele><time>2026-04-19T12:09:19.992Z</time></trkpt><trkpt lat="44.2784339" lon="10.1950742"><ele>968.0</ele><time>2026-04-19T12:09:20.993Z</time></trkpt><trkpt lat="44.2784432" lon="10.1948688"><ele>972.0</ele><time>2026-04-19T12:09:21.993Z</time></trkpt><trkpt lat="44.2784787" lon="10.1946584"><ele>976.0</ele><time>2026-04-19T12:09:22.993Z</time></trkpt><trkpt lat="44.2785357" lon="10.1944388"><ele>980.0</ele><time>2026-04-19T12:09:23.993Z</time></trkpt><trkpt lat="44.2786065" lon="10.1942249"><ele>983.3333333333334</ele><time>2026-04-19T12:09:24.993Z</time></trkpt><trkpt lat="44.2786967" lon="10.1940024"><ele>986.6666666666667</ele><time>2026-04-19T12:09:25.992Z</time></trkpt><trkpt lat="44.2788168" lon="10.1937926"><ele>990.0</ele><time>2026-04-19T12:09:26.993Z</time></trkpt><trkpt lat="44.2789548" lon="10.1935817"><ele>987.6666666666667</ele><time>2026-04-19T12:09:27.992Z</time></trkpt><trkpt lat="44.2790996" lon="10.1933842"><ele>985.3333333333334</ele><time>2026-04-19T12:09:28.992Z</time></trkpt><trkpt lat="44.2792385" lon="10.1932016"><ele>983.0</ele><time>2026-04-19T12:09:29.993Z</time></trkpt><trkpt lat="44.2793601" lon="10.193039"><ele>983.0</ele><time>2026-04-19T12:09:30.993Z</time></trkpt><trkpt lat="44.2794676" lon="10.1928856"><ele>983.0</ele><time>2026-04-19T12:09:31.992Z</time></trkpt><trkpt lat="44.2795636" lon="10.1927228"><ele>983.0</ele><time>2026-04-19T12:09:32.992Z</time></trkpt><trkpt lat="44.2796365" lon="10.1925392"><ele>983.0</ele><time>2026-04-19T12:09:33.993Z</time></trkpt><trkpt lat="44.2796846" lon="10.1923426"><ele>983.0</ele><time>2026-04-19T12:09:34.992Z</time></trkpt><trkpt lat="44.2797052" lon="10.1921103"><ele>983.0</ele><time>2026-04-19T12:09:35.991Z</time></trkpt><trkpt lat="44.2797139" lon="10.1918381"><ele>983.3333333333334</ele><time>2026-04-19T12:09:36.993Z</time></trkpt><trkpt lat="44.2797216" lon="10.1915747"><ele>983.6666666666667</ele><time>2026-04-19T12:09:37.992Z</time></trkpt><trkpt lat="44.2797294" lon="10.1913185"><ele>984.0</ele><time>2026-04-19T12:09:38.993Z</time></trkpt><trkpt lat="44.279728" lon="10.1910838"><ele>980.0</ele><time>2026-04-19T12:09:39.992Z</time></trkpt><trkpt lat="44.279703" lon="10.1908615"><ele>976.0</ele><time>2026-04-19T12:09:40.993Z</time></trkpt><trkpt lat="44.2796402" lon="10.1906316"><ele>972.0</ele><time>2026-04-19T12:09:41.992Z</time></trkpt><trkpt lat="44.279539" lon="10.1903913"><ele>967.0</ele><time>2026-04-19T12:09:42.993Z</time></trkpt><trkpt lat="44.2794354" lon="10.1901497"><ele>962.0</ele><time>2026-04-19T12:09:43.992Z</time></trkpt><trkpt lat="44.279341" lon="10.1898688"><ele>957.0</ele><time>2026-04-19T12:09:44.993Z</time></trkpt><trkpt lat="44.2792545" lon="10.1895593"><ele>950.5</ele><time>2026-04-19T12:09:45.992Z</time></trkpt><trkpt lat="44.2791762" lon="10.189246"><ele>944.0</ele><time>2026-04-19T12:09:46.993Z</time></trkpt><trkpt lat="44.2791039" lon="10.1889385"><ele>940.3333333333334</ele><time>2026-04-19T12:09:47.993Z</time></trkpt><trkpt lat="44.279044" lon="10.1886361"><ele>936.6666666666667</ele><time>2026-04-19T12:09:48.992Z</time></trkpt><trkpt lat="44.2789894" lon="10.1883455"><ele>933.0</ele><time>2026-04-19T12:09:49.993Z</time></trkpt><trkpt lat="44.2789427" lon="10.1880833"><ele>943.3333333333333</ele><time>2026-04-19T12:09:50.992Z</time></trkpt><trkpt lat="44.278901" lon="10.1878522"><ele>953.6666666666666</ele><time>2026-04-19T12:09:51.991Z</time></trkpt><trkpt lat="44.2788648" lon="10.1876376"><ele>964.0</ele><time>2026-04-19T12:09:52.992Z</time></trkpt><trkpt lat="44.2788342" lon="10.1874332"><ele>959.75</ele><time>2026-04-19T12:09:53.991Z</time></trkpt><trkpt lat="44.2788602" lon="10.1872547"><ele>955.5</ele><time>2026-04-19T12:09:54.993Z</time></trkpt><trkpt lat="44.2789056" lon="10.1870827"><ele>951.25</ele><time>2026-04-19T12:09:55.992Z</time></trkpt><trkpt lat="44.2789883" lon="10.1869212"><ele>947.0</ele><time>2026-04-19T12:09:56.992Z</time></trkpt><trkpt lat="44.2790769" lon="10.1867606"><ele>942.75</ele><time>2026-04-19T12:09:57.993Z</time></trkpt><trkpt lat="44.2791977" lon="10.1866258"><ele>938.5</ele><time>2026-04-19T12:09:58.993Z</time></trkpt><trkpt lat="44.2792758" lon="10.1864644"><ele>934.25</ele><time>2026-04-19T12:09:59.992Z</time></trkpt><trkpt lat="44.2793227" lon="10.1863038"><ele>930.0</ele><time>2026-04-19T12:10:00.993Z</time></trkpt><trkpt lat="44.2793423" lon="10.1861227"><ele>929.0</ele><time>2026-04-19T12:10:01.993Z</time></trkpt><trkpt lat="44.279357" lon="10.1859421"><ele>928.0</ele><time>2026-04-19T12:10:02.992Z</time></trkpt><trkpt lat="44.2792702" lon="10.1857804"><ele>927.0</ele><time>2026-04-19T12:10:03.992Z</time></trkpt><trkpt lat="44.2791974" lon="10.185647"><ele>926.0</ele><time>2026-04-19T12:10:04.993Z</time></trkpt><trkpt lat="44.2790935" lon="10.1855432"><ele>920.6666666666667</ele><time>2026-04-19T12:10:05.993Z</time></trkpt><trkpt lat="44.2789857" lon="10.1854453"><ele>915.3333333333333</ele><time>2026-04-19T12:10:06.992Z</time></trkpt><trkpt lat="44.2788105" lon="10.1854807"><ele>910.0</ele><time>2026-04-19T12:10:07.993Z</time></trkpt><trkpt lat="44.2786449" lon="10.1854961"><ele>910.0</ele><time>2026-04-19T12:10:08.992Z</time></trkpt><trkpt lat="44.2784589" lon="10.1855273"><ele>910.0</ele><time>2026-04-19T12:10:09.993Z</time></trkpt><trkpt lat="44.2782822" lon="10.1855781"><ele>910.0</ele><time>2026-04-19T12:10:10.992Z</time></trkpt><trkpt lat="44.2781107" lon="10.185674"><ele>913.0</ele><time>2026-04-19T12:10:11.993Z</time></trkpt><trkpt lat="44.2779527" lon="10.1858172"><ele>916.0</ele><time>2026-04-19T12:10:12.993Z</time></trkpt><trkpt lat="44.277797" lon="10.1859298"><ele>919.0</ele><time>2026-04-19T12:10:13.993Z</time></trkpt><trkpt lat="44.2776317" lon="10.1859996"><ele>919.0</ele><time>2026-04-19T12:10:14.992Z</time></trkpt><trkpt lat="44.2774648" lon="10.18604"><ele>919.0</ele><time>2026-04-19T12:10:15.993Z</time></trkpt><trkpt lat="44.2773042" lon="10.1860481"><ele>919.0</ele><time>2026-04-19T12:10:16.993Z</time></trkpt><trkpt lat="44.277149" lon="10.1860054"><ele>917.6666666666666</ele><time>2026-04-19T12:10:17.993Z</time></trkpt><trkpt lat="44.2769823" lon="10.1859079"><ele>916.3333333333333</ele><time>2026-04-19T12:10:18.993Z</time></trkpt><trkpt lat="44.2768088" lon="10.1857813"><ele>915.0</ele><time>2026-04-19T12:10:19.992Z</time></trkpt><trkpt lat="44.2766462" lon="10.1856757"><ele>915.0</ele><time>2026-04-19T12:10:20.992Z</time></trkpt><trkpt lat="44.2765203" lon="10.1855666"><ele>915.0</ele><time>2026-04-19T12:10:21.992Z</time></trkpt><trkpt lat="44.2763999" lon="10.1854205"><ele>915.0</ele><time>2026-04-19T12:10:22.993Z</time></trkpt><trkpt lat="44.276288" lon="10.1852192"><ele>920.3333333333333</ele><time>2026-04-19T12:10:23.992Z</time></trkpt><trkpt lat="44.2761722" lon="10.1849964"><ele>925.6666666666666</ele><time>2026-04-19T12:10:24.991Z</time></trkpt><trkpt lat="44.2760471" lon="10.1847631"><ele>931.0</ele><time>2026-04-19T12:10:25.993Z</time></trkpt><trkpt lat="44.2759313" lon="10.1845198"><ele>931.0</ele><time>2026-04-19T12:10:26.992Z</time></trkpt><trkpt lat="44.2758415" lon="10.1842806"><ele>931.0</ele><time>2026-04-19T12:10:27.993Z</time></trkpt><trkpt lat="44.2757705" lon="10.1840535"><ele>931.0</ele><time>2026-04-19T12:10:28.993Z</time></trkpt><trkpt lat="44.2756994" lon="10.1838471"><ele>931.0</ele><time>2026-04-19T12:10:29.992Z</time></trkpt><trkpt lat="44.2756088" lon="10.1836584"><ele>931.0</ele><time>2026-04-19T12:10:30.994Z</time></trkpt><trkpt lat="44.2754921" lon="10.1834863"><ele>931.0</ele><time>2026-04-19T12:10:31.992Z</time></trkpt><trkpt lat="44.2753478" lon="10.1833265"><ele>931.6666666666666</ele><time>2026-04-19T12:10:32.992Z</time></trkpt><trkpt lat="44.2751765" lon="10.1831626"><ele>932.3333333333333</ele><time>2026-04-19T12:10:33.992Z</time></trkpt><trkpt lat="44.2750064" lon="10.1830063"><ele>933.0</ele><time>2026-04-19T12:10:34.991Z</time></trkpt><trkpt lat="44.2748475" lon="10.1828702"><ele>939.0</ele><time>2026-04-19T12:10:35.993Z</time></trkpt><trkpt lat="44.2746971" lon="10.1827292"><ele>945.0</ele><time>2026-04-19T12:10:36.993Z</time></trkpt><trkpt lat="44.2745672" lon="10.1825744"><ele>951.0</ele><time>2026-04-19T12:10:37.993Z</time></trkpt><trkpt lat="44.2744641" lon="10.1823888"><ele>950.3333333333333</ele><time>2026-04-19T12:10:38.993Z</time></trkpt><trkpt lat="44.2743893" lon="10.1821843"><ele>949.6666666666666</ele><time>2026-04-19T12:10:39.992Z</time></trkpt><trkpt lat="44.2743418" lon="10.1819685"><ele>949.0</ele><time>2026-04-19T12:10:40.992Z</time></trkpt><trkpt lat="44.274323" lon="10.1817308"><ele>944.5</ele><time>2026-04-19T12:10:41.992Z</time></trkpt><trkpt lat="44.2743276" lon="10.1815056"><ele>940.0</ele><time>2026-04-19T12:10:42.993Z</time></trkpt><trkpt lat="44.2743329" lon="10.1813135"><ele>935.5</ele><time>2026-04-19T12:10:43.993Z</time></trkpt><trkpt lat="44.2743184" lon="10.1811522"><ele>931.0</ele><time>2026-04-19T12:10:44.993Z</time></trkpt><trkpt lat="44.2742684" lon="10.1810059"><ele>931.0</ele><time>2026-04-19T12:10:45.993Z</time></trkpt><trkpt lat="44.2741768" lon="10.1808857"><ele>931.0</ele><time>2026-04-19T12:10:46.993Z</time></trkpt><trkpt lat="44.2740498" lon="10.1807776"><ele>931.0</ele><time>2026-04-19T12:10:47.992Z</time></trkpt><trkpt lat="44.2738881" lon="10.1806808"><ele>928.3333333333333</ele><time>2026-04-19T12:10:48.992Z</time></trkpt><trkpt lat="44.2737065" lon="10.1806079"><ele>925.6666666666667</ele><time>2026-04-19T12:10:49.993Z</time></trkpt><trkpt lat="44.2735033" lon="10.1805295"><ele>923.0</ele><time>2026-04-19T12:10:50.993Z</time></trkpt><trkpt lat="44.2733132" lon="10.1804526"><ele>923.0</ele><time>2026-04-19T12:10:51.992Z</time></trkpt><trkpt lat="44.2731449" lon="10.1803928"><ele>923.0</ele><time>2026-04-19T12:10:52.992Z</time></trkpt><trkpt lat="44.2729857" lon="10.1803615"><ele>923.0</ele><time>2026-04-19T12:10:53.993Z</time></trkpt><trkpt lat="44.2728288" lon="10.1803694"><ele>923.6666666666667</ele><time>2026-04-19T12:10:54.993Z</time></trkpt><trkpt lat="44.2726622" lon="10.1804215"><ele>924.3333333333333</ele><time>2026-04-19T12:10:55.992Z</time></trkpt><trkpt lat="44.2724744" lon="10.1805253"><ele>925.0</ele><time>2026-04-19T12:10:56.993Z</time></trkpt><trkpt lat="44.2722714" lon="10.1806344"><ele>930.3333333333333</ele><time>2026-04-19T12:10:57.993Z</time></trkpt><trkpt lat="44.2720862" lon="10.1807388"><ele>935.6666666666667</ele><time>2026-04-19T12:10:58.992Z</time></trkpt><trkpt lat="44.2719209" lon="10.180833"><ele>941.0</ele><time>2026-04-19T12:10:59.992Z</time></trkpt><trkpt lat="44.2717783" lon="10.1809158"><ele>941.0</ele><time>2026-04-19T12:11:00.993Z</time></trkpt><trkpt lat="44.2716578" lon="10.1809842"><ele>940.9999999999999</ele><time>2026-04-19T12:11:01.992Z</time></trkpt><trkpt lat="44.2715491" lon="10.1810266"><ele>940.9999999999999</ele><time>2026-04-19T12:11:02.992Z</time></trkpt><trkpt lat="44.2714487" lon="10.1810337"><ele>941.0</ele><time>2026-04-19T12:11:03.992Z</time></trkpt><trkpt lat="44.2713587" lon="10.1809936"><ele>941.0</ele><time>2026-04-19T12:11:04.992Z</time></trkpt><trkpt lat="44.2712968" lon="10.180917"><ele>949.5</ele><time>2026-04-19T12:11:05.992Z</time></trkpt><trkpt lat="44.2712762" lon="10.1807879"><ele>958.0</ele><time>2026-04-19T12:11:06.993Z</time></trkpt><trkpt lat="44.2712894" lon="10.1806433"><ele>966.5</ele><time>2026-04-19T12:11:07.993Z</time></trkpt><trkpt lat="44.2713277" lon="10.1804701"><ele>975.0</ele><time>2026-04-19T12:11:08.991Z</time></trkpt><trkpt lat="44.2713482" lon="10.180248"><ele>975.0</ele><time>2026-04-19T12:11:09.992Z</time></trkpt><trkpt lat="44.2713416" lon="10.179999"><ele>975.0</ele><time>2026-04-19T12:11:10.992Z</time></trkpt><trkpt lat="44.2713156" lon="10.1797847"><ele>975.0</ele><time>2026-04-19T12:11:11.993Z</time></trkpt><trkpt lat="44.2712711" lon="10.1795806"><ele>969.3333333333333</ele><time>2026-04-19T12:11:12.992Z</time></trkpt><trkpt lat="44.2711799" lon="10.17939"><ele>963.6666666666666</ele><time>2026-04-19T12:11:13.992Z</time></trkpt><trkpt lat="44.2710676" lon="10.1792031"><ele>958.0</ele><time>2026-04-19T12:11:14.992Z</time></trkpt><trkpt lat="44.2709693" lon="10.1789834"><ele>952.6666666666666</ele><time>2026-04-19T12:11:15.992Z</time></trkpt><trkpt lat="44.2708788" lon="10.178763"><ele>947.3333333333333</ele><time>2026-04-19T12:11:16.993Z</time></trkpt><trkpt lat="44.2708172" lon="10.1785663"><ele>942.0</ele><time>2026-04-19T12:11:17.992Z</time></trkpt><trkpt lat="44.2707532" lon="10.1784017"><ele>942.0</ele><time>2026-04-19T12:11:18.993Z</time></trkpt><trkpt lat="44.2706884" lon="10.1782691"><ele>942.0</ele><time>2026-04-19T12:11:19.993Z</time></trkpt><trkpt lat="44.2706003" lon="10.1781855"><ele>942.0</ele><time>2026-04-19T12:11:20.992Z</time></trkpt><trkpt lat="44.2704904" lon="10.178146"><ele>942.0</ele><time>2026-04-19T12:11:21.993Z</time></trkpt><trkpt lat="44.2703601" lon="10.1781678"><ele>944.0</ele><time>2026-04-19T12:11:22.991Z</time></trkpt><trkpt lat="44.2702129" lon="10.178228"><ele>946.0</ele><time>2026-04-19T12:11:23.993Z</time></trkpt><trkpt lat="44.2700356" lon="10.1783316"><ele>948.0</ele><time>2026-04-19T12:11:24.993Z</time></trkpt><trkpt lat="44.2698532" lon="10.1784215"><ele>943.6666666666667</ele><time>2026-04-19T12:11:25.993Z</time></trkpt><trkpt lat="44.2696517" lon="10.1785066"><ele>939.3333333333334</ele><time>2026-04-19T12:11:26.992Z</time></trkpt><trkpt lat="44.2694646" lon="10.17855"><ele>935.0</ele><time>2026-04-19T12:11:27.992Z</time></trkpt><trkpt lat="44.2692906" lon="10.1785834"><ele>935.0</ele><time>2026-04-19T12:11:28.992Z</time></trkpt><trkpt lat="44.269152" lon="10.1786412"><ele>935.0</ele><time>2026-04-19T12:11:29.992Z</time></trkpt><trkpt lat="44.2689988" lon="10.1787577"><ele>935.0</ele><time>2026-04-19T12:11:30.993Z</time></trkpt><trkpt lat="44.2688394" lon="10.1788722"><ele>941.3333333333334</ele><time>2026-04-19T12:11:31.993Z</time></trkpt><trkpt lat="44.2686638" lon="10.1789498"><ele>947.6666666666667</ele><time>2026-04-19T12:11:32.993Z</time></trkpt><trkpt lat="44.2685015" lon="10.1790422"><ele>954.0</ele><time>2026-04-19T12:11:33.992Z</time></trkpt><trkpt lat="44.268353" lon="10.1791649"><ele>954.0</ele><time>2026-04-19T12:11:34.993Z</time></trkpt><trkpt lat="44.2682304" lon="10.1793391"><ele>954.0</ele><time>2026-04-19T12:11:35.992Z</time></trkpt><trkpt lat="44.2681319" lon="10.179501"><ele>954.0</ele><time>2026-04-19T12:11:36.992Z</time></trkpt><trkpt lat="44.2680499" lon="10.1796057"><ele>954.0</ele><time>2026-04-19T12:11:37.993Z</time></trkpt><trkpt lat="44.2679698" lon="10.1796703"><ele>949.8000000000001</ele><time>2026-04-19T12:11:38.993Z</time></trkpt><trkpt lat="44.2678838" lon="10.1796824"><ele>945.6000000000001</ele><time>2026-04-19T12:11:39.993Z</time></trkpt><trkpt lat="44.2677944" lon="10.1796302"><ele>941.4</ele><time>2026-04-19T12:11:40.993Z</time></trkpt><trkpt lat="44.2677154" lon="10.1795267"><ele>937.2</ele><time>2026-04-19T12:11:41.993Z</time></trkpt><trkpt lat="44.267629" lon="10.1794237"><ele>933.0</ele><time>2026-04-19T12:11:42.993Z</time></trkpt><trkpt lat="44.2675311" lon="10.1793863"><ele>933.0</ele><time>2026-04-19T12:11:43.991Z</time></trkpt><trkpt lat="44.2674073" lon="10.179404"><ele>933.0</ele><time>2026-04-19T12:11:44.992Z</time></trkpt><trkpt lat="44.2672608" lon="10.1794519"><ele>933.0</ele><time>2026-04-19T12:11:45.992Z</time></trkpt><trkpt lat="44.2671212" lon="10.1795115"><ele>933.0</ele><time>2026-04-19T12:11:46.993Z</time></trkpt><trkpt lat="44.2670098" lon="10.1795847"><ele>932.2</ele><time>2026-04-19T12:11:47.993Z</time></trkpt><trkpt lat="44.2669196" lon="10.1796382"><ele>931.4</ele><time>2026-04-19T12:11:48.991Z</time></trkpt><trkpt lat="44.2668372" lon="10.1796741"><ele>930.6000000000001</ele><time>2026-04-19T12:11:49.991Z</time></trkpt><trkpt lat="44.2667515" lon="10.1796718"><ele>929.8000000000001</ele><time>2026-04-19T12:11:50.992Z</time></trkpt><trkpt lat="44.2666624" lon="10.1796207"><ele>929.0</ele><time>2026-04-19T12:11:51.991Z</time></trkpt><trkpt lat="44.2665729" lon="10.1795525"><ele>929.0</ele><time>2026-04-19T12:11:52.992Z</time></trkpt><trkpt lat="44.2664789" lon="10.1794722"><ele>929.0</ele><time>2026-04-19T12:11:53.993Z</time></trkpt><trkpt lat="44.2663754" lon="10.1793895"><ele>929.0</ele><time>2026-04-19T12:11:54.993Z</time></trkpt><trkpt lat="44.2662646" lon="10.1793092"><ele>929.0</ele><time>2026-04-19T12:11:55.991Z</time></trkpt><trkpt lat="44.2661482" lon="10.1792424"><ele>931.5</ele><time>2026-04-19T12:11:56.991Z</time></trkpt><trkpt lat="44.2660233" lon="10.1791943"><ele>934.0</ele><time>2026-04-19T12:11:57.992Z</time></trkpt><trkpt lat="44.2658975" lon="10.1791685"><ele>936.5</ele><time>2026-04-19T12:11:58.993Z</time></trkpt><trkpt lat="44.2657767" lon="10.1791579"><ele>939.0</ele><time>2026-04-19T12:11:59.992Z</time></trkpt><trkpt lat="44.2656593" lon="10.1791518"><ele>940.8000000000001</ele><time>2026-04-19T12:12:00.993Z</time></trkpt><trkpt lat="44.2655488" lon="10.1791477"><ele>942.6000000000001</ele><time>2026-04-19T12:12:01.993Z</time></trkpt><trkpt lat="44.2654438" lon="10.1791297"><ele>944.4</ele><time>2026-04-19T12:12:02.992Z</time></trkpt><trkpt lat="44.2653543" lon="10.1790929"><ele>946.2</ele><time>2026-04-19T12:12:03.993Z</time></trkpt><trkpt lat="44.2652825" lon="10.1790226"><ele>948.0</ele><time>2026-04-19T12:12:04.992Z</time></trkpt><trkpt lat="44.2652278" lon="10.1789234"><ele>948.0</ele><time>2026-04-19T12:12:05.992Z</time></trkpt><trkpt lat="44.2651999" lon="10.1787921"><ele>948.0</ele><time>2026-04-19T12:12:06.993Z</time></trkpt><trkpt lat="44.2652091" lon="10.1786297"><ele>948.0</ele><time>2026-04-19T12:12:07.993Z</time></trkpt><trkpt lat="44.2652324" lon="10.1784493"><ele>948.0</ele><time>2026-04-19T12:12:08.992Z</time></trkpt><trkpt lat="44.2652575" lon="10.1782598"><ele>945.0</ele><time>2026-04-19T12:12:09.992Z</time></trkpt><trkpt lat="44.2652825" lon="10.1780752"><ele>942.0</ele><time>2026-04-19T12:12:10.992Z</time></trkpt><trkpt lat="44.2653082" lon="10.1778923"><ele>939.0</ele><time>2026-04-19T12:12:11.993Z</time></trkpt><trkpt lat="44.2653289" lon="10.177721"><ele>936.0</ele><time>2026-04-19T12:12:12.992Z</time></trkpt><trkpt lat="44.2653405" lon="10.1775558"><ele>936.0</ele><time>2026-04-19T12:12:13.993Z</time></trkpt><trkpt lat="44.2653288" lon="10.1773813"><ele>936.0</ele><time>2026-04-19T12:12:14.993Z</time></trkpt><trkpt lat="44.2652813" lon="10.1771976"><ele>936.0</ele><time>2026-04-19T12:12:15.992Z</time></trkpt><trkpt lat="44.2652412" lon="10.176997"><ele>936.0</ele><time>2026-04-19T12:12:16.992Z</time></trkpt><trkpt lat="44.2652318" lon="10.1767727"><ele>933.3333333333333</ele><time>2026-04-19T12:12:17.992Z</time></trkpt><trkpt lat="44.2652219" lon="10.1765388"><ele>930.6666666666666</ele><time>2026-04-19T12:12:18.993Z</time></trkpt><trkpt lat="44.2652174" lon="10.176305"><ele>928.0</ele><time>2026-04-19T12:12:19.992Z</time></trkpt><trkpt lat="44.2652181" lon="10.176081"><ele>927.6666666666666</ele><time>2026-04-19T12:12:20.992Z</time></trkpt><trkpt lat="44.2652316" lon="10.1758643"><ele>927.3333333333333</ele><time>2026-04-19T12:12:21.993Z</time></trkpt><trkpt lat="44.2652588" lon="10.1756573"><ele>927.0</ele><time>2026-04-19T12:12:22.993Z</time></trkpt><trkpt lat="44.2652873" lon="10.1754575"><ele>927.0</ele><time>2026-04-19T12:12:23.993Z</time></trkpt><trkpt lat="44.2653099" lon="10.1752606"><ele>927.0</ele><time>2026-04-19T12:12:24.993Z</time></trkpt><trkpt lat="44.26532" lon="10.1750664"><ele>927.0</ele><time>2026-04-19T12:12:25.991Z</time></trkpt><trkpt lat="44.2653132" lon="10.1748757"><ele>927.0</ele><time>2026-04-19T12:12:26.992Z</time></trkpt><trkpt lat="44.2652898" lon="10.1746923"><ele>926.25</ele><time>2026-04-19T12:12:27.993Z</time></trkpt><trkpt lat="44.2652565" lon="10.1745138"><ele>925.5</ele><time>2026-04-19T12:12:28.993Z</time></trkpt><trkpt lat="44.2652202" lon="10.1743348"><ele>924.75</ele><time>2026-04-19T12:12:29.991Z</time></trkpt><trkpt lat="44.2651862" lon="10.174152"><ele>924.0</ele><time>2026-04-19T12:12:30.993Z</time></trkpt><trkpt lat="44.265159" lon="10.1739651"><ele>922.0</ele><time>2026-04-19T12:12:31.992Z</time></trkpt><trkpt lat="44.265143" lon="10.1737731"><ele>920.0</ele><time>2026-04-19T12:12:32.993Z</time></trkpt><trkpt lat="44.2651392" lon="10.1735762"><ele>918.0</ele><time>2026-04-19T12:12:33.992Z</time></trkpt><trkpt lat="44.265147" lon="10.1733669"><ele>916.0</ele><time>2026-04-19T12:12:34.992Z</time></trkpt><trkpt lat="44.2651655" lon="10.1731723"><ele>913.0</ele><time>2026-04-19T12:12:35.992Z</time></trkpt><trkpt lat="44.2651876" lon="10.1730024"><ele>909.9999999999999</ele><time>2026-04-19T12:12:36.992Z</time></trkpt><trkpt lat="44.2652011" lon="10.1728505"><ele>906.9999999999999</ele><time>2026-04-19T12:12:37.993Z</time></trkpt><trkpt lat="44.2651818" lon="10.1727162"><ele>904.0</ele><time>2026-04-19T12:12:38.993Z</time></trkpt><trkpt lat="44.2651247" lon="10.1725976"><ele>901.0</ele><time>2026-04-19T12:12:39.993Z</time></trkpt><trkpt lat="44.2650367" lon="10.1724857"><ele>901.0</ele><time>2026-04-19T12:12:40.991Z</time></trkpt><trkpt lat="44.2649368" lon="10.1723681"><ele>901.0</ele><time>2026-04-19T12:12:41.992Z</time></trkpt><trkpt lat="44.2648377" lon="10.1722269"><ele>901.0</ele><time>2026-04-19T12:12:42.992Z</time></trkpt><trkpt lat="44.264747" lon="10.1720458"><ele>901.0</ele><time>2026-04-19T12:12:43.993Z</time></trkpt><trkpt lat="44.2646487" lon="10.1718404"><ele>904.3333333333333</ele><time>2026-04-19T12:12:44.992Z</time></trkpt><trkpt lat="44.2645324" lon="10.1716172"><ele>907.6666666666667</ele><time>2026-04-19T12:12:45.993Z</time></trkpt><trkpt lat="44.2644203" lon="10.1714022"><ele>911.0</ele><time>2026-04-19T12:12:46.993Z</time></trkpt><trkpt lat="44.2643171" lon="10.1711919"><ele>904.3333333333334</ele><time>2026-04-19T12:12:47.992Z</time></trkpt><trkpt lat="44.2642239" lon="10.1709833"><ele>897.6666666666667</ele><time>2026-04-19T12:12:48.991Z</time></trkpt><trkpt lat="44.2641482" lon="10.1707671"><ele>891.0</ele><time>2026-04-19T12:12:49.992Z</time></trkpt><trkpt lat="44.2641075" lon="10.1705395"><ele>887.6666666666667</ele><time>2026-04-19T12:12:50.993Z</time></trkpt><trkpt lat="44.2640971" lon="10.1702815"><ele>884.3333333333334</ele><time>2026-04-19T12:12:51.993Z</time></trkpt><trkpt lat="44.2640959" lon="10.1699822"><ele>881.0</ele><time>2026-04-19T12:12:52.992Z</time></trkpt><trkpt lat="44.2640943" lon="10.1696748"><ele>879.0</ele><time>2026-04-19T12:12:53.993Z</time></trkpt><trkpt lat="44.2640922" lon="10.1693837"><ele>877.0</ele><time>2026-04-19T12:12:54.993Z</time></trkpt><trkpt lat="44.2640906" lon="10.1691007"><ele>875.0</ele><time>2026-04-19T12:12:55.992Z</time></trkpt><trkpt lat="44.2640872" lon="10.1688436"><ele>872.0</ele><time>2026-04-19T12:12:56.992Z</time></trkpt><trkpt lat="44.2640768" lon="10.1686145"><ele>869.0</ele><time>2026-04-19T12:12:57.992Z</time></trkpt><trkpt lat="44.2640436" lon="10.1684141"><ele>866.0</ele><time>2026-04-19T12:12:58.991Z</time></trkpt><trkpt lat="44.2639787" lon="10.1682105"><ele>864.25</ele><time>2026-04-19T12:12:59.992Z</time></trkpt><trkpt lat="44.2638945" lon="10.1680177"><ele>862.5</ele><time>2026-04-19T12:13:00.993Z</time></trkpt><trkpt lat="44.2638223" lon="10.1678737"><ele>860.75</ele><time>2026-04-19T12:13:01.993Z</time></trkpt><trkpt lat="44.2637402" lon="10.1677637"><ele>859.0</ele><time>2026-04-19T12:13:02.993Z</time></trkpt><trkpt lat="44.2636371" lon="10.1676937"><ele>859.0</ele><time>2026-04-19T12:13:03.991Z</time></trkpt><trkpt lat="44.2635133" lon="10.1676702"><ele>859.0</ele><time>2026-04-19T12:13:04.992Z</time></trkpt><trkpt lat="44.2633702" lon="10.1676995"><ele>859.0</ele><time>2026-04-19T12:13:05.993Z</time></trkpt><trkpt lat="44.2632081" lon="10.1677617"><ele>859.0</ele><time>2026-04-19T12:13:06.993Z</time></trkpt><trkpt lat="44.2630479" lon="10.1678008"><ele>858.3333333333333</ele><time>2026-04-19T12:13:07.992Z</time></trkpt><trkpt lat="44.2628854" lon="10.167813"><ele>857.6666666666667</ele><time>2026-04-19T12:13:08.992Z</time></trkpt><trkpt lat="44.2627197" lon="10.1677971"><ele>857.0</ele><time>2026-04-19T12:13:09.993Z</time></trkpt><trkpt lat="44.262553" lon="10.1677206"><ele>857.0</ele><time>2026-04-19T12:13:10.993Z</time></trkpt><trkpt lat="44.2623893" lon="10.1675872"><ele>857.0</ele><time>2026-04-19T12:13:11.992Z</time></trkpt><trkpt lat="44.2622124" lon="10.1674341"><ele>857.0</ele><time>2026-04-19T12:13:12.992Z</time></trkpt><trkpt lat="44.2620071" lon="10.1672611"><ele>848.5</ele><time>2026-04-19T12:13:13.993Z</time></trkpt><trkpt lat="44.2617879" lon="10.1670986"><ele>840.0</ele><time>2026-04-19T12:13:14.993Z</time></trkpt><trkpt lat="44.2615792" lon="10.1669286"><ele>838.6666666666667</ele><time>2026-04-19T12:13:15.992Z</time></trkpt><trkpt lat="44.2613868" lon="10.1667569"><ele>837.3333333333334</ele><time>2026-04-19T12:13:16.993Z</time></trkpt><trkpt lat="44.2612184" lon="10.166629"><ele>836.0</ele><time>2026-04-19T12:13:17.992Z</time></trkpt><trkpt lat="44.2610635" lon="10.1665335"><ele>834.25</ele><time>2026-04-19T12:13:18.993Z</time></trkpt><trkpt lat="44.2609284" lon="10.1664507"><ele>832.5</ele><time>2026-04-19T12:13:19.992Z</time></trkpt><trkpt lat="44.2608095" lon="10.1663561"><ele>830.75</ele><time>2026-04-19T12:13:20.993Z</time></trkpt><trkpt lat="44.2607113" lon="10.1662281"><ele>829.0</ele><time>2026-04-19T12:13:21.993Z</time></trkpt><trkpt lat="44.2606268" lon="10.1660854"><ele>828.8000000000001</ele><time>2026-04-19T12:13:22.993Z</time></trkpt><trkpt lat="44.2605604" lon="10.1659393"><ele>828.6</ele><time>2026-04-19T12:13:23.992Z</time></trkpt><trkpt lat="44.2605059" lon="10.1658123"><ele>828.4</ele><time>2026-04-19T12:13:24.993Z</time></trkpt><trkpt lat="44.2604485" lon="10.1657074"><ele>828.2</ele><time>2026-04-19T12:13:25.993Z</time></trkpt><trkpt lat="44.2603766" lon="10.1656357"><ele>828.0</ele><time>2026-04-19T12:13:26.992Z</time></trkpt><trkpt lat="44.2602925" lon="10.1656119"><ele>828.0</ele><time>2026-04-19T12:13:27.992Z</time></trkpt><trkpt lat="44.2602165" lon="10.1656419"><ele>828.0</ele><time>2026-04-19T12:13:28.993Z</time></trkpt><trkpt lat="44.2601608" lon="10.1657202"><ele>828.0</ele><time>2026-04-19T12:13:29.992Z</time></trkpt><trkpt lat="44.2601443" lon="10.1658276"><ele>828.0</ele><time>2026-04-19T12:13:30.992Z</time></trkpt><trkpt lat="44.2601687" lon="10.1659646"><ele>828.0</ele><time>2026-04-19T12:13:31.993Z</time></trkpt><trkpt lat="44.2602354" lon="10.1661184"><ele>826.0</ele><time>2026-04-19T12:13:32.992Z</time></trkpt><trkpt lat="44.2603335" lon="10.1662754"><ele>824.0</ele><time>2026-04-19T12:13:33.992Z</time></trkpt><trkpt lat="44.2604357" lon="10.1664412"><ele>822.0</ele><time>2026-04-19T12:13:34.992Z</time></trkpt><trkpt lat="44.2605205" lon="10.1666147"><ele>825.5</ele><time>2026-04-19T12:13:35.991Z</time></trkpt><trkpt lat="44.2605865" lon="10.1667975"><ele>829.0</ele><time>2026-04-19T12:13:36.993Z</time></trkpt><trkpt lat="44.2606318" lon="10.1669868"><ele>832.5</ele><time>2026-04-19T12:13:37.992Z</time></trkpt><trkpt lat="44.2606538" lon="10.1671633"><ele>836.0</ele><time>2026-04-19T12:13:38.992Z</time></trkpt><trkpt lat="44.2606388" lon="10.1673486"><ele>823.0</ele><time>2026-04-19T12:13:39.992Z</time></trkpt><trkpt lat="44.2605962" lon="10.1675407"><ele>810.0</ele><time>2026-04-19T12:13:40.993Z</time></trkpt><trkpt lat="44.2605484" lon="10.1677182"><ele>797.0</ele><time>2026-04-19T12:13:41.992Z</time></trkpt><trkpt lat="44.2604973" lon="10.1678892"><ele>784.0</ele><time>2026-04-19T12:13:42.993Z</time></trkpt><trkpt lat="44.2604502" lon="10.1680597"><ele>784.75</ele><time>2026-04-19T12:13:43.991Z</time></trkpt><trkpt lat="44.2604209" lon="10.1682285"><ele>785.5</ele><time>2026-04-19T12:13:44.992Z</time></trkpt><trkpt lat="44.2604124" lon="10.1684003"><ele>786.25</ele><time>2026-04-19T12:13:45.992Z</time></trkpt><trkpt lat="44.2604294" lon="10.1685759"><ele>787.0</ele><time>2026-04-19T12:13:46.993Z</time></trkpt><trkpt lat="44.2604676" lon="10.1687457"><ele>787.0</ele><time>2026-04-19T12:13:47.992Z</time></trkpt><trkpt lat="44.260524" lon="10.1689077"><ele>787.0</ele><time>2026-04-19T12:13:48.992Z</time></trkpt><trkpt lat="44.2605931" lon="10.1690676"><ele>787.0</ele><time>2026-04-19T12:13:49.991Z</time></trkpt><trkpt lat="44.2606462" lon="10.1692423"><ele>787.0</ele><time>2026-04-19T12:13:50.993Z</time></trkpt><trkpt lat="44.2606815" lon="10.1694052"><ele>785.2</ele><time>2026-04-19T12:13:51.992Z</time></trkpt><trkpt lat="44.260694" lon="10.169551"><ele>783.4000000000001</ele><time>2026-04-19T12:13:52.992Z</time></trkpt><trkpt lat="44.2606737" lon="10.1696933"><ele>781.5999999999999</ele><time>2026-04-19T12:13:53.993Z</time></trkpt><trkpt lat="44.2606114" lon="10.1698245"><ele>779.8</ele><time>2026-04-19T12:13:54.992Z</time></trkpt><trkpt lat="44.2605249" lon="10.1699365"><ele>778.0</ele><time>2026-04-19T12:13:55.992Z</time></trkpt><trkpt lat="44.2604465" lon="10.1700518"><ele>777.0</ele><time>2026-04-19T12:13:56.991Z</time></trkpt><trkpt lat="44.2603834" lon="10.1701804"><ele>776.0</ele><time>2026-04-19T12:13:57.993Z</time></trkpt><trkpt lat="44.2603477" lon="10.1703187"><ele>775.0</ele><time>2026-04-19T12:13:58.991Z</time></trkpt><trkpt lat="44.2603415" lon="10.1704661"><ele>774.0</ele><time>2026-04-19T12:13:59.992Z</time></trkpt><trkpt lat="44.2603755" lon="10.1706265"><ele>773.0</ele><time>2026-04-19T12:14:00.993Z</time></trkpt><trkpt lat="44.2604432" lon="10.1707878"><ele>771.5</ele><time>2026-04-19T12:14:01.992Z</time></trkpt><trkpt lat="44.2605235" lon="10.1709571"><ele>770.0</ele><time>2026-04-19T12:14:02.993Z</time></trkpt><trkpt lat="44.2605864" lon="10.1711178"><ele>768.5</ele><time>2026-04-19T12:14:03.993Z</time></trkpt><trkpt lat="44.2606458" lon="10.1712775"><ele>767.0</ele><time>2026-04-19T12:14:04.991Z</time></trkpt><trkpt lat="44.2607019" lon="10.1714309"><ele>773.5</ele><time>2026-04-19T12:14:05.993Z</time></trkpt><trkpt lat="44.2607577" lon="10.1715776"><ele>780.0</ele><time>2026-04-19T12:14:06.993Z</time></trkpt><trkpt lat="44.2608214" lon="10.1717116"><ele>786.5</ele><time>2026-04-19T12:14:07.993Z</time></trkpt><trkpt lat="44.2609029" lon="10.1718211"><ele>793.0</ele><time>2026-04-19T12:14:08.993Z</time></trkpt><trkpt lat="44.2610083" lon="10.1719066"><ele>793.0</ele><time>2026-04-19T12:14:09.992Z</time></trkpt><trkpt lat="44.2611154" lon="10.171978"><ele>793.0</ele><time>2026-04-19T12:14:10.993Z</time></trkpt><trkpt lat="44.261203" lon="10.1720868"><ele>793.0</ele><time>2026-04-19T12:14:11.991Z</time></trkpt><trkpt lat="44.2612803" lon="10.1722283"><ele>793.0</ele><time>2026-04-19T12:14:12.991Z</time></trkpt><trkpt lat="44.2613471" lon="10.1723932"><ele>796.75</ele><time>2026-04-19T12:14:13.992Z</time></trkpt><trkpt lat="44.2614199" lon="10.1725766"><ele>800.5</ele><time>2026-04-19T12:14:14.992Z</time></trkpt><trkpt lat="44.2614972" lon="10.1727545"><ele>804.25</ele><time>2026-04-19T12:14:15.992Z</time></trkpt><trkpt lat="44.2615855" lon="10.1729211"><ele>808.0</ele><time>2026-04-19T12:14:16.992Z</time></trkpt><trkpt lat="44.2616834" lon="10.1730901"><ele>800.5</ele><time>2026-04-19T12:14:17.993Z</time></trkpt><trkpt lat="44.2617826" lon="10.1732563"><ele>793.0</ele><time>2026-04-19T12:14:18.992Z</time></trkpt><trkpt lat="44.2618752" lon="10.1734182"><ele>785.5</ele><time>2026-04-19T12:14:19.992Z</time></trkpt><trkpt lat="44.2619645" lon="10.173576"><ele>778.0</ele><time>2026-04-19T12:14:20.992Z</time></trkpt><trkpt lat="44.2620438" lon="10.1737165"><ele>778.0</ele><time>2026-04-19T12:14:21.992Z</time></trkpt><trkpt lat="44.2621084" lon="10.1738487"><ele>778.0</ele><time>2026-04-19T12:14:22.993Z</time></trkpt><trkpt lat="44.2621542" lon="10.1739927"><ele>778.0</ele><time>2026-04-19T12:14:23.992Z</time></trkpt><trkpt lat="44.2621778" lon="10.1741517"><ele>778.0</ele><time>2026-04-19T12:14:24.993Z</time></trkpt><trkpt lat="44.2621607" lon="10.1742952"><ele>778.0</ele><time>2026-04-19T12:14:25.992Z</time></trkpt><trkpt lat="44.2621202" lon="10.1744287"><ele>773.25</ele><time>2026-04-19T12:14:26.993Z</time></trkpt><trkpt lat="44.2620393" lon="10.1745417"><ele>768.5</ele><time>2026-04-19T12:14:27.993Z</time></trkpt><trkpt lat="44.2619235" lon="10.1746201"><ele>763.75</ele><time>2026-04-19T12:14:28.993Z</time></trkpt><trkpt lat="44.2617822" lon="10.1746797"><ele>759.0</ele><time>2026-04-19T12:14:29.991Z</time></trkpt><trkpt lat="44.2616546" lon="10.1747458"><ele>759.0</ele><time>2026-04-19T12:14:30.993Z</time></trkpt><trkpt lat="44.2615474" lon="10.174829"><ele>759.0</ele><time>2026-04-19T12:14:31.992Z</time></trkpt><trkpt lat="44.261449" lon="10.1749146"><ele>759.0</ele><time>2026-04-19T12:14:32.992Z</time></trkpt><trkpt lat="44.2613381" lon="10.1749699"><ele>759.0</ele><time>2026-04-19T12:14:33.992Z</time></trkpt><trkpt lat="44.2612096" lon="10.1749802"><ele>762.3333333333333</ele><time>2026-04-19T12:14:34.993Z</time></trkpt><trkpt lat="44.261045" lon="10.1749636"><ele>765.6666666666666</ele><time>2026-04-19T12:14:35.993Z</time></trkpt><trkpt lat="44.2608529" lon="10.1749319"><ele>769.0</ele><time>2026-04-19T12:14:36.993Z</time></trkpt><trkpt lat="44.2606413" lon="10.1748941"><ele>768.5</ele><time>2026-04-19T12:14:37.992Z</time></trkpt><trkpt lat="44.26041" lon="10.1748558"><ele>768.0</ele><time>2026-04-19T12:14:38.993Z</time></trkpt><trkpt lat="44.2601814" lon="10.1748297"><ele>755.0</ele><time>2026-04-19T12:14:39.992Z</time></trkpt><trkpt lat="44.2599515" lon="10.1747941"><ele>742.0</ele><time>2026-04-19T12:14:40.993Z</time></trkpt><trkpt lat="44.2597429" lon="10.1747495"><ele>729.0</ele><time>2026-04-19T12:14:41.993Z</time></trkpt><trkpt lat="44.2595537" lon="10.174702"><ele>729.0</ele><time>2026-04-19T12:14:42.991Z</time></trkpt><trkpt lat="44.2593909" lon="10.1746328"><ele>729.0</ele><time>2026-04-19T12:14:43.993Z</time></trkpt><trkpt lat="44.2592446" lon="10.1745459"><ele>729.0</ele><time>2026-04-19T12:14:44.992Z</time></trkpt><trkpt lat="44.2591154" lon="10.1744661"><ele>729.0</ele><time>2026-04-19T12:14:45.993Z</time></trkpt><trkpt lat="44.2589931" lon="10.1744"><ele>729.0</ele><time>2026-04-19T12:14:46.992Z</time></trkpt><trkpt lat="44.2588763" lon="10.174365"><ele>729.0</ele><time>2026-04-19T12:14:47.993Z</time></trkpt><trkpt lat="44.2587655" lon="10.1743741"><ele>729.0</ele><time>2026-04-19T12:14:48.992Z</time></trkpt><trkpt lat="44.2586694" lon="10.1744253"><ele>727.25</ele><time>2026-04-19T12:14:49.992Z</time></trkpt><trkpt lat="44.2585975" lon="10.174509"><ele>725.5</ele><time>2026-04-19T12:14:50.992Z</time></trkpt><trkpt lat="44.2585505" lon="10.1746309"><ele>723.75</ele><time>2026-04-19T12:14:51.993Z</time></trkpt><trkpt lat="44.2585302" lon="10.1747907"><ele>722.0</ele><time>2026-04-19T12:14:52.992Z</time></trkpt><trkpt lat="44.2585214" lon="10.1749889"><ele>722.0</ele><time>2026-04-19T12:14:53.993Z</time></trkpt><trkpt lat="44.2585138" lon="10.1751889"><ele>722.0</ele><time>2026-04-19T12:14:54.992Z</time></trkpt><trkpt lat="44.2585123" lon="10.1753651"><ele>722.0</ele><time>2026-04-19T12:14:55.992Z</time></trkpt><trkpt lat="44.2585237" lon="10.1755243"><ele>722.0</ele><time>2026-04-19T12:14:56.993Z</time></trkpt><trkpt lat="44.2585614" lon="10.1756786"><ele>720.75</ele><time>2026-04-19T12:14:57.992Z</time></trkpt><trkpt lat="44.258631" lon="10.1758185"><ele>719.5</ele><time>2026-04-19T12:14:58.993Z</time></trkpt><trkpt lat="44.2587158" lon="10.1759583"><ele>718.25</ele><time>2026-04-19T12:14:59.992Z</time></trkpt><trkpt lat="44.2588061" lon="10.1761125"><ele>717.0</ele><time>2026-04-19T12:15:00.993Z</time></trkpt><trkpt lat="44.2589065" lon="10.1762809"><ele>720.75</ele><time>2026-04-19T12:15:01.993Z</time></trkpt><trkpt lat="44.2590054" lon="10.1764386"><ele>724.5</ele><time>2026-04-19T12:15:02.992Z</time></trkpt><trkpt lat="44.2591004" lon="10.1765872"><ele>728.25</ele><time>2026-04-19T12:15:03.992Z</time></trkpt><trkpt lat="44.259174" lon="10.1767152"><ele>732.0</ele><time>2026-04-19T12:15:04.993Z</time></trkpt><trkpt lat="44.259235" lon="10.1768555"><ele>732.0</ele><time>2026-04-19T12:15:05.991Z</time></trkpt><trkpt lat="44.2592706" lon="10.1770096"><ele>732.0</ele><time>2026-04-19T12:15:06.992Z</time></trkpt><trkpt lat="44.2592801" lon="10.1771671"><ele>732.0</ele><time>2026-04-19T12:15:07.993Z</time></trkpt><trkpt lat="44.2592977" lon="10.1773159"><ele>732.0</ele><time>2026-04-19T12:15:08.993Z</time></trkpt><trkpt lat="44.2593392" lon="10.1774509"><ele>732.0</ele><time>2026-04-19T12:15:09.993Z</time></trkpt><trkpt lat="44.2594101" lon="10.1775788"><ele>727.5</ele><time>2026-04-19T12:15:10.993Z</time></trkpt><trkpt lat="44.2595031" lon="10.1777194"><ele>723.0</ele><time>2026-04-19T12:15:11.992Z</time></trkpt><trkpt lat="44.2595886" lon="10.1778565"><ele>718.5</ele><time>2026-04-19T12:15:12.993Z</time></trkpt><trkpt lat="44.2596632" lon="10.1779882"><ele>714.0</ele><time>2026-04-19T12:15:13.993Z</time></trkpt><trkpt lat="44.2597264" lon="10.1781257"><ele>710.0</ele><time>2026-04-19T12:15:14.993Z</time></trkpt><trkpt lat="44.2597725" lon="10.1782675"><ele>706.0</ele><time>2026-04-19T12:15:15.992Z</time></trkpt><trkpt lat="44.2597982" lon="10.1784042"><ele>702.0</ele><time>2026-04-19T12:15:16.992Z</time></trkpt><trkpt lat="44.2598068" lon="10.1785303"><ele>698.0</ele><time>2026-04-19T12:15:17.991Z</time></trkpt><trkpt lat="44.2597943" lon="10.178648"><ele>694.0</ele><time>2026-04-19T12:15:18.992Z</time></trkpt><trkpt lat="44.2597689" lon="10.1787539"><ele>694.0</ele><time>2026-04-19T12:15:19.993Z</time></trkpt><trkpt lat="44.2597432" lon="10.1788447"><ele>694.0</ele><time>2026-04-19T12:15:20.991Z</time></trkpt><trkpt lat="44.2596696" lon="10.1789305"><ele>694.0</ele><time>2026-04-19T12:15:22.993Z</time></trkpt><trkpt lat="44.2596197" lon="10.1788736"><ele>694.0</ele><time>2026-04-19T12:15:24.992Z</time></trkpt><trkpt lat="44.2596604" lon="10.1787577"><ele>694.0</ele><time>2026-04-19T12:15:26.992Z</time></trkpt><trkpt lat="44.2597082" lon="10.1786704"><ele>694.0</ele><time>2026-04-19T12:15:27.992Z</time></trkpt><trkpt lat="44.2597281" lon="10.1785664"><ele>694.0</ele><time>2026-04-19T12:15:28.992Z</time></trkpt><trkpt lat="44.2597236" lon="10.1784509"><ele>694.0</ele><time>2026-04-19T12:15:29.993Z</time></trkpt><trkpt lat="44.259695" lon="10.1783333"><ele>694.0</ele><time>2026-04-19T12:15:30.993Z</time></trkpt><trkpt lat="44.2596432" lon="10.1782207"><ele>694.0</ele><time>2026-04-19T12:15:31.992Z</time></trkpt><trkpt lat="44.2595649" lon="10.1781135"><ele>694.0</ele><time>2026-04-19T12:15:32.993Z</time></trkpt><trkpt lat="44.2594603" lon="10.1779947"><ele>699.0</ele><time>2026-04-19T12:15:33.992Z</time></trkpt><trkpt lat="44.2593491" lon="10.1778799"><ele>704.0</ele><time>2026-04-19T12:15:34.992Z</time></trkpt><trkpt lat="44.2592303" lon="10.1777634"><ele>709.0</ele><time>2026-04-19T12:15:35.992Z</time></trkpt><trkpt lat="44.2591257" lon="10.1776356"><ele>714.0</ele><time>2026-04-19T12:15:36.992Z</time></trkpt><trkpt lat="44.259038" lon="10.1774852"><ele>718.5</ele><time>2026-04-19T12:15:37.992Z</time></trkpt><trkpt lat="44.2589716" lon="10.1773054"><ele>723.0</ele><time>2026-04-19T12:15:38.992Z</time></trkpt><trkpt lat="44.2589081" lon="10.1771396"><ele>727.5</ele><time>2026-04-19T12:15:39.991Z</time></trkpt><trkpt lat="44.258803" lon="10.1769707"><ele>732.0</ele><time>2026-04-19T12:15:40.993Z</time></trkpt><trkpt lat="44.2586742" lon="10.1767928"><ele>727.0</ele><time>2026-04-19T12:15:41.993Z</time></trkpt><trkpt lat="44.25853" lon="10.1766132"><ele>722.0</ele><time>2026-04-19T12:15:42.993Z</time></trkpt><trkpt lat="44.2583791" lon="10.1764507"><ele>717.0</ele><time>2026-04-19T12:15:43.993Z</time></trkpt><trkpt lat="44.2582317" lon="10.1762883"><ele>703.3333333333334</ele><time>2026-04-19T12:15:44.993Z</time></trkpt><trkpt lat="44.2581004" lon="10.1761124"><ele>689.6666666666667</ele><time>2026-04-19T12:15:45.993Z</time></trkpt><trkpt lat="44.2579886" lon="10.1759173"><ele>676.0</ele><time>2026-04-19T12:15:46.993Z</time></trkpt><trkpt lat="44.2578843" lon="10.1757195"><ele>676.75</ele><time>2026-04-19T12:15:47.993Z</time></trkpt><trkpt lat="44.2577727" lon="10.1755584"><ele>677.5</ele><time>2026-04-19T12:15:48.992Z</time></trkpt><trkpt lat="44.2576772" lon="10.1754314"><ele>678.25</ele><time>2026-04-19T12:15:49.992Z</time></trkpt><trkpt lat="44.2576031" lon="10.1753267"><ele>679.0</ele><time>2026-04-19T12:15:50.992Z</time></trkpt><trkpt lat="44.2575547" lon="10.1752354"><ele>679.0</ele><time>2026-04-19T12:15:51.993Z</time></trkpt><trkpt lat="44.2575391" lon="10.1751437"><ele>679.0</ele><time>2026-04-19T12:15:52.993Z</time></trkpt><trkpt lat="44.2575531" lon="10.1750186"><ele>679.0</ele><time>2026-04-19T12:15:53.992Z</time></trkpt><trkpt lat="44.2575995" lon="10.1748762"><ele>679.0</ele><time>2026-04-19T12:15:54.991Z</time></trkpt><trkpt lat="44.2576589" lon="10.1747142"><ele>679.0</ele><time>2026-04-19T12:15:55.992Z</time></trkpt><trkpt lat="44.2576963" lon="10.1745195"><ele>677.75</ele><time>2026-04-19T12:15:56.992Z</time></trkpt><trkpt lat="44.2577103" lon="10.1743093"><ele>676.5</ele><time>2026-04-19T12:15:57.992Z</time></trkpt><trkpt lat="44.2577146" lon="10.174118"><ele>675.25</ele><time>2026-04-19T12:15:58.993Z</time></trkpt><trkpt lat="44.257703" lon="10.1739368"><ele>674.0</ele><time>2026-04-19T12:15:59.993Z</time></trkpt><trkpt lat="44.2576742" lon="10.1737685"><ele>672.5</ele><time>2026-04-19T12:16:00.992Z</time></trkpt><trkpt lat="44.2576343" lon="10.1735965"><ele>671.0</ele><time>2026-04-19T12:16:01.993Z</time></trkpt><trkpt lat="44.2575965" lon="10.1734263"><ele>669.5</ele><time>2026-04-19T12:16:02.992Z</time></trkpt><trkpt lat="44.2575563" lon="10.1732724"><ele>668.0</ele><time>2026-04-19T12:16:03.993Z</time></trkpt><trkpt lat="44.2575247" lon="10.1731418"><ele>665.8</ele><time>2026-04-19T12:16:04.993Z</time></trkpt><trkpt lat="44.2575029" lon="10.1730263"><ele>663.5999999999999</ele><time>2026-04-19T12:16:05.992Z</time></trkpt><trkpt lat="44.2575008" lon="10.1729112"><ele>661.4000000000001</ele><time>2026-04-19T12:16:06.992Z</time></trkpt><trkpt lat="44.2575321" lon="10.1727938"><ele>659.2</ele><time>2026-04-19T12:16:07.993Z</time></trkpt><trkpt lat="44.2576002" lon="10.1726916"><ele>657.0</ele><time>2026-04-19T12:16:08.993Z</time></trkpt><trkpt lat="44.2576874" lon="10.1726285"><ele>657.0</ele><time>2026-04-19T12:16:09.993Z</time></trkpt><trkpt lat="44.257799" lon="10.1726042"><ele>657.0</ele><time>2026-04-19T12:16:10.993Z</time></trkpt><trkpt lat="44.2579407" lon="10.1726018"><ele>657.0</ele><time>2026-04-19T12:16:11.991Z</time></trkpt><trkpt lat="44.2580689" lon="10.1725964"><ele>657.0</ele><time>2026-04-19T12:16:12.992Z</time></trkpt><trkpt lat="44.2581855" lon="10.1725909"><ele>684.0</ele><time>2026-04-19T12:16:13.992Z</time></trkpt><trkpt lat="44.25853" lon="10.1766132"><ele>681.3333333333334</ele><time>2026-04-19T12:15:42.993Z</time></trkpt><trkpt lat="44.2583791" lon="10.1764507"><ele>678.6666666666667</ele><time>2026-04-19T12:15:43.993Z</time></trkpt><trkpt lat="44.2582317" lon="10.1762883"><ele>676.0</ele><time>2026-04-19T12:15:44.993Z</time></trkpt><trkpt lat="44.2581004" lon="10.1761124"><ele>676.0</ele><time>2026-04-19T12:15:45.993Z</time></trkpt><trkpt lat="44.2579886" lon="10.1759173"><ele>676.0</ele><time>2026-04-19T12:15:46.993Z</time></trkpt><trkpt lat="44.2578843" lon="10.1757195"><ele>676.0</ele><time>2026-04-19T12:15:47.993Z</time></trkpt><trkpt lat="44.2577727" lon="10.1755584"><ele>676.5999999999999</ele><time>2026-04-19T12:15:48.992Z</time></trkpt><trkpt lat="44.2576772" lon="10.1754314"><ele>677.2</ele><time>2026-04-19T12:15:49.992Z</time></trkpt><trkpt lat="44.2576031" lon="10.1753267"><ele>677.8</ele><time>2026-04-19T12:15:50.992Z</time></trkpt><trkpt lat="44.2575547" lon="10.1752354"><ele>678.4000000000001</ele><time>2026-04-19T12:15:51.993Z</time></trkpt><trkpt lat="44.2575391" lon="10.1751437"><ele>679.0</ele><time>2026-04-19T12:15:52.993Z</time></trkpt><trkpt lat="44.2575531" lon="10.1750186"><ele>679.0</ele><time>2026-04-19T12:15:53.992Z</time></trkpt><trkpt lat="44.2575995" lon="10.1748762"><ele>679.0</ele><time>2026-04-19T12:15:54.991Z</time></trkpt><trkpt lat="44.2576589" lon="10.1747142"><ele>679.0</ele><time>2026-04-19T12:15:55.992Z</time></trkpt><trkpt lat="44.2576963" lon="10.1745195"><ele>679.0</ele><time>2026-04-19T12:15:56.992Z</time></trkpt><trkpt lat="44.2577103" lon="10.1743093"><ele>677.75</ele><time>2026-04-19T12:15:57.992Z</time></trkpt><trkpt lat="44.2577146" lon="10.174118"><ele>676.5</ele><time>2026-04-19T12:15:58.993Z</time></trkpt><trkpt lat="44.257703" lon="10.1739368"><ele>675.25</ele><time>2026-04-19T12:15:59.993Z</time></trkpt><trkpt lat="44.2576742" lon="10.1737685"><ele>674.0</ele><time>2026-04-19T12:16:00.992Z</time></trkpt><trkpt lat="44.2576343" lon="10.1735965"><ele>672.8000000000001</ele><time>2026-04-19T12:16:01.993Z</time></trkpt><trkpt lat="44.2575965" lon="10.1734263"><ele>671.6</ele><time>2026-04-19T12:16:02.992Z</time></trkpt><trkpt lat="44.2575563" lon="10.1732724"><ele>670.4</ele><time>2026-04-19T12:16:03.993Z</time></trkpt><trkpt lat="44.2575247" lon="10.1731418"><ele>669.2</ele><time>2026-04-19T12:16:04.993Z</time></trkpt><trkpt lat="44.2575029" lon="10.1730263"><ele>668.0</ele><time>2026-04-19T12:16:05.992Z</time></trkpt><trkpt lat="44.2575008" lon="10.1729112"><ele>665.8</ele><time>2026-04-19T12:16:06.992Z</time></trkpt><trkpt lat="44.2575321" lon="10.1727938"><ele>663.5999999999999</ele><time>2026-04-19T12:16:07.993Z</time></trkpt><trkpt lat="44.2576002" lon="10.1726916"><ele>661.4000000000001</ele><time>2026-04-19T12:16:08.993Z</time></trkpt><trkpt lat="44.2576874" lon="10.1726285"><ele>659.2</ele><time>2026-04-19T12:16:09.993Z</time></trkpt><trkpt lat="44.257799" lon="10.1726042"><ele>657.0</ele><time>2026-04-19T12:16:10.993Z</time></trkpt><trkpt lat="44.2579407" lon="10.1726018"><ele>657.0</ele><time>2026-04-19T12:16:11.991Z</time></trkpt><trkpt lat="44.2580689" lon="10.1725964"><ele>657.0</ele><time>2026-04-19T12:16:12.992Z</time></trkpt><trkpt lat="44.2581855" lon="10.1725909"><ele>657.0</ele><time>2026-04-19T12:16:13.992Z</time></trkpt><trkpt lat="44.2582775" lon="10.1725836"><ele>657.0</ele><time>2026-04-19T12:16:14.991Z</time></trkpt><trkpt lat="44.2583523" lon="10.1725574"><ele>657.0</ele><time>2026-04-19T12:16:15.993Z</time></trkpt><trkpt lat="44.258412" lon="10.1724274"><ele>656.6</ele><time>2026-04-19T12:16:17.993Z</time></trkpt><trkpt lat="44.2583388" lon="10.1723321"><ele>656.2</ele><time>2026-04-19T12:16:19.992Z</time></trkpt><trkpt lat="44.2582645" lon="10.1723305"><ele>655.8</ele><time>2026-04-19T12:16:20.993Z</time></trkpt><trkpt lat="44.258175" lon="10.1723417"><ele>655.4</ele><time>2026-04-19T12:16:21.992Z</time></trkpt><trkpt lat="44.2580703" lon="10.172318"><ele>655.0</ele><time>2026-04-19T12:16:22.992Z</time></trkpt><trkpt lat="44.2579516" lon="10.1722529"><ele>651.25</ele><time>2026-04-19T12:16:23.993Z</time></trkpt><trkpt lat="44.2578486" lon="10.1721691"><ele>647.5</ele><time>2026-04-19T12:16:24.993Z</time></trkpt><trkpt lat="44.2577461" lon="10.1720909"><ele>643.75</ele><time>2026-04-19T12:16:25.993Z</time></trkpt><trkpt lat="44.2576414" lon="10.1720559"><ele>640.0</ele><time>2026-04-19T12:16:26.991Z</time></trkpt><trkpt lat="44.2575245" lon="10.1720541"><ele>640.0</ele><time>2026-04-19T12:16:27.992Z</time></trkpt><trkpt lat="44.2574039" lon="10.1720866"><ele>640.0</ele><time>2026-04-19T12:16:28.991Z</time></trkpt><trkpt lat="44.2572809" lon="10.172152"><ele>640.0</ele><time>2026-04-19T12:16:29.992Z</time></trkpt><trkpt lat="44.2571662" lon="10.1722565"><ele>640.0</ele><time>2026-04-19T12:16:30.993Z</time></trkpt><trkpt lat="44.2570635" lon="10.1723873"><ele>641.3333333333334</ele><time>2026-04-19T12:16:31.993Z</time></trkpt><trkpt lat="44.2569651" lon="10.172546"><ele>642.6666666666666</ele><time>2026-04-19T12:16:32.992Z</time></trkpt><trkpt lat="44.2568625" lon="10.1727537"><ele>644.0</ele><time>2026-04-19T12:16:33.992Z</time></trkpt><trkpt lat="44.2567588" lon="10.1729728"><ele>644.6666666666666</ele><time>2026-04-19T12:16:34.993Z</time></trkpt><trkpt lat="44.2566574" lon="10.1731965"><ele>645.3333333333334</ele><time>2026-04-19T12:16:35.993Z</time></trkpt><trkpt lat="44.2565621" lon="10.1733938"><ele>646.0</ele><time>2026-04-19T12:16:36.992Z</time></trkpt><trkpt lat="44.256464" lon="10.1735806"><ele>641.25</ele><time>2026-04-19T12:16:37.992Z</time></trkpt><trkpt lat="44.2563707" lon="10.1737466"><ele>636.5</ele><time>2026-04-19T12:16:38.992Z</time></trkpt><trkpt lat="44.2562899" lon="10.1738933"><ele>631.75</ele><time>2026-04-19T12:16:39.993Z</time></trkpt><trkpt lat="44.2562265" lon="10.1740279"><ele>627.0</ele><time>2026-04-19T12:16:40.992Z</time></trkpt><trkpt lat="44.2561842" lon="10.1741716"><ele>625.25</ele><time>2026-04-19T12:16:41.993Z</time></trkpt><trkpt lat="44.2561723" lon="10.1743268"><ele>623.5</ele><time>2026-04-19T12:16:42.992Z</time></trkpt><trkpt lat="44.2561756" lon="10.1744993"><ele>621.75</ele><time>2026-04-19T12:16:43.992Z</time></trkpt><trkpt lat="44.2561888" lon="10.1746649"><ele>620.0</ele><time>2026-04-19T12:16:44.992Z</time></trkpt><trkpt lat="44.2562235" lon="10.174813"><ele>620.0</ele><time>2026-04-19T12:16:45.993Z</time></trkpt><trkpt lat="44.2562866" lon="10.1749472"><ele>620.0</ele><time>2026-04-19T12:16:46.992Z</time></trkpt><trkpt lat="44.256362" lon="10.1750802"><ele>620.0</ele><time>2026-04-19T12:16:47.992Z</time></trkpt><trkpt lat="44.256419" lon="10.1752155"><ele>620.0</ele><time>2026-04-19T12:16:48.992Z</time></trkpt><trkpt lat="44.2564592" lon="10.1753558"><ele>622.6</ele><time>2026-04-19T12:16:49.993Z</time></trkpt><trkpt lat="44.2564728" lon="10.1754907"><ele>625.2</ele><time>2026-04-19T12:16:50.992Z</time></trkpt><trkpt lat="44.2564562" lon="10.175613"><ele>627.8</ele><time>2026-04-19T12:16:51.993Z</time></trkpt><trkpt lat="44.2564087" lon="10.1757235"><ele>630.4</ele><time>2026-04-19T12:16:52.992Z</time></trkpt><trkpt lat="44.2563426" lon="10.175816"><ele>633.0</ele><time>2026-04-19T12:16:53.993Z</time></trkpt><trkpt lat="44.2562731" lon="10.1758669"><ele>633.0</ele><time>2026-04-19T12:16:54.993Z</time></trkpt><trkpt lat="44.2562078" lon="10.1758773"><ele>633.0</ele><time>2026-04-19T12:16:55.992Z</time></trkpt><trkpt lat="44.2561453" lon="10.1758329"><ele>633.0</ele><time>2026-04-19T12:16:56.993Z</time></trkpt><trkpt lat="44.256086" lon="10.1757281"><ele>633.0</ele><time>2026-04-19T12:16:57.993Z</time></trkpt><trkpt lat="44.2560259" lon="10.1755974"><ele>633.0</ele><time>2026-04-19T12:16:58.993Z</time></trkpt><trkpt lat="44.255927" lon="10.1754848"><ele>628.6666666666666</ele><time>2026-04-19T12:16:59.992Z</time></trkpt><trkpt lat="44.2557947" lon="10.1753716"><ele>624.3333333333333</ele><time>2026-04-19T12:17:00.991Z</time></trkpt><trkpt lat="44.2556688" lon="10.175234"><ele>620.0</ele><time>2026-04-19T12:17:01.993Z</time></trkpt><trkpt lat="44.255535" lon="10.1751167"><ele>619.0</ele><time>2026-04-19T12:17:02.993Z</time></trkpt><trkpt lat="44.2553832" lon="10.1750251"><ele>618.0</ele><time>2026-04-19T12:17:03.993Z</time></trkpt><trkpt lat="44.2552311" lon="10.1749677"><ele>617.0</ele><time>2026-04-19T12:17:04.993Z</time></trkpt><trkpt lat="44.2550701" lon="10.1749358"><ele>617.0</ele><time>2026-04-19T12:17:05.992Z</time></trkpt><trkpt lat="44.2549145" lon="10.1749246"><ele>617.0</ele><time>2026-04-19T12:17:06.993Z</time></trkpt><trkpt lat="44.2547638" lon="10.174934"><ele>617.0</ele><time>2026-04-19T12:17:07.993Z</time></trkpt><trkpt lat="44.2546218" lon="10.1749665"><ele>615.6</ele><time>2026-04-19T12:17:08.993Z</time></trkpt><trkpt lat="44.2544956" lon="10.1750061"><ele>614.2</ele><time>2026-04-19T12:17:09.993Z</time></trkpt><trkpt lat="44.2543808" lon="10.1750282"><ele>612.8</ele><time>2026-04-19T12:17:10.992Z</time></trkpt><trkpt lat="44.2542773" lon="10.1750342"><ele>611.4</ele><time>2026-04-19T12:17:11.992Z</time></trkpt><trkpt lat="44.2541899" lon="10.1750105"><ele>610.0</ele><time>2026-04-19T12:17:12.992Z</time></trkpt><trkpt lat="44.2541104" lon="10.1749378"><ele>607.5</ele><time>2026-04-19T12:17:13.992Z</time></trkpt><trkpt lat="44.2540259" lon="10.1748216"><ele>605.0</ele><time>2026-04-19T12:17:14.993Z</time></trkpt><trkpt lat="44.2539315" lon="10.1746571"><ele>602.5</ele><time>2026-04-19T12:17:15.993Z</time></trkpt><trkpt lat="44.2538558" lon="10.1744949"><ele>600.0</ele><time>2026-04-19T12:17:16.992Z</time></trkpt><trkpt lat="44.253782" lon="10.174338"><ele>600.0</ele><time>2026-04-19T12:17:17.993Z</time></trkpt><trkpt lat="44.2536916" lon="10.1742038"><ele>600.0</ele><time>2026-04-19T12:17:18.993Z</time></trkpt><trkpt lat="44.2535906" lon="10.1740937"><ele>600.0</ele><time>2026-04-19T12:17:19.993Z</time></trkpt><trkpt lat="44.2534924" lon="10.1739895"><ele>600.0</ele><time>2026-04-19T12:17:20.992Z</time></trkpt><trkpt lat="44.2533849" lon="10.1738945"><ele>592.0</ele><time>2026-04-19T12:17:21.993Z</time></trkpt><trkpt lat="44.2532666" lon="10.1738245"><ele>584.0</ele><time>2026-04-19T12:17:22.993Z</time></trkpt><trkpt lat="44.2531253" lon="10.1737689"><ele>576.0</ele><time>2026-04-19T12:17:23.993Z</time></trkpt><trkpt lat="44.2529914" lon="10.173742"><ele>568.0</ele><time>2026-04-19T12:17:24.993Z</time></trkpt><trkpt lat="44.2528616" lon="10.1737431"><ele>567.5</ele><time>2026-04-19T12:17:25.993Z</time></trkpt><trkpt lat="44.2527444" lon="10.1737706"><ele>567.0</ele><time>2026-04-19T12:17:26.993Z</time></trkpt><trkpt lat="44.2526398" lon="10.1738287"><ele>566.5</ele><time>2026-04-19T12:17:27.991Z</time></trkpt><trkpt lat="44.2525367" lon="10.1739327"><ele>566.0</ele><time>2026-04-19T12:17:28.992Z</time></trkpt><trkpt lat="44.2524289" lon="10.1740456"><ele>567.25</ele><time>2026-04-19T12:17:29.993Z</time></trkpt><trkpt lat="44.2523282" lon="10.1741534"><ele>568.5</ele><time>2026-04-19T12:17:30.993Z</time></trkpt><trkpt lat="44.2522401" lon="10.1742736"><ele>569.75</ele><time>2026-04-19T12:17:31.993Z</time></trkpt><trkpt lat="44.2521548" lon="10.1744144"><ele>571.0</ele><time>2026-04-19T12:17:32.993Z</time></trkpt><trkpt lat="44.252057" lon="10.1745757"><ele>571.0</ele><time>2026-04-19T12:17:33.992Z</time></trkpt><trkpt lat="44.25196" lon="10.1747308"><ele>571.0</ele><time>2026-04-19T12:17:34.993Z</time></trkpt><trkpt lat="44.251867" lon="10.1749007"><ele>571.0</ele><time>2026-04-19T12:17:35.992Z</time></trkpt><trkpt lat="44.2517887" lon="10.1750751"><ele>571.0</ele><time>2026-04-19T12:17:36.993Z</time></trkpt><trkpt lat="44.2517093" lon="10.1752648"><ele>573.3333333333334</ele><time>2026-04-19T12:17:37.991Z</time></trkpt><trkpt lat="44.251636" lon="10.1754891"><ele>575.6666666666666</ele><time>2026-04-19T12:17:38.993Z</time></trkpt><trkpt lat="44.2515698" lon="10.175757"><ele>578.0</ele><time>2026-04-19T12:17:39.992Z</time></trkpt><trkpt lat="44.2515146" lon="10.1760221"><ele>581.6666666666666</ele><time>2026-04-19T12:17:40.992Z</time></trkpt><trkpt lat="44.2514623" lon="10.1762845"><ele>585.3333333333334</ele><time>2026-04-19T12:17:41.992Z</time></trkpt><trkpt lat="44.2514107" lon="10.1765343"><ele>589.0</ele><time>2026-04-19T12:17:42.993Z</time></trkpt><trkpt lat="44.2513607" lon="10.1767611"><ele>583.8</ele><time>2026-04-19T12:17:43.993Z</time></trkpt><trkpt lat="44.2513117" lon="10.1769346"><ele>578.5999999999999</ele><time>2026-04-19T12:17:44.992Z</time></trkpt><trkpt lat="44.2512601" lon="10.1770794"><ele>573.4</ele><time>2026-04-19T12:17:45.992Z</time></trkpt><trkpt lat="44.2512089" lon="10.1771923"><ele>568.1999999999999</ele><time>2026-04-19T12:17:46.992Z</time></trkpt><trkpt lat="44.251162" lon="10.1772856"><ele>563.0</ele><time>2026-04-19T12:17:47.992Z</time></trkpt><trkpt lat="44.2511176" lon="10.1773539"><ele>563.0</ele><time>2026-04-19T12:17:48.993Z</time></trkpt><trkpt lat="44.2510235" lon="10.1773551"><ele>563.0</ele><time>2026-04-19T12:17:50.993Z</time></trkpt><trkpt lat="44.251011" lon="10.1772452"><ele>563.0</ele><time>2026-04-19T12:17:52.993Z</time></trkpt><trkpt lat="44.2510601" lon="10.1771629"><ele>563.0</ele><time>2026-04-19T12:17:53.992Z</time></trkpt><trkpt lat="44.2511237" lon="10.1770498"><ele>563.0</ele><time>2026-04-19T12:17:54.992Z</time></trkpt><trkpt lat="44.251163" lon="10.1768929"><ele>561.25</ele><time>2026-04-19T12:17:55.992Z</time></trkpt><trkpt lat="44.2511765" lon="10.1767011"><ele>559.5</ele><time>2026-04-19T12:17:56.993Z</time></trkpt><trkpt lat="44.2511716" lon="10.1765169"><ele>557.75</ele><time>2026-04-19T12:17:57.992Z</time></trkpt><trkpt lat="44.251139" lon="10.1763201"><ele>556.0</ele><time>2026-04-19T12:17:58.992Z</time></trkpt><trkpt lat="44.2510892" lon="10.1761203"><ele>553.75</ele><time>2026-04-19T12:17:59.993Z</time></trkpt><trkpt lat="44.2510549" lon="10.1759416"><ele>551.5</ele><time>2026-04-19T12:18:00.993Z</time></trkpt><trkpt lat="44.2510454" lon="10.1757735"><ele>549.25</ele><time>2026-04-19T12:18:01.993Z</time></trkpt><trkpt lat="44.2510685" lon="10.1756056"><ele>547.0</ele><time>2026-04-19T12:18:02.993Z</time></trkpt><trkpt lat="44.2511312" lon="10.1754156"><ele>544.5</ele><time>2026-04-19T12:18:03.992Z</time></trkpt><trkpt lat="44.251212" lon="10.1752047"><ele>542.0</ele><time>2026-04-19T12:18:04.991Z</time></trkpt><trkpt lat="44.2512909" lon="10.1750318"><ele>539.5</ele><time>2026-04-19T12:18:05.992Z</time></trkpt><trkpt lat="44.2513624" lon="10.174887"><ele>537.0</ele><time>2026-04-19T12:18:06.991Z</time></trkpt><trkpt lat="44.2514244" lon="10.1747628"><ele>536.6</ele><time>2026-04-19T12:18:07.992Z</time></trkpt><trkpt lat="44.2514812" lon="10.1746555"><ele>536.2</ele><time>2026-04-19T12:18:08.992Z</time></trkpt><trkpt lat="44.2515229" lon="10.174557"><ele>535.8</ele><time>2026-04-19T12:18:09.993Z</time></trkpt><trkpt lat="44.2515416" lon="10.1744631"><ele>535.4</ele><time>2026-04-19T12:18:10.993Z</time></trkpt><trkpt lat="44.2514827" lon="10.1743378"><ele>535.0</ele><time>2026-04-19T12:18:12.994Z</time></trkpt><trkpt lat="44.2513904" lon="10.174378"><ele>535.0</ele><time>2026-04-19T12:18:14.993Z</time></trkpt><trkpt lat="44.2513604" lon="10.1744595"><ele>535.0</ele><time>2026-04-19T12:18:15.992Z</time></trkpt><trkpt lat="44.2513301" lon="10.174581"><ele>535.0</ele><time>2026-04-19T12:18:16.993Z</time></trkpt><trkpt lat="44.2512766" lon="10.17472"><ele>535.0</ele><time>2026-04-19T12:18:17.992Z</time></trkpt><trkpt lat="44.2511854" lon="10.1748711"><ele>535.0</ele><time>2026-04-19T12:18:18.992Z</time></trkpt><trkpt lat="44.2510705" lon="10.1750376"><ele>535.6666666666667</ele><time>2026-04-19T12:18:19.992Z</time></trkpt><trkpt lat="44.2509422" lon="10.1752237"><ele>536.3333333333334</ele><time>2026-04-19T12:18:20.993Z</time></trkpt><trkpt lat="44.2508288" lon="10.1754054"><ele>537.0</ele><time>2026-04-19T12:18:21.991Z</time></trkpt><trkpt lat="44.2507286" lon="10.1755842"><ele>540.3333333333334</ele><time>2026-04-19T12:18:22.992Z</time></trkpt><trkpt lat="44.2506463" lon="10.1757879"><ele>543.6666666666667</ele><time>2026-04-19T12:18:23.992Z</time></trkpt><trkpt lat="44.2505843" lon="10.1760111"><ele>547.0</ele><time>2026-04-19T12:18:24.993Z</time></trkpt><trkpt lat="44.2505128" lon="10.1762374"><ele>538.6666666666667</ele><time>2026-04-19T12:18:25.993Z</time></trkpt><trkpt lat="44.2504319" lon="10.1764425"><ele>530.3333333333334</ele><time>2026-04-19T12:18:26.992Z</time></trkpt><trkpt lat="44.2503765" lon="10.1766553"><ele>522.0</ele><time>2026-04-19T12:18:27.992Z</time></trkpt><trkpt lat="44.2503359" lon="10.1768812"><ele>522.0</ele><time>2026-04-19T12:18:28.991Z</time></trkpt><trkpt lat="44.2502788" lon="10.1770932"><ele>522.0</ele><time>2026-04-19T12:18:29.992Z</time></trkpt><trkpt lat="44.2502021" lon="10.1772881"><ele>522.0</ele><time>2026-04-19T12:18:30.992Z</time></trkpt><trkpt lat="44.2501322" lon="10.1774514"><ele>522.75</ele><time>2026-04-19T12:18:31.993Z</time></trkpt><trkpt lat="44.2500631" lon="10.177608"><ele>523.5</ele><time>2026-04-19T12:18:32.992Z</time></trkpt><trkpt lat="44.2500189" lon="10.1777683"><ele>524.25</ele><time>2026-04-19T12:18:33.992Z</time></trkpt><trkpt lat="44.2500055" lon="10.1779449"><ele>525.0</ele><time>2026-04-19T12:18:34.993Z</time></trkpt><trkpt lat="44.2499933" lon="10.1781147"><ele>526.5</ele><time>2026-04-19T12:18:35.992Z</time></trkpt><trkpt lat="44.2499515" lon="10.1782659"><ele>528.0</ele><time>2026-04-19T12:18:36.992Z</time></trkpt><trkpt lat="44.2498849" lon="10.1784218"><ele>529.5</ele><time>2026-04-19T12:18:37.993Z</time></trkpt><trkpt lat="44.2498127" lon="10.1785578"><ele>531.0</ele><time>2026-04-19T12:18:38.993Z</time></trkpt><trkpt lat="44.2497438" lon="10.1786668"><ele>528.2</ele><time>2026-04-19T12:18:39.992Z</time></trkpt><trkpt lat="44.2496714" lon="10.1787498"><ele>525.4000000000001</ele><time>2026-04-19T12:18:40.993Z</time></trkpt><trkpt lat="44.249587" lon="10.1787926"><ele>522.6</ele><time>2026-04-19T12:18:41.992Z</time></trkpt><trkpt lat="44.2494868" lon="10.1788083"><ele>519.8000000000001</ele><time>2026-04-19T12:18:42.993Z</time></trkpt><trkpt lat="44.2493799" lon="10.1787784"><ele>517.0</ele><time>2026-04-19T12:18:43.993Z</time></trkpt><trkpt lat="44.2492661" lon="10.1787116"><ele>517.0</ele><time>2026-04-19T12:18:44.992Z</time></trkpt><trkpt lat="44.2491383" lon="10.1786183"><ele>517.0</ele><time>2026-04-19T12:18:45.993Z</time></trkpt><trkpt lat="44.2489858" lon="10.1785052"><ele>517.0</ele><time>2026-04-19T12:18:46.992Z</time></trkpt><trkpt lat="44.2488308" lon="10.1783829"><ele>522.5</ele><time>2026-04-19T12:18:47.992Z</time></trkpt><trkpt lat="44.2486991" lon="10.1782777"><ele>528.0</ele><time>2026-04-19T12:18:48.993Z</time></trkpt><trkpt lat="44.2485942" lon="10.1781987"><ele>533.5</ele><time>2026-04-19T12:18:49.992Z</time></trkpt><trkpt lat="44.2485173" lon="10.178109"><ele>539.0</ele><time>2026-04-19T12:18:50.992Z</time></trkpt><trkpt lat="44.2484659" lon="10.1779825"><ele>539.0</ele><time>2026-04-19T12:18:51.992Z</time></trkpt><trkpt lat="44.248441" lon="10.1778161"><ele>539.0</ele><time>2026-04-19T12:18:52.992Z</time></trkpt><trkpt lat="44.2484285" lon="10.177617"><ele>539.0</ele><time>2026-04-19T12:18:53.992Z</time></trkpt><trkpt lat="44.2484106" lon="10.1773839"><ele>539.0</ele><time>2026-04-19T12:18:54.992Z</time></trkpt><trkpt lat="44.248395" lon="10.1771709"><ele>538.0</ele><time>2026-04-19T12:18:55.992Z</time></trkpt><trkpt lat="44.248376" lon="10.1769575"><ele>537.0</ele><time>2026-04-19T12:18:56.993Z</time></trkpt><trkpt lat="44.2483463" lon="10.1767444"><ele>536.0</ele><time>2026-04-19T12:18:57.993Z</time></trkpt><trkpt lat="44.2482908" lon="10.176532"><ele>534.3333333333333</ele><time>2026-04-19T12:18:58.993Z</time></trkpt><trkpt lat="44.2482105" lon="10.1763153"><ele>532.6666666666666</ele><time>2026-04-19T12:18:59.992Z</time></trkpt><trkpt lat="44.2481328" lon="10.1761052"><ele>531.0</ele><time>2026-04-19T12:19:00.993Z</time></trkpt><trkpt lat="44.2480723" lon="10.1759064"><ele>540.6666666666666</ele><time>2026-04-19T12:19:01.992Z</time></trkpt><trkpt lat="44.2480293" lon="10.1757082"><ele>550.3333333333333</ele><time>2026-04-19T12:19:02.993Z</time></trkpt><trkpt lat="44.2480114" lon="10.1754974"><ele>560.0</ele><time>2026-04-19T12:19:03.992Z</time></trkpt><trkpt lat="44.2480238" lon="10.175268"><ele>560.0</ele><time>2026-04-19T12:19:04.992Z</time></trkpt><trkpt lat="44.2480405" lon="10.1750189"><ele>560.0</ele><time>2026-04-19T12:19:05.993Z</time></trkpt><trkpt lat="44.2480482" lon="10.1747595"><ele>560.0</ele><time>2026-04-19T12:19:06.992Z</time></trkpt><trkpt lat="44.2480489" lon="10.1744719"><ele>559.6666666666666</ele><time>2026-04-19T12:19:07.992Z</time></trkpt><trkpt lat="44.2480465" lon="10.1742125"><ele>559.3333333333334</ele><time>2026-04-19T12:19:08.993Z</time></trkpt><trkpt lat="44.2480404" lon="10.1739568"><ele>559.0</ele><time>2026-04-19T12:19:09.993Z</time></trkpt><trkpt lat="44.2480351" lon="10.1737135"><ele>556.3333333333334</ele><time>2026-04-19T12:19:10.992Z</time></trkpt><trkpt lat="44.2480276" lon="10.1734895"><ele>553.6666666666666</ele><time>2026-04-19T12:19:11.992Z</time></trkpt><trkpt lat="44.248017" lon="10.1732736"><ele>551.0</ele><time>2026-04-19T12:19:12.993Z</time></trkpt><trkpt lat="44.2480097" lon="10.173066"><ele>548.75</ele><time>2026-04-19T12:19:13.993Z</time></trkpt><trkpt lat="44.2480035" lon="10.1728717"><ele>546.5</ele><time>2026-04-19T12:19:14.993Z</time></trkpt><trkpt lat="44.2479981" lon="10.1726822"><ele>544.25</ele><time>2026-04-19T12:19:15.993Z</time></trkpt><trkpt lat="44.2479897" lon="10.1724976"><ele>542.0</ele><time>2026-04-19T12:19:16.993Z</time></trkpt><trkpt lat="44.2479816" lon="10.1723162"><ele>540.5</ele><time>2026-04-19T12:19:17.992Z</time></trkpt><trkpt lat="44.2479742" lon="10.1721427"><ele>539.0</ele><time>2026-04-19T12:19:18.992Z</time></trkpt><trkpt lat="44.2479672" lon="10.1719739"><ele>537.5</ele><time>2026-04-19T12:19:19.993Z</time></trkpt><trkpt lat="44.2479599" lon="10.1718036"><ele>536.0</ele><time>2026-04-19T12:19:20.992Z</time></trkpt><trkpt lat="44.2479532" lon="10.1716303"><ele>534.75</ele><time>2026-04-19T12:19:21.993Z</time></trkpt><trkpt lat="44.2479467" lon="10.1714577"><ele>533.5</ele><time>2026-04-19T12:19:22.992Z</time></trkpt><trkpt lat="44.2479394" lon="10.1712742"><ele>532.25</ele><time>2026-04-19T12:19:23.993Z</time></trkpt><trkpt lat="44.2479303" lon="10.1710798"><ele>531.0</ele><time>2026-04-19T12:19:24.993Z</time></trkpt><trkpt lat="44.2479186" lon="10.1708736"><ele>530.0</ele><time>2026-04-19T12:19:25.993Z</time></trkpt><trkpt lat="44.2479042" lon="10.1706474"><ele>529.0</ele><time>2026-04-19T12:19:26.992Z</time></trkpt><trkpt lat="44.2478791" lon="10.1704049"><ele>528.0</ele><time>2026-04-19T12:19:27.992Z</time></trkpt><trkpt lat="44.2478388" lon="10.1701563"><ele>528.0</ele><time>2026-04-19T12:19:28.993Z</time></trkpt><trkpt lat="44.2477807" lon="10.1698874"><ele>528.0</ele><time>2026-04-19T12:19:29.992Z</time></trkpt><trkpt lat="44.2477064" lon="10.1695921"><ele>528.0</ele><time>2026-04-19T12:19:30.993Z</time></trkpt><trkpt lat="44.2476308" lon="10.1693021"><ele>519.5</ele><time>2026-04-19T12:19:31.992Z</time></trkpt><trkpt lat="44.2475512" lon="10.1689925"><ele>511.0</ele><time>2026-04-19T12:19:32.992Z</time></trkpt><trkpt lat="44.2474797" lon="10.1686998"><ele>511.0</ele><time>2026-04-19T12:19:33.992Z</time></trkpt><trkpt lat="44.2474062" lon="10.1684165"><ele>511.0</ele><time>2026-04-19T12:19:34.992Z</time></trkpt><trkpt lat="44.2473203" lon="10.1681387"><ele>511.0</ele><time>2026-04-19T12:19:35.992Z</time></trkpt><trkpt lat="44.2472198" lon="10.1678622"><ele>511.33333333333337</ele><time>2026-04-19T12:19:36.992Z</time></trkpt><trkpt lat="44.2471293" lon="10.1676062"><ele>511.66666666666663</ele><time>2026-04-19T12:19:37.992Z</time></trkpt><trkpt lat="44.2470526" lon="10.1673757"><ele>512.0</ele><time>2026-04-19T12:19:38.993Z</time></trkpt><trkpt lat="44.2469853" lon="10.1671765"><ele>512.0</ele><time>2026-04-19T12:19:39.993Z</time></trkpt><trkpt lat="44.2469088" lon="10.1670001"><ele>512.0</ele><time>2026-04-19T12:19:40.993Z</time></trkpt><trkpt lat="44.2468048" lon="10.1668427"><ele>512.0</ele><time>2026-04-19T12:19:41.993Z</time></trkpt><trkpt lat="44.2466719" lon="10.1666951"><ele>508.0</ele><time>2026-04-19T12:19:42.992Z</time></trkpt><trkpt lat="44.2465289" lon="10.166526"><ele>504.0</ele><time>2026-04-19T12:19:43.993Z</time></trkpt><trkpt lat="44.2463913" lon="10.1663088"><ele>500.0</ele><time>2026-04-19T12:19:44.993Z</time></trkpt><trkpt lat="44.2462589" lon="10.1660735"><ele>503.0</ele><time>2026-04-19T12:19:45.993Z</time></trkpt><trkpt lat="44.2461334" lon="10.1658265"><ele>506.0</ele><time>2026-04-19T12:19:46.993Z</time></trkpt><trkpt lat="44.2460278" lon="10.1655882"><ele>509.0</ele><time>2026-04-19T12:19:47.993Z</time></trkpt><trkpt lat="44.2459321" lon="10.1653547"><ele>509.0</ele><time>2026-04-19T12:19:48.992Z</time></trkpt><trkpt lat="44.2458409" lon="10.1651344"><ele>509.0</ele><time>2026-04-19T12:19:49.993Z</time></trkpt><trkpt lat="44.2457482" lon="10.1649254"><ele>509.0</ele><time>2026-04-19T12:19:50.992Z</time></trkpt><trkpt lat="44.2456405" lon="10.1647265"><ele>507.5</ele><time>2026-04-19T12:19:51.991Z</time></trkpt><trkpt lat="44.2455301" lon="10.1645647"><ele>506.0</ele><time>2026-04-19T12:19:52.992Z</time></trkpt><trkpt lat="44.2454255" lon="10.1644434"><ele>504.5</ele><time>2026-04-19T12:19:53.991Z</time></trkpt><trkpt lat="44.2453123" lon="10.1643604"><ele>503.0</ele><time>2026-04-19T12:19:54.993Z</time></trkpt><trkpt lat="44.245188" lon="10.1643248"><ele>503.0</ele><time>2026-04-19T12:19:55.992Z</time></trkpt><trkpt lat="44.2450567" lon="10.1643461"><ele>503.0</ele><time>2026-04-19T12:19:56.992Z</time></trkpt><trkpt lat="44.2449224" lon="10.1644078"><ele>503.0</ele><time>2026-04-19T12:19:57.993Z</time></trkpt><trkpt lat="44.2448048" lon="10.1644678"><ele>503.0</ele><time>2026-04-19T12:19:58.992Z</time></trkpt><trkpt lat="44.2446869" lon="10.1644788"><ele>506.0</ele><time>2026-04-19T12:19:59.992Z</time></trkpt><trkpt lat="44.2445736" lon="10.1644381"><ele>509.0</ele><time>2026-04-19T12:20:00.993Z</time></trkpt><trkpt lat="44.2444734" lon="10.1643594"><ele>512.0</ele><time>2026-04-19T12:20:01.991Z</time></trkpt><trkpt lat="44.2443972" lon="10.1642448"><ele>515.0</ele><time>2026-04-19T12:20:02.992Z</time></trkpt><trkpt lat="44.2443467" lon="10.1640971"><ele>516.25</ele><time>2026-04-19T12:20:03.993Z</time></trkpt><trkpt lat="44.2443294" lon="10.1639341"><ele>517.5</ele><time>2026-04-19T12:20:04.993Z</time></trkpt><trkpt lat="44.2443416" lon="10.163739"><ele>518.75</ele><time>2026-04-19T12:20:05.992Z</time></trkpt><trkpt lat="44.2443732" lon="10.1635132"><ele>520.0</ele><time>2026-04-19T12:20:06.992Z</time></trkpt><trkpt lat="44.2444209" lon="10.1632717"><ele>519.6666666666667</ele><time>2026-04-19T12:20:07.991Z</time></trkpt><trkpt lat="44.2444854" lon="10.1630372"><ele>519.3333333333334</ele><time>2026-04-19T12:20:08.992Z</time></trkpt><trkpt lat="44.2445623" lon="10.1627872"><ele>519.0</ele><time>2026-04-19T12:20:09.993Z</time></trkpt><trkpt lat="44.2446295" lon="10.162541"><ele>516.0</ele><time>2026-04-19T12:20:10.993Z</time></trkpt><trkpt lat="44.2446886" lon="10.1623004"><ele>513.0</ele><time>2026-04-19T12:20:11.992Z</time></trkpt><trkpt lat="44.2447325" lon="10.1620877"><ele>510.0</ele><time>2026-04-19T12:20:12.992Z</time></trkpt><trkpt lat="44.2447632" lon="10.1618843"><ele>510.0</ele><time>2026-04-19T12:20:13.991Z</time></trkpt><trkpt lat="44.2447645" lon="10.1616667"><ele>510.0</ele><time>2026-04-19T12:20:14.992Z</time></trkpt><trkpt lat="44.2447314" lon="10.1614182"><ele>510.0</ele><time>2026-04-19T12:20:15.992Z</time></trkpt><trkpt lat="44.2446713" lon="10.1611431"><ele>509.33333333333337</ele><time>2026-04-19T12:20:16.993Z</time></trkpt><trkpt lat="44.244602" lon="10.1608668"><ele>508.6666666666667</ele><time>2026-04-19T12:20:17.992Z</time></trkpt><trkpt lat="44.2445215" lon="10.1606093"><ele>508.0</ele><time>2026-04-19T12:20:18.993Z</time></trkpt><trkpt lat="44.2444255" lon="10.1603589"><ele>504.6666666666667</ele><time>2026-04-19T12:20:19.993Z</time></trkpt><trkpt lat="44.2443189" lon="10.1601358"><ele>501.33333333333337</ele><time>2026-04-19T12:20:20.992Z</time></trkpt><trkpt lat="44.2442293" lon="10.1599543"><ele>498.0</ele><time>2026-04-19T12:20:21.992Z</time></trkpt><trkpt lat="44.2441618" lon="10.1597869"><ele>494.79999999999995</ele><time>2026-04-19T12:20:22.991Z</time></trkpt><trkpt lat="44.2441244" lon="10.1596281"><ele>491.59999999999997</ele><time>2026-04-19T12:20:23.993Z</time></trkpt><trkpt lat="44.2441164" lon="10.1594751"><ele>488.40000000000003</ele><time>2026-04-19T12:20:24.993Z</time></trkpt><trkpt lat="44.2441144" lon="10.1593308"><ele>485.20000000000005</ele><time>2026-04-19T12:20:25.991Z</time></trkpt><trkpt lat="44.2440932" lon="10.1592134"><ele>482.0</ele><time>2026-04-19T12:20:26.993Z</time></trkpt><trkpt lat="44.2440358" lon="10.1591192"><ele>479.25</ele><time>2026-04-19T12:20:27.992Z</time></trkpt><trkpt lat="44.2439425" lon="10.1590476"><ele>476.5</ele><time>2026-04-19T12:20:28.992Z</time></trkpt><trkpt lat="44.243811" lon="10.1590023"><ele>473.75</ele><time>2026-04-19T12:20:29.993Z</time></trkpt><trkpt lat="44.2436463" lon="10.1589659"><ele>471.0</ele><time>2026-04-19T12:20:30.992Z</time></trkpt><trkpt lat="44.2434831" lon="10.1589554"><ele>471.0</ele><time>2026-04-19T12:20:31.992Z</time></trkpt><trkpt lat="44.2433291" lon="10.1589804"><ele>471.0</ele><time>2026-04-19T12:20:32.992Z</time></trkpt><trkpt lat="44.2431842" lon="10.1590193"><ele>471.0</ele><time>2026-04-19T12:20:33.992Z</time></trkpt><trkpt lat="44.2430472" lon="10.159041"><ele>471.0</ele><time>2026-04-19T12:20:34.993Z</time></trkpt><trkpt lat="44.242925" lon="10.1590321"><ele>473.75</ele><time>2026-04-19T12:20:35.993Z</time></trkpt><trkpt lat="44.2428062" lon="10.1589838"><ele>476.5</ele><time>2026-04-19T12:20:36.993Z</time></trkpt><trkpt lat="44.2426876" lon="10.1588761"><ele>479.25</ele><time>2026-04-19T12:20:37.993Z</time></trkpt><trkpt lat="44.2425623" lon="10.158713"><ele>482.0</ele><time>2026-04-19T12:20:38.992Z</time></trkpt><trkpt lat="44.2424412" lon="10.158527"><ele>482.0</ele><time>2026-04-19T12:20:39.993Z</time></trkpt><trkpt lat="44.2423443" lon="10.1583341"><ele>482.0</ele><time>2026-04-19T12:20:40.992Z</time></trkpt><trkpt lat="44.2422731" lon="10.1581679"><ele>482.0</ele><time>2026-04-19T12:20:41.993Z</time></trkpt><trkpt lat="44.2422303" lon="10.1579981"><ele>482.0</ele><time>2026-04-19T12:20:42.993Z</time></trkpt><trkpt lat="44.2422214" lon="10.1577933"><ele>481.66666666666663</ele><time>2026-04-19T12:20:43.992Z</time></trkpt><trkpt lat="44.2422489" lon="10.1575592"><ele>481.33333333333337</ele><time>2026-04-19T12:20:44.992Z</time></trkpt><trkpt lat="44.2423006" lon="10.1573107"><ele>481.0</ele><time>2026-04-19T12:20:45.993Z</time></trkpt><trkpt lat="44.242358" lon="10.1570536"><ele>480.33333333333337</ele><time>2026-04-19T12:20:46.993Z</time></trkpt><trkpt lat="44.2424152" lon="10.1568133"><ele>479.66666666666663</ele><time>2026-04-19T12:20:47.992Z</time></trkpt><trkpt lat="44.2424827" lon="10.156591"><ele>479.0</ele><time>2026-04-19T12:20:48.992Z</time></trkpt><trkpt lat="44.2425685" lon="10.1563843"><ele>481.0</ele><time>2026-04-19T12:20:49.992Z</time></trkpt><trkpt lat="44.2426659" lon="10.1562068"><ele>483.0</ele><time>2026-04-19T12:20:50.993Z</time></trkpt><trkpt lat="44.2427641" lon="10.1560569"><ele>485.0</ele><time>2026-04-19T12:20:51.992Z</time></trkpt><trkpt lat="44.2428752" lon="10.1559268"><ele>485.0</ele><time>2026-04-19T12:20:52.993Z</time></trkpt><trkpt lat="44.2430021" lon="10.1558292"><ele>485.0</ele><time>2026-04-19T12:20:53.991Z</time></trkpt><trkpt lat="44.2431392" lon="10.1557382"><ele>485.0</ele><time>2026-04-19T12:20:54.993Z</time></trkpt><trkpt lat="44.2432626" lon="10.1556268"><ele>485.0</ele><time>2026-04-19T12:20:55.992Z</time></trkpt><trkpt lat="44.2433795" lon="10.1554823"><ele>481.3333333333333</ele><time>2026-04-19T12:20:56.992Z</time></trkpt><trkpt lat="44.2434816" lon="10.1553177"><ele>477.66666666666663</ele><time>2026-04-19T12:20:57.992Z</time></trkpt><trkpt lat="44.2435758" lon="10.1551353"><ele>474.0</ele><time>2026-04-19T12:20:58.993Z</time></trkpt><trkpt lat="44.243654" lon="10.1549468"><ele>473.0</ele><time>2026-04-19T12:20:59.992Z</time></trkpt><trkpt lat="44.2437157" lon="10.1547601"><ele>472.0</ele><time>2026-04-19T12:21:00.991Z</time></trkpt><trkpt lat="44.2437564" lon="10.1545632"><ele>471.0</ele><time>2026-04-19T12:21:01.993Z</time></trkpt><trkpt lat="44.2437836" lon="10.1543528"><ele>470.0</ele><time>2026-04-19T12:21:02.993Z</time></trkpt><trkpt lat="44.2437768" lon="10.1541242"><ele>468.3333333333333</ele><time>2026-04-19T12:21:03.993Z</time></trkpt><trkpt lat="44.2437471" lon="10.1538691"><ele>466.66666666666663</ele><time>2026-04-19T12:21:04.993Z</time></trkpt><trkpt lat="44.2436982" lon="10.1535908"><ele>465.0</ele><time>2026-04-19T12:21:05.992Z</time></trkpt><trkpt lat="44.2436412" lon="10.1533395"><ele>463.0</ele><time>2026-04-19T12:21:06.992Z</time></trkpt><trkpt lat="44.2435791" lon="10.1531327"><ele>461.0</ele><time>2026-04-19T12:21:07.992Z</time></trkpt><trkpt lat="44.2435143" lon="10.1529537"><ele>459.0</ele><time>2026-04-19T12:21:08.993Z</time></trkpt><trkpt lat="44.2434695" lon="10.1527834"><ele>457.0</ele><time>2026-04-19T12:21:09.993Z</time></trkpt><trkpt lat="44.2434564" lon="10.152598"><ele>457.0</ele><time>2026-04-19T12:21:10.993Z</time></trkpt><trkpt lat="44.2434766" lon="10.1523935"><ele>457.0</ele><time>2026-04-19T12:21:11.992Z</time></trkpt><trkpt lat="44.2434977" lon="10.1521813"><ele>457.0</ele><time>2026-04-19T12:21:12.992Z</time></trkpt><trkpt lat="44.2434895" lon="10.1519579"><ele>454.0</ele><time>2026-04-19T12:21:13.993Z</time></trkpt><trkpt lat="44.2434555" lon="10.1517282"><ele>451.0</ele><time>2026-04-19T12:21:14.992Z</time></trkpt><trkpt lat="44.2434183" lon="10.151521"><ele>448.0</ele><time>2026-04-19T12:21:15.993Z</time></trkpt><trkpt lat="44.2433638" lon="10.1513478"><ele>444.25</ele><time>2026-04-19T12:21:16.993Z</time></trkpt><trkpt lat="44.243272" lon="10.1511916"><ele>440.5</ele><time>2026-04-19T12:21:17.992Z</time></trkpt><trkpt lat="44.2431593" lon="10.1510446"><ele>436.75</ele><time>2026-04-19T12:21:18.993Z</time></trkpt><trkpt lat="44.2430682" lon="10.1508973"><ele>433.0</ele><time>2026-04-19T12:21:19.992Z</time></trkpt><trkpt lat="44.2429991" lon="10.1507252"><ele>440.6666666666667</ele><time>2026-04-19T12:21:20.992Z</time></trkpt><trkpt lat="44.2429612" lon="10.1505386"><ele>448.33333333333337</ele><time>2026-04-19T12:21:21.992Z</time></trkpt><trkpt lat="44.2429535" lon="10.1503275"><ele>456.0</ele><time>2026-04-19T12:21:22.993Z</time></trkpt><trkpt lat="44.2429613" lon="10.1500686"><ele>455.33333333333337</ele><time>2026-04-19T12:21:23.992Z</time></trkpt><trkpt lat="44.2429769" lon="10.149768"><ele>454.6666666666667</ele><time>2026-04-19T12:21:24.993Z</time></trkpt><trkpt lat="44.2429942" lon="10.1494588"><ele>454.0</ele><time>2026-04-19T12:21:25.992Z</time></trkpt><trkpt lat="44.2430073" lon="10.1491789"><ele>450.33333333333337</ele><time>2026-04-19T12:21:26.992Z</time></trkpt><trkpt lat="44.2430188" lon="10.1489337"><ele>446.66666666666663</ele><time>2026-04-19T12:21:27.993Z</time></trkpt><trkpt lat="44.243034" lon="10.1487147"><ele>443.0</ele><time>2026-04-19T12:21:28.993Z</time></trkpt><trkpt lat="44.243044" lon="10.1485128"><ele>443.0</ele><time>2026-04-19T12:21:29.993Z</time></trkpt><trkpt lat="44.2430473" lon="10.1483263"><ele>443.0</ele><time>2026-04-19T12:21:30.993Z</time></trkpt><trkpt lat="44.2430249" lon="10.1481364"><ele>443.0</ele><time>2026-04-19T12:21:31.993Z</time></trkpt><trkpt lat="44.2429679" lon="10.1479416"><ele>443.0</ele><time>2026-04-19T12:21:32.992Z</time></trkpt><trkpt lat="44.2428977" lon="10.1477557"><ele>439.0</ele><time>2026-04-19T12:21:33.992Z</time></trkpt><trkpt lat="44.2428514" lon="10.1475979"><ele>435.0</ele><time>2026-04-19T12:21:34.993Z</time></trkpt><trkpt lat="44.2428207" lon="10.1474404"><ele>431.0</ele><time>2026-04-19T12:21:35.992Z</time></trkpt><trkpt lat="44.242793" lon="10.1472914"><ele>427.0</ele><time>2026-04-19T12:21:36.992Z</time></trkpt><trkpt lat="44.242742" lon="10.1471612"><ele>422.25</ele><time>2026-04-19T12:21:37.993Z</time></trkpt><trkpt lat="44.2426589" lon="10.1470561"><ele>417.5</ele><time>2026-04-19T12:21:38.993Z</time></trkpt><trkpt lat="44.2425519" lon="10.1469718"><ele>412.75</ele><time>2026-04-19T12:21:39.993Z</time></trkpt><trkpt lat="44.2424559" lon="10.1468869"><ele>408.0</ele><time>2026-04-19T12:21:40.992Z</time></trkpt><trkpt lat="44.2423852" lon="10.1467672"><ele>408.0</ele><time>2026-04-19T12:21:41.992Z</time></trkpt><trkpt lat="44.2423226" lon="10.1465946"><ele>408.0</ele><time>2026-04-19T12:21:42.992Z</time></trkpt><trkpt lat="44.2422638" lon="10.1463815"><ele>408.0</ele><time>2026-04-19T12:21:43.993Z</time></trkpt><trkpt lat="44.2422091" lon="10.1461472"><ele>408.33333333333337</ele><time>2026-04-19T12:21:44.993Z</time></trkpt><trkpt lat="44.2421721" lon="10.1459068"><ele>408.6666666666667</ele><time>2026-04-19T12:21:45.992Z</time></trkpt><trkpt lat="44.2421546" lon="10.1456488"><ele>409.0</ele><time>2026-04-19T12:21:46.993Z</time></trkpt><trkpt lat="44.2421528" lon="10.1453707"><ele>407.6666666666667</ele><time>2026-04-19T12:21:47.993Z</time></trkpt><trkpt lat="44.2421616" lon="10.1451155"><ele>406.33333333333337</ele><time>2026-04-19T12:21:48.992Z</time></trkpt><trkpt lat="44.242169" lon="10.1448813"><ele>405.0</ele><time>2026-04-19T12:21:49.992Z</time></trkpt><trkpt lat="44.2421769" lon="10.1446703"><ele>404.0</ele><time>2026-04-19T12:21:50.991Z</time></trkpt><trkpt lat="44.2421838" lon="10.1444933"><ele>403.0</ele><time>2026-04-19T12:21:51.993Z</time></trkpt><trkpt lat="44.2421816" lon="10.1443443"><ele>402.0</ele><time>2026-04-19T12:21:52.992Z</time></trkpt><trkpt lat="44.2421672" lon="10.1442267"><ele>401.0</ele><time>2026-04-19T12:21:53.992Z</time></trkpt><trkpt lat="44.2421493" lon="10.1441312"><ele>400.0</ele><time>2026-04-19T12:21:54.992Z</time></trkpt><trkpt lat="44.2421028" lon="10.144015"><ele>399.1666666666667</ele><time>2026-04-19T12:21:56.993Z</time></trkpt><trkpt lat="44.2420618" lon="10.1439404"><ele>398.33333333333337</ele><time>2026-04-19T12:22:26.993Z</time></trkpt><trkpt lat="44.2420108" lon="10.143864"><ele>397.5</ele><time>2026-04-19T12:22:28.992Z</time></trkpt><trkpt lat="44.2419649" lon="10.1436887"><ele>396.66666666666663</ele><time>2026-04-19T12:22:30.993Z</time></trkpt><trkpt lat="44.2419552" lon="10.1435813"><ele>395.8333333333333</ele><time>2026-04-19T12:22:31.992Z</time></trkpt><trkpt lat="44.2419591" lon="10.1434544"><ele>395.0</ele><time>2026-04-19T12:22:32.991Z</time></trkpt><trkpt lat="44.2419783" lon="10.1433174"><ele>394.0</ele><time>2026-04-19T12:22:33.993Z</time></trkpt><trkpt lat="44.2420049" lon="10.1431629"><ele>393.0</ele><time>2026-04-19T12:22:34.993Z</time></trkpt><trkpt lat="44.2420307" lon="10.1430024"><ele>392.0</ele><time>2026-04-19T12:22:35.992Z</time></trkpt><trkpt lat="44.2420506" lon="10.1428424"><ele>391.0</ele><time>2026-04-19T12:22:36.992Z</time></trkpt><trkpt lat="44.2420765" lon="10.1426845"><ele>391.0</ele><time>2026-04-19T12:22:37.993Z</time></trkpt><trkpt lat="44.2421084" lon="10.1425133"><ele>391.0</ele><time>2026-04-19T12:22:38.993Z</time></trkpt><trkpt lat="44.2421541" lon="10.1423368"><ele>391.0</ele><time>2026-04-19T12:22:39.992Z</time></trkpt><trkpt lat="44.2422101" lon="10.1421538"><ele>391.0</ele><time>2026-04-19T12:22:40.992Z</time></trkpt><trkpt lat="44.242272" lon="10.1419683"><ele>386.25</ele><time>2026-04-19T12:22:41.992Z</time></trkpt><trkpt lat="44.2423271" lon="10.1417842"><ele>381.5</ele><time>2026-04-19T12:22:42.993Z</time></trkpt><trkpt lat="44.2423723" lon="10.141599"><ele>376.75</ele><time>2026-04-19T12:22:43.992Z</time></trkpt><trkpt lat="44.2424087" lon="10.1414004"><ele>372.0</ele><time>2026-04-19T12:22:44.992Z</time></trkpt><trkpt lat="44.2424395" lon="10.1411966"><ele>371.5</ele><time>2026-04-19T12:22:45.992Z</time></trkpt><trkpt lat="44.2424651" lon="10.1410002"><ele>371.0</ele><time>2026-04-19T12:22:46.992Z</time></trkpt><trkpt lat="44.2424881" lon="10.1408085"><ele>370.5</ele><time>2026-04-19T12:22:47.993Z</time></trkpt><trkpt lat="44.2425125" lon="10.1406244"><ele>370.0</ele><time>2026-04-19T12:22:48.992Z</time></trkpt><trkpt lat="44.2425363" lon="10.1404468"><ele>370.0</ele><time>2026-04-19T12:22:49.993Z</time></trkpt><trkpt lat="44.2425584" lon="10.1402748"><ele>370.0</ele><time>2026-04-19T12:22:50.993Z</time></trkpt><trkpt lat="44.2425806" lon="10.1401064"><ele>370.0</ele><time>2026-04-19T12:22:51.993Z</time></trkpt><trkpt lat="44.2426013" lon="10.1399384"><ele>370.0</ele><time>2026-04-19T12:22:52.992Z</time></trkpt><trkpt lat="44.2426218" lon="10.1397728"><ele>370.2</ele><time>2026-04-19T12:22:53.993Z</time></trkpt><trkpt lat="44.2426417" lon="10.1396148"><ele>370.4</ele><time>2026-04-19T12:22:54.993Z</time></trkpt><trkpt lat="44.2426598" lon="10.139473"><ele>370.6</ele><time>2026-04-19T12:22:55.992Z</time></trkpt><trkpt lat="44.2426815" lon="10.1393357"><ele>370.8</ele><time>2026-04-19T12:22:56.992Z</time></trkpt><trkpt lat="44.2427034" lon="10.139203"><ele>371.0</ele><time>2026-04-19T12:22:57.992Z</time></trkpt><trkpt lat="44.2427237" lon="10.1390768"><ele>370.5</ele><time>2026-04-19T12:22:58.992Z</time></trkpt><trkpt lat="44.2427385" lon="10.1389715"><ele>370.0</ele><time>2026-04-19T12:22:59.993Z</time></trkpt><trkpt lat="44.2427524" lon="10.1388808"><ele>369.5</ele><time>2026-04-19T12:23:00.992Z</time></trkpt><trkpt lat="44.2427726" lon="10.1387533"><ele>369.0</ele><time>2026-04-19T12:23:02.993Z</time></trkpt><trkpt lat="44.2427865" lon="10.1386548"><ele>368.5</ele><time>2026-04-19T12:25:40.993Z</time></trkpt><trkpt lat="44.2427763" lon="10.1385379"><ele>368.0</ele><time>2026-04-19T12:25:42.991Z</time></trkpt><trkpt lat="44.2427792" lon="10.1384316"><ele>368.0</ele><time>2026-04-19T12:25:43.992Z</time></trkpt><trkpt lat="44.2427845" lon="10.1383235"><ele>368.0</ele><time>2026-04-19T12:25:44.993Z</time></trkpt><trkpt lat="44.2427927" lon="10.1382153"><ele>368.0</ele><time>2026-04-19T12:25:45.991Z</time></trkpt><trkpt lat="44.2427933" lon="10.138096"><ele>368.0</ele><time>2026-04-19T12:25:46.993Z</time></trkpt><trkpt lat="44.2427861" lon="10.1379728"><ele>368.0</ele><time>2026-04-19T12:25:47.992Z</time></trkpt><trkpt lat="44.2427719" lon="10.1378658"><ele>368.0</ele><time>2026-04-19T12:25:48.992Z</time></trkpt><trkpt lat="44.2427492" lon="10.1377673"><ele>366.4</ele><time>2026-04-19T12:25:49.992Z</time></trkpt><trkpt lat="44.2427031" lon="10.1376751"><ele>364.79999999999995</ele><time>2026-04-19T12:25:50.992Z</time></trkpt><trkpt lat="44.2425689" lon="10.1375413"><ele>363.2</ele><time>2026-04-19T12:25:52.991Z</time></trkpt><trkpt lat="44.2424902" lon="10.1375054"><ele>361.6</ele><time>2026-04-19T12:25:53.993Z</time></trkpt><trkpt lat="44.2424173" lon="10.1374887"><ele>360.0</ele><time>2026-04-19T12:25:54.992Z</time></trkpt><trkpt lat="44.2423448" lon="10.137473"><ele>365.5</ele><time>2026-04-19T12:25:55.993Z</time></trkpt><trkpt lat="44.2422652" lon="10.1374348"><ele>371.0</ele><time>2026-04-19T12:25:56.991Z</time></trkpt><trkpt lat="44.2421936" lon="10.1373766"><ele>376.5</ele><time>2026-04-19T12:25:57.993Z</time></trkpt><trkpt lat="44.2421313" lon="10.1372995"><ele>382.0</ele><time>2026-04-19T12:25:58.99Z</time></trkpt><trkpt lat="44.2420879" lon="10.1371838"><ele>387.5</ele><time>2026-04-19T12:25:59.993Z</time></trkpt><trkpt lat="44.2420633" lon="10.1370527"><ele>393.0</ele><time>2026-04-19T12:26:00.993Z</time></trkpt><trkpt lat="44.2420574" lon="10.1369076"><ele>393.2</ele><time>2026-04-19T12:26:01.991Z</time></trkpt><trkpt lat="44.2420624" lon="10.1367577"><ele>393.4</ele><time>2026-04-19T12:26:02.992Z</time></trkpt><trkpt lat="44.2420663" lon="10.1366252"><ele>393.59999999999997</ele><time>2026-04-19T12:26:03.993Z</time></trkpt><trkpt lat="44.2420733" lon="10.1364999"><ele>393.79999999999995</ele><time>2026-04-19T12:26:04.991Z</time></trkpt><trkpt lat="44.2420761" lon="10.1363582"><ele>394.0</ele><time>2026-04-19T12:26:05.992Z</time></trkpt><trkpt lat="44.2420829" lon="10.1362"><ele>395.75</ele><time>2026-04-19T12:26:06.991Z</time></trkpt><trkpt lat="44.2420852" lon="10.1360367"><ele>397.5</ele><time>2026-04-19T12:26:07.992Z</time></trkpt><trkpt lat="44.2420892" lon="10.1358535"><ele>399.25</ele><time>2026-04-19T12:26:08.992Z</time></trkpt><trkpt lat="44.2420876" lon="10.1356589"><ele>401.0</ele><time>2026-04-19T12:26:09.992Z</time></trkpt><trkpt lat="44.242083" lon="10.1354599"><ele>401.0</ele><time>2026-04-19T12:26:10.992Z</time></trkpt><trkpt lat="44.2420761" lon="10.1352737"><ele>401.0</ele><time>2026-04-19T12:26:11.991Z</time></trkpt><trkpt lat="44.2420703" lon="10.1351062"><ele>401.0</ele><time>2026-04-19T12:26:12.991Z</time></trkpt><trkpt lat="44.2420745" lon="10.134942"><ele>401.0</ele><time>2026-04-19T12:26:13.991Z</time></trkpt><trkpt lat="44.2420823" lon="10.1347877"><ele>401.0</ele><time>2026-04-19T12:26:14.99Z</time></trkpt><trkpt lat="44.2421258" lon="10.1346149"><ele>401.0</ele><time>2026-04-19T12:26:15.992Z</time></trkpt><trkpt lat="44.2421733" lon="10.1344416"><ele>401.0</ele><time>2026-04-19T12:26:16.991Z</time></trkpt><trkpt lat="44.242219" lon="10.1342633"><ele>401.0</ele><time>2026-04-19T12:26:17.992Z</time></trkpt><trkpt lat="44.2422522" lon="10.1340615"><ele>398.0</ele><time>2026-04-19T12:26:18.991Z</time></trkpt><trkpt lat="44.2422731" lon="10.1338334"><ele>395.0</ele><time>2026-04-19T12:26:19.992Z</time></trkpt><trkpt lat="44.2422946" lon="10.1336029"><ele>392.0</ele><time>2026-04-19T12:26:20.992Z</time></trkpt><trkpt lat="44.2422954" lon="10.1333836"><ele>387.25</ele><time>2026-04-19T12:26:21.991Z</time></trkpt><trkpt lat="44.2422975" lon="10.1331772"><ele>382.5</ele><time>2026-04-19T12:26:22.991Z</time></trkpt><trkpt lat="44.2422897" lon="10.1329702"><ele>377.75</ele><time>2026-04-19T12:26:23.991Z</time></trkpt><trkpt lat="44.2422755" lon="10.1327648"><ele>373.0</ele><time>2026-04-19T12:26:24.992Z</time></trkpt><trkpt lat="44.2422562" lon="10.1325399"><ele>369.3333333333333</ele><time>2026-04-19T12:26:25.992Z</time></trkpt><trkpt lat="44.2422282" lon="10.1322835"><ele>365.6666666666667</ele><time>2026-04-19T12:26:26.993Z</time></trkpt><trkpt lat="44.2422022" lon="10.1320537"><ele>362.0</ele><time>2026-04-19T12:26:27.992Z</time></trkpt><trkpt lat="44.2421717" lon="10.1318487"><ele>362.0</ele><time>2026-04-19T12:26:28.991Z</time></trkpt><trkpt lat="44.2421452" lon="10.1316496"><ele>362.0</ele><time>2026-04-19T12:26:29.99Z</time></trkpt><trkpt lat="44.2420939" lon="10.1314796"><ele>362.0</ele><time>2026-04-19T12:26:30.993Z</time></trkpt><trkpt lat="44.2420331" lon="10.1313019"><ele>362.0</ele><time>2026-04-19T12:26:31.991Z</time></trkpt><trkpt lat="44.2419542" lon="10.1311261"><ele>361.33333333333337</ele><time>2026-04-19T12:26:32.993Z</time></trkpt><trkpt lat="44.2418017" lon="10.1308134"><ele>360.6666666666667</ele><time>2026-04-19T12:26:34.992Z</time></trkpt><trkpt lat="44.2417243" lon="10.1306744"><ele>360.0</ele><time>2026-04-19T12:26:35.991Z</time></trkpt><trkpt lat="44.2416468" lon="10.1305295"><ele>360.0</ele><time>2026-04-19T12:26:36.991Z</time></trkpt><trkpt lat="44.2415752" lon="10.130391"><ele>360.0</ele><time>2026-04-19T12:26:37.992Z</time></trkpt><trkpt lat="44.2415105" lon="10.1302694"><ele>360.0</ele><time>2026-04-19T12:26:38.992Z</time></trkpt><trkpt lat="44.241455" lon="10.1301654"><ele>360.0</ele><time>2026-04-19T12:26:39.991Z</time></trkpt><trkpt lat="44.241408" lon="10.1300722"><ele>360.0</ele><time>2026-04-19T12:26:40.992Z</time></trkpt><trkpt lat="44.2413624" lon="10.129996"><ele>359.0</ele><time>2026-04-19T12:26:41.992Z</time></trkpt><trkpt lat="44.2413186" lon="10.1299057"><ele>358.0</ele><time>2026-04-19T12:26:42.991Z</time></trkpt><trkpt lat="44.2412671" lon="10.1298008"><ele>357.0</ele><time>2026-04-19T12:26:43.992Z</time></trkpt><trkpt lat="44.2412156" lon="10.1296913"><ele>356.0</ele><time>2026-04-19T12:26:44.992Z</time></trkpt><trkpt lat="44.2411582" lon="10.1295843"><ele>355.0</ele><time>2026-04-19T12:26:45.993Z</time></trkpt><trkpt lat="44.2411035" lon="10.1294731"><ele>354.6</ele><time>2026-04-19T12:26:46.991Z</time></trkpt><trkpt lat="44.241046" lon="10.1293621"><ele>354.2</ele><time>2026-04-19T12:26:47.992Z</time></trkpt><trkpt lat="44.2409845" lon="10.1292406"><ele>353.79999999999995</ele><time>2026-04-19T12:26:48.992Z</time></trkpt><trkpt lat="44.2409208" lon="10.1291158"><ele>353.4</ele><time>2026-04-19T12:26:49.991Z</time></trkpt><trkpt lat="44.2408579" lon="10.1289922"><ele>353.0</ele><time>2026-04-19T12:26:50.992Z</time></trkpt><trkpt lat="44.2408023" lon="10.1288759"><ele>352.79999999999995</ele><time>2026-04-19T12:26:51.991Z</time></trkpt><trkpt lat="44.2407429" lon="10.1287667"><ele>352.6</ele><time>2026-04-19T12:26:52.991Z</time></trkpt><trkpt lat="44.2406862" lon="10.1286578"><ele>352.4</ele><time>2026-04-19T12:26:53.991Z</time></trkpt><trkpt lat="44.2406294" lon="10.1285487"><ele>352.20000000000005</ele><time>2026-04-19T12:26:54.993Z</time></trkpt><trkpt lat="44.240579" lon="10.12845"><ele>352.0</ele><time>2026-04-19T12:26:55.992Z</time></trkpt><trkpt lat="44.2405281" lon="10.1283504"><ele>350.40000000000003</ele><time>2026-04-19T12:26:56.993Z</time></trkpt><trkpt lat="44.2404795" lon="10.1282519"><ele>348.8</ele><time>2026-04-19T12:26:57.992Z</time></trkpt><trkpt lat="44.2404257" lon="10.1281462"><ele>347.2</ele><time>2026-04-19T12:26:58.992Z</time></trkpt><trkpt lat="44.2403749" lon="10.128031"><ele>345.6</ele><time>2026-04-19T12:26:59.993Z</time></trkpt><trkpt lat="44.2403159" lon="10.1279122"><ele>344.0</ele><time>2026-04-19T12:27:00.991Z</time></trkpt><trkpt lat="44.2402529" lon="10.1277878"><ele>344.0</ele><time>2026-04-19T12:27:01.991Z</time></trkpt><trkpt lat="44.2401855" lon="10.1276618"><ele>344.0</ele><time>2026-04-19T12:27:02.99Z</time></trkpt><trkpt lat="44.2401213" lon="10.1275346"><ele>344.0</ele><time>2026-04-19T12:27:03.992Z</time></trkpt><trkpt lat="44.2400592" lon="10.1274044"><ele>344.0</ele><time>2026-04-19T12:27:04.991Z</time></trkpt><trkpt lat="44.2399946" lon="10.1272774"><ele>344.0</ele><time>2026-04-19T12:27:05.991Z</time></trkpt><trkpt lat="44.2399261" lon="10.1271566"><ele>343.79999999999995</ele><time>2026-04-19T12:27:06.992Z</time></trkpt><trkpt lat="44.2398598" lon="10.1270395"><ele>343.59999999999997</ele><time>2026-04-19T12:27:07.992Z</time></trkpt><trkpt lat="44.2397932" lon="10.1269333"><ele>343.4</ele><time>2026-04-19T12:27:08.992Z</time></trkpt><trkpt lat="44.2397312" lon="10.1268279"><ele>343.2</ele><time>2026-04-19T12:27:09.992Z</time></trkpt><trkpt lat="44.2396739" lon="10.1267331"><ele>343.0</ele><time>2026-04-19T12:27:10.991Z</time></trkpt><trkpt lat="44.2396087" lon="10.1266459"><ele>342.0</ele><time>2026-04-19T12:27:11.992Z</time></trkpt><trkpt lat="44.2395525" lon="10.1265551"><ele>341.0</ele><time>2026-04-19T12:27:12.991Z</time></trkpt><trkpt lat="44.2394945" lon="10.1264637"><ele>340.0</ele><time>2026-04-19T12:27:13.992Z</time></trkpt><trkpt lat="44.2394406" lon="10.1263704"><ele>339.0</ele><time>2026-04-19T12:27:14.992Z</time></trkpt><trkpt lat="44.2393843" lon="10.1262839"><ele>338.0</ele><time>2026-04-19T12:27:15.991Z</time></trkpt><trkpt lat="44.2393336" lon="10.1262003"><ele>337.0</ele><time>2026-04-19T12:27:16.991Z</time></trkpt><trkpt lat="44.2392868" lon="10.1261221"><ele>337.0</ele><time>2026-04-19T12:27:17.992Z</time></trkpt><trkpt lat="44.2392325" lon="10.1260459"><ele>337.0</ele><time>2026-04-19T12:27:18.979Z</time></trkpt><trkpt lat="44.2391194" lon="10.1258837"><ele>337.0</ele><time>2026-04-19T12:27:20.992Z</time></trkpt><trkpt lat="44.239062" lon="10.1257916"><ele>337.0</ele><time>2026-04-19T12:27:21.992Z</time></trkpt><trkpt lat="44.239009" lon="10.1257028"><ele>337.0</ele><time>2026-04-19T12:27:22.991Z</time></trkpt><trkpt lat="44.2389522" lon="10.1256133"><ele>336.3333333333333</ele><time>2026-04-19T12:27:23.993Z</time></trkpt><trkpt lat="44.2389108" lon="10.1255267"><ele>335.66666666666663</ele><time>2026-04-19T12:27:24.991Z</time></trkpt><trkpt lat="44.2388683" lon="10.1254424"><ele>335.0</ele><time>2026-04-19T12:27:25.992Z</time></trkpt><trkpt lat="44.2388238" lon="10.1253784"><ele>334.3333333333333</ele><time>2026-04-19T12:27:26.991Z</time></trkpt><trkpt lat="44.2387743" lon="10.1253153"><ele>333.6666666666667</ele><time>2026-04-19T12:27:27.993Z</time></trkpt><trkpt lat="44.238705" lon="10.1251916"><ele>333.0</ele><time>2026-04-19T12:27:29.992Z</time></trkpt><trkpt lat="44.2386325" lon="10.125061"><ele>333.0</ele><time>2026-04-19T12:27:31.992Z</time></trkpt><trkpt lat="44.2385838" lon="10.1249841"><ele>333.0</ele><time>2026-04-19T12:27:32.992Z</time></trkpt><trkpt lat="44.2385419" lon="10.1249082"><ele>333.0</ele><time>2026-04-19T12:27:33.992Z</time></trkpt><trkpt lat="44.2384968" lon="10.1248336"><ele>333.0</ele><time>2026-04-19T12:27:34.993Z</time></trkpt><trkpt lat="44.2384537" lon="10.1247566"><ele>333.0</ele><time>2026-04-19T12:27:35.993Z</time></trkpt><trkpt lat="44.2384058" lon="10.1246758"><ele>333.0</ele><time>2026-04-19T12:27:36.991Z</time></trkpt><trkpt lat="44.2383576" lon="10.1245953"><ele>333.0</ele><time>2026-04-19T12:27:37.991Z</time></trkpt><trkpt lat="44.238302" lon="10.1245204"><ele>332.5</ele><time>2026-04-19T12:27:38.993Z</time></trkpt><trkpt lat="44.2382521" lon="10.1244377"><ele>332.0</ele><time>2026-04-19T12:27:39.993Z</time></trkpt><trkpt lat="44.2381966" lon="10.1243585"><ele>331.5</ele><time>2026-04-19T12:27:40.99Z</time></trkpt><trkpt lat="44.2381433" lon="10.1242831"><ele>331.0</ele><time>2026-04-19T12:27:41.991Z</time></trkpt><trkpt lat="44.2380916" lon="10.1242133"><ele>330.5</ele><time>2026-04-19T12:27:42.992Z</time></trkpt><trkpt lat="44.2380438" lon="10.1241466"><ele>330.0</ele><time>2026-04-19T12:27:43.992Z</time></trkpt><trkpt lat="44.2379547" lon="10.1240477"><ele>329.3333333333333</ele><time>2026-04-19T12:27:45.992Z</time></trkpt><trkpt lat="44.237859" lon="10.1239556"><ele>328.6666666666667</ele><time>2026-04-19T12:27:47.992Z</time></trkpt><trkpt lat="44.2377838" lon="10.1239127"><ele>328.0</ele><time>2026-04-19T12:27:49.992Z</time></trkpt><trkpt lat="44.237744" lon="10.1238079"><ele>327.33333333333337</ele><time>2026-04-19T12:27:52.991Z</time></trkpt><trkpt lat="44.2377524" lon="10.1237048"><ele>326.6666666666667</ele><time>2026-04-19T12:27:58.992Z</time></trkpt><trkpt lat="44.2378121" lon="10.1236205"><ele>326.0</ele><time>2026-04-19T12:28:01.992Z</time></trkpt><trkpt lat="44.2378407" lon="10.1235419"><ele>326.0</ele><time>2026-04-19T12:28:04.992Z</time></trkpt><trkpt lat="44.2378391" lon="10.1234395"><ele>326.0</ele><time>2026-04-19T12:28:08.99Z</time></trkpt><trkpt lat="44.237878" lon="10.1233649"><ele>326.0</ele><time>2026-04-19T12:28:12.991Z</time></trkpt><trkpt lat="44.2379288" lon="10.1233081"><ele>326.0</ele><time>2026-04-19T12:28:15.992Z</time></trkpt><trkpt lat="44.2379761" lon="10.1232359"><ele>326.0</ele><time>2026-04-19T12:28:18.991Z</time></trkpt></trkseg><trkseg><trkpt lat="44.2379091" lon="10.1232491"><ele>326.0</ele><time>2026-04-19T13:01:48.989Z</time></trkpt><trkpt lat="44.2378469" lon="10.1232973"><ele>326.0</ele><time>2026-04-19T13:01:52.988Z</time></trkpt><trkpt lat="44.2377982" lon="10.1233561"><ele>326.0</ele><time>2026-04-19T13:01:56.988Z</time></trkpt><trkpt lat="44.2377523" lon="10.1234386"><ele>326.0</ele><time>2026-04-19T13:01:59.989Z</time></trkpt><trkpt lat="44.2377418" lon="10.1235403"><ele>326.0</ele><time>2026-04-19T13:02:01.989Z</time></trkpt><trkpt lat="44.2377411" lon="10.123646"><ele>326.0</ele><time>2026-04-19T13:02:03.989Z</time></trkpt><trkpt lat="44.2377122" lon="10.1237282"><ele>326.0</ele><time>2026-04-19T13:02:05.989Z</time></trkpt><trkpt lat="44.2376693" lon="10.1238015"><ele>326.0</ele><time>2026-04-19T13:02:08.988Z</time></trkpt><trkpt lat="44.2376731" lon="10.1238989"><ele>326.0</ele><time>2026-04-19T13:02:11.988Z</time></trkpt><trkpt lat="44.2377618" lon="10.1239638"><ele>326.0</ele><time>2026-04-19T13:02:13.988Z</time></trkpt><trkpt lat="44.2378677" lon="10.124042"><ele>326.0</ele><time>2026-04-19T13:02:15.989Z</time></trkpt><trkpt lat="44.2379591" lon="10.1241316"><ele>326.0</ele><time>2026-04-19T13:02:17.987Z</time></trkpt><trkpt lat="44.2380619" lon="10.1242317"><ele>325.6666666666667</ele><time>2026-04-19T13:02:19.988Z</time></trkpt><trkpt lat="44.238108" lon="10.1242998"><ele>325.33333333333337</ele><time>2026-04-19T13:02:20.989Z</time></trkpt><trkpt lat="44.2381548" lon="10.1243737"><ele>325.0</ele><time>2026-04-19T13:02:21.988Z</time></trkpt><trkpt lat="44.2382041" lon="10.1244585"><ele>324.6666666666667</ele><time>2026-04-19T13:02:22.989Z</time></trkpt><trkpt lat="44.2382547" lon="10.1245438"><ele>324.3333333333333</ele><time>2026-04-19T13:02:23.989Z</time></trkpt><trkpt lat="44.2383073" lon="10.1246291"><ele>324.0</ele><time>2026-04-19T13:02:24.989Z</time></trkpt><trkpt lat="44.2383632" lon="10.1247153"><ele>325.0</ele><time>2026-04-19T13:02:25.988Z</time></trkpt><trkpt lat="44.2384242" lon="10.1248048"><ele>326.0</ele><time>2026-04-19T13:02:26.989Z</time></trkpt><trkpt lat="44.2384848" lon="10.1248999"><ele>327.0</ele><time>2026-04-19T13:02:27.987Z</time></trkpt><trkpt lat="44.2385396" lon="10.1249827"><ele>328.0</ele><time>2026-04-19T13:02:28.989Z</time></trkpt><trkpt lat="44.2385898" lon="10.1250616"><ele>329.0</ele><time>2026-04-19T13:02:29.989Z</time></trkpt><trkpt lat="44.2386418" lon="10.1251492"><ele>330.0</ele><time>2026-04-19T13:02:30.989Z</time></trkpt><trkpt lat="44.2386999" lon="10.1252397"><ele>330.6</ele><time>2026-04-19T13:02:31.989Z</time></trkpt><trkpt lat="44.2387602" lon="10.1253334"><ele>331.2</ele><time>2026-04-19T13:02:32.988Z</time></trkpt><trkpt lat="44.2388254" lon="10.1254274"><ele>331.79999999999995</ele><time>2026-04-19T13:02:33.987Z</time></trkpt><trkpt lat="44.2388863" lon="10.1255189"><ele>332.4</ele><time>2026-04-19T13:02:34.988Z</time></trkpt><trkpt lat="44.2389494" lon="10.125622"><ele>333.0</ele><time>2026-04-19T13:02:35.989Z</time></trkpt><trkpt lat="44.2390123" lon="10.1257308"><ele>333.79999999999995</ele><time>2026-04-19T13:02:36.989Z</time></trkpt><trkpt lat="44.2390735" lon="10.1258439"><ele>334.6</ele><time>2026-04-19T13:02:37.989Z</time></trkpt><trkpt lat="44.2391392" lon="10.1259539"><ele>335.4</ele><time>2026-04-19T13:02:38.989Z</time></trkpt><trkpt lat="44.239209" lon="10.126066"><ele>336.20000000000005</ele><time>2026-04-19T13:02:39.988Z</time></trkpt><trkpt lat="44.2392823" lon="10.1261775"><ele>337.0</ele><time>2026-04-19T13:02:40.989Z</time></trkpt><trkpt lat="44.239357" lon="10.1262897"><ele>337.0</ele><time>2026-04-19T13:02:41.989Z</time></trkpt><trkpt lat="44.2394323" lon="10.1264059"><ele>337.0</ele><time>2026-04-19T13:02:42.988Z</time></trkpt><trkpt lat="44.2395078" lon="10.1265229"><ele>337.0</ele><time>2026-04-19T13:02:43.989Z</time></trkpt><trkpt lat="44.239584" lon="10.1266434"><ele>337.0</ele><time>2026-04-19T13:02:44.988Z</time></trkpt><trkpt lat="44.2396573" lon="10.1267599"><ele>337.25</ele><time>2026-04-19T13:02:45.988Z</time></trkpt><trkpt lat="44.239734" lon="10.126883"><ele>337.5</ele><time>2026-04-19T13:02:46.989Z</time></trkpt><trkpt lat="44.2398109" lon="10.1270102"><ele>337.75</ele><time>2026-04-19T13:02:47.989Z</time></trkpt><trkpt lat="44.2398864" lon="10.1271444"><ele>338.0</ele><time>2026-04-19T13:02:48.988Z</time></trkpt><trkpt lat="44.2399593" lon="10.1272825"><ele>339.5</ele><time>2026-04-19T13:02:49.988Z</time></trkpt><trkpt lat="44.2400311" lon="10.1274181"><ele>341.0</ele><time>2026-04-19T13:02:50.989Z</time></trkpt><trkpt lat="44.2401069" lon="10.127564"><ele>342.5</ele><time>2026-04-19T13:02:51.989Z</time></trkpt><trkpt lat="44.2401837" lon="10.1277146"><ele>344.0</ele><time>2026-04-19T13:02:52.988Z</time></trkpt><trkpt lat="44.2402566" lon="10.1278617"><ele>344.0</ele><time>2026-04-19T13:02:53.989Z</time></trkpt><trkpt lat="44.2403229" lon="10.1279917"><ele>344.0</ele><time>2026-04-19T13:02:54.987Z</time></trkpt><trkpt lat="44.2403881" lon="10.1281212"><ele>344.0</ele><time>2026-04-19T13:02:55.989Z</time></trkpt><trkpt lat="44.2404485" lon="10.1282412"><ele>344.0</ele><time>2026-04-19T13:02:56.989Z</time></trkpt><trkpt lat="44.2405085" lon="10.1283617"><ele>344.0</ele><time>2026-04-19T13:02:57.989Z</time></trkpt><trkpt lat="44.2405675" lon="10.1284791"><ele>343.79999999999995</ele><time>2026-04-19T13:02:58.988Z</time></trkpt><trkpt lat="44.2406252" lon="10.1285927"><ele>343.59999999999997</ele><time>2026-04-19T13:02:59.988Z</time></trkpt><trkpt lat="44.2406824" lon="10.1287044"><ele>343.4</ele><time>2026-04-19T13:03:00.988Z</time></trkpt><trkpt lat="44.2407385" lon="10.128816"><ele>343.2</ele><time>2026-04-19T13:03:01.988Z</time></trkpt><trkpt lat="44.2407943" lon="10.1289235"><ele>343.0</ele><time>2026-04-19T13:03:02.987Z</time></trkpt><trkpt lat="44.2408482" lon="10.1290202"><ele>344.66666666666663</ele><time>2026-04-19T13:03:03.988Z</time></trkpt><trkpt lat="44.2408998" lon="10.1291163"><ele>346.3333333333333</ele><time>2026-04-19T13:03:04.988Z</time></trkpt><trkpt lat="44.2409504" lon="10.1292097"><ele>348.0</ele><time>2026-04-19T13:03:05.987Z</time></trkpt><trkpt lat="44.2409937" lon="10.129292"><ele>349.6666666666667</ele><time>2026-04-19T13:03:06.987Z</time></trkpt><trkpt lat="44.2410472" lon="10.1294363"><ele>351.33333333333337</ele><time>2026-04-19T13:03:08.986Z</time></trkpt><trkpt lat="44.2410635" lon="10.1295492"><ele>353.0</ele><time>2026-04-19T13:03:10.988Z</time></trkpt><trkpt lat="44.2411024" lon="10.129682"><ele>353.0</ele><time>2026-04-19T13:03:13.988Z</time></trkpt><trkpt lat="44.2411934" lon="10.129808"><ele>353.0</ele><time>2026-04-19T13:03:15.988Z</time></trkpt><trkpt lat="44.2412474" lon="10.1298756"><ele>353.0</ele><time>2026-04-19T13:03:16.988Z</time></trkpt><trkpt lat="44.241311" lon="10.1299631"><ele>353.0</ele><time>2026-04-19T13:03:17.988Z</time></trkpt><trkpt lat="44.2413776" lon="10.1300774"><ele>353.0</ele><time>2026-04-19T13:03:18.987Z</time></trkpt><trkpt lat="44.241453" lon="10.1302213"><ele>354.5</ele><time>2026-04-19T13:03:19.988Z</time></trkpt><trkpt lat="44.2415293" lon="10.1303695"><ele>356.0</ele><time>2026-04-19T13:03:20.988Z</time></trkpt><trkpt lat="44.2416088" lon="10.1305237"><ele>357.5</ele><time>2026-04-19T13:03:21.988Z</time></trkpt><trkpt lat="44.2416905" lon="10.1306795"><ele>359.0</ele><time>2026-04-19T13:03:22.988Z</time></trkpt><trkpt lat="44.2417748" lon="10.1308358"><ele>359.0</ele><time>2026-04-19T13:03:23.988Z</time></trkpt><trkpt lat="44.2418595" lon="10.1309964"><ele>359.0</ele><time>2026-04-19T13:03:24.988Z</time></trkpt><trkpt lat="44.2419421" lon="10.1311644"><ele>359.0</ele><time>2026-04-19T13:03:25.987Z</time></trkpt><trkpt lat="44.2420108" lon="10.1313246"><ele>359.0</ele><time>2026-04-19T13:03:26.988Z</time></trkpt><trkpt lat="44.2420661" lon="10.1314838"><ele>359.75</ele><time>2026-04-19T13:03:27.987Z</time></trkpt><trkpt lat="44.2421075" lon="10.1316508"><ele>360.5</ele><time>2026-04-19T13:03:28.988Z</time></trkpt><trkpt lat="44.2421432" lon="10.1318452"><ele>361.25</ele><time>2026-04-19T13:03:29.988Z</time></trkpt><trkpt lat="44.242176" lon="10.1320554"><ele>362.0</ele><time>2026-04-19T13:03:30.988Z</time></trkpt><trkpt lat="44.2422065" lon="10.1322861"><ele>365.6666666666667</ele><time>2026-04-19T13:03:31.987Z</time></trkpt><trkpt lat="44.2422335" lon="10.1325131"><ele>369.3333333333333</ele><time>2026-04-19T13:03:32.987Z</time></trkpt><trkpt lat="44.242254" lon="10.1327486"><ele>373.0</ele><time>2026-04-19T13:03:33.987Z</time></trkpt><trkpt lat="44.2422619" lon="10.1329772"><ele>373.0</ele><time>2026-04-19T13:03:34.988Z</time></trkpt><trkpt lat="44.2422591" lon="10.1331925"><ele>373.0</ele><time>2026-04-19T13:03:35.987Z</time></trkpt><trkpt lat="44.2422554" lon="10.1334061"><ele>373.0</ele><time>2026-04-19T13:03:36.987Z</time></trkpt><trkpt lat="44.2422518" lon="10.1336165"><ele>377.75</ele><time>2026-04-19T13:03:37.988Z</time></trkpt><trkpt lat="44.2422469" lon="10.1338096"><ele>382.5</ele><time>2026-04-19T13:03:38.987Z</time></trkpt><trkpt lat="44.2422362" lon="10.133986"><ele>387.25</ele><time>2026-04-19T13:03:39.988Z</time></trkpt><trkpt lat="44.2422124" lon="10.1341607"><ele>392.0</ele><time>2026-04-19T13:03:40.988Z</time></trkpt><trkpt lat="44.2421727" lon="10.1343367"><ele>394.25</ele><time>2026-04-19T13:03:41.987Z</time></trkpt><trkpt lat="44.2421302" lon="10.1345018"><ele>396.5</ele><time>2026-04-19T13:03:42.987Z</time></trkpt><trkpt lat="44.2420909" lon="10.1346613"><ele>398.75</ele><time>2026-04-19T13:03:43.988Z</time></trkpt><trkpt lat="44.2420657" lon="10.1348254"><ele>401.0</ele><time>2026-04-19T13:03:44.988Z</time></trkpt><trkpt lat="44.2420562" lon="10.1350018"><ele>401.66666666666663</ele><time>2026-04-19T13:03:45.988Z</time></trkpt><trkpt lat="44.2420556" lon="10.1351972"><ele>402.33333333333337</ele><time>2026-04-19T13:03:46.988Z</time></trkpt><trkpt lat="44.2420585" lon="10.1354191"><ele>403.0</ele><time>2026-04-19T13:03:47.987Z</time></trkpt><trkpt lat="44.2420594" lon="10.1356339"><ele>402.33333333333337</ele><time>2026-04-19T13:03:48.988Z</time></trkpt><trkpt lat="44.2420632" lon="10.1358435"><ele>401.66666666666663</ele><time>2026-04-19T13:03:49.988Z</time></trkpt><trkpt lat="44.2420643" lon="10.1360526"><ele>401.0</ele><time>2026-04-19T13:03:50.988Z</time></trkpt><trkpt lat="44.2420618" lon="10.1362652"><ele>401.0</ele><time>2026-04-19T13:03:51.987Z</time></trkpt><trkpt lat="44.2420541" lon="10.1364628"><ele>401.0</ele><time>2026-04-19T13:03:52.988Z</time></trkpt><trkpt lat="44.2420437" lon="10.136649"><ele>401.0</ele><time>2026-04-19T13:03:53.988Z</time></trkpt><trkpt lat="44.2420379" lon="10.1368219"><ele>401.0</ele><time>2026-04-19T13:03:54.987Z</time></trkpt><trkpt lat="44.2420375" lon="10.136968"><ele>399.6</ele><time>2026-04-19T13:03:55.988Z</time></trkpt><trkpt lat="44.24205" lon="10.1371004"><ele>398.20000000000005</ele><time>2026-04-19T13:03:56.986Z</time></trkpt><trkpt lat="44.2420745" lon="10.1372187"><ele>396.79999999999995</ele><time>2026-04-19T13:03:57.986Z</time></trkpt><trkpt lat="44.2421215" lon="10.1373291"><ele>395.4</ele><time>2026-04-19T13:03:58.986Z</time></trkpt><trkpt lat="44.2421934" lon="10.1374181"><ele>394.0</ele><time>2026-04-19T13:03:59.987Z</time></trkpt><trkpt lat="44.2422877" lon="10.1374802"><ele>387.2</ele><time>2026-04-19T13:04:00.988Z</time></trkpt><trkpt lat="44.2423994" lon="10.1375169"><ele>380.4</ele><time>2026-04-19T13:04:01.987Z</time></trkpt><trkpt lat="44.2424974" lon="10.1375399"><ele>373.6</ele><time>2026-04-19T13:04:02.987Z</time></trkpt><trkpt lat="44.2425852" lon="10.1375902"><ele>366.8</ele><time>2026-04-19T13:04:03.986Z</time></trkpt><trkpt lat="44.2426646" lon="10.1376791"><ele>360.0</ele><time>2026-04-19T13:04:04.988Z</time></trkpt><trkpt lat="44.2427186" lon="10.1377987"><ele>360.0</ele><time>2026-04-19T13:04:05.986Z</time></trkpt><trkpt lat="44.2427494" lon="10.1379365"><ele>360.0</ele><time>2026-04-19T13:04:06.987Z</time></trkpt><trkpt lat="44.2427578" lon="10.1380978"><ele>360.0</ele><time>2026-04-19T13:04:07.988Z</time></trkpt><trkpt lat="44.2427536" lon="10.1382822"><ele>360.0</ele><time>2026-04-19T13:04:08.987Z</time></trkpt><trkpt lat="44.2427415" lon="10.1384968"><ele>362.6666666666667</ele><time>2026-04-19T13:04:09.987Z</time></trkpt><trkpt lat="44.2427252" lon="10.1387061"><ele>365.33333333333337</ele><time>2026-04-19T13:04:10.988Z</time></trkpt><trkpt lat="44.2427035" lon="10.1389333"><ele>368.0</ele><time>2026-04-19T13:04:11.988Z</time></trkpt><trkpt lat="44.2426765" lon="10.1391736"><ele>369.0</ele><time>2026-04-19T13:04:12.988Z</time></trkpt><trkpt lat="44.2426458" lon="10.1394121"><ele>370.0</ele><time>2026-04-19T13:04:13.987Z</time></trkpt><trkpt lat="44.2426164" lon="10.1396467"><ele>371.0</ele><time>2026-04-19T13:04:14.987Z</time></trkpt><trkpt lat="44.2425855" lon="10.1398828"><ele>370.6666666666667</ele><time>2026-04-19T13:04:15.986Z</time></trkpt><trkpt lat="44.242555" lon="10.1401234"><ele>370.3333333333333</ele><time>2026-04-19T13:04:16.988Z</time></trkpt><trkpt lat="44.2425207" lon="10.1403664"><ele>370.0</ele><time>2026-04-19T13:04:17.986Z</time></trkpt><trkpt lat="44.2424861" lon="10.1406137"><ele>369.66666666666663</ele><time>2026-04-19T13:04:18.988Z</time></trkpt><trkpt lat="44.242453" lon="10.1408654"><ele>369.3333333333333</ele><time>2026-04-19T13:04:19.987Z</time></trkpt><trkpt lat="44.2424212" lon="10.1411036"><ele>369.0</ele><time>2026-04-19T13:04:20.988Z</time></trkpt><trkpt lat="44.2423884" lon="10.1413239"><ele>369.0</ele><time>2026-04-19T13:04:21.988Z</time></trkpt><trkpt lat="44.2423505" lon="10.1415391"><ele>369.0</ele><time>2026-04-19T13:04:22.987Z</time></trkpt><trkpt lat="44.2423006" lon="10.141737"><ele>369.0</ele><time>2026-04-19T13:04:23.986Z</time></trkpt><trkpt lat="44.2422447" lon="10.1419146"><ele>369.0</ele><time>2026-04-19T13:04:24.988Z</time></trkpt><trkpt lat="44.2421916" lon="10.1420727"><ele>374.5</ele><time>2026-04-19T13:04:25.986Z</time></trkpt><trkpt lat="44.2421465" lon="10.1422263"><ele>380.0</ele><time>2026-04-19T13:04:26.988Z</time></trkpt><trkpt lat="44.2421114" lon="10.1423862"><ele>385.5</ele><time>2026-04-19T13:04:27.987Z</time></trkpt><trkpt lat="44.2420858" lon="10.1425486"><ele>391.0</ele><time>2026-04-19T13:04:28.988Z</time></trkpt><trkpt lat="44.2420643" lon="10.1427023"><ele>391.0</ele><time>2026-04-19T13:04:29.987Z</time></trkpt><trkpt lat="44.2420411" lon="10.1428601"><ele>391.0</ele><time>2026-04-19T13:04:30.986Z</time></trkpt><trkpt lat="44.2420153" lon="10.1430203"><ele>391.0</ele><time>2026-04-19T13:04:31.988Z</time></trkpt><trkpt lat="44.2419816" lon="10.1431758"><ele>391.0</ele><time>2026-04-19T13:04:32.987Z</time></trkpt><trkpt lat="44.241944" lon="10.1433228"><ele>391.8</ele><time>2026-04-19T13:04:33.986Z</time></trkpt><trkpt lat="44.2419245" lon="10.1434586"><ele>392.6</ele><time>2026-04-19T13:04:34.986Z</time></trkpt><trkpt lat="44.2419253" lon="10.1435988"><ele>393.4</ele><time>2026-04-19T13:04:35.988Z</time></trkpt><trkpt lat="44.2419487" lon="10.1437393"><ele>394.2</ele><time>2026-04-19T13:04:36.986Z</time></trkpt><trkpt lat="44.2419933" lon="10.1438761"><ele>395.0</ele><time>2026-04-19T13:04:37.988Z</time></trkpt><trkpt lat="44.2420554" lon="10.1440003"><ele>396.25</ele><time>2026-04-19T13:04:38.988Z</time></trkpt><trkpt lat="44.2421153" lon="10.1441323"><ele>397.5</ele><time>2026-04-19T13:04:39.986Z</time></trkpt><trkpt lat="44.242147" lon="10.1442891"><ele>398.75</ele><time>2026-04-19T13:04:40.988Z</time></trkpt><trkpt lat="44.2421516" lon="10.1444628"><ele>400.0</ele><time>2026-04-19T13:04:41.988Z</time></trkpt><trkpt lat="44.2421455" lon="10.144664"><ele>401.6666666666667</ele><time>2026-04-19T13:04:42.988Z</time></trkpt><trkpt lat="44.2421379" lon="10.1448926"><ele>403.33333333333337</ele><time>2026-04-19T13:04:43.988Z</time></trkpt><trkpt lat="44.2421318" lon="10.1451114"><ele>405.0</ele><time>2026-04-19T13:04:44.988Z</time></trkpt><trkpt lat="44.2421245" lon="10.1453414"><ele>405.0</ele><time>2026-04-19T13:04:45.988Z</time></trkpt><trkpt lat="44.2421229" lon="10.145572"><ele>405.0</ele><time>2026-04-19T13:04:46.988Z</time></trkpt><trkpt lat="44.242132" lon="10.1458042"><ele>405.0</ele><time>2026-04-19T13:04:47.987Z</time></trkpt><trkpt lat="44.2421609" lon="10.1460389"><ele>406.0</ele><time>2026-04-19T13:04:48.988Z</time></trkpt><trkpt lat="44.2422089" lon="10.1462826"><ele>407.0</ele><time>2026-04-19T13:04:49.988Z</time></trkpt><trkpt lat="44.2422641" lon="10.1464873"><ele>408.0</ele><time>2026-04-19T13:04:50.988Z</time></trkpt><trkpt lat="44.2423137" lon="10.1466493"><ele>408.0</ele><time>2026-04-19T13:04:51.987Z</time></trkpt><trkpt lat="44.2423637" lon="10.1467822"><ele>408.0</ele><time>2026-04-19T13:04:52.988Z</time></trkpt><trkpt lat="44.242428" lon="10.146888"><ele>408.0</ele><time>2026-04-19T13:04:53.988Z</time></trkpt><trkpt lat="44.2425124" lon="10.1469695"><ele>408.0</ele><time>2026-04-19T13:04:54.988Z</time></trkpt><trkpt lat="44.2426089" lon="10.1470403"><ele>408.0</ele><time>2026-04-19T13:04:55.988Z</time></trkpt><trkpt lat="44.2426916" lon="10.1471406"><ele>408.0</ele><time>2026-04-19T13:04:56.986Z</time></trkpt><trkpt lat="44.2427465" lon="10.1472688"><ele>408.0</ele><time>2026-04-19T13:04:57.988Z</time></trkpt><trkpt lat="44.2427779" lon="10.1474207"><ele>408.0</ele><time>2026-04-19T13:04:58.987Z</time></trkpt><trkpt lat="44.2428095" lon="10.1475854"><ele>408.0</ele><time>2026-04-19T13:04:59.988Z</time></trkpt><trkpt lat="44.2428662" lon="10.1477429"><ele>412.75</ele><time>2026-04-19T13:05:00.987Z</time></trkpt><trkpt lat="44.2429376" lon="10.1479072"><ele>417.5</ele><time>2026-04-19T13:05:01.987Z</time></trkpt><trkpt lat="44.2429842" lon="10.1480901"><ele>422.25</ele><time>2026-04-19T13:05:02.988Z</time></trkpt><trkpt lat="44.243007" lon="10.1482893"><ele>427.0</ele><time>2026-04-19T13:05:03.988Z</time></trkpt><trkpt lat="44.2430129" lon="10.1485091"><ele>432.33333333333337</ele><time>2026-04-19T13:05:04.988Z</time></trkpt><trkpt lat="44.2430072" lon="10.1487415"><ele>437.66666666666663</ele><time>2026-04-19T13:05:05.987Z</time></trkpt><trkpt lat="44.2429981" lon="10.1489805"><ele>443.0</ele><time>2026-04-19T13:05:06.988Z</time></trkpt><trkpt lat="44.2429827" lon="10.1492471"><ele>446.66666666666663</ele><time>2026-04-19T13:05:07.988Z</time></trkpt><trkpt lat="44.2429659" lon="10.1495282"><ele>450.33333333333337</ele><time>2026-04-19T13:05:08.987Z</time></trkpt><trkpt lat="44.2429524" lon="10.149779"><ele>454.0</ele><time>2026-04-19T13:05:09.987Z</time></trkpt><trkpt lat="44.2429381" lon="10.1500114"><ele>454.5</ele><time>2026-04-19T13:05:10.988Z</time></trkpt><trkpt lat="44.2429272" lon="10.1502179"><ele>455.0</ele><time>2026-04-19T13:05:11.988Z</time></trkpt><trkpt lat="44.2429254" lon="10.1503975"><ele>455.5</ele><time>2026-04-19T13:05:12.987Z</time></trkpt><trkpt lat="44.2429366" lon="10.1505631"><ele>456.0</ele><time>2026-04-19T13:05:13.988Z</time></trkpt><trkpt lat="44.2429728" lon="10.150728"><ele>458.0</ele><time>2026-04-19T13:05:14.987Z</time></trkpt><trkpt lat="44.2430374" lon="10.1508816"><ele>460.0</ele><time>2026-04-19T13:05:15.988Z</time></trkpt><trkpt lat="44.2431283" lon="10.1510181"><ele>462.0</ele><time>2026-04-19T13:05:16.986Z</time></trkpt><trkpt lat="44.2432286" lon="10.1511341"><ele>464.0</ele><time>2026-04-19T13:05:17.987Z</time></trkpt><trkpt lat="44.2432997" lon="10.1512662"><ele>460.0</ele><time>2026-04-19T13:05:18.987Z</time></trkpt><trkpt lat="44.2433601" lon="10.151441"><ele>456.0</ele><time>2026-04-19T13:05:19.988Z</time></trkpt><trkpt lat="44.2434081" lon="10.1516414"><ele>452.0</ele><time>2026-04-19T13:05:20.988Z</time></trkpt><trkpt lat="44.2434433" lon="10.1518261"><ele>448.0</ele><time>2026-04-19T13:05:21.987Z</time></trkpt><trkpt lat="44.2434583" lon="10.1520121"><ele>448.0</ele><time>2026-04-19T13:05:22.988Z</time></trkpt><trkpt lat="44.2434462" lon="10.152202"><ele>448.0</ele><time>2026-04-19T13:05:23.988Z</time></trkpt><trkpt lat="44.2434219" lon="10.1523841"><ele>448.0</ele><time>2026-04-19T13:05:24.987Z</time></trkpt><trkpt lat="44.2434115" lon="10.1525669"><ele>448.0</ele><time>2026-04-19T13:05:25.988Z</time></trkpt><trkpt lat="44.243431" lon="10.1527454"><ele>450.25</ele><time>2026-04-19T13:05:26.986Z</time></trkpt><trkpt lat="44.2434828" lon="10.1529139"><ele>452.5</ele><time>2026-04-19T13:05:27.987Z</time></trkpt><trkpt lat="44.2435535" lon="10.1530961"><ele>454.75</ele><time>2026-04-19T13:05:28.987Z</time></trkpt><trkpt lat="44.2436129" lon="10.1533078"><ele>457.0</ele><time>2026-04-19T13:05:29.988Z</time></trkpt><trkpt lat="44.2436649" lon="10.1535457"><ele>459.6666666666667</ele><time>2026-04-19T13:05:30.987Z</time></trkpt><trkpt lat="44.2437118" lon="10.153772"><ele>462.33333333333337</ele><time>2026-04-19T13:05:31.987Z</time></trkpt><trkpt lat="44.2437416" lon="10.1539773"><ele>465.0</ele><time>2026-04-19T13:05:32.988Z</time></trkpt><trkpt lat="44.243758" lon="10.1541717"><ele>466.66666666666663</ele><time>2026-04-19T13:05:33.988Z</time></trkpt><trkpt lat="44.243752" lon="10.1543778"><ele>468.3333333333333</ele><time>2026-04-19T13:05:34.987Z</time></trkpt><trkpt lat="44.2437238" lon="10.1545888"><ele>470.0</ele><time>2026-04-19T13:05:35.988Z</time></trkpt><trkpt lat="44.2436729" lon="10.1548045"><ele>471.3333333333333</ele><time>2026-04-19T13:05:36.987Z</time></trkpt><trkpt lat="44.2435996" lon="10.1550106"><ele>472.66666666666663</ele><time>2026-04-19T13:05:37.987Z</time></trkpt><trkpt lat="44.243504" lon="10.155209"><ele>474.0</ele><time>2026-04-19T13:05:38.987Z</time></trkpt><trkpt lat="44.2434064" lon="10.1553839"><ele>474.0</ele><time>2026-04-19T13:05:39.986Z</time></trkpt><trkpt lat="44.243307" lon="10.1555313"><ele>474.0</ele><time>2026-04-19T13:05:40.987Z</time></trkpt><trkpt lat="44.2431815" lon="10.1556456"><ele>474.0</ele><time>2026-04-19T13:05:41.988Z</time></trkpt><trkpt lat="44.2430385" lon="10.1557438"><ele>477.66666666666663</ele><time>2026-04-19T13:05:42.988Z</time></trkpt><trkpt lat="44.242895" lon="10.1558532"><ele>481.3333333333333</ele><time>2026-04-19T13:05:43.987Z</time></trkpt><trkpt lat="44.2427663" lon="10.1559887"><ele>485.0</ele><time>2026-04-19T13:05:44.988Z</time></trkpt><trkpt lat="44.2426581" lon="10.1561417"><ele>485.0</ele><time>2026-04-19T13:05:45.986Z</time></trkpt><trkpt lat="44.2425645" lon="10.1562927"><ele>485.0</ele><time>2026-04-19T13:05:46.987Z</time></trkpt><trkpt lat="44.2424837" lon="10.1564722"><ele>485.0</ele><time>2026-04-19T13:05:47.986Z</time></trkpt><trkpt lat="44.2424171" lon="10.1566845"><ele>483.66666666666663</ele><time>2026-04-19T13:05:48.988Z</time></trkpt><trkpt lat="44.2423566" lon="10.1569188"><ele>482.33333333333337</ele><time>2026-04-19T13:05:49.988Z</time></trkpt><trkpt lat="44.2422955" lon="10.1571688"><ele>481.0</ele><time>2026-04-19T13:05:50.987Z</time></trkpt><trkpt lat="44.2422411" lon="10.1574212"><ele>481.0</ele><time>2026-04-19T13:05:51.987Z</time></trkpt><trkpt lat="44.2422013" lon="10.1576339"><ele>481.0</ele><time>2026-04-19T13:05:52.988Z</time></trkpt><trkpt lat="44.2421816" lon="10.1578232"><ele>481.0</ele><time>2026-04-19T13:05:53.988Z</time></trkpt><trkpt lat="44.2421941" lon="10.1579981"><ele>481.0</ele><time>2026-04-19T13:05:54.988Z</time></trkpt><trkpt lat="44.2422372" lon="10.1581679"><ele>481.33333333333337</ele><time>2026-04-19T13:05:55.987Z</time></trkpt><trkpt lat="44.2423098" lon="10.1583436"><ele>481.66666666666663</ele><time>2026-04-19T13:05:56.987Z</time></trkpt><trkpt lat="44.2424046" lon="10.1585245"><ele>482.0</ele><time>2026-04-19T13:05:57.988Z</time></trkpt><trkpt lat="44.242514" lon="10.1587"><ele>482.0</ele><time>2026-04-19T13:05:58.986Z</time></trkpt><trkpt lat="44.2426105" lon="10.1588317"><ele>482.0</ele><time>2026-04-19T13:05:59.987Z</time></trkpt><trkpt lat="44.2427114" lon="10.15894"><ele>482.0</ele><time>2026-04-19T13:06:00.986Z</time></trkpt><trkpt lat="44.2428211" lon="10.1590202"><ele>482.0</ele><time>2026-04-19T13:06:01.987Z</time></trkpt><trkpt lat="44.2429339" lon="10.1590653"><ele>479.25</ele><time>2026-04-19T13:06:02.988Z</time></trkpt><trkpt lat="44.243073" lon="10.1590443"><ele>476.5</ele><time>2026-04-19T13:06:03.987Z</time></trkpt><trkpt lat="44.2432203" lon="10.1590025"><ele>473.75</ele><time>2026-04-19T13:06:04.987Z</time></trkpt><trkpt lat="44.2433714" lon="10.1589748"><ele>471.0</ele><time>2026-04-19T13:06:05.988Z</time></trkpt><trkpt lat="44.2435368" lon="10.1589793"><ele>471.0</ele><time>2026-04-19T13:06:06.986Z</time></trkpt><trkpt lat="44.2436963" lon="10.1590036"><ele>471.0</ele><time>2026-04-19T13:06:07.988Z</time></trkpt><trkpt lat="44.2438201" lon="10.1590316"><ele>471.0</ele><time>2026-04-19T13:06:08.988Z</time></trkpt><trkpt lat="44.2439201" lon="10.159067"><ele>471.0</ele><time>2026-04-19T13:06:09.988Z</time></trkpt><trkpt lat="44.243993" lon="10.1591198"><ele>473.20000000000005</ele><time>2026-04-19T13:06:10.988Z</time></trkpt><trkpt lat="44.2440433" lon="10.1591981"><ele>475.40000000000003</ele><time>2026-04-19T13:06:11.987Z</time></trkpt><trkpt lat="44.2440716" lon="10.159299"><ele>477.6</ele><time>2026-04-19T13:06:12.987Z</time></trkpt><trkpt lat="44.2440752" lon="10.1594361"><ele>479.8</ele><time>2026-04-19T13:06:13.988Z</time></trkpt><trkpt lat="44.2440829" lon="10.1595914"><ele>482.0</ele><time>2026-04-19T13:06:14.988Z</time></trkpt><trkpt lat="44.2441177" lon="10.1597327"><ele>486.0</ele><time>2026-04-19T13:06:15.988Z</time></trkpt><trkpt lat="44.2441803" lon="10.1598815"><ele>490.0</ele><time>2026-04-19T13:06:16.987Z</time></trkpt><trkpt lat="44.2442529" lon="10.1600452"><ele>494.0</ele><time>2026-04-19T13:06:17.987Z</time></trkpt><trkpt lat="44.2443334" lon="10.1602064"><ele>498.0</ele><time>2026-04-19T13:06:18.987Z</time></trkpt><trkpt lat="44.2444154" lon="10.1603878"><ele>498.0</ele><time>2026-04-19T13:06:19.987Z</time></trkpt><trkpt lat="44.2444908" lon="10.1606008"><ele>498.0</ele><time>2026-04-19T13:06:20.988Z</time></trkpt><trkpt lat="44.2445596" lon="10.1608228"><ele>498.0</ele><time>2026-04-19T13:06:21.988Z</time></trkpt><trkpt lat="44.2446251" lon="10.1610524"><ele>500.5</ele><time>2026-04-19T13:06:22.988Z</time></trkpt><trkpt lat="44.2446799" lon="10.1612706"><ele>503.0</ele><time>2026-04-19T13:06:23.986Z</time></trkpt><trkpt lat="44.2447177" lon="10.1614592"><ele>505.5</ele><time>2026-04-19T13:06:24.988Z</time></trkpt><trkpt lat="44.2447424" lon="10.1616384"><ele>508.0</ele><time>2026-04-19T13:06:25.988Z</time></trkpt><trkpt lat="44.24474" lon="10.1618266"><ele>508.6666666666667</ele><time>2026-04-19T13:06:26.987Z</time></trkpt><trkpt lat="44.2447126" lon="10.1620263"><ele>509.33333333333337</ele><time>2026-04-19T13:06:27.988Z</time></trkpt><trkpt lat="44.2446711" lon="10.1622402"><ele>510.0</ele><time>2026-04-19T13:06:28.988Z</time></trkpt><trkpt lat="44.2446196" lon="10.1624683"><ele>513.0</ele><time>2026-04-19T13:06:29.987Z</time></trkpt><trkpt lat="44.2445564" lon="10.1627045"><ele>516.0</ele><time>2026-04-19T13:06:30.988Z</time></trkpt><trkpt lat="44.2444869" lon="10.1629312"><ele>519.0</ele><time>2026-04-19T13:06:31.988Z</time></trkpt><trkpt lat="44.2444219" lon="10.1631649"><ele>519.3333333333334</ele><time>2026-04-19T13:06:32.986Z</time></trkpt><trkpt lat="44.2443717" lon="10.1633984"><ele>519.6666666666667</ele><time>2026-04-19T13:06:33.988Z</time></trkpt><trkpt lat="44.2443349" lon="10.1636058"><ele>520.0</ele><time>2026-04-19T13:06:34.986Z</time></trkpt><trkpt lat="44.2443086" lon="10.1637892"><ele>520.0</ele><time>2026-04-19T13:06:35.988Z</time></trkpt><trkpt lat="44.2442949" lon="10.1639458"><ele>520.0</ele><time>2026-04-19T13:06:36.987Z</time></trkpt><trkpt lat="44.2443061" lon="10.1640856"><ele>520.0</ele><time>2026-04-19T13:06:37.988Z</time></trkpt><trkpt lat="44.2443438" lon="10.1642279"><ele>520.0</ele><time>2026-04-19T13:06:38.987Z</time></trkpt><trkpt lat="44.2444111" lon="10.1643531"><ele>520.0</ele><time>2026-04-19T13:06:39.987Z</time></trkpt><trkpt lat="44.2444908" lon="10.1644473"><ele>519.0</ele><time>2026-04-19T13:06:40.986Z</time></trkpt><trkpt lat="44.2445849" lon="10.1645038"><ele>518.0</ele><time>2026-04-19T13:06:41.987Z</time></trkpt><trkpt lat="44.2446848" lon="10.1645197"><ele>517.0</ele><time>2026-04-19T13:06:42.988Z</time></trkpt><trkpt lat="44.2447938" lon="10.1644889"><ele>516.0</ele><time>2026-04-19T13:06:43.988Z</time></trkpt><trkpt lat="44.2449117" lon="10.1644257"><ele>515.0</ele><time>2026-04-19T13:06:44.987Z</time></trkpt><trkpt lat="44.2450369" lon="10.164369"><ele>512.0</ele><time>2026-04-19T13:06:45.986Z</time></trkpt><trkpt lat="44.2451462" lon="10.1643534"><ele>509.0</ele><time>2026-04-19T13:06:46.987Z</time></trkpt><trkpt lat="44.2452568" lon="10.1643735"><ele>506.0</ele><time>2026-04-19T13:06:47.987Z</time></trkpt><trkpt lat="44.2453618" lon="10.1644391"><ele>503.0</ele><time>2026-04-19T13:06:48.987Z</time></trkpt><trkpt lat="44.2454641" lon="10.1645431"><ele>503.0</ele><time>2026-04-19T13:06:49.988Z</time></trkpt><trkpt lat="44.245564" lon="10.1646868"><ele>503.0</ele><time>2026-04-19T13:06:50.988Z</time></trkpt><trkpt lat="44.245667" lon="10.1648709"><ele>503.0</ele><time>2026-04-19T13:06:51.988Z</time></trkpt><trkpt lat="44.2457595" lon="10.1650699"><ele>505.0</ele><time>2026-04-19T13:06:52.988Z</time></trkpt><trkpt lat="44.2458599" lon="10.1653"><ele>507.0</ele><time>2026-04-19T13:06:53.988Z</time></trkpt><trkpt lat="44.2459566" lon="10.1655303"><ele>509.0</ele><time>2026-04-19T13:06:54.987Z</time></trkpt><trkpt lat="44.2460501" lon="10.1657439"><ele>515.6666666666666</ele><time>2026-04-19T13:06:55.987Z</time></trkpt><trkpt lat="44.2461441" lon="10.1659392"><ele>522.3333333333334</ele><time>2026-04-19T13:06:56.987Z</time></trkpt><trkpt lat="44.2462373" lon="10.1661204"><ele>529.0</ele><time>2026-04-19T13:06:57.988Z</time></trkpt><trkpt lat="44.2463289" lon="10.1662911"><ele>529.0</ele><time>2026-04-19T13:06:58.987Z</time></trkpt><trkpt lat="44.2464239" lon="10.1664446"><ele>529.0</ele><time>2026-04-19T13:06:59.987Z</time></trkpt><trkpt lat="44.2465322" lon="10.1665751"><ele>529.0</ele><time>2026-04-19T13:07:00.987Z</time></trkpt><trkpt lat="44.2466394" lon="10.166681"><ele>529.0</ele><time>2026-04-19T13:07:01.988Z</time></trkpt><trkpt lat="44.2467408" lon="10.1667902"><ele>529.5</ele><time>2026-04-19T13:07:02.987Z</time></trkpt><trkpt lat="44.2468344" lon="10.1669232"><ele>530.0</ele><time>2026-04-19T13:07:03.987Z</time></trkpt><trkpt lat="44.2469114" lon="10.1670721"><ele>530.5</ele><time>2026-04-19T13:07:04.988Z</time></trkpt><trkpt lat="44.2469742" lon="10.1672341"><ele>531.0</ele><time>2026-04-19T13:07:05.987Z</time></trkpt><trkpt lat="44.2470231" lon="10.1673971"><ele>531.0</ele><time>2026-04-19T13:07:06.986Z</time></trkpt><trkpt lat="44.2470788" lon="10.1675533"><ele>531.0</ele><time>2026-04-19T13:07:07.987Z</time></trkpt><trkpt lat="44.2471436" lon="10.1677068"><ele>531.0</ele><time>2026-04-19T13:07:08.988Z</time></trkpt><trkpt lat="44.2472043" lon="10.1678615"><ele>531.0</ele><time>2026-04-19T13:07:09.987Z</time></trkpt><trkpt lat="44.2472583" lon="10.1680167"><ele>526.0</ele><time>2026-04-19T13:07:10.987Z</time></trkpt><trkpt lat="44.247309" lon="10.1681826"><ele>521.0</ele><time>2026-04-19T13:07:11.988Z</time></trkpt><trkpt lat="44.24736" lon="10.1683615"><ele>516.0</ele><time>2026-04-19T13:07:12.988Z</time></trkpt><trkpt lat="44.2474105" lon="10.1685506"><ele>511.0</ele><time>2026-04-19T13:07:13.987Z</time></trkpt><trkpt lat="44.247456" lon="10.168725"><ele>511.0</ele><time>2026-04-19T13:07:14.988Z</time></trkpt><trkpt lat="44.2475005" lon="10.1688945"><ele>511.0</ele><time>2026-04-19T13:07:15.987Z</time></trkpt><trkpt lat="44.2475434" lon="10.1690576"><ele>511.0</ele><time>2026-04-19T13:07:16.988Z</time></trkpt><trkpt lat="44.2475828" lon="10.169217"><ele>511.0</ele><time>2026-04-19T13:07:17.987Z</time></trkpt><trkpt lat="44.2476242" lon="10.1693785"><ele>513.25</ele><time>2026-04-19T13:07:18.988Z</time></trkpt><trkpt lat="44.2476664" lon="10.1695406"><ele>515.5</ele><time>2026-04-19T13:07:19.987Z</time></trkpt><trkpt lat="44.2477084" lon="10.169696"><ele>517.75</ele><time>2026-04-19T13:07:20.987Z</time></trkpt><trkpt lat="44.2477513" lon="10.1698492"><ele>520.0</ele><time>2026-04-19T13:07:21.987Z</time></trkpt><trkpt lat="44.247793" lon="10.1700127"><ele>522.0</ele><time>2026-04-19T13:07:22.987Z</time></trkpt><trkpt lat="44.2478256" lon="10.1701899"><ele>524.0</ele><time>2026-04-19T13:07:23.986Z</time></trkpt><trkpt lat="44.2478497" lon="10.1703627"><ele>526.0</ele><time>2026-04-19T13:07:24.988Z</time></trkpt><trkpt lat="44.2478691" lon="10.1705173"><ele>528.0</ele><time>2026-04-19T13:07:25.988Z</time></trkpt><trkpt lat="44.2478833" lon="10.1706687"><ele>528.75</ele><time>2026-04-19T13:07:26.988Z</time></trkpt><trkpt lat="44.2478922" lon="10.1708259"><ele>529.5</ele><time>2026-04-19T13:07:27.988Z</time></trkpt><trkpt lat="44.2478992" lon="10.1709839"><ele>530.25</ele><time>2026-04-19T13:07:28.988Z</time></trkpt><trkpt lat="44.2479074" lon="10.171147"><ele>531.0</ele><time>2026-04-19T13:07:29.987Z</time></trkpt><trkpt lat="44.2479153" lon="10.171312"><ele>531.0</ele><time>2026-04-19T13:07:30.988Z</time></trkpt><trkpt lat="44.247922" lon="10.1714887"><ele>531.0</ele><time>2026-04-19T13:07:31.988Z</time></trkpt><trkpt lat="44.2479281" lon="10.1716665"><ele>531.0</ele><time>2026-04-19T13:07:32.987Z</time></trkpt><trkpt lat="44.2479372" lon="10.1718427"><ele>531.0</ele><time>2026-04-19T13:07:33.987Z</time></trkpt><trkpt lat="44.2479493" lon="10.1720245"><ele>532.25</ele><time>2026-04-19T13:07:34.988Z</time></trkpt><trkpt lat="44.2479535" lon="10.1722056"><ele>533.5</ele><time>2026-04-19T13:07:35.988Z</time></trkpt><trkpt lat="44.247957" lon="10.1723758"><ele>534.75</ele><time>2026-04-19T13:07:36.987Z</time></trkpt><trkpt lat="44.2479639" lon="10.1725447"><ele>536.0</ele><time>2026-04-19T13:07:37.986Z</time></trkpt><trkpt lat="44.2479698" lon="10.1727097"><ele>537.5</ele><time>2026-04-19T13:07:38.987Z</time></trkpt><trkpt lat="44.2479766" lon="10.1728759"><ele>539.0</ele><time>2026-04-19T13:07:39.987Z</time></trkpt><trkpt lat="44.2479822" lon="10.1730425"><ele>540.5</ele><time>2026-04-19T13:07:40.986Z</time></trkpt><trkpt lat="44.247988" lon="10.1732081"><ele>542.0</ele><time>2026-04-19T13:07:41.987Z</time></trkpt><trkpt lat="44.2479935" lon="10.1733589"><ele>544.25</ele><time>2026-04-19T13:07:42.988Z</time></trkpt><trkpt lat="44.2479988" lon="10.1735158"><ele>546.5</ele><time>2026-04-19T13:07:43.988Z</time></trkpt><trkpt lat="44.2480037" lon="10.17368"><ele>548.75</ele><time>2026-04-19T13:07:44.988Z</time></trkpt><trkpt lat="44.2480092" lon="10.1738461"><ele>551.0</ele><time>2026-04-19T13:07:45.987Z</time></trkpt><trkpt lat="44.2480137" lon="10.1740147"><ele>553.0</ele><time>2026-04-19T13:07:46.988Z</time></trkpt><trkpt lat="44.2480166" lon="10.1741872"><ele>555.0</ele><time>2026-04-19T13:07:47.988Z</time></trkpt><trkpt lat="44.2480195" lon="10.1743574"><ele>557.0</ele><time>2026-04-19T13:07:48.987Z</time></trkpt><trkpt lat="44.2480216" lon="10.1745136"><ele>559.0</ele><time>2026-04-19T13:07:49.987Z</time></trkpt><trkpt lat="44.2480203" lon="10.1746784"><ele>559.0</ele><time>2026-04-19T13:07:50.986Z</time></trkpt><trkpt lat="44.2480122" lon="10.174851"><ele>559.0</ele><time>2026-04-19T13:07:51.988Z</time></trkpt><trkpt lat="44.247994" lon="10.1750479"><ele>559.0</ele><time>2026-04-19T13:07:52.988Z</time></trkpt><trkpt lat="44.2479756" lon="10.1752316"><ele>559.0</ele><time>2026-04-19T13:07:53.988Z</time></trkpt><trkpt lat="44.2479661" lon="10.1754111"><ele>559.25</ele><time>2026-04-19T13:07:54.986Z</time></trkpt><trkpt lat="44.2479741" lon="10.1755851"><ele>559.5</ele><time>2026-04-19T13:07:55.988Z</time></trkpt><trkpt lat="44.2480015" lon="10.175768"><ele>559.75</ele><time>2026-04-19T13:07:56.987Z</time></trkpt><trkpt lat="44.2480564" lon="10.1759531"><ele>560.0</ele><time>2026-04-19T13:07:57.987Z</time></trkpt><trkpt lat="44.248129" lon="10.1761334"><ele>554.0</ele><time>2026-04-19T13:07:58.987Z</time></trkpt><trkpt lat="44.2481961" lon="10.1763024"><ele>548.0</ele><time>2026-04-19T13:07:59.986Z</time></trkpt><trkpt lat="44.248253" lon="10.1764723"><ele>542.0</ele><time>2026-04-19T13:08:00.988Z</time></trkpt><trkpt lat="44.2482991" lon="10.1766601"><ele>536.0</ele><time>2026-04-19T13:08:01.986Z</time></trkpt><trkpt lat="44.2483289" lon="10.1768634"><ele>536.0</ele><time>2026-04-19T13:08:02.988Z</time></trkpt><trkpt lat="44.2483477" lon="10.1770743"><ele>536.0</ele><time>2026-04-19T13:08:03.986Z</time></trkpt><trkpt lat="44.2483634" lon="10.1772766"><ele>536.0</ele><time>2026-04-19T13:08:04.988Z</time></trkpt><trkpt lat="44.2483782" lon="10.1774658"><ele>536.0</ele><time>2026-04-19T13:08:05.987Z</time></trkpt><trkpt lat="44.2483903" lon="10.1776265"><ele>536.6</ele><time>2026-04-19T13:08:06.986Z</time></trkpt><trkpt lat="44.2484003" lon="10.1777623"><ele>537.2</ele><time>2026-04-19T13:08:07.987Z</time></trkpt><trkpt lat="44.2484123" lon="10.1778849"><ele>537.8</ele><time>2026-04-19T13:08:08.988Z</time></trkpt><trkpt lat="44.2484346" lon="10.1779958"><ele>538.4</ele><time>2026-04-19T13:08:09.988Z</time></trkpt><trkpt lat="44.2484857" lon="10.1781007"><ele>539.0</ele><time>2026-04-19T13:08:10.987Z</time></trkpt><trkpt lat="44.2485666" lon="10.1781879"><ele>540.75</ele><time>2026-04-19T13:08:11.988Z</time></trkpt><trkpt lat="44.248677" lon="10.1782789"><ele>542.5</ele><time>2026-04-19T13:08:12.987Z</time></trkpt><trkpt lat="44.2487891" lon="10.1783743"><ele>544.25</ele><time>2026-04-19T13:08:13.987Z</time></trkpt><trkpt lat="44.2488973" lon="10.1784625"><ele>546.0</ele><time>2026-04-19T13:08:14.987Z</time></trkpt><trkpt lat="44.2489941" lon="10.1785431"><ele>541.1666666666666</ele><time>2026-04-19T13:08:15.986Z</time></trkpt><trkpt lat="44.2490798" lon="10.1786125"><ele>536.3333333333334</ele><time>2026-04-19T13:08:16.988Z</time></trkpt><trkpt lat="44.249154" lon="10.1786682"><ele>531.5</ele><time>2026-04-19T13:08:17.988Z</time></trkpt><trkpt lat="44.2492105" lon="10.1787153"><ele>526.6666666666667</ele><time>2026-04-19T13:08:18.987Z</time></trkpt><trkpt lat="44.2492972" lon="10.1787814"><ele>521.8333333333334</ele><time>2026-04-19T13:08:20.988Z</time></trkpt><trkpt lat="44.2493697" lon="10.1788235"><ele>517.0</ele><time>2026-04-19T13:08:22.988Z</time></trkpt><trkpt lat="44.2494501" lon="10.1788444"><ele>517.0</ele><time>2026-04-19T13:08:24.987Z</time></trkpt><trkpt lat="44.2495296" lon="10.1788389"><ele>517.0</ele><time>2026-04-19T13:08:26.988Z</time></trkpt><trkpt lat="44.2496179" lon="10.1788138"><ele>517.0</ele><time>2026-04-19T13:08:28.987Z</time></trkpt><trkpt lat="44.2496878" lon="10.1787554"><ele>517.0</ele><time>2026-04-19T13:08:30.986Z</time></trkpt><trkpt lat="44.2497536" lon="10.1786869"><ele>517.0</ele><time>2026-04-19T13:08:32.988Z</time></trkpt><trkpt lat="44.2498154" lon="10.1785815"><ele>517.0</ele><time>2026-04-19T13:08:34.986Z</time></trkpt><trkpt lat="44.2498907" lon="10.1784399"><ele>518.3333333333334</ele><time>2026-04-19T13:08:36.987Z</time></trkpt><trkpt lat="44.249927" lon="10.1783618"><ele>519.6666666666667</ele><time>2026-04-19T13:08:37.987Z</time></trkpt><trkpt lat="44.2499574" lon="10.1782721"><ele>521.0</ele><time>2026-04-19T13:08:38.988Z</time></trkpt><trkpt lat="44.2499797" lon="10.1781711"><ele>522.3333333333334</ele><time>2026-04-19T13:08:39.987Z</time></trkpt><trkpt lat="44.2499892" lon="10.1780677"><ele>523.6666666666666</ele><time>2026-04-19T13:08:40.986Z</time></trkpt><trkpt lat="44.2499955" lon="10.1779414"><ele>525.0</ele><time>2026-04-19T13:08:41.988Z</time></trkpt><trkpt lat="44.2500119" lon="10.1778067"><ele>525.0</ele><time>2026-04-19T13:08:42.987Z</time></trkpt><trkpt lat="44.2500508" lon="10.1776764"><ele>525.0</ele><time>2026-04-19T13:08:43.988Z</time></trkpt><trkpt lat="44.2501043" lon="10.1775403"><ele>525.0</ele><time>2026-04-19T13:08:44.987Z</time></trkpt><trkpt lat="44.250167" lon="10.177398"><ele>525.0</ele><time>2026-04-19T13:08:45.986Z</time></trkpt><trkpt lat="44.2502238" lon="10.1772721"><ele>525.0</ele><time>2026-04-19T13:08:46.988Z</time></trkpt><trkpt lat="44.2502718" lon="10.1771453"><ele>524.4</ele><time>2026-04-19T13:08:47.988Z</time></trkpt><trkpt lat="44.2503033" lon="10.1770124"><ele>523.8</ele><time>2026-04-19T13:08:48.987Z</time></trkpt><trkpt lat="44.2503237" lon="10.1768738"><ele>523.2</ele><time>2026-04-19T13:08:49.986Z</time></trkpt><trkpt lat="44.2503481" lon="10.176723"><ele>522.6</ele><time>2026-04-19T13:08:50.988Z</time></trkpt><trkpt lat="44.250394" lon="10.1765731"><ele>522.0</ele><time>2026-04-19T13:08:51.987Z</time></trkpt><trkpt lat="44.2504546" lon="10.1764167"><ele>520.5</ele><time>2026-04-19T13:08:52.986Z</time></trkpt><trkpt lat="44.2505169" lon="10.1762392"><ele>519.0</ele><time>2026-04-19T13:08:53.987Z</time></trkpt><trkpt lat="44.2505711" lon="10.1760408"><ele>517.5</ele><time>2026-04-19T13:08:54.988Z</time></trkpt><trkpt lat="44.2506207" lon="10.1758693"><ele>516.0</ele><time>2026-04-19T13:08:55.988Z</time></trkpt><trkpt lat="44.2506774" lon="10.1757084"><ele>521.25</ele><time>2026-04-19T13:08:56.987Z</time></trkpt><trkpt lat="44.2507382" lon="10.1755744"><ele>526.5</ele><time>2026-04-19T13:08:57.988Z</time></trkpt><trkpt lat="44.2508109" lon="10.1754494"><ele>531.75</ele><time>2026-04-19T13:08:58.987Z</time></trkpt><trkpt lat="44.2508932" lon="10.1753278"><ele>537.0</ele><time>2026-04-19T13:08:59.988Z</time></trkpt><trkpt lat="44.2509776" lon="10.1752037"><ele>537.0</ele><time>2026-04-19T13:09:00.987Z</time></trkpt><trkpt lat="44.2510558" lon="10.175087"><ele>537.0</ele><time>2026-04-19T13:09:01.987Z</time></trkpt><trkpt lat="44.2511298" lon="10.174981"><ele>537.0</ele><time>2026-04-19T13:09:02.988Z</time></trkpt><trkpt lat="44.2512001" lon="10.174878"><ele>537.0</ele><time>2026-04-19T13:09:03.986Z</time></trkpt><trkpt lat="44.2512564" lon="10.1747806"><ele>537.0</ele><time>2026-04-19T13:09:04.988Z</time></trkpt><trkpt lat="44.2513009" lon="10.1746893"><ele>536.6</ele><time>2026-04-19T13:09:05.987Z</time></trkpt><trkpt lat="44.2513276" lon="10.1746039"><ele>536.2</ele><time>2026-04-19T13:09:06.988Z</time></trkpt><trkpt lat="44.2513582" lon="10.1744667"><ele>535.8</ele><time>2026-04-19T13:09:08.988Z</time></trkpt><trkpt lat="44.2514285" lon="10.1743897"><ele>535.4</ele><time>2026-04-19T13:09:10.988Z</time></trkpt><trkpt lat="44.251488" lon="10.1744621"><ele>535.0</ele><time>2026-04-19T13:09:12.988Z</time></trkpt><trkpt lat="44.2514348" lon="10.1746359"><ele>535.0</ele><time>2026-04-19T13:09:14.987Z</time></trkpt><trkpt lat="44.2513707" lon="10.1747621"><ele>535.0</ele><time>2026-04-19T13:09:15.987Z</time></trkpt><trkpt lat="44.2513085" lon="10.174887"><ele>535.0</ele><time>2026-04-19T13:09:16.988Z</time></trkpt><trkpt lat="44.2512461" lon="10.1750184"><ele>535.0</ele><time>2026-04-19T13:09:17.988Z</time></trkpt><trkpt lat="44.2511919" lon="10.1751402"><ele>535.0</ele><time>2026-04-19T13:09:18.987Z</time></trkpt><trkpt lat="44.2511357" lon="10.1752645"><ele>535.4</ele><time>2026-04-19T13:09:19.987Z</time></trkpt><trkpt lat="44.2510819" lon="10.1753911"><ele>535.8</ele><time>2026-04-19T13:09:20.988Z</time></trkpt><trkpt lat="44.2510366" lon="10.1755207"><ele>536.2</ele><time>2026-04-19T13:09:21.988Z</time></trkpt><trkpt lat="44.2510095" lon="10.1756533"><ele>536.6</ele><time>2026-04-19T13:09:22.988Z</time></trkpt><trkpt lat="44.2510073" lon="10.1757926"><ele>537.0</ele><time>2026-04-19T13:09:23.987Z</time></trkpt><trkpt lat="44.2510272" lon="10.1759371"><ele>539.0</ele><time>2026-04-19T13:09:24.987Z</time></trkpt><trkpt lat="44.2510591" lon="10.1760671"><ele>541.0</ele><time>2026-04-19T13:09:25.987Z</time></trkpt><trkpt lat="44.2510919" lon="10.1761951"><ele>543.0</ele><time>2026-04-19T13:09:26.988Z</time></trkpt><trkpt lat="44.2511228" lon="10.1763195"><ele>545.0</ele><time>2026-04-19T13:09:27.987Z</time></trkpt><trkpt lat="44.2511437" lon="10.1764431"><ele>547.0</ele><time>2026-04-19T13:09:28.988Z</time></trkpt><trkpt lat="44.2511543" lon="10.1765685"><ele>548.5</ele><time>2026-04-19T13:09:29.987Z</time></trkpt><trkpt lat="44.251155" lon="10.1766956"><ele>550.0</ele><time>2026-04-19T13:09:30.988Z</time></trkpt><trkpt lat="44.2511434" lon="10.1768128"><ele>551.5</ele><time>2026-04-19T13:09:31.987Z</time></trkpt><trkpt lat="44.2511225" lon="10.1769263"><ele>553.0</ele><time>2026-04-19T13:09:32.988Z</time></trkpt><trkpt lat="44.2510876" lon="10.1770215"><ele>554.5</ele><time>2026-04-19T13:09:33.988Z</time></trkpt><trkpt lat="44.2510451" lon="10.1770949"><ele>556.0</ele><time>2026-04-19T13:09:34.986Z</time></trkpt><trkpt lat="44.2509687" lon="10.1772225"><ele>556.0</ele><time>2026-04-19T13:09:36.987Z</time></trkpt><trkpt lat="44.2509626" lon="10.1773572"><ele>556.0</ele><time>2026-04-19T13:09:38.987Z</time></trkpt><trkpt lat="44.2510425" lon="10.1774139"><ele>556.0</ele><time>2026-04-19T13:09:40.986Z</time></trkpt><trkpt lat="44.2511483" lon="10.1773233"><ele>556.0</ele><time>2026-04-19T13:09:42.987Z</time></trkpt><trkpt lat="44.2511967" lon="10.1772425"><ele>556.0</ele><time>2026-04-19T13:09:43.988Z</time></trkpt><trkpt lat="44.2512349" lon="10.1771648"><ele>556.0</ele><time>2026-04-19T13:09:44.988Z</time></trkpt><trkpt lat="44.2512771" lon="10.1770653"><ele>556.0</ele><time>2026-04-19T13:09:45.987Z</time></trkpt><trkpt lat="44.2513189" lon="10.1769576"><ele>556.0</ele><time>2026-04-19T13:09:46.985Z</time></trkpt><trkpt lat="44.2513555" lon="10.1768497"><ele>556.0</ele><time>2026-04-19T13:09:47.987Z</time></trkpt><trkpt lat="44.2513902" lon="10.1767292"><ele>556.0</ele><time>2026-04-19T13:09:48.987Z</time></trkpt><trkpt lat="44.2514204" lon="10.1766075"><ele>556.0</ele><time>2026-04-19T13:09:49.987Z</time></trkpt><trkpt lat="44.2514447" lon="10.1764845"><ele>562.6</ele><time>2026-04-19T13:09:50.986Z</time></trkpt><trkpt lat="44.2514715" lon="10.1763552"><ele>569.2</ele><time>2026-04-19T13:09:51.985Z</time></trkpt><trkpt lat="44.2514969" lon="10.1762177"><ele>575.8</ele><time>2026-04-19T13:09:52.986Z</time></trkpt><trkpt lat="44.2515256" lon="10.1760637"><ele>582.4</ele><time>2026-04-19T13:09:53.987Z</time></trkpt><trkpt lat="44.2515558" lon="10.1759015"><ele>589.0</ele><time>2026-04-19T13:09:54.986Z</time></trkpt><trkpt lat="44.2515897" lon="10.175741"><ele>586.25</ele><time>2026-04-19T13:09:55.986Z</time></trkpt><trkpt lat="44.2516307" lon="10.1755814"><ele>583.5</ele><time>2026-04-19T13:09:56.986Z</time></trkpt><trkpt lat="44.2516831" lon="10.1754192"><ele>580.75</ele><time>2026-04-19T13:09:57.986Z</time></trkpt><trkpt lat="44.2517405" lon="10.1752658"><ele>578.0</ele><time>2026-04-19T13:09:58.986Z</time></trkpt><trkpt lat="44.2518022" lon="10.1751122"><ele>578.0</ele><time>2026-04-19T13:09:59.986Z</time></trkpt><trkpt lat="44.2518678" lon="10.1749651"><ele>578.0</ele><time>2026-04-19T13:10:00.985Z</time></trkpt><trkpt lat="44.2519426" lon="10.1748315"><ele>578.0</ele><time>2026-04-19T13:10:01.986Z</time></trkpt><trkpt lat="44.2520135" lon="10.1747093"><ele>578.0</ele><time>2026-04-19T13:10:02.987Z</time></trkpt><trkpt lat="44.2520728" lon="10.1745934"><ele>576.6</ele><time>2026-04-19T13:10:03.986Z</time></trkpt><trkpt lat="44.2521269" lon="10.1744844"><ele>575.1999999999999</ele><time>2026-04-19T13:10:04.987Z</time></trkpt><trkpt lat="44.2521861" lon="10.1743738"><ele>573.8</ele><time>2026-04-19T13:10:05.987Z</time></trkpt><trkpt lat="44.2522559" lon="10.1742679"><ele>572.4</ele><time>2026-04-19T13:10:06.986Z</time></trkpt><trkpt lat="44.2523381" lon="10.1741632"><ele>571.0</ele><time>2026-04-19T13:10:07.987Z</time></trkpt><trkpt lat="44.2524231" lon="10.1740653"><ele>570.0</ele><time>2026-04-19T13:10:08.987Z</time></trkpt><trkpt lat="44.2525029" lon="10.1739766"><ele>569.0</ele><time>2026-04-19T13:10:09.987Z</time></trkpt><trkpt lat="44.2525772" lon="10.173897"><ele>568.0</ele><time>2026-04-19T13:10:10.987Z</time></trkpt><trkpt lat="44.2526548" lon="10.1738345"><ele>567.0</ele><time>2026-04-19T13:10:11.986Z</time></trkpt><trkpt lat="44.2527429" lon="10.1737896"><ele>566.0</ele><time>2026-04-19T13:10:12.985Z</time></trkpt><trkpt lat="44.2528408" lon="10.1737617"><ele>566.0</ele><time>2026-04-19T13:10:13.986Z</time></trkpt><trkpt lat="44.252952" lon="10.1737566"><ele>566.0</ele><time>2026-04-19T13:10:14.985Z</time></trkpt><trkpt lat="44.253059" lon="10.1737734"><ele>566.0</ele><time>2026-04-19T13:10:15.987Z</time></trkpt><trkpt lat="44.2531563" lon="10.1737978"><ele>566.0</ele><time>2026-04-19T13:10:16.986Z</time></trkpt><trkpt lat="44.2532416" lon="10.1738303"><ele>566.0</ele><time>2026-04-19T13:10:17.986Z</time></trkpt><trkpt lat="44.253324" lon="10.1738785"><ele>566.3333333333333</ele><time>2026-04-19T13:10:18.987Z</time></trkpt><trkpt lat="44.2534003" lon="10.1739399"><ele>566.6666666666666</ele><time>2026-04-19T13:10:19.986Z</time></trkpt><trkpt lat="44.2534755" lon="10.1740068"><ele>567.0</ele><time>2026-04-19T13:10:20.985Z</time></trkpt><trkpt lat="44.2535459" lon="10.1740756"><ele>567.3333333333334</ele><time>2026-04-19T13:10:21.987Z</time></trkpt><trkpt lat="44.2536078" lon="10.1741423"><ele>567.6666666666667</ele><time>2026-04-19T13:10:22.987Z</time></trkpt><trkpt lat="44.2536713" lon="10.1742157"><ele>568.0</ele><time>2026-04-19T13:10:23.987Z</time></trkpt><trkpt lat="44.2537259" lon="10.1742937"><ele>571.6666666666667</ele><time>2026-04-19T13:10:24.986Z</time></trkpt><trkpt lat="44.2537717" lon="10.1743832"><ele>575.3333333333334</ele><time>2026-04-19T13:10:25.987Z</time></trkpt><trkpt lat="44.2538114" lon="10.1744852"><ele>579.0</ele><time>2026-04-19T13:10:26.986Z</time></trkpt><trkpt lat="44.2538547" lon="10.1745943"><ele>582.6666666666666</ele><time>2026-04-19T13:10:27.986Z</time></trkpt><trkpt lat="44.2539128" lon="10.1746941"><ele>586.3333333333333</ele><time>2026-04-19T13:10:28.987Z</time></trkpt><trkpt lat="44.2539739" lon="10.174788"><ele>590.0</ele><time>2026-04-19T13:10:29.987Z</time></trkpt><trkpt lat="44.2540364" lon="10.174881"><ele>593.3333333333333</ele><time>2026-04-19T13:10:30.987Z</time></trkpt><trkpt lat="44.2540936" lon="10.1749592"><ele>596.6666666666666</ele><time>2026-04-19T13:10:31.986Z</time></trkpt><trkpt lat="44.2541586" lon="10.1750138"><ele>600.0</ele><time>2026-04-19T13:10:32.986Z</time></trkpt><trkpt lat="44.2542407" lon="10.1750391"><ele>603.3333333333334</ele><time>2026-04-19T13:10:33.985Z</time></trkpt><trkpt lat="44.2543346" lon="10.1750397"><ele>606.6666666666667</ele><time>2026-04-19T13:10:34.986Z</time></trkpt><trkpt lat="44.2544478" lon="10.1750152"><ele>610.0</ele><time>2026-04-19T13:10:35.986Z</time></trkpt><trkpt lat="44.2545686" lon="10.1749801"><ele>610.0</ele><time>2026-04-19T13:10:36.987Z</time></trkpt><trkpt lat="44.2546785" lon="10.1749585"><ele>610.0</ele><time>2026-04-19T13:10:37.985Z</time></trkpt><trkpt lat="44.2547893" lon="10.1749472"><ele>610.0</ele><time>2026-04-19T13:10:38.986Z</time></trkpt><trkpt lat="44.2548997" lon="10.1749439"><ele>610.0</ele><time>2026-04-19T13:10:39.987Z</time></trkpt><trkpt lat="44.2550093" lon="10.1749444"><ele>610.0</ele><time>2026-04-19T13:10:40.986Z</time></trkpt><trkpt lat="44.2551222" lon="10.1749565"><ele>611.4</ele><time>2026-04-19T13:10:41.986Z</time></trkpt><trkpt lat="44.2552326" lon="10.1749883"><ele>612.8</ele><time>2026-04-19T13:10:42.986Z</time></trkpt><trkpt lat="44.255334" lon="10.1750301"><ele>614.2</ele><time>2026-04-19T13:10:43.987Z</time></trkpt><trkpt lat="44.2554297" lon="10.1750804"><ele>615.6</ele><time>2026-04-19T13:10:44.987Z</time></trkpt><trkpt lat="44.255521" lon="10.1751428"><ele>617.0</ele><time>2026-04-19T13:10:45.986Z</time></trkpt><trkpt lat="44.2556063" lon="10.1752184"><ele>617.6</ele><time>2026-04-19T13:10:46.987Z</time></trkpt><trkpt lat="44.2556844" lon="10.175305"><ele>618.2</ele><time>2026-04-19T13:10:47.986Z</time></trkpt><trkpt lat="44.2557685" lon="10.1753835"><ele>618.8</ele><time>2026-04-19T13:10:48.987Z</time></trkpt><trkpt lat="44.2558545" lon="10.175432"><ele>619.4</ele><time>2026-04-19T13:10:49.987Z</time></trkpt><trkpt lat="44.2559311" lon="10.1755021"><ele>620.0</ele><time>2026-04-19T13:10:50.987Z</time></trkpt><trkpt lat="44.2559923" lon="10.1755989"><ele>621.8571428571429</ele><time>2026-04-19T13:10:51.987Z</time></trkpt><trkpt lat="44.2560356" lon="10.1756995"><ele>623.7142857142857</ele><time>2026-04-19T13:10:52.986Z</time></trkpt><trkpt lat="44.2560693" lon="10.1757878"><ele>625.5714285714286</ele><time>2026-04-19T13:10:53.987Z</time></trkpt><trkpt lat="44.2561124" lon="10.1758594"><ele>627.4285714285714</ele><time>2026-04-19T13:10:54.986Z</time></trkpt><trkpt lat="44.2561691" lon="10.1759006"><ele>629.2857142857143</ele><time>2026-04-19T13:10:55.987Z</time></trkpt><trkpt lat="44.2562336" lon="10.1759109"><ele>631.1428571428571</ele><time>2026-04-19T13:10:56.987Z</time></trkpt><trkpt lat="44.2563005" lon="10.1758798"><ele>633.0</ele><time>2026-04-19T13:10:57.985Z</time></trkpt><trkpt lat="44.2563707" lon="10.1758159"><ele>633.0</ele><time>2026-04-19T13:10:58.986Z</time></trkpt><trkpt lat="44.2564301" lon="10.1757251"><ele>633.0</ele><time>2026-04-19T13:10:59.987Z</time></trkpt><trkpt lat="44.2564679" lon="10.175628"><ele>633.0</ele><time>2026-04-19T13:11:00.987Z</time></trkpt><trkpt lat="44.2564866" lon="10.1755182"><ele>633.0</ele><time>2026-04-19T13:11:01.986Z</time></trkpt><trkpt lat="44.2564781" lon="10.1753977"><ele>633.0</ele><time>2026-04-19T13:11:02.986Z</time></trkpt><trkpt lat="44.2564513" lon="10.175284"><ele>633.0</ele><time>2026-04-19T13:11:03.987Z</time></trkpt><trkpt lat="44.25641" lon="10.17518"><ele>630.8333333333334</ele><time>2026-04-19T13:11:04.986Z</time></trkpt><trkpt lat="44.256362" lon="10.175093"><ele>628.6666666666666</ele><time>2026-04-19T13:11:05.987Z</time></trkpt><trkpt lat="44.2563119" lon="10.1750062"><ele>626.5</ele><time>2026-04-19T13:11:06.986Z</time></trkpt><trkpt lat="44.2562681" lon="10.1749222"><ele>624.3333333333333</ele><time>2026-04-19T13:11:07.987Z</time></trkpt><trkpt lat="44.2562368" lon="10.1748228"><ele>622.1666666666666</ele><time>2026-04-19T13:11:08.987Z</time></trkpt><trkpt lat="44.2562131" lon="10.1747194"><ele>620.0</ele><time>2026-04-19T13:11:09.986Z</time></trkpt><trkpt lat="44.2561977" lon="10.174611"><ele>620.0</ele><time>2026-04-19T13:11:10.986Z</time></trkpt><trkpt lat="44.2561879" lon="10.1745001"><ele>620.0</ele><time>2026-04-19T13:11:11.987Z</time></trkpt><trkpt lat="44.2561827" lon="10.1743854"><ele>620.0</ele><time>2026-04-19T13:11:12.986Z</time></trkpt><trkpt lat="44.2561846" lon="10.1742716"><ele>620.0</ele><time>2026-04-19T13:11:13.987Z</time></trkpt><trkpt lat="44.2562015" lon="10.1741595"><ele>620.0</ele><time>2026-04-19T13:11:14.987Z</time></trkpt><trkpt lat="44.2562412" lon="10.174047"><ele>620.0</ele><time>2026-04-19T13:11:15.987Z</time></trkpt><trkpt lat="44.2563003" lon="10.17393"><ele>621.75</ele><time>2026-04-19T13:11:16.987Z</time></trkpt><trkpt lat="44.2563706" lon="10.1737992"><ele>623.5</ele><time>2026-04-19T13:11:17.987Z</time></trkpt><trkpt lat="44.256454" lon="10.1736305"><ele>625.25</ele><time>2026-04-19T13:11:18.987Z</time></trkpt><trkpt lat="44.2565406" lon="10.1734479"><ele>627.0</ele><time>2026-04-19T13:11:19.986Z</time></trkpt><trkpt lat="44.256636" lon="10.1732462"><ele>631.25</ele><time>2026-04-19T13:11:20.987Z</time></trkpt><trkpt lat="44.2567201" lon="10.1730717"><ele>635.5</ele><time>2026-04-19T13:11:21.985Z</time></trkpt><trkpt lat="44.2567952" lon="10.1729145"><ele>639.75</ele><time>2026-04-19T13:11:22.987Z</time></trkpt><trkpt lat="44.25686" lon="10.1727792"><ele>644.0</ele><time>2026-04-19T13:11:23.985Z</time></trkpt><trkpt lat="44.2569254" lon="10.1726518"><ele>644.0</ele><time>2026-04-19T13:11:24.987Z</time></trkpt><trkpt lat="44.2569935" lon="10.1725301"><ele>644.0</ele><time>2026-04-19T13:11:25.987Z</time></trkpt><trkpt lat="44.2570594" lon="10.1724241"><ele>644.0</ele><time>2026-04-19T13:11:26.987Z</time></trkpt><trkpt lat="44.2571263" lon="10.1723327"><ele>644.0</ele><time>2026-04-19T13:11:27.985Z</time></trkpt><trkpt lat="44.2572004" lon="10.1722491"><ele>644.0</ele><time>2026-04-19T13:11:28.987Z</time></trkpt><trkpt lat="44.2572833" lon="10.1721789"><ele>643.2</ele><time>2026-04-19T13:11:29.986Z</time></trkpt><trkpt lat="44.2573686" lon="10.1721281"><ele>642.4000000000001</ele><time>2026-04-19T13:11:30.987Z</time></trkpt><trkpt lat="44.2574592" lon="10.1720929"><ele>641.6</ele><time>2026-04-19T13:11:31.987Z</time></trkpt><trkpt lat="44.257553" lon="10.1720791"><ele>640.8</ele><time>2026-04-19T13:11:32.987Z</time></trkpt><trkpt lat="44.2576439" lon="10.1720894"><ele>640.0</ele><time>2026-04-19T13:11:33.987Z</time></trkpt><trkpt lat="44.2577291" lon="10.1721218"><ele>640.0</ele><time>2026-04-19T13:11:34.986Z</time></trkpt><trkpt lat="44.2578091" lon="10.1721758"><ele>640.0</ele><time>2026-04-19T13:11:35.987Z</time></trkpt><trkpt lat="44.2578812" lon="10.172245"><ele>640.0</ele><time>2026-04-19T13:11:36.987Z</time></trkpt><trkpt lat="44.2579542" lon="10.1722949"><ele>640.0</ele><time>2026-04-19T13:11:37.986Z</time></trkpt><trkpt lat="44.2580314" lon="10.1723302"><ele>640.0</ele><time>2026-04-19T13:11:38.986Z</time></trkpt><trkpt lat="44.258101" lon="10.1723515"><ele>640.0</ele><time>2026-04-19T13:11:39.987Z</time></trkpt><trkpt lat="44.2582103" lon="10.172355"><ele>642.5</ele><time>2026-04-19T13:11:41.986Z</time></trkpt><trkpt lat="44.2583036" lon="10.1723362"><ele>645.0</ele><time>2026-04-19T13:11:43.985Z</time></trkpt><trkpt lat="44.2583683" lon="10.1724242"><ele>647.5</ele><time>2026-04-19T13:11:45.986Z</time></trkpt><trkpt lat="44.2583232" lon="10.1725292"><ele>650.0</ele><time>2026-04-19T13:11:47.987Z</time></trkpt><trkpt lat="44.2582614" lon="10.1725492"><ele>652.5</ele><time>2026-04-19T13:11:48.987Z</time></trkpt><trkpt lat="44.2581851" lon="10.1725533"><ele>655.0</ele><time>2026-04-19T13:11:49.986Z</time></trkpt><trkpt lat="44.2580918" lon="10.1725528"><ele>655.4</ele><time>2026-04-19T13:11:50.987Z</time></trkpt><trkpt lat="44.258" lon="10.1725519"><ele>655.8</ele><time>2026-04-19T13:11:51.986Z</time></trkpt><trkpt lat="44.2578988" lon="10.1725517"><ele>656.2</ele><time>2026-04-19T13:11:52.986Z</time></trkpt><trkpt lat="44.2578012" lon="10.1725544"><ele>656.6</ele><time>2026-04-19T13:11:53.986Z</time></trkpt><trkpt lat="44.2577172" lon="10.1725612"><ele>657.0</ele><time>2026-04-19T13:11:54.986Z</time></trkpt><trkpt lat="44.2576372" lon="10.1725896"><ele>657.0</ele><time>2026-04-19T13:11:55.987Z</time></trkpt><trkpt lat="44.2575666" lon="10.1726515"><ele>657.0</ele><time>2026-04-19T13:11:56.986Z</time></trkpt><trkpt lat="44.2575175" lon="10.1727268"><ele>657.0</ele><time>2026-04-19T13:11:57.986Z</time></trkpt><trkpt lat="44.2574859" lon="10.1728052"><ele>657.0</ele><time>2026-04-19T13:11:58.986Z</time></trkpt><trkpt lat="44.2574704" lon="10.1728999"><ele>657.0</ele><time>2026-04-19T13:11:59.987Z</time></trkpt><trkpt lat="44.2574733" lon="10.1730015"><ele>657.0</ele><time>2026-04-19T13:12:00.986Z</time></trkpt><trkpt lat="44.2574897" lon="10.1731053"><ele>657.0</ele><time>2026-04-19T13:12:01.987Z</time></trkpt><trkpt lat="44.2575173" lon="10.1732065"><ele>658.8333333333334</ele><time>2026-04-19T13:12:02.987Z</time></trkpt><trkpt lat="44.2575513" lon="10.1733072"><ele>660.6666666666666</ele><time>2026-04-19T13:12:03.987Z</time></trkpt><trkpt lat="44.2575825" lon="10.1734105"><ele>662.5</ele><time>2026-04-19T13:12:04.987Z</time></trkpt><trkpt lat="44.2576105" lon="10.1735224"><ele>664.3333333333333</ele><time>2026-04-19T13:12:05.986Z</time></trkpt><trkpt lat="44.2576365" lon="10.1736433"><ele>666.1666666666666</ele><time>2026-04-19T13:12:06.985Z</time></trkpt><trkpt lat="44.2576574" lon="10.1737754"><ele>668.0</ele><time>2026-04-19T13:12:07.986Z</time></trkpt><trkpt lat="44.2576731" lon="10.1739141"><ele>669.0</ele><time>2026-04-19T13:12:08.986Z</time></trkpt><trkpt lat="44.2576811" lon="10.1740358"><ele>670.0</ele><time>2026-04-19T13:12:09.986Z</time></trkpt><trkpt lat="44.2576898" lon="10.1741638"><ele>671.0</ele><time>2026-04-19T13:12:10.986Z</time></trkpt><trkpt lat="44.2576955" lon="10.174287"><ele>672.0</ele><time>2026-04-19T13:12:11.987Z</time></trkpt><trkpt lat="44.2576882" lon="10.1743989"><ele>673.0</ele><time>2026-04-19T13:12:12.986Z</time></trkpt><trkpt lat="44.2576747" lon="10.1745018"><ele>674.0</ele><time>2026-04-19T13:12:13.986Z</time></trkpt><trkpt lat="44.2576489" lon="10.1746022"><ele>674.0000000000001</ele><time>2026-04-19T13:12:14.987Z</time></trkpt><trkpt lat="44.2576163" lon="10.174702"><ele>674.0</ele><time>2026-04-19T13:12:15.987Z</time></trkpt><trkpt lat="44.2575801" lon="10.1747981"><ele>674.0</ele><time>2026-04-19T13:12:16.987Z</time></trkpt><trkpt lat="44.2575464" lon="10.1748959"><ele>674.0</ele><time>2026-04-19T13:12:17.987Z</time></trkpt><trkpt lat="44.2575186" lon="10.1749985"><ele>674.0</ele><time>2026-04-19T13:12:18.986Z</time></trkpt><trkpt lat="44.2575053" lon="10.1750939"><ele>674.0000000000001</ele><time>2026-04-19T13:12:19.987Z</time></trkpt><trkpt lat="44.2575146" lon="10.1751858"><ele>674.0</ele><time>2026-04-19T13:12:20.986Z</time></trkpt><trkpt lat="44.2575424" lon="10.1752691"><ele>674.4000000000001</ele><time>2026-04-19T13:12:21.987Z</time></trkpt><trkpt lat="44.2575922" lon="10.1753455"><ele>674.8</ele><time>2026-04-19T13:12:22.987Z</time></trkpt><trkpt lat="44.2576591" lon="10.1754285"><ele>675.2</ele><time>2026-04-19T13:12:23.986Z</time></trkpt><trkpt lat="44.2577276" lon="10.1755217"><ele>675.5999999999999</ele><time>2026-04-19T13:12:24.986Z</time></trkpt><trkpt lat="44.257796" lon="10.1756294"><ele>676.0</ele><time>2026-04-19T13:12:25.986Z</time></trkpt><trkpt lat="44.2578592" lon="10.1757475"><ele>676.0</ele><time>2026-04-19T13:12:26.986Z</time></trkpt><trkpt lat="44.2579143" lon="10.1758726"><ele>676.0</ele><time>2026-04-19T13:12:27.987Z</time></trkpt><trkpt lat="44.2579698" lon="10.1759842"><ele>676.0</ele><time>2026-04-19T13:12:28.986Z</time></trkpt><trkpt lat="44.2580381" lon="10.1760869"><ele>676.0</ele><time>2026-04-19T13:12:29.987Z</time></trkpt><trkpt lat="44.2581177" lon="10.1761866"><ele>676.0</ele><time>2026-04-19T13:12:30.986Z</time></trkpt><trkpt lat="44.2582083" lon="10.1762879"><ele>678.0</ele><time>2026-04-19T13:12:31.987Z</time></trkpt><trkpt lat="44.2583126" lon="10.1763854"><ele>680.0</ele><time>2026-04-19T13:12:32.986Z</time></trkpt><trkpt lat="44.2584305" lon="10.176497"><ele>682.0</ele><time>2026-04-19T13:12:33.987Z</time></trkpt><trkpt lat="44.2585375" lon="10.176623"><ele>684.0</ele><time>2026-04-19T13:12:34.987Z</time></trkpt><trkpt lat="44.2586457" lon="10.1767658"><ele>684.0</ele><time>2026-04-19T13:12:35.986Z</time></trkpt><trkpt lat="44.2587342" lon="10.1768872"><ele>684.0</ele><time>2026-04-19T13:12:36.987Z</time></trkpt><trkpt lat="44.2588093" lon="10.177001"><ele>684.0</ele><time>2026-04-19T13:12:37.987Z</time></trkpt><trkpt lat="44.2588687" lon="10.1771104"><ele>684.0</ele><time>2026-04-19T13:12:38.987Z</time></trkpt><trkpt lat="44.2589112" lon="10.1772245"><ele>684.0</ele><time>2026-04-19T13:12:39.986Z</time></trkpt><trkpt lat="44.2589442" lon="10.1773433"><ele>690.0</ele><time>2026-04-19T13:12:40.986Z</time></trkpt><trkpt lat="44.2589888" lon="10.1774594"><ele>696.0</ele><time>2026-04-19T13:12:41.985Z</time></trkpt><trkpt lat="44.2590447" lon="10.1775635"><ele>702.0</ele><time>2026-04-19T13:12:42.986Z</time></trkpt><trkpt lat="44.259114" lon="10.1776619"><ele>708.0</ele><time>2026-04-19T13:12:43.987Z</time></trkpt><trkpt lat="44.2591922" lon="10.1777491"><ele>714.0</ele><time>2026-04-19T13:12:44.986Z</time></trkpt><trkpt lat="44.25927" lon="10.1778272"><ele>714.0</ele><time>2026-04-19T13:12:45.985Z</time></trkpt><trkpt lat="44.2593491" lon="10.1779034"><ele>714.0</ele><time>2026-04-19T13:12:46.986Z</time></trkpt><trkpt lat="44.2594246" lon="10.1779801"><ele>714.0</ele><time>2026-04-19T13:12:47.985Z</time></trkpt><trkpt lat="44.2594923" lon="10.1780532"><ele>714.0</ele><time>2026-04-19T13:12:48.985Z</time></trkpt><trkpt lat="44.2595597" lon="10.1781272"><ele>714.0</ele><time>2026-04-19T13:12:49.987Z</time></trkpt><trkpt lat="44.2596164" lon="10.1782134"><ele>714.0</ele><time>2026-04-19T13:12:50.986Z</time></trkpt><trkpt lat="44.2596636" lon="10.1783171"><ele>710.0</ele><time>2026-04-19T13:12:51.987Z</time></trkpt><trkpt lat="44.2596913" lon="10.1784191"><ele>706.0</ele><time>2026-04-19T13:12:52.987Z</time></trkpt><trkpt lat="44.2597007" lon="10.1785078"><ele>702.0</ele><time>2026-04-19T13:12:53.986Z</time></trkpt><trkpt lat="44.2596637" lon="10.1786664"><ele>698.0</ele><time>2026-04-19T13:12:55.986Z</time></trkpt><trkpt lat="44.2595857" lon="10.1787864"><ele>694.0</ele><time>2026-04-19T13:12:57.986Z</time></trkpt><trkpt lat="44.2595669" lon="10.1789094"><ele>694.0</ele><time>2026-04-19T13:12:59.987Z</time></trkpt><trkpt lat="44.2596334" lon="10.1789822"><ele>694.0</ele><time>2026-04-19T13:13:01.986Z</time></trkpt><trkpt lat="44.2597261" lon="10.1789115"><ele>694.0</ele><time>2026-04-19T13:13:03.986Z</time></trkpt><trkpt lat="44.259772" lon="10.1788225"><ele>694.0</ele><time>2026-04-19T13:13:04.987Z</time></trkpt><trkpt lat="44.2598068" lon="10.1787061"><ele>694.0</ele><time>2026-04-19T13:13:05.986Z</time></trkpt><trkpt lat="44.2598214" lon="10.178592"><ele>694.0</ele><time>2026-04-19T13:13:06.987Z</time></trkpt><trkpt lat="44.259818" lon="10.1784686"><ele>694.0</ele><time>2026-04-19T13:13:07.986Z</time></trkpt><trkpt lat="44.2598049" lon="10.1783568"><ele>694.0</ele><time>2026-04-19T13:13:08.986Z</time></trkpt><trkpt lat="44.2597821" lon="10.1782402"><ele>694.0</ele><time>2026-04-19T13:13:09.986Z</time></trkpt><trkpt lat="44.2597433" lon="10.1781242"><ele>694.0</ele><time>2026-04-19T13:13:10.987Z</time></trkpt><trkpt lat="44.2596932" lon="10.1780169"><ele>694.0</ele><time>2026-04-19T13:13:11.987Z</time></trkpt><trkpt lat="44.2596374" lon="10.1779201"><ele>694.0</ele><time>2026-04-19T13:13:12.986Z</time></trkpt><trkpt lat="44.2595782" lon="10.1778197"><ele>698.0</ele><time>2026-04-19T13:13:13.987Z</time></trkpt><trkpt lat="44.2595143" lon="10.1777196"><ele>702.0</ele><time>2026-04-19T13:13:14.987Z</time></trkpt><trkpt lat="44.2594534" lon="10.1776286"><ele>706.0</ele><time>2026-04-19T13:13:15.986Z</time></trkpt><trkpt lat="44.2593933" lon="10.1775315"><ele>710.0</ele><time>2026-04-19T13:13:16.986Z</time></trkpt><trkpt lat="44.2593454" lon="10.1774215"><ele>714.0</ele><time>2026-04-19T13:13:17.986Z</time></trkpt><trkpt lat="44.2593184" lon="10.1773029"><ele>717.6</ele><time>2026-04-19T13:13:18.985Z</time></trkpt><trkpt lat="44.2593053" lon="10.1771782"><ele>721.2</ele><time>2026-04-19T13:13:19.986Z</time></trkpt><trkpt lat="44.2592982" lon="10.1770602"><ele>724.8000000000001</ele><time>2026-04-19T13:13:20.987Z</time></trkpt><trkpt lat="44.2592759" lon="10.1769401"><ele>728.4000000000001</ele><time>2026-04-19T13:13:21.986Z</time></trkpt><trkpt lat="44.2592253" lon="10.1768189"><ele>732.0</ele><time>2026-04-19T13:13:22.986Z</time></trkpt><trkpt lat="44.2591432" lon="10.1766754"><ele>727.0</ele><time>2026-04-19T13:13:23.987Z</time></trkpt><trkpt lat="44.2590533" lon="10.1765193"><ele>722.0</ele><time>2026-04-19T13:13:24.986Z</time></trkpt><trkpt lat="44.2589488" lon="10.1763356"><ele>717.0</ele><time>2026-04-19T13:13:25.986Z</time></trkpt><trkpt lat="44.2588431" lon="10.1761486"><ele>717.0</ele><time>2026-04-19T13:13:26.987Z</time></trkpt><trkpt lat="44.2587528" lon="10.1759937"><ele>717.0</ele><time>2026-04-19T13:13:27.987Z</time></trkpt><trkpt lat="44.258676" lon="10.1758595"><ele>717.0</ele><time>2026-04-19T13:13:28.986Z</time></trkpt><trkpt lat="44.2586163" lon="10.1757438"><ele>717.0</ele><time>2026-04-19T13:13:29.987Z</time></trkpt><trkpt lat="44.2585715" lon="10.1756208"><ele>718.25</ele><time>2026-04-19T13:13:30.986Z</time></trkpt><trkpt lat="44.2585475" lon="10.1754838"><ele>719.5</ele><time>2026-04-19T13:13:31.985Z</time></trkpt><trkpt lat="44.2585379" lon="10.1753253"><ele>720.75</ele><time>2026-04-19T13:13:32.987Z</time></trkpt><trkpt lat="44.2585363" lon="10.1751441"><ele>722.0</ele><time>2026-04-19T13:13:33.987Z</time></trkpt><trkpt lat="44.2585351" lon="10.1749657"><ele>720.2</ele><time>2026-04-19T13:13:34.987Z</time></trkpt><trkpt lat="44.2585432" lon="10.1748179"><ele>718.4000000000001</ele><time>2026-04-19T13:13:35.986Z</time></trkpt><trkpt lat="44.2585597" lon="10.1746894"><ele>716.5999999999999</ele><time>2026-04-19T13:13:36.987Z</time></trkpt><trkpt lat="44.2585891" lon="10.1745838"><ele>714.8</ele><time>2026-04-19T13:13:37.987Z</time></trkpt><trkpt lat="44.2586431" lon="10.1744878"><ele>713.0</ele><time>2026-04-19T13:13:38.987Z</time></trkpt><trkpt lat="44.2587122" lon="10.1744253"><ele>713.0</ele><time>2026-04-19T13:13:39.986Z</time></trkpt><trkpt lat="44.2587997" lon="10.1743975"><ele>713.0</ele><time>2026-04-19T13:13:40.986Z</time></trkpt><trkpt lat="44.2588994" lon="10.1744034"><ele>713.0</ele><time>2026-04-19T13:13:41.986Z</time></trkpt><trkpt lat="44.259011" lon="10.1744465"><ele>713.0</ele><time>2026-04-19T13:13:42.986Z</time></trkpt><trkpt lat="44.2591394" lon="10.1745169"><ele>713.0</ele><time>2026-04-19T13:13:43.985Z</time></trkpt><trkpt lat="44.2592707" lon="10.1745875"><ele>718.3333333333333</ele><time>2026-04-19T13:13:44.987Z</time></trkpt><trkpt lat="44.2594233" lon="10.1746631"><ele>723.6666666666666</ele><time>2026-04-19T13:13:45.986Z</time></trkpt><trkpt lat="44.259592" lon="10.1747285"><ele>729.0</ele><time>2026-04-19T13:13:46.986Z</time></trkpt><trkpt lat="44.2597559" lon="10.174773"><ele>727.6666666666666</ele><time>2026-04-19T13:13:47.986Z</time></trkpt><trkpt lat="44.2599298" lon="10.1748095"><ele>726.3333333333333</ele><time>2026-04-19T13:13:48.986Z</time></trkpt><trkpt lat="44.2601195" lon="10.1748348"><ele>725.0</ele><time>2026-04-19T13:13:49.987Z</time></trkpt><trkpt lat="44.2603211" lon="10.1748561"><ele>739.3333333333333</ele><time>2026-04-19T13:13:50.987Z</time></trkpt><trkpt lat="44.2605002" lon="10.1748813"><ele>753.6666666666666</ele><time>2026-04-19T13:13:51.986Z</time></trkpt><trkpt lat="44.2606638" lon="10.1749116"><ele>768.0</ele><time>2026-04-19T13:13:52.987Z</time></trkpt><trkpt lat="44.2608099" lon="10.1749384"><ele>768.25</ele><time>2026-04-19T13:13:53.987Z</time></trkpt><trkpt lat="44.2609444" lon="10.1749674"><ele>768.5</ele><time>2026-04-19T13:13:54.986Z</time></trkpt><trkpt lat="44.261059" lon="10.174991"><ele>768.75</ele><time>2026-04-19T13:13:55.987Z</time></trkpt><trkpt lat="44.2611632" lon="10.1750152"><ele>769.0</ele><time>2026-04-19T13:13:56.987Z</time></trkpt><trkpt lat="44.2612604" lon="10.1750215"><ele>769.0</ele><time>2026-04-19T13:13:57.986Z</time></trkpt><trkpt lat="44.2613525" lon="10.1749875"><ele>769.0</ele><time>2026-04-19T13:13:58.987Z</time></trkpt><trkpt lat="44.2614453" lon="10.1749273"><ele>769.0</ele><time>2026-04-19T13:13:59.985Z</time></trkpt><trkpt lat="44.2615535" lon="10.1748462"><ele>769.0</ele><time>2026-04-19T13:14:00.987Z</time></trkpt><trkpt lat="44.2616856" lon="10.1747838"><ele>766.5</ele><time>2026-04-19T13:14:01.986Z</time></trkpt><trkpt lat="44.2618284" lon="10.1747233"><ele>764.0</ele><time>2026-04-19T13:14:02.986Z</time></trkpt><trkpt lat="44.2619424" lon="10.1746628"><ele>761.5</ele><time>2026-04-19T13:14:03.987Z</time></trkpt><trkpt lat="44.2620409" lon="10.1745847"><ele>759.0</ele><time>2026-04-19T13:14:04.987Z</time></trkpt><trkpt lat="44.2621163" lon="10.1744902"><ele>759.0</ele><time>2026-04-19T13:14:05.986Z</time></trkpt><trkpt lat="44.2621716" lon="10.1743674"><ele>759.0</ele><time>2026-04-19T13:14:06.987Z</time></trkpt><trkpt lat="44.2621951" lon="10.1742263"><ele>759.0</ele><time>2026-04-19T13:14:07.986Z</time></trkpt><trkpt lat="44.26219" lon="10.1740755"><ele>759.0</ele><time>2026-04-19T13:14:08.987Z</time></trkpt><trkpt lat="44.2621497" lon="10.1739259"><ele>759.0</ele><time>2026-04-19T13:14:09.986Z</time></trkpt><trkpt lat="44.2620817" lon="10.1737685"><ele>765.3333333333333</ele><time>2026-04-19T13:14:10.987Z</time></trkpt><trkpt lat="44.2619901" lon="10.1735901"><ele>771.6666666666666</ele><time>2026-04-19T13:14:11.986Z</time></trkpt><trkpt lat="44.261881" lon="10.1733887"><ele>778.0</ele><time>2026-04-19T13:14:12.985Z</time></trkpt><trkpt lat="44.2617678" lon="10.1731925"><ele>772.6666666666666</ele><time>2026-04-19T13:14:13.987Z</time></trkpt><trkpt lat="44.2616391" lon="10.1729794"><ele>767.3333333333333</ele><time>2026-04-19T13:14:14.987Z</time></trkpt><trkpt lat="44.2615355" lon="10.1727774"><ele>762.0</ele><time>2026-04-19T13:14:15.986Z</time></trkpt><trkpt lat="44.2614474" lon="10.1725626"><ele>762.0</ele><time>2026-04-19T13:14:16.985Z</time></trkpt><trkpt lat="44.2613721" lon="10.1723632"><ele>762.0</ele><time>2026-04-19T13:14:17.987Z</time></trkpt><trkpt lat="44.2612951" lon="10.1721911"><ele>762.0</ele><time>2026-04-19T13:14:18.985Z</time></trkpt><trkpt lat="44.2612109" lon="10.1720649"><ele>762.0</ele><time>2026-04-19T13:14:19.986Z</time></trkpt><trkpt lat="44.2611153" lon="10.1719708"><ele>769.75</ele><time>2026-04-19T13:14:20.987Z</time></trkpt><trkpt lat="44.2610146" lon="10.1718908"><ele>777.5</ele><time>2026-04-19T13:14:21.986Z</time></trkpt><trkpt lat="44.2609141" lon="10.1717983"><ele>785.25</ele><time>2026-04-19T13:14:22.987Z</time></trkpt><trkpt lat="44.2608354" lon="10.1716793"><ele>793.0</ele><time>2026-04-19T13:14:23.986Z</time></trkpt><trkpt lat="44.260772" lon="10.1715381"><ele>786.5</ele><time>2026-04-19T13:14:24.987Z</time></trkpt><trkpt lat="44.2607124" lon="10.1713762"><ele>780.0</ele><time>2026-04-19T13:14:25.986Z</time></trkpt><trkpt lat="44.2606405" lon="10.1711983"><ele>773.5</ele><time>2026-04-19T13:14:26.987Z</time></trkpt><trkpt lat="44.2605525" lon="10.1710025"><ele>767.0</ele><time>2026-04-19T13:14:27.986Z</time></trkpt><trkpt lat="44.2604697" lon="10.170825"><ele>768.5</ele><time>2026-04-19T13:14:28.985Z</time></trkpt><trkpt lat="44.2604054" lon="10.1706692"><ele>770.0</ele><time>2026-04-19T13:14:29.987Z</time></trkpt><trkpt lat="44.2603716" lon="10.1705155"><ele>771.5</ele><time>2026-04-19T13:14:30.987Z</time></trkpt><trkpt lat="44.2603686" lon="10.1703694"><ele>773.0</ele><time>2026-04-19T13:14:31.986Z</time></trkpt><trkpt lat="44.2603941" lon="10.1702298"><ele>773.0</ele><time>2026-04-19T13:14:32.986Z</time></trkpt><trkpt lat="44.2604455" lon="10.1701087"><ele>773.0</ele><time>2026-04-19T13:14:33.987Z</time></trkpt><trkpt lat="44.2605189" lon="10.1700003"><ele>773.0</ele><time>2026-04-19T13:14:34.986Z</time></trkpt><trkpt lat="44.2605984" lon="10.1698944"><ele>773.0</ele><time>2026-04-19T13:14:35.987Z</time></trkpt><trkpt lat="44.2606617" lon="10.16978"><ele>773.0</ele><time>2026-04-19T13:14:36.987Z</time></trkpt><trkpt lat="44.2606998" lon="10.1696459"><ele>776.5</ele><time>2026-04-19T13:14:37.987Z</time></trkpt><trkpt lat="44.2607018" lon="10.1694904"><ele>780.0</ele><time>2026-04-19T13:14:38.987Z</time></trkpt><trkpt lat="44.2606798" lon="10.1693207"><ele>783.5</ele><time>2026-04-19T13:14:39.987Z</time></trkpt><trkpt lat="44.2606274" lon="10.1691453"><ele>787.0</ele><time>2026-04-19T13:14:40.987Z</time></trkpt><trkpt lat="44.2605531" lon="10.1689643"><ele>787.0</ele><time>2026-04-19T13:14:41.987Z</time></trkpt><trkpt lat="44.2604964" lon="10.1687859"><ele>787.0</ele><time>2026-04-19T13:14:42.986Z</time></trkpt><trkpt lat="44.2604643" lon="10.1685964"><ele>787.0</ele><time>2026-04-19T13:14:43.987Z</time></trkpt><trkpt lat="44.260448" lon="10.1684122"><ele>787.0</ele><time>2026-04-19T13:14:44.986Z</time></trkpt><trkpt lat="44.2604585" lon="10.1682329"><ele>786.0</ele><time>2026-04-19T13:14:45.987Z</time></trkpt><trkpt lat="44.2604954" lon="10.1680498"><ele>785.0</ele><time>2026-04-19T13:14:46.986Z</time></trkpt><trkpt lat="44.2605514" lon="10.1678425"><ele>784.0</ele><time>2026-04-19T13:14:47.986Z</time></trkpt><trkpt lat="44.2606071" lon="10.1676282"><ele>797.0</ele><time>2026-04-19T13:14:48.986Z</time></trkpt><trkpt lat="44.2606466" lon="10.1674441"><ele>810.0</ele><time>2026-04-19T13:14:49.987Z</time></trkpt><trkpt lat="44.2606706" lon="10.1672724"><ele>823.0</ele><time>2026-04-19T13:14:50.987Z</time></trkpt><trkpt lat="44.260669" lon="10.1671014"><ele>836.0</ele><time>2026-04-19T13:14:51.986Z</time></trkpt><trkpt lat="44.2606433" lon="10.1669256"><ele>832.5</ele><time>2026-04-19T13:14:52.987Z</time></trkpt><trkpt lat="44.2605949" lon="10.1667482"><ele>829.0</ele><time>2026-04-19T13:14:53.986Z</time></trkpt><trkpt lat="44.2605222" lon="10.1665702"><ele>825.5</ele><time>2026-04-19T13:14:54.985Z</time></trkpt><trkpt lat="44.2604408" lon="10.1664111"><ele>822.0</ele><time>2026-04-19T13:14:55.986Z</time></trkpt><trkpt lat="44.2603585" lon="10.1662862"><ele>822.0</ele><time>2026-04-19T13:14:56.986Z</time></trkpt><trkpt lat="44.2602928" lon="10.1661734"><ele>822.0</ele><time>2026-04-19T13:14:57.987Z</time></trkpt><trkpt lat="44.2602384" lon="10.1660694"><ele>822.0</ele><time>2026-04-19T13:14:58.987Z</time></trkpt><trkpt lat="44.2601953" lon="10.165965"><ele>822.0</ele><time>2026-04-19T13:14:59.985Z</time></trkpt><trkpt lat="44.2601643" lon="10.1658739"><ele>822.0</ele><time>2026-04-19T13:15:00.987Z</time></trkpt><trkpt lat="44.2601844" lon="10.1657326"><ele>822.0</ele><time>2026-04-19T13:15:02.987Z</time></trkpt><trkpt lat="44.2602904" lon="10.1656778"><ele>822.0</ele><time>2026-04-19T13:15:04.987Z</time></trkpt><trkpt lat="44.2603588" lon="10.1657068"><ele>822.0</ele><time>2026-04-19T13:15:05.986Z</time></trkpt><trkpt lat="44.2604259" lon="10.1657709"><ele>822.0</ele><time>2026-04-19T13:15:06.987Z</time></trkpt><trkpt lat="44.2604848" lon="10.1658641"><ele>822.0</ele><time>2026-04-19T13:15:07.985Z</time></trkpt><trkpt lat="44.2605482" lon="10.1659986"><ele>823.75</ele><time>2026-04-19T13:15:08.986Z</time></trkpt><trkpt lat="44.2606181" lon="10.1661404"><ele>825.5</ele><time>2026-04-19T13:15:09.986Z</time></trkpt><trkpt lat="44.2607038" lon="10.1662642"><ele>827.25</ele><time>2026-04-19T13:15:10.986Z</time></trkpt><trkpt lat="44.2608151" lon="10.1663825"><ele>829.0</ele><time>2026-04-19T13:15:11.987Z</time></trkpt><trkpt lat="44.2609511" lon="10.1664727"><ele>831.3333333333333</ele><time>2026-04-19T13:15:12.987Z</time></trkpt><trkpt lat="44.2611029" lon="10.1665608"><ele>833.6666666666667</ele><time>2026-04-19T13:15:13.986Z</time></trkpt><trkpt lat="44.2612595" lon="10.1666765"><ele>836.0</ele><time>2026-04-19T13:15:14.987Z</time></trkpt><trkpt lat="44.2614084" lon="10.1668025"><ele>837.3333333333334</ele><time>2026-04-19T13:15:15.986Z</time></trkpt><trkpt lat="44.2615737" lon="10.1669405"><ele>838.6666666666667</ele><time>2026-04-19T13:15:16.987Z</time></trkpt><trkpt lat="44.2617554" lon="10.1670878"><ele>840.0</ele><time>2026-04-19T13:15:17.987Z</time></trkpt><trkpt lat="44.2619193" lon="10.1672133"><ele>840.0</ele><time>2026-04-19T13:15:18.987Z</time></trkpt><trkpt lat="44.2620824" lon="10.1673451"><ele>840.0</ele><time>2026-04-19T13:15:19.986Z</time></trkpt><trkpt lat="44.2622276" lon="10.1674748"><ele>840.0</ele><time>2026-04-19T13:15:20.987Z</time></trkpt><trkpt lat="44.2623555" lon="10.1676013"><ele>844.25</ele><time>2026-04-19T13:15:21.986Z</time></trkpt><trkpt lat="44.2624806" lon="10.1677083"><ele>848.5</ele><time>2026-04-19T13:15:22.986Z</time></trkpt><trkpt lat="44.2626158" lon="10.1677769"><ele>852.75</ele><time>2026-04-19T13:15:23.986Z</time></trkpt><trkpt lat="44.2627494" lon="10.1678396"><ele>857.0</ele><time>2026-04-19T13:15:24.986Z</time></trkpt><trkpt lat="44.2629101" lon="10.1678419"><ele>857.0</ele><time>2026-04-19T13:15:25.987Z</time></trkpt><trkpt lat="44.2630728" lon="10.16781"><ele>857.0</ele><time>2026-04-19T13:15:26.987Z</time></trkpt><trkpt lat="44.2632251" lon="10.1677644"><ele>857.0</ele><time>2026-04-19T13:15:27.986Z</time></trkpt><trkpt lat="44.2633551" lon="10.1677221"><ele>857.4000000000001</ele><time>2026-04-19T13:15:28.987Z</time></trkpt><trkpt lat="44.2634661" lon="10.1676984"><ele>857.8000000000001</ele><time>2026-04-19T13:15:29.986Z</time></trkpt><trkpt lat="44.2635638" lon="10.1677013"><ele>858.2</ele><time>2026-04-19T13:15:30.987Z</time></trkpt><trkpt lat="44.2636647" lon="10.1677421"><ele>858.6</ele><time>2026-04-19T13:15:31.986Z</time></trkpt><trkpt lat="44.2637592" lon="10.1678319"><ele>859.0</ele><time>2026-04-19T13:15:32.986Z</time></trkpt><trkpt lat="44.263844" lon="10.1679614"><ele>859.0</ele><time>2026-04-19T13:15:33.987Z</time></trkpt><trkpt lat="44.2639253" lon="10.1681088"><ele>859.0</ele><time>2026-04-19T13:15:34.986Z</time></trkpt><trkpt lat="44.2639868" lon="10.1682575"><ele>859.0</ele><time>2026-04-19T13:15:35.987Z</time></trkpt><trkpt lat="44.2640285" lon="10.1684363"><ele>859.0</ele><time>2026-04-19T13:15:36.986Z</time></trkpt><trkpt lat="44.2640489" lon="10.168648"><ele>861.3333333333333</ele><time>2026-04-19T13:15:37.985Z</time></trkpt><trkpt lat="44.2640591" lon="10.1688924"><ele>863.6666666666667</ele><time>2026-04-19T13:15:38.987Z</time></trkpt><trkpt lat="44.2640618" lon="10.1691394"><ele>866.0</ele><time>2026-04-19T13:15:39.986Z</time></trkpt><trkpt lat="44.2640606" lon="10.1694139"><ele>869.0</ele><time>2026-04-19T13:15:40.987Z</time></trkpt><trkpt lat="44.2640593" lon="10.169709"><ele>872.0</ele><time>2026-04-19T13:15:41.985Z</time></trkpt><trkpt lat="44.2640605" lon="10.1699757"><ele>875.0</ele><time>2026-04-19T13:15:42.986Z</time></trkpt><trkpt lat="44.2640625" lon="10.1702236"><ele>877.0</ele><time>2026-04-19T13:15:43.987Z</time></trkpt><trkpt lat="44.2640716" lon="10.1704481"><ele>879.0</ele><time>2026-04-19T13:15:44.986Z</time></trkpt><trkpt lat="44.2640956" lon="10.1706538"><ele>881.0</ele><time>2026-04-19T13:15:45.987Z</time></trkpt><trkpt lat="44.264151" lon="10.170846"><ele>884.3333333333334</ele><time>2026-04-19T13:15:46.987Z</time></trkpt><trkpt lat="44.2642293" lon="10.171041"><ele>887.6666666666667</ele><time>2026-04-19T13:15:47.986Z</time></trkpt><trkpt lat="44.2643235" lon="10.1712472"><ele>891.0</ele><time>2026-04-19T13:15:48.986Z</time></trkpt><trkpt lat="44.2644279" lon="10.1714707"><ele>897.6666666666667</ele><time>2026-04-19T13:15:49.986Z</time></trkpt><trkpt lat="44.2645368" lon="10.1717043"><ele>904.3333333333334</ele><time>2026-04-19T13:15:50.986Z</time></trkpt><trkpt lat="44.2646361" lon="10.1719067"><ele>911.0</ele><time>2026-04-19T13:15:51.987Z</time></trkpt><trkpt lat="44.2647321" lon="10.1720909"><ele>908.5</ele><time>2026-04-19T13:15:52.987Z</time></trkpt><trkpt lat="44.2648299" lon="10.1722471"><ele>906.0</ele><time>2026-04-19T13:15:53.986Z</time></trkpt><trkpt lat="44.264927" lon="10.1723764"><ele>903.5</ele><time>2026-04-19T13:15:54.986Z</time></trkpt><trkpt lat="44.2650157" lon="10.1724885"><ele>901.0</ele><time>2026-04-19T13:15:55.986Z</time></trkpt><trkpt lat="44.26509" lon="10.1725843"><ele>901.0</ele><time>2026-04-19T13:15:56.987Z</time></trkpt><trkpt lat="44.2651389" lon="10.172686"><ele>900.9999999999999</ele><time>2026-04-19T13:15:57.987Z</time></trkpt><trkpt lat="44.2651554" lon="10.172803"><ele>900.9999999999999</ele><time>2026-04-19T13:15:58.986Z</time></trkpt><trkpt lat="44.2651468" lon="10.1729404"><ele>901.0</ele><time>2026-04-19T13:15:59.987Z</time></trkpt><trkpt lat="44.2651246" lon="10.1731039"><ele>901.0</ele><time>2026-04-19T13:16:00.986Z</time></trkpt><trkpt lat="44.2651123" lon="10.17329"><ele>906.0</ele><time>2026-04-19T13:16:01.987Z</time></trkpt><trkpt lat="44.2651083" lon="10.1735029"><ele>911.0</ele><time>2026-04-19T13:16:02.986Z</time></trkpt><trkpt lat="44.2651142" lon="10.1737303"><ele>916.0</ele><time>2026-04-19T13:16:03.986Z</time></trkpt><trkpt lat="44.2651359" lon="10.1739559"><ele>918.6666666666666</ele><time>2026-04-19T13:16:04.986Z</time></trkpt><trkpt lat="44.2651772" lon="10.1741908"><ele>921.3333333333333</ele><time>2026-04-19T13:16:05.986Z</time></trkpt><trkpt lat="44.2652187" lon="10.1744145"><ele>924.0</ele><time>2026-04-19T13:16:06.987Z</time></trkpt><trkpt lat="44.2652472" lon="10.1746174"><ele>924.0</ele><time>2026-04-19T13:16:07.986Z</time></trkpt><trkpt lat="44.2652678" lon="10.1748262"><ele>924.0</ele><time>2026-04-19T13:16:08.987Z</time></trkpt><trkpt lat="44.2652732" lon="10.1750468"><ele>924.0</ele><time>2026-04-19T13:16:09.986Z</time></trkpt><trkpt lat="44.2652653" lon="10.1752813"><ele>924.0</ele><time>2026-04-19T13:16:10.986Z</time></trkpt><trkpt lat="44.2652389" lon="10.1755261"><ele>924.0</ele><time>2026-04-19T13:16:11.987Z</time></trkpt><trkpt lat="44.2652122" lon="10.175769"><ele>924.0</ele><time>2026-04-19T13:16:12.986Z</time></trkpt><trkpt lat="44.2651975" lon="10.1760149"><ele>924.0</ele><time>2026-04-19T13:16:13.987Z</time></trkpt><trkpt lat="44.2651949" lon="10.176272"><ele>924.0</ele><time>2026-04-19T13:16:14.986Z</time></trkpt><trkpt lat="44.2651964" lon="10.1765061"><ele>924.0</ele><time>2026-04-19T13:16:15.986Z</time></trkpt><trkpt lat="44.2652025" lon="10.1767285"><ele>925.0</ele><time>2026-04-19T13:16:16.986Z</time></trkpt><trkpt lat="44.2652143" lon="10.1769349"><ele>926.0</ele><time>2026-04-19T13:16:17.986Z</time></trkpt><trkpt lat="44.2652432" lon="10.1771186"><ele>927.0</ele><time>2026-04-19T13:16:18.987Z</time></trkpt><trkpt lat="44.265284" lon="10.1772835"><ele>928.0</ele><time>2026-04-19T13:16:19.986Z</time></trkpt><trkpt lat="44.2653086" lon="10.177449"><ele>930.0</ele><time>2026-04-19T13:16:20.986Z</time></trkpt><trkpt lat="44.265309" lon="10.1776208"><ele>932.0</ele><time>2026-04-19T13:16:21.986Z</time></trkpt><trkpt lat="44.2652916" lon="10.1778213"><ele>934.0</ele><time>2026-04-19T13:16:22.986Z</time></trkpt><trkpt lat="44.2652579" lon="10.1780522"><ele>936.0</ele><time>2026-04-19T13:16:23.986Z</time></trkpt><trkpt lat="44.2652251" lon="10.1782702"><ele>938.4</ele><time>2026-04-19T13:16:24.986Z</time></trkpt><trkpt lat="44.2652011" lon="10.1784561"><ele>940.8</ele><time>2026-04-19T13:16:25.986Z</time></trkpt><trkpt lat="44.2651829" lon="10.1786159"><ele>943.1999999999999</ele><time>2026-04-19T13:16:26.986Z</time></trkpt><trkpt lat="44.2651757" lon="10.1787546"><ele>945.5999999999999</ele><time>2026-04-19T13:16:27.987Z</time></trkpt><trkpt lat="44.2651867" lon="10.1788711"><ele>948.0</ele><time>2026-04-19T13:16:28.987Z</time></trkpt><trkpt lat="44.2652286" lon="10.178985"><ele>945.75</ele><time>2026-04-19T13:16:29.986Z</time></trkpt><trkpt lat="44.265302" lon="10.1790743"><ele>943.5</ele><time>2026-04-19T13:16:30.987Z</time></trkpt><trkpt lat="44.265405" lon="10.1791224"><ele>941.25</ele><time>2026-04-19T13:16:31.986Z</time></trkpt><trkpt lat="44.2655324" lon="10.1791459"><ele>939.0</ele><time>2026-04-19T13:16:32.987Z</time></trkpt><trkpt lat="44.2656736" lon="10.1791554"><ele>939.0</ele><time>2026-04-19T13:16:33.987Z</time></trkpt><trkpt lat="44.2658154" lon="10.1791715"><ele>939.0</ele><time>2026-04-19T13:16:34.986Z</time></trkpt><trkpt lat="44.26595" lon="10.1791962"><ele>939.0</ele><time>2026-04-19T13:16:35.986Z</time></trkpt><trkpt lat="44.2660794" lon="10.1792378"><ele>939.0</ele><time>2026-04-19T13:16:36.987Z</time></trkpt><trkpt lat="44.2662071" lon="10.1793038"><ele>939.0</ele><time>2026-04-19T13:16:37.986Z</time></trkpt><trkpt lat="44.2663351" lon="10.1793956"><ele>939.0</ele><time>2026-04-19T13:16:38.986Z</time></trkpt><trkpt lat="44.2664647" lon="10.1794978"><ele>939.0</ele><time>2026-04-19T13:16:39.986Z</time></trkpt><trkpt lat="44.2665692" lon="10.179579"><ele>939.0</ele><time>2026-04-19T13:16:40.986Z</time></trkpt><trkpt lat="44.266661" lon="10.1796464"><ele>937.0</ele><time>2026-04-19T13:16:41.987Z</time></trkpt><trkpt lat="44.266747" lon="10.179689"><ele>935.0000000000001</ele><time>2026-04-19T13:16:42.987Z</time></trkpt><trkpt lat="44.2668359" lon="10.1796901"><ele>933.0000000000001</ele><time>2026-04-19T13:16:43.986Z</time></trkpt><trkpt lat="44.2669259" lon="10.1796674"><ele>931.0</ele><time>2026-04-19T13:16:44.986Z</time></trkpt><trkpt lat="44.2670309" lon="10.1795973"><ele>929.0</ele><time>2026-04-19T13:16:45.987Z</time></trkpt><trkpt lat="44.2671561" lon="10.1795265"><ele>929.8000000000001</ele><time>2026-04-19T13:16:46.986Z</time></trkpt><trkpt lat="44.2672922" lon="10.1794671"><ele>930.6000000000001</ele><time>2026-04-19T13:16:47.985Z</time></trkpt><trkpt lat="44.2674063" lon="10.1794315"><ele>931.4</ele><time>2026-04-19T13:16:48.987Z</time></trkpt><trkpt lat="44.2675042" lon="10.1794202"><ele>932.2</ele><time>2026-04-19T13:16:49.986Z</time></trkpt><trkpt lat="44.2675828" lon="10.1794396"><ele>933.0</ele><time>2026-04-19T13:16:50.986Z</time></trkpt><trkpt lat="44.2676423" lon="10.1794931"><ele>933.0</ele><time>2026-04-19T13:16:51.987Z</time></trkpt><trkpt lat="44.2676999" lon="10.1795636"><ele>933.0</ele><time>2026-04-19T13:16:52.987Z</time></trkpt><trkpt lat="44.2677617" lon="10.1796428"><ele>933.0</ele><time>2026-04-19T13:16:53.987Z</time></trkpt><trkpt lat="44.2678345" lon="10.1797069"><ele>933.0</ele><time>2026-04-19T13:16:54.986Z</time></trkpt><trkpt lat="44.2679086" lon="10.1797252"><ele>933.0</ele><time>2026-04-19T13:16:55.987Z</time></trkpt><trkpt lat="44.2679864" lon="10.1797032"><ele>933.0</ele><time>2026-04-19T13:16:56.987Z</time></trkpt><trkpt lat="44.2680593" lon="10.1796315"><ele>938.25</ele><time>2026-04-19T13:16:57.986Z</time></trkpt><trkpt lat="44.2681318" lon="10.17952"><ele>943.5</ele><time>2026-04-19T13:16:58.987Z</time></trkpt><trkpt lat="44.268216" lon="10.1793838"><ele>948.75</ele><time>2026-04-19T13:16:59.986Z</time></trkpt><trkpt lat="44.2682938" lon="10.1792769"><ele>954.0</ele><time>2026-04-19T13:17:00.986Z</time></trkpt><trkpt lat="44.2683792" lon="10.179186"><ele>954.0</ele><time>2026-04-19T13:17:01.986Z</time></trkpt><trkpt lat="44.2684823" lon="10.1791018"><ele>954.0</ele><time>2026-04-19T13:17:02.986Z</time></trkpt><trkpt lat="44.2686047" lon="10.1790342"><ele>954.0</ele><time>2026-04-19T13:17:03.986Z</time></trkpt><trkpt lat="44.268732" lon="10.1789741"><ele>954.0</ele><time>2026-04-19T13:17:04.987Z</time></trkpt><trkpt lat="44.2688645" lon="10.1788951"><ele>949.25</ele><time>2026-04-19T13:17:05.986Z</time></trkpt><trkpt lat="44.2689784" lon="10.1787982"><ele>944.5</ele><time>2026-04-19T13:17:06.987Z</time></trkpt><trkpt lat="44.2690875" lon="10.1787133"><ele>939.75</ele><time>2026-04-19T13:17:07.987Z</time></trkpt><trkpt lat="44.2692035" lon="10.1786559"><ele>935.0</ele><time>2026-04-19T13:17:08.986Z</time></trkpt><trkpt lat="44.2693404" lon="10.1786214"><ele>935.0</ele><time>2026-04-19T13:17:09.987Z</time></trkpt><trkpt lat="44.2694932" lon="10.1785918"><ele>935.0</ele><time>2026-04-19T13:17:10.987Z</time></trkpt><trkpt lat="44.2696664" lon="10.1785405"><ele>935.0</ele><time>2026-04-19T13:17:11.986Z</time></trkpt><trkpt lat="44.2698365" lon="10.1784635"><ele>938.25</ele><time>2026-04-19T13:17:12.987Z</time></trkpt><trkpt lat="44.2699813" lon="10.1783914"><ele>941.5</ele><time>2026-04-19T13:17:13.987Z</time></trkpt><trkpt lat="44.2701049" lon="10.1783273"><ele>944.75</ele><time>2026-04-19T13:17:14.986Z</time></trkpt><trkpt lat="44.2702164" lon="10.1782767"><ele>948.0</ele><time>2026-04-19T13:17:15.986Z</time></trkpt><trkpt lat="44.2703162" lon="10.1782285"><ele>948.0</ele><time>2026-04-19T13:17:16.986Z</time></trkpt><trkpt lat="44.2703992" lon="10.1781931"><ele>948.0</ele><time>2026-04-19T13:17:17.986Z</time></trkpt><trkpt lat="44.2704768" lon="10.1781752"><ele>948.0</ele><time>2026-04-19T13:17:18.986Z</time></trkpt><trkpt lat="44.2705531" lon="10.1781851"><ele>948.0</ele><time>2026-04-19T13:17:19.987Z</time></trkpt><trkpt lat="44.2706329" lon="10.178236"><ele>948.0</ele><time>2026-04-19T13:17:20.986Z</time></trkpt><trkpt lat="44.2707018" lon="10.1783235"><ele>948.0</ele><time>2026-04-19T13:17:21.987Z</time></trkpt><trkpt lat="44.2707587" lon="10.1784621"><ele>946.5</ele><time>2026-04-19T13:17:22.986Z</time></trkpt><trkpt lat="44.2708218" lon="10.1786338"><ele>945.0</ele><time>2026-04-19T13:17:23.986Z</time></trkpt><trkpt lat="44.270876" lon="10.1788109"><ele>943.5</ele><time>2026-04-19T13:17:24.987Z</time></trkpt><trkpt lat="44.2709483" lon="10.1789962"><ele>942.0</ele><time>2026-04-19T13:17:25.987Z</time></trkpt><trkpt lat="44.2710285" lon="10.1791648"><ele>946.0</ele><time>2026-04-19T13:17:26.986Z</time></trkpt><trkpt lat="44.2711203" lon="10.1793115"><ele>950.0</ele><time>2026-04-19T13:17:27.987Z</time></trkpt><trkpt lat="44.2711941" lon="10.1794523"><ele>954.0</ele><time>2026-04-19T13:17:28.986Z</time></trkpt><trkpt lat="44.271261" lon="10.1796001"><ele>958.0</ele><time>2026-04-19T13:17:29.986Z</time></trkpt><trkpt lat="44.2712932" lon="10.1797746"><ele>962.25</ele><time>2026-04-19T13:17:30.987Z</time></trkpt><trkpt lat="44.2713187" lon="10.1799425"><ele>966.5</ele><time>2026-04-19T13:17:31.986Z</time></trkpt><trkpt lat="44.2713279" lon="10.1801098"><ele>970.75</ele><time>2026-04-19T13:17:32.986Z</time></trkpt><trkpt lat="44.2713222" lon="10.1802623"><ele>975.0</ele><time>2026-04-19T13:17:33.985Z</time></trkpt><trkpt lat="44.2713014" lon="10.1804051"><ele>975.0</ele><time>2026-04-19T13:17:34.987Z</time></trkpt><trkpt lat="44.2712737" lon="10.1805367"><ele>975.0</ele><time>2026-04-19T13:17:35.987Z</time></trkpt><trkpt lat="44.2712503" lon="10.1806574"><ele>975.0</ele><time>2026-04-19T13:17:36.986Z</time></trkpt><trkpt lat="44.271238" lon="10.1807721"><ele>975.0</ele><time>2026-04-19T13:17:37.987Z</time></trkpt><trkpt lat="44.2712478" lon="10.1808804"><ele>975.0</ele><time>2026-04-19T13:17:38.987Z</time></trkpt><trkpt lat="44.2712823" lon="10.1809677"><ele>975.0</ele><time>2026-04-19T13:17:39.987Z</time></trkpt><trkpt lat="44.2713416" lon="10.1810331"><ele>975.8</ele><time>2026-04-19T13:17:40.986Z</time></trkpt><trkpt lat="44.2714213" lon="10.1810646"><ele>976.6</ele><time>2026-04-19T13:17:41.987Z</time></trkpt><trkpt lat="44.2715141" lon="10.1810598"><ele>977.4000000000001</ele><time>2026-04-19T13:17:42.986Z</time></trkpt><trkpt lat="44.2716183" lon="10.1810169"><ele>978.2</ele><time>2026-04-19T13:17:43.986Z</time></trkpt><trkpt lat="44.2717528" lon="10.1809445"><ele>979.0</ele><time>2026-04-19T13:17:44.986Z</time></trkpt><trkpt lat="44.2718949" lon="10.1808644"><ele>966.3333333333333</ele><time>2026-04-19T13:17:45.985Z</time></trkpt><trkpt lat="44.2720673" lon="10.1807668"><ele>953.6666666666667</ele><time>2026-04-19T13:17:46.987Z</time></trkpt><trkpt lat="44.2722384" lon="10.1806706"><ele>941.0</ele><time>2026-04-19T13:17:47.987Z</time></trkpt><trkpt lat="44.2723851" lon="10.1805908"><ele>934.0</ele><time>2026-04-19T13:17:48.986Z</time></trkpt><trkpt lat="44.2725163" lon="10.1805207"><ele>927.0</ele><time>2026-04-19T13:17:49.987Z</time></trkpt><trkpt lat="44.2726352" lon="10.1804559"><ele>920.0</ele><time>2026-04-19T13:17:50.987Z</time></trkpt><trkpt lat="44.2727479" lon="10.1804086"><ele>913.0</ele><time>2026-04-19T13:17:51.986Z</time></trkpt><trkpt lat="44.272869" lon="10.1803852"><ele>913.0</ele><time>2026-04-19T13:17:52.986Z</time></trkpt><trkpt lat="44.2729911" lon="10.1803863"><ele>913.0</ele><time>2026-04-19T13:17:53.987Z</time></trkpt><trkpt lat="44.2731368" lon="10.1804226"><ele>913.0</ele><time>2026-04-19T13:17:54.986Z</time></trkpt><trkpt lat="44.2733095" lon="10.1804756"><ele>913.0</ele><time>2026-04-19T13:17:55.987Z</time></trkpt><trkpt lat="44.2734904" lon="10.1805358"><ele>916.3333333333333</ele><time>2026-04-19T13:17:56.987Z</time></trkpt><trkpt lat="44.2736659" lon="10.1805988"><ele>919.6666666666667</ele><time>2026-04-19T13:17:57.987Z</time></trkpt><trkpt lat="44.2738307" lon="10.1806693"><ele>923.0</ele><time>2026-04-19T13:17:58.986Z</time></trkpt><trkpt lat="44.273961" lon="10.180748"><ele>924.5999999999999</ele><time>2026-04-19T13:17:59.987Z</time></trkpt><trkpt lat="44.2740698" lon="10.1808232"><ele>926.1999999999999</ele><time>2026-04-19T13:18:00.986Z</time></trkpt><trkpt lat="44.2741589" lon="10.1808978"><ele>927.8</ele><time>2026-04-19T13:18:01.987Z</time></trkpt><trkpt lat="44.2742248" lon="10.180978"><ele>929.4</ele><time>2026-04-19T13:18:02.986Z</time></trkpt><trkpt lat="44.2742765" lon="10.1810814"><ele>931.0</ele><time>2026-04-19T13:18:03.986Z</time></trkpt><trkpt lat="44.2742985" lon="10.1812096"><ele>931.0</ele><time>2026-04-19T13:18:04.987Z</time></trkpt><trkpt lat="44.2743012" lon="10.1813494"><ele>931.0</ele><time>2026-04-19T13:18:05.987Z</time></trkpt><trkpt lat="44.2742912" lon="10.1815209"><ele>931.0</ele><time>2026-04-19T13:18:06.987Z</time></trkpt><trkpt lat="44.2742865" lon="10.1817085"><ele>931.0</ele><time>2026-04-19T13:18:07.986Z</time></trkpt><trkpt lat="44.2742997" lon="10.1819025"><ele>935.5</ele><time>2026-04-19T13:18:08.987Z</time></trkpt><trkpt lat="44.2743359" lon="10.1820812"><ele>940.0</ele><time>2026-04-19T13:18:09.987Z</time></trkpt><trkpt lat="44.2743856" lon="10.1822461"><ele>944.5</ele><time>2026-04-19T13:18:10.986Z</time></trkpt><trkpt lat="44.2744483" lon="10.1824022"><ele>949.0</ele><time>2026-04-19T13:18:11.987Z</time></trkpt><trkpt lat="44.2745316" lon="10.1825497"><ele>949.6666666666666</ele><time>2026-04-19T13:18:12.987Z</time></trkpt><trkpt lat="44.2746463" lon="10.1826891"><ele>950.3333333333333</ele><time>2026-04-19T13:18:13.986Z</time></trkpt><trkpt lat="44.2747876" lon="10.1828345"><ele>951.0</ele><time>2026-04-19T13:18:14.986Z</time></trkpt><trkpt lat="44.2749484" lon="10.1829824"><ele>947.0</ele><time>2026-04-19T13:18:15.986Z</time></trkpt><trkpt lat="44.2751072" lon="10.1831235"><ele>943.0</ele><time>2026-04-19T13:18:16.986Z</time></trkpt><trkpt lat="44.2752428" lon="10.183248"><ele>939.0</ele><time>2026-04-19T13:18:17.985Z</time></trkpt><trkpt lat="44.2753597" lon="10.183362"><ele>939.0</ele><time>2026-04-19T13:18:18.987Z</time></trkpt><trkpt lat="44.2754694" lon="10.1834847"><ele>939.0</ele><time>2026-04-19T13:18:19.987Z</time></trkpt><trkpt lat="44.2755669" lon="10.1836258"><ele>939.0</ele><time>2026-04-19T13:18:20.986Z</time></trkpt><trkpt lat="44.2756485" lon="10.1837924"><ele>939.0</ele><time>2026-04-19T13:18:21.987Z</time></trkpt><trkpt lat="44.2757202" lon="10.1839984"><ele>936.3333333333333</ele><time>2026-04-19T13:18:22.987Z</time></trkpt><trkpt lat="44.2757919" lon="10.1842322"><ele>933.6666666666666</ele><time>2026-04-19T13:18:23.986Z</time></trkpt><trkpt lat="44.275882" lon="10.1844654"><ele>931.0</ele><time>2026-04-19T13:18:24.986Z</time></trkpt><trkpt lat="44.275982" lon="10.1846799"><ele>934.0</ele><time>2026-04-19T13:18:25.987Z</time></trkpt><trkpt lat="44.2760769" lon="10.1848824"><ele>937.0</ele><time>2026-04-19T13:18:26.986Z</time></trkpt><trkpt lat="44.2761626" lon="10.1850672"><ele>940.0</ele><time>2026-04-19T13:18:27.987Z</time></trkpt><trkpt lat="44.2762482" lon="10.1852338"><ele>940.0</ele><time>2026-04-19T13:18:28.986Z</time></trkpt><trkpt lat="44.2763358" lon="10.1853885"><ele>940.0</ele><time>2026-04-19T13:18:29.987Z</time></trkpt><trkpt lat="44.2764495" lon="10.1855342"><ele>940.0</ele><time>2026-04-19T13:18:30.986Z</time></trkpt><trkpt lat="44.2765931" lon="10.1856666"><ele>935.3333333333333</ele><time>2026-04-19T13:18:31.987Z</time></trkpt><trkpt lat="44.2767459" lon="10.1857931"><ele>930.6666666666667</ele><time>2026-04-19T13:18:32.987Z</time></trkpt><trkpt lat="44.2768932" lon="10.1859026"><ele>926.0</ele><time>2026-04-19T13:18:33.986Z</time></trkpt><trkpt lat="44.2770389" lon="10.1859953"><ele>926.0</ele><time>2026-04-19T13:18:34.987Z</time></trkpt><trkpt lat="44.2771852" lon="10.1860564"><ele>926.0</ele><time>2026-04-19T13:18:35.987Z</time></trkpt><trkpt lat="44.2773357" lon="10.186085"><ele>926.0</ele><time>2026-04-19T13:18:36.986Z</time></trkpt><trkpt lat="44.2774918" lon="10.1860774"><ele>923.6666666666667</ele><time>2026-04-19T13:18:37.986Z</time></trkpt><trkpt lat="44.2776429" lon="10.186041"><ele>921.3333333333333</ele><time>2026-04-19T13:18:38.986Z</time></trkpt><trkpt lat="44.2777837" lon="10.1859688"><ele>919.0</ele><time>2026-04-19T13:18:39.987Z</time></trkpt><trkpt lat="44.2779162" lon="10.1858616"><ele>919.0</ele><time>2026-04-19T13:18:40.986Z</time></trkpt><trkpt lat="44.2780408" lon="10.1857554"><ele>919.0</ele><time>2026-04-19T13:18:41.986Z</time></trkpt><trkpt lat="44.2781639" lon="10.1856807"><ele>919.0</ele><time>2026-04-19T13:18:42.986Z</time></trkpt><trkpt lat="44.2783094" lon="10.1856188"><ele>919.0</ele><time>2026-04-19T13:18:43.987Z</time></trkpt><trkpt lat="44.2784648" lon="10.1855709"><ele>916.75</ele><time>2026-04-19T13:18:44.986Z</time></trkpt><trkpt lat="44.2786038" lon="10.1855447"><ele>914.5</ele><time>2026-04-19T13:18:45.986Z</time></trkpt><trkpt lat="44.2787347" lon="10.1855199"><ele>912.25</ele><time>2026-04-19T13:18:46.986Z</time></trkpt><trkpt lat="44.2788521" lon="10.1855074"><ele>910.0</ele><time>2026-04-19T13:18:47.986Z</time></trkpt><trkpt lat="44.2789579" lon="10.1855166"><ele>910.0</ele><time>2026-04-19T13:18:48.985Z</time></trkpt><trkpt lat="44.2790596" lon="10.1855618"><ele>910.0</ele><time>2026-04-19T13:18:49.986Z</time></trkpt><trkpt lat="44.2791543" lon="10.1856359"><ele>910.0</ele><time>2026-04-19T13:18:50.986Z</time></trkpt><trkpt lat="44.2792405" lon="10.1857371"><ele>910.0</ele><time>2026-04-19T13:18:51.987Z</time></trkpt><trkpt lat="44.2792893" lon="10.1858692"><ele>910.0</ele><time>2026-04-19T13:18:52.986Z</time></trkpt><trkpt lat="44.2793176" lon="10.1860218"><ele>914.0</ele><time>2026-04-19T13:18:53.987Z</time></trkpt><trkpt lat="44.2793206" lon="10.1861836"><ele>918.0</ele><time>2026-04-19T13:18:54.986Z</time></trkpt><trkpt lat="44.2792941" lon="10.1863245"><ele>922.0</ele><time>2026-04-19T13:18:55.987Z</time></trkpt><trkpt lat="44.27924" lon="10.1864689"><ele>926.0</ele><time>2026-04-19T13:18:56.986Z</time></trkpt><trkpt lat="44.2791561" lon="10.1866145"><ele>927.0</ele><time>2026-04-19T13:18:57.987Z</time></trkpt><trkpt lat="44.2790587" lon="10.1867486"><ele>928.0</ele><time>2026-04-19T13:18:58.986Z</time></trkpt><trkpt lat="44.2789644" lon="10.1868796"><ele>929.0</ele><time>2026-04-19T13:18:59.987Z</time></trkpt><trkpt lat="44.2788923" lon="10.1870103"><ele>930.0</ele><time>2026-04-19T13:19:00.986Z</time></trkpt><trkpt lat="44.2788443" lon="10.1871537"><ele>934.25</ele><time>2026-04-19T13:19:01.986Z</time></trkpt><trkpt lat="44.2788231" lon="10.1873094"><ele>938.5</ele><time>2026-04-19T13:19:02.986Z</time></trkpt><trkpt lat="44.2788279" lon="10.1874777"><ele>942.75</ele><time>2026-04-19T13:19:03.987Z</time></trkpt><trkpt lat="44.2788507" lon="10.1876665"><ele>947.0</ele><time>2026-04-19T13:19:04.986Z</time></trkpt><trkpt lat="44.2788851" lon="10.1878866"><ele>942.3333333333334</ele><time>2026-04-19T13:19:05.986Z</time></trkpt><trkpt lat="44.278927" lon="10.1881375"><ele>937.6666666666667</ele><time>2026-04-19T13:19:06.987Z</time></trkpt><trkpt lat="44.2789683" lon="10.1883831"><ele>933.0</ele><time>2026-04-19T13:19:07.986Z</time></trkpt><trkpt lat="44.2790156" lon="10.1886482"><ele>933.0</ele><time>2026-04-19T13:19:08.986Z</time></trkpt><trkpt lat="44.2790667" lon="10.1888926"><ele>933.0</ele><time>2026-04-19T13:19:09.987Z</time></trkpt><trkpt lat="44.2791199" lon="10.1891505"><ele>933.0</ele><time>2026-04-19T13:19:10.986Z</time></trkpt><trkpt lat="44.2791839" lon="10.1894185"><ele>936.6666666666667</ele><time>2026-04-19T13:19:11.985Z</time></trkpt><trkpt lat="44.2792511" lon="10.1896587"><ele>940.3333333333334</ele><time>2026-04-19T13:19:12.985Z</time></trkpt><trkpt lat="44.2793112" lon="10.1898771"><ele>944.0</ele><time>2026-04-19T13:19:13.986Z</time></trkpt><trkpt lat="44.2793847" lon="10.1900852"><ele>947.25</ele><time>2026-04-19T13:19:14.987Z</time></trkpt><trkpt lat="44.2794662" lon="10.190273"><ele>950.5</ele><time>2026-04-19T13:19:15.987Z</time></trkpt><trkpt lat="44.2795452" lon="10.1904386"><ele>953.75</ele><time>2026-04-19T13:19:16.985Z</time></trkpt><trkpt lat="44.279606" lon="10.1905965"><ele>957.0</ele><time>2026-04-19T13:19:17.987Z</time></trkpt><trkpt lat="44.2796503" lon="10.1907474"><ele>960.75</ele><time>2026-04-19T13:19:18.987Z</time></trkpt><trkpt lat="44.2796777" lon="10.1909167"><ele>964.5</ele><time>2026-04-19T13:19:19.986Z</time></trkpt><trkpt lat="44.2796894" lon="10.1911158"><ele>968.25</ele><time>2026-04-19T13:19:20.987Z</time></trkpt><trkpt lat="44.2796911" lon="10.1913456"><ele>972.0</ele><time>2026-04-19T13:19:21.987Z</time></trkpt><trkpt lat="44.2796917" lon="10.191579"><ele>974.75</ele><time>2026-04-19T13:19:22.987Z</time></trkpt><trkpt lat="44.2796928" lon="10.1917838"><ele>977.5</ele><time>2026-04-19T13:19:23.986Z</time></trkpt><trkpt lat="44.2796909" lon="10.1919795"><ele>980.25</ele><time>2026-04-19T13:19:24.986Z</time></trkpt><trkpt lat="44.2796793" lon="10.1921634"><ele>983.0</ele><time>2026-04-19T13:19:25.987Z</time></trkpt><trkpt lat="44.2796494" lon="10.192351"><ele>983.0</ele><time>2026-04-19T13:19:26.986Z</time></trkpt><trkpt lat="44.2796006" lon="10.1925387"><ele>983.0</ele><time>2026-04-19T13:19:27.987Z</time></trkpt><trkpt lat="44.279531" lon="10.1927"><ele>983.0</ele><time>2026-04-19T13:19:28.987Z</time></trkpt><trkpt lat="44.2794397" lon="10.1928526"><ele>983.0</ele><time>2026-04-19T13:19:29.986Z</time></trkpt><trkpt lat="44.2793237" lon="10.1930092"><ele>978.0</ele><time>2026-04-19T13:19:30.986Z</time></trkpt><trkpt lat="44.2791895" lon="10.1931773"><ele>973.0</ele><time>2026-04-19T13:19:31.987Z</time></trkpt><trkpt lat="44.2790655" lon="10.193344"><ele>968.0</ele><time>2026-04-19T13:19:32.987Z</time></trkpt><trkpt lat="44.2789511" lon="10.1935027"><ele>971.0</ele><time>2026-04-19T13:19:33.987Z</time></trkpt><trkpt lat="44.2788407" lon="10.1936638"><ele>974.0</ele><time>2026-04-19T13:19:34.986Z</time></trkpt><trkpt lat="44.2787509" lon="10.1938248"><ele>977.0</ele><time>2026-04-19T13:19:35.987Z</time></trkpt><trkpt lat="44.2786696" lon="10.1939816"><ele>980.0</ele><time>2026-04-19T13:19:36.987Z</time></trkpt><trkpt lat="44.2785952" lon="10.1941521"><ele>980.0</ele><time>2026-04-19T13:19:37.987Z</time></trkpt><trkpt lat="44.2785268" lon="10.1943338"><ele>980.0</ele><time>2026-04-19T13:19:38.987Z</time></trkpt><trkpt lat="44.2784727" lon="10.1945208"><ele>980.0</ele><time>2026-04-19T13:19:39.987Z</time></trkpt><trkpt lat="44.2784267" lon="10.194694"><ele>980.0</ele><time>2026-04-19T13:19:40.986Z</time></trkpt><trkpt lat="44.2783955" lon="10.1948683"><ele>977.0</ele><time>2026-04-19T13:19:41.985Z</time></trkpt><trkpt lat="44.278392" lon="10.1950377"><ele>974.0</ele><time>2026-04-19T13:19:42.987Z</time></trkpt><trkpt lat="44.2784121" lon="10.195219"><ele>971.0</ele><time>2026-04-19T13:19:43.986Z</time></trkpt><trkpt lat="44.2784483" lon="10.195409"><ele>968.0</ele><time>2026-04-19T13:19:44.987Z</time></trkpt><trkpt lat="44.2784952" lon="10.1956306"><ele>961.6666666666667</ele><time>2026-04-19T13:19:45.986Z</time></trkpt><trkpt lat="44.2785548" lon="10.195863"><ele>955.3333333333333</ele><time>2026-04-19T13:19:46.987Z</time></trkpt><trkpt lat="44.2786171" lon="10.1961047"><ele>949.0</ele><time>2026-04-19T13:19:47.987Z</time></trkpt><trkpt lat="44.2786841" lon="10.1963682"><ele>951.0</ele><time>2026-04-19T13:19:48.985Z</time></trkpt><trkpt lat="44.278757" lon="10.1966608"><ele>953.0</ele><time>2026-04-19T13:19:49.987Z</time></trkpt><trkpt lat="44.2788246" lon="10.1969283"><ele>955.0</ele><time>2026-04-19T13:19:50.986Z</time></trkpt><trkpt lat="44.2788914" lon="10.1971879"><ele>957.6666666666666</ele><time>2026-04-19T13:19:51.987Z</time></trkpt><trkpt lat="44.2789585" lon="10.1974342"><ele>960.3333333333333</ele><time>2026-04-19T13:19:52.987Z</time></trkpt><trkpt lat="44.2790307" lon="10.1976708"><ele>963.0</ele><time>2026-04-19T13:19:53.987Z</time></trkpt><trkpt lat="44.2791115" lon="10.1978973"><ele>963.0</ele><time>2026-04-19T13:19:54.987Z</time></trkpt><trkpt lat="44.2791937" lon="10.1980934"><ele>963.0</ele><time>2026-04-19T13:19:55.987Z</time></trkpt><trkpt lat="44.2792714" lon="10.1982651"><ele>963.0</ele><time>2026-04-19T13:19:56.986Z</time></trkpt><trkpt lat="44.2793477" lon="10.1984128"><ele>963.0</ele><time>2026-04-19T13:19:57.987Z</time></trkpt><trkpt lat="44.2794311" lon="10.1985335"><ele>965.25</ele><time>2026-04-19T13:19:58.987Z</time></trkpt><trkpt lat="44.27953" lon="10.1986302"><ele>967.5</ele><time>2026-04-19T13:19:59.987Z</time></trkpt><trkpt lat="44.2796421" lon="10.1987061"><ele>969.75</ele><time>2026-04-19T13:20:00.987Z</time></trkpt><trkpt lat="44.2797797" lon="10.1987744"><ele>972.0</ele><time>2026-04-19T13:20:01.987Z</time></trkpt><trkpt lat="44.2799366" lon="10.1988504"><ele>969.5</ele><time>2026-04-19T13:20:02.987Z</time></trkpt><trkpt lat="44.2800834" lon="10.1989257"><ele>967.0</ele><time>2026-04-19T13:20:03.986Z</time></trkpt><trkpt lat="44.2802203" lon="10.1989932"><ele>964.5</ele><time>2026-04-19T13:20:04.986Z</time></trkpt><trkpt lat="44.2803559" lon="10.1990479"><ele>962.0</ele><time>2026-04-19T13:20:05.986Z</time></trkpt><trkpt lat="44.2804929" lon="10.1990888"><ele>960.25</ele><time>2026-04-19T13:20:06.986Z</time></trkpt><trkpt lat="44.280632" lon="10.199089"><ele>958.5</ele><time>2026-04-19T13:20:07.987Z</time></trkpt><trkpt lat="44.2807789" lon="10.1990561"><ele>956.75</ele><time>2026-04-19T13:20:08.987Z</time></trkpt><trkpt lat="44.2809339" lon="10.1990004"><ele>955.0</ele><time>2026-04-19T13:20:09.987Z</time></trkpt><trkpt lat="44.2810989" lon="10.1989335"><ele>955.0</ele><time>2026-04-19T13:20:10.986Z</time></trkpt><trkpt lat="44.2812708" lon="10.1988494"><ele>955.0</ele><time>2026-04-19T13:20:11.987Z</time></trkpt><trkpt lat="44.2814419" lon="10.1987461"><ele>955.0</ele><time>2026-04-19T13:20:12.987Z</time></trkpt><trkpt lat="44.2815881" lon="10.198646"><ele>960.75</ele><time>2026-04-19T13:20:13.987Z</time></trkpt><trkpt lat="44.2817187" lon="10.1985472"><ele>966.5</ele><time>2026-04-19T13:20:14.987Z</time></trkpt><trkpt lat="44.281833" lon="10.19845"><ele>972.25</ele><time>2026-04-19T13:20:15.987Z</time></trkpt><trkpt lat="44.2819297" lon="10.1983674"><ele>978.0</ele><time>2026-04-19T13:20:16.987Z</time></trkpt><trkpt lat="44.2820051" lon="10.1983291"><ele>978.0</ele><time>2026-04-19T13:20:17.986Z</time></trkpt><trkpt lat="44.2820764" lon="10.1983224"><ele>978.0</ele><time>2026-04-19T13:20:18.987Z</time></trkpt><trkpt lat="44.2821493" lon="10.1983349"><ele>978.0</ele><time>2026-04-19T13:20:19.987Z</time></trkpt><trkpt lat="44.2822271" lon="10.1983544"><ele>978.0</ele><time>2026-04-19T13:20:20.986Z</time></trkpt><trkpt lat="44.2823324" lon="10.1983653"><ele>978.0</ele><time>2026-04-19T13:20:21.987Z</time></trkpt><trkpt lat="44.2824541" lon="10.1983671"><ele>982.75</ele><time>2026-04-19T13:20:22.986Z</time></trkpt><trkpt lat="44.2825993" lon="10.1983413"><ele>987.5</ele><time>2026-04-19T13:20:23.986Z</time></trkpt><trkpt lat="44.2827244" lon="10.1983251"><ele>992.25</ele><time>2026-04-19T13:20:24.987Z</time></trkpt><trkpt lat="44.2828469" lon="10.1983318"><ele>997.0</ele><time>2026-04-19T13:20:25.987Z</time></trkpt><trkpt lat="44.2829682" lon="10.198358"><ele>997.0</ele><time>2026-04-19T13:20:26.985Z</time></trkpt><trkpt lat="44.2830952" lon="10.1983915"><ele>997.0</ele><time>2026-04-19T13:20:27.986Z</time></trkpt><trkpt lat="44.2832153" lon="10.1984116"><ele>997.0</ele><time>2026-04-19T13:20:28.986Z</time></trkpt><trkpt lat="44.2833273" lon="10.1984018"><ele>997.0</ele><time>2026-04-19T13:20:29.986Z</time></trkpt><trkpt lat="44.2834463" lon="10.1983708"><ele>995.8</ele><time>2026-04-19T13:20:30.986Z</time></trkpt><trkpt lat="44.2835697" lon="10.1983195"><ele>994.6</ele><time>2026-04-19T13:20:31.987Z</time></trkpt><trkpt lat="44.2836715" lon="10.1982977"><ele>993.3999999999999</ele><time>2026-04-19T13:20:32.986Z</time></trkpt><trkpt lat="44.2837717" lon="10.1983051"><ele>992.1999999999999</ele><time>2026-04-19T13:20:33.987Z</time></trkpt><trkpt lat="44.2838693" lon="10.1983493"><ele>991.0</ele><time>2026-04-19T13:20:34.986Z</time></trkpt><trkpt lat="44.2839599" lon="10.1984268"><ele>991.0</ele><time>2026-04-19T13:20:35.987Z</time></trkpt><trkpt lat="44.2840532" lon="10.1985341"><ele>991.0</ele><time>2026-04-19T13:20:36.986Z</time></trkpt><trkpt lat="44.2841561" lon="10.1986671"><ele>991.0</ele><time>2026-04-19T13:20:37.985Z</time></trkpt><trkpt lat="44.2842682" lon="10.1988022"><ele>991.0</ele><time>2026-04-19T13:20:38.986Z</time></trkpt><trkpt lat="44.2843621" lon="10.1989208"><ele>998.5</ele><time>2026-04-19T13:20:39.986Z</time></trkpt><trkpt lat="44.2844507" lon="10.1990491"><ele>1006.0</ele><time>2026-04-19T13:20:40.987Z</time></trkpt><trkpt lat="44.2845348" lon="10.1991974"><ele>1013.5</ele><time>2026-04-19T13:20:41.987Z</time></trkpt><trkpt lat="44.2846084" lon="10.1993667"><ele>1021.0</ele><time>2026-04-19T13:20:42.986Z</time></trkpt><trkpt lat="44.2846707" lon="10.1995588"><ele>1021.0</ele><time>2026-04-19T13:20:43.986Z</time></trkpt><trkpt lat="44.2847292" lon="10.1997579"><ele>1021.0</ele><time>2026-04-19T13:20:44.986Z</time></trkpt><trkpt lat="44.284787" lon="10.199936"><ele>1021.0</ele><time>2026-04-19T13:20:45.987Z</time></trkpt><trkpt lat="44.2848592" lon="10.2000961"><ele>1021.0</ele><time>2026-04-19T13:20:46.986Z</time></trkpt><trkpt lat="44.2849473" lon="10.2002342"><ele>1023.0</ele><time>2026-04-19T13:20:47.986Z</time></trkpt><trkpt lat="44.28503" lon="10.2003567"><ele>1025.0</ele><time>2026-04-19T13:20:48.987Z</time></trkpt><trkpt lat="44.2851008" lon="10.2004918"><ele>1027.0</ele><time>2026-04-19T13:20:49.986Z</time></trkpt><trkpt lat="44.2851607" lon="10.2006508"><ele>1029.0</ele><time>2026-04-19T13:20:50.987Z</time></trkpt><trkpt lat="44.2851993" lon="10.2008457"><ele>1029.0</ele><time>2026-04-19T13:20:51.986Z</time></trkpt><trkpt lat="44.2852218" lon="10.2010346"><ele>1029.0</ele><time>2026-04-19T13:20:52.986Z</time></trkpt><trkpt lat="44.2852366" lon="10.2011991"><ele>1029.0</ele><time>2026-04-19T13:20:53.986Z</time></trkpt><trkpt lat="44.2852511" lon="10.2013373"><ele>1029.0</ele><time>2026-04-19T13:20:54.986Z</time></trkpt><trkpt lat="44.2852713" lon="10.2014557"><ele>1029.0</ele><time>2026-04-19T13:20:55.987Z</time></trkpt><trkpt lat="44.2853156" lon="10.2015428"><ele>1028.0</ele><time>2026-04-19T13:20:56.987Z</time></trkpt><trkpt lat="44.2853775" lon="10.2016172"><ele>1027.0</ele><time>2026-04-19T13:20:57.987Z</time></trkpt><trkpt lat="44.285458" lon="10.2016706"><ele>1026.0</ele><time>2026-04-19T13:20:58.986Z</time></trkpt><trkpt lat="44.2855588" lon="10.2017131"><ele>1025.0</ele><time>2026-04-19T13:20:59.986Z</time></trkpt><trkpt lat="44.2856385" lon="10.2017853"><ele>1024.0</ele><time>2026-04-19T13:21:00.987Z</time></trkpt><trkpt lat="44.2857009" lon="10.2018883"><ele>1024.0</ele><time>2026-04-19T13:21:01.987Z</time></trkpt><trkpt lat="44.2857551" lon="10.2020305"><ele>1024.0</ele><time>2026-04-19T13:21:02.987Z</time></trkpt><trkpt lat="44.2858138" lon="10.2021807"><ele>1024.0</ele><time>2026-04-19T13:21:03.987Z</time></trkpt><trkpt lat="44.2858694" lon="10.2022987"><ele>1024.0</ele><time>2026-04-19T13:21:04.987Z</time></trkpt><trkpt lat="44.2859413" lon="10.2023975"><ele>1024.0</ele><time>2026-04-19T13:21:05.987Z</time></trkpt><trkpt lat="44.2860313" lon="10.202452"><ele>1027.0</ele><time>2026-04-19T13:21:06.987Z</time></trkpt><trkpt lat="44.2861197" lon="10.202523"><ele>1030.0</ele><time>2026-04-19T13:21:07.986Z</time></trkpt><trkpt lat="44.286258" lon="10.2025419"><ele>1033.0</ele><time>2026-04-19T13:21:08.987Z</time></trkpt><trkpt lat="44.2864232" lon="10.2025248"><ele>1036.0</ele><time>2026-04-19T13:21:09.987Z</time></trkpt><trkpt lat="44.2865408" lon="10.2025469"><ele>1036.0</ele><time>2026-04-19T13:21:10.987Z</time></trkpt><trkpt lat="44.2866764" lon="10.2025969"><ele>1036.0</ele><time>2026-04-19T13:21:11.986Z</time></trkpt><trkpt lat="44.2868131" lon="10.2026942"><ele>1036.0</ele><time>2026-04-19T13:21:12.987Z</time></trkpt><trkpt lat="44.2869523" lon="10.2028165"><ele>1036.0</ele><time>2026-04-19T13:21:13.986Z</time></trkpt><trkpt lat="44.2870838" lon="10.202957"><ele>1036.0</ele><time>2026-04-19T13:21:14.986Z</time></trkpt><trkpt lat="44.2871903" lon="10.2030929"><ele>1036.0</ele><time>2026-04-19T13:21:15.987Z</time></trkpt><trkpt lat="44.2872767" lon="10.2032248"><ele>1036.0</ele><time>2026-04-19T13:21:16.986Z</time></trkpt><trkpt lat="44.2873487" lon="10.2033745"><ele>1037.6666666666665</ele><time>2026-04-19T13:21:17.985Z</time></trkpt><trkpt lat="44.2873915" lon="10.203551"><ele>1039.3333333333333</ele><time>2026-04-19T13:21:18.986Z</time></trkpt><trkpt lat="44.2874241" lon="10.203761"><ele>1041.0</ele><time>2026-04-19T13:21:19.986Z</time></trkpt><trkpt lat="44.2874419" lon="10.2040014"><ele>1045.5</ele><time>2026-04-19T13:21:20.986Z</time></trkpt><trkpt lat="44.2874575" lon="10.2042306"><ele>1050.0</ele><time>2026-04-19T13:21:21.987Z</time></trkpt><trkpt lat="44.2874794" lon="10.2044322"><ele>1054.5</ele><time>2026-04-19T13:21:22.987Z</time></trkpt><trkpt lat="44.2875092" lon="10.2046065"><ele>1059.0</ele><time>2026-04-19T13:21:23.986Z</time></trkpt><trkpt lat="44.2875434" lon="10.204778"><ele>1062.0</ele><time>2026-04-19T13:21:24.987Z</time></trkpt><trkpt lat="44.2875906" lon="10.2049394"><ele>1065.0</ele><time>2026-04-19T13:21:25.987Z</time></trkpt><trkpt lat="44.2876482" lon="10.205078"><ele>1068.0</ele><time>2026-04-19T13:21:26.985Z</time></trkpt><trkpt lat="44.2877044" lon="10.2051899"><ele>1071.0</ele><time>2026-04-19T13:21:27.986Z</time></trkpt><trkpt lat="44.2877732" lon="10.2052817"><ele>1074.0</ele><time>2026-04-19T13:21:28.987Z</time></trkpt><trkpt lat="44.2878653" lon="10.2053535"><ele>1074.0</ele><time>2026-04-19T13:21:29.986Z</time></trkpt><trkpt lat="44.2879773" lon="10.2054162"><ele>1074.0</ele><time>2026-04-19T13:21:30.987Z</time></trkpt><trkpt lat="44.2881019" lon="10.2054842"><ele>1074.0</ele><time>2026-04-19T13:21:31.985Z</time></trkpt><trkpt lat="44.2882134" lon="10.2055392"><ele>1074.0</ele><time>2026-04-19T13:21:32.987Z</time></trkpt><trkpt lat="44.2883213" lon="10.2055859"><ele>1070.0</ele><time>2026-04-19T13:21:33.987Z</time></trkpt><trkpt lat="44.2883987" lon="10.2055376"><ele>1066.0</ele><time>2026-04-19T13:21:34.987Z</time></trkpt><trkpt lat="44.2884891" lon="10.205507"><ele>1062.0</ele><time>2026-04-19T13:21:35.986Z</time></trkpt><trkpt lat="44.2885849" lon="10.2054633"><ele>1058.0</ele><time>2026-04-19T13:21:36.986Z</time></trkpt><trkpt lat="44.2886969" lon="10.2053994"><ele>1054.0</ele><time>2026-04-19T13:21:37.987Z</time></trkpt><trkpt lat="44.2888289" lon="10.2053446"><ele>1056.0</ele><time>2026-04-19T13:21:38.987Z</time></trkpt><trkpt lat="44.2889597" lon="10.2053191"><ele>1058.0</ele><time>2026-04-19T13:21:39.985Z</time></trkpt><trkpt lat="44.2890803" lon="10.2053065"><ele>1060.0</ele><time>2026-04-19T13:21:40.986Z</time></trkpt><trkpt lat="44.289199" lon="10.2052939"><ele>1062.0</ele><time>2026-04-19T13:21:41.987Z</time></trkpt><trkpt lat="44.2892994" lon="10.2053052"><ele>1062.0</ele><time>2026-04-19T13:21:42.987Z</time></trkpt><trkpt lat="44.2893647" lon="10.2053205"><ele>1062.0</ele><time>2026-04-19T13:21:43.987Z</time></trkpt><trkpt lat="44.2894321" lon="10.2053718"><ele>1062.0</ele><time>2026-04-19T13:21:44.986Z</time></trkpt><trkpt lat="44.2894929" lon="10.2054368"><ele>1062.0</ele><time>2026-04-19T13:21:45.986Z</time></trkpt><trkpt lat="44.2895393" lon="10.2055766"><ele>1062.0</ele><time>2026-04-19T13:21:46.985Z</time></trkpt><trkpt lat="44.2896041" lon="10.2057221"><ele>1066.6</ele><time>2026-04-19T13:21:47.987Z</time></trkpt><trkpt lat="44.2896633" lon="10.2058534"><ele>1071.2</ele><time>2026-04-19T13:21:48.986Z</time></trkpt><trkpt lat="44.289722" lon="10.2059657"><ele>1075.8</ele><time>2026-04-19T13:21:49.987Z</time></trkpt><trkpt lat="44.2897889" lon="10.2060556"><ele>1080.4</ele><time>2026-04-19T13:21:50.987Z</time></trkpt><trkpt lat="44.289874" lon="10.2061061"><ele>1085.0</ele><time>2026-04-19T13:21:51.986Z</time></trkpt><trkpt lat="44.2899587" lon="10.2061604"><ele>1085.0</ele><time>2026-04-19T13:21:52.986Z</time></trkpt><trkpt lat="44.2900515" lon="10.2061998"><ele>1085.0</ele><time>2026-04-19T13:21:53.987Z</time></trkpt><trkpt lat="44.2901527" lon="10.206061"><ele>1085.0</ele><time>2026-04-19T13:21:54.986Z</time></trkpt><trkpt lat="44.2902445" lon="10.205984"><ele>1085.0</ele><time>2026-04-19T13:21:55.987Z</time></trkpt><trkpt lat="44.2903291" lon="10.2058485"><ele>1085.0</ele><time>2026-04-19T13:21:56.987Z</time></trkpt><trkpt lat="44.2904129" lon="10.2057392"><ele>1085.0</ele><time>2026-04-19T13:21:57.986Z</time></trkpt><trkpt lat="44.2905168" lon="10.2056345"><ele>1085.0</ele><time>2026-04-19T13:21:58.987Z</time></trkpt><trkpt lat="44.2906347" lon="10.2055542"><ele>1085.0</ele><time>2026-04-19T13:21:59.987Z</time></trkpt><trkpt lat="44.2907479" lon="10.2054827"><ele>1086.0</ele><time>2026-04-19T13:22:00.987Z</time></trkpt><trkpt lat="44.2908442" lon="10.2053998"><ele>1087.0</ele><time>2026-04-19T13:22:01.986Z</time></trkpt><trkpt lat="44.2909242" lon="10.2052853"><ele>1088.0</ele><time>2026-04-19T13:22:02.987Z</time></trkpt><trkpt lat="44.2909893" lon="10.2051399"><ele>1089.0</ele><time>2026-04-19T13:22:03.987Z</time></trkpt><trkpt lat="44.2910553" lon="10.2049649"><ele>1085.5</ele><time>2026-04-19T13:22:04.987Z</time></trkpt><trkpt lat="44.2911425" lon="10.2047847"><ele>1082.0</ele><time>2026-04-19T13:22:05.986Z</time></trkpt><trkpt lat="44.2912234" lon="10.2046453"><ele>1078.5</ele><time>2026-04-19T13:22:06.986Z</time></trkpt><trkpt lat="44.2912892" lon="10.2045403"><ele>1075.0</ele><time>2026-04-19T13:22:07.987Z</time></trkpt><trkpt lat="44.291347" lon="10.2044712"><ele>1079.0</ele><time>2026-04-19T13:22:08.987Z</time></trkpt><trkpt lat="44.2914553" lon="10.2044664"><ele>1083.0</ele><time>2026-04-19T13:22:10.986Z</time></trkpt><trkpt lat="44.2915125" lon="10.2045312"><ele>1087.0</ele><time>2026-04-19T13:22:11.986Z</time></trkpt><trkpt lat="44.2915746" lon="10.2046417"><ele>1091.0</ele><time>2026-04-19T13:22:12.987Z</time></trkpt><trkpt lat="44.2916527" lon="10.2047844"><ele>1095.0</ele><time>2026-04-19T13:22:13.987Z</time></trkpt><trkpt lat="44.2917311" lon="10.2049064"><ele>1099.0</ele><time>2026-04-19T13:22:14.986Z</time></trkpt><trkpt lat="44.2918135" lon="10.205012"><ele>1103.0</ele><time>2026-04-19T13:22:15.987Z</time></trkpt><trkpt lat="44.2919054" lon="10.2050888"><ele>1107.0</ele><time>2026-04-19T13:22:16.986Z</time></trkpt><trkpt lat="44.2920089" lon="10.2051306"><ele>1111.0</ele><time>2026-04-19T13:22:17.986Z</time></trkpt><trkpt lat="44.2921208" lon="10.205109"><ele>1115.0</ele><time>2026-04-19T13:22:18.987Z</time></trkpt><trkpt lat="44.2922402" lon="10.205029"><ele>1116.0</ele><time>2026-04-19T13:22:19.987Z</time></trkpt><trkpt lat="44.2923582" lon="10.2049346"><ele>1117.0</ele><time>2026-04-19T13:22:20.986Z</time></trkpt><trkpt lat="44.2924864" lon="10.2048533"><ele>1118.0</ele><time>2026-04-19T13:22:21.987Z</time></trkpt><trkpt lat="44.292607" lon="10.2047884"><ele>1119.0</ele><time>2026-04-19T13:22:22.987Z</time></trkpt><trkpt lat="44.2927126" lon="10.2047621"><ele>1119.0</ele><time>2026-04-19T13:22:23.986Z</time></trkpt><trkpt lat="44.2927931" lon="10.2047631"><ele>1119.0</ele><time>2026-04-19T13:22:24.987Z</time></trkpt><trkpt lat="44.2928574" lon="10.2047988"><ele>1119.0</ele><time>2026-04-19T13:22:25.985Z</time></trkpt><trkpt lat="44.2928976" lon="10.2048827"><ele>1119.0</ele><time>2026-04-19T13:22:26.987Z</time></trkpt><trkpt lat="44.2929224" lon="10.205007"><ele>1119.0</ele><time>2026-04-19T13:22:27.986Z</time></trkpt><trkpt lat="44.2929524" lon="10.2051527"><ele>1119.0</ele><time>2026-04-19T13:22:28.986Z</time></trkpt><trkpt lat="44.2930087" lon="10.2052779"><ele>1117.25</ele><time>2026-04-19T13:22:29.985Z</time></trkpt><trkpt lat="44.2931014" lon="10.2053922"><ele>1115.5</ele><time>2026-04-19T13:22:30.986Z</time></trkpt><trkpt lat="44.2931915" lon="10.2055148"><ele>1113.75</ele><time>2026-04-19T13:22:31.987Z</time></trkpt><trkpt lat="44.2933196" lon="10.2056449"><ele>1112.0</ele><time>2026-04-19T13:22:32.987Z</time></trkpt><trkpt lat="44.2934229" lon="10.2057973"><ele>1116.0</ele><time>2026-04-19T13:22:33.986Z</time></trkpt><trkpt lat="44.2935293" lon="10.2059379"><ele>1120.0</ele><time>2026-04-19T13:22:34.986Z</time></trkpt><trkpt lat="44.2936485" lon="10.2060527"><ele>1124.0</ele><time>2026-04-19T13:22:35.987Z</time></trkpt><trkpt lat="44.2937847" lon="10.2061339"><ele>1128.0</ele><time>2026-04-19T13:22:36.987Z</time></trkpt><trkpt lat="44.2939454" lon="10.206214"><ele>1128.0</ele><time>2026-04-19T13:22:37.987Z</time></trkpt><trkpt lat="44.2941291" lon="10.2062366"><ele>1128.0</ele><time>2026-04-19T13:22:38.987Z</time></trkpt><trkpt lat="44.2942967" lon="10.2062564"><ele>1128.0</ele><time>2026-04-19T13:22:39.986Z</time></trkpt><trkpt lat="44.294445" lon="10.2062302"><ele>1128.0</ele><time>2026-04-19T13:22:40.986Z</time></trkpt><trkpt lat="44.2945769" lon="10.2062284"><ele>1128.0</ele><time>2026-04-19T13:22:41.987Z</time></trkpt><trkpt lat="44.294678" lon="10.2062318"><ele>1128.0</ele><time>2026-04-19T13:22:42.987Z</time></trkpt><trkpt lat="44.2947679" lon="10.2062624"><ele>1128.0</ele><time>2026-04-19T13:22:43.985Z</time></trkpt><trkpt lat="44.2948506" lon="10.2063133"><ele>1128.0</ele><time>2026-04-19T13:22:44.987Z</time></trkpt><trkpt lat="44.2949234" lon="10.206395"><ele>1131.2</ele><time>2026-04-19T13:22:45.987Z</time></trkpt><trkpt lat="44.2949894" lon="10.2064959"><ele>1134.4</ele><time>2026-04-19T13:22:46.987Z</time></trkpt><trkpt lat="44.2950226" lon="10.2066268"><ele>1137.6000000000001</ele><time>2026-04-19T13:22:47.987Z</time></trkpt><trkpt lat="44.2950586" lon="10.2067484"><ele>1140.8</ele><time>2026-04-19T13:22:48.986Z</time></trkpt><trkpt lat="44.295092" lon="10.2068613"><ele>1144.0</ele><time>2026-04-19T13:22:49.987Z</time></trkpt><trkpt lat="44.2951239" lon="10.2069738"><ele>1144.0</ele><time>2026-04-19T13:22:50.986Z</time></trkpt><trkpt lat="44.2951539" lon="10.2070871"><ele>1144.0</ele><time>2026-04-19T13:22:51.987Z</time></trkpt><trkpt lat="44.2951779" lon="10.2071907"><ele>1144.0</ele><time>2026-04-19T13:22:52.986Z</time></trkpt><trkpt lat="44.2952008" lon="10.2073011"><ele>1144.0</ele><time>2026-04-19T13:22:53.986Z</time></trkpt><trkpt lat="44.2952167" lon="10.2074173"><ele>1144.0</ele><time>2026-04-19T13:22:54.986Z</time></trkpt><trkpt lat="44.2952303" lon="10.2075312"><ele>1144.0</ele><time>2026-04-19T13:22:55.987Z</time></trkpt><trkpt lat="44.2952449" lon="10.2076401"><ele>1145.6666666666665</ele><time>2026-04-19T13:22:56.987Z</time></trkpt><trkpt lat="44.2952552" lon="10.2077497"><ele>1147.3333333333333</ele><time>2026-04-19T13:22:57.986Z</time></trkpt><trkpt lat="44.2952649" lon="10.2078597"><ele>1149.0</ele><time>2026-04-19T13:22:58.984Z</time></trkpt><trkpt lat="44.2952762" lon="10.2079718"><ele>1150.6666666666667</ele><time>2026-04-19T13:22:59.985Z</time></trkpt><trkpt lat="44.2952907" lon="10.2080835"><ele>1152.3333333333335</ele><time>2026-04-19T13:23:00.986Z</time></trkpt><trkpt lat="44.2953045" lon="10.2082088"><ele>1154.0</ele><time>2026-04-19T13:23:01.986Z</time></trkpt><trkpt lat="44.295329" lon="10.2083493"><ele>1154.25</ele><time>2026-04-19T13:23:02.985Z</time></trkpt><trkpt lat="44.2953761" lon="10.2085109"><ele>1154.5</ele><time>2026-04-19T13:23:03.985Z</time></trkpt><trkpt lat="44.295433" lon="10.2086703"><ele>1154.75</ele><time>2026-04-19T13:23:04.986Z</time></trkpt><trkpt lat="44.2955127" lon="10.208852"><ele>1155.0</ele><time>2026-04-19T13:23:05.986Z</time></trkpt><trkpt lat="44.2955971" lon="10.209054"><ele>1152.0</ele><time>2026-04-19T13:23:06.986Z</time></trkpt><trkpt lat="44.2956729" lon="10.2092587"><ele>1149.0</ele><time>2026-04-19T13:23:07.984Z</time></trkpt><trkpt lat="44.2957514" lon="10.2094852"><ele>1146.0</ele><time>2026-04-19T13:23:08.986Z</time></trkpt><trkpt lat="44.2958298" lon="10.2097186"><ele>1149.0</ele><time>2026-04-19T13:23:09.986Z</time></trkpt><trkpt lat="44.2959213" lon="10.209968"><ele>1152.0</ele><time>2026-04-19T13:23:10.985Z</time></trkpt><trkpt lat="44.2960122" lon="10.2102198"><ele>1155.0</ele><time>2026-04-19T13:23:11.986Z</time></trkpt><trkpt lat="44.2961123" lon="10.21045"><ele>1155.3333333333333</ele><time>2026-04-19T13:23:12.984Z</time></trkpt><trkpt lat="44.2962" lon="10.2106581"><ele>1155.6666666666665</ele><time>2026-04-19T13:23:13.986Z</time></trkpt><trkpt lat="44.2962982" lon="10.2108613"><ele>1156.0</ele><time>2026-04-19T13:23:14.986Z</time></trkpt><trkpt lat="44.2964135" lon="10.2110443"><ele>1160.3333333333333</ele><time>2026-04-19T13:23:15.986Z</time></trkpt><trkpt lat="44.2965308" lon="10.211227"><ele>1164.6666666666667</ele><time>2026-04-19T13:23:16.985Z</time></trkpt><trkpt lat="44.2966465" lon="10.2113917"><ele>1169.0</ele><time>2026-04-19T13:23:17.986Z</time></trkpt><trkpt lat="44.2967707" lon="10.2115659"><ele>1169.0</ele><time>2026-04-19T13:23:18.986Z</time></trkpt><trkpt lat="44.2969075" lon="10.2117286"><ele>1169.0</ele><time>2026-04-19T13:23:19.987Z</time></trkpt><trkpt lat="44.2970516" lon="10.2119043"><ele>1169.0</ele><time>2026-04-19T13:23:20.986Z</time></trkpt><trkpt lat="44.2972018" lon="10.2120844"><ele>1172.3333333333335</ele><time>2026-04-19T13:23:21.985Z</time></trkpt><trkpt lat="44.2973519" lon="10.2122459"><ele>1175.6666666666667</ele><time>2026-04-19T13:23:22.984Z</time></trkpt><trkpt lat="44.2975056" lon="10.2123849"><ele>1179.0</ele><time>2026-04-19T13:23:23.984Z</time></trkpt><trkpt lat="44.2976425" lon="10.2125156"><ele>1179.0</ele><time>2026-04-19T13:23:24.986Z</time></trkpt><trkpt lat="44.2977629" lon="10.2126559"><ele>1179.0</ele><time>2026-04-19T13:23:25.986Z</time></trkpt><trkpt lat="44.2978746" lon="10.2127878"><ele>1179.0</ele><time>2026-04-19T13:23:26.985Z</time></trkpt><trkpt lat="44.2979839" lon="10.2128868"><ele>1179.0</ele><time>2026-04-19T13:23:27.985Z</time></trkpt><trkpt lat="44.2980961" lon="10.2129738"><ele>1180.25</ele><time>2026-04-19T13:23:28.985Z</time></trkpt><trkpt lat="44.2982011" lon="10.2130317"><ele>1181.5</ele><time>2026-04-19T13:23:29.985Z</time></trkpt><trkpt lat="44.2983025" lon="10.2131009"><ele>1182.75</ele><time>2026-04-19T13:23:30.986Z</time></trkpt><trkpt lat="44.2984068" lon="10.2131401"><ele>1184.0</ele><time>2026-04-19T13:23:31.985Z</time></trkpt><trkpt lat="44.2985245" lon="10.2131398"><ele>1184.0</ele><time>2026-04-19T13:23:32.986Z</time></trkpt><trkpt lat="44.2986038" lon="10.2129641"><ele>1184.0</ele><time>2026-04-19T13:23:33.985Z</time></trkpt><trkpt lat="44.2987093" lon="10.212945"><ele>1184.0</ele><time>2026-04-19T13:23:34.984Z</time></trkpt><trkpt lat="44.2988243" lon="10.2129459"><ele>1184.0</ele><time>2026-04-19T13:23:35.985Z</time></trkpt><trkpt lat="44.298943" lon="10.2129859"><ele>1184.25</ele><time>2026-04-19T13:23:36.986Z</time></trkpt><trkpt lat="44.2990571" lon="10.2130819"><ele>1184.5</ele><time>2026-04-19T13:23:37.985Z</time></trkpt><trkpt lat="44.2991627" lon="10.2132008"><ele>1184.75</ele><time>2026-04-19T13:23:38.986Z</time></trkpt><trkpt lat="44.2992514" lon="10.2133008"><ele>1185.0</ele><time>2026-04-19T13:23:39.986Z</time></trkpt><trkpt lat="44.2993308" lon="10.2133674"><ele>1185.0</ele><time>2026-04-19T13:23:40.985Z</time></trkpt><trkpt lat="44.2994078" lon="10.2133989"><ele>1185.0</ele><time>2026-04-19T13:23:41.985Z</time></trkpt><trkpt lat="44.2994887" lon="10.2133889"><ele>1185.0</ele><time>2026-04-19T13:23:42.985Z</time></trkpt><trkpt lat="44.2995658" lon="10.2133352"><ele>1185.0</ele><time>2026-04-19T13:23:43.986Z</time></trkpt><trkpt lat="44.2996219" lon="10.213233"><ele>1185.0</ele><time>2026-04-19T13:23:44.985Z</time></trkpt><trkpt lat="44.299646" lon="10.2131038"><ele>1185.0</ele><time>2026-04-19T13:23:45.986Z</time></trkpt><trkpt lat="44.2996393" lon="10.2129686"><ele>1185.0</ele><time>2026-04-19T13:23:46.986Z</time></trkpt><trkpt lat="44.2995871" lon="10.2128176"><ele>1185.0</ele><time>2026-04-19T13:23:47.986Z</time></trkpt><trkpt lat="44.2995274" lon="10.2126492"><ele>1185.0</ele><time>2026-04-19T13:23:48.986Z</time></trkpt><trkpt lat="44.2994816" lon="10.2124786"><ele>1185.0</ele><time>2026-04-19T13:23:49.986Z</time></trkpt><trkpt lat="44.299448" lon="10.2122946"><ele>1184.4</ele><time>2026-04-19T13:23:50.986Z</time></trkpt><trkpt lat="44.2994226" lon="10.2121378"><ele>1183.8</ele><time>2026-04-19T13:23:51.985Z</time></trkpt><trkpt lat="44.2993982" lon="10.2119964"><ele>1183.2</ele><time>2026-04-19T13:23:52.985Z</time></trkpt><trkpt lat="44.2993821" lon="10.2118664"><ele>1182.6</ele><time>2026-04-19T13:23:53.986Z</time></trkpt><trkpt lat="44.2993925" lon="10.2117418"><ele>1182.0</ele><time>2026-04-19T13:23:54.986Z</time></trkpt><trkpt lat="44.2994331" lon="10.2116193"><ele>1182.0</ele><time>2026-04-19T13:23:55.985Z</time></trkpt><trkpt lat="44.2994995" lon="10.2115204"><ele>1182.0</ele><time>2026-04-19T13:23:56.986Z</time></trkpt><trkpt lat="44.2995783" lon="10.2114613"><ele>1182.0</ele><time>2026-04-19T13:23:57.986Z</time></trkpt><trkpt lat="44.2996784" lon="10.2114667"><ele>1182.0</ele><time>2026-04-19T13:23:58.985Z</time></trkpt><trkpt lat="44.2997677" lon="10.211521"><ele>1182.0</ele><time>2026-04-19T13:23:59.986Z</time></trkpt><trkpt lat="44.2998316" lon="10.2116222"><ele>1187.25</ele><time>2026-04-19T13:24:00.986Z</time></trkpt><trkpt lat="44.2998729" lon="10.2117735"><ele>1192.5</ele><time>2026-04-19T13:24:01.986Z</time></trkpt><trkpt lat="44.2998933" lon="10.2119644"><ele>1197.75</ele><time>2026-04-19T13:24:02.985Z</time></trkpt><trkpt lat="44.2999226" lon="10.2121549"><ele>1203.0</ele><time>2026-04-19T13:24:03.985Z</time></trkpt><trkpt lat="44.2999725" lon="10.2123441"><ele>1203.0</ele><time>2026-04-19T13:24:04.986Z</time></trkpt><trkpt lat="44.3000393" lon="10.2125262"><ele>1203.0</ele><time>2026-04-19T13:24:05.984Z</time></trkpt><trkpt lat="44.3001381" lon="10.2126833"><ele>1203.0</ele><time>2026-04-19T13:24:06.985Z</time></trkpt><trkpt lat="44.3002572" lon="10.2128239"><ele>1203.0</ele><time>2026-04-19T13:24:07.985Z</time></trkpt><trkpt lat="44.3003854" lon="10.2129768"><ele>1203.0</ele><time>2026-04-19T13:24:08.985Z</time></trkpt><trkpt lat="44.3005485" lon="10.2130848"><ele>1203.0</ele><time>2026-04-19T13:24:09.986Z</time></trkpt><trkpt lat="44.3007058" lon="10.2132158"><ele>1207.0</ele><time>2026-04-19T13:24:10.986Z</time></trkpt><trkpt lat="44.3008755" lon="10.213355"><ele>1211.0</ele><time>2026-04-19T13:24:11.986Z</time></trkpt><trkpt lat="44.3010348" lon="10.2135051"><ele>1215.0</ele><time>2026-04-19T13:24:12.986Z</time></trkpt><trkpt lat="44.3011895" lon="10.2136558"><ele>1215.0</ele><time>2026-04-19T13:24:13.986Z</time></trkpt><trkpt lat="44.3013307" lon="10.2138192"><ele>1215.0</ele><time>2026-04-19T13:24:14.985Z</time></trkpt><trkpt lat="44.301423" lon="10.2139606"><ele>1215.0</ele><time>2026-04-19T13:24:15.986Z</time></trkpt><trkpt lat="44.3015244" lon="10.2140953"><ele>1217.0</ele><time>2026-04-19T13:24:16.986Z</time></trkpt><trkpt lat="44.3016224" lon="10.2142063"><ele>1219.0</ele><time>2026-04-19T13:24:17.987Z</time></trkpt><trkpt lat="44.3017161" lon="10.2143065"><ele>1221.0</ele><time>2026-04-19T13:24:18.986Z</time></trkpt><trkpt lat="44.3018355" lon="10.2143361"><ele>1223.0</ele><time>2026-04-19T13:24:19.985Z</time></trkpt><trkpt lat="44.3019373" lon="10.2143861"><ele>1223.0</ele><time>2026-04-19T13:24:20.986Z</time></trkpt><trkpt lat="44.3020364" lon="10.2143892"><ele>1223.0</ele><time>2026-04-19T13:24:21.986Z</time></trkpt><trkpt lat="44.3021194" lon="10.2144538"><ele>1223.0</ele><time>2026-04-19T13:24:22.986Z</time></trkpt><trkpt lat="44.3022054" lon="10.2145466"><ele>1223.0</ele><time>2026-04-19T13:24:23.986Z</time></trkpt><trkpt lat="44.3022489" lon="10.2146874"><ele>1223.0</ele><time>2026-04-19T13:24:24.986Z</time></trkpt><trkpt lat="44.3022947" lon="10.2148579"><ele>1228.6666666666667</ele><time>2026-04-19T13:24:25.985Z</time></trkpt><trkpt lat="44.3023361" lon="10.2150491"><ele>1234.3333333333333</ele><time>2026-04-19T13:24:26.984Z</time></trkpt><trkpt lat="44.3023855" lon="10.2152718"><ele>1240.0</ele><time>2026-04-19T13:24:27.985Z</time></trkpt><trkpt lat="44.3024378" lon="10.2155103"><ele>1238.75</ele><time>2026-04-19T13:24:28.986Z</time></trkpt><trkpt lat="44.3024898" lon="10.2157098"><ele>1237.5</ele><time>2026-04-19T13:24:29.986Z</time></trkpt><trkpt lat="44.302555" lon="10.2158827"><ele>1236.25</ele><time>2026-04-19T13:24:30.986Z</time></trkpt><trkpt lat="44.3026302" lon="10.2160262"><ele>1235.0</ele><time>2026-04-19T13:24:31.985Z</time></trkpt><trkpt lat="44.302723" lon="10.216146"><ele>1235.0</ele><time>2026-04-19T13:24:32.985Z</time></trkpt><trkpt lat="44.3028326" lon="10.2162521"><ele>1235.0</ele><time>2026-04-19T13:24:33.986Z</time></trkpt><trkpt lat="44.3029619" lon="10.2163603"><ele>1235.0</ele><time>2026-04-19T13:24:34.985Z</time></trkpt><trkpt lat="44.3030914" lon="10.216469"><ele>1235.0</ele><time>2026-04-19T13:24:35.985Z</time></trkpt><trkpt lat="44.3032099" lon="10.2165776"><ele>1237.75</ele><time>2026-04-19T13:24:36.985Z</time></trkpt><trkpt lat="44.3033172" lon="10.2166922"><ele>1240.5</ele><time>2026-04-19T13:24:37.985Z</time></trkpt><trkpt lat="44.3034104" lon="10.2168115"><ele>1243.25</ele><time>2026-04-19T13:24:38.985Z</time></trkpt><trkpt lat="44.3035005" lon="10.2169124"><ele>1246.0</ele><time>2026-04-19T13:24:39.986Z</time></trkpt><trkpt lat="44.3035855" lon="10.2170096"><ele>1246.0</ele><time>2026-04-19T13:24:40.986Z</time></trkpt><trkpt lat="44.303664" lon="10.2170986"><ele>1246.0</ele><time>2026-04-19T13:24:41.985Z</time></trkpt><trkpt lat="44.3037343" lon="10.2171742"><ele>1246.0</ele><time>2026-04-19T13:24:42.986Z</time></trkpt><trkpt lat="44.3038014" lon="10.2172223"><ele>1246.0</ele><time>2026-04-19T13:24:43.986Z</time></trkpt><trkpt lat="44.3038663" lon="10.2172413"><ele>1246.0</ele><time>2026-04-19T13:24:44.986Z</time></trkpt><trkpt lat="44.3039293" lon="10.2172252"><ele>1246.0</ele><time>2026-04-19T13:24:45.985Z</time></trkpt><trkpt lat="44.3040489" lon="10.2171762"><ele>1246.3333333333333</ele><time>2026-04-19T13:24:47.985Z</time></trkpt><trkpt lat="44.3041449" lon="10.2171011"><ele>1246.6666666666665</ele><time>2026-04-19T13:24:49.985Z</time></trkpt><trkpt lat="44.3042059" lon="10.2170031"><ele>1247.0</ele><time>2026-04-19T13:24:51.985Z</time></trkpt><trkpt lat="44.3042619" lon="10.2169316"><ele>1247.3333333333333</ele><time>2026-04-19T13:24:53.986Z</time></trkpt><trkpt lat="44.3043404" lon="10.2169194"><ele>1247.6666666666667</ele><time>2026-04-19T13:24:56.986Z</time></trkpt><trkpt lat="44.3044116" lon="10.2169264"><ele>1248.0</ele><time>2026-04-19T13:25:16.985Z</time></trkpt><trkpt lat="44.304525" lon="10.2169823"><ele>1248.0</ele><time>2026-04-19T13:25:18.985Z</time></trkpt><trkpt lat="44.3045993" lon="10.2170189"><ele>1248.0</ele><time>2026-04-19T13:25:19.986Z</time></trkpt><trkpt lat="44.3046847" lon="10.217066"><ele>1248.0</ele><time>2026-04-19T13:25:20.986Z</time></trkpt><trkpt lat="44.304778" lon="10.2171352"><ele>1248.0</ele><time>2026-04-19T13:25:21.985Z</time></trkpt><trkpt lat="44.3048744" lon="10.2172305"><ele>1248.0</ele><time>2026-04-19T13:25:22.986Z</time></trkpt><trkpt lat="44.3049829" lon="10.217355"><ele>1247.0</ele><time>2026-04-19T13:25:23.986Z</time></trkpt><trkpt lat="44.3051019" lon="10.2174969"><ele>1246.0</ele><time>2026-04-19T13:25:24.986Z</time></trkpt><trkpt lat="44.305218" lon="10.2176314"><ele>1245.0</ele><time>2026-04-19T13:25:25.986Z</time></trkpt><trkpt lat="44.3053267" lon="10.2177583"><ele>1244.0</ele><time>2026-04-19T13:25:26.986Z</time></trkpt><trkpt lat="44.3054337" lon="10.2178798"><ele>1244.0</ele><time>2026-04-19T13:25:27.986Z</time></trkpt><trkpt lat="44.3055326" lon="10.2179892"><ele>1244.0</ele><time>2026-04-19T13:25:28.985Z</time></trkpt><trkpt lat="44.305613" lon="10.2180957"><ele>1244.0</ele><time>2026-04-19T13:25:29.985Z</time></trkpt><trkpt lat="44.3056766" lon="10.2182108"><ele>1244.0</ele><time>2026-04-19T13:25:30.986Z</time></trkpt><trkpt lat="44.3057164" lon="10.2183348"><ele>1244.0</ele><time>2026-04-19T13:25:31.986Z</time></trkpt><trkpt lat="44.3057196" lon="10.2184815"><ele>1241.75</ele><time>2026-04-19T13:25:32.986Z</time></trkpt><trkpt lat="44.3056876" lon="10.2186456"><ele>1239.5</ele><time>2026-04-19T13:25:33.986Z</time></trkpt><trkpt lat="44.3056458" lon="10.2188102"><ele>1237.25</ele><time>2026-04-19T13:25:34.984Z</time></trkpt><trkpt lat="44.3056097" lon="10.2189643"><ele>1235.0</ele><time>2026-04-19T13:25:35.986Z</time></trkpt><trkpt lat="44.30559" lon="10.2190987"><ele>1234.3333333333335</ele><time>2026-04-19T13:25:36.985Z</time></trkpt><trkpt lat="44.3055908" lon="10.2192229"><ele>1233.6666666666667</ele><time>2026-04-19T13:25:37.986Z</time></trkpt><trkpt lat="44.3056094" lon="10.2193295"><ele>1233.0</ele><time>2026-04-19T13:25:38.986Z</time></trkpt><trkpt lat="44.3056433" lon="10.2194269"><ele>1232.3333333333333</ele><time>2026-04-19T13:25:39.985Z</time></trkpt><trkpt lat="44.3057" lon="10.2195149"><ele>1231.6666666666665</ele><time>2026-04-19T13:25:40.986Z</time></trkpt><trkpt lat="44.3057714" lon="10.2195899"><ele>1231.0</ele><time>2026-04-19T13:25:41.986Z</time></trkpt><trkpt lat="44.3058636" lon="10.2196504"><ele>1231.0</ele><time>2026-04-19T13:25:42.985Z</time></trkpt><trkpt lat="44.3059746" lon="10.2197069"><ele>1231.0</ele><time>2026-04-19T13:25:43.985Z</time></trkpt><trkpt lat="44.3061015" lon="10.2197638"><ele>1231.0</ele><time>2026-04-19T13:25:44.985Z</time></trkpt><trkpt lat="44.3062304" lon="10.2197976"><ele>1231.0</ele><time>2026-04-19T13:25:45.986Z</time></trkpt><trkpt lat="44.3063714" lon="10.2198142"><ele>1227.3333333333333</ele><time>2026-04-19T13:25:46.986Z</time></trkpt><trkpt lat="44.3065365" lon="10.2198092"><ele>1223.6666666666667</ele><time>2026-04-19T13:25:47.986Z</time></trkpt><trkpt lat="44.3066915" lon="10.2197979"><ele>1220.0</ele><time>2026-04-19T13:25:48.985Z</time></trkpt><trkpt lat="44.3068447" lon="10.2197915"><ele>1220.0</ele><time>2026-04-19T13:25:49.986Z</time></trkpt><trkpt lat="44.3069925" lon="10.2197999"><ele>1220.0</ele><time>2026-04-19T13:25:50.986Z</time></trkpt><trkpt lat="44.3071356" lon="10.2198432"><ele>1220.0</ele><time>2026-04-19T13:25:51.986Z</time></trkpt><trkpt lat="44.3072711" lon="10.2199063"><ele>1220.0</ele><time>2026-04-19T13:25:52.984Z</time></trkpt><trkpt lat="44.3073864" lon="10.2199763"><ele>1219.0</ele><time>2026-04-19T13:25:53.985Z</time></trkpt><trkpt lat="44.3074795" lon="10.2200473"><ele>1218.0</ele><time>2026-04-19T13:25:54.986Z</time></trkpt><trkpt lat="44.3075537" lon="10.2201304"><ele>1217.0</ele><time>2026-04-19T13:25:55.985Z</time></trkpt><trkpt lat="44.3076022" lon="10.2202326"><ele>1216.0</ele><time>2026-04-19T13:25:56.986Z</time></trkpt><trkpt lat="44.3076206" lon="10.2203492"><ele>1215.0</ele><time>2026-04-19T13:25:57.985Z</time></trkpt><trkpt lat="44.3076079" lon="10.2204752"><ele>1215.0</ele><time>2026-04-19T13:25:58.985Z</time></trkpt><trkpt lat="44.3075414" lon="10.2206006"><ele>1215.0</ele><time>2026-04-19T13:25:59.986Z</time></trkpt><trkpt lat="44.3074427" lon="10.2207246"><ele>1215.0</ele><time>2026-04-19T13:26:00.984Z</time></trkpt><trkpt lat="44.3073131" lon="10.2208726"><ele>1215.0</ele><time>2026-04-19T13:26:01.985Z</time></trkpt><trkpt lat="44.307181" lon="10.221021"><ele>1215.0</ele><time>2026-04-19T13:26:02.986Z</time></trkpt><trkpt lat="44.3070442" lon="10.2211551"><ele>1215.0</ele><time>2026-04-19T13:26:03.985Z</time></trkpt><trkpt lat="44.3068897" lon="10.2212722"><ele>1215.0</ele><time>2026-04-19T13:26:04.986Z</time></trkpt><trkpt lat="44.3067176" lon="10.2213507"><ele>1215.0</ele><time>2026-04-19T13:26:05.985Z</time></trkpt><trkpt lat="44.3065504" lon="10.2214013"><ele>1215.0</ele><time>2026-04-19T13:26:06.985Z</time></trkpt><trkpt lat="44.3063828" lon="10.2214319"><ele>1215.0</ele><time>2026-04-19T13:26:07.985Z</time></trkpt><trkpt lat="44.3062206" lon="10.2214597"><ele>1213.0</ele><time>2026-04-19T13:26:08.986Z</time></trkpt><trkpt lat="44.3060881" lon="10.2214884"><ele>1211.0</ele><time>2026-04-19T13:26:09.986Z</time></trkpt><trkpt lat="44.3059688" lon="10.2215404"><ele>1209.0</ele><time>2026-04-19T13:26:10.985Z</time></trkpt><trkpt lat="44.3058643" lon="10.2216362"><ele>1207.0</ele><time>2026-04-19T13:26:11.985Z</time></trkpt><trkpt lat="44.3057861" lon="10.2217757"><ele>1207.0</ele><time>2026-04-19T13:26:12.986Z</time></trkpt><trkpt lat="44.305727" lon="10.2219642"><ele>1207.0</ele><time>2026-04-19T13:26:13.985Z</time></trkpt><trkpt lat="44.3056769" lon="10.2221858"><ele>1207.0</ele><time>2026-04-19T13:26:14.985Z</time></trkpt><trkpt lat="44.3055997" lon="10.2224281"><ele>1207.3333333333333</ele><time>2026-04-19T13:26:15.984Z</time></trkpt><trkpt lat="44.3054921" lon="10.2226603"><ele>1207.6666666666667</ele><time>2026-04-19T13:26:16.984Z</time></trkpt><trkpt lat="44.3053883" lon="10.2228788"><ele>1208.0</ele><time>2026-04-19T13:26:17.985Z</time></trkpt><trkpt lat="44.3052762" lon="10.223089"><ele>1201.6666666666667</ele><time>2026-04-19T13:26:18.985Z</time></trkpt><trkpt lat="44.3051615" lon="10.2232803"><ele>1195.3333333333333</ele><time>2026-04-19T13:26:19.985Z</time></trkpt><trkpt lat="44.3050317" lon="10.2234429"><ele>1189.0</ele><time>2026-04-19T13:26:20.986Z</time></trkpt><trkpt lat="44.3048989" lon="10.2235812"><ele>1189.0</ele><time>2026-04-19T13:26:21.985Z</time></trkpt><trkpt lat="44.3047801" lon="10.2237209"><ele>1189.0</ele><time>2026-04-19T13:26:22.986Z</time></trkpt><trkpt lat="44.3046817" lon="10.2238864"><ele>1189.0</ele><time>2026-04-19T13:26:23.986Z</time></trkpt><trkpt lat="44.3046125" lon="10.2240809"><ele>1190.0</ele><time>2026-04-19T13:26:24.985Z</time></trkpt><trkpt lat="44.3045595" lon="10.2242577"><ele>1191.0</ele><time>2026-04-19T13:26:25.985Z</time></trkpt><trkpt lat="44.304529" lon="10.2244533"><ele>1192.0</ele><time>2026-04-19T13:26:26.985Z</time></trkpt><trkpt lat="44.3045317" lon="10.2246688"><ele>1193.0</ele><time>2026-04-19T13:26:27.985Z</time></trkpt><trkpt lat="44.3045531" lon="10.2249022"><ele>1190.25</ele><time>2026-04-19T13:26:28.985Z</time></trkpt><trkpt lat="44.3045747" lon="10.2251252"><ele>1187.5</ele><time>2026-04-19T13:26:29.985Z</time></trkpt><trkpt lat="44.3045948" lon="10.2253376"><ele>1184.75</ele><time>2026-04-19T13:26:30.984Z</time></trkpt><trkpt lat="44.3046127" lon="10.2255077"><ele>1182.0</ele><time>2026-04-19T13:26:31.985Z</time></trkpt><trkpt lat="44.3046392" lon="10.2256442"><ele>1181.8</ele><time>2026-04-19T13:26:32.986Z</time></trkpt><trkpt lat="44.304691" lon="10.225758"><ele>1181.6</ele><time>2026-04-19T13:26:33.985Z</time></trkpt><trkpt lat="44.3047616" lon="10.2258282"><ele>1181.3999999999999</ele><time>2026-04-19T13:26:34.986Z</time></trkpt><trkpt lat="44.3048578" lon="10.2258509"><ele>1181.2</ele><time>2026-04-19T13:26:35.986Z</time></trkpt><trkpt lat="44.3049621" lon="10.2258177"><ele>1181.0</ele><time>2026-04-19T13:26:36.985Z</time></trkpt><trkpt lat="44.305082" lon="10.2257329"><ele>1174.0</ele><time>2026-04-19T13:26:37.985Z</time></trkpt><trkpt lat="44.3052226" lon="10.2256081"><ele>1167.0</ele><time>2026-04-19T13:26:38.986Z</time></trkpt><trkpt lat="44.3053763" lon="10.2254751"><ele>1160.0</ele><time>2026-04-19T13:26:39.986Z</time></trkpt><trkpt lat="44.3055481" lon="10.2253546"><ele>1159.3333333333335</ele><time>2026-04-19T13:26:40.986Z</time></trkpt><trkpt lat="44.3057243" lon="10.2252471"><ele>1158.6666666666667</ele><time>2026-04-19T13:26:41.986Z</time></trkpt><trkpt lat="44.3059138" lon="10.2251602"><ele>1158.0</ele><time>2026-04-19T13:26:42.985Z</time></trkpt><trkpt lat="44.3061188" lon="10.2251006"><ele>1158.0</ele><time>2026-04-19T13:26:43.986Z</time></trkpt><trkpt lat="44.3063239" lon="10.2250561"><ele>1158.0</ele><time>2026-04-19T13:26:44.986Z</time></trkpt><trkpt lat="44.3065363" lon="10.2250211"><ele>1158.0</ele><time>2026-04-19T13:26:45.986Z</time></trkpt><trkpt lat="44.3067402" lon="10.2249886"><ele>1158.6666666666667</ele><time>2026-04-19T13:26:46.986Z</time></trkpt><trkpt lat="44.30694" lon="10.2249354"><ele>1159.3333333333335</ele><time>2026-04-19T13:26:47.985Z</time></trkpt><trkpt lat="44.3071425" lon="10.2248625"><ele>1160.0</ele><time>2026-04-19T13:26:48.986Z</time></trkpt><trkpt lat="44.3073373" lon="10.2247958"><ele>1155.3333333333335</ele><time>2026-04-19T13:26:49.986Z</time></trkpt><trkpt lat="44.3075285" lon="10.22474"><ele>1150.6666666666667</ele><time>2026-04-19T13:26:50.986Z</time></trkpt><trkpt lat="44.3077194" lon="10.2246996"><ele>1146.0</ele><time>2026-04-19T13:26:51.985Z</time></trkpt><trkpt lat="44.3079123" lon="10.2246824"><ele>1142.6666666666667</ele><time>2026-04-19T13:26:52.985Z</time></trkpt><trkpt lat="44.3081117" lon="10.2246927"><ele>1139.3333333333335</ele><time>2026-04-19T13:26:53.985Z</time></trkpt><trkpt lat="44.3083037" lon="10.2247218"><ele>1136.0</ele><time>2026-04-19T13:26:54.986Z</time></trkpt><trkpt lat="44.3084981" lon="10.2247806"><ele>1136.6666666666667</ele><time>2026-04-19T13:26:55.985Z</time></trkpt><trkpt lat="44.3086899" lon="10.2248705"><ele>1137.3333333333333</ele><time>2026-04-19T13:26:56.984Z</time></trkpt><trkpt lat="44.3088945" lon="10.2249837"><ele>1138.0</ele><time>2026-04-19T13:26:57.986Z</time></trkpt><trkpt lat="44.3091185" lon="10.2251074"><ele>1138.0</ele><time>2026-04-19T13:26:58.985Z</time></trkpt><trkpt lat="44.3093511" lon="10.2252328"><ele>1138.0</ele><time>2026-04-19T13:26:59.985Z</time></trkpt><trkpt lat="44.3095482" lon="10.2253413"><ele>1138.0</ele><time>2026-04-19T13:27:00.986Z</time></trkpt><trkpt lat="44.3097272" lon="10.2254528"><ele>1138.0</ele><time>2026-04-19T13:27:01.985Z</time></trkpt><trkpt lat="44.3098948" lon="10.2255938"><ele>1138.0</ele><time>2026-04-19T13:27:02.985Z</time></trkpt><trkpt lat="44.3100628" lon="10.2257635"><ele>1136.5</ele><time>2026-04-19T13:27:03.985Z</time></trkpt><trkpt lat="44.3102257" lon="10.2259787"><ele>1135.0</ele><time>2026-04-19T13:27:04.986Z</time></trkpt><trkpt lat="44.3103915" lon="10.2262224"><ele>1135.0</ele><time>2026-04-19T13:27:05.986Z</time></trkpt><trkpt lat="44.3105519" lon="10.2264578"><ele>1135.0</ele><time>2026-04-19T13:27:06.985Z</time></trkpt><trkpt lat="44.3107097" lon="10.2266938"><ele>1131.0</ele><time>2026-04-19T13:27:07.986Z</time></trkpt><trkpt lat="44.3108629" lon="10.226917"><ele>1127.0</ele><time>2026-04-19T13:27:08.985Z</time></trkpt><trkpt lat="44.3110084" lon="10.227116"><ele>1123.0</ele><time>2026-04-19T13:27:09.985Z</time></trkpt><trkpt lat="44.311148" lon="10.2272778"><ele>1125.6666666666665</ele><time>2026-04-19T13:27:10.985Z</time></trkpt><trkpt lat="44.3112812" lon="10.2274175"><ele>1128.3333333333333</ele><time>2026-04-19T13:27:11.985Z</time></trkpt><trkpt lat="44.3114033" lon="10.2275527"><ele>1131.0</ele><time>2026-04-19T13:27:12.985Z</time></trkpt><trkpt lat="44.3115075" lon="10.2277049"><ele>1126.75</ele><time>2026-04-19T13:27:13.986Z</time></trkpt><trkpt lat="44.3115926" lon="10.2278906"><ele>1122.5</ele><time>2026-04-19T13:27:14.985Z</time></trkpt><trkpt lat="44.3116518" lon="10.2280694"><ele>1118.25</ele><time>2026-04-19T13:27:15.985Z</time></trkpt><trkpt lat="44.3116882" lon="10.2282338"><ele>1114.0</ele><time>2026-04-19T13:27:16.984Z</time></trkpt><trkpt lat="44.3117076" lon="10.2283896"><ele>1114.0</ele><time>2026-04-19T13:27:17.986Z</time></trkpt><trkpt lat="44.3117019" lon="10.2285491"><ele>1114.0</ele><time>2026-04-19T13:27:18.986Z</time></trkpt><trkpt lat="44.3116458" lon="10.2287198"><ele>1114.0</ele><time>2026-04-19T13:27:19.986Z</time></trkpt><trkpt lat="44.3115719" lon="10.2289039"><ele>1114.0</ele><time>2026-04-19T13:27:20.984Z</time></trkpt><trkpt lat="44.3114991" lon="10.2290765"><ele>1116.0</ele><time>2026-04-19T13:27:21.985Z</time></trkpt><trkpt lat="44.3114169" lon="10.2292315"><ele>1118.0</ele><time>2026-04-19T13:27:22.986Z</time></trkpt><trkpt lat="44.3113213" lon="10.2293469"><ele>1120.0</ele><time>2026-04-19T13:27:23.986Z</time></trkpt><trkpt lat="44.3111916" lon="10.2294296"><ele>1122.0</ele><time>2026-04-19T13:27:24.986Z</time></trkpt><trkpt lat="44.3110495" lon="10.2295094"><ele>1122.0</ele><time>2026-04-19T13:27:25.985Z</time></trkpt><trkpt lat="44.3109105" lon="10.229618"><ele>1122.0</ele><time>2026-04-19T13:27:26.986Z</time></trkpt><trkpt lat="44.3107704" lon="10.2297596"><ele>1122.0</ele><time>2026-04-19T13:27:27.986Z</time></trkpt><trkpt lat="44.310656" lon="10.2298905"><ele>1121.6</ele><time>2026-04-19T13:27:28.986Z</time></trkpt><trkpt lat="44.3105559" lon="10.2300008"><ele>1121.2</ele><time>2026-04-19T13:27:29.985Z</time></trkpt><trkpt lat="44.3104723" lon="10.2300977"><ele>1120.8</ele><time>2026-04-19T13:27:30.985Z</time></trkpt><trkpt lat="44.3104225" lon="10.2301909"><ele>1120.4</ele><time>2026-04-19T13:27:31.986Z</time></trkpt><trkpt lat="44.3104061" lon="10.2302843"><ele>1120.0</ele><time>2026-04-19T13:27:32.986Z</time></trkpt><trkpt lat="44.310479" lon="10.23044"><ele>1120.0</ele><time>2026-04-19T13:27:34.985Z</time></trkpt><trkpt lat="44.3105618" lon="10.2304853"><ele>1120.0</ele><time>2026-04-19T13:27:35.986Z</time></trkpt><trkpt lat="44.3106586" lon="10.2305444"><ele>1120.0</ele><time>2026-04-19T13:27:36.986Z</time></trkpt><trkpt lat="44.3107915" lon="10.2305763"><ele>1120.0</ele><time>2026-04-19T13:27:37.985Z</time></trkpt><trkpt lat="44.3108869" lon="10.2306582"><ele>1120.0</ele><time>2026-04-19T13:27:38.986Z</time></trkpt><trkpt lat="44.3109737" lon="10.2307765"><ele>1115.75</ele><time>2026-04-19T13:27:39.985Z</time></trkpt><trkpt lat="44.3110529" lon="10.2309221"><ele>1111.5</ele><time>2026-04-19T13:27:40.985Z</time></trkpt><trkpt lat="44.3111431" lon="10.2310774"><ele>1107.25</ele><time>2026-04-19T13:27:41.985Z</time></trkpt><trkpt lat="44.3112414" lon="10.2312256"><ele>1103.0</ele><time>2026-04-19T13:27:42.985Z</time></trkpt><trkpt lat="44.3113547" lon="10.2313545"><ele>1100.25</ele><time>2026-04-19T13:27:43.986Z</time></trkpt><trkpt lat="44.3114766" lon="10.2314546"><ele>1097.5</ele><time>2026-04-19T13:27:44.985Z</time></trkpt><trkpt lat="44.3116192" lon="10.2315165"><ele>1094.75</ele><time>2026-04-19T13:27:45.986Z</time></trkpt><trkpt lat="44.311771" lon="10.2315587"><ele>1092.0</ele><time>2026-04-19T13:27:46.985Z</time></trkpt><trkpt lat="44.3119079" lon="10.2316142"><ele>1092.0</ele><time>2026-04-19T13:27:47.985Z</time></trkpt><trkpt lat="44.3120297" lon="10.2317035"><ele>1092.0</ele><time>2026-04-19T13:27:48.985Z</time></trkpt><trkpt lat="44.3121506" lon="10.2318478"><ele>1092.0</ele><time>2026-04-19T13:27:49.986Z</time></trkpt><trkpt lat="44.3122709" lon="10.2320334"><ele>1089.0</ele><time>2026-04-19T13:27:50.986Z</time></trkpt><trkpt lat="44.312398" lon="10.2322489"><ele>1086.0</ele><time>2026-04-19T13:27:51.986Z</time></trkpt><trkpt lat="44.3125244" lon="10.2324721"><ele>1083.0</ele><time>2026-04-19T13:27:52.984Z</time></trkpt><trkpt lat="44.3126518" lon="10.2326818"><ele>1083.0</ele><time>2026-04-19T13:27:53.986Z</time></trkpt><trkpt lat="44.3127818" lon="10.2328726"><ele>1083.0</ele><time>2026-04-19T13:27:54.984Z</time></trkpt><trkpt lat="44.3128968" lon="10.2330425"><ele>1083.0</ele><time>2026-04-19T13:27:55.984Z</time></trkpt><trkpt lat="44.3129916" lon="10.2331914"><ele>1085.4</ele><time>2026-04-19T13:27:56.985Z</time></trkpt><trkpt lat="44.3130646" lon="10.2333232"><ele>1087.8</ele><time>2026-04-19T13:27:57.985Z</time></trkpt><trkpt lat="44.3131166" lon="10.2334429"><ele>1090.2</ele><time>2026-04-19T13:27:58.985Z</time></trkpt><trkpt lat="44.3131384" lon="10.2335693"><ele>1092.6</ele><time>2026-04-19T13:27:59.986Z</time></trkpt><trkpt lat="44.3131228" lon="10.2336929"><ele>1095.0</ele><time>2026-04-19T13:28:00.986Z</time></trkpt><trkpt lat="44.3130668" lon="10.2338068"><ele>1095.0</ele><time>2026-04-19T13:28:01.985Z</time></trkpt><trkpt lat="44.3129778" lon="10.2338931"><ele>1095.0</ele><time>2026-04-19T13:28:02.986Z</time></trkpt><trkpt lat="44.3129056" lon="10.2339629"><ele>1095.0</ele><time>2026-04-19T13:28:03.985Z</time></trkpt><trkpt lat="44.3128607" lon="10.2340541"><ele>1095.0</ele><time>2026-04-19T13:28:04.985Z</time></trkpt><trkpt lat="44.3128532" lon="10.23415"><ele>1095.0</ele><time>2026-04-19T13:28:05.986Z</time></trkpt><trkpt lat="44.3128742" lon="10.2342365"><ele>1095.0</ele><time>2026-04-19T13:28:06.986Z</time></trkpt><trkpt lat="44.3130368" lon="10.234349"><ele>1085.75</ele><time>2026-04-19T13:28:08.985Z</time></trkpt><trkpt lat="44.3131537" lon="10.2344065"><ele>1076.5</ele><time>2026-04-19T13:28:09.985Z</time></trkpt><trkpt lat="44.3132619" lon="10.2344841"><ele>1067.25</ele><time>2026-04-19T13:28:10.985Z</time></trkpt><trkpt lat="44.3133688" lon="10.2346048"><ele>1058.0</ele><time>2026-04-19T13:28:11.986Z</time></trkpt><trkpt lat="44.3134629" lon="10.2347854"><ele>1061.3333333333335</ele><time>2026-04-19T13:28:12.985Z</time></trkpt><trkpt lat="44.3135544" lon="10.2349836"><ele>1064.6666666666667</ele><time>2026-04-19T13:28:13.985Z</time></trkpt><trkpt lat="44.3136223" lon="10.2351955"><ele>1068.0</ele><time>2026-04-19T13:28:14.986Z</time></trkpt><trkpt lat="44.3136717" lon="10.2353983"><ele>1068.0</ele><time>2026-04-19T13:28:15.986Z</time></trkpt><trkpt lat="44.3137103" lon="10.235576"><ele>1068.0</ele><time>2026-04-19T13:28:16.985Z</time></trkpt><trkpt lat="44.313766" lon="10.2357398"><ele>1068.0</ele><time>2026-04-19T13:28:17.986Z</time></trkpt><trkpt lat="44.3138674" lon="10.2358878"><ele>1068.0</ele><time>2026-04-19T13:28:18.986Z</time></trkpt><trkpt lat="44.3139874" lon="10.2360325"><ele>1064.0</ele><time>2026-04-19T13:28:19.986Z</time></trkpt><trkpt lat="44.3140968" lon="10.2361701"><ele>1060.0</ele><time>2026-04-19T13:28:20.985Z</time></trkpt><trkpt lat="44.3141855" lon="10.2363022"><ele>1056.0</ele><time>2026-04-19T13:28:21.985Z</time></trkpt><trkpt lat="44.3142485" lon="10.2364332"><ele>1052.0</ele><time>2026-04-19T13:28:22.985Z</time></trkpt><trkpt lat="44.3142805" lon="10.2365664"><ele>1052.0</ele><time>2026-04-19T13:28:23.985Z</time></trkpt><trkpt lat="44.3142889" lon="10.2366961"><ele>1052.0</ele><time>2026-04-19T13:28:24.985Z</time></trkpt><trkpt lat="44.3142799" lon="10.2368096"><ele>1052.0</ele><time>2026-04-19T13:28:25.985Z</time></trkpt><trkpt lat="44.3142848" lon="10.2369063"><ele>1052.0</ele><time>2026-04-19T13:28:26.986Z</time></trkpt><trkpt lat="44.3143602" lon="10.2370019"><ele>1052.0</ele><time>2026-04-19T13:28:28.985Z</time></trkpt><trkpt lat="44.3144405" lon="10.2369173"><ele>1052.0</ele><time>2026-04-19T13:28:30.985Z</time></trkpt><trkpt lat="44.3144501" lon="10.2368251"><ele>1052.0</ele><time>2026-04-19T13:28:31.986Z</time></trkpt><trkpt lat="44.3144489" lon="10.236691"><ele>1052.0</ele><time>2026-04-19T13:28:32.985Z</time></trkpt><trkpt lat="44.314448" lon="10.2365209"><ele>1052.0</ele><time>2026-04-19T13:28:33.985Z</time></trkpt><trkpt lat="44.3144348" lon="10.2363397"><ele>1052.0</ele><time>2026-04-19T13:28:34.986Z</time></trkpt><trkpt lat="44.3144055" lon="10.2361393"><ele>1048.75</ele><time>2026-04-19T13:28:35.985Z</time></trkpt><trkpt lat="44.3143584" lon="10.2359128"><ele>1045.5</ele><time>2026-04-19T13:28:36.985Z</time></trkpt><trkpt lat="44.3143069" lon="10.2357167"><ele>1042.25</ele><time>2026-04-19T13:28:37.985Z</time></trkpt><trkpt lat="44.3142588" lon="10.2355547"><ele>1039.0</ele><time>2026-04-19T13:28:38.985Z</time></trkpt><trkpt lat="44.3142148" lon="10.2354112"><ele>1037.0</ele><time>2026-04-19T13:28:39.985Z</time></trkpt><trkpt lat="44.3141769" lon="10.2352853"><ele>1035.0</ele><time>2026-04-19T13:28:40.985Z</time></trkpt><trkpt lat="44.3141436" lon="10.2351905"><ele>1033.0</ele><time>2026-04-19T13:28:41.985Z</time></trkpt><trkpt lat="44.3141225" lon="10.235107"><ele>1031.0</ele><time>2026-04-19T13:28:42.984Z</time></trkpt><trkpt lat="44.314132" lon="10.2349662"><ele>1029.0</ele><time>2026-04-19T13:28:44.985Z</time></trkpt><trkpt lat="44.3142167" lon="10.2349402"><ele>1027.0</ele><time>2026-04-19T13:28:46.985Z</time></trkpt><trkpt lat="44.3142738" lon="10.2350006"><ele>1027.0</ele><time>2026-04-19T13:28:47.986Z</time></trkpt><trkpt lat="44.3143438" lon="10.2351122"><ele>1027.0</ele><time>2026-04-19T13:28:48.986Z</time></trkpt><trkpt lat="44.3144268" lon="10.2352541"><ele>1027.0</ele><time>2026-04-19T13:28:49.985Z</time></trkpt><trkpt lat="44.3145196" lon="10.2354022"><ele>1027.0</ele><time>2026-04-19T13:28:50.986Z</time></trkpt><trkpt lat="44.3146346" lon="10.2355826"><ele>1020.6666666666666</ele><time>2026-04-19T13:28:51.985Z</time></trkpt><trkpt lat="44.3147552" lon="10.2357766"><ele>1014.3333333333333</ele><time>2026-04-19T13:28:52.985Z</time></trkpt><trkpt lat="44.3148844" lon="10.2360091"><ele>1008.0</ele><time>2026-04-19T13:28:53.986Z</time></trkpt><trkpt lat="44.3150115" lon="10.2362394"><ele>1008.0</ele><time>2026-04-19T13:28:54.985Z</time></trkpt><trkpt lat="44.3151379" lon="10.2364639"><ele>1008.0</ele><time>2026-04-19T13:28:55.986Z</time></trkpt><trkpt lat="44.3152545" lon="10.2366604"><ele>1008.0</ele><time>2026-04-19T13:28:56.985Z</time></trkpt><trkpt lat="44.3153612" lon="10.2368313"><ele>1013.0</ele><time>2026-04-19T13:28:57.984Z</time></trkpt><trkpt lat="44.3154664" lon="10.2370007"><ele>1018.0</ele><time>2026-04-19T13:28:58.986Z</time></trkpt><trkpt lat="44.3155917" lon="10.2371412"><ele>1023.0</ele><time>2026-04-19T13:28:59.985Z</time></trkpt><trkpt lat="44.3157338" lon="10.2372999"><ele>1018.75</ele><time>2026-04-19T13:29:00.985Z</time></trkpt><trkpt lat="44.3158627" lon="10.2374423"><ele>1014.5</ele><time>2026-04-19T13:29:01.985Z</time></trkpt><trkpt lat="44.315977" lon="10.2375805"><ele>1010.25</ele><time>2026-04-19T13:29:02.985Z</time></trkpt><trkpt lat="44.3160578" lon="10.2377092"><ele>1006.0</ele><time>2026-04-19T13:29:03.986Z</time></trkpt><trkpt lat="44.3161364" lon="10.2378487"><ele>1005.9999999999999</ele><time>2026-04-19T13:29:04.985Z</time></trkpt><trkpt lat="44.3161889" lon="10.237988"><ele>1006.0</ele><time>2026-04-19T13:29:05.986Z</time></trkpt><trkpt lat="44.3162382" lon="10.2381036"><ele>1006.0</ele><time>2026-04-19T13:29:06.984Z</time></trkpt><trkpt lat="44.3162761" lon="10.238218"><ele>1006.0</ele><time>2026-04-19T13:29:07.986Z</time></trkpt><trkpt lat="44.3163057" lon="10.2383247"><ele>1005.9999999999999</ele><time>2026-04-19T13:29:08.985Z</time></trkpt><trkpt lat="44.3163314" lon="10.2384129"><ele>1006.0</ele><time>2026-04-19T13:29:09.986Z</time></trkpt><trkpt lat="44.3163942" lon="10.2385424"><ele>1006.0</ele><time>2026-04-19T13:29:11.986Z</time></trkpt><trkpt lat="44.316488" lon="10.2385328"><ele>1005.9999999999999</ele><time>2026-04-19T13:29:13.985Z</time></trkpt><trkpt lat="44.3164931" lon="10.2384018"><ele>1005.9999999999999</ele><time>2026-04-19T13:29:15.985Z</time></trkpt><trkpt lat="44.3164546" lon="10.2383127"><ele>1006.0</ele><time>2026-04-19T13:29:16.986Z</time></trkpt><trkpt lat="44.3164016" lon="10.2382007"><ele>1006.0</ele><time>2026-04-19T13:29:17.985Z</time></trkpt><trkpt lat="44.3163505" lon="10.2380805"><ele>1006.0</ele><time>2026-04-19T13:29:18.985Z</time></trkpt><trkpt lat="44.3163047" lon="10.2379548"><ele>1005.9999999999999</ele><time>2026-04-19T13:29:19.985Z</time></trkpt><trkpt lat="44.31627" lon="10.2378227"><ele>1005.9999999999999</ele><time>2026-04-19T13:29:20.986Z</time></trkpt><trkpt lat="44.3162348" lon="10.237682"><ele>1006.0</ele><time>2026-04-19T13:29:21.986Z</time></trkpt><trkpt lat="44.3161983" lon="10.2375365"><ele>1006.0</ele><time>2026-04-19T13:29:22.984Z</time></trkpt><trkpt lat="44.3161572" lon="10.2373869"><ele>1002.5999999999999</ele><time>2026-04-19T13:29:23.986Z</time></trkpt><trkpt lat="44.3161157" lon="10.237243"><ele>999.1999999999999</ele><time>2026-04-19T13:29:24.986Z</time></trkpt><trkpt lat="44.3160724" lon="10.2370983"><ele>995.8000000000001</ele><time>2026-04-19T13:29:25.985Z</time></trkpt><trkpt lat="44.3160242" lon="10.236958"><ele>992.4000000000001</ele><time>2026-04-19T13:29:26.985Z</time></trkpt><trkpt lat="44.3159758" lon="10.2368155"><ele>989.0</ele><time>2026-04-19T13:29:27.985Z</time></trkpt><trkpt lat="44.3159312" lon="10.2366697"><ele>989.0</ele><time>2026-04-19T13:29:28.985Z</time></trkpt><trkpt lat="44.3158797" lon="10.2365288"><ele>989.0000000000001</ele><time>2026-04-19T13:29:29.985Z</time></trkpt><trkpt lat="44.3158267" lon="10.2364088"><ele>989.0000000000001</ele><time>2026-04-19T13:29:30.985Z</time></trkpt><trkpt lat="44.3157729" lon="10.2363046"><ele>989.0</ele><time>2026-04-19T13:29:31.986Z</time></trkpt><trkpt lat="44.3157181" lon="10.2362155"><ele>989.0</ele><time>2026-04-19T13:29:32.986Z</time></trkpt><trkpt lat="44.315667" lon="10.2361466"><ele>985.6</ele><time>2026-04-19T13:29:33.985Z</time></trkpt><trkpt lat="44.3155915" lon="10.2360316"><ele>982.2</ele><time>2026-04-19T13:29:35.986Z</time></trkpt><trkpt lat="44.3155832" lon="10.2359201"><ele>978.8000000000001</ele><time>2026-04-19T13:29:37.986Z</time></trkpt><trkpt lat="44.3156446" lon="10.2358993"><ele>975.4000000000001</ele><time>2026-04-19T13:29:39.985Z</time></trkpt><trkpt lat="44.3157285" lon="10.2360305"><ele>972.0</ele><time>2026-04-19T13:29:41.985Z</time></trkpt><trkpt lat="44.3157789" lon="10.2361405"><ele>972.0</ele><time>2026-04-19T13:29:42.986Z</time></trkpt><trkpt lat="44.315853" lon="10.2362433"><ele>972.0</ele><time>2026-04-19T13:29:43.985Z</time></trkpt><trkpt lat="44.3159395" lon="10.2363539"><ele>972.0</ele><time>2026-04-19T13:29:44.985Z</time></trkpt><trkpt lat="44.3160317" lon="10.2364582"><ele>972.0</ele><time>2026-04-19T13:29:45.985Z</time></trkpt><trkpt lat="44.3161219" lon="10.2365518"><ele>970.0</ele><time>2026-04-19T13:29:46.986Z</time></trkpt><trkpt lat="44.31622" lon="10.2366219"><ele>968.0</ele><time>2026-04-19T13:29:47.986Z</time></trkpt><trkpt lat="44.3163319" lon="10.2366749"><ele>966.0</ele><time>2026-04-19T13:29:48.985Z</time></trkpt><trkpt lat="44.3164606" lon="10.2367096"><ele>964.0</ele><time>2026-04-19T13:29:49.986Z</time></trkpt><trkpt lat="44.3166005" lon="10.2367033"><ele>964.0</ele><time>2026-04-19T13:29:50.986Z</time></trkpt><trkpt lat="44.316732" lon="10.2366899"><ele>964.0</ele><time>2026-04-19T13:29:51.984Z</time></trkpt><trkpt lat="44.3168539" lon="10.236686"><ele>964.0</ele><time>2026-04-19T13:29:52.986Z</time></trkpt><trkpt lat="44.3169677" lon="10.2367081"><ele>964.0</ele><time>2026-04-19T13:29:53.985Z</time></trkpt><trkpt lat="44.3170776" lon="10.2367759"><ele>964.0</ele><time>2026-04-19T13:29:54.985Z</time></trkpt><trkpt lat="44.3171789" lon="10.2368869"><ele>964.0</ele><time>2026-04-19T13:29:55.985Z</time></trkpt><trkpt lat="44.3172552" lon="10.2370342"><ele>964.0</ele><time>2026-04-19T13:29:56.985Z</time></trkpt><trkpt lat="44.3173316" lon="10.2372124"><ele>964.0</ele><time>2026-04-19T13:29:57.985Z</time></trkpt><trkpt lat="44.3173693" lon="10.2374198"><ele>960.5</ele><time>2026-04-19T13:29:58.986Z</time></trkpt><trkpt lat="44.3174146" lon="10.2376117"><ele>957.0</ele><time>2026-04-19T13:29:59.984Z</time></trkpt><trkpt lat="44.3174575" lon="10.2378065"><ele>953.5</ele><time>2026-04-19T13:30:00.985Z</time></trkpt><trkpt lat="44.3175044" lon="10.2379701"><ele>950.0</ele><time>2026-04-19T13:30:01.986Z</time></trkpt><trkpt lat="44.3175801" lon="10.2381118"><ele>951.6</ele><time>2026-04-19T13:30:02.984Z</time></trkpt><trkpt lat="44.3176729" lon="10.2382289"><ele>953.2</ele><time>2026-04-19T13:30:03.986Z</time></trkpt><trkpt lat="44.3177606" lon="10.2383127"><ele>954.8</ele><time>2026-04-19T13:30:04.985Z</time></trkpt><trkpt lat="44.3178569" lon="10.2383659"><ele>956.4</ele><time>2026-04-19T13:30:05.984Z</time></trkpt><trkpt lat="44.3179454" lon="10.238373"><ele>958.0</ele><time>2026-04-19T13:30:06.986Z</time></trkpt><trkpt lat="44.318029" lon="10.2383393"><ele>955.8</ele><time>2026-04-19T13:30:07.986Z</time></trkpt><trkpt lat="44.3181185" lon="10.2382769"><ele>953.5999999999999</ele><time>2026-04-19T13:30:08.986Z</time></trkpt><trkpt lat="44.3182078" lon="10.2381921"><ele>951.4000000000001</ele><time>2026-04-19T13:30:09.985Z</time></trkpt><trkpt lat="44.3182943" lon="10.2381265"><ele>949.2</ele><time>2026-04-19T13:30:10.984Z</time></trkpt><trkpt lat="44.3183893" lon="10.2380924"><ele>947.0</ele><time>2026-04-19T13:30:11.984Z</time></trkpt><trkpt lat="44.3185102" lon="10.238087"><ele>947.0</ele><time>2026-04-19T13:30:12.985Z</time></trkpt><trkpt lat="44.3186598" lon="10.2381037"><ele>947.0</ele><time>2026-04-19T13:30:13.987Z</time></trkpt><trkpt lat="44.3187918" lon="10.2381151"><ele>947.0</ele><time>2026-04-19T13:30:14.986Z</time></trkpt><trkpt lat="44.3189227" lon="10.2381279"><ele>947.0</ele><time>2026-04-19T13:30:15.985Z</time></trkpt><trkpt lat="44.3190498" lon="10.238142"><ele>944.5</ele><time>2026-04-19T13:30:16.985Z</time></trkpt><trkpt lat="44.319184" lon="10.2381736"><ele>942.0</ele><time>2026-04-19T13:30:17.984Z</time></trkpt><trkpt lat="44.319319" lon="10.2382408"><ele>939.5</ele><time>2026-04-19T13:30:18.986Z</time></trkpt><trkpt lat="44.3194454" lon="10.2383086"><ele>937.0</ele><time>2026-04-19T13:30:19.985Z</time></trkpt><trkpt lat="44.3195596" lon="10.238372"><ele>937.0</ele><time>2026-04-19T13:30:20.985Z</time></trkpt><trkpt lat="44.3196652" lon="10.2384306"><ele>937.0</ele><time>2026-04-19T13:30:21.985Z</time></trkpt><trkpt lat="44.3197619" lon="10.2384882"><ele>937.0</ele><time>2026-04-19T13:30:22.986Z</time></trkpt><trkpt lat="44.3198533" lon="10.238552"><ele>937.0</ele><time>2026-04-19T13:30:23.986Z</time></trkpt><trkpt lat="44.3199523" lon="10.2386269"><ele>937.0</ele><time>2026-04-19T13:30:24.986Z</time></trkpt><trkpt lat="44.3200554" lon="10.238709"><ele>938.25</ele><time>2026-04-19T13:30:25.986Z</time></trkpt><trkpt lat="44.3201526" lon="10.2387993"><ele>939.5</ele><time>2026-04-19T13:30:26.986Z</time></trkpt><trkpt lat="44.3202459" lon="10.2389074"><ele>940.75</ele><time>2026-04-19T13:30:27.984Z</time></trkpt><trkpt lat="44.3203303" lon="10.239025"><ele>942.0</ele><time>2026-04-19T13:30:28.986Z</time></trkpt><trkpt lat="44.320411" lon="10.2391399"><ele>941.0</ele><time>2026-04-19T13:30:29.986Z</time></trkpt><trkpt lat="44.320504" lon="10.2392364"><ele>940.0</ele><time>2026-04-19T13:30:30.986Z</time></trkpt><trkpt lat="44.3206072" lon="10.2393176"><ele>939.0</ele><time>2026-04-19T13:30:31.986Z</time></trkpt><trkpt lat="44.3207087" lon="10.2393921"><ele>938.0</ele><time>2026-04-19T13:30:32.984Z</time></trkpt><trkpt lat="44.3208189" lon="10.2394717"><ele>938.0</ele><time>2026-04-19T13:30:33.986Z</time></trkpt><trkpt lat="44.3209302" lon="10.2395414"><ele>938.0</ele><time>2026-04-19T13:30:34.985Z</time></trkpt><trkpt lat="44.3210468" lon="10.2395912"><ele>938.0</ele><time>2026-04-19T13:30:35.984Z</time></trkpt><trkpt lat="44.3211724" lon="10.2396283"><ele>938.0</ele><time>2026-04-19T13:30:36.984Z</time></trkpt><trkpt lat="44.3212935" lon="10.239657"><ele>938.0</ele><time>2026-04-19T13:30:37.985Z</time></trkpt><trkpt lat="44.3214113" lon="10.2396842"><ele>938.0</ele><time>2026-04-19T13:30:38.985Z</time></trkpt><trkpt lat="44.3215251" lon="10.2397052"><ele>938.0</ele><time>2026-04-19T13:30:39.985Z</time></trkpt><trkpt lat="44.3216256" lon="10.2397074"><ele>938.0</ele><time>2026-04-19T13:30:40.985Z</time></trkpt><trkpt lat="44.3217103" lon="10.2396789"><ele>938.0</ele><time>2026-04-19T13:30:41.984Z</time></trkpt><trkpt lat="44.3217838" lon="10.2396201"><ele>938.0000000000001</ele><time>2026-04-19T13:30:42.986Z</time></trkpt><trkpt lat="44.3218464" lon="10.2395487"><ele>938.0</ele><time>2026-04-19T13:30:43.985Z</time></trkpt><trkpt lat="44.3219089" lon="10.2395079"><ele>938.0</ele><time>2026-04-19T13:30:44.985Z</time></trkpt><trkpt lat="44.321978" lon="10.2395049"><ele>938.0</ele><time>2026-04-19T13:30:45.986Z</time></trkpt><trkpt lat="44.3220398" lon="10.2395444"><ele>938.0000000000001</ele><time>2026-04-19T13:30:46.986Z</time></trkpt><trkpt lat="44.3220926" lon="10.2396379"><ele>938.0</ele><time>2026-04-19T13:30:47.985Z</time></trkpt><trkpt lat="44.3221416" lon="10.2397512"><ele>934.0</ele><time>2026-04-19T13:30:48.986Z</time></trkpt><trkpt lat="44.3222062" lon="10.2398456"><ele>930.0</ele><time>2026-04-19T13:30:49.986Z</time></trkpt><trkpt lat="44.3222951" lon="10.2399175"><ele>926.0</ele><time>2026-04-19T13:30:50.986Z</time></trkpt><trkpt lat="44.3223906" lon="10.2399414"><ele>922.0</ele><time>2026-04-19T13:30:51.986Z</time></trkpt><trkpt lat="44.3224855" lon="10.2399683"><ele>918.0</ele><time>2026-04-19T13:30:52.986Z</time></trkpt><trkpt lat="44.3225824" lon="10.2400368"><ele>918.0</ele><time>2026-04-19T13:30:53.986Z</time></trkpt><trkpt lat="44.322662" lon="10.2401561"><ele>918.0</ele><time>2026-04-19T13:30:54.986Z</time></trkpt><trkpt lat="44.3227302" lon="10.2403143"><ele>918.0</ele><time>2026-04-19T13:30:55.986Z</time></trkpt><trkpt lat="44.3227926" lon="10.2404844"><ele>918.0</ele><time>2026-04-19T13:30:56.986Z</time></trkpt><trkpt lat="44.3228588" lon="10.2406779"><ele>915.6666666666667</ele><time>2026-04-19T13:30:57.985Z</time></trkpt><trkpt lat="44.3229275" lon="10.2408814"><ele>913.3333333333334</ele><time>2026-04-19T13:30:58.985Z</time></trkpt><trkpt lat="44.3230006" lon="10.241091"><ele>911.0</ele><time>2026-04-19T13:30:59.986Z</time></trkpt><trkpt lat="44.3230715" lon="10.2412945"><ele>907.0</ele><time>2026-04-19T13:31:00.985Z</time></trkpt><trkpt lat="44.3231403" lon="10.2414943"><ele>903.0</ele><time>2026-04-19T13:31:01.986Z</time></trkpt><trkpt lat="44.3232097" lon="10.2416934"><ele>899.0</ele><time>2026-04-19T13:31:02.985Z</time></trkpt><trkpt lat="44.3232897" lon="10.2418938"><ele>899.0</ele><time>2026-04-19T13:31:03.986Z</time></trkpt><trkpt lat="44.3233899" lon="10.2420786"><ele>899.0</ele><time>2026-04-19T13:31:04.985Z</time></trkpt><trkpt lat="44.3235109" lon="10.2422548"><ele>899.0</ele><time>2026-04-19T13:31:05.985Z</time></trkpt><trkpt lat="44.3236484" lon="10.2424421"><ele>896.3333333333334</ele><time>2026-04-19T13:31:06.985Z</time></trkpt><trkpt lat="44.3237786" lon="10.2426303"><ele>893.6666666666667</ele><time>2026-04-19T13:31:07.985Z</time></trkpt><trkpt lat="44.3238944" lon="10.2428222"><ele>891.0</ele><time>2026-04-19T13:31:08.985Z</time></trkpt><trkpt lat="44.3240004" lon="10.2430113"><ele>892.6666666666667</ele><time>2026-04-19T13:31:09.986Z</time></trkpt><trkpt lat="44.3241005" lon="10.243195"><ele>894.3333333333334</ele><time>2026-04-19T13:31:10.986Z</time></trkpt><trkpt lat="44.3241965" lon="10.243369"><ele>896.0</ele><time>2026-04-19T13:31:11.985Z</time></trkpt><trkpt lat="44.3242837" lon="10.2435363"><ele>896.0</ele><time>2026-04-19T13:31:12.985Z</time></trkpt><trkpt lat="44.3243624" lon="10.2437149"><ele>896.0</ele><time>2026-04-19T13:31:13.985Z</time></trkpt><trkpt lat="44.324429" lon="10.2439108"><ele>896.0</ele><time>2026-04-19T13:31:14.986Z</time></trkpt><trkpt lat="44.3244859" lon="10.2441221"><ele>891.6666666666667</ele><time>2026-04-19T13:31:15.985Z</time></trkpt><trkpt lat="44.3245345" lon="10.2443354"><ele>887.3333333333333</ele><time>2026-04-19T13:31:16.986Z</time></trkpt><trkpt lat="44.3245738" lon="10.2445473"><ele>883.0</ele><time>2026-04-19T13:31:17.985Z</time></trkpt><trkpt lat="44.3246116" lon="10.2447581"><ele>882.0</ele><time>2026-04-19T13:31:18.985Z</time></trkpt><trkpt lat="44.3246495" lon="10.244961"><ele>881.0</ele><time>2026-04-19T13:31:19.985Z</time></trkpt><trkpt lat="44.3246865" lon="10.2451543"><ele>880.0</ele><time>2026-04-19T13:31:20.984Z</time></trkpt><trkpt lat="44.3247215" lon="10.2453372"><ele>879.0</ele><time>2026-04-19T13:31:21.985Z</time></trkpt><trkpt lat="44.3247549" lon="10.2455159"><ele>883.5</ele><time>2026-04-19T13:31:22.986Z</time></trkpt><trkpt lat="44.3247902" lon="10.2457004"><ele>888.0</ele><time>2026-04-19T13:31:23.985Z</time></trkpt><trkpt lat="44.3248239" lon="10.2458846"><ele>892.5</ele><time>2026-04-19T13:31:24.985Z</time></trkpt><trkpt lat="44.3248557" lon="10.2460608"><ele>897.0</ele><time>2026-04-19T13:31:25.986Z</time></trkpt><trkpt lat="44.3248884" lon="10.2462251"><ele>897.0</ele><time>2026-04-19T13:31:26.984Z</time></trkpt><trkpt lat="44.3249284" lon="10.2463795"><ele>897.0</ele><time>2026-04-19T13:31:27.985Z</time></trkpt><trkpt lat="44.3249832" lon="10.2465217"><ele>897.0</ele><time>2026-04-19T13:31:28.985Z</time></trkpt><trkpt lat="44.3250666" lon="10.2466427"><ele>897.0</ele><time>2026-04-19T13:31:29.985Z</time></trkpt><trkpt lat="44.3251704" lon="10.2467491"><ele>895.75</ele><time>2026-04-19T13:31:30.985Z</time></trkpt><trkpt lat="44.3252868" lon="10.2468554"><ele>894.5</ele><time>2026-04-19T13:31:31.986Z</time></trkpt><trkpt lat="44.325399" lon="10.2469625"><ele>893.25</ele><time>2026-04-19T13:31:32.985Z</time></trkpt><trkpt lat="44.3255073" lon="10.2470625"><ele>892.0</ele><time>2026-04-19T13:31:33.985Z</time></trkpt><trkpt lat="44.325613" lon="10.2471692"><ele>892.5</ele><time>2026-04-19T13:31:34.985Z</time></trkpt><trkpt lat="44.3257094" lon="10.2472898"><ele>893.0</ele><time>2026-04-19T13:31:35.986Z</time></trkpt><trkpt lat="44.3257911" lon="10.2474339"><ele>893.5</ele><time>2026-04-19T13:31:36.986Z</time></trkpt><trkpt lat="44.3258588" lon="10.2476213"><ele>894.0</ele><time>2026-04-19T13:31:37.985Z</time></trkpt><trkpt lat="44.3259114" lon="10.2478373"><ele>894.0</ele><time>2026-04-19T13:31:38.985Z</time></trkpt><trkpt lat="44.3259562" lon="10.2480348"><ele>894.0</ele><time>2026-04-19T13:31:39.986Z</time></trkpt><trkpt lat="44.325999" lon="10.2482129"><ele>894.0</ele><time>2026-04-19T13:31:40.986Z</time></trkpt><trkpt lat="44.3260338" lon="10.2483784"><ele>894.0</ele><time>2026-04-19T13:31:41.986Z</time></trkpt><trkpt lat="44.3260672" lon="10.2485387"><ele>892.75</ele><time>2026-04-19T13:31:42.986Z</time></trkpt><trkpt lat="44.3261126" lon="10.2486937"><ele>891.5</ele><time>2026-04-19T13:31:43.986Z</time></trkpt><trkpt lat="44.3261789" lon="10.2488365"><ele>890.25</ele><time>2026-04-19T13:31:44.986Z</time></trkpt><trkpt lat="44.3262582" lon="10.2489693"><ele>889.0</ele><time>2026-04-19T13:31:45.986Z</time></trkpt><trkpt lat="44.326343" lon="10.2491043"><ele>895.4000000000001</ele><time>2026-04-19T13:31:46.986Z</time></trkpt><trkpt lat="44.3264153" lon="10.2492419"><ele>901.8000000000001</ele><time>2026-04-19T13:31:47.986Z</time></trkpt><trkpt lat="44.3264706" lon="10.2493685"><ele>908.1999999999999</ele><time>2026-04-19T13:31:48.985Z</time></trkpt><trkpt lat="44.3265057" lon="10.2494981"><ele>914.5999999999999</ele><time>2026-04-19T13:31:49.985Z</time></trkpt><trkpt lat="44.3265078" lon="10.2496375"><ele>921.0</ele><time>2026-04-19T13:31:50.984Z</time></trkpt><trkpt lat="44.326475" lon="10.2497591"><ele>919.8333333333334</ele><time>2026-04-19T13:31:51.986Z</time></trkpt><trkpt lat="44.3264211" lon="10.2498633"><ele>918.6666666666667</ele><time>2026-04-19T13:31:52.986Z</time></trkpt><trkpt lat="44.3263608" lon="10.249948"><ele>917.5</ele><time>2026-04-19T13:31:53.985Z</time></trkpt><trkpt lat="44.3263145" lon="10.250037"><ele>916.3333333333334</ele><time>2026-04-19T13:31:54.985Z</time></trkpt><trkpt lat="44.3262995" lon="10.2501239"><ele>915.1666666666667</ele><time>2026-04-19T13:31:55.986Z</time></trkpt><trkpt lat="44.3263155" lon="10.250218"><ele>914.0</ele><time>2026-04-19T13:31:56.985Z</time></trkpt><trkpt lat="44.3263587" lon="10.2503356"><ele>914.0</ele><time>2026-04-19T13:31:57.986Z</time></trkpt><trkpt lat="44.3264279" lon="10.2504841"><ele>914.0</ele><time>2026-04-19T13:31:58.985Z</time></trkpt><trkpt lat="44.326508" lon="10.2506653"><ele>914.0</ele><time>2026-04-19T13:31:59.984Z</time></trkpt><trkpt lat="44.3265857" lon="10.2508704"><ele>914.0</ele><time>2026-04-19T13:32:00.986Z</time></trkpt><trkpt lat="44.3266594" lon="10.2510958"><ele>914.0</ele><time>2026-04-19T13:32:01.986Z</time></trkpt><trkpt lat="44.3267096" lon="10.2512891"><ele>914.0</ele><time>2026-04-19T13:32:02.985Z</time></trkpt><trkpt lat="44.3267425" lon="10.2514507"><ele>914.0</ele><time>2026-04-19T13:32:03.986Z</time></trkpt><trkpt lat="44.3267736" lon="10.2515873"><ele>914.0</ele><time>2026-04-19T13:32:04.986Z</time></trkpt><trkpt lat="44.3268242" lon="10.2516919"><ele>910.25</ele><time>2026-04-19T13:32:05.984Z</time></trkpt><trkpt lat="44.3269071" lon="10.2517637"><ele>906.5</ele><time>2026-04-19T13:32:06.985Z</time></trkpt><trkpt lat="44.3270144" lon="10.2518192"><ele>902.75</ele><time>2026-04-19T13:32:07.985Z</time></trkpt><trkpt lat="44.3271391" lon="10.251871"><ele>899.0</ele><time>2026-04-19T13:32:08.986Z</time></trkpt><trkpt lat="44.327267" lon="10.2519442"><ele>902.75</ele><time>2026-04-19T13:32:09.985Z</time></trkpt><trkpt lat="44.3273918" lon="10.2520358"><ele>906.5</ele><time>2026-04-19T13:32:10.986Z</time></trkpt><trkpt lat="44.3274998" lon="10.2521205"><ele>910.25</ele><time>2026-04-19T13:32:11.986Z</time></trkpt><trkpt lat="44.3275843" lon="10.2522012"><ele>914.0</ele><time>2026-04-19T13:32:12.986Z</time></trkpt><trkpt lat="44.3276373" lon="10.2522962"><ele>914.0</ele><time>2026-04-19T13:32:13.986Z</time></trkpt><trkpt lat="44.3276636" lon="10.2524091"><ele>914.0000000000001</ele><time>2026-04-19T13:32:14.986Z</time></trkpt><trkpt lat="44.3276587" lon="10.2525336"><ele>914.0000000000001</ele><time>2026-04-19T13:32:15.986Z</time></trkpt><trkpt lat="44.3276797" lon="10.2526609"><ele>914.0</ele><time>2026-04-19T13:32:16.985Z</time></trkpt><trkpt lat="44.3277365" lon="10.252801"><ele>914.0</ele><time>2026-04-19T13:32:17.986Z</time></trkpt><trkpt lat="44.3278209" lon="10.2529559"><ele>914.0</ele><time>2026-04-19T13:32:18.985Z</time></trkpt><trkpt lat="44.3279069" lon="10.2531075"><ele>914.0</ele><time>2026-04-19T13:32:19.985Z</time></trkpt><trkpt lat="44.3279858" lon="10.253241"><ele>914.0</ele><time>2026-04-19T13:32:20.985Z</time></trkpt><trkpt lat="44.3280614" lon="10.2533621"><ele>914.0</ele><time>2026-04-19T13:32:21.985Z</time></trkpt><trkpt lat="44.3281451" lon="10.2534423"><ele>917.3333333333334</ele><time>2026-04-19T13:32:22.986Z</time></trkpt><trkpt lat="44.328231" lon="10.2534786"><ele>920.6666666666667</ele><time>2026-04-19T13:32:23.984Z</time></trkpt><trkpt lat="44.3283184" lon="10.2535107"><ele>924.0</ele><time>2026-04-19T13:32:24.985Z</time></trkpt><trkpt lat="44.328386" lon="10.2535809"><ele>927.3333333333333</ele><time>2026-04-19T13:32:25.985Z</time></trkpt><trkpt lat="44.3284204" lon="10.2536791"><ele>930.6666666666666</ele><time>2026-04-19T13:32:26.984Z</time></trkpt><trkpt lat="44.3284365" lon="10.2538108"><ele>934.0</ele><time>2026-04-19T13:32:27.985Z</time></trkpt><trkpt lat="44.3284479" lon="10.2539297"><ele>927.6666666666666</ele><time>2026-04-19T13:32:28.985Z</time></trkpt><trkpt lat="44.3284773" lon="10.2540306"><ele>921.3333333333333</ele><time>2026-04-19T13:32:29.986Z</time></trkpt><trkpt lat="44.3285305" lon="10.2540986"><ele>915.0</ele><time>2026-04-19T13:32:30.985Z</time></trkpt><trkpt lat="44.3286042" lon="10.2541295"><ele>908.6666666666667</ele><time>2026-04-19T13:32:31.985Z</time></trkpt><trkpt lat="44.3286922" lon="10.2541326"><ele>902.3333333333334</ele><time>2026-04-19T13:32:32.985Z</time></trkpt><trkpt lat="44.3287701" lon="10.254173"><ele>896.0</ele><time>2026-04-19T13:32:33.986Z</time></trkpt><trkpt lat="44.328842" lon="10.2542595"><ele>904.8</ele><time>2026-04-19T13:32:34.986Z</time></trkpt><trkpt lat="44.328902" lon="10.2543661"><ele>913.5999999999999</ele><time>2026-04-19T13:32:35.985Z</time></trkpt><trkpt lat="44.3289768" lon="10.2544519"><ele>922.4</ele><time>2026-04-19T13:32:36.985Z</time></trkpt><trkpt lat="44.3290663" lon="10.2544948"><ele>931.2</ele><time>2026-04-19T13:32:37.986Z</time></trkpt><trkpt lat="44.3291564" lon="10.2544961"><ele>940.0</ele><time>2026-04-19T13:32:38.986Z</time></trkpt><trkpt lat="44.3292458" lon="10.2544851"><ele>939.9999999999999</ele><time>2026-04-19T13:32:39.986Z</time></trkpt><trkpt lat="44.3293301" lon="10.2545096"><ele>940.0</ele><time>2026-04-19T13:32:40.986Z</time></trkpt><trkpt lat="44.3293937" lon="10.2545684"><ele>940.0</ele><time>2026-04-19T13:32:41.985Z</time></trkpt><trkpt lat="44.3294253" lon="10.2546645"><ele>940.0</ele><time>2026-04-19T13:32:42.985Z</time></trkpt><trkpt lat="44.3294311" lon="10.254781"><ele>939.9999999999999</ele><time>2026-04-19T13:32:43.984Z</time></trkpt><trkpt lat="44.3294217" lon="10.2549114"><ele>940.0</ele><time>2026-04-19T13:32:44.986Z</time></trkpt><trkpt lat="44.3294143" lon="10.2550318"><ele>932.4999999999999</ele><time>2026-04-19T13:32:45.986Z</time></trkpt><trkpt lat="44.3294108" lon="10.2551506"><ele>925.0</ele><time>2026-04-19T13:32:46.985Z</time></trkpt><trkpt lat="44.3294204" lon="10.2552564"><ele>917.5</ele><time>2026-04-19T13:32:47.985Z</time></trkpt><trkpt lat="44.3294493" lon="10.2553477"><ele>910.0</ele><time>2026-04-19T13:32:48.986Z</time></trkpt><trkpt lat="44.3295023" lon="10.255407"><ele>902.4999999999999</ele><time>2026-04-19T13:32:49.985Z</time></trkpt><trkpt lat="44.3295775" lon="10.2554347"><ele>895.0</ele><time>2026-04-19T13:32:50.986Z</time></trkpt><trkpt lat="44.329679" lon="10.2554393"><ele>902.2</ele><time>2026-04-19T13:32:51.984Z</time></trkpt><trkpt lat="44.3297963" lon="10.25542"><ele>909.4</ele><time>2026-04-19T13:32:52.986Z</time></trkpt><trkpt lat="44.3299084" lon="10.255394"><ele>916.5999999999999</ele><time>2026-04-19T13:32:53.985Z</time></trkpt><trkpt lat="44.3300142" lon="10.2553731"><ele>923.8</ele><time>2026-04-19T13:32:54.985Z</time></trkpt><trkpt lat="44.3301028" lon="10.2553755"><ele>931.0</ele><time>2026-04-19T13:32:55.985Z</time></trkpt><trkpt lat="44.3301738" lon="10.255406"><ele>930.9999999999999</ele><time>2026-04-19T13:32:56.986Z</time></trkpt><trkpt lat="44.3302283" lon="10.2554771"><ele>931.0</ele><time>2026-04-19T13:32:57.986Z</time></trkpt><trkpt lat="44.3302555" lon="10.2555757"><ele>931.0</ele><time>2026-04-19T13:32:58.986Z</time></trkpt><trkpt lat="44.3302726" lon="10.2557046"><ele>931.0</ele><time>2026-04-19T13:32:59.985Z</time></trkpt><trkpt lat="44.3303039" lon="10.2558262"><ele>930.9999999999999</ele><time>2026-04-19T13:33:00.984Z</time></trkpt><trkpt lat="44.3303661" lon="10.25594"><ele>931.0</ele><time>2026-04-19T13:33:01.986Z</time></trkpt><trkpt lat="44.3304462" lon="10.2560445"><ele>928.1999999999999</ele><time>2026-04-19T13:33:02.986Z</time></trkpt><trkpt lat="44.3305501" lon="10.2561186"><ele>925.3999999999999</ele><time>2026-04-19T13:33:03.985Z</time></trkpt><trkpt lat="44.3306463" lon="10.2561945"><ele>922.6</ele><time>2026-04-19T13:33:04.986Z</time></trkpt><trkpt lat="44.330738" lon="10.2562601"><ele>919.8</ele><time>2026-04-19T13:33:05.986Z</time></trkpt><trkpt lat="44.3308291" lon="10.2563227"><ele>917.0</ele><time>2026-04-19T13:33:06.986Z</time></trkpt><trkpt lat="44.330924" lon="10.256385"><ele>917.0</ele><time>2026-04-19T13:33:07.985Z</time></trkpt><trkpt lat="44.3310301" lon="10.2564512"><ele>917.0</ele><time>2026-04-19T13:33:08.985Z</time></trkpt><trkpt lat="44.3311498" lon="10.2565137"><ele>917.0</ele><time>2026-04-19T13:33:09.985Z</time></trkpt><trkpt lat="44.3312671" lon="10.2565934"><ele>917.0</ele><time>2026-04-19T13:33:10.985Z</time></trkpt><trkpt lat="44.3313716" lon="10.2566918"><ele>912.0</ele><time>2026-04-19T13:33:11.985Z</time></trkpt><trkpt lat="44.3314631" lon="10.2568039"><ele>907.0</ele><time>2026-04-19T13:33:12.984Z</time></trkpt><trkpt lat="44.331549" lon="10.2569151"><ele>902.0</ele><time>2026-04-19T13:33:13.986Z</time></trkpt><trkpt lat="44.331636" lon="10.2570107"><ele>897.0</ele><time>2026-04-19T13:33:14.985Z</time></trkpt><trkpt lat="44.3317323" lon="10.2570698"><ele>897.0</ele><time>2026-04-19T13:33:15.984Z</time></trkpt><trkpt lat="44.3318437" lon="10.2571002"><ele>897.0</ele><time>2026-04-19T13:33:16.984Z</time></trkpt><trkpt lat="44.3319719" lon="10.2570885"><ele>897.0</ele><time>2026-04-19T13:33:17.986Z</time></trkpt><trkpt lat="44.3320941" lon="10.2570732"><ele>897.0</ele><time>2026-04-19T13:33:18.986Z</time></trkpt><trkpt lat="44.3322111" lon="10.2570432"><ele>893.25</ele><time>2026-04-19T13:33:19.985Z</time></trkpt><trkpt lat="44.3323198" lon="10.2569809"><ele>889.5</ele><time>2026-04-19T13:33:20.986Z</time></trkpt><trkpt lat="44.332418" lon="10.256891"><ele>885.75</ele><time>2026-04-19T13:33:21.985Z</time></trkpt><trkpt lat="44.3325114" lon="10.2567779"><ele>882.0</ele><time>2026-04-19T13:33:22.985Z</time></trkpt><trkpt lat="44.3325922" lon="10.2566682"><ele>882.0</ele><time>2026-04-19T13:33:23.986Z</time></trkpt><trkpt lat="44.3326686" lon="10.2565675"><ele>882.0</ele><time>2026-04-19T13:33:24.986Z</time></trkpt><trkpt lat="44.3327418" lon="10.2564729"><ele>882.0</ele><time>2026-04-19T13:33:25.985Z</time></trkpt><trkpt lat="44.3328128" lon="10.256379"><ele>882.0</ele><time>2026-04-19T13:33:26.985Z</time></trkpt><trkpt lat="44.332886" lon="10.256295"><ele>882.0</ele><time>2026-04-19T13:33:27.986Z</time></trkpt><trkpt lat="44.3329617" lon="10.2562166"><ele>879.0</ele><time>2026-04-19T13:33:28.986Z</time></trkpt><trkpt lat="44.3330399" lon="10.2561416"><ele>876.0</ele><time>2026-04-19T13:33:29.986Z</time></trkpt><trkpt lat="44.3331197" lon="10.2560641"><ele>873.0</ele><time>2026-04-19T13:33:30.985Z</time></trkpt><trkpt lat="44.3331983" lon="10.2559782"><ele>870.0</ele><time>2026-04-19T13:33:31.984Z</time></trkpt><trkpt lat="44.3332658" lon="10.2558751"><ele>867.0</ele><time>2026-04-19T13:33:32.986Z</time></trkpt><trkpt lat="44.3333184" lon="10.2557553"><ele>867.0</ele><time>2026-04-19T13:33:33.985Z</time></trkpt><trkpt lat="44.3333737" lon="10.2556366"><ele>867.0</ele><time>2026-04-19T13:33:34.985Z</time></trkpt><trkpt lat="44.3334379" lon="10.2555238"><ele>867.0</ele><time>2026-04-19T13:33:35.986Z</time></trkpt><trkpt lat="44.3335129" lon="10.2554318"><ele>867.0</ele><time>2026-04-19T13:33:36.984Z</time></trkpt><trkpt lat="44.333595" lon="10.2553592"><ele>867.0</ele><time>2026-04-19T13:33:37.985Z</time></trkpt><trkpt lat="44.3336777" lon="10.2552856"><ele>866.4000000000001</ele><time>2026-04-19T13:33:38.985Z</time></trkpt><trkpt lat="44.3337503" lon="10.2551912"><ele>865.8000000000001</ele><time>2026-04-19T13:33:39.986Z</time></trkpt><trkpt lat="44.3338131" lon="10.2550742"><ele>865.2</ele><time>2026-04-19T13:33:40.985Z</time></trkpt><trkpt lat="44.3338663" lon="10.2549588"><ele>864.6</ele><time>2026-04-19T13:33:41.986Z</time></trkpt><trkpt lat="44.3339099" lon="10.2548526"><ele>864.0</ele><time>2026-04-19T13:33:42.981Z</time></trkpt><trkpt lat="44.3339544" lon="10.2547438"><ele>864.0</ele><time>2026-04-19T13:33:43.985Z</time></trkpt><trkpt lat="44.333992" lon="10.2546474"><ele>864.0</ele><time>2026-04-19T13:33:44.985Z</time></trkpt><trkpt lat="44.3340245" lon="10.2545604"><ele>864.0</ele><time>2026-04-19T13:33:45.985Z</time></trkpt><trkpt lat="44.3340673" lon="10.2544325"><ele>864.0</ele><time>2026-04-19T13:33:47.986Z</time></trkpt><trkpt lat="44.334105" lon="10.254309"><ele>864.0</ele><time>2026-04-19T13:33:49.985Z</time></trkpt><trkpt lat="44.3341396" lon="10.2542038"><ele>864.0</ele><time>2026-04-19T13:33:51.986Z</time></trkpt><trkpt lat="44.3341975" lon="10.254136"><ele>864.0</ele><time>2026-04-19T13:33:53.986Z</time></trkpt><trkpt lat="44.3342594" lon="10.2541741"><ele>864.0</ele><time>2026-04-19T13:33:55.985Z</time></trkpt><trkpt lat="44.3342582" lon="10.2543006"><ele>864.0</ele><time>2026-04-19T13:33:57.985Z</time></trkpt><trkpt lat="44.3342327" lon="10.2543984"><ele>864.0</ele><time>2026-04-19T13:33:58.986Z</time></trkpt><trkpt lat="44.3342159" lon="10.2544902"><ele>864.0</ele><time>2026-04-19T13:33:59.985Z</time></trkpt><trkpt lat="44.334203" lon="10.2546529"><ele>864.0</ele><time>2026-04-19T13:34:01.986Z</time></trkpt><trkpt lat="44.3341923" lon="10.2547856"><ele>861.0</ele><time>2026-04-19T13:34:03.986Z</time></trkpt><trkpt lat="44.3341795" lon="10.2549001"><ele>858.0</ele><time>2026-04-19T13:34:05.986Z</time></trkpt><trkpt lat="44.3341687" lon="10.2550014"><ele>855.0</ele><time>2026-04-19T13:34:07.985Z</time></trkpt><trkpt lat="44.3341681" lon="10.2551131"><ele>852.0</ele><time>2026-04-19T13:34:09.986Z</time></trkpt><trkpt lat="44.3342265" lon="10.2551811"><ele>849.0</ele><time>2026-04-19T13:34:11.986Z</time></trkpt><trkpt lat="44.3342927" lon="10.2551185"><ele>846.0</ele><time>2026-04-19T13:34:13.985Z</time></trkpt><trkpt lat="44.3343307" lon="10.2549171"><ele>850.5</ele><time>2026-04-19T13:34:15.986Z</time></trkpt><trkpt lat="44.3343368" lon="10.2547764"><ele>855.0</ele><time>2026-04-19T13:34:16.985Z</time></trkpt><trkpt lat="44.3343528" lon="10.2546093"><ele>859.5</ele><time>2026-04-19T13:34:17.986Z</time></trkpt><trkpt lat="44.3343876" lon="10.2544392"><ele>864.0</ele><time>2026-04-19T13:34:18.986Z</time></trkpt><trkpt lat="44.3344447" lon="10.2542776"><ele>864.0</ele><time>2026-04-19T13:34:19.984Z</time></trkpt><trkpt lat="44.33452" lon="10.254123"><ele>864.0</ele><time>2026-04-19T13:34:20.985Z</time></trkpt><trkpt lat="44.3346143" lon="10.2539706"><ele>864.0</ele><time>2026-04-19T13:34:21.986Z</time></trkpt><trkpt lat="44.3347286" lon="10.2538176"><ele>864.0</ele><time>2026-04-19T13:34:22.986Z</time></trkpt><trkpt lat="44.3348589" lon="10.2536556"><ele>857.3333333333333</ele><time>2026-04-19T13:34:23.985Z</time></trkpt><trkpt lat="44.3349826" lon="10.2534986"><ele>850.6666666666666</ele><time>2026-04-19T13:34:24.985Z</time></trkpt><trkpt lat="44.3351048" lon="10.2533386"><ele>844.0</ele><time>2026-04-19T13:34:25.986Z</time></trkpt><trkpt lat="44.3352177" lon="10.2531868"><ele>849.75</ele><time>2026-04-19T13:34:26.984Z</time></trkpt><trkpt lat="44.3353215" lon="10.2530452"><ele>855.5</ele><time>2026-04-19T13:34:27.984Z</time></trkpt><trkpt lat="44.3354219" lon="10.2529049"><ele>861.25</ele><time>2026-04-19T13:34:28.986Z</time></trkpt><trkpt lat="44.3355192" lon="10.2527637"><ele>867.0</ele><time>2026-04-19T13:34:29.985Z</time></trkpt><trkpt lat="44.3356065" lon="10.2526302"><ele>860.5</ele><time>2026-04-19T13:34:30.985Z</time></trkpt><trkpt lat="44.3356867" lon="10.2525057"><ele>854.0</ele><time>2026-04-19T13:34:31.985Z</time></trkpt><trkpt lat="44.3357618" lon="10.2523856"><ele>847.5</ele><time>2026-04-19T13:34:32.986Z</time></trkpt><trkpt lat="44.335837" lon="10.2522675"><ele>841.0</ele><time>2026-04-19T13:34:33.986Z</time></trkpt><trkpt lat="44.3359105" lon="10.2521522"><ele>841.0</ele><time>2026-04-19T13:34:34.985Z</time></trkpt><trkpt lat="44.3359828" lon="10.2520367"><ele>841.0</ele><time>2026-04-19T13:34:35.985Z</time></trkpt><trkpt lat="44.3360607" lon="10.2519152"><ele>841.0</ele><time>2026-04-19T13:34:36.986Z</time></trkpt><trkpt lat="44.3361434" lon="10.2517886"><ele>841.0</ele><time>2026-04-19T13:34:37.985Z</time></trkpt><trkpt lat="44.3362198" lon="10.2516633"><ele>840.9999999999999</ele><time>2026-04-19T13:34:38.985Z</time></trkpt><trkpt lat="44.3362845" lon="10.2515396"><ele>841.0</ele><time>2026-04-19T13:34:39.986Z</time></trkpt><trkpt lat="44.3363402" lon="10.2514235"><ele>841.0</ele><time>2026-04-19T13:34:40.986Z</time></trkpt><trkpt lat="44.3363853" lon="10.2513187"><ele>841.0</ele><time>2026-04-19T13:34:41.985Z</time></trkpt><trkpt lat="44.3364217" lon="10.2512313"><ele>840.9999999999999</ele><time>2026-04-19T13:34:42.986Z</time></trkpt><trkpt lat="44.3364551" lon="10.2511549"><ele>841.0</ele><time>2026-04-19T13:34:43.984Z</time></trkpt><trkpt lat="44.3365333" lon="10.2510814"><ele>837.0</ele><time>2026-04-19T13:34:45.985Z</time></trkpt><trkpt lat="44.3365989" lon="10.2511466"><ele>833.0</ele><time>2026-04-19T13:34:47.986Z</time></trkpt><trkpt lat="44.3365934" lon="10.2512378"><ele>829.0</ele><time>2026-04-19T13:34:48.986Z</time></trkpt><trkpt lat="44.3365617" lon="10.2513609"><ele>825.0</ele><time>2026-04-19T13:34:49.984Z</time></trkpt><trkpt lat="44.3365093" lon="10.2515074"><ele>821.0</ele><time>2026-04-19T13:34:50.985Z</time></trkpt><trkpt lat="44.3364395" lon="10.2516821"><ele>821.0</ele><time>2026-04-19T13:34:51.985Z</time></trkpt><trkpt lat="44.3363671" lon="10.2518596"><ele>821.0</ele><time>2026-04-19T13:34:52.985Z</time></trkpt><trkpt lat="44.3362978" lon="10.2520334"><ele>821.0</ele><time>2026-04-19T13:34:53.984Z</time></trkpt><trkpt lat="44.3362312" lon="10.2522044"><ele>821.0</ele><time>2026-04-19T13:34:54.985Z</time></trkpt><trkpt lat="44.3361678" lon="10.2523665"><ele>821.0000000000001</ele><time>2026-04-19T13:34:55.986Z</time></trkpt><trkpt lat="44.3361139" lon="10.2525016"><ele>821.0</ele><time>2026-04-19T13:34:56.985Z</time></trkpt><trkpt lat="44.336065" lon="10.2526239"><ele>821.0</ele><time>2026-04-19T13:34:57.985Z</time></trkpt><trkpt lat="44.3360231" lon="10.252732"><ele>821.0</ele><time>2026-04-19T13:34:58.986Z</time></trkpt><trkpt lat="44.335988" lon="10.2528205"><ele>821.0000000000001</ele><time>2026-04-19T13:34:59.986Z</time></trkpt><trkpt lat="44.335957" lon="10.2529022"><ele>821.0</ele><time>2026-04-19T13:35:00.986Z</time></trkpt><trkpt lat="44.3359047" lon="10.2530381"><ele>818.0</ele><time>2026-04-19T13:35:02.986Z</time></trkpt><trkpt lat="44.3358614" lon="10.2531627"><ele>815.0</ele><time>2026-04-19T13:35:04.985Z</time></trkpt><trkpt lat="44.3358467" lon="10.2532722"><ele>812.0</ele><time>2026-04-19T13:35:06.986Z</time></trkpt><trkpt lat="44.3358877" lon="10.2533931"><ele>809.0</ele><time>2026-04-19T13:35:08.985Z</time></trkpt><trkpt lat="44.3359709" lon="10.2533922"><ele>806.0</ele><time>2026-04-19T13:35:10.985Z</time></trkpt><trkpt lat="44.3360448" lon="10.2532416"><ele>809.0</ele><time>2026-04-19T13:35:12.986Z</time></trkpt><trkpt lat="44.3360741" lon="10.2531175"><ele>812.0</ele><time>2026-04-19T13:35:13.985Z</time></trkpt><trkpt lat="44.3361173" lon="10.2529798"><ele>815.0</ele><time>2026-04-19T13:35:14.985Z</time></trkpt><trkpt lat="44.3361724" lon="10.2528392"><ele>818.0</ele><time>2026-04-19T13:35:15.986Z</time></trkpt><trkpt lat="44.3362322" lon="10.2527164"><ele>821.0</ele><time>2026-04-19T13:35:16.984Z</time></trkpt><trkpt lat="44.3362915" lon="10.2526055"><ele>821.0000000000001</ele><time>2026-04-19T13:35:17.986Z</time></trkpt><trkpt lat="44.3363547" lon="10.2525231"><ele>821.0</ele><time>2026-04-19T13:35:18.985Z</time></trkpt><trkpt lat="44.3364251" lon="10.2524841"><ele>821.0</ele><time>2026-04-19T13:35:19.986Z</time></trkpt><trkpt lat="44.3364958" lon="10.2524882"><ele>821.0</ele><time>2026-04-19T13:35:20.985Z</time></trkpt><trkpt lat="44.3365583" lon="10.252542"><ele>821.0000000000001</ele><time>2026-04-19T13:35:21.985Z</time></trkpt><trkpt lat="44.3366249" lon="10.252639"><ele>821.0</ele><time>2026-04-19T13:35:22.985Z</time></trkpt><trkpt lat="44.3367068" lon="10.2527649"><ele>814.5</ele><time>2026-04-19T13:35:23.985Z</time></trkpt><trkpt lat="44.3367956" lon="10.2528916"><ele>808.0</ele><time>2026-04-19T13:35:24.986Z</time></trkpt><trkpt lat="44.3368914" lon="10.2530302"><ele>801.5</ele><time>2026-04-19T13:35:25.985Z</time></trkpt><trkpt lat="44.3369952" lon="10.2531796"><ele>795.0</ele><time>2026-04-19T13:35:26.986Z</time></trkpt><trkpt lat="44.3370947" lon="10.2533252"><ele>792.0</ele><time>2026-04-19T13:35:27.985Z</time></trkpt><trkpt lat="44.3371944" lon="10.2534661"><ele>789.0</ele><time>2026-04-19T13:35:28.985Z</time></trkpt><trkpt lat="44.3372883" lon="10.253596"><ele>786.0</ele><time>2026-04-19T13:35:29.985Z</time></trkpt><trkpt lat="44.3373753" lon="10.2537282"><ele>783.0</ele><time>2026-04-19T13:35:30.985Z</time></trkpt><trkpt lat="44.3374362" lon="10.2538733"><ele>781.2</ele><time>2026-04-19T13:35:31.986Z</time></trkpt><trkpt lat="44.3374756" lon="10.2540335"><ele>779.4</ele><time>2026-04-19T13:35:32.984Z</time></trkpt><trkpt lat="44.337494" lon="10.2541839"><ele>777.6</ele><time>2026-04-19T13:35:33.986Z</time></trkpt><trkpt lat="44.3374983" lon="10.254329"><ele>775.8000000000001</ele><time>2026-04-19T13:35:34.986Z</time></trkpt><trkpt lat="44.3374887" lon="10.2544693"><ele>774.0</ele><time>2026-04-19T13:35:35.985Z</time></trkpt><trkpt lat="44.3374666" lon="10.2546131"><ele>774.0</ele><time>2026-04-19T13:35:36.986Z</time></trkpt><trkpt lat="44.337434" lon="10.2547613"><ele>774.0</ele><time>2026-04-19T13:35:37.985Z</time></trkpt><trkpt lat="44.3373947" lon="10.2549135"><ele>774.0</ele><time>2026-04-19T13:35:38.986Z</time></trkpt><trkpt lat="44.3373426" lon="10.2550632"><ele>774.0</ele><time>2026-04-19T13:35:39.984Z</time></trkpt><trkpt lat="44.3372723" lon="10.255208"><ele>771.8000000000001</ele><time>2026-04-19T13:35:40.986Z</time></trkpt><trkpt lat="44.3371899" lon="10.2553331"><ele>769.6</ele><time>2026-04-19T13:35:41.985Z</time></trkpt><trkpt lat="44.3371177" lon="10.2554319"><ele>767.4</ele><time>2026-04-19T13:35:42.986Z</time></trkpt><trkpt lat="44.3370658" lon="10.2555223"><ele>765.2</ele><time>2026-04-19T13:35:43.985Z</time></trkpt><trkpt lat="44.3370311" lon="10.2556121"><ele>763.0</ele><time>2026-04-19T13:35:44.985Z</time></trkpt><trkpt lat="44.3370179" lon="10.2557148"><ele>763.0</ele><time>2026-04-19T13:35:45.985Z</time></trkpt><trkpt lat="44.337039" lon="10.2558102"><ele>763.0</ele><time>2026-04-19T13:35:46.985Z</time></trkpt><trkpt lat="44.3370946" lon="10.2558989"><ele>763.0</ele><time>2026-04-19T13:35:47.984Z</time></trkpt><trkpt lat="44.3371776" lon="10.2559799"><ele>763.0</ele><time>2026-04-19T13:35:48.985Z</time></trkpt><trkpt lat="44.3372737" lon="10.256065"><ele>763.0</ele><time>2026-04-19T13:35:49.986Z</time></trkpt><trkpt lat="44.3373546" lon="10.2561654"><ele>771.0</ele><time>2026-04-19T13:35:50.985Z</time></trkpt><trkpt lat="44.3374187" lon="10.2562796"><ele>779.0</ele><time>2026-04-19T13:35:51.986Z</time></trkpt><trkpt lat="44.3374749" lon="10.256426"><ele>787.0</ele><time>2026-04-19T13:35:52.985Z</time></trkpt><trkpt lat="44.3375219" lon="10.2566074"><ele>795.0</ele><time>2026-04-19T13:35:53.985Z</time></trkpt><trkpt lat="44.3375584" lon="10.2568006"><ele>795.0</ele><time>2026-04-19T13:35:54.986Z</time></trkpt><trkpt lat="44.3375954" lon="10.2570056"><ele>795.0</ele><time>2026-04-19T13:35:55.986Z</time></trkpt><trkpt lat="44.3376314" lon="10.2571982"><ele>795.0</ele><time>2026-04-19T13:35:56.986Z</time></trkpt><trkpt lat="44.3376651" lon="10.2573936"><ele>795.0</ele><time>2026-04-19T13:35:57.985Z</time></trkpt><trkpt lat="44.3376982" lon="10.2575944"><ele>792.75</ele><time>2026-04-19T13:35:58.986Z</time></trkpt><trkpt lat="44.33773" lon="10.2578014"><ele>790.5</ele><time>2026-04-19T13:35:59.985Z</time></trkpt><trkpt lat="44.3377615" lon="10.2579985"><ele>788.25</ele><time>2026-04-19T13:36:00.985Z</time></trkpt><trkpt lat="44.337795" lon="10.2581827"><ele>786.0</ele><time>2026-04-19T13:36:01.986Z</time></trkpt><trkpt lat="44.3378313" lon="10.2583434"><ele>784.75</ele><time>2026-04-19T13:36:02.985Z</time></trkpt><trkpt lat="44.3378816" lon="10.2584884"><ele>783.5</ele><time>2026-04-19T13:36:03.985Z</time></trkpt><trkpt lat="44.3379446" lon="10.2586144"><ele>782.25</ele><time>2026-04-19T13:36:04.985Z</time></trkpt><trkpt lat="44.3380227" lon="10.2587305"><ele>781.0</ele><time>2026-04-19T13:36:05.985Z</time></trkpt><trkpt lat="44.3381219" lon="10.2588302"><ele>781.5</ele><time>2026-04-19T13:36:06.985Z</time></trkpt><trkpt lat="44.3382374" lon="10.2589086"><ele>782.0</ele><time>2026-04-19T13:36:07.986Z</time></trkpt><trkpt lat="44.3383618" lon="10.2589785"><ele>782.5</ele><time>2026-04-19T13:36:08.986Z</time></trkpt><trkpt lat="44.3384789" lon="10.2590447"><ele>783.0</ele><time>2026-04-19T13:36:09.985Z</time></trkpt><trkpt lat="44.3385893" lon="10.2591131"><ele>783.0</ele><time>2026-04-19T13:36:10.986Z</time></trkpt><trkpt lat="44.3386894" lon="10.2591909"><ele>783.0</ele><time>2026-04-19T13:36:11.985Z</time></trkpt><trkpt lat="44.3387774" lon="10.2592799"><ele>783.0</ele><time>2026-04-19T13:36:12.985Z</time></trkpt><trkpt lat="44.3388572" lon="10.2593862"><ele>783.0</ele><time>2026-04-19T13:36:13.986Z</time></trkpt><trkpt lat="44.3389268" lon="10.2595145"><ele>783.0</ele><time>2026-04-19T13:36:14.985Z</time></trkpt><trkpt lat="44.3389844" lon="10.259652"><ele>785.4</ele><time>2026-04-19T13:36:15.984Z</time></trkpt><trkpt lat="44.3390332" lon="10.259789"><ele>787.8</ele><time>2026-04-19T13:36:16.986Z</time></trkpt><trkpt lat="44.3390651" lon="10.2599232"><ele>790.2</ele><time>2026-04-19T13:36:17.986Z</time></trkpt><trkpt lat="44.3390738" lon="10.2600492"><ele>792.6</ele><time>2026-04-19T13:36:18.986Z</time></trkpt><trkpt lat="44.3390625" lon="10.2601737"><ele>795.0</ele><time>2026-04-19T13:36:19.986Z</time></trkpt><trkpt lat="44.3390356" lon="10.2603103"><ele>795.0</ele><time>2026-04-19T13:36:20.985Z</time></trkpt><trkpt lat="44.3390045" lon="10.2604496"><ele>795.0</ele><time>2026-04-19T13:36:21.985Z</time></trkpt><trkpt lat="44.3389788" lon="10.2605928"><ele>795.0</ele><time>2026-04-19T13:36:22.985Z</time></trkpt><trkpt lat="44.3389612" lon="10.260745"><ele>795.0</ele><time>2026-04-19T13:36:23.985Z</time></trkpt><trkpt lat="44.3389456" lon="10.2608996"><ele>795.0</ele><time>2026-04-19T13:36:24.985Z</time></trkpt><trkpt lat="44.3389351" lon="10.2610456"><ele>795.5</ele><time>2026-04-19T13:36:25.986Z</time></trkpt><trkpt lat="44.3389422" lon="10.2612078"><ele>796.0</ele><time>2026-04-19T13:36:26.985Z</time></trkpt><trkpt lat="44.3389744" lon="10.2613765"><ele>796.5</ele><time>2026-04-19T13:36:27.986Z</time></trkpt><trkpt lat="44.3390299" lon="10.2615405"><ele>797.0</ele><time>2026-04-19T13:36:28.985Z</time></trkpt><trkpt lat="44.3390905" lon="10.2616781"><ele>797.0</ele><time>2026-04-19T13:36:29.986Z</time></trkpt><trkpt lat="44.339164" lon="10.2617966"><ele>797.0</ele><time>2026-04-19T13:36:30.985Z</time></trkpt><trkpt lat="44.3392583" lon="10.2618869"><ele>797.0</ele><time>2026-04-19T13:36:31.985Z</time></trkpt><trkpt lat="44.3393619" lon="10.2619601"><ele>797.0</ele><time>2026-04-19T13:36:32.984Z</time></trkpt><trkpt lat="44.3394501" lon="10.2620415"><ele>797.0</ele><time>2026-04-19T13:36:33.985Z</time></trkpt><trkpt lat="44.3395383" lon="10.2621461"><ele>797.0</ele><time>2026-04-19T13:36:34.985Z</time></trkpt><trkpt lat="44.339612" lon="10.2622576"><ele>797.0</ele><time>2026-04-19T13:36:35.986Z</time></trkpt><trkpt lat="44.3396616" lon="10.2623669"><ele>797.0</ele><time>2026-04-19T13:36:36.986Z</time></trkpt><trkpt lat="44.3396909" lon="10.2624782"><ele>797.0</ele><time>2026-04-19T13:36:37.985Z</time></trkpt><trkpt lat="44.3397009" lon="10.262598"><ele>797.0</ele><time>2026-04-19T13:36:38.984Z</time></trkpt><trkpt lat="44.3396774" lon="10.262719"><ele>796.8</ele><time>2026-04-19T13:36:39.986Z</time></trkpt><trkpt lat="44.3396234" lon="10.2628304"><ele>796.6</ele><time>2026-04-19T13:36:40.985Z</time></trkpt><trkpt lat="44.3395537" lon="10.2629409"><ele>796.4</ele><time>2026-04-19T13:36:41.985Z</time></trkpt><trkpt lat="44.3394941" lon="10.2630542"><ele>796.1999999999999</ele><time>2026-04-19T13:36:42.986Z</time></trkpt><trkpt lat="44.3394491" lon="10.2631853"><ele>796.0</ele><time>2026-04-19T13:36:43.985Z</time></trkpt><trkpt lat="44.3394302" lon="10.2633299"><ele>796.0</ele><time>2026-04-19T13:36:44.985Z</time></trkpt><trkpt lat="44.3394393" lon="10.2634908"><ele>796.0</ele><time>2026-04-19T13:36:45.986Z</time></trkpt><trkpt lat="44.3394635" lon="10.2636656"><ele>796.0</ele><time>2026-04-19T13:36:46.985Z</time></trkpt><trkpt lat="44.3394864" lon="10.2638278"><ele>796.0</ele><time>2026-04-19T13:36:47.985Z</time></trkpt><trkpt lat="44.3394993" lon="10.2639695"><ele>796.0</ele><time>2026-04-19T13:36:48.984Z</time></trkpt><trkpt lat="44.3395037" lon="10.2641044"><ele>796.0</ele><time>2026-04-19T13:36:49.985Z</time></trkpt><trkpt lat="44.3394978" lon="10.2642359"><ele>796.0</ele><time>2026-04-19T13:36:50.986Z</time></trkpt><trkpt lat="44.3394803" lon="10.2643582"><ele>796.0</ele><time>2026-04-19T13:36:51.986Z</time></trkpt><trkpt lat="44.3394604" lon="10.2644804"><ele>796.0</ele><time>2026-04-19T13:36:52.985Z</time></trkpt><trkpt lat="44.339445" lon="10.2646034"><ele>795.9999999999999</ele><time>2026-04-19T13:36:53.984Z</time></trkpt><trkpt lat="44.33944" lon="10.264723"><ele>796.0</ele><time>2026-04-19T13:36:54.985Z</time></trkpt><trkpt lat="44.3394439" lon="10.2648278"><ele>796.0</ele><time>2026-04-19T13:36:55.986Z</time></trkpt><trkpt lat="44.33945" lon="10.2649268"><ele>796.0</ele><time>2026-04-19T13:36:56.985Z</time></trkpt><trkpt lat="44.3394532" lon="10.2650194"><ele>796.0</ele><time>2026-04-19T13:36:57.986Z</time></trkpt><trkpt lat="44.3394504" lon="10.2651139"><ele>795.9999999999999</ele><time>2026-04-19T13:36:58.985Z</time></trkpt><trkpt lat="44.3394486" lon="10.2652163"><ele>796.0</ele><time>2026-04-19T13:36:59.984Z</time></trkpt><trkpt lat="44.3394634" lon="10.2653117"><ele>797.1666666666666</ele><time>2026-04-19T13:37:00.985Z</time></trkpt><trkpt lat="44.3394972" lon="10.2653949"><ele>798.3333333333333</ele><time>2026-04-19T13:37:01.985Z</time></trkpt><trkpt lat="44.3395497" lon="10.2654513"><ele>799.5</ele><time>2026-04-19T13:37:02.986Z</time></trkpt><trkpt lat="44.3396176" lon="10.2654781"><ele>800.6666666666667</ele><time>2026-04-19T13:37:03.986Z</time></trkpt><trkpt lat="44.3396974" lon="10.2654741"><ele>801.8333333333334</ele><time>2026-04-19T13:37:04.986Z</time></trkpt><trkpt lat="44.3397887" lon="10.2654647"><ele>803.0</ele><time>2026-04-19T13:37:05.985Z</time></trkpt><trkpt lat="44.339887" lon="10.2654878"><ele>802.5</ele><time>2026-04-19T13:37:06.985Z</time></trkpt><trkpt lat="44.3399913" lon="10.2655441"><ele>802.0</ele><time>2026-04-19T13:37:07.986Z</time></trkpt><trkpt lat="44.3400955" lon="10.2656136"><ele>801.5</ele><time>2026-04-19T13:37:08.986Z</time></trkpt><trkpt lat="44.3402105" lon="10.2656885"><ele>801.0</ele><time>2026-04-19T13:37:09.986Z</time></trkpt><trkpt lat="44.3403363" lon="10.265758"><ele>801.0</ele><time>2026-04-19T13:37:10.984Z</time></trkpt><trkpt lat="44.3404679" lon="10.2658203"><ele>801.0</ele><time>2026-04-19T13:37:11.986Z</time></trkpt><trkpt lat="44.3406036" lon="10.2658866"><ele>801.0</ele><time>2026-04-19T13:37:12.985Z</time></trkpt><trkpt lat="44.340735" lon="10.2659591"><ele>801.0</ele><time>2026-04-19T13:37:13.986Z</time></trkpt><trkpt lat="44.3408639" lon="10.2660383"><ele>802.0</ele><time>2026-04-19T13:37:14.986Z</time></trkpt><trkpt lat="44.3409864" lon="10.2661238"><ele>803.0</ele><time>2026-04-19T13:37:15.985Z</time></trkpt><trkpt lat="44.3411004" lon="10.2662176"><ele>804.0</ele><time>2026-04-19T13:37:16.986Z</time></trkpt><trkpt lat="44.3412153" lon="10.2663223"><ele>805.0</ele><time>2026-04-19T13:37:17.986Z</time></trkpt><trkpt lat="44.3413366" lon="10.2664451"><ele>805.6666666666666</ele><time>2026-04-19T13:37:18.986Z</time></trkpt><trkpt lat="44.3414676" lon="10.2665947"><ele>806.3333333333333</ele><time>2026-04-19T13:37:19.986Z</time></trkpt><trkpt lat="44.3415916" lon="10.2667578"><ele>807.0</ele><time>2026-04-19T13:37:20.985Z</time></trkpt><trkpt lat="44.3417045" lon="10.2669284"><ele>807.0</ele><time>2026-04-19T13:37:21.985Z</time></trkpt><trkpt lat="44.3418049" lon="10.2671035"><ele>807.0</ele><time>2026-04-19T13:37:22.985Z</time></trkpt><trkpt lat="44.3418941" lon="10.2672852"><ele>807.0</ele><time>2026-04-19T13:37:23.985Z</time></trkpt><trkpt lat="44.3419768" lon="10.2674823"><ele>803.0</ele><time>2026-04-19T13:37:24.985Z</time></trkpt><trkpt lat="44.3420527" lon="10.26769"><ele>799.0</ele><time>2026-04-19T13:37:25.986Z</time></trkpt><trkpt lat="44.3421188" lon="10.2679038"><ele>795.0</ele><time>2026-04-19T13:37:26.985Z</time></trkpt><trkpt lat="44.3421733" lon="10.2681243"><ele>800.0</ele><time>2026-04-19T13:37:27.984Z</time></trkpt><trkpt lat="44.3422168" lon="10.268352"><ele>805.0</ele><time>2026-04-19T13:37:28.985Z</time></trkpt><trkpt lat="44.3422526" lon="10.268589"><ele>810.0</ele><time>2026-04-19T13:37:29.985Z</time></trkpt><trkpt lat="44.342278" lon="10.2688216"><ele>810.3333333333333</ele><time>2026-04-19T13:37:30.985Z</time></trkpt><trkpt lat="44.3422919" lon="10.2690555"><ele>810.6666666666666</ele><time>2026-04-19T13:37:31.986Z</time></trkpt><trkpt lat="44.3423033" lon="10.2692898"><ele>811.0</ele><time>2026-04-19T13:37:32.985Z</time></trkpt><trkpt lat="44.342317" lon="10.2695176"><ele>811.0</ele><time>2026-04-19T13:37:33.986Z</time></trkpt><trkpt lat="44.3423309" lon="10.2697368"><ele>811.0</ele><time>2026-04-19T13:37:34.985Z</time></trkpt><trkpt lat="44.3423446" lon="10.2699505"><ele>811.0</ele><time>2026-04-19T13:37:35.986Z</time></trkpt><trkpt lat="44.3423562" lon="10.2701656"><ele>810.6666666666666</ele><time>2026-04-19T13:37:36.986Z</time></trkpt><trkpt lat="44.3423663" lon="10.2703779"><ele>810.3333333333333</ele><time>2026-04-19T13:37:37.986Z</time></trkpt><trkpt lat="44.3423794" lon="10.2705847"><ele>810.0</ele><time>2026-04-19T13:37:38.985Z</time></trkpt><trkpt lat="44.3423951" lon="10.2707945"><ele>808.0</ele><time>2026-04-19T13:37:39.986Z</time></trkpt><trkpt lat="44.3424127" lon="10.2710068"><ele>806.0</ele><time>2026-04-19T13:37:40.986Z</time></trkpt><trkpt lat="44.3424342" lon="10.2712201"><ele>804.0</ele><time>2026-04-19T13:37:41.986Z</time></trkpt><trkpt lat="44.3424643" lon="10.2714388"><ele>802.3333333333333</ele><time>2026-04-19T13:37:42.985Z</time></trkpt><trkpt lat="44.342506" lon="10.2716596"><ele>800.6666666666666</ele><time>2026-04-19T13:37:43.986Z</time></trkpt><trkpt lat="44.3425556" lon="10.2718802"><ele>799.0</ele><time>2026-04-19T13:37:44.986Z</time></trkpt><trkpt lat="44.3426102" lon="10.2720958"><ele>795.6666666666666</ele><time>2026-04-19T13:37:45.984Z</time></trkpt><trkpt lat="44.3426711" lon="10.2723093"><ele>792.3333333333333</ele><time>2026-04-19T13:37:46.986Z</time></trkpt><trkpt lat="44.3427386" lon="10.2725177"><ele>789.0</ele><time>2026-04-19T13:37:47.986Z</time></trkpt><trkpt lat="44.3428131" lon="10.2727243"><ele>789.0</ele><time>2026-04-19T13:37:48.986Z</time></trkpt><trkpt lat="44.3429055" lon="10.2729321"><ele>789.0</ele><time>2026-04-19T13:37:49.986Z</time></trkpt><trkpt lat="44.3430152" lon="10.2731438"><ele>789.0</ele><time>2026-04-19T13:37:50.986Z</time></trkpt><trkpt lat="44.3431399" lon="10.2733675"><ele>791.0</ele><time>2026-04-19T13:37:51.985Z</time></trkpt><trkpt lat="44.3432787" lon="10.2736063"><ele>793.0</ele><time>2026-04-19T13:37:52.986Z</time></trkpt><trkpt lat="44.343427" lon="10.2738648"><ele>786.5</ele><time>2026-04-19T13:37:53.985Z</time></trkpt><trkpt lat="44.3435783" lon="10.2741314"><ele>780.0</ele><time>2026-04-19T13:37:54.985Z</time></trkpt><trkpt lat="44.3437378" lon="10.2744134"><ele>777.0</ele><time>2026-04-19T13:37:55.984Z</time></trkpt><trkpt lat="44.3439009" lon="10.2747035"><ele>774.0</ele><time>2026-04-19T13:37:56.985Z</time></trkpt><trkpt lat="44.3440625" lon="10.2749907"><ele>774.0</ele><time>2026-04-19T13:37:57.985Z</time></trkpt><trkpt lat="44.3442216" lon="10.2752779"><ele>774.0</ele><time>2026-04-19T13:37:58.985Z</time></trkpt><trkpt lat="44.3443769" lon="10.2755599"><ele>770.0</ele><time>2026-04-19T13:37:59.985Z</time></trkpt><trkpt lat="44.3445302" lon="10.2758408"><ele>766.0</ele><time>2026-04-19T13:38:00.986Z</time></trkpt><trkpt lat="44.3446818" lon="10.2761181"><ele>770.0</ele><time>2026-04-19T13:38:01.984Z</time></trkpt><trkpt lat="44.3448277" lon="10.2763864"><ele>774.0</ele><time>2026-04-19T13:38:02.985Z</time></trkpt><trkpt lat="44.3449672" lon="10.2766402"><ele>774.0</ele><time>2026-04-19T13:38:03.985Z</time></trkpt><trkpt lat="44.3451013" lon="10.276882"><ele>774.0</ele><time>2026-04-19T13:38:04.984Z</time></trkpt><trkpt lat="44.3452332" lon="10.2771156"><ele>774.0</ele><time>2026-04-19T13:38:05.984Z</time></trkpt><trkpt lat="44.3453608" lon="10.2773416"><ele>771.3333333333334</ele><time>2026-04-19T13:38:06.986Z</time></trkpt><trkpt lat="44.3454836" lon="10.277562"><ele>768.6666666666667</ele><time>2026-04-19T13:38:07.985Z</time></trkpt><trkpt lat="44.3456062" lon="10.2777797"><ele>766.0</ele><time>2026-04-19T13:38:08.984Z</time></trkpt><trkpt lat="44.3457252" lon="10.2779845"><ele>767.3333333333334</ele><time>2026-04-19T13:38:09.986Z</time></trkpt><trkpt lat="44.345845" lon="10.2781948"><ele>768.6666666666667</ele><time>2026-04-19T13:38:10.986Z</time></trkpt><trkpt lat="44.3459648" lon="10.2784027"><ele>770.0</ele><time>2026-04-19T13:38:11.985Z</time></trkpt><trkpt lat="44.3460993" lon="10.2786107"><ele>770.0</ele><time>2026-04-19T13:38:12.985Z</time></trkpt><trkpt lat="44.3462086" lon="10.2788555"><ele>770.0</ele><time>2026-04-19T13:38:13.985Z</time></trkpt><trkpt lat="44.3463081" lon="10.2790445"><ele>770.0</ele><time>2026-04-19T13:38:14.985Z</time></trkpt><trkpt lat="44.3464144" lon="10.2792402"><ele>769.0</ele><time>2026-04-19T13:38:15.985Z</time></trkpt><trkpt lat="44.3465251" lon="10.2794351"><ele>768.0</ele><time>2026-04-19T13:38:16.986Z</time></trkpt><trkpt lat="44.3466326" lon="10.2796297"><ele>767.0</ele><time>2026-04-19T13:38:17.985Z</time></trkpt><trkpt lat="44.3467385" lon="10.2798154"><ele>762.3333333333333</ele><time>2026-04-19T13:38:18.986Z</time></trkpt><trkpt lat="44.3468368" lon="10.2799937"><ele>757.6666666666666</ele><time>2026-04-19T13:38:19.985Z</time></trkpt><trkpt lat="44.3469373" lon="10.2801701"><ele>753.0</ele><time>2026-04-19T13:38:20.985Z</time></trkpt><trkpt lat="44.3470471" lon="10.2803443"><ele>753.0</ele><time>2026-04-19T13:38:21.986Z</time></trkpt><trkpt lat="44.3471683" lon="10.2805135"><ele>753.0</ele><time>2026-04-19T13:38:22.985Z</time></trkpt><trkpt lat="44.3473042" lon="10.2806784"><ele>753.0</ele><time>2026-04-19T13:38:23.985Z</time></trkpt><trkpt lat="44.3474357" lon="10.2808351"><ele>752.3333333333334</ele><time>2026-04-19T13:38:24.986Z</time></trkpt><trkpt lat="44.3475653" lon="10.2809855"><ele>751.6666666666667</ele><time>2026-04-19T13:38:25.986Z</time></trkpt><trkpt lat="44.3476964" lon="10.2811375"><ele>751.0</ele><time>2026-04-19T13:38:26.986Z</time></trkpt><trkpt lat="44.3481138" lon="10.2815764"><ele>751.0</ele><time>2026-04-19T13:38:29.986Z</time></trkpt><trkpt lat="44.3483871" lon="10.2814832"><ele>751.0</ele><time>2026-04-19T13:38:30.985Z</time></trkpt><trkpt lat="44.3485507" lon="10.2815518"><ele>751.0</ele><time>2026-04-19T13:38:31.986Z</time></trkpt><trkpt lat="44.3487202" lon="10.2816003"><ele>751.0</ele><time>2026-04-19T13:38:32.985Z</time></trkpt><trkpt lat="44.3488871" lon="10.2816416"><ele>751.0</ele><time>2026-04-19T13:38:33.985Z</time></trkpt><trkpt lat="44.3490513" lon="10.2816766"><ele>748.0</ele><time>2026-04-19T13:38:34.985Z</time></trkpt><trkpt lat="44.3492133" lon="10.2817109"><ele>745.0</ele><time>2026-04-19T13:38:35.985Z</time></trkpt><trkpt lat="44.3493592" lon="10.2817401"><ele>742.0</ele><time>2026-04-19T13:38:36.985Z</time></trkpt><trkpt lat="44.3494986" lon="10.2817653"><ele>742.0</ele><time>2026-04-19T13:38:37.986Z</time></trkpt><trkpt lat="44.3496353" lon="10.2817669"><ele>742.0</ele><time>2026-04-19T13:38:38.985Z</time></trkpt><trkpt lat="44.3497685" lon="10.28174"><ele>742.0</ele><time>2026-04-19T13:38:39.985Z</time></trkpt><trkpt lat="44.349901" lon="10.2817103"><ele>742.0</ele><time>2026-04-19T13:38:40.986Z</time></trkpt><trkpt lat="44.3500311" lon="10.2816995"><ele>740.75</ele><time>2026-04-19T13:38:41.986Z</time></trkpt><trkpt lat="44.3501643" lon="10.2817235"><ele>739.5</ele><time>2026-04-19T13:38:42.984Z</time></trkpt><trkpt lat="44.3503059" lon="10.2817752"><ele>738.25</ele><time>2026-04-19T13:38:43.984Z</time></trkpt><trkpt lat="44.3504472" lon="10.2818336"><ele>737.0</ele><time>2026-04-19T13:38:44.985Z</time></trkpt><trkpt lat="44.3505847" lon="10.2818901"><ele>737.0</ele><time>2026-04-19T13:38:45.984Z</time></trkpt><trkpt lat="44.3507135" lon="10.2819426"><ele>737.0</ele><time>2026-04-19T13:38:46.986Z</time></trkpt><trkpt lat="44.3508301" lon="10.2819776"><ele>737.0</ele><time>2026-04-19T13:38:47.986Z</time></trkpt><trkpt lat="44.3509421" lon="10.2819857"><ele>737.0</ele><time>2026-04-19T13:38:48.985Z</time></trkpt><trkpt lat="44.3510553" lon="10.2819691"><ele>737.0</ele><time>2026-04-19T13:38:49.985Z</time></trkpt><trkpt lat="44.3511673" lon="10.2819318"><ele>737.0</ele><time>2026-04-19T13:38:50.985Z</time></trkpt><trkpt lat="44.3512779" lon="10.2818849"><ele>737.0</ele><time>2026-04-19T13:38:51.985Z</time></trkpt><trkpt lat="44.3513877" lon="10.2818438"><ele>737.0</ele><time>2026-04-19T13:38:52.986Z</time></trkpt><trkpt lat="44.3515006" lon="10.2818156"><ele>736.5</ele><time>2026-04-19T13:38:53.984Z</time></trkpt><trkpt lat="44.3516245" lon="10.2818036"><ele>736.0</ele><time>2026-04-19T13:38:54.985Z</time></trkpt><trkpt lat="44.3517603" lon="10.2818093"><ele>735.5</ele><time>2026-04-19T13:38:55.986Z</time></trkpt><trkpt lat="44.3519075" lon="10.2818357"><ele>735.0</ele><time>2026-04-19T13:38:56.985Z</time></trkpt><trkpt lat="44.3520528" lon="10.2818766"><ele>735.0</ele><time>2026-04-19T13:38:57.985Z</time></trkpt><trkpt lat="44.3521964" lon="10.2819338"><ele>735.0</ele><time>2026-04-19T13:38:58.985Z</time></trkpt><trkpt lat="44.3523387" lon="10.2819873"><ele>735.0</ele><time>2026-04-19T13:38:59.986Z</time></trkpt><trkpt lat="44.3524764" lon="10.2820411"><ele>735.0</ele><time>2026-04-19T13:39:00.985Z</time></trkpt><trkpt lat="44.3525988" lon="10.2820896"><ele>732.0</ele><time>2026-04-19T13:39:01.984Z</time></trkpt><trkpt lat="44.3527077" lon="10.2821333"><ele>729.0</ele><time>2026-04-19T13:39:02.985Z</time></trkpt><trkpt lat="44.3528034" lon="10.2821922"><ele>726.0</ele><time>2026-04-19T13:39:03.986Z</time></trkpt><trkpt lat="44.3528808" lon="10.2822824"><ele>723.0</ele><time>2026-04-19T13:39:04.986Z</time></trkpt><trkpt lat="44.3529312" lon="10.2824019"><ele>720.0</ele><time>2026-04-19T13:39:05.985Z</time></trkpt><trkpt lat="44.3529659" lon="10.2825415"><ele>719.0</ele><time>2026-04-19T13:39:06.986Z</time></trkpt><trkpt lat="44.3529761" lon="10.2826945"><ele>718.0</ele><time>2026-04-19T13:39:07.986Z</time></trkpt><trkpt lat="44.3529498" lon="10.2828439"><ele>717.0</ele><time>2026-04-19T13:39:08.985Z</time></trkpt><trkpt lat="44.3528978" lon="10.282981"><ele>716.0</ele><time>2026-04-19T13:39:09.986Z</time></trkpt><trkpt lat="44.3528265" lon="10.2830964"><ele>715.0</ele><time>2026-04-19T13:39:10.985Z</time></trkpt><trkpt lat="44.3527463" lon="10.2832029"><ele>715.0</ele><time>2026-04-19T13:39:11.985Z</time></trkpt><trkpt lat="44.3526899" lon="10.2833152"><ele>715.0</ele><time>2026-04-19T13:39:12.986Z</time></trkpt><trkpt lat="44.3526528" lon="10.2834425"><ele>715.0</ele><time>2026-04-19T13:39:13.986Z</time></trkpt><trkpt lat="44.35263" lon="10.2835807"><ele>715.0</ele><time>2026-04-19T13:39:14.985Z</time></trkpt><trkpt lat="44.352611" lon="10.2837294"><ele>715.0</ele><time>2026-04-19T13:39:15.986Z</time></trkpt><trkpt lat="44.3525931" lon="10.2839079"><ele>719.3333333333334</ele><time>2026-04-19T13:39:16.985Z</time></trkpt><trkpt lat="44.3525813" lon="10.2841127"><ele>723.6666666666666</ele><time>2026-04-19T13:39:17.985Z</time></trkpt><trkpt lat="44.3525772" lon="10.2843429"><ele>728.0</ele><time>2026-04-19T13:39:18.985Z</time></trkpt><trkpt lat="44.3525757" lon="10.284555"><ele>729.5</ele><time>2026-04-19T13:39:19.986Z</time></trkpt><trkpt lat="44.3525775" lon="10.2847704"><ele>731.0</ele><time>2026-04-19T13:39:20.985Z</time></trkpt><trkpt lat="44.3525819" lon="10.2849626"><ele>732.5</ele><time>2026-04-19T13:39:21.985Z</time></trkpt><trkpt lat="44.3525838" lon="10.2851374"><ele>734.0</ele><time>2026-04-19T13:39:22.985Z</time></trkpt><trkpt lat="44.3525806" lon="10.2852976"><ele>734.0</ele><time>2026-04-19T13:39:23.986Z</time></trkpt><trkpt lat="44.3525551" lon="10.2854463"><ele>734.0</ele><time>2026-04-19T13:39:24.986Z</time></trkpt><trkpt lat="44.3525058" lon="10.2855595"><ele>734.0</ele><time>2026-04-19T13:39:25.986Z</time></trkpt><trkpt lat="44.3524354" lon="10.2856475"><ele>734.0</ele><time>2026-04-19T13:39:26.985Z</time></trkpt><trkpt lat="44.3523464" lon="10.2857215"><ele>734.0</ele><time>2026-04-19T13:39:27.986Z</time></trkpt><trkpt lat="44.3522483" lon="10.2858042"><ele>734.5</ele><time>2026-04-19T13:39:28.986Z</time></trkpt><trkpt lat="44.3521583" lon="10.2859212"><ele>735.0</ele><time>2026-04-19T13:39:29.986Z</time></trkpt><trkpt lat="44.3520694" lon="10.2860766"><ele>735.5</ele><time>2026-04-19T13:39:30.986Z</time></trkpt><trkpt lat="44.3520039" lon="10.2862266"><ele>736.0</ele><time>2026-04-19T13:39:31.986Z</time></trkpt><trkpt lat="44.3519589" lon="10.2863716"><ele>738.0</ele><time>2026-04-19T13:39:32.986Z</time></trkpt><trkpt lat="44.3519338" lon="10.2865247"><ele>740.0</ele><time>2026-04-19T13:39:33.985Z</time></trkpt><trkpt lat="44.3519307" lon="10.2866794"><ele>742.0</ele><time>2026-04-19T13:39:34.985Z</time></trkpt><trkpt lat="44.3519479" lon="10.2868333"><ele>744.0</ele><time>2026-04-19T13:39:35.985Z</time></trkpt><trkpt lat="44.351994" lon="10.2869899"><ele>744.0</ele><time>2026-04-19T13:39:36.986Z</time></trkpt><trkpt lat="44.3520575" lon="10.2871412"><ele>744.0</ele><time>2026-04-19T13:39:37.986Z</time></trkpt><trkpt lat="44.3521247" lon="10.2872928"><ele>744.0</ele><time>2026-04-19T13:39:38.986Z</time></trkpt><trkpt lat="44.3521938" lon="10.2874517"><ele>744.0</ele><time>2026-04-19T13:39:39.986Z</time></trkpt><trkpt lat="44.352261" lon="10.2876084"><ele>745.25</ele><time>2026-04-19T13:39:40.986Z</time></trkpt><trkpt lat="44.3523317" lon="10.2877689"><ele>746.5</ele><time>2026-04-19T13:39:41.986Z</time></trkpt><trkpt lat="44.3524082" lon="10.2879185"><ele>747.75</ele><time>2026-04-19T13:39:42.986Z</time></trkpt><trkpt lat="44.3524897" lon="10.2880365"><ele>749.0</ele><time>2026-04-19T13:39:43.986Z</time></trkpt><trkpt lat="44.3525879" lon="10.2881256"><ele>749.0</ele><time>2026-04-19T13:39:44.985Z</time></trkpt><trkpt lat="44.3526936" lon="10.2881737"><ele>749.0</ele><time>2026-04-19T13:39:45.984Z</time></trkpt><trkpt lat="44.3528006" lon="10.2881794"><ele>749.0</ele><time>2026-04-19T13:39:46.986Z</time></trkpt><trkpt lat="44.3529105" lon="10.2881436"><ele>749.0</ele><time>2026-04-19T13:39:47.986Z</time></trkpt><trkpt lat="44.3530148" lon="10.2880754"><ele>749.0</ele><time>2026-04-19T13:39:48.985Z</time></trkpt><trkpt lat="44.3531084" lon="10.2880095"><ele>750.8000000000001</ele><time>2026-04-19T13:39:49.986Z</time></trkpt><trkpt lat="44.3532066" lon="10.28798"><ele>752.6</ele><time>2026-04-19T13:39:50.986Z</time></trkpt><trkpt lat="44.3533042" lon="10.2879933"><ele>754.4</ele><time>2026-04-19T13:39:51.985Z</time></trkpt><trkpt lat="44.3533907" lon="10.2880573"><ele>756.2</ele><time>2026-04-19T13:39:52.986Z</time></trkpt><trkpt lat="44.3534733" lon="10.2881555"><ele>758.0</ele><time>2026-04-19T13:39:53.984Z</time></trkpt><trkpt lat="44.3535622" lon="10.288284"><ele>758.0</ele><time>2026-04-19T13:39:54.985Z</time></trkpt><trkpt lat="44.3536695" lon="10.2884353"><ele>758.0</ele><time>2026-04-19T13:39:55.986Z</time></trkpt><trkpt lat="44.3537889" lon="10.2886142"><ele>758.0</ele><time>2026-04-19T13:39:56.984Z</time></trkpt><trkpt lat="44.353882" lon="10.2887861"><ele>761.0</ele><time>2026-04-19T13:39:57.985Z</time></trkpt><trkpt lat="44.3539534" lon="10.2889623"><ele>764.0</ele><time>2026-04-19T13:39:58.986Z</time></trkpt><trkpt lat="44.354003" lon="10.2891377"><ele>767.0</ele><time>2026-04-19T13:39:59.986Z</time></trkpt><trkpt lat="44.3540518" lon="10.2892914"><ele>770.0</ele><time>2026-04-19T13:40:00.986Z</time></trkpt><trkpt lat="44.3541045" lon="10.289426"><ele>770.0</ele><time>2026-04-19T13:40:01.984Z</time></trkpt><trkpt lat="44.354175" lon="10.2895472"><ele>770.0</ele><time>2026-04-19T13:40:02.986Z</time></trkpt><trkpt lat="44.3542755" lon="10.2896321"><ele>770.0</ele><time>2026-04-19T13:40:03.985Z</time></trkpt><trkpt lat="44.3543936" lon="10.2896914"><ele>770.0</ele><time>2026-04-19T13:40:04.986Z</time></trkpt><trkpt lat="44.3545049" lon="10.2897257"><ele>767.5</ele><time>2026-04-19T13:40:05.985Z</time></trkpt><trkpt lat="44.3546128" lon="10.2897806"><ele>765.0</ele><time>2026-04-19T13:40:06.985Z</time></trkpt><trkpt lat="44.354714" lon="10.2898709"><ele>762.5</ele><time>2026-04-19T13:40:07.986Z</time></trkpt><trkpt lat="44.3547881" lon="10.2899843"><ele>760.0</ele><time>2026-04-19T13:40:08.985Z</time></trkpt><trkpt lat="44.3548427" lon="10.2901213"><ele>761.8</ele><time>2026-04-19T13:40:09.985Z</time></trkpt><trkpt lat="44.3548796" lon="10.2902563"><ele>763.6</ele><time>2026-04-19T13:40:10.985Z</time></trkpt><trkpt lat="44.3549125" lon="10.2903776"><ele>765.4000000000001</ele><time>2026-04-19T13:40:11.986Z</time></trkpt><trkpt lat="44.3549404" lon="10.2904764"><ele>767.2</ele><time>2026-04-19T13:40:12.984Z</time></trkpt><trkpt lat="44.3550114" lon="10.2905989"><ele>769.0</ele><time>2026-04-19T13:40:14.986Z</time></trkpt><trkpt lat="44.355122" lon="10.290586"><ele>770.8333333333333</ele><time>2026-04-19T13:40:16.986Z</time></trkpt><trkpt lat="44.3551854" lon="10.2905257"><ele>772.6666666666666</ele><time>2026-04-19T13:40:17.986Z</time></trkpt><trkpt lat="44.3552527" lon="10.2904482"><ele>774.5</ele><time>2026-04-19T13:40:18.985Z</time></trkpt><trkpt lat="44.3553228" lon="10.290391"><ele>776.3333333333333</ele><time>2026-04-19T13:40:19.985Z</time></trkpt><trkpt lat="44.3553958" lon="10.2903594"><ele>778.1666666666666</ele><time>2026-04-19T13:40:20.986Z</time></trkpt><trkpt lat="44.3554777" lon="10.2903561"><ele>780.0</ele><time>2026-04-19T13:40:21.985Z</time></trkpt><trkpt lat="44.3555615" lon="10.2903758"><ele>779.3333333333334</ele><time>2026-04-19T13:40:22.985Z</time></trkpt><trkpt lat="44.3556431" lon="10.2904179"><ele>778.6666666666667</ele><time>2026-04-19T13:40:23.985Z</time></trkpt><trkpt lat="44.3557217" lon="10.2904639"><ele>778.0</ele><time>2026-04-19T13:40:24.985Z</time></trkpt><trkpt lat="44.3557908" lon="10.2905232"><ele>777.3333333333334</ele><time>2026-04-19T13:40:25.985Z</time></trkpt><trkpt lat="44.3558426" lon="10.2905998"><ele>776.6666666666667</ele><time>2026-04-19T13:40:26.986Z</time></trkpt><trkpt lat="44.3558842" lon="10.290697"><ele>776.0</ele><time>2026-04-19T13:40:27.986Z</time></trkpt><trkpt lat="44.3559117" lon="10.2908126"><ele>776.0</ele><time>2026-04-19T13:40:28.984Z</time></trkpt><trkpt lat="44.355922" lon="10.2909396"><ele>776.0</ele><time>2026-04-19T13:40:29.985Z</time></trkpt><trkpt lat="44.3559225" lon="10.2910773"><ele>776.0</ele><time>2026-04-19T13:40:30.985Z</time></trkpt><trkpt lat="44.3559017" lon="10.2912279"><ele>776.0</ele><time>2026-04-19T13:40:31.985Z</time></trkpt><trkpt lat="44.3558808" lon="10.2913879"><ele>776.0</ele><time>2026-04-19T13:40:32.985Z</time></trkpt><trkpt lat="44.3558624" lon="10.2915418"><ele>775.25</ele><time>2026-04-19T13:40:33.985Z</time></trkpt><trkpt lat="44.3558521" lon="10.2916929"><ele>774.5</ele><time>2026-04-19T13:40:34.986Z</time></trkpt><trkpt lat="44.355866" lon="10.2918512"><ele>773.75</ele><time>2026-04-19T13:40:35.986Z</time></trkpt><trkpt lat="44.3559108" lon="10.2920106"><ele>773.0</ele><time>2026-04-19T13:40:36.986Z</time></trkpt><trkpt lat="44.3559657" lon="10.2921835"><ele>770.5</ele><time>2026-04-19T13:40:37.985Z</time></trkpt><trkpt lat="44.3560287" lon="10.2923723"><ele>768.0</ele><time>2026-04-19T13:40:38.985Z</time></trkpt><trkpt lat="44.356088" lon="10.2925613"><ele>765.5</ele><time>2026-04-19T13:40:39.986Z</time></trkpt><trkpt lat="44.3561473" lon="10.2927552"><ele>763.0</ele><time>2026-04-19T13:40:40.985Z</time></trkpt><trkpt lat="44.3562088" lon="10.2929549"><ele>760.6666666666667</ele><time>2026-04-19T13:40:41.986Z</time></trkpt><trkpt lat="44.3562696" lon="10.2931649"><ele>758.3333333333334</ele><time>2026-04-19T13:40:42.985Z</time></trkpt><trkpt lat="44.3563262" lon="10.2933693"><ele>756.0</ele><time>2026-04-19T13:40:43.985Z</time></trkpt><trkpt lat="44.356379" lon="10.2935643"><ele>761.6666666666667</ele><time>2026-04-19T13:40:44.986Z</time></trkpt><trkpt lat="44.3564356" lon="10.2937637"><ele>767.3333333333334</ele><time>2026-04-19T13:40:45.986Z</time></trkpt><trkpt lat="44.356498" lon="10.2939604"><ele>773.0</ele><time>2026-04-19T13:40:46.985Z</time></trkpt><trkpt lat="44.3565685" lon="10.2941567"><ele>773.0</ele><time>2026-04-19T13:40:47.985Z</time></trkpt><trkpt lat="44.3566362" lon="10.294338"><ele>773.0</ele><time>2026-04-19T13:40:48.985Z</time></trkpt><trkpt lat="44.3567055" lon="10.2945206"><ele>773.0</ele><time>2026-04-19T13:40:49.985Z</time></trkpt><trkpt lat="44.3567662" lon="10.2946993"><ele>773.0</ele><time>2026-04-19T13:40:50.985Z</time></trkpt><trkpt lat="44.3568121" lon="10.2948775"><ele>772.25</ele><time>2026-04-19T13:40:51.986Z</time></trkpt><trkpt lat="44.3568369" lon="10.2950704"><ele>771.5</ele><time>2026-04-19T13:40:52.986Z</time></trkpt><trkpt lat="44.3568357" lon="10.2952709"><ele>770.75</ele><time>2026-04-19T13:40:53.985Z</time></trkpt><trkpt lat="44.3568195" lon="10.2954744"><ele>770.0</ele><time>2026-04-19T13:40:54.985Z</time></trkpt><trkpt lat="44.356817" lon="10.2956747"><ele>769.75</ele><time>2026-04-19T13:40:55.985Z</time></trkpt><trkpt lat="44.3568343" lon="10.2958725"><ele>769.5</ele><time>2026-04-19T13:40:56.986Z</time></trkpt><trkpt lat="44.3568787" lon="10.296057"><ele>769.25</ele><time>2026-04-19T13:40:57.986Z</time></trkpt><trkpt lat="44.3569426" lon="10.2962489"><ele>769.0</ele><time>2026-04-19T13:40:58.985Z</time></trkpt><trkpt lat="44.3570054" lon="10.2964284"><ele>768.25</ele><time>2026-04-19T13:40:59.985Z</time></trkpt><trkpt lat="44.3570659" lon="10.2966154"><ele>767.5</ele><time>2026-04-19T13:41:00.986Z</time></trkpt><trkpt lat="44.3571163" lon="10.2968031"><ele>766.75</ele><time>2026-04-19T13:41:01.986Z</time></trkpt><trkpt lat="44.3571505" lon="10.2969873"><ele>766.0</ele><time>2026-04-19T13:41:02.985Z</time></trkpt><trkpt lat="44.3571777" lon="10.2971727"><ele>771.5</ele><time>2026-04-19T13:41:03.986Z</time></trkpt><trkpt lat="44.3572035" lon="10.2973553"><ele>777.0</ele><time>2026-04-19T13:41:04.985Z</time></trkpt><trkpt lat="44.3572302" lon="10.2975236"><ele>782.5</ele><time>2026-04-19T13:41:05.985Z</time></trkpt><trkpt lat="44.3572596" lon="10.2976863"><ele>788.0</ele><time>2026-04-19T13:41:06.986Z</time></trkpt><trkpt lat="44.3572834" lon="10.2978237"><ele>788.0000000000001</ele><time>2026-04-19T13:41:07.986Z</time></trkpt><trkpt lat="44.3572929" lon="10.2979505"><ele>788.0</ele><time>2026-04-19T13:41:08.985Z</time></trkpt><trkpt lat="44.3572884" lon="10.2980709"><ele>788.0</ele><time>2026-04-19T13:41:09.985Z</time></trkpt><trkpt lat="44.3572656" lon="10.298184"><ele>788.0</ele><time>2026-04-19T13:41:10.985Z</time></trkpt><trkpt lat="44.3572218" lon="10.2982879"><ele>788.0000000000001</ele><time>2026-04-19T13:41:11.986Z</time></trkpt><trkpt lat="44.3571606" lon="10.2983811"><ele>788.0</ele><time>2026-04-19T13:41:12.985Z</time></trkpt><trkpt lat="44.3570947" lon="10.2984793"><ele>786.4</ele><time>2026-04-19T13:41:13.985Z</time></trkpt><trkpt lat="44.3570427" lon="10.2985944"><ele>784.8</ele><time>2026-04-19T13:41:14.985Z</time></trkpt><trkpt lat="44.3570066" lon="10.2987333"><ele>783.2</ele><time>2026-04-19T13:41:15.985Z</time></trkpt><trkpt lat="44.3569822" lon="10.2988957"><ele>781.6</ele><time>2026-04-19T13:41:16.985Z</time></trkpt><trkpt lat="44.3569492" lon="10.2990591"><ele>780.0</ele><time>2026-04-19T13:41:17.986Z</time></trkpt><trkpt lat="44.3569131" lon="10.2991936"><ele>780.0</ele><time>2026-04-19T13:41:18.985Z</time></trkpt><trkpt lat="44.3568858" lon="10.2993276"><ele>780.0</ele><time>2026-04-19T13:41:19.986Z</time></trkpt><trkpt lat="44.3568826" lon="10.2994686"><ele>780.0</ele><time>2026-04-19T13:41:20.984Z</time></trkpt><trkpt lat="44.3569054" lon="10.299613"><ele>780.0</ele><time>2026-04-19T13:41:21.986Z</time></trkpt><trkpt lat="44.3569553" lon="10.2997547"><ele>780.0</ele><time>2026-04-19T13:41:22.986Z</time></trkpt><trkpt lat="44.3570333" lon="10.2999098"><ele>779.3333333333333</ele><time>2026-04-19T13:41:23.985Z</time></trkpt><trkpt lat="44.3571305" lon="10.3000876"><ele>778.6666666666666</ele><time>2026-04-19T13:41:24.985Z</time></trkpt><trkpt lat="44.3572386" lon="10.3002879"><ele>778.0</ele><time>2026-04-19T13:41:25.984Z</time></trkpt><trkpt lat="44.3573336" lon="10.3004614"><ele>782.25</ele><time>2026-04-19T13:41:26.986Z</time></trkpt><trkpt lat="44.357423" lon="10.3006242"><ele>786.5</ele><time>2026-04-19T13:41:27.986Z</time></trkpt><trkpt lat="44.3575094" lon="10.300768"><ele>790.75</ele><time>2026-04-19T13:41:28.986Z</time></trkpt><trkpt lat="44.3575994" lon="10.300891"><ele>795.0</ele><time>2026-04-19T13:41:29.985Z</time></trkpt><trkpt lat="44.3577037" lon="10.3009868"><ele>795.0</ele><time>2026-04-19T13:41:30.985Z</time></trkpt><trkpt lat="44.357816" lon="10.3010687"><ele>795.0</ele><time>2026-04-19T13:41:31.986Z</time></trkpt><trkpt lat="44.3579314" lon="10.3011342"><ele>795.0</ele><time>2026-04-19T13:41:32.985Z</time></trkpt><trkpt lat="44.3580453" lon="10.3011979"><ele>795.0</ele><time>2026-04-19T13:41:33.985Z</time></trkpt><trkpt lat="44.358159" lon="10.301244"><ele>802.0</ele><time>2026-04-19T13:41:34.986Z</time></trkpt><trkpt lat="44.3582749" lon="10.3012657"><ele>809.0</ele><time>2026-04-19T13:41:35.986Z</time></trkpt><trkpt lat="44.3583976" lon="10.3012793"><ele>816.0</ele><time>2026-04-19T13:41:36.985Z</time></trkpt><trkpt lat="44.3585278" lon="10.3012823"><ele>823.0</ele><time>2026-04-19T13:41:37.985Z</time></trkpt><trkpt lat="44.3586739" lon="10.3012869"><ele>823.0</ele><time>2026-04-19T13:41:38.986Z</time></trkpt><trkpt lat="44.3588258" lon="10.3012857"><ele>823.0</ele><time>2026-04-19T13:41:39.985Z</time></trkpt><trkpt lat="44.358973" lon="10.3012609"><ele>823.0</ele><time>2026-04-19T13:41:40.985Z</time></trkpt><trkpt lat="44.3591077" lon="10.3012284"><ele>823.0</ele><time>2026-04-19T13:41:41.985Z</time></trkpt><trkpt lat="44.3592372" lon="10.3012045"><ele>826.0</ele><time>2026-04-19T13:41:42.985Z</time></trkpt><trkpt lat="44.3593717" lon="10.301192"><ele>829.0</ele><time>2026-04-19T13:41:43.985Z</time></trkpt><trkpt lat="44.3595054" lon="10.3012034"><ele>832.0</ele><time>2026-04-19T13:41:44.985Z</time></trkpt><trkpt lat="44.3596352" lon="10.3012368"><ele>835.0</ele><time>2026-04-19T13:41:45.984Z</time></trkpt><trkpt lat="44.3597586" lon="10.3012838"><ele>836.0</ele><time>2026-04-19T13:41:46.986Z</time></trkpt><trkpt lat="44.3598706" lon="10.3013329"><ele>837.0</ele><time>2026-04-19T13:41:47.986Z</time></trkpt><trkpt lat="44.3599743" lon="10.3013743"><ele>838.0</ele><time>2026-04-19T13:41:48.984Z</time></trkpt><trkpt lat="44.3600803" lon="10.3013939"><ele>839.0</ele><time>2026-04-19T13:41:49.986Z</time></trkpt><trkpt lat="44.3601866" lon="10.3013732"><ele>840.0</ele><time>2026-04-19T13:41:50.986Z</time></trkpt><trkpt lat="44.3602928" lon="10.3013212"><ele>840.0</ele><time>2026-04-19T13:41:51.986Z</time></trkpt><trkpt lat="44.3603994" lon="10.3012457"><ele>840.0</ele><time>2026-04-19T13:41:52.986Z</time></trkpt><trkpt lat="44.3605065" lon="10.3011554"><ele>840.0</ele><time>2026-04-19T13:41:53.985Z</time></trkpt><trkpt lat="44.3606112" lon="10.3010472"><ele>840.0</ele><time>2026-04-19T13:41:54.986Z</time></trkpt><trkpt lat="44.3607073" lon="10.3009474"><ele>838.4</ele><time>2026-04-19T13:41:55.985Z</time></trkpt><trkpt lat="44.3607966" lon="10.3008718"><ele>836.8</ele><time>2026-04-19T13:41:56.985Z</time></trkpt><trkpt lat="44.3608862" lon="10.3008133"><ele>835.2</ele><time>2026-04-19T13:41:57.984Z</time></trkpt><trkpt lat="44.3609814" lon="10.3007858"><ele>833.6</ele><time>2026-04-19T13:41:58.986Z</time></trkpt><trkpt lat="44.3610752" lon="10.3007954"><ele>832.0</ele><time>2026-04-19T13:41:59.985Z</time></trkpt><trkpt lat="44.3611762" lon="10.300838"><ele>832.0</ele><time>2026-04-19T13:42:00.986Z</time></trkpt><trkpt lat="44.3612862" lon="10.3009026"><ele>832.0</ele><time>2026-04-19T13:42:01.985Z</time></trkpt><trkpt lat="44.3614114" lon="10.30096"><ele>832.0</ele><time>2026-04-19T13:42:02.985Z</time></trkpt><trkpt lat="44.3615404" lon="10.3009978"><ele>832.0</ele><time>2026-04-19T13:42:03.985Z</time></trkpt><trkpt lat="44.3616671" lon="10.3010279"><ele>834.25</ele><time>2026-04-19T13:42:04.985Z</time></trkpt><trkpt lat="44.3618036" lon="10.3010513"><ele>836.5</ele><time>2026-04-19T13:42:05.986Z</time></trkpt><trkpt lat="44.3619491" lon="10.3010635"><ele>838.75</ele><time>2026-04-19T13:42:06.984Z</time></trkpt><trkpt lat="44.3621041" lon="10.3010533"><ele>841.0</ele><time>2026-04-19T13:42:07.985Z</time></trkpt><trkpt lat="44.3622474" lon="10.3010264"><ele>843.5</ele><time>2026-04-19T13:42:08.985Z</time></trkpt><trkpt lat="44.3623772" lon="10.3009945"><ele>846.0</ele><time>2026-04-19T13:42:09.985Z</time></trkpt><trkpt lat="44.3625004" lon="10.3009669"><ele>848.5</ele><time>2026-04-19T13:42:10.986Z</time></trkpt><trkpt lat="44.3626172" lon="10.300936"><ele>851.0</ele><time>2026-04-19T13:42:11.985Z</time></trkpt><trkpt lat="44.3627176" lon="10.3009684"><ele>851.0</ele><time>2026-04-19T13:42:12.985Z</time></trkpt><trkpt lat="44.3628148" lon="10.3009856"><ele>851.0</ele><time>2026-04-19T13:42:13.986Z</time></trkpt><trkpt lat="44.3629143" lon="10.3010227"><ele>851.0</ele><time>2026-04-19T13:42:14.986Z</time></trkpt><trkpt lat="44.3630163" lon="10.3010807"><ele>851.0</ele><time>2026-04-19T13:42:15.984Z</time></trkpt><trkpt lat="44.3631203" lon="10.3011544"><ele>851.0</ele><time>2026-04-19T13:42:16.986Z</time></trkpt><trkpt lat="44.3632259" lon="10.3012469"><ele>849.75</ele><time>2026-04-19T13:42:17.986Z</time></trkpt><trkpt lat="44.3633325" lon="10.3013348"><ele>848.5</ele><time>2026-04-19T13:42:18.986Z</time></trkpt><trkpt lat="44.3634379" lon="10.3014243"><ele>847.25</ele><time>2026-04-19T13:42:19.985Z</time></trkpt><trkpt lat="44.3635426" lon="10.3015141"><ele>846.0</ele><time>2026-04-19T13:42:20.985Z</time></trkpt><trkpt lat="44.3636483" lon="10.3016043"><ele>847.25</ele><time>2026-04-19T13:42:21.985Z</time></trkpt><trkpt lat="44.3637563" lon="10.3016962"><ele>848.5</ele><time>2026-04-19T13:42:22.985Z</time></trkpt><trkpt lat="44.3638628" lon="10.3017891"><ele>849.75</ele><time>2026-04-19T13:42:23.986Z</time></trkpt><trkpt lat="44.3639608" lon="10.3018759"><ele>851.0</ele><time>2026-04-19T13:42:24.985Z</time></trkpt><trkpt lat="44.3640431" lon="10.3019528"><ele>851.0</ele><time>2026-04-19T13:42:25.985Z</time></trkpt><trkpt lat="44.3641226" lon="10.3020272"><ele>851.0</ele><time>2026-04-19T13:42:26.985Z</time></trkpt><trkpt lat="44.3642053" lon="10.302101"><ele>851.0</ele><time>2026-04-19T13:42:27.986Z</time></trkpt><trkpt lat="44.3642903" lon="10.3021695"><ele>851.0</ele><time>2026-04-19T13:42:28.985Z</time></trkpt><trkpt lat="44.3643754" lon="10.3022296"><ele>851.0</ele><time>2026-04-19T13:42:29.985Z</time></trkpt><trkpt lat="44.3644619" lon="10.3022836"><ele>851.8333333333334</ele><time>2026-04-19T13:42:30.985Z</time></trkpt><trkpt lat="44.3645425" lon="10.3023502"><ele>852.6666666666667</ele><time>2026-04-19T13:42:31.986Z</time></trkpt><trkpt lat="44.3646174" lon="10.3024345"><ele>853.5</ele><time>2026-04-19T13:42:32.985Z</time></trkpt><trkpt lat="44.3646868" lon="10.3025209"><ele>854.3333333333333</ele><time>2026-04-19T13:42:33.986Z</time></trkpt><trkpt lat="44.3647468" lon="10.3026092"><ele>855.1666666666666</ele><time>2026-04-19T13:42:34.986Z</time></trkpt><trkpt lat="44.3647869" lon="10.3027025"><ele>856.0</ele><time>2026-04-19T13:42:35.986Z</time></trkpt><trkpt lat="44.3648034" lon="10.3028008"><ele>856.0</ele><time>2026-04-19T13:42:36.986Z</time></trkpt><trkpt lat="44.3647936" lon="10.3029014"><ele>855.9999999999999</ele><time>2026-04-19T13:42:37.985Z</time></trkpt><trkpt lat="44.364756" lon="10.3030018"><ele>855.9999999999999</ele><time>2026-04-19T13:42:38.985Z</time></trkpt><trkpt lat="44.3646962" lon="10.3031033"><ele>856.0</ele><time>2026-04-19T13:42:39.986Z</time></trkpt><trkpt lat="44.3646313" lon="10.3032176"><ele>856.0</ele><time>2026-04-19T13:42:40.986Z</time></trkpt><trkpt lat="44.3645755" lon="10.3033403"><ele>851.1999999999999</ele><time>2026-04-19T13:42:41.986Z</time></trkpt><trkpt lat="44.3645349" lon="10.303458"><ele>846.3999999999999</ele><time>2026-04-19T13:42:42.986Z</time></trkpt><trkpt lat="44.3645139" lon="10.3035781"><ele>841.6</ele><time>2026-04-19T13:42:43.986Z</time></trkpt><trkpt lat="44.3645091" lon="10.3036996"><ele>836.8</ele><time>2026-04-19T13:42:44.986Z</time></trkpt><trkpt lat="44.3645227" lon="10.303831"><ele>832.0</ele><time>2026-04-19T13:42:45.985Z</time></trkpt><trkpt lat="44.36455" lon="10.3039599"><ele>831.0</ele><time>2026-04-19T13:42:46.985Z</time></trkpt><trkpt lat="44.3645942" lon="10.3040727"><ele>830.0</ele><time>2026-04-19T13:42:47.984Z</time></trkpt><trkpt lat="44.364647" lon="10.3041785"><ele>829.0</ele><time>2026-04-19T13:42:48.986Z</time></trkpt><trkpt lat="44.3646982" lon="10.3042881"><ele>828.0</ele><time>2026-04-19T13:42:49.986Z</time></trkpt><trkpt lat="44.3647432" lon="10.3044072"><ele>827.0</ele><time>2026-04-19T13:42:50.986Z</time></trkpt><trkpt lat="44.3647719" lon="10.3045417"><ele>836.25</ele><time>2026-04-19T13:42:51.985Z</time></trkpt><trkpt lat="44.3647853" lon="10.304691"><ele>845.5</ele><time>2026-04-19T13:42:52.985Z</time></trkpt><trkpt lat="44.3647858" lon="10.3048578"><ele>854.75</ele><time>2026-04-19T13:42:53.986Z</time></trkpt><trkpt lat="44.364783" lon="10.3050185"><ele>864.0</ele><time>2026-04-19T13:42:54.986Z</time></trkpt><trkpt lat="44.3647819" lon="10.3051711"><ele>864.2</ele><time>2026-04-19T13:42:55.986Z</time></trkpt><trkpt lat="44.3647829" lon="10.3053177"><ele>864.4000000000001</ele><time>2026-04-19T13:42:56.985Z</time></trkpt><trkpt lat="44.3647841" lon="10.305465"><ele>864.6</ele><time>2026-04-19T13:42:57.985Z</time></trkpt><trkpt lat="44.3647887" lon="10.3056198"><ele>864.8</ele><time>2026-04-19T13:42:58.985Z</time></trkpt><trkpt lat="44.3648017" lon="10.3057724"><ele>865.0</ele><time>2026-04-19T13:42:59.986Z</time></trkpt><trkpt lat="44.3648251" lon="10.3059188"><ele>864.0</ele><time>2026-04-19T13:43:00.986Z</time></trkpt><trkpt lat="44.364848" lon="10.3060687"><ele>863.0</ele><time>2026-04-19T13:43:01.985Z</time></trkpt><trkpt lat="44.3648736" lon="10.306235"><ele>862.0</ele><time>2026-04-19T13:43:02.986Z</time></trkpt><trkpt lat="44.3649047" lon="10.3064049"><ele>861.0</ele><time>2026-04-19T13:43:03.985Z</time></trkpt><trkpt lat="44.3649347" lon="10.3065742"><ele>859.5</ele><time>2026-04-19T13:43:04.986Z</time></trkpt><trkpt lat="44.3649648" lon="10.3067399"><ele>858.0</ele><time>2026-04-19T13:43:05.985Z</time></trkpt><trkpt lat="44.3649899" lon="10.3068986"><ele>856.5</ele><time>2026-04-19T13:43:06.985Z</time></trkpt><trkpt lat="44.3650098" lon="10.3070631"><ele>855.0</ele><time>2026-04-19T13:43:07.986Z</time></trkpt><trkpt lat="44.3650144" lon="10.3072334"><ele>855.0</ele><time>2026-04-19T13:43:08.986Z</time></trkpt><trkpt lat="44.3650046" lon="10.3074045"><ele>855.0</ele><time>2026-04-19T13:43:09.984Z</time></trkpt><trkpt lat="44.3649863" lon="10.3075734"><ele>855.0</ele><time>2026-04-19T13:43:10.985Z</time></trkpt><trkpt lat="44.3649673" lon="10.3077225"><ele>855.0</ele><time>2026-04-19T13:43:11.986Z</time></trkpt><trkpt lat="44.3649513" lon="10.3078626"><ele>855.0</ele><time>2026-04-19T13:43:12.986Z</time></trkpt><trkpt lat="44.3649389" lon="10.3080058"><ele>855.0</ele><time>2026-04-19T13:43:13.985Z</time></trkpt><trkpt lat="44.364944" lon="10.3081564"><ele>855.0</ele><time>2026-04-19T13:43:14.986Z</time></trkpt><trkpt lat="44.3649747" lon="10.3083219"><ele>855.0</ele><time>2026-04-19T13:43:15.984Z</time></trkpt><trkpt lat="44.3650202" lon="10.3085065"><ele>855.5</ele><time>2026-04-19T13:43:16.985Z</time></trkpt><trkpt lat="44.3650695" lon="10.3086919"><ele>856.0</ele><time>2026-04-19T13:43:17.984Z</time></trkpt><trkpt lat="44.365124" lon="10.3088649"><ele>856.5</ele><time>2026-04-19T13:43:18.986Z</time></trkpt><trkpt lat="44.3651968" lon="10.3090382"><ele>857.0</ele><time>2026-04-19T13:43:19.986Z</time></trkpt><trkpt lat="44.3652883" lon="10.3091893"><ele>855.5</ele><time>2026-04-19T13:43:20.986Z</time></trkpt><trkpt lat="44.3654027" lon="10.3093216"><ele>854.0</ele><time>2026-04-19T13:43:21.985Z</time></trkpt><trkpt lat="44.3655218" lon="10.3094288"><ele>852.5</ele><time>2026-04-19T13:43:22.986Z</time></trkpt><trkpt lat="44.3656272" lon="10.309521"><ele>851.0</ele><time>2026-04-19T13:43:23.986Z</time></trkpt><trkpt lat="44.3657252" lon="10.3096012"><ele>853.75</ele><time>2026-04-19T13:43:24.986Z</time></trkpt><trkpt lat="44.3658217" lon="10.3096879"><ele>856.5</ele><time>2026-04-19T13:43:25.986Z</time></trkpt><trkpt lat="44.3659093" lon="10.3097954"><ele>859.25</ele><time>2026-04-19T13:43:26.986Z</time></trkpt><trkpt lat="44.3659758" lon="10.3099253"><ele>862.0</ele><time>2026-04-19T13:43:27.984Z</time></trkpt><trkpt lat="44.3660274" lon="10.3100606"><ele>862.0</ele><time>2026-04-19T13:43:28.986Z</time></trkpt><trkpt lat="44.3660858" lon="10.3101859"><ele>862.0</ele><time>2026-04-19T13:43:29.986Z</time></trkpt><trkpt lat="44.3661636" lon="10.3102907"><ele>862.0</ele><time>2026-04-19T13:43:30.985Z</time></trkpt><trkpt lat="44.3662537" lon="10.3103738"><ele>862.0</ele><time>2026-04-19T13:43:31.985Z</time></trkpt><trkpt lat="44.3663567" lon="10.3104297"><ele>862.0</ele><time>2026-04-19T13:43:32.986Z</time></trkpt><trkpt lat="44.366469" lon="10.3104701"><ele>860.75</ele><time>2026-04-19T13:43:33.984Z</time></trkpt><trkpt lat="44.3665843" lon="10.310501"><ele>859.5</ele><time>2026-04-19T13:43:34.985Z</time></trkpt><trkpt lat="44.3666923" lon="10.3105281"><ele>858.25</ele><time>2026-04-19T13:43:35.986Z</time></trkpt><trkpt lat="44.3667985" lon="10.3105645"><ele>857.0</ele><time>2026-04-19T13:43:36.984Z</time></trkpt><trkpt lat="44.3669021" lon="10.3106311"><ele>857.0</ele><time>2026-04-19T13:43:37.985Z</time></trkpt><trkpt lat="44.3669988" lon="10.3107147"><ele>857.0</ele><time>2026-04-19T13:43:38.986Z</time></trkpt><trkpt lat="44.3670908" lon="10.3107896"><ele>857.0</ele><time>2026-04-19T13:43:39.985Z</time></trkpt><trkpt lat="44.3671976" lon="10.3108399"><ele>857.0</ele><time>2026-04-19T13:43:40.986Z</time></trkpt><trkpt lat="44.367316" lon="10.3108676"><ele>862.0</ele><time>2026-04-19T13:43:41.984Z</time></trkpt><trkpt lat="44.3674391" lon="10.3108725"><ele>867.0</ele><time>2026-04-19T13:43:42.986Z</time></trkpt><trkpt lat="44.3675527" lon="10.3108681"><ele>872.0</ele><time>2026-04-19T13:43:43.985Z</time></trkpt><trkpt lat="44.3676542" lon="10.3108693"><ele>877.0</ele><time>2026-04-19T13:43:44.986Z</time></trkpt><trkpt lat="44.3677455" lon="10.3108756"><ele>882.0</ele><time>2026-04-19T13:43:45.986Z</time></trkpt><trkpt lat="44.3678229" lon="10.3108934"><ele>882.0</ele><time>2026-04-19T13:43:46.984Z</time></trkpt><trkpt lat="44.3678916" lon="10.3109313"><ele>882.0</ele><time>2026-04-19T13:43:47.986Z</time></trkpt><trkpt lat="44.3679541" lon="10.3109998"><ele>882.0</ele><time>2026-04-19T13:43:48.985Z</time></trkpt><trkpt lat="44.3680032" lon="10.3110967"><ele>882.0</ele><time>2026-04-19T13:43:49.986Z</time></trkpt><trkpt lat="44.3680301" lon="10.3112169"><ele>882.0</ele><time>2026-04-19T13:43:50.986Z</time></trkpt><trkpt lat="44.3680374" lon="10.3113573"><ele>882.0</ele><time>2026-04-19T13:43:51.986Z</time></trkpt><trkpt lat="44.3680345" lon="10.3115081"><ele>876.0</ele><time>2026-04-19T13:43:52.985Z</time></trkpt><trkpt lat="44.3680257" lon="10.3116693"><ele>870.0</ele><time>2026-04-19T13:43:53.985Z</time></trkpt><trkpt lat="44.3680065" lon="10.3118617"><ele>864.0</ele><time>2026-04-19T13:43:54.986Z</time></trkpt><trkpt lat="44.3679879" lon="10.3120486"><ele>858.0</ele><time>2026-04-19T13:43:55.985Z</time></trkpt><trkpt lat="44.3679734" lon="10.3122105"><ele>857.4</ele><time>2026-04-19T13:43:56.984Z</time></trkpt><trkpt lat="44.3679686" lon="10.3123572"><ele>856.8</ele><time>2026-04-19T13:43:57.985Z</time></trkpt><trkpt lat="44.3679877" lon="10.3124873"><ele>856.2</ele><time>2026-04-19T13:43:58.986Z</time></trkpt><trkpt lat="44.3680362" lon="10.3126012"><ele>855.6</ele><time>2026-04-19T13:43:59.986Z</time></trkpt><trkpt lat="44.3681101" lon="10.3126849"><ele>855.0</ele><time>2026-04-19T13:44:00.985Z</time></trkpt><trkpt lat="44.3682191" lon="10.3127251"><ele>862.6666666666667</ele><time>2026-04-19T13:44:01.985Z</time></trkpt><trkpt lat="44.368349" lon="10.3127546"><ele>870.3333333333334</ele><time>2026-04-19T13:44:02.986Z</time></trkpt><trkpt lat="44.3685032" lon="10.3127833"><ele>878.0</ele><time>2026-04-19T13:44:03.986Z</time></trkpt><trkpt lat="44.3686642" lon="10.3128132"><ele>878.0</ele><time>2026-04-19T13:44:04.985Z</time></trkpt><trkpt lat="44.3688385" lon="10.3128419"><ele>878.0</ele><time>2026-04-19T13:44:05.986Z</time></trkpt><trkpt lat="44.3690006" lon="10.3128657"><ele>878.0</ele><time>2026-04-19T13:44:06.986Z</time></trkpt><trkpt lat="44.3691567" lon="10.3128904"><ele>880.25</ele><time>2026-04-19T13:44:07.985Z</time></trkpt><trkpt lat="44.369306" lon="10.3129138"><ele>882.5</ele><time>2026-04-19T13:44:08.986Z</time></trkpt><trkpt lat="44.3694402" lon="10.312935"><ele>884.75</ele><time>2026-04-19T13:44:09.985Z</time></trkpt><trkpt lat="44.3695636" lon="10.3129543"><ele>887.0</ele><time>2026-04-19T13:44:10.984Z</time></trkpt><trkpt lat="44.3696821" lon="10.3129743"><ele>888.0</ele><time>2026-04-19T13:44:11.985Z</time></trkpt><trkpt lat="44.369807" lon="10.3129948"><ele>889.0</ele><time>2026-04-19T13:44:12.984Z</time></trkpt><trkpt lat="44.3699298" lon="10.3130134"><ele>890.0</ele><time>2026-04-19T13:44:13.985Z</time></trkpt><trkpt lat="44.3700382" lon="10.313038"><ele>891.0</ele><time>2026-04-19T13:44:14.986Z</time></trkpt><trkpt lat="44.3701452" lon="10.3130856"><ele>891.75</ele><time>2026-04-19T13:44:15.986Z</time></trkpt><trkpt lat="44.3702487" lon="10.313163"><ele>892.5</ele><time>2026-04-19T13:44:16.984Z</time></trkpt><trkpt lat="44.3703487" lon="10.3132625"><ele>893.25</ele><time>2026-04-19T13:44:17.986Z</time></trkpt><trkpt lat="44.3704476" lon="10.3133722"><ele>894.0</ele><time>2026-04-19T13:44:18.985Z</time></trkpt><trkpt lat="44.3705424" lon="10.3134904"><ele>894.0</ele><time>2026-04-19T13:44:19.984Z</time></trkpt><trkpt lat="44.3706383" lon="10.3136135"><ele>894.0</ele><time>2026-04-19T13:44:20.985Z</time></trkpt><trkpt lat="44.3707366" lon="10.3137387"><ele>894.0</ele><time>2026-04-19T13:44:21.986Z</time></trkpt><trkpt lat="44.3708355" lon="10.3138637"><ele>894.0</ele><time>2026-04-19T13:44:22.985Z</time></trkpt><trkpt lat="44.3709348" lon="10.3139844"><ele>891.25</ele><time>2026-04-19T13:44:23.985Z</time></trkpt><trkpt lat="44.3710353" lon="10.3140958"><ele>888.5</ele><time>2026-04-19T13:44:24.985Z</time></trkpt><trkpt lat="44.3711449" lon="10.3141891"><ele>885.75</ele><time>2026-04-19T13:44:25.986Z</time></trkpt><trkpt lat="44.3712645" lon="10.3142526"><ele>883.0</ele><time>2026-04-19T13:44:26.986Z</time></trkpt><trkpt lat="44.3713875" lon="10.314284"><ele>883.0</ele><time>2026-04-19T13:44:27.985Z</time></trkpt><trkpt lat="44.3715122" lon="10.3142836"><ele>883.0</ele><time>2026-04-19T13:44:28.986Z</time></trkpt><trkpt lat="44.3716316" lon="10.3142579"><ele>883.0</ele><time>2026-04-19T13:44:29.984Z</time></trkpt><trkpt lat="44.3717376" lon="10.3142219"><ele>883.0</ele><time>2026-04-19T13:44:30.985Z</time></trkpt><trkpt lat="44.3718374" lon="10.314195"><ele>883.0</ele><time>2026-04-19T13:44:31.985Z</time></trkpt><trkpt lat="44.3719374" lon="10.3141975"><ele>883.0</ele><time>2026-04-19T13:44:32.985Z</time></trkpt><trkpt lat="44.3720345" lon="10.3142377"><ele>883.0</ele><time>2026-04-19T13:44:33.984Z</time></trkpt><trkpt lat="44.3721276" lon="10.3143052"><ele>883.0</ele><time>2026-04-19T13:44:34.985Z</time></trkpt><trkpt lat="44.3722271" lon="10.3143934"><ele>883.0</ele><time>2026-04-19T13:44:35.985Z</time></trkpt><trkpt lat="44.3723407" lon="10.3144927"><ele>882.0</ele><time>2026-04-19T13:44:36.985Z</time></trkpt><trkpt lat="44.3724628" lon="10.3145986"><ele>881.0</ele><time>2026-04-19T13:44:37.986Z</time></trkpt><trkpt lat="44.3725911" lon="10.3147163"><ele>880.0</ele><time>2026-04-19T13:44:38.985Z</time></trkpt><trkpt lat="44.3727122" lon="10.3148388"><ele>879.0</ele><time>2026-04-19T13:44:39.986Z</time></trkpt><trkpt lat="44.3728184" lon="10.3149672"><ele>879.0</ele><time>2026-04-19T13:44:40.986Z</time></trkpt><trkpt lat="44.3729163" lon="10.315098"><ele>879.0</ele><time>2026-04-19T13:44:41.986Z</time></trkpt><trkpt lat="44.3730096" lon="10.3152298"><ele>879.0</ele><time>2026-04-19T13:44:42.986Z</time></trkpt><trkpt lat="44.3730966" lon="10.315354"><ele>879.0</ele><time>2026-04-19T13:44:43.986Z</time></trkpt><trkpt lat="44.3731735" lon="10.3154687"><ele>880.8000000000001</ele><time>2026-04-19T13:44:44.986Z</time></trkpt><trkpt lat="44.3732395" lon="10.3155821"><ele>882.6000000000001</ele><time>2026-04-19T13:44:45.986Z</time></trkpt><trkpt lat="44.3732833" lon="10.3156987"><ele>884.4</ele><time>2026-04-19T13:44:46.986Z</time></trkpt><trkpt lat="44.3733132" lon="10.315824"><ele>886.2</ele><time>2026-04-19T13:44:47.986Z</time></trkpt><trkpt lat="44.3733358" lon="10.3159577"><ele>888.0</ele><time>2026-04-19T13:44:48.985Z</time></trkpt><trkpt lat="44.3733418" lon="10.3160873"><ele>888.0</ele><time>2026-04-19T13:44:49.985Z</time></trkpt><trkpt lat="44.3733244" lon="10.316219"><ele>888.0</ele><time>2026-04-19T13:44:50.985Z</time></trkpt><trkpt lat="44.3732808" lon="10.3163592"><ele>888.0</ele><time>2026-04-19T13:44:51.984Z</time></trkpt><trkpt lat="44.3732175" lon="10.316504"><ele>888.0</ele><time>2026-04-19T13:44:52.986Z</time></trkpt><trkpt lat="44.3731405" lon="10.316634"><ele>888.0</ele><time>2026-04-19T13:44:53.984Z</time></trkpt><trkpt lat="44.3730639" lon="10.3167568"><ele>886.25</ele><time>2026-04-19T13:44:54.985Z</time></trkpt><trkpt lat="44.3729828" lon="10.3168704"><ele>884.5</ele><time>2026-04-19T13:44:55.984Z</time></trkpt><trkpt lat="44.3728976" lon="10.3169486"><ele>882.75</ele><time>2026-04-19T13:44:56.985Z</time></trkpt><trkpt lat="44.372792" lon="10.3169906"><ele>881.0</ele><time>2026-04-19T13:44:57.985Z</time></trkpt><trkpt lat="44.3726581" lon="10.3170165"><ele>881.0</ele><time>2026-04-19T13:44:58.985Z</time></trkpt><trkpt lat="44.3724974" lon="10.3170368"><ele>881.0</ele><time>2026-04-19T13:44:59.985Z</time></trkpt><trkpt lat="44.3723119" lon="10.3170551"><ele>881.0</ele><time>2026-04-19T13:45:00.985Z</time></trkpt><trkpt lat="44.372125" lon="10.3170745"><ele>878.3333333333334</ele><time>2026-04-19T13:45:01.986Z</time></trkpt><trkpt lat="44.371944" lon="10.3170866"><ele>875.6666666666667</ele><time>2026-04-19T13:45:02.984Z</time></trkpt><trkpt lat="44.3717774" lon="10.3170943"><ele>873.0</ele><time>2026-04-19T13:45:03.985Z</time></trkpt><trkpt lat="44.3716297" lon="10.3171012"><ele>873.0</ele><time>2026-04-19T13:45:04.985Z</time></trkpt><trkpt lat="44.3714906" lon="10.3171101"><ele>873.0</ele><time>2026-04-19T13:45:05.985Z</time></trkpt><trkpt lat="44.3713603" lon="10.3171269"><ele>873.0</ele><time>2026-04-19T13:45:06.985Z</time></trkpt><trkpt lat="44.3712385" lon="10.3171459"><ele>873.0</ele><time>2026-04-19T13:45:07.986Z</time></trkpt><trkpt lat="44.3711245" lon="10.3171819"><ele>875.25</ele><time>2026-04-19T13:45:08.986Z</time></trkpt><trkpt lat="44.3710217" lon="10.317247"><ele>877.5</ele><time>2026-04-19T13:45:09.986Z</time></trkpt><trkpt lat="44.3709265" lon="10.31735"><ele>879.75</ele><time>2026-04-19T13:45:10.985Z</time></trkpt><trkpt lat="44.370842" lon="10.3174816"><ele>882.0</ele><time>2026-04-19T13:45:11.985Z</time></trkpt><trkpt lat="44.3707632" lon="10.3176449"><ele>882.0</ele><time>2026-04-19T13:45:12.985Z</time></trkpt><trkpt lat="44.3706878" lon="10.3178155"><ele>882.0</ele><time>2026-04-19T13:45:13.986Z</time></trkpt><trkpt lat="44.3706107" lon="10.3179811"><ele>882.0</ele><time>2026-04-19T13:45:14.985Z</time></trkpt><trkpt lat="44.3705273" lon="10.3181425"><ele>882.0</ele><time>2026-04-19T13:45:15.985Z</time></trkpt><trkpt lat="44.3704291" lon="10.3183062"><ele>879.6666666666667</ele><time>2026-04-19T13:45:16.985Z</time></trkpt><trkpt lat="44.3703165" lon="10.3184633"><ele>877.3333333333334</ele><time>2026-04-19T13:45:17.986Z</time></trkpt><trkpt lat="44.3702054" lon="10.3186076"><ele>875.0</ele><time>2026-04-19T13:45:18.986Z</time></trkpt><trkpt lat="44.3700884" lon="10.3187505"><ele>875.0</ele><time>2026-04-19T13:45:19.986Z</time></trkpt><trkpt lat="44.3699701" lon="10.3188995"><ele>875.0</ele><time>2026-04-19T13:45:20.985Z</time></trkpt><trkpt lat="44.3698598" lon="10.3190375"><ele>875.0</ele><time>2026-04-19T13:45:21.985Z</time></trkpt><trkpt lat="44.3697541" lon="10.3191653"><ele>875.0</ele><time>2026-04-19T13:45:22.986Z</time></trkpt><trkpt lat="44.3696567" lon="10.3192858"><ele>875.5</ele><time>2026-04-19T13:45:23.985Z</time></trkpt><trkpt lat="44.3695659" lon="10.3194101"><ele>876.0</ele><time>2026-04-19T13:45:24.986Z</time></trkpt><trkpt lat="44.3694874" lon="10.3195487"><ele>876.5</ele><time>2026-04-19T13:45:25.986Z</time></trkpt><trkpt lat="44.3694318" lon="10.3196948"><ele>877.0</ele><time>2026-04-19T13:45:26.985Z</time></trkpt><trkpt lat="44.3693917" lon="10.3198507"><ele>877.0</ele><time>2026-04-19T13:45:27.985Z</time></trkpt><trkpt lat="44.369374" lon="10.3200093"><ele>877.0</ele><time>2026-04-19T13:45:28.986Z</time></trkpt><trkpt lat="44.3693757" lon="10.3201709"><ele>877.0</ele><time>2026-04-19T13:45:29.986Z</time></trkpt><trkpt lat="44.3694017" lon="10.3203301"><ele>877.0</ele><time>2026-04-19T13:45:30.985Z</time></trkpt><trkpt lat="44.3694495" lon="10.3204899"><ele>875.75</ele><time>2026-04-19T13:45:31.984Z</time></trkpt><trkpt lat="44.3695182" lon="10.3206505"><ele>874.5</ele><time>2026-04-19T13:45:32.986Z</time></trkpt><trkpt lat="44.3695977" lon="10.3208085"><ele>873.25</ele><time>2026-04-19T13:45:33.985Z</time></trkpt><trkpt lat="44.3696666" lon="10.3209676"><ele>872.0</ele><time>2026-04-19T13:45:34.985Z</time></trkpt><trkpt lat="44.3697204" lon="10.3211375"><ele>877.0</ele><time>2026-04-19T13:45:35.985Z</time></trkpt><trkpt lat="44.3697613" lon="10.3213125"><ele>882.0</ele><time>2026-04-19T13:45:36.985Z</time></trkpt><trkpt lat="44.369787" lon="10.3215058"><ele>887.0</ele><time>2026-04-19T13:45:37.985Z</time></trkpt><trkpt lat="44.3698008" lon="10.3217173"><ele>892.0</ele><time>2026-04-19T13:45:38.985Z</time></trkpt><trkpt lat="44.3698099" lon="10.3219331"><ele>892.0</ele><time>2026-04-19T13:45:39.986Z</time></trkpt><trkpt lat="44.3698186" lon="10.3221404"><ele>892.0</ele><time>2026-04-19T13:45:40.986Z</time></trkpt><trkpt lat="44.3698284" lon="10.322351"><ele>892.0</ele><time>2026-04-19T13:45:41.985Z</time></trkpt><trkpt lat="44.3698396" lon="10.3225635"><ele>892.0</ele><time>2026-04-19T13:45:42.986Z</time></trkpt><trkpt lat="44.3698511" lon="10.3227831"><ele>892.0</ele><time>2026-04-19T13:45:43.985Z</time></trkpt><trkpt lat="44.3698623" lon="10.3230021"><ele>892.0</ele><time>2026-04-19T13:45:44.986Z</time></trkpt><trkpt lat="44.369871" lon="10.3232006"><ele>891.25</ele><time>2026-04-19T13:45:45.985Z</time></trkpt><trkpt lat="44.3698729" lon="10.3233959"><ele>890.5</ele><time>2026-04-19T13:45:46.985Z</time></trkpt><trkpt lat="44.3698595" lon="10.3235866"><ele>889.75</ele><time>2026-04-19T13:45:47.986Z</time></trkpt><trkpt lat="44.3698348" lon="10.3237721"><ele>889.0</ele><time>2026-04-19T13:45:48.986Z</time></trkpt><trkpt lat="44.3698054" lon="10.3239595"><ele>890.5</ele><time>2026-04-19T13:45:49.985Z</time></trkpt><trkpt lat="44.3697759" lon="10.3241495"><ele>892.0</ele><time>2026-04-19T13:45:50.985Z</time></trkpt><trkpt lat="44.3697479" lon="10.3243463"><ele>893.5</ele><time>2026-04-19T13:45:51.985Z</time></trkpt><trkpt lat="44.3697168" lon="10.3245483"><ele>895.0</ele><time>2026-04-19T13:45:52.986Z</time></trkpt><trkpt lat="44.3696879" lon="10.324745"><ele>895.5</ele><time>2026-04-19T13:45:53.986Z</time></trkpt><trkpt lat="44.3696699" lon="10.324932"><ele>896.0</ele><time>2026-04-19T13:45:54.984Z</time></trkpt><trkpt lat="44.3696678" lon="10.3251323"><ele>896.5</ele><time>2026-04-19T13:45:55.985Z</time></trkpt><trkpt lat="44.3696874" lon="10.3253333"><ele>897.0</ele><time>2026-04-19T13:45:56.986Z</time></trkpt><trkpt lat="44.3697273" lon="10.3255276"><ele>895.0</ele><time>2026-04-19T13:45:57.986Z</time></trkpt><trkpt lat="44.3697923" lon="10.325715"><ele>893.0</ele><time>2026-04-19T13:45:58.986Z</time></trkpt><trkpt lat="44.3698802" lon="10.3258845"><ele>891.0</ele><time>2026-04-19T13:45:59.985Z</time></trkpt><trkpt lat="44.3699879" lon="10.3260351"><ele>891.0</ele><time>2026-04-19T13:46:00.985Z</time></trkpt><trkpt lat="44.3701261" lon="10.3261719"><ele>891.0</ele><time>2026-04-19T13:46:01.985Z</time></trkpt><trkpt lat="44.3702853" lon="10.326316"><ele>891.0</ele><time>2026-04-19T13:46:02.985Z</time></trkpt><trkpt lat="44.3704442" lon="10.3264692"><ele>894.6666666666667</ele><time>2026-04-19T13:46:03.985Z</time></trkpt><trkpt lat="44.3706125" lon="10.3266366"><ele>898.3333333333334</ele><time>2026-04-19T13:46:04.986Z</time></trkpt><trkpt lat="44.370782" lon="10.3268082"><ele>902.0</ele><time>2026-04-19T13:46:05.985Z</time></trkpt><trkpt lat="44.3709375" lon="10.3269573"><ele>902.0</ele><time>2026-04-19T13:46:06.985Z</time></trkpt><trkpt lat="44.3710852" lon="10.3270958"><ele>902.0</ele><time>2026-04-19T13:46:07.986Z</time></trkpt><trkpt lat="44.3712228" lon="10.3272199"><ele>902.0</ele><time>2026-04-19T13:46:08.984Z</time></trkpt><trkpt lat="44.3713567" lon="10.32732"><ele>901.0</ele><time>2026-04-19T13:46:09.986Z</time></trkpt><trkpt lat="44.3714964" lon="10.3273934"><ele>900.0</ele><time>2026-04-19T13:46:10.984Z</time></trkpt><trkpt lat="44.3716422" lon="10.3274301"><ele>899.0</ele><time>2026-04-19T13:46:11.985Z</time></trkpt><trkpt lat="44.3717958" lon="10.3274251"><ele>899.0</ele><time>2026-04-19T13:46:12.986Z</time></trkpt><trkpt lat="44.3719632" lon="10.3273787"><ele>899.0</ele><time>2026-04-19T13:46:13.986Z</time></trkpt><trkpt lat="44.3721411" lon="10.3273162"><ele>899.0</ele><time>2026-04-19T13:46:14.985Z</time></trkpt><trkpt lat="44.3723024" lon="10.3272706"><ele>899.0</ele><time>2026-04-19T13:46:15.985Z</time></trkpt><trkpt lat="44.372457" lon="10.3272531"><ele>899.0</ele><time>2026-04-19T13:46:16.986Z</time></trkpt><trkpt lat="44.3726064" lon="10.3272754"><ele>899.0</ele><time>2026-04-19T13:46:17.986Z</time></trkpt><trkpt lat="44.3727497" lon="10.3273487"><ele>899.0</ele><time>2026-04-19T13:46:18.986Z</time></trkpt><trkpt lat="44.3728891" lon="10.3274728"><ele>899.0</ele><time>2026-04-19T13:46:19.986Z</time></trkpt><trkpt lat="44.3730319" lon="10.3276335"><ele>899.0</ele><time>2026-04-19T13:46:20.986Z</time></trkpt><trkpt lat="44.3731845" lon="10.3277954"><ele>897.6666666666667</ele><time>2026-04-19T13:46:21.985Z</time></trkpt><trkpt lat="44.3733634" lon="10.3279516"><ele>896.3333333333333</ele><time>2026-04-19T13:46:22.986Z</time></trkpt><trkpt lat="44.3735671" lon="10.3281016"><ele>895.0</ele><time>2026-04-19T13:46:23.986Z</time></trkpt><trkpt lat="44.3737786" lon="10.3282487"><ele>904.0</ele><time>2026-04-19T13:46:24.984Z</time></trkpt><trkpt lat="44.3739901" lon="10.3283901"><ele>913.0</ele><time>2026-04-19T13:46:25.985Z</time></trkpt><trkpt lat="44.3741846" lon="10.3285198"><ele>913.0</ele><time>2026-04-19T13:46:26.986Z</time></trkpt><trkpt lat="44.3743659" lon="10.3286377"><ele>913.0</ele><time>2026-04-19T13:46:27.985Z</time></trkpt><trkpt lat="44.3745184" lon="10.3287338"><ele>913.0</ele><time>2026-04-19T13:46:28.986Z</time></trkpt><trkpt lat="44.3746471" lon="10.328813"><ele>915.75</ele><time>2026-04-19T13:46:29.986Z</time></trkpt><trkpt lat="44.3747687" lon="10.3288672"><ele>918.5</ele><time>2026-04-19T13:46:30.986Z</time></trkpt><trkpt lat="44.3748822" lon="10.3288889"><ele>921.25</ele><time>2026-04-19T13:46:31.986Z</time></trkpt><trkpt lat="44.3749916" lon="10.3288613"><ele>924.0</ele><time>2026-04-19T13:46:32.986Z</time></trkpt><trkpt lat="44.3750903" lon="10.3287862"><ele>924.0</ele><time>2026-04-19T13:46:33.984Z</time></trkpt><trkpt lat="44.3751753" lon="10.3286667"><ele>924.0</ele><time>2026-04-19T13:46:34.985Z</time></trkpt><trkpt lat="44.3752517" lon="10.328514"><ele>924.0</ele><time>2026-04-19T13:46:35.986Z</time></trkpt><trkpt lat="44.3753365" lon="10.3283559"><ele>924.0</ele><time>2026-04-19T13:46:36.985Z</time></trkpt><trkpt lat="44.3754419" lon="10.3282309"><ele>922.5</ele><time>2026-04-19T13:46:37.986Z</time></trkpt><trkpt lat="44.3755544" lon="10.3281377"><ele>921.0</ele><time>2026-04-19T13:46:38.984Z</time></trkpt><trkpt lat="44.3756724" lon="10.3280801"><ele>919.5</ele><time>2026-04-19T13:46:39.984Z</time></trkpt><trkpt lat="44.3757997" lon="10.3280593"><ele>918.0</ele><time>2026-04-19T13:46:40.985Z</time></trkpt><trkpt lat="44.375937" lon="10.3280602"><ele>918.0</ele><time>2026-04-19T13:46:41.985Z</time></trkpt><trkpt lat="44.3760724" lon="10.3280752"><ele>918.0</ele><time>2026-04-19T13:46:42.985Z</time></trkpt><trkpt lat="44.3761972" lon="10.3281312"><ele>918.0</ele><time>2026-04-19T13:46:43.986Z</time></trkpt><trkpt lat="44.3763164" lon="10.3282322"><ele>918.0</ele><time>2026-04-19T13:46:44.984Z</time></trkpt><trkpt lat="44.3764414" lon="10.3283506"><ele>921.0</ele><time>2026-04-19T13:46:45.986Z</time></trkpt><trkpt lat="44.3765674" lon="10.3284382"><ele>924.0</ele><time>2026-04-19T13:46:46.986Z</time></trkpt><trkpt lat="44.3766887" lon="10.3284924"><ele>927.0</ele><time>2026-04-19T13:46:47.986Z</time></trkpt><trkpt lat="44.3768183" lon="10.3285078"><ele>930.0</ele><time>2026-04-19T13:46:48.985Z</time></trkpt><trkpt lat="44.3769569" lon="10.3284903"><ele>930.0</ele><time>2026-04-19T13:46:49.985Z</time></trkpt><trkpt lat="44.3771074" lon="10.3284558"><ele>930.0</ele><time>2026-04-19T13:46:50.983Z</time></trkpt><trkpt lat="44.3772607" lon="10.3284584"><ele>930.0</ele><time>2026-04-19T13:46:51.983Z</time></trkpt><trkpt lat="44.3773943" lon="10.3284728"><ele>930.0</ele><time>2026-04-19T13:46:52.985Z</time></trkpt><trkpt lat="44.3775067" lon="10.3284675"><ele>930.0</ele><time>2026-04-19T13:46:53.985Z</time></trkpt><trkpt lat="44.3776061" lon="10.3284349"><ele>930.0</ele><time>2026-04-19T13:46:54.985Z</time></trkpt><trkpt lat="44.377683" lon="10.3283731"><ele>930.0</ele><time>2026-04-19T13:46:55.985Z</time></trkpt><trkpt lat="44.3777376" lon="10.3282771"><ele>930.0</ele><time>2026-04-19T13:46:56.983Z</time></trkpt><trkpt lat="44.3777892" lon="10.3281651"><ele>930.0</ele><time>2026-04-19T13:46:57.984Z</time></trkpt><trkpt lat="44.3778425" lon="10.3280474"><ele>929.4</ele><time>2026-04-19T13:46:58.983Z</time></trkpt><trkpt lat="44.3778964" lon="10.3279425"><ele>928.8</ele><time>2026-04-19T13:46:59.983Z</time></trkpt><trkpt lat="44.3779479" lon="10.3278264"><ele>928.2</ele><time>2026-04-19T13:47:00.985Z</time></trkpt><trkpt lat="44.3779894" lon="10.327699"><ele>927.6</ele><time>2026-04-19T13:47:01.984Z</time></trkpt><trkpt lat="44.3780084" lon="10.3275552"><ele>927.0</ele><time>2026-04-19T13:47:02.984Z</time></trkpt><trkpt lat="44.3780206" lon="10.3273905"><ele>929.0</ele><time>2026-04-19T13:47:03.984Z</time></trkpt><trkpt lat="44.3780364" lon="10.3272159"><ele>931.0</ele><time>2026-04-19T13:47:04.984Z</time></trkpt><trkpt lat="44.3780563" lon="10.3270572"><ele>933.0</ele><time>2026-04-19T13:47:05.984Z</time></trkpt><trkpt lat="44.378094" lon="10.3269003"><ele>935.0</ele><time>2026-04-19T13:47:06.985Z</time></trkpt><trkpt lat="44.3781454" lon="10.3267428"><ele>935.0</ele><time>2026-04-19T13:47:07.984Z</time></trkpt><trkpt lat="44.3782033" lon="10.3265855"><ele>935.0</ele><time>2026-04-19T13:47:08.984Z</time></trkpt><trkpt lat="44.378257" lon="10.326441"><ele>935.0</ele><time>2026-04-19T13:47:09.984Z</time></trkpt><trkpt lat="44.3783118" lon="10.3263077"><ele>935.0</ele><time>2026-04-19T13:47:10.985Z</time></trkpt><trkpt lat="44.3783663" lon="10.3261928"><ele>936.0</ele><time>2026-04-19T13:47:11.984Z</time></trkpt><trkpt lat="44.3784301" lon="10.3261059"><ele>937.0</ele><time>2026-04-19T13:47:12.984Z</time></trkpt><trkpt lat="44.378511" lon="10.3260433"><ele>938.0</ele><time>2026-04-19T13:47:13.984Z</time></trkpt><trkpt lat="44.378616" lon="10.3260099"><ele>939.0</ele><time>2026-04-19T13:47:14.984Z</time></trkpt><trkpt lat="44.37872" lon="10.3260032"><ele>940.0</ele><time>2026-04-19T13:47:15.983Z</time></trkpt><trkpt lat="44.3788099" lon="10.3260252"><ele>939.8</ele><time>2026-04-19T13:47:16.984Z</time></trkpt><trkpt lat="44.3788896" lon="10.3260754"><ele>939.6</ele><time>2026-04-19T13:47:17.985Z</time></trkpt><trkpt lat="44.3789645" lon="10.3261602"><ele>939.4000000000001</ele><time>2026-04-19T13:47:18.985Z</time></trkpt><trkpt lat="44.37902" lon="10.3262903"><ele>939.2</ele><time>2026-04-19T13:47:19.985Z</time></trkpt><trkpt lat="44.3790581" lon="10.326459"><ele>939.0</ele><time>2026-04-19T13:47:20.985Z</time></trkpt><trkpt lat="44.3790891" lon="10.3266569"><ele>938.0</ele><time>2026-04-19T13:47:21.984Z</time></trkpt><trkpt lat="44.379122" lon="10.3268488"><ele>937.0</ele><time>2026-04-19T13:47:22.984Z</time></trkpt><trkpt lat="44.3791659" lon="10.3270537"><ele>936.0</ele><time>2026-04-19T13:47:23.984Z</time></trkpt><trkpt lat="44.3792224" lon="10.3272657"><ele>934.0</ele><time>2026-04-19T13:47:24.984Z</time></trkpt><trkpt lat="44.3792853" lon="10.3274713"><ele>932.0</ele><time>2026-04-19T13:47:25.985Z</time></trkpt><trkpt lat="44.3793464" lon="10.3276458"><ele>930.0</ele><time>2026-04-19T13:47:26.983Z</time></trkpt><trkpt lat="44.3794054" lon="10.3278125"><ele>928.0</ele><time>2026-04-19T13:47:27.984Z</time></trkpt><trkpt lat="44.379454" lon="10.3279704"><ele>925.5</ele><time>2026-04-19T13:47:28.985Z</time></trkpt><trkpt lat="44.3794838" lon="10.3281364"><ele>923.0</ele><time>2026-04-19T13:47:29.984Z</time></trkpt><trkpt lat="44.3794928" lon="10.3283219"><ele>920.5</ele><time>2026-04-19T13:47:30.984Z</time></trkpt><trkpt lat="44.3794897" lon="10.328522"><ele>918.0</ele><time>2026-04-19T13:47:31.983Z</time></trkpt><trkpt lat="44.3794934" lon="10.3287162"><ele>915.25</ele><time>2026-04-19T13:47:32.984Z</time></trkpt><trkpt lat="44.379511" lon="10.3288966"><ele>912.5</ele><time>2026-04-19T13:47:33.984Z</time></trkpt><trkpt lat="44.379544" lon="10.3290664"><ele>909.75</ele><time>2026-04-19T13:47:34.983Z</time></trkpt><trkpt lat="44.3795941" lon="10.3292244"><ele>907.0</ele><time>2026-04-19T13:47:35.984Z</time></trkpt><trkpt lat="44.3796435" lon="10.3293472"><ele>907.0</ele><time>2026-04-19T13:47:36.984Z</time></trkpt><trkpt lat="44.3796807" lon="10.3294609"><ele>907.0</ele><time>2026-04-19T13:47:37.985Z</time></trkpt><trkpt lat="44.3796949" lon="10.3295783"><ele>907.0</ele><time>2026-04-19T13:47:38.984Z</time></trkpt><trkpt lat="44.3796754" lon="10.329709"><ele>907.0</ele><time>2026-04-19T13:47:39.985Z</time></trkpt><trkpt lat="44.3796359" lon="10.3298528"><ele>907.0</ele><time>2026-04-19T13:47:40.984Z</time></trkpt><trkpt lat="44.3795946" lon="10.3299984"><ele>905.0</ele><time>2026-04-19T13:47:41.983Z</time></trkpt><trkpt lat="44.379549" lon="10.3301536"><ele>903.0</ele><time>2026-04-19T13:47:42.985Z</time></trkpt><trkpt lat="44.3795063" lon="10.3303026"><ele>901.0</ele><time>2026-04-19T13:47:43.985Z</time></trkpt><trkpt lat="44.3794625" lon="10.330444"><ele>899.0</ele><time>2026-04-19T13:47:44.984Z</time></trkpt><trkpt lat="44.3794232" lon="10.3305824"><ele>898.2</ele><time>2026-04-19T13:47:45.983Z</time></trkpt><trkpt lat="44.3794073" lon="10.3307192"><ele>897.4000000000001</ele><time>2026-04-19T13:47:46.984Z</time></trkpt><trkpt lat="44.3794219" lon="10.3308534"><ele>896.6</ele><time>2026-04-19T13:47:47.984Z</time></trkpt><trkpt lat="44.3794673" lon="10.3309845"><ele>895.8</ele><time>2026-04-19T13:47:48.983Z</time></trkpt><trkpt lat="44.3795488" lon="10.331118"><ele>895.0</ele><time>2026-04-19T13:47:49.985Z</time></trkpt><trkpt lat="44.3796518" lon="10.3312757"><ele>903.0</ele><time>2026-04-19T13:47:50.985Z</time></trkpt><trkpt lat="44.3797399" lon="10.3314331"><ele>911.0</ele><time>2026-04-19T13:47:51.984Z</time></trkpt><trkpt lat="44.3798163" lon="10.3315906"><ele>919.0</ele><time>2026-04-19T13:47:52.983Z</time></trkpt><trkpt lat="44.3798851" lon="10.3317431"><ele>927.0</ele><time>2026-04-19T13:47:53.983Z</time></trkpt><trkpt lat="44.3799419" lon="10.3318898"><ele>927.0</ele><time>2026-04-19T13:47:54.985Z</time></trkpt><trkpt lat="44.3799721" lon="10.3320457"><ele>927.0</ele><time>2026-04-19T13:47:55.985Z</time></trkpt><trkpt lat="44.3799709" lon="10.3322154"><ele>927.0</ele><time>2026-04-19T13:47:56.984Z</time></trkpt><trkpt lat="44.3799378" lon="10.3323826"><ele>927.0</ele><time>2026-04-19T13:47:57.984Z</time></trkpt><trkpt lat="44.3798993" lon="10.3325433"><ele>925.4000000000001</ele><time>2026-04-19T13:47:58.985Z</time></trkpt><trkpt lat="44.3798657" lon="10.3326907"><ele>923.8000000000001</ele><time>2026-04-19T13:47:59.984Z</time></trkpt><trkpt lat="44.3798375" lon="10.3328369"><ele>922.2</ele><time>2026-04-19T13:48:00.984Z</time></trkpt><trkpt lat="44.3798227" lon="10.3329775"><ele>920.6</ele><time>2026-04-19T13:48:01.984Z</time></trkpt><trkpt lat="44.3798439" lon="10.3331072"><ele>919.0</ele><time>2026-04-19T13:48:02.984Z</time></trkpt><trkpt lat="44.3798953" lon="10.3332162"><ele>916.75</ele><time>2026-04-19T13:48:03.985Z</time></trkpt><trkpt lat="44.3799765" lon="10.3333108"><ele>914.5</ele><time>2026-04-19T13:48:04.983Z</time></trkpt><trkpt lat="44.3800722" lon="10.3333928"><ele>912.25</ele><time>2026-04-19T13:48:05.985Z</time></trkpt><trkpt lat="44.38018" lon="10.3334688"><ele>910.0</ele><time>2026-04-19T13:48:06.985Z</time></trkpt><trkpt lat="44.3802936" lon="10.3335331"><ele>910.0</ele><time>2026-04-19T13:48:07.984Z</time></trkpt><trkpt lat="44.3804235" lon="10.3335664"><ele>910.0</ele><time>2026-04-19T13:48:08.984Z</time></trkpt><trkpt lat="44.380564" lon="10.3335736"><ele>910.0</ele><time>2026-04-19T13:48:09.983Z</time></trkpt><trkpt lat="44.3807082" lon="10.333569"><ele>910.0</ele><time>2026-04-19T13:48:10.985Z</time></trkpt><trkpt lat="44.3808552" lon="10.3335609"><ele>911.75</ele><time>2026-04-19T13:48:11.984Z</time></trkpt><trkpt lat="44.3810016" lon="10.3335598"><ele>913.5</ele><time>2026-04-19T13:48:12.985Z</time></trkpt><trkpt lat="44.3811425" lon="10.3335594"><ele>915.25</ele><time>2026-04-19T13:48:13.984Z</time></trkpt><trkpt lat="44.3812801" lon="10.3335468"><ele>917.0</ele><time>2026-04-19T13:48:14.984Z</time></trkpt><trkpt lat="44.3814107" lon="10.3335206"><ele>917.0</ele><time>2026-04-19T13:48:15.985Z</time></trkpt><trkpt lat="44.3815364" lon="10.3334728"><ele>917.0</ele><time>2026-04-19T13:48:16.984Z</time></trkpt><trkpt lat="44.3816544" lon="10.3334016"><ele>917.0</ele><time>2026-04-19T13:48:17.985Z</time></trkpt><trkpt lat="44.3817608" lon="10.3333112"><ele>917.0</ele><time>2026-04-19T13:48:18.985Z</time></trkpt><trkpt lat="44.3818575" lon="10.3332018"><ele>917.0</ele><time>2026-04-19T13:48:19.983Z</time></trkpt><trkpt lat="44.3819499" lon="10.3330689"><ele>917.0</ele><time>2026-04-19T13:48:20.984Z</time></trkpt><trkpt lat="44.3820417" lon="10.3329185"><ele>917.0</ele><time>2026-04-19T13:48:21.985Z</time></trkpt><trkpt lat="44.3821317" lon="10.3327589"><ele>917.0</ele><time>2026-04-19T13:48:22.984Z</time></trkpt><trkpt lat="44.3822175" lon="10.3325982"><ele>915.0</ele><time>2026-04-19T13:48:23.984Z</time></trkpt><trkpt lat="44.3823083" lon="10.3324326"><ele>913.0</ele><time>2026-04-19T13:48:24.985Z</time></trkpt><trkpt lat="44.3824014" lon="10.3322674"><ele>911.0</ele><time>2026-04-19T13:48:25.985Z</time></trkpt><trkpt lat="44.3824964" lon="10.3321016"><ele>915.0</ele><time>2026-04-19T13:48:26.984Z</time></trkpt><trkpt lat="44.3825918" lon="10.331931"><ele>919.0</ele><time>2026-04-19T13:48:27.984Z</time></trkpt><trkpt lat="44.3826889" lon="10.3317563"><ele>923.0</ele><time>2026-04-19T13:48:28.985Z</time></trkpt><trkpt lat="44.3827875" lon="10.3315737"><ele>925.6666666666667</ele><time>2026-04-19T13:48:29.985Z</time></trkpt><trkpt lat="44.3828877" lon="10.3313845"><ele>928.3333333333333</ele><time>2026-04-19T13:48:30.984Z</time></trkpt><trkpt lat="44.3829895" lon="10.3311934"><ele>931.0</ele><time>2026-04-19T13:48:31.984Z</time></trkpt><trkpt lat="44.3830865" lon="10.3310113"><ele>927.6666666666666</ele><time>2026-04-19T13:48:32.985Z</time></trkpt><trkpt lat="44.3831759" lon="10.3308213"><ele>924.3333333333333</ele><time>2026-04-19T13:48:33.984Z</time></trkpt><trkpt lat="44.3832607" lon="10.3306232"><ele>921.0</ele><time>2026-04-19T13:48:34.985Z</time></trkpt><trkpt lat="44.3833443" lon="10.3304148"><ele>921.0</ele><time>2026-04-19T13:48:35.985Z</time></trkpt><trkpt lat="44.3834266" lon="10.3301958"><ele>921.0</ele><time>2026-04-19T13:48:36.984Z</time></trkpt><trkpt lat="44.3835069" lon="10.3299734"><ele>921.0</ele><time>2026-04-19T13:48:37.985Z</time></trkpt><trkpt lat="44.3835821" lon="10.3297735"><ele>920.25</ele><time>2026-04-19T13:48:38.985Z</time></trkpt><trkpt lat="44.3836587" lon="10.329591"><ele>919.5</ele><time>2026-04-19T13:48:39.984Z</time></trkpt><trkpt lat="44.3837418" lon="10.3294205"><ele>918.75</ele><time>2026-04-19T13:48:40.985Z</time></trkpt><trkpt lat="44.38384" lon="10.3292667"><ele>918.0</ele><time>2026-04-19T13:48:41.985Z</time></trkpt><trkpt lat="44.3839451" lon="10.3291399"><ele>918.0</ele><time>2026-04-19T13:48:42.985Z</time></trkpt><trkpt lat="44.384061" lon="10.3290402"><ele>918.0</ele><time>2026-04-19T13:48:43.985Z</time></trkpt><trkpt lat="44.3841885" lon="10.3289654"><ele>918.0</ele><time>2026-04-19T13:48:44.984Z</time></trkpt><trkpt lat="44.3843239" lon="10.3289167"><ele>918.0</ele><time>2026-04-19T13:48:45.985Z</time></trkpt><trkpt lat="44.3844663" lon="10.3288936"><ele>920.3333333333333</ele><time>2026-04-19T13:48:46.984Z</time></trkpt><trkpt lat="44.3846258" lon="10.3288902"><ele>922.6666666666666</ele><time>2026-04-19T13:48:47.985Z</time></trkpt><trkpt lat="44.3847994" lon="10.3289012"><ele>925.0</ele><time>2026-04-19T13:48:48.985Z</time></trkpt><trkpt lat="44.3849911" lon="10.328918"><ele>925.0</ele><time>2026-04-19T13:48:49.985Z</time></trkpt><trkpt lat="44.3852032" lon="10.3289347"><ele>925.0</ele><time>2026-04-19T13:48:50.985Z</time></trkpt><trkpt lat="44.3854194" lon="10.3289537"><ele>925.0</ele><time>2026-04-19T13:48:51.984Z</time></trkpt><trkpt lat="44.3856531" lon="10.3289778"><ele>926.5</ele><time>2026-04-19T13:48:52.985Z</time></trkpt><trkpt lat="44.3858866" lon="10.3290081"><ele>928.0</ele><time>2026-04-19T13:48:53.985Z</time></trkpt><trkpt lat="44.3861022" lon="10.3290396"><ele>928.0</ele><time>2026-04-19T13:48:54.985Z</time></trkpt><trkpt lat="44.3863068" lon="10.3290704"><ele>928.0</ele><time>2026-04-19T13:48:55.985Z</time></trkpt><trkpt lat="44.3864997" lon="10.3290972"><ele>928.0</ele><time>2026-04-19T13:48:56.985Z</time></trkpt><trkpt lat="44.3866803" lon="10.329119"><ele>929.0</ele><time>2026-04-19T13:48:57.984Z</time></trkpt><trkpt lat="44.3868512" lon="10.3291377"><ele>930.0</ele><time>2026-04-19T13:48:58.985Z</time></trkpt><trkpt lat="44.3870179" lon="10.3291509"><ele>931.0</ele><time>2026-04-19T13:48:59.984Z</time></trkpt><trkpt lat="44.3871755" lon="10.3291484"><ele>932.3333333333333</ele><time>2026-04-19T13:49:00.984Z</time></trkpt><trkpt lat="44.387325" lon="10.3291287"><ele>933.6666666666667</ele><time>2026-04-19T13:49:01.985Z</time></trkpt><trkpt lat="44.3874814" lon="10.3290908"><ele>935.0</ele><time>2026-04-19T13:49:02.984Z</time></trkpt><trkpt lat="44.387652" lon="10.3290365"><ele>935.0</ele><time>2026-04-19T13:49:03.985Z</time></trkpt><trkpt lat="44.3878385" lon="10.328969"><ele>935.0</ele><time>2026-04-19T13:49:04.985Z</time></trkpt><trkpt lat="44.3880455" lon="10.3288982"><ele>935.0</ele><time>2026-04-19T13:49:05.985Z</time></trkpt><trkpt lat="44.388268" lon="10.3288347"><ele>942.0</ele><time>2026-04-19T13:49:06.985Z</time></trkpt><trkpt lat="44.3884757" lon="10.3287754"><ele>949.0</ele><time>2026-04-19T13:49:07.985Z</time></trkpt><trkpt lat="44.3886704" lon="10.3287214"><ele>956.0</ele><time>2026-04-19T13:49:08.983Z</time></trkpt><trkpt lat="44.3888566" lon="10.3286741"><ele>956.0</ele><time>2026-04-19T13:49:09.985Z</time></trkpt><trkpt lat="44.3890411" lon="10.328651"><ele>956.0</ele><time>2026-04-19T13:49:10.985Z</time></trkpt><trkpt lat="44.3892317" lon="10.3286634"><ele>956.0</ele><time>2026-04-19T13:49:11.985Z</time></trkpt><trkpt lat="44.3894247" lon="10.328719"><ele>956.0</ele><time>2026-04-19T13:49:12.985Z</time></trkpt><trkpt lat="44.3896041" lon="10.3287896"><ele>956.0</ele><time>2026-04-19T13:49:13.983Z</time></trkpt><trkpt lat="44.3897714" lon="10.3288554"><ele>956.0</ele><time>2026-04-19T13:49:14.985Z</time></trkpt><trkpt lat="44.3899308" lon="10.3289137"><ele>956.75</ele><time>2026-04-19T13:49:15.984Z</time></trkpt><trkpt lat="44.3900802" lon="10.3289623"><ele>957.5</ele><time>2026-04-19T13:49:16.985Z</time></trkpt><trkpt lat="44.390229" lon="10.3289698"><ele>958.25</ele><time>2026-04-19T13:49:17.984Z</time></trkpt><trkpt lat="44.3903658" lon="10.3289317"><ele>959.0</ele><time>2026-04-19T13:49:18.984Z</time></trkpt><trkpt lat="44.3905071" lon="10.3288454"><ele>957.0</ele><time>2026-04-19T13:49:19.985Z</time></trkpt><trkpt lat="44.3906543" lon="10.3287228"><ele>955.0</ele><time>2026-04-19T13:49:20.985Z</time></trkpt><trkpt lat="44.3908071" lon="10.3285789"><ele>953.0</ele><time>2026-04-19T13:49:21.984Z</time></trkpt><trkpt lat="44.3909566" lon="10.3284336"><ele>953.0</ele><time>2026-04-19T13:49:22.984Z</time></trkpt><trkpt lat="44.3911275" lon="10.3282647"><ele>953.0</ele><time>2026-04-19T13:49:23.985Z</time></trkpt><trkpt lat="44.3913079" lon="10.3280862"><ele>953.0</ele><time>2026-04-19T13:49:24.983Z</time></trkpt><trkpt lat="44.3914734" lon="10.327921"><ele>953.6666666666667</ele><time>2026-04-19T13:49:25.985Z</time></trkpt><trkpt lat="44.3916305" lon="10.3277612"><ele>954.3333333333333</ele><time>2026-04-19T13:49:26.985Z</time></trkpt><trkpt lat="44.3917758" lon="10.3276153"><ele>955.0</ele><time>2026-04-19T13:49:27.984Z</time></trkpt><trkpt lat="44.3919202" lon="10.3274842"><ele>955.0</ele><time>2026-04-19T13:49:28.985Z</time></trkpt><trkpt lat="44.3920615" lon="10.327374"><ele>955.0</ele><time>2026-04-19T13:49:29.984Z</time></trkpt><trkpt lat="44.3921932" lon="10.3272963"><ele>955.0</ele><time>2026-04-19T13:49:30.984Z</time></trkpt><trkpt lat="44.3923218" lon="10.3272566"><ele>955.0</ele><time>2026-04-19T13:49:31.984Z</time></trkpt><trkpt lat="44.3924487" lon="10.327264"><ele>953.75</ele><time>2026-04-19T13:49:32.985Z</time></trkpt><trkpt lat="44.3925758" lon="10.3273212"><ele>952.5</ele><time>2026-04-19T13:49:33.984Z</time></trkpt><trkpt lat="44.3926971" lon="10.3274287"><ele>951.25</ele><time>2026-04-19T13:49:34.984Z</time></trkpt><trkpt lat="44.3928182" lon="10.3275802"><ele>950.0</ele><time>2026-04-19T13:49:35.984Z</time></trkpt><trkpt lat="44.392926" lon="10.3277356"><ele>949.0</ele><time>2026-04-19T13:49:36.985Z</time></trkpt><trkpt lat="44.3930316" lon="10.3278818"><ele>948.0</ele><time>2026-04-19T13:49:37.984Z</time></trkpt><trkpt lat="44.3931467" lon="10.3280155"><ele>947.0</ele><time>2026-04-19T13:49:38.985Z</time></trkpt><trkpt lat="44.393269" lon="10.3281168"><ele>946.0</ele><time>2026-04-19T13:49:39.984Z</time></trkpt><trkpt lat="44.3934078" lon="10.3281919"><ele>946.0</ele><time>2026-04-19T13:49:40.984Z</time></trkpt><trkpt lat="44.3935602" lon="10.3282403"><ele>946.0</ele><time>2026-04-19T13:49:41.985Z</time></trkpt><trkpt lat="44.3937296" lon="10.3282692"><ele>946.0</ele><time>2026-04-19T13:49:42.984Z</time></trkpt><trkpt lat="44.3939137" lon="10.3282863"><ele>949.3333333333333</ele><time>2026-04-19T13:49:43.985Z</time></trkpt><trkpt lat="44.394111" lon="10.3283"><ele>952.6666666666667</ele><time>2026-04-19T13:49:44.984Z</time></trkpt><trkpt lat="44.3942976" lon="10.328312"><ele>956.0</ele><time>2026-04-19T13:49:45.985Z</time></trkpt><trkpt lat="44.3944825" lon="10.3283248"><ele>956.0</ele><time>2026-04-19T13:49:46.985Z</time></trkpt><trkpt lat="44.3946691" lon="10.3283434"><ele>956.0</ele><time>2026-04-19T13:49:47.984Z</time></trkpt><trkpt lat="44.3948465" lon="10.3283774"><ele>956.0</ele><time>2026-04-19T13:49:48.985Z</time></trkpt><trkpt lat="44.3950131" lon="10.3284245"><ele>956.0</ele><time>2026-04-19T13:49:49.984Z</time></trkpt><trkpt lat="44.3951718" lon="10.3284846"><ele>956.0</ele><time>2026-04-19T13:49:50.985Z</time></trkpt><trkpt lat="44.3953313" lon="10.3285573"><ele>956.0</ele><time>2026-04-19T13:49:51.985Z</time></trkpt><trkpt lat="44.3954948" lon="10.3286387"><ele>955.3333333333334</ele><time>2026-04-19T13:49:52.984Z</time></trkpt><trkpt lat="44.395663" lon="10.3287257"><ele>954.6666666666667</ele><time>2026-04-19T13:49:53.985Z</time></trkpt><trkpt lat="44.3958246" lon="10.3288113"><ele>954.0</ele><time>2026-04-19T13:49:54.985Z</time></trkpt><trkpt lat="44.3959884" lon="10.3289002"><ele>954.0</ele><time>2026-04-19T13:49:55.983Z</time></trkpt><trkpt lat="44.3961566" lon="10.3289919"><ele>954.0</ele><time>2026-04-19T13:49:56.983Z</time></trkpt><trkpt lat="44.3963222" lon="10.3290841"><ele>954.0</ele><time>2026-04-19T13:49:57.984Z</time></trkpt><trkpt lat="44.3964825" lon="10.3291663"><ele>954.6666666666667</ele><time>2026-04-19T13:49:58.985Z</time></trkpt><trkpt lat="44.3966404" lon="10.3292231"><ele>955.3333333333334</ele><time>2026-04-19T13:49:59.985Z</time></trkpt><trkpt lat="44.3967916" lon="10.3292482"><ele>956.0</ele><time>2026-04-19T13:50:00.984Z</time></trkpt><trkpt lat="44.3969446" lon="10.329246"><ele>956.0</ele><time>2026-04-19T13:50:01.983Z</time></trkpt><trkpt lat="44.3971018" lon="10.3292243"><ele>956.0</ele><time>2026-04-19T13:50:02.985Z</time></trkpt><trkpt lat="44.3972652" lon="10.3291811"><ele>956.0</ele><time>2026-04-19T13:50:03.984Z</time></trkpt><trkpt lat="44.3974209" lon="10.3291392"><ele>956.6666666666667</ele><time>2026-04-19T13:50:04.985Z</time></trkpt><trkpt lat="44.3975783" lon="10.3290968"><ele>957.3333333333333</ele><time>2026-04-19T13:50:05.985Z</time></trkpt><trkpt lat="44.3977348" lon="10.3290534"><ele>958.0</ele><time>2026-04-19T13:50:06.983Z</time></trkpt><trkpt lat="44.3978862" lon="10.3290105"><ele>958.0</ele><time>2026-04-19T13:50:07.985Z</time></trkpt><trkpt lat="44.3980408" lon="10.3289647"><ele>958.0</ele><time>2026-04-19T13:50:08.984Z</time></trkpt><trkpt lat="44.398195" lon="10.3289259"><ele>958.0</ele><time>2026-04-19T13:50:09.985Z</time></trkpt><trkpt lat="44.3983471" lon="10.3289058"><ele>958.0</ele><time>2026-04-19T13:50:10.984Z</time></trkpt><trkpt lat="44.3985029" lon="10.3289073"><ele>958.0</ele><time>2026-04-19T13:50:11.984Z</time></trkpt><trkpt lat="44.3986648" lon="10.3289333"><ele>958.0</ele><time>2026-04-19T13:50:12.985Z</time></trkpt><trkpt lat="44.3988318" lon="10.3289824"><ele>958.3333333333333</ele><time>2026-04-19T13:50:13.984Z</time></trkpt><trkpt lat="44.399007" lon="10.3290385"><ele>958.6666666666667</ele><time>2026-04-19T13:50:14.983Z</time></trkpt><trkpt lat="44.3991811" lon="10.3290922"><ele>959.0</ele><time>2026-04-19T13:50:15.985Z</time></trkpt><trkpt lat="44.3993511" lon="10.3291439"><ele>959.0</ele><time>2026-04-19T13:50:16.985Z</time></trkpt><trkpt lat="44.3995163" lon="10.3291989"><ele>959.0</ele><time>2026-04-19T13:50:17.985Z</time></trkpt><trkpt lat="44.3996797" lon="10.3292767"><ele>959.0</ele><time>2026-04-19T13:50:18.985Z</time></trkpt><trkpt lat="44.3998458" lon="10.3293785"><ele>960.6666666666667</ele><time>2026-04-19T13:50:19.983Z</time></trkpt><trkpt lat="44.4000167" lon="10.3294924"><ele>962.3333333333333</ele><time>2026-04-19T13:50:20.985Z</time></trkpt><trkpt lat="44.4001904" lon="10.3296077"><ele>964.0</ele><time>2026-04-19T13:50:21.985Z</time></trkpt><trkpt lat="44.4003592" lon="10.329719"><ele>963.6666666666666</ele><time>2026-04-19T13:50:22.985Z</time></trkpt><trkpt lat="44.4005248" lon="10.3298272"><ele>963.3333333333333</ele><time>2026-04-19T13:50:23.983Z</time></trkpt><trkpt lat="44.4006902" lon="10.3299357"><ele>963.0</ele><time>2026-04-19T13:50:24.985Z</time></trkpt><trkpt lat="44.400855" lon="10.3300463"><ele>963.0</ele><time>2026-04-19T13:50:25.985Z</time></trkpt><trkpt lat="44.4010169" lon="10.330149"><ele>963.0</ele><time>2026-04-19T13:50:26.985Z</time></trkpt><trkpt lat="44.4011821" lon="10.3302358"><ele>963.0</ele><time>2026-04-19T13:50:27.985Z</time></trkpt><trkpt lat="44.4013447" lon="10.3303118"><ele>966.0</ele><time>2026-04-19T13:50:28.984Z</time></trkpt><trkpt lat="44.4015056" lon="10.3303778"><ele>969.0</ele><time>2026-04-19T13:50:29.985Z</time></trkpt><trkpt lat="44.4016593" lon="10.330433"><ele>972.0</ele><time>2026-04-19T13:50:30.984Z</time></trkpt><trkpt lat="44.4018043" lon="10.3304744"><ele>972.0</ele><time>2026-04-19T13:50:31.984Z</time></trkpt><trkpt lat="44.4019444" lon="10.3304839"><ele>972.0</ele><time>2026-04-19T13:50:32.985Z</time></trkpt><trkpt lat="44.4020842" lon="10.3304598"><ele>972.0</ele><time>2026-04-19T13:50:33.985Z</time></trkpt><trkpt lat="44.4022246" lon="10.3304067"><ele>972.0</ele><time>2026-04-19T13:50:34.985Z</time></trkpt><trkpt lat="44.4023569" lon="10.3303276"><ele>971.25</ele><time>2026-04-19T13:50:35.984Z</time></trkpt><trkpt lat="44.4024825" lon="10.3302449"><ele>970.5</ele><time>2026-04-19T13:50:36.984Z</time></trkpt><trkpt lat="44.4026029" lon="10.3301828"><ele>969.75</ele><time>2026-04-19T13:50:37.985Z</time></trkpt><trkpt lat="44.4027262" lon="10.3301494"><ele>969.0</ele><time>2026-04-19T13:50:38.984Z</time></trkpt><trkpt lat="44.4028544" lon="10.3301599"><ele>969.0</ele><time>2026-04-19T13:50:39.985Z</time></trkpt><trkpt lat="44.4029767" lon="10.3302182"><ele>969.0</ele><time>2026-04-19T13:50:40.984Z</time></trkpt><trkpt lat="44.4030931" lon="10.3303279"><ele>969.0</ele><time>2026-04-19T13:50:41.984Z</time></trkpt><trkpt lat="44.4032064" lon="10.3304855"><ele>969.0</ele><time>2026-04-19T13:50:42.984Z</time></trkpt><trkpt lat="44.4033089" lon="10.3306564"><ele>966.5</ele><time>2026-04-19T13:50:43.983Z</time></trkpt><trkpt lat="44.4034067" lon="10.3308243"><ele>964.0</ele><time>2026-04-19T13:50:44.984Z</time></trkpt><trkpt lat="44.4034998" lon="10.3309846"><ele>961.5</ele><time>2026-04-19T13:50:45.983Z</time></trkpt><trkpt lat="44.403589" lon="10.3311384"><ele>959.0</ele><time>2026-04-19T13:50:46.984Z</time></trkpt><trkpt lat="44.4036781" lon="10.3312926"><ele>958.6666666666667</ele><time>2026-04-19T13:50:47.984Z</time></trkpt><trkpt lat="44.4037738" lon="10.3314583"><ele>958.3333333333333</ele><time>2026-04-19T13:50:48.984Z</time></trkpt><trkpt lat="44.4038719" lon="10.3316302"><ele>958.0</ele><time>2026-04-19T13:50:49.984Z</time></trkpt><trkpt lat="44.4039706" lon="10.3318074"><ele>958.0</ele><time>2026-04-19T13:50:50.984Z</time></trkpt><trkpt lat="44.4040727" lon="10.3319879"><ele>958.0</ele><time>2026-04-19T13:50:51.985Z</time></trkpt><trkpt lat="44.4041758" lon="10.3321716"><ele>958.0</ele><time>2026-04-19T13:50:52.985Z</time></trkpt><trkpt lat="44.4042771" lon="10.3323596"><ele>955.6666666666666</ele><time>2026-04-19T13:50:53.985Z</time></trkpt><trkpt lat="44.404372" lon="10.332552"><ele>953.3333333333333</ele><time>2026-04-19T13:50:54.985Z</time></trkpt><trkpt lat="44.4044638" lon="10.3327519"><ele>951.0</ele><time>2026-04-19T13:50:55.984Z</time></trkpt><trkpt lat="44.404554" lon="10.3329569"><ele>949.0</ele><time>2026-04-19T13:50:56.985Z</time></trkpt><trkpt lat="44.4046458" lon="10.333164"><ele>947.0</ele><time>2026-04-19T13:50:57.984Z</time></trkpt><trkpt lat="44.4047398" lon="10.3333779"><ele>945.0</ele><time>2026-04-19T13:50:58.985Z</time></trkpt><trkpt lat="44.4048324" lon="10.3335951"><ele>948.6666666666667</ele><time>2026-04-19T13:50:59.983Z</time></trkpt><trkpt lat="44.4049263" lon="10.3338103"><ele>952.3333333333334</ele><time>2026-04-19T13:51:00.985Z</time></trkpt><trkpt lat="44.4050223" lon="10.3340246"><ele>956.0</ele><time>2026-04-19T13:51:01.983Z</time></trkpt><trkpt lat="44.405119" lon="10.3342394"><ele>956.0</ele><time>2026-04-19T13:51:02.984Z</time></trkpt><trkpt lat="44.4052151" lon="10.3344534"><ele>956.0</ele><time>2026-04-19T13:51:03.984Z</time></trkpt><trkpt lat="44.4053066" lon="10.3346627"><ele>956.0</ele><time>2026-04-19T13:51:04.984Z</time></trkpt><trkpt lat="44.405391" lon="10.3348625"><ele>954.6666666666667</ele><time>2026-04-19T13:51:05.983Z</time></trkpt><trkpt lat="44.4054728" lon="10.335056"><ele>953.3333333333333</ele><time>2026-04-19T13:51:06.985Z</time></trkpt><trkpt lat="44.4055487" lon="10.3352408"><ele>952.0</ele><time>2026-04-19T13:51:07.985Z</time></trkpt><trkpt lat="44.405616" lon="10.3354204"><ele>955.0</ele><time>2026-04-19T13:51:08.984Z</time></trkpt><trkpt lat="44.4056695" lon="10.3355985"><ele>958.0</ele><time>2026-04-19T13:51:09.983Z</time></trkpt><trkpt lat="44.4057171" lon="10.3357829"><ele>961.0</ele><time>2026-04-19T13:51:10.985Z</time></trkpt><trkpt lat="44.4057629" lon="10.3359714"><ele>964.0</ele><time>2026-04-19T13:51:11.983Z</time></trkpt><trkpt lat="44.4058143" lon="10.3361464"><ele>964.0</ele><time>2026-04-19T13:51:12.984Z</time></trkpt><trkpt lat="44.4058776" lon="10.3363051"><ele>964.0</ele><time>2026-04-19T13:51:13.985Z</time></trkpt><trkpt lat="44.405961" lon="10.3364527"><ele>964.0</ele><time>2026-04-19T13:51:14.985Z</time></trkpt><trkpt lat="44.4060606" lon="10.3365952"><ele>964.0</ele><time>2026-04-19T13:51:15.985Z</time></trkpt><trkpt lat="44.4061718" lon="10.3367344"><ele>965.0</ele><time>2026-04-19T13:51:16.985Z</time></trkpt><trkpt lat="44.4062918" lon="10.3368693"><ele>966.0</ele><time>2026-04-19T13:51:17.984Z</time></trkpt><trkpt lat="44.4064162" lon="10.3370042"><ele>967.0</ele><time>2026-04-19T13:51:18.985Z</time></trkpt><trkpt lat="44.4065437" lon="10.3371395"><ele>964.0</ele><time>2026-04-19T13:51:19.984Z</time></trkpt><trkpt lat="44.4066716" lon="10.3372697"><ele>961.0</ele><time>2026-04-19T13:51:20.985Z</time></trkpt><trkpt lat="44.4067918" lon="10.3373892"><ele>958.0</ele><time>2026-04-19T13:51:21.984Z</time></trkpt><trkpt lat="44.406911" lon="10.3374855"><ele>955.0</ele><time>2026-04-19T13:51:22.985Z</time></trkpt><trkpt lat="44.407033" lon="10.3375504"><ele>956.75</ele><time>2026-04-19T13:51:23.985Z</time></trkpt><trkpt lat="44.4071616" lon="10.3375941"><ele>958.5</ele><time>2026-04-19T13:51:24.985Z</time></trkpt><trkpt lat="44.4072875" lon="10.3376226"><ele>960.25</ele><time>2026-04-19T13:51:25.984Z</time></trkpt><trkpt lat="44.4074076" lon="10.3376581"><ele>962.0</ele><time>2026-04-19T13:51:26.985Z</time></trkpt><trkpt lat="44.4075252" lon="10.3377065"><ele>962.0</ele><time>2026-04-19T13:51:27.985Z</time></trkpt><trkpt lat="44.407642" lon="10.3377788"><ele>962.0</ele><time>2026-04-19T13:51:28.983Z</time></trkpt><trkpt lat="44.4077507" lon="10.3378757"><ele>962.0</ele><time>2026-04-19T13:51:29.983Z</time></trkpt><trkpt lat="44.4078541" lon="10.3379946"><ele>962.0</ele><time>2026-04-19T13:51:30.985Z</time></trkpt><trkpt lat="44.4079453" lon="10.3381381"><ele>962.75</ele><time>2026-04-19T13:51:31.985Z</time></trkpt><trkpt lat="44.4080163" lon="10.3383056"><ele>963.5</ele><time>2026-04-19T13:51:32.983Z</time></trkpt><trkpt lat="44.4080679" lon="10.3384962"><ele>964.25</ele><time>2026-04-19T13:51:33.984Z</time></trkpt><trkpt lat="44.4081" lon="10.3387048"><ele>965.0</ele><time>2026-04-19T13:51:34.984Z</time></trkpt><trkpt lat="44.408125" lon="10.338927"><ele>965.0</ele><time>2026-04-19T13:51:35.985Z</time></trkpt><trkpt lat="44.4081457" lon="10.3391568"><ele>965.0</ele><time>2026-04-19T13:51:36.984Z</time></trkpt><trkpt lat="44.4081634" lon="10.3393772"><ele>965.0</ele><time>2026-04-19T13:51:37.983Z</time></trkpt><trkpt lat="44.4081791" lon="10.3395845"><ele>966.0</ele><time>2026-04-19T13:51:38.984Z</time></trkpt><trkpt lat="44.4081926" lon="10.3397941"><ele>967.0</ele><time>2026-04-19T13:51:39.984Z</time></trkpt><trkpt lat="44.4082071" lon="10.3400032"><ele>968.0</ele><time>2026-04-19T13:51:40.985Z</time></trkpt><trkpt lat="44.4082247" lon="10.3402145"><ele>968.0</ele><time>2026-04-19T13:51:41.984Z</time></trkpt><trkpt lat="44.4082421" lon="10.3404281"><ele>968.0</ele><time>2026-04-19T13:51:42.983Z</time></trkpt><trkpt lat="44.4082582" lon="10.3406421"><ele>968.0</ele><time>2026-04-19T13:51:43.985Z</time></trkpt><trkpt lat="44.4082761" lon="10.3408584"><ele>968.0</ele><time>2026-04-19T13:51:44.984Z</time></trkpt><trkpt lat="44.4083082" lon="10.3410721"><ele>968.0</ele><time>2026-04-19T13:51:45.984Z</time></trkpt><trkpt lat="44.408351" lon="10.341267"><ele>968.0</ele><time>2026-04-19T13:51:46.985Z</time></trkpt><trkpt lat="44.4084013" lon="10.3414582"><ele>968.0</ele><time>2026-04-19T13:51:47.985Z</time></trkpt><trkpt lat="44.4084614" lon="10.3416407"><ele>968.0</ele><time>2026-04-19T13:51:48.985Z</time></trkpt><trkpt lat="44.4085296" lon="10.3418109"><ele>968.0</ele><time>2026-04-19T13:51:49.984Z</time></trkpt><trkpt lat="44.4086085" lon="10.3419731"><ele>968.0</ele><time>2026-04-19T13:51:50.984Z</time></trkpt><trkpt lat="44.4087002" lon="10.3421371"><ele>968.0</ele><time>2026-04-19T13:51:51.985Z</time></trkpt><trkpt lat="44.4088022" lon="10.3423065"><ele>968.0</ele><time>2026-04-19T13:51:52.985Z</time></trkpt><trkpt lat="44.4089115" lon="10.34248"><ele>968.0</ele><time>2026-04-19T13:51:53.984Z</time></trkpt><trkpt lat="44.4090229" lon="10.3426615"><ele>968.0</ele><time>2026-04-19T13:51:54.985Z</time></trkpt><trkpt lat="44.4091313" lon="10.3428443"><ele>968.0</ele><time>2026-04-19T13:51:55.985Z</time></trkpt><trkpt lat="44.4092439" lon="10.3430317"><ele>968.0</ele><time>2026-04-19T13:51:56.985Z</time></trkpt><trkpt lat="44.4093504" lon="10.3432061"><ele>968.0</ele><time>2026-04-19T13:51:57.984Z</time></trkpt><trkpt lat="44.4094573" lon="10.3433806"><ele>967.3333333333334</ele><time>2026-04-19T13:51:58.984Z</time></trkpt><trkpt lat="44.4095633" lon="10.3435527"><ele>966.6666666666667</ele><time>2026-04-19T13:51:59.984Z</time></trkpt><trkpt lat="44.4096784" lon="10.3437023"><ele>966.0</ele><time>2026-04-19T13:52:00.985Z</time></trkpt><trkpt lat="44.4098116" lon="10.3438385"><ele>970.6666666666667</ele><time>2026-04-19T13:52:01.984Z</time></trkpt><trkpt lat="44.4099582" lon="10.3439689"><ele>975.3333333333334</ele><time>2026-04-19T13:52:02.984Z</time></trkpt><trkpt lat="44.4101096" lon="10.3440921"><ele>980.0</ele><time>2026-04-19T13:52:03.984Z</time></trkpt><trkpt lat="44.4102593" lon="10.3442086"><ele>980.0</ele><time>2026-04-19T13:52:04.985Z</time></trkpt><trkpt lat="44.4104063" lon="10.3443189"><ele>980.0</ele><time>2026-04-19T13:52:05.985Z</time></trkpt><trkpt lat="44.4105536" lon="10.3444308"><ele>980.0</ele><time>2026-04-19T13:52:06.985Z</time></trkpt><trkpt lat="44.410705" lon="10.3445471"><ele>979.3333333333334</ele><time>2026-04-19T13:52:07.984Z</time></trkpt><trkpt lat="44.4108601" lon="10.3446636"><ele>978.6666666666667</ele><time>2026-04-19T13:52:08.984Z</time></trkpt><trkpt lat="44.4110191" lon="10.3447792"><ele>978.0</ele><time>2026-04-19T13:52:09.984Z</time></trkpt><trkpt lat="44.4111754" lon="10.3448938"><ele>978.0</ele><time>2026-04-19T13:52:10.983Z</time></trkpt><trkpt lat="44.4113236" lon="10.3450001"><ele>978.0</ele><time>2026-04-19T13:52:11.985Z</time></trkpt><trkpt lat="44.4114717" lon="10.3451067"><ele>978.0</ele><time>2026-04-19T13:52:12.984Z</time></trkpt><trkpt lat="44.4116197" lon="10.3452163"><ele>980.6666666666667</ele><time>2026-04-19T13:52:13.985Z</time></trkpt><trkpt lat="44.4117646" lon="10.3453238"><ele>983.3333333333334</ele><time>2026-04-19T13:52:14.985Z</time></trkpt><trkpt lat="44.4119018" lon="10.3454323"><ele>986.0</ele><time>2026-04-19T13:52:15.985Z</time></trkpt><trkpt lat="44.4120376" lon="10.345546"><ele>979.0</ele><time>2026-04-19T13:52:16.984Z</time></trkpt><trkpt lat="44.412171" lon="10.3456587"><ele>972.0</ele><time>2026-04-19T13:52:17.984Z</time></trkpt><trkpt lat="44.4123011" lon="10.3457756"><ele>965.0</ele><time>2026-04-19T13:52:18.984Z</time></trkpt><trkpt lat="44.4124228" lon="10.3459079"><ele>965.0</ele><time>2026-04-19T13:52:19.984Z</time></trkpt><trkpt lat="44.4125274" lon="10.3460576"><ele>965.0</ele><time>2026-04-19T13:52:20.984Z</time></trkpt><trkpt lat="44.4126157" lon="10.3462045"><ele>965.0</ele><time>2026-04-19T13:52:21.985Z</time></trkpt><trkpt lat="44.4126875" lon="10.3463506"><ele>965.0</ele><time>2026-04-19T13:52:22.985Z</time></trkpt><trkpt lat="44.4127485" lon="10.3465052"><ele>966.5</ele><time>2026-04-19T13:52:23.983Z</time></trkpt><trkpt lat="44.4127987" lon="10.3466807"><ele>968.0</ele><time>2026-04-19T13:52:24.983Z</time></trkpt><trkpt lat="44.412842" lon="10.3468703"><ele>969.5</ele><time>2026-04-19T13:52:25.984Z</time></trkpt><trkpt lat="44.412882" lon="10.3470538"><ele>971.0</ele><time>2026-04-19T13:52:26.984Z</time></trkpt><trkpt lat="44.4129248" lon="10.3472412"><ele>971.0</ele><time>2026-04-19T13:52:27.984Z</time></trkpt><trkpt lat="44.4129687" lon="10.3474372"><ele>971.0</ele><time>2026-04-19T13:52:28.985Z</time></trkpt><trkpt lat="44.4130128" lon="10.3476436"><ele>971.0</ele><time>2026-04-19T13:52:29.985Z</time></trkpt><trkpt lat="44.4130592" lon="10.3478553"><ele>969.0</ele><time>2026-04-19T13:52:30.984Z</time></trkpt><trkpt lat="44.4131084" lon="10.3480611"><ele>967.0</ele><time>2026-04-19T13:52:31.984Z</time></trkpt><trkpt lat="44.4131593" lon="10.3482618"><ele>965.0</ele><time>2026-04-19T13:52:32.984Z</time></trkpt><trkpt lat="44.4132141" lon="10.3484535"><ele>965.0</ele><time>2026-04-19T13:52:33.984Z</time></trkpt><trkpt lat="44.4132833" lon="10.3486314"><ele>965.0</ele><time>2026-04-19T13:52:34.984Z</time></trkpt><trkpt lat="44.4133613" lon="10.3487953"><ele>965.0</ele><time>2026-04-19T13:52:35.984Z</time></trkpt><trkpt lat="44.4134294" lon="10.3489543"><ele>965.0</ele><time>2026-04-19T13:52:36.985Z</time></trkpt><trkpt lat="44.4134913" lon="10.3491171"><ele>961.75</ele><time>2026-04-19T13:52:37.985Z</time></trkpt><trkpt lat="44.4135521" lon="10.3492787"><ele>958.5</ele><time>2026-04-19T13:52:38.983Z</time></trkpt><trkpt lat="44.4136127" lon="10.3494404"><ele>955.25</ele><time>2026-04-19T13:52:39.985Z</time></trkpt><trkpt lat="44.4136707" lon="10.3496019"><ele>952.0</ele><time>2026-04-19T13:52:40.985Z</time></trkpt><trkpt lat="44.4137311" lon="10.3497603"><ele>950.75</ele><time>2026-04-19T13:52:41.985Z</time></trkpt><trkpt lat="44.4138048" lon="10.3499079"><ele>949.5</ele><time>2026-04-19T13:52:42.984Z</time></trkpt><trkpt lat="44.413895" lon="10.3500362"><ele>948.25</ele><time>2026-04-19T13:52:43.985Z</time></trkpt><trkpt lat="44.4139977" lon="10.3501484"><ele>947.0</ele><time>2026-04-19T13:52:44.983Z</time></trkpt><trkpt lat="44.414106" lon="10.3502538"><ele>947.0</ele><time>2026-04-19T13:52:45.985Z</time></trkpt><trkpt lat="44.4142127" lon="10.3503652"><ele>947.0</ele><time>2026-04-19T13:52:46.985Z</time></trkpt><trkpt lat="44.414307" lon="10.3504858"><ele>947.0</ele><time>2026-04-19T13:52:47.984Z</time></trkpt><trkpt lat="44.4143937" lon="10.350611"><ele>947.0</ele><time>2026-04-19T13:52:48.983Z</time></trkpt><trkpt lat="44.4144786" lon="10.3507344"><ele>945.5</ele><time>2026-04-19T13:52:49.984Z</time></trkpt><trkpt lat="44.4145629" lon="10.3508542"><ele>944.0</ele><time>2026-04-19T13:52:50.984Z</time></trkpt><trkpt lat="44.4146489" lon="10.3509659"><ele>942.5</ele><time>2026-04-19T13:52:51.984Z</time></trkpt><trkpt lat="44.4147389" lon="10.3510709"><ele>941.0</ele><time>2026-04-19T13:52:52.985Z</time></trkpt><trkpt lat="44.4148334" lon="10.3511587"><ele>941.0</ele><time>2026-04-19T13:52:53.984Z</time></trkpt><trkpt lat="44.4149344" lon="10.3512231"><ele>940.9999999999999</ele><time>2026-04-19T13:52:54.984Z</time></trkpt><trkpt lat="44.4150377" lon="10.3512674"><ele>940.9999999999999</ele><time>2026-04-19T13:52:55.983Z</time></trkpt><trkpt lat="44.4151391" lon="10.3513078"><ele>941.0</ele><time>2026-04-19T13:52:56.984Z</time></trkpt><trkpt lat="44.4152493" lon="10.3513519"><ele>941.0</ele><time>2026-04-19T13:52:57.985Z</time></trkpt><trkpt lat="44.4153629" lon="10.3513911"><ele>939.5999999999999</ele><time>2026-04-19T13:52:58.984Z</time></trkpt><trkpt lat="44.4154731" lon="10.3514122"><ele>938.1999999999999</ele><time>2026-04-19T13:52:59.985Z</time></trkpt><trkpt lat="44.4155822" lon="10.3514117"><ele>936.8000000000001</ele><time>2026-04-19T13:53:00.984Z</time></trkpt><trkpt lat="44.4156906" lon="10.351386"><ele>935.4000000000001</ele><time>2026-04-19T13:53:01.985Z</time></trkpt><trkpt lat="44.4158037" lon="10.3513521"><ele>934.0</ele><time>2026-04-19T13:53:02.984Z</time></trkpt><trkpt lat="44.4159223" lon="10.3513146"><ele>934.0</ele><time>2026-04-19T13:53:03.984Z</time></trkpt><trkpt lat="44.4160364" lon="10.351277"><ele>934.0000000000001</ele><time>2026-04-19T13:53:04.985Z</time></trkpt><trkpt lat="44.4161382" lon="10.3512456"><ele>934.0000000000001</ele><time>2026-04-19T13:53:05.984Z</time></trkpt><trkpt lat="44.4162295" lon="10.3512173"><ele>934.0</ele><time>2026-04-19T13:53:06.984Z</time></trkpt><trkpt lat="44.4163112" lon="10.351192"><ele>934.0</ele><time>2026-04-19T13:53:07.985Z</time></trkpt><trkpt lat="44.4163863" lon="10.3511688"><ele>931.4999999999999</ele><time>2026-04-19T13:53:08.985Z</time></trkpt><trkpt lat="44.4164792" lon="10.3511412"><ele>929.0</ele><time>2026-04-19T13:53:10.984Z</time></trkpt><trkpt lat="44.4165442" lon="10.3511234"><ele>926.5</ele><time>2026-04-19T13:53:12.985Z</time></trkpt><trkpt lat="44.4166304" lon="10.3511095"><ele>924.0</ele><time>2026-04-19T13:53:15.984Z</time></trkpt><trkpt lat="44.4166866" lon="10.3511627"><ele>921.4999999999999</ele><time>2026-04-19T13:53:17.984Z</time></trkpt><trkpt lat="44.4166869" lon="10.3512631"><ele>919.0</ele><time>2026-04-19T13:53:19.984Z</time></trkpt><trkpt lat="44.4166207" lon="10.3513679"><ele>918.3333333333333</ele><time>2026-04-19T13:53:21.985Z</time></trkpt><trkpt lat="44.4165664" lon="10.3514279"><ele>917.6666666666666</ele><time>2026-04-19T13:53:22.985Z</time></trkpt><trkpt lat="44.4165008" lon="10.3514895"><ele>917.0</ele><time>2026-04-19T13:53:23.985Z</time></trkpt><trkpt lat="44.4164314" lon="10.3515468"><ele>916.3333333333333</ele><time>2026-04-19T13:53:24.984Z</time></trkpt><trkpt lat="44.4163593" lon="10.3516154"><ele>915.6666666666666</ele><time>2026-04-19T13:53:25.984Z</time></trkpt><trkpt lat="44.4162914" lon="10.3516941"><ele>915.0</ele><time>2026-04-19T13:53:26.985Z</time></trkpt><trkpt lat="44.4162367" lon="10.3517901"><ele>914.4</ele><time>2026-04-19T13:53:27.983Z</time></trkpt><trkpt lat="44.4161963" lon="10.3518999"><ele>913.8</ele><time>2026-04-19T13:53:28.984Z</time></trkpt><trkpt lat="44.4161662" lon="10.3520293"><ele>913.2</ele><time>2026-04-19T13:53:29.985Z</time></trkpt><trkpt lat="44.4161419" lon="10.3521739"><ele>912.6</ele><time>2026-04-19T13:53:30.985Z</time></trkpt><trkpt lat="44.4161229" lon="10.3523197"><ele>912.0</ele><time>2026-04-19T13:53:31.985Z</time></trkpt><trkpt lat="44.4161044" lon="10.3524671"><ele>912.0</ele><time>2026-04-19T13:53:32.984Z</time></trkpt><trkpt lat="44.4160894" lon="10.3526132"><ele>912.0</ele><time>2026-04-19T13:53:33.984Z</time></trkpt><trkpt lat="44.4160744" lon="10.3527557"><ele>912.0</ele><time>2026-04-19T13:53:34.985Z</time></trkpt><trkpt lat="44.4160616" lon="10.3528858"><ele>912.0</ele><time>2026-04-19T13:53:35.983Z</time></trkpt><trkpt lat="44.4160503" lon="10.3530064"><ele>912.0</ele><time>2026-04-19T13:53:36.984Z</time></trkpt><trkpt lat="44.4160352" lon="10.3531177"><ele>910.6666666666666</ele><time>2026-04-19T13:53:37.984Z</time></trkpt><trkpt lat="44.4160155" lon="10.3532198"><ele>909.3333333333333</ele><time>2026-04-19T13:53:38.985Z</time></trkpt><trkpt lat="44.4159848" lon="10.3533117"><ele>908.0</ele><time>2026-04-19T13:53:39.983Z</time></trkpt><trkpt lat="44.4159389" lon="10.353397"><ele>906.6666666666666</ele><time>2026-04-19T13:53:40.985Z</time></trkpt><trkpt lat="44.415872" lon="10.3534709"><ele>905.3333333333333</ele><time>2026-04-19T13:53:41.985Z</time></trkpt><trkpt lat="44.4157859" lon="10.3535271"><ele>904.0</ele><time>2026-04-19T13:53:42.984Z</time></trkpt><trkpt lat="44.4156859" lon="10.3535713"><ele>904.0</ele><time>2026-04-19T13:53:43.984Z</time></trkpt><trkpt lat="44.4155752" lon="10.3536118"><ele>904.0000000000001</ele><time>2026-04-19T13:53:44.985Z</time></trkpt><trkpt lat="44.4154689" lon="10.3536527"><ele>904.0000000000001</ele><time>2026-04-19T13:53:45.985Z</time></trkpt><trkpt lat="44.4153652" lon="10.353692"><ele>904.0</ele><time>2026-04-19T13:53:46.984Z</time></trkpt><trkpt lat="44.4152634" lon="10.3537297"><ele>904.0</ele><time>2026-04-19T13:53:47.984Z</time></trkpt><trkpt lat="44.4151658" lon="10.3537644"><ele>903.4999999999999</ele><time>2026-04-19T13:53:48.985Z</time></trkpt><trkpt lat="44.4150781" lon="10.353791"><ele>903.0</ele><time>2026-04-19T13:53:49.984Z</time></trkpt><trkpt lat="44.4149939" lon="10.3538165"><ele>902.5</ele><time>2026-04-19T13:53:50.984Z</time></trkpt><trkpt lat="44.4149145" lon="10.3538408"><ele>902.0</ele><time>2026-04-19T13:53:51.985Z</time></trkpt><trkpt lat="44.4148448" lon="10.3538646"><ele>901.4999999999999</ele><time>2026-04-19T13:53:52.985Z</time></trkpt><trkpt lat="44.4147337" lon="10.353903"><ele>901.0</ele><time>2026-04-19T13:53:54.985Z</time></trkpt><trkpt lat="44.4146329" lon="10.3539486"><ele>899.8333333333333</ele><time>2026-04-19T13:53:56.984Z</time></trkpt><trkpt lat="44.4145494" lon="10.3540474"><ele>898.6666666666666</ele><time>2026-04-19T13:53:58.985Z</time></trkpt><trkpt lat="44.414544" lon="10.3542022"><ele>897.5</ele><time>2026-04-19T13:54:00.984Z</time></trkpt><trkpt lat="44.4145708" lon="10.3542885"><ele>896.3333333333333</ele><time>2026-04-19T13:54:01.985Z</time></trkpt><trkpt lat="44.4146165" lon="10.3543733"><ele>895.1666666666666</ele><time>2026-04-19T13:54:02.985Z</time></trkpt><trkpt lat="44.414666" lon="10.3544607"><ele>894.0</ele><time>2026-04-19T13:54:03.984Z</time></trkpt><trkpt lat="44.4147151" lon="10.3545533"><ele>894.0</ele><time>2026-04-19T13:54:04.984Z</time></trkpt><trkpt lat="44.414762" lon="10.3546504"><ele>894.0</ele><time>2026-04-19T13:54:05.985Z</time></trkpt><trkpt lat="44.4148108" lon="10.3547566"><ele>894.0</ele><time>2026-04-19T13:54:06.983Z</time></trkpt><trkpt lat="44.4148635" lon="10.354865"><ele>894.0</ele><time>2026-04-19T13:54:07.984Z</time></trkpt><trkpt lat="44.4149207" lon="10.3549646"><ele>894.0</ele><time>2026-04-19T13:54:08.985Z</time></trkpt><trkpt lat="44.4149897" lon="10.3550468"><ele>894.0</ele><time>2026-04-19T13:54:09.984Z</time></trkpt><trkpt lat="44.4150682" lon="10.3551078"><ele>892.5</ele><time>2026-04-19T13:54:10.985Z</time></trkpt><trkpt lat="44.4151617" lon="10.3551611"><ele>891.0</ele><time>2026-04-19T13:54:11.984Z</time></trkpt><trkpt lat="44.4152727" lon="10.3552147"><ele>889.5</ele><time>2026-04-19T13:54:12.985Z</time></trkpt><trkpt lat="44.415396" lon="10.3552672"><ele>888.0</ele><time>2026-04-19T13:54:13.985Z</time></trkpt><trkpt lat="44.4155226" lon="10.3553228"><ele>888.0</ele><time>2026-04-19T13:54:14.984Z</time></trkpt><trkpt lat="44.4156436" lon="10.3553875"><ele>888.0</ele><time>2026-04-19T13:54:15.985Z</time></trkpt><trkpt lat="44.4157576" lon="10.3554665"><ele>888.0</ele><time>2026-04-19T13:54:16.983Z</time></trkpt><trkpt lat="44.4158656" lon="10.3555604"><ele>888.0</ele><time>2026-04-19T13:54:17.984Z</time></trkpt><trkpt lat="44.4159647" lon="10.3556632"><ele>886.5999999999999</ele><time>2026-04-19T13:54:18.985Z</time></trkpt><trkpt lat="44.4160554" lon="10.3557638"><ele>885.1999999999999</ele><time>2026-04-19T13:54:19.985Z</time></trkpt><trkpt lat="44.4161452" lon="10.3558624"><ele>883.8</ele><time>2026-04-19T13:54:20.984Z</time></trkpt><trkpt lat="44.41623" lon="10.3559565"><ele>882.4</ele><time>2026-04-19T13:54:21.985Z</time></trkpt><trkpt lat="44.416315" lon="10.3560542"><ele>881.0</ele><time>2026-04-19T13:54:22.984Z</time></trkpt><trkpt lat="44.4164001" lon="10.3561487"><ele>879.5999999999999</ele><time>2026-04-19T13:54:23.984Z</time></trkpt><trkpt lat="44.4164854" lon="10.3562343"><ele>878.1999999999999</ele><time>2026-04-19T13:54:24.985Z</time></trkpt><trkpt lat="44.4165616" lon="10.3563056"><ele>876.8000000000001</ele><time>2026-04-19T13:54:25.984Z</time></trkpt><trkpt lat="44.4166299" lon="10.3563725"><ele>875.4000000000001</ele><time>2026-04-19T13:54:26.984Z</time></trkpt><trkpt lat="44.4166879" lon="10.3564383"><ele>874.0</ele><time>2026-04-19T13:54:27.984Z</time></trkpt><trkpt lat="44.4167365" lon="10.356573"><ele>873.2</ele><time>2026-04-19T13:54:29.984Z</time></trkpt><trkpt lat="44.4166815" lon="10.3566757"><ele>872.4000000000001</ele><time>2026-04-19T13:54:31.984Z</time></trkpt><trkpt lat="44.4165367" lon="10.356691"><ele>871.6</ele><time>2026-04-19T13:54:33.985Z</time></trkpt><trkpt lat="44.4164408" lon="10.3566944"><ele>870.8</ele><time>2026-04-19T13:54:34.985Z</time></trkpt><trkpt lat="44.4163422" lon="10.3566996"><ele>870.0</ele><time>2026-04-19T13:54:35.984Z</time></trkpt><trkpt lat="44.4162366" lon="10.3567065"><ele>869.5</ele><time>2026-04-19T13:54:36.985Z</time></trkpt><trkpt lat="44.4161243" lon="10.3567133"><ele>869.0</ele><time>2026-04-19T13:54:37.984Z</time></trkpt><trkpt lat="44.4160055" lon="10.3567193"><ele>868.5</ele><time>2026-04-19T13:54:38.984Z</time></trkpt><trkpt lat="44.4158803" lon="10.3567238"><ele>868.0</ele><time>2026-04-19T13:54:39.985Z</time></trkpt><trkpt lat="44.4157591" lon="10.3567297"><ele>868.0</ele><time>2026-04-19T13:54:40.984Z</time></trkpt><trkpt lat="44.4156397" lon="10.3567343"><ele>868.0</ele><time>2026-04-19T13:54:41.984Z</time></trkpt><trkpt lat="44.4155225" lon="10.3567403"><ele>868.0</ele><time>2026-04-19T13:54:42.984Z</time></trkpt><trkpt lat="44.4154055" lon="10.3567611"><ele>868.0</ele><time>2026-04-19T13:54:43.984Z</time></trkpt><trkpt lat="44.4152942" lon="10.3568094"><ele>867.0</ele><time>2026-04-19T13:54:44.984Z</time></trkpt><trkpt lat="44.4151959" lon="10.3568878"><ele>866.0</ele><time>2026-04-19T13:54:45.985Z</time></trkpt><trkpt lat="44.4151101" lon="10.3569884"><ele>865.0</ele><time>2026-04-19T13:54:46.985Z</time></trkpt><trkpt lat="44.4150408" lon="10.3571127"><ele>864.0</ele><time>2026-04-19T13:54:47.984Z</time></trkpt><trkpt lat="44.4149903" lon="10.3572656"><ele>861.25</ele><time>2026-04-19T13:54:48.985Z</time></trkpt><trkpt lat="44.4149635" lon="10.3574301"><ele>858.5</ele><time>2026-04-19T13:54:49.985Z</time></trkpt><trkpt lat="44.4149658" lon="10.3575958"><ele>855.75</ele><time>2026-04-19T13:54:50.985Z</time></trkpt><trkpt lat="44.4149959" lon="10.3577567"><ele>853.0</ele><time>2026-04-19T13:54:51.985Z</time></trkpt><trkpt lat="44.4150501" lon="10.3579131"><ele>851.75</ele><time>2026-04-19T13:54:52.985Z</time></trkpt><trkpt lat="44.4151291" lon="10.3580458"><ele>850.5</ele><time>2026-04-19T13:54:53.984Z</time></trkpt><trkpt lat="44.415231" lon="10.35815"><ele>849.25</ele><time>2026-04-19T13:54:54.983Z</time></trkpt><trkpt lat="44.4153561" lon="10.3582392"><ele>848.0</ele><time>2026-04-19T13:54:55.985Z</time></trkpt><trkpt lat="44.4155017" lon="10.3583295"><ele>848.0</ele><time>2026-04-19T13:54:56.984Z</time></trkpt><trkpt lat="44.4156524" lon="10.3584171"><ele>848.0</ele><time>2026-04-19T13:54:57.983Z</time></trkpt><trkpt lat="44.4158086" lon="10.3585068"><ele>848.0</ele><time>2026-04-19T13:54:58.984Z</time></trkpt><trkpt lat="44.415965" lon="10.3585994"><ele>848.0</ele><time>2026-04-19T13:54:59.985Z</time></trkpt><trkpt lat="44.4161193" lon="10.3586895"><ele>848.0</ele><time>2026-04-19T13:55:00.984Z</time></trkpt><trkpt lat="44.4162718" lon="10.358774"><ele>848.0</ele><time>2026-04-19T13:55:01.983Z</time></trkpt><trkpt lat="44.4164181" lon="10.3588558"><ele>845.0</ele><time>2026-04-19T13:55:02.985Z</time></trkpt><trkpt lat="44.4165448" lon="10.3589405"><ele>842.0</ele><time>2026-04-19T13:55:03.984Z</time></trkpt><trkpt lat="44.416652" lon="10.3590475"><ele>839.0</ele><time>2026-04-19T13:55:04.985Z</time></trkpt><trkpt lat="44.4167413" lon="10.3591724"><ele>836.0</ele><time>2026-04-19T13:55:05.984Z</time></trkpt><trkpt lat="44.4168197" lon="10.3593009"><ele>836.0</ele><time>2026-04-19T13:55:06.984Z</time></trkpt><trkpt lat="44.4169011" lon="10.359416"><ele>836.0</ele><time>2026-04-19T13:55:07.984Z</time></trkpt><trkpt lat="44.416994" lon="10.3595124"><ele>836.0</ele><time>2026-04-19T13:55:08.984Z</time></trkpt><trkpt lat="44.4170919" lon="10.3595933"><ele>836.0</ele><time>2026-04-19T13:55:09.985Z</time></trkpt><trkpt lat="44.4171915" lon="10.3596697"><ele>833.75</ele><time>2026-04-19T13:55:10.985Z</time></trkpt><trkpt lat="44.4172917" lon="10.3597448"><ele>831.5</ele><time>2026-04-19T13:55:11.985Z</time></trkpt><trkpt lat="44.4173909" lon="10.3598259"><ele>829.25</ele><time>2026-04-19T13:55:12.983Z</time></trkpt><trkpt lat="44.417486" lon="10.3599236"><ele>827.0</ele><time>2026-04-19T13:55:13.985Z</time></trkpt><trkpt lat="44.4175718" lon="10.3600356"><ele>827.0</ele><time>2026-04-19T13:55:14.984Z</time></trkpt><trkpt lat="44.4176496" lon="10.3601698"><ele>827.0</ele><time>2026-04-19T13:55:15.985Z</time></trkpt><trkpt lat="44.4177272" lon="10.3603064"><ele>827.0</ele><time>2026-04-19T13:55:16.984Z</time></trkpt><trkpt lat="44.4178027" lon="10.3604438"><ele>827.0</ele><time>2026-04-19T13:55:17.984Z</time></trkpt><trkpt lat="44.4178814" lon="10.3605754"><ele>825.75</ele><time>2026-04-19T13:55:18.985Z</time></trkpt><trkpt lat="44.4179647" lon="10.3606947"><ele>824.5</ele><time>2026-04-19T13:55:19.984Z</time></trkpt><trkpt lat="44.4180518" lon="10.3608056"><ele>823.25</ele><time>2026-04-19T13:55:20.985Z</time></trkpt><trkpt lat="44.4181398" lon="10.3609096"><ele>822.0</ele><time>2026-04-19T13:55:21.985Z</time></trkpt><trkpt lat="44.4182224" lon="10.3610071"><ele>822.0</ele><time>2026-04-19T13:55:22.984Z</time></trkpt><trkpt lat="44.4182922" lon="10.3610979"><ele>822.0</ele><time>2026-04-19T13:55:23.985Z</time></trkpt><trkpt lat="44.4183452" lon="10.3612038"><ele>822.0</ele><time>2026-04-19T13:55:24.985Z</time></trkpt><trkpt lat="44.4183746" lon="10.3613232"><ele>822.0</ele><time>2026-04-19T13:55:25.985Z</time></trkpt><trkpt lat="44.4183788" lon="10.3614469"><ele>822.0</ele><time>2026-04-19T13:55:26.985Z</time></trkpt><trkpt lat="44.4183593" lon="10.3615784"><ele>820.25</ele><time>2026-04-19T13:55:27.984Z</time></trkpt><trkpt lat="44.4183231" lon="10.36172"><ele>818.5</ele><time>2026-04-19T13:55:28.985Z</time></trkpt><trkpt lat="44.418286" lon="10.3618786"><ele>816.75</ele><time>2026-04-19T13:55:29.985Z</time></trkpt><trkpt lat="44.4182531" lon="10.3620307"><ele>815.0</ele><time>2026-04-19T13:55:30.984Z</time></trkpt><trkpt lat="44.418222" lon="10.3621845"><ele>814.25</ele><time>2026-04-19T13:55:31.984Z</time></trkpt><trkpt lat="44.4181925" lon="10.3623397"><ele>813.5</ele><time>2026-04-19T13:55:32.984Z</time></trkpt><trkpt lat="44.4181603" lon="10.3625043"><ele>812.75</ele><time>2026-04-19T13:55:33.985Z</time></trkpt><trkpt lat="44.418127" lon="10.3626798"><ele>812.0</ele><time>2026-04-19T13:55:34.985Z</time></trkpt><trkpt lat="44.4180958" lon="10.3628575"><ele>810.25</ele><time>2026-04-19T13:55:35.985Z</time></trkpt><trkpt lat="44.4180642" lon="10.3630336"><ele>808.5</ele><time>2026-04-19T13:55:36.984Z</time></trkpt><trkpt lat="44.4180311" lon="10.3632063"><ele>806.75</ele><time>2026-04-19T13:55:37.985Z</time></trkpt><trkpt lat="44.418001" lon="10.3633751"><ele>805.0</ele><time>2026-04-19T13:55:38.985Z</time></trkpt><trkpt lat="44.4179733" lon="10.3635396"><ele>802.5</ele><time>2026-04-19T13:55:39.985Z</time></trkpt><trkpt lat="44.4179477" lon="10.3637025"><ele>800.0</ele><time>2026-04-19T13:55:40.984Z</time></trkpt><trkpt lat="44.4179236" lon="10.3638689"><ele>797.5</ele><time>2026-04-19T13:55:41.985Z</time></trkpt><trkpt lat="44.4179025" lon="10.3640313"><ele>795.0</ele><time>2026-04-19T13:55:42.984Z</time></trkpt><trkpt lat="44.4178862" lon="10.3641938"><ele>793.25</ele><time>2026-04-19T13:55:43.984Z</time></trkpt><trkpt lat="44.4178785" lon="10.3643557"><ele>791.5</ele><time>2026-04-19T13:55:44.984Z</time></trkpt><trkpt lat="44.4178795" lon="10.3645198"><ele>789.75</ele><time>2026-04-19T13:55:45.984Z</time></trkpt><trkpt lat="44.4178903" lon="10.3646848"><ele>788.0</ele><time>2026-04-19T13:55:46.984Z</time></trkpt><trkpt lat="44.4179088" lon="10.3648524"><ele>788.75</ele><time>2026-04-19T13:55:47.984Z</time></trkpt><trkpt lat="44.4179321" lon="10.3650241"><ele>789.5</ele><time>2026-04-19T13:55:48.985Z</time></trkpt><trkpt lat="44.4179643" lon="10.3651946"><ele>790.25</ele><time>2026-04-19T13:55:49.984Z</time></trkpt><trkpt lat="44.4180075" lon="10.3653723"><ele>791.0</ele><time>2026-04-19T13:55:50.984Z</time></trkpt><trkpt lat="44.4180645" lon="10.3655526"><ele>791.0</ele><time>2026-04-19T13:55:51.985Z</time></trkpt><trkpt lat="44.4181314" lon="10.3657214"><ele>791.0</ele><time>2026-04-19T13:55:52.984Z</time></trkpt><trkpt lat="44.4182005" lon="10.3658866"><ele>791.0</ele><time>2026-04-19T13:55:53.983Z</time></trkpt><trkpt lat="44.4182707" lon="10.366049"><ele>791.0</ele><time>2026-04-19T13:55:54.985Z</time></trkpt><trkpt lat="44.4183417" lon="10.3662078"><ele>791.0</ele><time>2026-04-19T13:55:55.985Z</time></trkpt><trkpt lat="44.4184154" lon="10.3663463"><ele>791.0</ele><time>2026-04-19T13:55:56.985Z</time></trkpt><trkpt lat="44.418498" lon="10.3664601"><ele>791.0</ele><time>2026-04-19T13:55:57.984Z</time></trkpt><trkpt lat="44.4185939" lon="10.3665495"><ele>791.0</ele><time>2026-04-19T13:55:58.983Z</time></trkpt><trkpt lat="44.4186979" lon="10.3666121"><ele>788.75</ele><time>2026-04-19T13:55:59.984Z</time></trkpt><trkpt lat="44.4188027" lon="10.366665"><ele>786.5</ele><time>2026-04-19T13:56:00.985Z</time></trkpt><trkpt lat="44.4189005" lon="10.3667358"><ele>784.25</ele><time>2026-04-19T13:56:01.984Z</time></trkpt><trkpt lat="44.4189956" lon="10.3668265"><ele>782.0</ele><time>2026-04-19T13:56:02.984Z</time></trkpt><trkpt lat="44.4190967" lon="10.3669426"><ele>782.0</ele><time>2026-04-19T13:56:03.985Z</time></trkpt><trkpt lat="44.4192019" lon="10.3670837"><ele>782.0</ele><time>2026-04-19T13:56:04.985Z</time></trkpt><trkpt lat="44.4193075" lon="10.3672335"><ele>782.0</ele><time>2026-04-19T13:56:05.985Z</time></trkpt><trkpt lat="44.4194084" lon="10.3673802"><ele>782.0</ele><time>2026-04-19T13:56:06.984Z</time></trkpt><trkpt lat="44.4195092" lon="10.3675258"><ele>782.0</ele><time>2026-04-19T13:56:07.984Z</time></trkpt><trkpt lat="44.419609" lon="10.3676688"><ele>782.0</ele><time>2026-04-19T13:56:08.985Z</time></trkpt><trkpt lat="44.4197119" lon="10.367814"><ele>782.0</ele><time>2026-04-19T13:56:09.985Z</time></trkpt><trkpt lat="44.4198105" lon="10.3679484"><ele>782.0</ele><time>2026-04-19T13:56:10.985Z</time></trkpt><trkpt lat="44.41991" lon="10.3680676"><ele>778.0</ele><time>2026-04-19T13:56:11.985Z</time></trkpt><trkpt lat="44.4200178" lon="10.36817"><ele>774.0</ele><time>2026-04-19T13:56:12.985Z</time></trkpt><trkpt lat="44.4201338" lon="10.3682526"><ele>770.0</ele><time>2026-04-19T13:56:13.983Z</time></trkpt><trkpt lat="44.4202445" lon="10.3683253"><ele>766.0</ele><time>2026-04-19T13:56:14.984Z</time></trkpt><trkpt lat="44.4203396" lon="10.3683971"><ele>766.0</ele><time>2026-04-19T13:56:15.984Z</time></trkpt><trkpt lat="44.4204258" lon="10.3684742"><ele>766.0</ele><time>2026-04-19T13:56:16.985Z</time></trkpt><trkpt lat="44.4204948" lon="10.3685696"><ele>766.0</ele><time>2026-04-19T13:56:17.985Z</time></trkpt><trkpt lat="44.4205336" lon="10.3686919"><ele>766.0</ele><time>2026-04-19T13:56:18.985Z</time></trkpt><trkpt lat="44.4205332" lon="10.3688298"><ele>766.0</ele><time>2026-04-19T13:56:19.984Z</time></trkpt><trkpt lat="44.4205076" lon="10.3689732"><ele>764.1999999999999</ele><time>2026-04-19T13:56:20.985Z</time></trkpt><trkpt lat="44.4204873" lon="10.3691131"><ele>762.4</ele><time>2026-04-19T13:56:21.984Z</time></trkpt><trkpt lat="44.4204904" lon="10.3692424"><ele>760.6</ele><time>2026-04-19T13:56:22.984Z</time></trkpt><trkpt lat="44.4205152" lon="10.369359"><ele>758.8</ele><time>2026-04-19T13:56:23.984Z</time></trkpt><trkpt lat="44.4205646" lon="10.369459"><ele>757.0</ele><time>2026-04-19T13:56:24.985Z</time></trkpt><trkpt lat="44.4206466" lon="10.369526"><ele>757.0</ele><time>2026-04-19T13:56:25.984Z</time></trkpt><trkpt lat="44.4207419" lon="10.3695714"><ele>757.0</ele><time>2026-04-19T13:56:26.985Z</time></trkpt><trkpt lat="44.4208486" lon="10.3696148"><ele>757.0</ele><time>2026-04-19T13:56:27.984Z</time></trkpt><trkpt lat="44.420957" lon="10.3696727"><ele>757.0</ele><time>2026-04-19T13:56:28.985Z</time></trkpt><trkpt lat="44.4210629" lon="10.3697395"><ele>757.0</ele><time>2026-04-19T13:56:29.984Z</time></trkpt><trkpt lat="44.4211694" lon="10.3698122"><ele>755.25</ele><time>2026-04-19T13:56:30.985Z</time></trkpt><trkpt lat="44.4212769" lon="10.3698946"><ele>753.5</ele><time>2026-04-19T13:56:31.984Z</time></trkpt><trkpt lat="44.421381" lon="10.3699776"><ele>751.75</ele><time>2026-04-19T13:56:32.984Z</time></trkpt><trkpt lat="44.4214858" lon="10.3700545"><ele>750.0</ele><time>2026-04-19T13:56:33.984Z</time></trkpt><trkpt lat="44.4215835" lon="10.3701446"><ele>750.0</ele><time>2026-04-19T13:56:34.984Z</time></trkpt><trkpt lat="44.4216637" lon="10.3702514"><ele>750.0</ele><time>2026-04-19T13:56:35.984Z</time></trkpt><trkpt lat="44.4217178" lon="10.3703491"><ele>750.0</ele><time>2026-04-19T13:56:36.984Z</time></trkpt><trkpt lat="44.4217573" lon="10.3704362"><ele>750.0</ele><time>2026-04-19T13:56:37.985Z</time></trkpt><trkpt lat="44.4218039" lon="10.3705356"><ele>750.0</ele><time>2026-04-19T13:56:39.984Z</time></trkpt><trkpt lat="44.4218414" lon="10.3706196"><ele>750.0</ele><time>2026-04-19T13:56:43.985Z</time></trkpt><trkpt lat="44.4218878" lon="10.3706845"><ele>748.0</ele><time>2026-04-19T13:56:46.985Z</time></trkpt><trkpt lat="44.4219528" lon="10.3707423"><ele>746.0</ele><time>2026-04-19T13:56:49.985Z</time></trkpt><trkpt lat="44.4220202" lon="10.3707906"><ele>744.0</ele><time>2026-04-19T13:56:53.985Z</time></trkpt><trkpt lat="44.4221064" lon="10.3708386"><ele>742.0</ele><time>2026-04-19T13:56:56.984Z</time></trkpt><trkpt lat="44.4221599" lon="10.3708975"><ele>740.0</ele><time>2026-04-19T13:56:58.985Z</time></trkpt><trkpt lat="44.4221724" lon="10.3709935"><ele>738.0</ele><time>2026-04-19T13:57:00.983Z</time></trkpt><trkpt lat="44.4221153" lon="10.3710718"><ele>738.0</ele><time>2026-04-19T13:57:02.983Z</time></trkpt><trkpt lat="44.4220299" lon="10.3710359"><ele>738.0</ele><time>2026-04-19T13:57:03.985Z</time></trkpt><trkpt lat="44.421925" lon="10.3710056"><ele>738.0</ele><time>2026-04-19T13:57:05.985Z</time></trkpt><trkpt lat="44.4218587" lon="10.3709796"><ele>738.0</ele><time>2026-04-19T13:57:06.984Z</time></trkpt><trkpt lat="44.4217901" lon="10.3709569"><ele>738.0</ele><time>2026-04-19T13:57:07.985Z</time></trkpt><trkpt lat="44.4217169" lon="10.3709348"><ele>738.0</ele><time>2026-04-19T13:57:08.985Z</time></trkpt><trkpt lat="44.421635" lon="10.3709104"><ele>738.0</ele><time>2026-04-19T13:57:09.985Z</time></trkpt><trkpt lat="44.421548" lon="10.3708814"><ele>738.0</ele><time>2026-04-19T13:57:10.984Z</time></trkpt><trkpt lat="44.42145" lon="10.3708568"><ele>738.0</ele><time>2026-04-19T13:57:11.985Z</time></trkpt><trkpt lat="44.4213475" lon="10.3708424"><ele>738.0</ele><time>2026-04-19T13:57:12.985Z</time></trkpt><trkpt lat="44.4212382" lon="10.370839"><ele>738.0</ele><time>2026-04-19T13:57:13.985Z</time></trkpt><trkpt lat="44.4211356" lon="10.3708482"><ele>737.2</ele><time>2026-04-19T13:57:14.985Z</time></trkpt><trkpt lat="44.4210364" lon="10.370865"><ele>736.4</ele><time>2026-04-19T13:57:15.984Z</time></trkpt><trkpt lat="44.4209416" lon="10.370885"><ele>735.6</ele><time>2026-04-19T13:57:16.984Z</time></trkpt><trkpt lat="44.4208445" lon="10.3709096"><ele>734.8000000000001</ele><time>2026-04-19T13:57:17.984Z</time></trkpt><trkpt lat="44.4207466" lon="10.3709339"><ele>734.0</ele><time>2026-04-19T13:57:18.983Z</time></trkpt><trkpt lat="44.4206481" lon="10.3709576"><ele>734.0</ele><time>2026-04-19T13:57:19.985Z</time></trkpt><trkpt lat="44.4205448" lon="10.3709799"><ele>734.0</ele><time>2026-04-19T13:57:20.984Z</time></trkpt><trkpt lat="44.4204437" lon="10.3710028"><ele>734.0</ele><time>2026-04-19T13:57:21.985Z</time></trkpt><trkpt lat="44.4203402" lon="10.3710245"><ele>734.0</ele><time>2026-04-19T13:57:22.985Z</time></trkpt><trkpt lat="44.4202321" lon="10.3710488"><ele>734.0</ele><time>2026-04-19T13:57:23.984Z</time></trkpt><trkpt lat="44.4201258" lon="10.3710728"><ele>733.0</ele><time>2026-04-19T13:57:24.985Z</time></trkpt><trkpt lat="44.4200166" lon="10.3710963"><ele>732.0</ele><time>2026-04-19T13:57:25.985Z</time></trkpt><trkpt lat="44.4199069" lon="10.3711201"><ele>731.0</ele><time>2026-04-19T13:57:26.984Z</time></trkpt><trkpt lat="44.4198007" lon="10.3711422"><ele>730.0</ele><time>2026-04-19T13:57:27.985Z</time></trkpt><trkpt lat="44.4196959" lon="10.3711637"><ele>729.0</ele><time>2026-04-19T13:57:28.985Z</time></trkpt><trkpt lat="44.4195928" lon="10.3711839"><ele>728.5</ele><time>2026-04-19T13:57:29.984Z</time></trkpt><trkpt lat="44.4194974" lon="10.3712023"><ele>728.0</ele><time>2026-04-19T13:57:30.985Z</time></trkpt><trkpt lat="44.419411" lon="10.3712212"><ele>727.5</ele><time>2026-04-19T13:57:31.984Z</time></trkpt><trkpt lat="44.4193345" lon="10.3712418"><ele>727.0</ele><time>2026-04-19T13:57:32.984Z</time></trkpt><trkpt lat="44.4192655" lon="10.3712687"><ele>726.5</ele><time>2026-04-19T13:57:33.985Z</time></trkpt><trkpt lat="44.4192065" lon="10.3713153"><ele>726.0</ele><time>2026-04-19T13:57:34.985Z</time></trkpt><trkpt lat="44.4191651" lon="10.3713923"><ele>724.3333333333334</ele><time>2026-04-19T13:57:35.985Z</time></trkpt><trkpt lat="44.4191495" lon="10.3714872"><ele>722.6666666666666</ele><time>2026-04-19T13:57:36.983Z</time></trkpt><trkpt lat="44.419146" lon="10.371601"><ele>721.0</ele><time>2026-04-19T13:57:37.984Z</time></trkpt><trkpt lat="44.4191388" lon="10.3717369"><ele>719.3333333333333</ele><time>2026-04-19T13:57:38.984Z</time></trkpt><trkpt lat="44.4191231" lon="10.3718655"><ele>717.6666666666666</ele><time>2026-04-19T13:57:39.985Z</time></trkpt><trkpt lat="44.4190988" lon="10.3719908"><ele>716.0</ele><time>2026-04-19T13:57:40.983Z</time></trkpt><trkpt lat="44.4190658" lon="10.3721193"><ele>714.5999999999999</ele><time>2026-04-19T13:57:41.985Z</time></trkpt><trkpt lat="44.4190268" lon="10.3722566"><ele>713.2</ele><time>2026-04-19T13:57:42.984Z</time></trkpt><trkpt lat="44.4189853" lon="10.3723919"><ele>711.8</ele><time>2026-04-19T13:57:43.985Z</time></trkpt><trkpt lat="44.4189446" lon="10.372519"><ele>710.4000000000001</ele><time>2026-04-19T13:57:44.985Z</time></trkpt><trkpt lat="44.4189063" lon="10.3726411"><ele>709.0</ele><time>2026-04-19T13:57:45.984Z</time></trkpt><trkpt lat="44.4188772" lon="10.3727614"><ele>709.0</ele><time>2026-04-19T13:57:46.984Z</time></trkpt><trkpt lat="44.4188682" lon="10.3728727"><ele>709.0</ele><time>2026-04-19T13:57:47.984Z</time></trkpt><trkpt lat="44.4188857" lon="10.3729829"><ele>709.0</ele><time>2026-04-19T13:57:48.985Z</time></trkpt><trkpt lat="44.4189264" lon="10.3730922"><ele>709.0</ele><time>2026-04-19T13:57:49.984Z</time></trkpt><trkpt lat="44.4189912" lon="10.3732066"><ele>709.0</ele><time>2026-04-19T13:57:50.983Z</time></trkpt><trkpt lat="44.4190826" lon="10.3733248"><ele>707.75</ele><time>2026-04-19T13:57:51.983Z</time></trkpt><trkpt lat="44.4191672" lon="10.373438"><ele>706.5</ele><time>2026-04-19T13:57:52.984Z</time></trkpt><trkpt lat="44.4192517" lon="10.3735591"><ele>705.25</ele><time>2026-04-19T13:57:53.985Z</time></trkpt><trkpt lat="44.4193348" lon="10.3736854"><ele>704.0</ele><time>2026-04-19T13:57:54.984Z</time></trkpt><trkpt lat="44.4194106" lon="10.3738211"><ele>702.5</ele><time>2026-04-19T13:57:55.984Z</time></trkpt><trkpt lat="44.4194829" lon="10.3739691"><ele>701.0</ele><time>2026-04-19T13:57:56.985Z</time></trkpt><trkpt lat="44.4195481" lon="10.3741132"><ele>699.5</ele><time>2026-04-19T13:57:57.983Z</time></trkpt><trkpt lat="44.4196125" lon="10.3742501"><ele>698.0</ele><time>2026-04-19T13:57:58.985Z</time></trkpt><trkpt lat="44.4196784" lon="10.37438"><ele>697.2</ele><time>2026-04-19T13:57:59.984Z</time></trkpt><trkpt lat="44.4197436" lon="10.3745025"><ele>696.4</ele><time>2026-04-19T13:58:00.985Z</time></trkpt><trkpt lat="44.4198083" lon="10.3746184"><ele>695.6</ele><time>2026-04-19T13:58:01.985Z</time></trkpt><trkpt lat="44.4198667" lon="10.3747483"><ele>694.8000000000001</ele><time>2026-04-19T13:58:02.985Z</time></trkpt><trkpt lat="44.4199152" lon="10.3748981"><ele>694.0</ele><time>2026-04-19T13:58:03.984Z</time></trkpt><trkpt lat="44.4199632" lon="10.3750588"><ele>694.0</ele><time>2026-04-19T13:58:04.984Z</time></trkpt><trkpt lat="44.4200158" lon="10.3752451"><ele>694.0</ele><time>2026-04-19T13:58:05.984Z</time></trkpt><trkpt lat="44.4200725" lon="10.375439"><ele>694.0</ele><time>2026-04-19T13:58:06.985Z</time></trkpt><trkpt lat="44.4201236" lon="10.3756139"><ele>694.0</ele><time>2026-04-19T13:58:07.984Z</time></trkpt><trkpt lat="44.4201737" lon="10.3757775"><ele>694.0</ele><time>2026-04-19T13:58:08.984Z</time></trkpt><trkpt lat="44.4202251" lon="10.3759303"><ele>694.0</ele><time>2026-04-19T13:58:09.984Z</time></trkpt><trkpt lat="44.4202758" lon="10.3760803"><ele>694.0</ele><time>2026-04-19T13:58:10.984Z</time></trkpt><trkpt lat="44.4203253" lon="10.3762329"><ele>694.0</ele><time>2026-04-19T13:58:11.984Z</time></trkpt><trkpt lat="44.4203781" lon="10.3763863"><ele>693.5</ele><time>2026-04-19T13:58:12.985Z</time></trkpt><trkpt lat="44.4204322" lon="10.3765403"><ele>693.0</ele><time>2026-04-19T13:58:13.985Z</time></trkpt><trkpt lat="44.4204845" lon="10.3766961"><ele>692.5</ele><time>2026-04-19T13:58:14.985Z</time></trkpt><trkpt lat="44.4205373" lon="10.3768534"><ele>692.0</ele><time>2026-04-19T13:58:15.985Z</time></trkpt><trkpt lat="44.4205958" lon="10.3770105"><ele>691.75</ele><time>2026-04-19T13:58:16.983Z</time></trkpt><trkpt lat="44.4206664" lon="10.3771569"><ele>691.5</ele><time>2026-04-19T13:58:17.985Z</time></trkpt><trkpt lat="44.4207518" lon="10.3772981"><ele>691.25</ele><time>2026-04-19T13:58:18.984Z</time></trkpt><trkpt lat="44.4208534" lon="10.3774369"><ele>691.0</ele><time>2026-04-19T13:58:19.985Z</time></trkpt><trkpt lat="44.420974" lon="10.3775831"><ele>691.3333333333334</ele><time>2026-04-19T13:58:20.985Z</time></trkpt><trkpt lat="44.4211154" lon="10.377762"><ele>691.6666666666666</ele><time>2026-04-19T13:58:21.985Z</time></trkpt><trkpt lat="44.4212522" lon="10.3779496"><ele>692.0</ele><time>2026-04-19T13:58:22.985Z</time></trkpt><trkpt lat="44.4213862" lon="10.3781374"><ele>692.0</ele><time>2026-04-19T13:58:23.984Z</time></trkpt><trkpt lat="44.4215075" lon="10.3783005"><ele>692.0</ele><time>2026-04-19T13:58:24.984Z</time></trkpt><trkpt lat="44.4216254" lon="10.3784424"><ele>692.0</ele><time>2026-04-19T13:58:25.984Z</time></trkpt><trkpt lat="44.4217472" lon="10.3785655"><ele>692.0</ele><time>2026-04-19T13:58:26.984Z</time></trkpt><trkpt lat="44.4218689" lon="10.3786709"><ele>692.0</ele><time>2026-04-19T13:58:27.985Z</time></trkpt><trkpt lat="44.4219896" lon="10.3787645"><ele>692.0</ele><time>2026-04-19T13:58:28.984Z</time></trkpt><trkpt lat="44.422103" lon="10.3788587"><ele>692.0</ele><time>2026-04-19T13:58:29.984Z</time></trkpt><trkpt lat="44.4222107" lon="10.3789582"><ele>691.25</ele><time>2026-04-19T13:58:30.985Z</time></trkpt><trkpt lat="44.4223248" lon="10.3790599"><ele>690.5</ele><time>2026-04-19T13:58:31.984Z</time></trkpt><trkpt lat="44.4224425" lon="10.3791644"><ele>689.75</ele><time>2026-04-19T13:58:32.985Z</time></trkpt><trkpt lat="44.4225617" lon="10.379275"><ele>689.0</ele><time>2026-04-19T13:58:33.985Z</time></trkpt><trkpt lat="44.4226749" lon="10.3793804"><ele>689.0</ele><time>2026-04-19T13:58:34.984Z</time></trkpt><trkpt lat="44.4227886" lon="10.3794838"><ele>689.0</ele><time>2026-04-19T13:58:35.983Z</time></trkpt><trkpt lat="44.4229012" lon="10.3795862"><ele>689.0</ele><time>2026-04-19T13:58:36.983Z</time></trkpt><trkpt lat="44.423009" lon="10.3796839"><ele>689.0</ele><time>2026-04-19T13:58:37.985Z</time></trkpt><trkpt lat="44.4231173" lon="10.3797838"><ele>688.0</ele><time>2026-04-19T13:58:38.984Z</time></trkpt><trkpt lat="44.4232268" lon="10.3798849"><ele>687.0</ele><time>2026-04-19T13:58:39.984Z</time></trkpt><trkpt lat="44.4233393" lon="10.3799871"><ele>686.0</ele><time>2026-04-19T13:58:40.985Z</time></trkpt><trkpt lat="44.4234553" lon="10.3800883"><ele>685.0</ele><time>2026-04-19T13:58:41.983Z</time></trkpt><trkpt lat="44.4235713" lon="10.3801877"><ele>685.0</ele><time>2026-04-19T13:58:42.985Z</time></trkpt><trkpt lat="44.4236952" lon="10.3802868"><ele>685.0</ele><time>2026-04-19T13:58:43.985Z</time></trkpt><trkpt lat="44.4238233" lon="10.3803821"><ele>685.0</ele><time>2026-04-19T13:58:44.985Z</time></trkpt><trkpt lat="44.4239468" lon="10.3804742"><ele>685.0</ele><time>2026-04-19T13:58:45.985Z</time></trkpt><trkpt lat="44.4240743" lon="10.3805575"><ele>683.3333333333334</ele><time>2026-04-19T13:58:46.984Z</time></trkpt><trkpt lat="44.4242111" lon="10.3806388"><ele>681.6666666666666</ele><time>2026-04-19T13:58:47.985Z</time></trkpt><trkpt lat="44.4243568" lon="10.3807199"><ele>680.0</ele><time>2026-04-19T13:58:48.983Z</time></trkpt><trkpt lat="44.4245085" lon="10.3807976"><ele>677.6666666666666</ele><time>2026-04-19T13:58:49.985Z</time></trkpt><trkpt lat="44.4246628" lon="10.3808735"><ele>675.3333333333334</ele><time>2026-04-19T13:58:50.984Z</time></trkpt><trkpt lat="44.4248258" lon="10.3809511"><ele>673.0</ele><time>2026-04-19T13:58:51.985Z</time></trkpt><trkpt lat="44.4250032" lon="10.3810431"><ele>673.0</ele><time>2026-04-19T13:58:52.984Z</time></trkpt><trkpt lat="44.4251878" lon="10.3811531"><ele>673.0</ele><time>2026-04-19T13:58:53.985Z</time></trkpt><trkpt lat="44.4253755" lon="10.3812692"><ele>673.0</ele><time>2026-04-19T13:58:54.984Z</time></trkpt><trkpt lat="44.4255536" lon="10.3813587"><ele>675.3333333333334</ele><time>2026-04-19T13:58:55.985Z</time></trkpt><trkpt lat="44.4257263" lon="10.3814303"><ele>677.6666666666666</ele><time>2026-04-19T13:58:56.985Z</time></trkpt><trkpt lat="44.4258937" lon="10.3815074"><ele>680.0</ele><time>2026-04-19T13:58:57.984Z</time></trkpt><trkpt lat="44.4260539" lon="10.3816065"><ele>680.0</ele><time>2026-04-19T13:58:58.984Z</time></trkpt><trkpt lat="44.4261928" lon="10.381723"><ele>680.0</ele><time>2026-04-19T13:58:59.985Z</time></trkpt><trkpt lat="44.4263208" lon="10.381852"><ele>680.0</ele><time>2026-04-19T13:59:00.983Z</time></trkpt><trkpt lat="44.4264365" lon="10.3819752"><ele>680.0</ele><time>2026-04-19T13:59:01.984Z</time></trkpt><trkpt lat="44.4265457" lon="10.3820943"><ele>680.0</ele><time>2026-04-19T13:59:02.985Z</time></trkpt><trkpt lat="44.4266434" lon="10.3822044"><ele>680.0</ele><time>2026-04-19T13:59:03.985Z</time></trkpt><trkpt lat="44.4267244" lon="10.3823049"><ele>680.0</ele><time>2026-04-19T13:59:04.983Z</time></trkpt><trkpt lat="44.4267967" lon="10.3824114"><ele>680.0</ele><time>2026-04-19T13:59:05.984Z</time></trkpt><trkpt lat="44.4268569" lon="10.3825269"><ele>680.0</ele><time>2026-04-19T13:59:06.985Z</time></trkpt><trkpt lat="44.4269076" lon="10.3826492"><ele>680.0</ele><time>2026-04-19T13:59:07.984Z</time></trkpt><trkpt lat="44.4269569" lon="10.3827997"><ele>680.0</ele><time>2026-04-19T13:59:08.983Z</time></trkpt><trkpt lat="44.4269991" lon="10.3829609"><ele>680.0</ele><time>2026-04-19T13:59:09.984Z</time></trkpt><trkpt lat="44.4270388" lon="10.3831288"><ele>679.25</ele><time>2026-04-19T13:59:10.985Z</time></trkpt><trkpt lat="44.4270767" lon="10.3832917"><ele>678.5</ele><time>2026-04-19T13:59:11.984Z</time></trkpt><trkpt lat="44.4271155" lon="10.383453"><ele>677.75</ele><time>2026-04-19T13:59:12.984Z</time></trkpt><trkpt lat="44.4271576" lon="10.383614"><ele>677.0</ele><time>2026-04-19T13:59:13.985Z</time></trkpt><trkpt lat="44.4271989" lon="10.3837733"><ele>676.75</ele><time>2026-04-19T13:59:14.985Z</time></trkpt><trkpt lat="44.4272415" lon="10.3839399"><ele>676.5</ele><time>2026-04-19T13:59:15.984Z</time></trkpt><trkpt lat="44.4272868" lon="10.3841011"><ele>676.25</ele><time>2026-04-19T13:59:16.983Z</time></trkpt><trkpt lat="44.4273402" lon="10.3842584"><ele>676.0</ele><time>2026-04-19T13:59:17.985Z</time></trkpt><trkpt lat="44.4274036" lon="10.3844186"><ele>676.0</ele><time>2026-04-19T13:59:18.985Z</time></trkpt><trkpt lat="44.4274794" lon="10.3845758"><ele>676.0</ele><time>2026-04-19T13:59:19.984Z</time></trkpt><trkpt lat="44.4275726" lon="10.3847316"><ele>676.0</ele><time>2026-04-19T13:59:20.985Z</time></trkpt><trkpt lat="44.4276909" lon="10.384888"><ele>676.0</ele><time>2026-04-19T13:59:21.983Z</time></trkpt><trkpt lat="44.4278293" lon="10.3850597"><ele>675.0</ele><time>2026-04-19T13:59:22.984Z</time></trkpt><trkpt lat="44.4279752" lon="10.3852454"><ele>674.0</ele><time>2026-04-19T13:59:23.984Z</time></trkpt><trkpt lat="44.4281339" lon="10.3854543"><ele>673.0</ele><time>2026-04-19T13:59:24.983Z</time></trkpt><trkpt lat="44.4282897" lon="10.3856668"><ele>673.0</ele><time>2026-04-19T13:59:25.985Z</time></trkpt><trkpt lat="44.428453" lon="10.3858916"><ele>673.0</ele><time>2026-04-19T13:59:26.985Z</time></trkpt><trkpt lat="44.428614" lon="10.3861181"><ele>673.0</ele><time>2026-04-19T13:59:27.985Z</time></trkpt><trkpt lat="44.4287687" lon="10.3863372"><ele>673.0</ele><time>2026-04-19T13:59:28.985Z</time></trkpt><trkpt lat="44.4289191" lon="10.3865435"><ele>673.0</ele><time>2026-04-19T13:59:29.985Z</time></trkpt><trkpt lat="44.4290617" lon="10.3867325"><ele>673.3333333333334</ele><time>2026-04-19T13:59:30.985Z</time></trkpt><trkpt lat="44.429195" lon="10.3869127"><ele>673.6666666666666</ele><time>2026-04-19T13:59:31.985Z</time></trkpt><trkpt lat="44.4293152" lon="10.3870866"><ele>674.0</ele><time>2026-04-19T13:59:32.985Z</time></trkpt><trkpt lat="44.4294246" lon="10.3872588"><ele>674.0</ele><time>2026-04-19T13:59:33.984Z</time></trkpt><trkpt lat="44.4295129" lon="10.387431"><ele>674.0</ele><time>2026-04-19T13:59:34.985Z</time></trkpt><trkpt lat="44.4295851" lon="10.3876235"><ele>674.0</ele><time>2026-04-19T13:59:35.984Z</time></trkpt><trkpt lat="44.4296326" lon="10.3878249"><ele>674.6666666666666</ele><time>2026-04-19T13:59:36.984Z</time></trkpt><trkpt lat="44.4296548" lon="10.3880347"><ele>675.3333333333334</ele><time>2026-04-19T13:59:37.985Z</time></trkpt><trkpt lat="44.4296441" lon="10.3882508"><ele>676.0</ele><time>2026-04-19T13:59:38.984Z</time></trkpt><trkpt lat="44.4295957" lon="10.3884765"><ele>676.0</ele><time>2026-04-19T13:59:39.985Z</time></trkpt><trkpt lat="44.4295115" lon="10.3887157"><ele>676.0</ele><time>2026-04-19T13:59:40.985Z</time></trkpt><trkpt lat="44.4294011" lon="10.3889385"><ele>676.0</ele><time>2026-04-19T13:59:41.985Z</time></trkpt><trkpt lat="44.4292885" lon="10.3891289"><ele>677.6666666666667</ele><time>2026-04-19T13:59:42.985Z</time></trkpt><trkpt lat="44.4291846" lon="10.389306"><ele>679.3333333333334</ele><time>2026-04-19T13:59:43.984Z</time></trkpt><trkpt lat="44.4290982" lon="10.3894789"><ele>681.0</ele><time>2026-04-19T13:59:44.984Z</time></trkpt><trkpt lat="44.4290319" lon="10.3896478"><ele>683.5</ele><time>2026-04-19T13:59:45.984Z</time></trkpt><trkpt lat="44.4289823" lon="10.3898114"><ele>686.0</ele><time>2026-04-19T13:59:46.985Z</time></trkpt><trkpt lat="44.4289465" lon="10.3899709"><ele>688.5</ele><time>2026-04-19T13:59:47.984Z</time></trkpt><trkpt lat="44.4289286" lon="10.3901395"><ele>691.0</ele><time>2026-04-19T13:59:48.985Z</time></trkpt><trkpt lat="44.4289284" lon="10.3903135"><ele>691.0</ele><time>2026-04-19T13:59:49.985Z</time></trkpt><trkpt lat="44.4289472" lon="10.3904928"><ele>691.0</ele><time>2026-04-19T13:59:50.985Z</time></trkpt><trkpt lat="44.4289821" lon="10.3906743"><ele>691.0</ele><time>2026-04-19T13:59:51.984Z</time></trkpt><trkpt lat="44.4290315" lon="10.390861"><ele>691.0</ele><time>2026-04-19T13:59:52.984Z</time></trkpt><trkpt lat="44.4290838" lon="10.3910357"><ele>690.75</ele><time>2026-04-19T13:59:53.984Z</time></trkpt><trkpt lat="44.4291339" lon="10.391199"><ele>690.5</ele><time>2026-04-19T13:59:54.984Z</time></trkpt><trkpt lat="44.4291855" lon="10.3913653"><ele>690.25</ele><time>2026-04-19T13:59:55.983Z</time></trkpt><trkpt lat="44.4292367" lon="10.3915275"><ele>690.0</ele><time>2026-04-19T13:59:56.984Z</time></trkpt><trkpt lat="44.4292877" lon="10.3916899"><ele>690.0</ele><time>2026-04-19T13:59:57.985Z</time></trkpt><trkpt lat="44.4293391" lon="10.3918556"><ele>690.0</ele><time>2026-04-19T13:59:58.984Z</time></trkpt><trkpt lat="44.429391" lon="10.3920223"><ele>690.0</ele><time>2026-04-19T13:59:59.984Z</time></trkpt><trkpt lat="44.4294425" lon="10.3921917"><ele>690.0</ele><time>2026-04-19T14:00:00.984Z</time></trkpt><trkpt lat="44.4294937" lon="10.3923617"><ele>689.75</ele><time>2026-04-19T14:00:01.984Z</time></trkpt><trkpt lat="44.4295464" lon="10.3925305"><ele>689.5</ele><time>2026-04-19T14:00:02.984Z</time></trkpt><trkpt lat="44.4295994" lon="10.3926995"><ele>689.25</ele><time>2026-04-19T14:00:03.985Z</time></trkpt><trkpt lat="44.4296525" lon="10.3928688"><ele>689.0</ele><time>2026-04-19T14:00:04.985Z</time></trkpt><trkpt lat="44.4297062" lon="10.3930479"><ele>692.25</ele><time>2026-04-19T14:00:05.983Z</time></trkpt><trkpt lat="44.4297596" lon="10.3932205"><ele>695.5</ele><time>2026-04-19T14:00:06.984Z</time></trkpt><trkpt lat="44.4298141" lon="10.3933787"><ele>698.75</ele><time>2026-04-19T14:00:07.984Z</time></trkpt><trkpt lat="44.4298725" lon="10.3935271"><ele>702.0</ele><time>2026-04-19T14:00:08.984Z</time></trkpt><trkpt lat="44.4299435" lon="10.3936725"><ele>702.0</ele><time>2026-04-19T14:00:09.984Z</time></trkpt><trkpt lat="44.4300276" lon="10.3938119"><ele>702.0</ele><time>2026-04-19T14:00:10.983Z</time></trkpt><trkpt lat="44.4301202" lon="10.393945"><ele>702.0</ele><time>2026-04-19T14:00:11.985Z</time></trkpt><trkpt lat="44.4302119" lon="10.39406"><ele>702.0</ele><time>2026-04-19T14:00:12.985Z</time></trkpt><trkpt lat="44.4303046" lon="10.3941685"><ele>702.25</ele><time>2026-04-19T14:00:13.984Z</time></trkpt><trkpt lat="44.4303947" lon="10.394277"><ele>702.5</ele><time>2026-04-19T14:00:14.984Z</time></trkpt><trkpt lat="44.4304846" lon="10.3943825"><ele>702.75</ele><time>2026-04-19T14:00:15.984Z</time></trkpt><trkpt lat="44.4305766" lon="10.3944889"><ele>703.0</ele><time>2026-04-19T14:00:16.985Z</time></trkpt><trkpt lat="44.4306689" lon="10.3946022"><ele>701.2</ele><time>2026-04-19T14:00:17.984Z</time></trkpt><trkpt lat="44.4307565" lon="10.3947083"><ele>699.4</ele><time>2026-04-19T14:00:18.984Z</time></trkpt><trkpt lat="44.4308408" lon="10.3948075"><ele>697.6</ele><time>2026-04-19T14:00:19.985Z</time></trkpt><trkpt lat="44.4309219" lon="10.3949033"><ele>695.8000000000001</ele><time>2026-04-19T14:00:20.983Z</time></trkpt><trkpt lat="44.4309957" lon="10.3949914"><ele>694.0</ele><time>2026-04-19T14:00:21.983Z</time></trkpt><trkpt lat="44.4310616" lon="10.3950721"><ele>694.0</ele><time>2026-04-19T14:00:22.984Z</time></trkpt><trkpt lat="44.4311163" lon="10.3951392"><ele>694.0</ele><time>2026-04-19T14:00:23.985Z</time></trkpt><trkpt lat="44.4311654" lon="10.3952086"><ele>694.0</ele><time>2026-04-19T14:00:24.984Z</time></trkpt><trkpt lat="44.4312109" lon="10.3952786"><ele>694.0</ele><time>2026-04-19T14:00:25.985Z</time></trkpt><trkpt lat="44.4312857" lon="10.3954134"><ele>694.0</ele><time>2026-04-19T14:00:27.985Z</time></trkpt><trkpt lat="44.4313358" lon="10.3955542"><ele>694.0</ele><time>2026-04-19T14:00:29.985Z</time></trkpt><trkpt lat="44.431357" lon="10.3956678"><ele>693.0</ele><time>2026-04-19T14:00:31.982Z</time></trkpt><trkpt lat="44.4313568" lon="10.3957593"><ele>692.0</ele><time>2026-04-19T14:00:33.984Z</time></trkpt><trkpt lat="44.4313338" lon="10.3958692"><ele>691.0</ele><time>2026-04-19T14:00:35.982Z</time></trkpt><trkpt lat="44.4313068" lon="10.3960062"><ele>690.0</ele><time>2026-04-19T14:00:37.984Z</time></trkpt><trkpt lat="44.4313352" lon="10.3961522"><ele>689.0</ele><time>2026-04-19T14:00:39.984Z</time></trkpt><trkpt lat="44.4313513" lon="10.3962404"><ele>688.0</ele><time>2026-04-19T14:00:40.983Z</time></trkpt><trkpt lat="44.4313509" lon="10.3963441"><ele>687.4</ele><time>2026-04-19T14:00:41.984Z</time></trkpt><trkpt lat="44.4313383" lon="10.3964609"><ele>686.8</ele><time>2026-04-19T14:00:42.983Z</time></trkpt><trkpt lat="44.431315" lon="10.3965919"><ele>686.2</ele><time>2026-04-19T14:00:43.983Z</time></trkpt><trkpt lat="44.4312841" lon="10.3967332"><ele>685.6</ele><time>2026-04-19T14:00:44.983Z</time></trkpt><trkpt lat="44.4312549" lon="10.39687"><ele>685.0</ele><time>2026-04-19T14:00:45.982Z</time></trkpt><trkpt lat="44.4312214" lon="10.3970148"><ele>685.0</ele><time>2026-04-19T14:00:46.984Z</time></trkpt><trkpt lat="44.4311874" lon="10.3971605"><ele>685.0</ele><time>2026-04-19T14:00:47.984Z</time></trkpt><trkpt lat="44.4311538" lon="10.3973087"><ele>685.0</ele><time>2026-04-19T14:00:48.983Z</time></trkpt><trkpt lat="44.431119" lon="10.3974646"><ele>685.0</ele><time>2026-04-19T14:00:49.983Z</time></trkpt><trkpt lat="44.4310834" lon="10.397624"><ele>686.25</ele><time>2026-04-19T14:00:50.983Z</time></trkpt><trkpt lat="44.4310481" lon="10.3977888"><ele>687.5</ele><time>2026-04-19T14:00:51.984Z</time></trkpt><trkpt lat="44.4310165" lon="10.3979481"><ele>688.75</ele><time>2026-04-19T14:00:52.984Z</time></trkpt><trkpt lat="44.4309946" lon="10.3981061"><ele>690.0</ele><time>2026-04-19T14:00:53.983Z</time></trkpt><trkpt lat="44.4309896" lon="10.398262"><ele>690.5</ele><time>2026-04-19T14:00:54.983Z</time></trkpt><trkpt lat="44.4309983" lon="10.3984155"><ele>691.0</ele><time>2026-04-19T14:00:55.983Z</time></trkpt><trkpt lat="44.431019" lon="10.3985741"><ele>691.5</ele><time>2026-04-19T14:00:56.984Z</time></trkpt><trkpt lat="44.4310552" lon="10.398729"><ele>692.0</ele><time>2026-04-19T14:00:57.984Z</time></trkpt><trkpt lat="44.431105" lon="10.3988785"><ele>692.0</ele><time>2026-04-19T14:00:58.984Z</time></trkpt><trkpt lat="44.4311636" lon="10.3990256"><ele>692.0</ele><time>2026-04-19T14:00:59.983Z</time></trkpt><trkpt lat="44.4312283" lon="10.3991702"><ele>692.0</ele><time>2026-04-19T14:01:00.982Z</time></trkpt><trkpt lat="44.4312935" lon="10.3993168"><ele>692.0</ele><time>2026-04-19T14:01:01.983Z</time></trkpt><trkpt lat="44.4313599" lon="10.3994681"><ele>692.5</ele><time>2026-04-19T14:01:02.984Z</time></trkpt><trkpt lat="44.4314299" lon="10.3996233"><ele>693.0</ele><time>2026-04-19T14:01:03.984Z</time></trkpt><trkpt lat="44.4315001" lon="10.3997784"><ele>693.5</ele><time>2026-04-19T14:01:04.983Z</time></trkpt><trkpt lat="44.4315675" lon="10.3999269"><ele>694.0</ele><time>2026-04-19T14:01:05.984Z</time></trkpt><trkpt lat="44.4316355" lon="10.4000795"><ele>694.0</ele><time>2026-04-19T14:01:06.984Z</time></trkpt><trkpt lat="44.4317013" lon="10.4002281"><ele>694.0</ele><time>2026-04-19T14:01:07.983Z</time></trkpt><trkpt lat="44.431766" lon="10.4003744"><ele>694.0</ele><time>2026-04-19T14:01:08.983Z</time></trkpt><trkpt lat="44.4318332" lon="10.4005266"><ele>694.0</ele><time>2026-04-19T14:01:09.983Z</time></trkpt><trkpt lat="44.4319009" lon="10.4006821"><ele>693.25</ele><time>2026-04-19T14:01:10.983Z</time></trkpt><trkpt lat="44.4319703" lon="10.400841"><ele>692.5</ele><time>2026-04-19T14:01:11.984Z</time></trkpt><trkpt lat="44.4320406" lon="10.4010014"><ele>691.75</ele><time>2026-04-19T14:01:12.982Z</time></trkpt><trkpt lat="44.432109" lon="10.4011563"><ele>691.0</ele><time>2026-04-19T14:01:13.984Z</time></trkpt><trkpt lat="44.4321695" lon="10.401289"><ele>691.5</ele><time>2026-04-19T14:01:14.983Z</time></trkpt><trkpt lat="44.432216" lon="10.4013973"><ele>692.0</ele><time>2026-04-19T14:01:15.983Z</time></trkpt><trkpt lat="44.4322524" lon="10.4014851"><ele>692.5</ele><time>2026-04-19T14:01:16.983Z</time></trkpt><trkpt lat="44.4322994" lon="10.4015885"><ele>693.0</ele><time>2026-04-19T14:01:18.983Z</time></trkpt><trkpt lat="44.4323388" lon="10.4016768"><ele>693.5</ele><time>2026-04-19T14:01:39.984Z</time></trkpt><trkpt lat="44.4323998" lon="10.4018219"><ele>694.0</ele><time>2026-04-19T14:01:41.983Z</time></trkpt><trkpt lat="44.4324496" lon="10.4019342"><ele>694.0</ele><time>2026-04-19T14:01:42.984Z</time></trkpt><trkpt lat="44.4325045" lon="10.4020574"><ele>694.0</ele><time>2026-04-19T14:01:43.983Z</time></trkpt><trkpt lat="44.4325703" lon="10.402201"><ele>694.0</ele><time>2026-04-19T14:01:44.983Z</time></trkpt><trkpt lat="44.4326395" lon="10.4023523"><ele>694.0</ele><time>2026-04-19T14:01:45.984Z</time></trkpt><trkpt lat="44.432714" lon="10.4025192"><ele>693.3333333333334</ele><time>2026-04-19T14:01:46.984Z</time></trkpt><trkpt lat="44.4327943" lon="10.4027015"><ele>692.6666666666666</ele><time>2026-04-19T14:01:47.983Z</time></trkpt><trkpt lat="44.432881" lon="10.4028985"><ele>692.0</ele><time>2026-04-19T14:01:48.983Z</time></trkpt><trkpt lat="44.4329685" lon="10.4031004"><ele>694.6666666666666</ele><time>2026-04-19T14:01:49.983Z</time></trkpt><trkpt lat="44.4330602" lon="10.4033097"><ele>697.3333333333334</ele><time>2026-04-19T14:01:50.984Z</time></trkpt><trkpt lat="44.4331555" lon="10.4035254"><ele>700.0</ele><time>2026-04-19T14:01:51.983Z</time></trkpt><trkpt lat="44.4332539" lon="10.4037456"><ele>697.6666666666667</ele><time>2026-04-19T14:01:52.983Z</time></trkpt><trkpt lat="44.4333532" lon="10.4039714"><ele>695.3333333333334</ele><time>2026-04-19T14:01:53.984Z</time></trkpt><trkpt lat="44.4334526" lon="10.404204"><ele>693.0</ele><time>2026-04-19T14:01:54.983Z</time></trkpt><trkpt lat="44.4335504" lon="10.4044263"><ele>693.0</ele><time>2026-04-19T14:01:55.983Z</time></trkpt><trkpt lat="44.4336433" lon="10.4046326"><ele>693.0</ele><time>2026-04-19T14:01:56.983Z</time></trkpt><trkpt lat="44.4337304" lon="10.404827"><ele>693.0</ele><time>2026-04-19T14:01:57.984Z</time></trkpt><trkpt lat="44.4338134" lon="10.4050086"><ele>693.75</ele><time>2026-04-19T14:01:58.982Z</time></trkpt><trkpt lat="44.4338883" lon="10.405189"><ele>694.5</ele><time>2026-04-19T14:01:59.984Z</time></trkpt><trkpt lat="44.4339527" lon="10.4053743"><ele>695.25</ele><time>2026-04-19T14:02:00.983Z</time></trkpt><trkpt lat="44.434002" lon="10.4055651"><ele>696.0</ele><time>2026-04-19T14:02:01.983Z</time></trkpt><trkpt lat="44.4340346" lon="10.4057612"><ele>696.0</ele><time>2026-04-19T14:02:02.984Z</time></trkpt><trkpt lat="44.4340481" lon="10.4059624"><ele>696.0</ele><time>2026-04-19T14:02:03.983Z</time></trkpt><trkpt lat="44.434043" lon="10.4061659"><ele>696.0</ele><time>2026-04-19T14:02:04.984Z</time></trkpt><trkpt lat="44.4340218" lon="10.4063697"><ele>696.0</ele><time>2026-04-19T14:02:05.983Z</time></trkpt><trkpt lat="44.4339901" lon="10.4065645"><ele>696.75</ele><time>2026-04-19T14:02:06.983Z</time></trkpt><trkpt lat="44.4339543" lon="10.4067516"><ele>697.5</ele><time>2026-04-19T14:02:07.983Z</time></trkpt><trkpt lat="44.4339188" lon="10.4069251"><ele>698.25</ele><time>2026-04-19T14:02:08.982Z</time></trkpt><trkpt lat="44.4338833" lon="10.4070917"><ele>699.0</ele><time>2026-04-19T14:02:09.983Z</time></trkpt><trkpt lat="44.4338506" lon="10.4072441"><ele>699.3333333333334</ele><time>2026-04-19T14:02:10.983Z</time></trkpt><trkpt lat="44.433817" lon="10.4073835"><ele>699.6666666666666</ele><time>2026-04-19T14:02:11.983Z</time></trkpt><trkpt lat="44.4337857" lon="10.4075038"><ele>700.0</ele><time>2026-04-19T14:02:12.984Z</time></trkpt><trkpt lat="44.433759" lon="10.4075948"><ele>700.3333333333333</ele><time>2026-04-19T14:02:13.983Z</time></trkpt><trkpt lat="44.4337304" lon="10.4076747"><ele>700.6666666666666</ele><time>2026-04-19T14:02:14.982Z</time></trkpt><trkpt lat="44.4336923" lon="10.4077592"><ele>701.0</ele><time>2026-04-19T14:02:15.984Z</time></trkpt><trkpt lat="44.4336459" lon="10.4078425"><ele>701.8</ele><time>2026-04-19T14:02:16.983Z</time></trkpt><trkpt lat="44.4335912" lon="10.4079271"><ele>702.5999999999999</ele><time>2026-04-19T14:02:17.984Z</time></trkpt><trkpt lat="44.4335239" lon="10.4080066"><ele>703.4</ele><time>2026-04-19T14:02:18.983Z</time></trkpt><trkpt lat="44.433446" lon="10.4080796"><ele>704.2</ele><time>2026-04-19T14:02:19.984Z</time></trkpt><trkpt lat="44.4333586" lon="10.4081484"><ele>705.0</ele><time>2026-04-19T14:02:20.984Z</time></trkpt><trkpt lat="44.4332681" lon="10.4082153"><ele>705.0</ele><time>2026-04-19T14:02:21.983Z</time></trkpt><trkpt lat="44.4331775" lon="10.4082863"><ele>705.0</ele><time>2026-04-19T14:02:22.984Z</time></trkpt><trkpt lat="44.4330893" lon="10.4083711"><ele>705.0</ele><time>2026-04-19T14:02:23.984Z</time></trkpt><trkpt lat="44.4330091" lon="10.4084749"><ele>705.0</ele><time>2026-04-19T14:02:24.983Z</time></trkpt><trkpt lat="44.4329372" lon="10.4085985"><ele>705.0</ele><time>2026-04-19T14:02:25.983Z</time></trkpt><trkpt lat="44.4328749" lon="10.4087371"><ele>707.6</ele><time>2026-04-19T14:02:26.983Z</time></trkpt><trkpt lat="44.4328203" lon="10.4088841"><ele>710.2</ele><time>2026-04-19T14:02:27.983Z</time></trkpt><trkpt lat="44.4327729" lon="10.4090271"><ele>712.8</ele><time>2026-04-19T14:02:28.983Z</time></trkpt><trkpt lat="44.432733" lon="10.4091547"><ele>715.4</ele><time>2026-04-19T14:02:29.984Z</time></trkpt><trkpt lat="44.4326985" lon="10.4092697"><ele>718.0</ele><time>2026-04-19T14:02:30.983Z</time></trkpt><trkpt lat="44.4326646" lon="10.4093829"><ele>718.0</ele><time>2026-04-19T14:02:31.984Z</time></trkpt><trkpt lat="44.4326342" lon="10.4094925"><ele>718.0</ele><time>2026-04-19T14:02:32.983Z</time></trkpt><trkpt lat="44.4326069" lon="10.4095979"><ele>718.0</ele><time>2026-04-19T14:02:33.984Z</time></trkpt><trkpt lat="44.4325836" lon="10.4096881"><ele>718.0</ele><time>2026-04-19T14:02:34.982Z</time></trkpt><trkpt lat="44.4325472" lon="10.4098574"><ele>718.0</ele><time>2026-04-19T14:02:36.983Z</time></trkpt><trkpt lat="44.4325308" lon="10.4099461"><ele>718.0</ele><time>2026-04-19T14:02:37.983Z</time></trkpt><trkpt lat="44.4325124" lon="10.4100326"><ele>718.25</ele><time>2026-04-19T14:02:38.983Z</time></trkpt><trkpt lat="44.432481" lon="10.4101954"><ele>718.5</ele><time>2026-04-19T14:02:40.982Z</time></trkpt><trkpt lat="44.4324477" lon="10.4103407"><ele>718.75</ele><time>2026-04-19T14:02:42.984Z</time></trkpt><trkpt lat="44.4323874" lon="10.4104716"><ele>719.0</ele><time>2026-04-19T14:02:44.984Z</time></trkpt><trkpt lat="44.4323143" lon="10.4105872"><ele>719.0</ele><time>2026-04-19T14:02:46.984Z</time></trkpt><trkpt lat="44.4322892" lon="10.410688"><ele>719.0</ele><time>2026-04-19T14:02:48.984Z</time></trkpt><trkpt lat="44.4323355" lon="10.4108088"><ele>719.0</ele><time>2026-04-19T14:02:51.984Z</time></trkpt><trkpt lat="44.4324347" lon="10.4108801"><ele>719.0</ele><time>2026-04-19T14:02:53.983Z</time></trkpt><trkpt lat="44.4324967" lon="10.4109311"><ele>719.0</ele><time>2026-04-19T14:02:54.983Z</time></trkpt><trkpt lat="44.4325563" lon="10.4109932"><ele>719.0</ele><time>2026-04-19T14:02:55.983Z</time></trkpt><trkpt lat="44.4326234" lon="10.4110732"><ele>719.0</ele><time>2026-04-19T14:02:56.984Z</time></trkpt><trkpt lat="44.4326961" lon="10.4111738"><ele>719.0</ele><time>2026-04-19T14:02:57.984Z</time></trkpt><trkpt lat="44.4327641" lon="10.4112824"><ele>719.0</ele><time>2026-04-19T14:02:58.983Z</time></trkpt><trkpt lat="44.4328378" lon="10.4114064"><ele>719.0</ele><time>2026-04-19T14:02:59.983Z</time></trkpt><trkpt lat="44.4329106" lon="10.4115306"><ele>719.0</ele><time>2026-04-19T14:03:00.984Z</time></trkpt><trkpt lat="44.4329799" lon="10.4116553"><ele>718.6</ele><time>2026-04-19T14:03:01.983Z</time></trkpt><trkpt lat="44.4330376" lon="10.4117803"><ele>718.2</ele><time>2026-04-19T14:03:02.983Z</time></trkpt><trkpt lat="44.4330862" lon="10.4119069"><ele>717.8000000000001</ele><time>2026-04-19T14:03:03.984Z</time></trkpt><trkpt lat="44.433127" lon="10.4120376"><ele>717.4000000000001</ele><time>2026-04-19T14:03:04.984Z</time></trkpt><trkpt lat="44.4331603" lon="10.4121709"><ele>717.0</ele><time>2026-04-19T14:03:05.983Z</time></trkpt><trkpt lat="44.4331833" lon="10.412312"><ele>714.0</ele><time>2026-04-19T14:03:06.984Z</time></trkpt><trkpt lat="44.4331936" lon="10.4124636"><ele>711.0</ele><time>2026-04-19T14:03:07.984Z</time></trkpt><trkpt lat="44.4331903" lon="10.4126192"><ele>708.0</ele><time>2026-04-19T14:03:08.984Z</time></trkpt><trkpt lat="44.4331767" lon="10.4127865"><ele>705.0</ele><time>2026-04-19T14:03:09.983Z</time></trkpt><trkpt lat="44.4331526" lon="10.4129665"><ele>702.6666666666666</ele><time>2026-04-19T14:03:10.984Z</time></trkpt><trkpt lat="44.4331161" lon="10.4131612"><ele>700.3333333333333</ele><time>2026-04-19T14:03:11.983Z</time></trkpt><trkpt lat="44.4330705" lon="10.4133646"><ele>698.0</ele><time>2026-04-19T14:03:12.983Z</time></trkpt><trkpt lat="44.433018" lon="10.4135808"><ele>702.0</ele><time>2026-04-19T14:03:13.983Z</time></trkpt><trkpt lat="44.4329675" lon="10.4137893"><ele>706.0</ele><time>2026-04-19T14:03:14.983Z</time></trkpt><trkpt lat="44.4329199" lon="10.4139965"><ele>710.0</ele><time>2026-04-19T14:03:15.982Z</time></trkpt><trkpt lat="44.4328858" lon="10.4142058"><ele>710.3333333333333</ele><time>2026-04-19T14:03:16.983Z</time></trkpt><trkpt lat="44.4328634" lon="10.4144227"><ele>710.6666666666666</ele><time>2026-04-19T14:03:17.984Z</time></trkpt><trkpt lat="44.432855" lon="10.4146452"><ele>711.0</ele><time>2026-04-19T14:03:18.984Z</time></trkpt><trkpt lat="44.4328586" lon="10.4148632"><ele>711.0</ele><time>2026-04-19T14:03:19.983Z</time></trkpt><trkpt lat="44.4328734" lon="10.4150743"><ele>711.0</ele><time>2026-04-19T14:03:20.984Z</time></trkpt><trkpt lat="44.432902" lon="10.4152757"><ele>711.0</ele><time>2026-04-19T14:03:21.983Z</time></trkpt><trkpt lat="44.4329442" lon="10.4154657"><ele>711.0</ele><time>2026-04-19T14:03:22.984Z</time></trkpt><trkpt lat="44.4329974" lon="10.4156309"><ele>706.1999999999999</ele><time>2026-04-19T14:03:23.983Z</time></trkpt><trkpt lat="44.4330567" lon="10.415769"><ele>701.4</ele><time>2026-04-19T14:03:24.983Z</time></trkpt><trkpt lat="44.4331133" lon="10.4158866"><ele>696.6</ele><time>2026-04-19T14:03:25.984Z</time></trkpt><trkpt lat="44.4331639" lon="10.4159963"><ele>691.8</ele><time>2026-04-19T14:03:26.984Z</time></trkpt><trkpt lat="44.4332058" lon="10.4161027"><ele>687.0</ele><time>2026-04-19T14:03:27.984Z</time></trkpt><trkpt lat="44.4332421" lon="10.416222"><ele>688.75</ele><time>2026-04-19T14:03:28.983Z</time></trkpt><trkpt lat="44.433276" lon="10.4163617"><ele>690.5</ele><time>2026-04-19T14:03:29.983Z</time></trkpt><trkpt lat="44.4333093" lon="10.416522"><ele>692.25</ele><time>2026-04-19T14:03:30.983Z</time></trkpt><trkpt lat="44.4333383" lon="10.416685"><ele>694.0</ele><time>2026-04-19T14:03:31.982Z</time></trkpt><trkpt lat="44.433371" lon="10.4168522"><ele>694.0</ele><time>2026-04-19T14:03:32.984Z</time></trkpt><trkpt lat="44.4334151" lon="10.4170129"><ele>694.0</ele><time>2026-04-19T14:03:33.983Z</time></trkpt><trkpt lat="44.4334727" lon="10.4171835"><ele>694.0</ele><time>2026-04-19T14:03:34.982Z</time></trkpt><trkpt lat="44.4335405" lon="10.4173616"><ele>694.0</ele><time>2026-04-19T14:03:35.984Z</time></trkpt><trkpt lat="44.4336207" lon="10.4175476"><ele>695.3333333333334</ele><time>2026-04-19T14:03:36.983Z</time></trkpt><trkpt lat="44.4337125" lon="10.417739"><ele>696.6666666666666</ele><time>2026-04-19T14:03:37.983Z</time></trkpt><trkpt lat="44.4338055" lon="10.4179392"><ele>698.0</ele><time>2026-04-19T14:03:38.984Z</time></trkpt><trkpt lat="44.433891" lon="10.4181381"><ele>692.6666666666666</ele><time>2026-04-19T14:03:39.983Z</time></trkpt><trkpt lat="44.4339823" lon="10.4183596"><ele>687.3333333333334</ele><time>2026-04-19T14:03:40.983Z</time></trkpt><trkpt lat="44.4340675" lon="10.4186021"><ele>682.0</ele><time>2026-04-19T14:03:41.984Z</time></trkpt><trkpt lat="44.4341405" lon="10.4188552"><ele>682.0</ele><time>2026-04-19T14:03:42.984Z</time></trkpt><trkpt lat="44.4342029" lon="10.419125"><ele>682.0</ele><time>2026-04-19T14:03:43.983Z</time></trkpt><trkpt lat="44.4342527" lon="10.419401"><ele>682.0</ele><time>2026-04-19T14:03:44.984Z</time></trkpt><trkpt lat="44.4343118" lon="10.4196625"><ele>681.6666666666667</ele><time>2026-04-19T14:03:45.983Z</time></trkpt><trkpt lat="44.4343835" lon="10.4199088"><ele>681.3333333333334</ele><time>2026-04-19T14:03:46.984Z</time></trkpt><trkpt lat="44.4344612" lon="10.420139"><ele>681.0</ele><time>2026-04-19T14:03:47.983Z</time></trkpt><trkpt lat="44.4345464" lon="10.4203519"><ele>681.6666666666666</ele><time>2026-04-19T14:03:48.984Z</time></trkpt><trkpt lat="44.4346315" lon="10.4205529"><ele>682.3333333333333</ele><time>2026-04-19T14:03:49.984Z</time></trkpt><trkpt lat="44.434709" lon="10.4207494"><ele>683.0</ele><time>2026-04-19T14:03:50.984Z</time></trkpt><trkpt lat="44.4347789" lon="10.4209452"><ele>678.0</ele><time>2026-04-19T14:03:51.984Z</time></trkpt><trkpt lat="44.434835" lon="10.4211464"><ele>673.0</ele><time>2026-04-19T14:03:52.982Z</time></trkpt><trkpt lat="44.4348836" lon="10.4213558"><ele>668.0</ele><time>2026-04-19T14:03:53.983Z</time></trkpt><trkpt lat="44.4349255" lon="10.4215714"><ele>668.0</ele><time>2026-04-19T14:03:54.983Z</time></trkpt><trkpt lat="44.4349624" lon="10.4217827"><ele>668.0</ele><time>2026-04-19T14:03:55.984Z</time></trkpt><trkpt lat="44.435" lon="10.4219862"><ele>668.0</ele><time>2026-04-19T14:03:56.983Z</time></trkpt><trkpt lat="44.4350383" lon="10.4221829"><ele>668.5</ele><time>2026-04-19T14:03:57.982Z</time></trkpt><trkpt lat="44.4350757" lon="10.4223743"><ele>669.0</ele><time>2026-04-19T14:03:58.983Z</time></trkpt><trkpt lat="44.4351154" lon="10.4225653"><ele>669.5</ele><time>2026-04-19T14:03:59.984Z</time></trkpt><trkpt lat="44.4351592" lon="10.4227532"><ele>670.0</ele><time>2026-04-19T14:04:00.984Z</time></trkpt><trkpt lat="44.4352092" lon="10.4229308"><ele>671.0</ele><time>2026-04-19T14:04:01.983Z</time></trkpt><trkpt lat="44.4352635" lon="10.423103"><ele>672.0</ele><time>2026-04-19T14:04:02.984Z</time></trkpt><trkpt lat="44.4353194" lon="10.4232718"><ele>673.0</ele><time>2026-04-19T14:04:03.983Z</time></trkpt><trkpt lat="44.4353725" lon="10.4234399"><ele>674.0</ele><time>2026-04-19T14:04:04.984Z</time></trkpt><trkpt lat="44.4354218" lon="10.4236049"><ele>674.0</ele><time>2026-04-19T14:04:05.984Z</time></trkpt><trkpt lat="44.4354632" lon="10.4237637"><ele>674.0</ele><time>2026-04-19T14:04:06.984Z</time></trkpt><trkpt lat="44.4354939" lon="10.4239184"><ele>674.0</ele><time>2026-04-19T14:04:07.984Z</time></trkpt><trkpt lat="44.4355111" lon="10.4240674"><ele>674.0</ele><time>2026-04-19T14:04:08.983Z</time></trkpt><trkpt lat="44.4355173" lon="10.4242088"><ele>674.0</ele><time>2026-04-19T14:04:09.983Z</time></trkpt><trkpt lat="44.4355142" lon="10.4243383"><ele>672.6666666666666</ele><time>2026-04-19T14:04:10.984Z</time></trkpt><trkpt lat="44.4355027" lon="10.4244585"><ele>671.3333333333333</ele><time>2026-04-19T14:04:11.983Z</time></trkpt><trkpt lat="44.4354842" lon="10.424569"><ele>670.0</ele><time>2026-04-19T14:04:12.984Z</time></trkpt><trkpt lat="44.4354597" lon="10.4246612"><ele>668.6666666666666</ele><time>2026-04-19T14:04:13.984Z</time></trkpt><trkpt lat="44.4354274" lon="10.4247412"><ele>667.3333333333334</ele><time>2026-04-19T14:04:14.982Z</time></trkpt><trkpt lat="44.4353835" lon="10.4248167"><ele>666.0</ele><time>2026-04-19T14:04:15.983Z</time></trkpt><trkpt lat="44.4353141" lon="10.4249572"><ele>666.0</ele><time>2026-04-19T14:04:17.984Z</time></trkpt><trkpt lat="44.4353098" lon="10.4251241"><ele>666.0</ele><time>2026-04-19T14:04:19.983Z</time></trkpt><trkpt lat="44.4353415" lon="10.4252124"><ele>666.0</ele><time>2026-04-19T14:04:20.983Z</time></trkpt><trkpt lat="44.4353892" lon="10.4253042"><ele>666.0</ele><time>2026-04-19T14:04:21.984Z</time></trkpt><trkpt lat="44.4354437" lon="10.4254087"><ele>666.0</ele><time>2026-04-19T14:04:22.984Z</time></trkpt><trkpt lat="44.4355014" lon="10.4255146"><ele>664.8</ele><time>2026-04-19T14:04:23.984Z</time></trkpt><trkpt lat="44.4355689" lon="10.4256185"><ele>663.5999999999999</ele><time>2026-04-19T14:04:24.984Z</time></trkpt><trkpt lat="44.4356417" lon="10.4257179"><ele>662.4</ele><time>2026-04-19T14:04:25.984Z</time></trkpt><trkpt lat="44.4357066" lon="10.4258168"><ele>661.2</ele><time>2026-04-19T14:04:26.983Z</time></trkpt><trkpt lat="44.4357717" lon="10.4259309"><ele>660.0</ele><time>2026-04-19T14:04:27.983Z</time></trkpt><trkpt lat="44.4358375" lon="10.4260579"><ele>660.0</ele><time>2026-04-19T14:04:28.983Z</time></trkpt><trkpt lat="44.4359027" lon="10.4261938"><ele>660.0</ele><time>2026-04-19T14:04:29.984Z</time></trkpt><trkpt lat="44.4359586" lon="10.4263192"><ele>660.0</ele><time>2026-04-19T14:04:30.983Z</time></trkpt><trkpt lat="44.4360165" lon="10.4264542"><ele>660.0</ele><time>2026-04-19T14:04:31.983Z</time></trkpt><trkpt lat="44.4360746" lon="10.4265976"><ele>660.0</ele><time>2026-04-19T14:04:32.983Z</time></trkpt><trkpt lat="44.4361307" lon="10.4267508"><ele>660.0</ele><time>2026-04-19T14:04:33.984Z</time></trkpt><trkpt lat="44.4361724" lon="10.4269169"><ele>660.0</ele><time>2026-04-19T14:04:34.983Z</time></trkpt><trkpt lat="44.4361963" lon="10.427097"><ele>660.0</ele><time>2026-04-19T14:04:35.984Z</time></trkpt><trkpt lat="44.4362151" lon="10.4272774"><ele>659.4</ele><time>2026-04-19T14:04:36.982Z</time></trkpt><trkpt lat="44.4362305" lon="10.4274462"><ele>658.8</ele><time>2026-04-19T14:04:37.983Z</time></trkpt><trkpt lat="44.4362411" lon="10.4275897"><ele>658.2</ele><time>2026-04-19T14:04:38.984Z</time></trkpt><trkpt lat="44.4362507" lon="10.4277323"><ele>657.6</ele><time>2026-04-19T14:04:39.983Z</time></trkpt><trkpt lat="44.4362603" lon="10.427865"><ele>657.0</ele><time>2026-04-19T14:04:40.983Z</time></trkpt><trkpt lat="44.436268" lon="10.4279981"><ele>657.0</ele><time>2026-04-19T14:04:41.984Z</time></trkpt><trkpt lat="44.4362746" lon="10.4281376"><ele>657.0</ele><time>2026-04-19T14:04:42.984Z</time></trkpt><trkpt lat="44.4362809" lon="10.4282841"><ele>657.0</ele><time>2026-04-19T14:04:43.983Z</time></trkpt><trkpt lat="44.4362894" lon="10.4284391"><ele>657.0</ele><time>2026-04-19T14:04:44.984Z</time></trkpt><trkpt lat="44.4362995" lon="10.4286041"><ele>657.0</ele><time>2026-04-19T14:04:45.983Z</time></trkpt><trkpt lat="44.4363104" lon="10.4287739"><ele>660.0</ele><time>2026-04-19T14:04:46.983Z</time></trkpt><trkpt lat="44.4363214" lon="10.4289442"><ele>663.0</ele><time>2026-04-19T14:04:47.983Z</time></trkpt><trkpt lat="44.4363344" lon="10.4291165"><ele>666.0</ele><time>2026-04-19T14:04:48.984Z</time></trkpt><trkpt lat="44.4363519" lon="10.4292883"><ele>669.0</ele><time>2026-04-19T14:04:49.984Z</time></trkpt><trkpt lat="44.4363766" lon="10.4294559"><ele>669.0</ele><time>2026-04-19T14:04:50.983Z</time></trkpt><trkpt lat="44.4364124" lon="10.4296184"><ele>669.0</ele><time>2026-04-19T14:04:51.984Z</time></trkpt><trkpt lat="44.4364588" lon="10.4297762"><ele>669.0</ele><time>2026-04-19T14:04:52.983Z</time></trkpt><trkpt lat="44.4365136" lon="10.4299305"><ele>669.0</ele><time>2026-04-19T14:04:53.984Z</time></trkpt><trkpt lat="44.4365693" lon="10.4300794"><ele>668.5</ele><time>2026-04-19T14:04:54.984Z</time></trkpt><trkpt lat="44.4366244" lon="10.4302274"><ele>668.0</ele><time>2026-04-19T14:04:55.984Z</time></trkpt><trkpt lat="44.4366802" lon="10.4303787"><ele>667.5</ele><time>2026-04-19T14:04:56.984Z</time></trkpt><trkpt lat="44.4367343" lon="10.4305356"><ele>667.0</ele><time>2026-04-19T14:04:57.984Z</time></trkpt><trkpt lat="44.436781" lon="10.4307007"><ele>666.0</ele><time>2026-04-19T14:04:58.984Z</time></trkpt><trkpt lat="44.4368171" lon="10.4308743"><ele>665.0</ele><time>2026-04-19T14:04:59.983Z</time></trkpt><trkpt lat="44.4368445" lon="10.4310513"><ele>664.0</ele><time>2026-04-19T14:05:00.983Z</time></trkpt><trkpt lat="44.4368631" lon="10.4312283"><ele>663.0</ele><time>2026-04-19T14:05:01.984Z</time></trkpt><trkpt lat="44.4368757" lon="10.4314037"><ele>662.25</ele><time>2026-04-19T14:05:02.982Z</time></trkpt><trkpt lat="44.4368875" lon="10.4315723"><ele>661.5</ele><time>2026-04-19T14:05:03.983Z</time></trkpt><trkpt lat="44.4369003" lon="10.4317414"><ele>660.75</ele><time>2026-04-19T14:05:04.984Z</time></trkpt><trkpt lat="44.4369152" lon="10.4319084"><ele>660.0</ele><time>2026-04-19T14:05:05.984Z</time></trkpt><trkpt lat="44.4369315" lon="10.4320804"><ele>659.5</ele><time>2026-04-19T14:05:06.983Z</time></trkpt><trkpt lat="44.4369496" lon="10.4322553"><ele>659.0</ele><time>2026-04-19T14:05:07.983Z</time></trkpt><trkpt lat="44.4369693" lon="10.4324279"><ele>658.5</ele><time>2026-04-19T14:05:08.983Z</time></trkpt><trkpt lat="44.436991" lon="10.4326034"><ele>658.0</ele><time>2026-04-19T14:05:09.983Z</time></trkpt><trkpt lat="44.4370184" lon="10.4327865"><ele>656.5</ele><time>2026-04-19T14:05:10.982Z</time></trkpt><trkpt lat="44.4370509" lon="10.4329749"><ele>655.0</ele><time>2026-04-19T14:05:11.983Z</time></trkpt><trkpt lat="44.4370919" lon="10.4331733"><ele>653.5</ele><time>2026-04-19T14:05:12.983Z</time></trkpt><trkpt lat="44.4371411" lon="10.4333814"><ele>652.0</ele><time>2026-04-19T14:05:13.984Z</time></trkpt><trkpt lat="44.4371975" lon="10.4335916"><ele>659.0</ele><time>2026-04-19T14:05:14.984Z</time></trkpt><trkpt lat="44.4372638" lon="10.4338079"><ele>666.0</ele><time>2026-04-19T14:05:15.984Z</time></trkpt><trkpt lat="44.4373369" lon="10.4340101"><ele>673.0</ele><time>2026-04-19T14:05:16.982Z</time></trkpt><trkpt lat="44.4374093" lon="10.4342144"><ele>673.0</ele><time>2026-04-19T14:05:17.983Z</time></trkpt><trkpt lat="44.4374807" lon="10.4344157"><ele>673.0</ele><time>2026-04-19T14:05:18.984Z</time></trkpt><trkpt lat="44.4375533" lon="10.4346196"><ele>673.0</ele><time>2026-04-19T14:05:19.983Z</time></trkpt><trkpt lat="44.440397" lon="10.4382446"><ele>662.6666666666667</ele><time>2026-04-19T14:05:43.983Z</time></trkpt><trkpt lat="44.4405078" lon="10.4384207"><ele>652.3333333333334</ele><time>2026-04-19T14:05:44.983Z</time></trkpt><trkpt lat="44.4406191" lon="10.4385993"><ele>642.0</ele><time>2026-04-19T14:05:45.983Z</time></trkpt><trkpt lat="44.4407249" lon="10.4387773"><ele>641.0</ele><time>2026-04-19T14:05:46.983Z</time></trkpt><trkpt lat="44.4408146" lon="10.4389641"><ele>640.0</ele><time>2026-04-19T14:05:47.983Z</time></trkpt><trkpt lat="44.440893" lon="10.4391319"><ele>639.0</ele><time>2026-04-19T14:05:48.982Z</time></trkpt><trkpt lat="44.4409613" lon="10.4392921"><ele>638.0</ele><time>2026-04-19T14:05:49.984Z</time></trkpt><trkpt lat="44.441029" lon="10.4394605"><ele>638.0</ele><time>2026-04-19T14:05:50.984Z</time></trkpt><trkpt lat="44.4410928" lon="10.4396329"><ele>638.0</ele><time>2026-04-19T14:05:51.984Z</time></trkpt><trkpt lat="44.4411495" lon="10.4398094"><ele>638.0</ele><time>2026-04-19T14:05:52.983Z</time></trkpt><trkpt lat="44.4411959" lon="10.4399912"><ele>638.0</ele><time>2026-04-19T14:05:53.983Z</time></trkpt><trkpt lat="44.4412348" lon="10.4401723"><ele>638.75</ele><time>2026-04-19T14:05:54.982Z</time></trkpt><trkpt lat="44.4412717" lon="10.4403394"><ele>639.5</ele><time>2026-04-19T14:05:55.983Z</time></trkpt><trkpt lat="44.4413163" lon="10.4404972"><ele>640.25</ele><time>2026-04-19T14:05:56.983Z</time></trkpt><trkpt lat="44.4413765" lon="10.4406476"><ele>641.0</ele><time>2026-04-19T14:05:57.984Z</time></trkpt><trkpt lat="44.4414509" lon="10.4407976"><ele>641.0</ele><time>2026-04-19T14:05:58.984Z</time></trkpt><trkpt lat="44.4415238" lon="10.4409388"><ele>641.0</ele><time>2026-04-19T14:05:59.984Z</time></trkpt><trkpt lat="44.4415968" lon="10.4410872"><ele>641.0</ele><time>2026-04-19T14:06:00.983Z</time></trkpt><trkpt lat="44.4416666" lon="10.441245"><ele>641.0</ele><time>2026-04-19T14:06:01.983Z</time></trkpt><trkpt lat="44.4417241" lon="10.4414188"><ele>639.5</ele><time>2026-04-19T14:06:02.984Z</time></trkpt><trkpt lat="44.4417729" lon="10.4416093"><ele>638.0</ele><time>2026-04-19T14:06:03.984Z</time></trkpt><trkpt lat="44.4418052" lon="10.4417996"><ele>636.5</ele><time>2026-04-19T14:06:04.983Z</time></trkpt><trkpt lat="44.4418241" lon="10.4419814"><ele>635.0</ele><time>2026-04-19T14:06:05.984Z</time></trkpt><trkpt lat="44.4418499" lon="10.4421721"><ele>633.25</ele><time>2026-04-19T14:06:06.984Z</time></trkpt><trkpt lat="44.4418905" lon="10.4423496"><ele>631.5</ele><time>2026-04-19T14:06:07.983Z</time></trkpt><trkpt lat="44.4419412" lon="10.4425116"><ele>629.75</ele><time>2026-04-19T14:06:08.984Z</time></trkpt><trkpt lat="44.4420047" lon="10.4426594"><ele>628.0</ele><time>2026-04-19T14:06:09.984Z</time></trkpt><trkpt lat="44.4420956" lon="10.4427889"><ele>629.0</ele><time>2026-04-19T14:06:10.982Z</time></trkpt><trkpt lat="44.4422069" lon="10.4429005"><ele>630.0</ele><time>2026-04-19T14:06:11.983Z</time></trkpt><trkpt lat="44.4423256" lon="10.4429913"><ele>631.0</ele><time>2026-04-19T14:06:12.983Z</time></trkpt><trkpt lat="44.4424438" lon="10.4430727"><ele>632.0</ele><time>2026-04-19T14:06:13.983Z</time></trkpt><trkpt lat="44.442562" lon="10.4431591"><ele>632.0</ele><time>2026-04-19T14:06:14.983Z</time></trkpt><trkpt lat="44.4426797" lon="10.4432611"><ele>632.0</ele><time>2026-04-19T14:06:15.983Z</time></trkpt><trkpt lat="44.4427857" lon="10.4433807"><ele>632.0</ele><time>2026-04-19T14:06:16.984Z</time></trkpt><trkpt lat="44.4428916" lon="10.4435177"><ele>632.0</ele><time>2026-04-19T14:06:17.983Z</time></trkpt><trkpt lat="44.4429964" lon="10.4436614"><ele>632.25</ele><time>2026-04-19T14:06:18.984Z</time></trkpt><trkpt lat="44.4430987" lon="10.4438086"><ele>632.5</ele><time>2026-04-19T14:06:19.983Z</time></trkpt><trkpt lat="44.4432002" lon="10.4439629"><ele>632.75</ele><time>2026-04-19T14:06:20.983Z</time></trkpt><trkpt lat="44.4432974" lon="10.444107"><ele>633.0</ele><time>2026-04-19T14:06:21.984Z</time></trkpt><trkpt lat="44.4433872" lon="10.4442397"><ele>633.0</ele><time>2026-04-19T14:06:22.983Z</time></trkpt><trkpt lat="44.4434774" lon="10.444371"><ele>633.0</ele><time>2026-04-19T14:06:23.984Z</time></trkpt><trkpt lat="44.4435727" lon="10.4445094"><ele>633.0</ele><time>2026-04-19T14:06:24.983Z</time></trkpt><trkpt lat="44.4436671" lon="10.4446508"><ele>633.0</ele><time>2026-04-19T14:06:25.983Z</time></trkpt><trkpt lat="44.4437588" lon="10.4447856"><ele>633.25</ele><time>2026-04-19T14:06:26.982Z</time></trkpt><trkpt lat="44.443856" lon="10.444928"><ele>633.5</ele><time>2026-04-19T14:06:27.984Z</time></trkpt><trkpt lat="44.4439565" lon="10.4450747"><ele>633.75</ele><time>2026-04-19T14:06:28.983Z</time></trkpt><trkpt lat="44.4440542" lon="10.4452189"><ele>634.0</ele><time>2026-04-19T14:06:29.984Z</time></trkpt><trkpt lat="44.4441533" lon="10.4453609"><ele>633.0</ele><time>2026-04-19T14:06:30.984Z</time></trkpt><trkpt lat="44.4442527" lon="10.4455025"><ele>632.0</ele><time>2026-04-19T14:06:31.984Z</time></trkpt><trkpt lat="44.4443538" lon="10.4456454"><ele>631.0</ele><time>2026-04-19T14:06:32.984Z</time></trkpt><trkpt lat="44.4444539" lon="10.4457864"><ele>630.0</ele><time>2026-04-19T14:06:33.984Z</time></trkpt><trkpt lat="44.4445479" lon="10.4459209"><ele>629.75</ele><time>2026-04-19T14:06:34.983Z</time></trkpt><trkpt lat="44.4446381" lon="10.4460536"><ele>629.5</ele><time>2026-04-19T14:06:35.984Z</time></trkpt><trkpt lat="44.4447249" lon="10.4461854"><ele>629.25</ele><time>2026-04-19T14:06:36.984Z</time></trkpt><trkpt lat="44.4448095" lon="10.4463138"><ele>629.0</ele><time>2026-04-19T14:06:37.983Z</time></trkpt><trkpt lat="44.4448911" lon="10.4464399"><ele>629.0</ele><time>2026-04-19T14:06:38.984Z</time></trkpt><trkpt lat="44.4449762" lon="10.4465609"><ele>629.0</ele><time>2026-04-19T14:06:39.984Z</time></trkpt><trkpt lat="44.4450654" lon="10.4466762"><ele>629.0</ele><time>2026-04-19T14:06:40.984Z</time></trkpt><trkpt lat="44.4451639" lon="10.4467824"><ele>629.0</ele><time>2026-04-19T14:06:41.982Z</time></trkpt><trkpt lat="44.4452721" lon="10.4468746"><ele>629.0</ele><time>2026-04-19T14:06:42.984Z</time></trkpt><trkpt lat="44.4453848" lon="10.4469553"><ele>629.0</ele><time>2026-04-19T14:06:43.982Z</time></trkpt><trkpt lat="44.4454955" lon="10.4470353"><ele>629.0</ele><time>2026-04-19T14:06:44.983Z</time></trkpt><trkpt lat="44.4456006" lon="10.4471137"><ele>629.0</ele><time>2026-04-19T14:06:45.984Z</time></trkpt><trkpt lat="44.4457012" lon="10.4471872"><ele>627.4</ele><time>2026-04-19T14:06:46.984Z</time></trkpt><trkpt lat="44.4457974" lon="10.4472585"><ele>625.8</ele><time>2026-04-19T14:06:47.983Z</time></trkpt><trkpt lat="44.4458919" lon="10.4473291"><ele>624.2</ele><time>2026-04-19T14:06:48.984Z</time></trkpt><trkpt lat="44.4459853" lon="10.4473999"><ele>622.6</ele><time>2026-04-19T14:06:49.982Z</time></trkpt><trkpt lat="44.446073" lon="10.4474671"><ele>621.0</ele><time>2026-04-19T14:06:50.982Z</time></trkpt><trkpt lat="44.4461606" lon="10.4475301"><ele>621.0</ele><time>2026-04-19T14:06:51.984Z</time></trkpt><trkpt lat="44.4462505" lon="10.447594"><ele>621.0</ele><time>2026-04-19T14:06:52.982Z</time></trkpt><trkpt lat="44.4463379" lon="10.4476541"><ele>621.0</ele><time>2026-04-19T14:06:53.982Z</time></trkpt><trkpt lat="44.4464157" lon="10.4477048"><ele>621.0</ele><time>2026-04-19T14:06:54.984Z</time></trkpt><trkpt lat="44.4464876" lon="10.4477479"><ele>621.0</ele><time>2026-04-19T14:06:55.982Z</time></trkpt><trkpt lat="44.4465556" lon="10.4477873"><ele>621.0</ele><time>2026-04-19T14:06:56.982Z</time></trkpt><trkpt lat="44.4466196" lon="10.4478254"><ele>619.8</ele><time>2026-04-19T14:06:57.983Z</time></trkpt><trkpt lat="44.4466899" lon="10.4478728"><ele>618.6</ele><time>2026-04-19T14:06:58.984Z</time></trkpt><trkpt lat="44.4467623" lon="10.4479265"><ele>617.4</ele><time>2026-04-19T14:06:59.983Z</time></trkpt><trkpt lat="44.4468448" lon="10.4479926"><ele>616.2</ele><time>2026-04-19T14:07:00.983Z</time></trkpt><trkpt lat="44.4469422" lon="10.4480686"><ele>615.0</ele><time>2026-04-19T14:07:01.983Z</time></trkpt><trkpt lat="44.4470549" lon="10.4481561"><ele>618.0</ele><time>2026-04-19T14:07:02.984Z</time></trkpt><trkpt lat="44.4471864" lon="10.4482528"><ele>621.0</ele><time>2026-04-19T14:07:03.984Z</time></trkpt><trkpt lat="44.4473196" lon="10.4483449"><ele>624.0</ele><time>2026-04-19T14:07:04.983Z</time></trkpt><trkpt lat="44.4474575" lon="10.4484385"><ele>624.0</ele><time>2026-04-19T14:07:05.983Z</time></trkpt><trkpt lat="44.4475978" lon="10.4485368"><ele>624.0</ele><time>2026-04-19T14:07:06.984Z</time></trkpt><trkpt lat="44.4477373" lon="10.4486367"><ele>624.0</ele><time>2026-04-19T14:07:07.983Z</time></trkpt><trkpt lat="44.4478709" lon="10.4487307"><ele>623.25</ele><time>2026-04-19T14:07:08.979Z</time></trkpt><trkpt lat="44.447999" lon="10.4488222"><ele>622.5</ele><time>2026-04-19T14:07:09.982Z</time></trkpt><trkpt lat="44.4481285" lon="10.4489165"><ele>621.75</ele><time>2026-04-19T14:07:10.983Z</time></trkpt><trkpt lat="44.4482599" lon="10.4490107"><ele>621.0</ele><time>2026-04-19T14:07:11.984Z</time></trkpt><trkpt lat="44.4483913" lon="10.4491015"><ele>621.0</ele><time>2026-04-19T14:07:12.984Z</time></trkpt><trkpt lat="44.4485221" lon="10.44919"><ele>621.0</ele><time>2026-04-19T14:07:13.983Z</time></trkpt><trkpt lat="44.4486514" lon="10.449277"><ele>621.0</ele><time>2026-04-19T14:07:14.983Z</time></trkpt><trkpt lat="44.4487799" lon="10.4493653"><ele>621.0</ele><time>2026-04-19T14:07:15.984Z</time></trkpt><trkpt lat="44.4489097" lon="10.4494542"><ele>624.5</ele><time>2026-04-19T14:07:16.983Z</time></trkpt><trkpt lat="44.4490391" lon="10.4495437"><ele>628.0</ele><time>2026-04-19T14:07:17.984Z</time></trkpt><trkpt lat="44.4491686" lon="10.4496344"><ele>631.5</ele><time>2026-04-19T14:07:18.984Z</time></trkpt><trkpt lat="44.4492976" lon="10.4497256"><ele>635.0</ele><time>2026-04-19T14:07:19.983Z</time></trkpt><trkpt lat="44.449428" lon="10.4498176"><ele>635.0</ele><time>2026-04-19T14:07:20.984Z</time></trkpt><trkpt lat="44.4495586" lon="10.4499144"><ele>635.0</ele><time>2026-04-19T14:07:21.984Z</time></trkpt><trkpt lat="44.4496908" lon="10.4500195"><ele>635.0</ele><time>2026-04-19T14:07:22.983Z</time></trkpt><trkpt lat="44.449823" lon="10.450131"><ele>637.0</ele><time>2026-04-19T14:07:23.984Z</time></trkpt><trkpt lat="44.4499561" lon="10.4502531"><ele>639.0</ele><time>2026-04-19T14:07:24.983Z</time></trkpt><trkpt lat="44.4500878" lon="10.450384"><ele>641.0</ele><time>2026-04-19T14:07:25.983Z</time></trkpt><trkpt lat="44.4502185" lon="10.4505245"><ele>641.6666666666666</ele><time>2026-04-19T14:07:26.983Z</time></trkpt><trkpt lat="44.4503482" lon="10.4506773"><ele>642.3333333333334</ele><time>2026-04-19T14:07:27.982Z</time></trkpt><trkpt lat="44.4504784" lon="10.4508406"><ele>643.0</ele><time>2026-04-19T14:07:28.982Z</time></trkpt><trkpt lat="44.4506094" lon="10.4510138"><ele>643.0</ele><time>2026-04-19T14:07:29.983Z</time></trkpt><trkpt lat="44.4507374" lon="10.4511969"><ele>643.0</ele><time>2026-04-19T14:07:30.984Z</time></trkpt><trkpt lat="44.4508624" lon="10.4513913"><ele>643.0</ele><time>2026-04-19T14:07:31.983Z</time></trkpt><trkpt lat="44.4509831" lon="10.4515939"><ele>644.3333333333334</ele><time>2026-04-19T14:07:32.983Z</time></trkpt><trkpt lat="44.4511003" lon="10.451806"><ele>645.6666666666666</ele><time>2026-04-19T14:07:33.984Z</time></trkpt><trkpt lat="44.4512159" lon="10.4520251"><ele>647.0</ele><time>2026-04-19T14:07:34.983Z</time></trkpt><trkpt lat="44.4513307" lon="10.4522505"><ele>647.3333333333333</ele><time>2026-04-19T14:07:35.983Z</time></trkpt><trkpt lat="44.4514421" lon="10.4524816"><ele>647.6666666666666</ele><time>2026-04-19T14:07:36.983Z</time></trkpt><trkpt lat="44.4515493" lon="10.4527053"><ele>648.0</ele><time>2026-04-19T14:07:37.983Z</time></trkpt><trkpt lat="44.45165" lon="10.4529179"><ele>645.6666666666666</ele><time>2026-04-19T14:07:38.983Z</time></trkpt><trkpt lat="44.4517486" lon="10.4531278"><ele>643.3333333333333</ele><time>2026-04-19T14:07:39.983Z</time></trkpt><trkpt lat="44.451844" lon="10.4533325"><ele>641.0</ele><time>2026-04-19T14:07:40.983Z</time></trkpt><trkpt lat="44.4519364" lon="10.4535338"><ele>641.0</ele><time>2026-04-19T14:07:41.982Z</time></trkpt><trkpt lat="44.4520275" lon="10.4537302"><ele>641.0</ele><time>2026-04-19T14:07:42.982Z</time></trkpt><trkpt lat="44.4521147" lon="10.4539235"><ele>641.0</ele><time>2026-04-19T14:07:43.982Z</time></trkpt><trkpt lat="44.4522024" lon="10.4541122"><ele>641.0</ele><time>2026-04-19T14:07:44.983Z</time></trkpt><trkpt lat="44.4522925" lon="10.4542976"><ele>641.0</ele><time>2026-04-19T14:07:45.982Z</time></trkpt><trkpt lat="44.4523853" lon="10.4544807"><ele>641.0</ele><time>2026-04-19T14:07:46.983Z</time></trkpt><trkpt lat="44.4524808" lon="10.4546643"><ele>642.3333333333333</ele><time>2026-04-19T14:07:47.982Z</time></trkpt><trkpt lat="44.452581" lon="10.4548468"><ele>643.6666666666666</ele><time>2026-04-19T14:07:48.983Z</time></trkpt><trkpt lat="44.4526884" lon="10.455027"><ele>645.0</ele><time>2026-04-19T14:07:49.982Z</time></trkpt><trkpt lat="44.4528032" lon="10.4552032"><ele>645.0</ele><time>2026-04-19T14:07:50.981Z</time></trkpt><trkpt lat="44.4529265" lon="10.4553753"><ele>645.0</ele><time>2026-04-19T14:07:51.983Z</time></trkpt><trkpt lat="44.4530548" lon="10.4555456"><ele>645.0</ele><time>2026-04-19T14:07:52.982Z</time></trkpt><trkpt lat="44.4531915" lon="10.4557169"><ele>645.6666666666666</ele><time>2026-04-19T14:07:53.981Z</time></trkpt><trkpt lat="44.4533357" lon="10.4558876"><ele>646.3333333333333</ele><time>2026-04-19T14:07:54.982Z</time></trkpt><trkpt lat="44.4534864" lon="10.4560537"><ele>647.0</ele><time>2026-04-19T14:07:55.983Z</time></trkpt><trkpt lat="44.4536408" lon="10.4562139"><ele>647.0</ele><time>2026-04-19T14:07:56.983Z</time></trkpt><trkpt lat="44.4538028" lon="10.4563701"><ele>647.0</ele><time>2026-04-19T14:07:57.983Z</time></trkpt><trkpt lat="44.4539701" lon="10.4565204"><ele>647.0</ele><time>2026-04-19T14:07:58.983Z</time></trkpt><trkpt lat="44.4541421" lon="10.4566584"><ele>647.0</ele><time>2026-04-19T14:07:59.982Z</time></trkpt><trkpt lat="44.4543177" lon="10.4567923"><ele>647.0</ele><time>2026-04-19T14:08:00.982Z</time></trkpt><trkpt lat="44.4544793" lon="10.456919"><ele>647.0</ele><time>2026-04-19T14:08:01.983Z</time></trkpt><trkpt lat="44.454633" lon="10.4570418"><ele>648.6666666666666</ele><time>2026-04-19T14:08:02.982Z</time></trkpt><trkpt lat="44.4547888" lon="10.457167"><ele>650.3333333333334</ele><time>2026-04-19T14:08:03.983Z</time></trkpt><trkpt lat="44.4549492" lon="10.4572957"><ele>652.0</ele><time>2026-04-19T14:08:04.982Z</time></trkpt><trkpt lat="44.4551166" lon="10.4574289"><ele>652.0</ele><time>2026-04-19T14:08:05.982Z</time></trkpt><trkpt lat="44.455292" lon="10.4575645"><ele>652.0</ele><time>2026-04-19T14:08:06.983Z</time></trkpt><trkpt lat="44.455456" lon="10.457693"><ele>652.0</ele><time>2026-04-19T14:08:07.983Z</time></trkpt><trkpt lat="44.455616" lon="10.4578196"><ele>652.0</ele><time>2026-04-19T14:08:08.983Z</time></trkpt><trkpt lat="44.4557754" lon="10.4579429"><ele>652.0</ele><time>2026-04-19T14:08:09.983Z</time></trkpt><trkpt lat="44.4559311" lon="10.458064"><ele>652.0</ele><time>2026-04-19T14:08:10.983Z</time></trkpt><trkpt lat="44.4560852" lon="10.4581823"><ele>652.0</ele><time>2026-04-19T14:08:11.983Z</time></trkpt><trkpt lat="44.4562381" lon="10.4582993"><ele>652.0</ele><time>2026-04-19T14:08:12.982Z</time></trkpt><trkpt lat="44.4563916" lon="10.4584186"><ele>652.0</ele><time>2026-04-19T14:08:13.983Z</time></trkpt><trkpt lat="44.456548" lon="10.4585408"><ele>651.6666666666667</ele><time>2026-04-19T14:08:14.983Z</time></trkpt><trkpt lat="44.4567063" lon="10.4586636"><ele>651.3333333333334</ele><time>2026-04-19T14:08:15.983Z</time></trkpt><trkpt lat="44.4568715" lon="10.4587852"><ele>651.0</ele><time>2026-04-19T14:08:16.981Z</time></trkpt><trkpt lat="44.4570449" lon="10.4588984"><ele>652.0</ele><time>2026-04-19T14:08:17.983Z</time></trkpt><trkpt lat="44.4572243" lon="10.4590008"><ele>653.0</ele><time>2026-04-19T14:08:18.982Z</time></trkpt><trkpt lat="44.4574009" lon="10.4590939"><ele>654.0</ele><time>2026-04-19T14:08:19.982Z</time></trkpt><trkpt lat="44.4575733" lon="10.4591755"><ele>654.0</ele><time>2026-04-19T14:08:20.983Z</time></trkpt><trkpt lat="44.4577477" lon="10.4592496"><ele>654.0</ele><time>2026-04-19T14:08:21.982Z</time></trkpt><trkpt lat="44.4579226" lon="10.4593175"><ele>654.0</ele><time>2026-04-19T14:08:22.981Z</time></trkpt><trkpt lat="44.4580973" lon="10.4593821"><ele>654.3333333333334</ele><time>2026-04-19T14:08:23.983Z</time></trkpt><trkpt lat="44.4582697" lon="10.4594455"><ele>654.6666666666667</ele><time>2026-04-19T14:08:24.983Z</time></trkpt><trkpt lat="44.4584401" lon="10.4595104"><ele>655.0</ele><time>2026-04-19T14:08:25.982Z</time></trkpt><trkpt lat="44.4586079" lon="10.4595778"><ele>656.0</ele><time>2026-04-19T14:08:26.982Z</time></trkpt><trkpt lat="44.4587753" lon="10.4596419"><ele>657.0</ele><time>2026-04-19T14:08:27.982Z</time></trkpt><trkpt lat="44.458942" lon="10.4597033"><ele>658.0</ele><time>2026-04-19T14:08:28.982Z</time></trkpt><trkpt lat="44.4591096" lon="10.4597624"><ele>658.0</ele><time>2026-04-19T14:08:29.982Z</time></trkpt><trkpt lat="44.4592741" lon="10.4598318"><ele>658.0</ele><time>2026-04-19T14:08:30.983Z</time></trkpt><trkpt lat="44.4594308" lon="10.4599195"><ele>658.0</ele><time>2026-04-19T14:08:31.982Z</time></trkpt><trkpt lat="44.4595789" lon="10.4600296"><ele>658.6666666666667</ele><time>2026-04-19T14:08:32.983Z</time></trkpt><trkpt lat="44.4597169" lon="10.4601577"><ele>659.3333333333334</ele><time>2026-04-19T14:08:33.982Z</time></trkpt><trkpt lat="44.4598441" lon="10.4603031"><ele>660.0</ele><time>2026-04-19T14:08:34.982Z</time></trkpt><trkpt lat="44.4599593" lon="10.4604674"><ele>660.0</ele><time>2026-04-19T14:08:35.982Z</time></trkpt><trkpt lat="44.4600629" lon="10.4606443"><ele>660.0</ele><time>2026-04-19T14:08:36.982Z</time></trkpt><trkpt lat="44.4601552" lon="10.460828"><ele>660.0</ele><time>2026-04-19T14:08:37.983Z</time></trkpt><trkpt lat="44.4602402" lon="10.4610169"><ele>660.0</ele><time>2026-04-19T14:08:38.983Z</time></trkpt><trkpt lat="44.4603231" lon="10.4612092"><ele>660.0</ele><time>2026-04-19T14:08:39.982Z</time></trkpt><trkpt lat="44.4604121" lon="10.4614044"><ele>660.0</ele><time>2026-04-19T14:08:40.983Z</time></trkpt><trkpt lat="44.4605049" lon="10.4616051"><ele>662.0</ele><time>2026-04-19T14:08:41.982Z</time></trkpt><trkpt lat="44.4605962" lon="10.4618091"><ele>664.0</ele><time>2026-04-19T14:08:42.981Z</time></trkpt><trkpt lat="44.4606883" lon="10.4620185"><ele>666.0</ele><time>2026-04-19T14:08:43.981Z</time></trkpt><trkpt lat="44.4607783" lon="10.4622183"><ele>666.0</ele><time>2026-04-19T14:08:44.983Z</time></trkpt><trkpt lat="44.460861" lon="10.462406"><ele>666.0</ele><time>2026-04-19T14:08:45.982Z</time></trkpt><trkpt lat="44.4609389" lon="10.4625911"><ele>666.0</ele><time>2026-04-19T14:08:46.981Z</time></trkpt><trkpt lat="44.4610192" lon="10.46278"><ele>667.3333333333334</ele><time>2026-04-19T14:08:47.983Z</time></trkpt><trkpt lat="44.4611027" lon="10.4629738"><ele>668.6666666666667</ele><time>2026-04-19T14:08:48.983Z</time></trkpt><trkpt lat="44.4611855" lon="10.4631771"><ele>670.0</ele><time>2026-04-19T14:08:49.982Z</time></trkpt><trkpt lat="44.4612689" lon="10.4633893"><ele>669.3333333333334</ele><time>2026-04-19T14:08:50.983Z</time></trkpt><trkpt lat="44.461359" lon="10.463606"><ele>668.6666666666666</ele><time>2026-04-19T14:08:51.982Z</time></trkpt><trkpt lat="44.4614584" lon="10.4638258"><ele>668.0</ele><time>2026-04-19T14:08:52.983Z</time></trkpt><trkpt lat="44.4615626" lon="10.4640364"><ele>667.3333333333333</ele><time>2026-04-19T14:08:53.982Z</time></trkpt><trkpt lat="44.4616631" lon="10.4642293"><ele>666.6666666666666</ele><time>2026-04-19T14:08:54.982Z</time></trkpt><trkpt lat="44.4617626" lon="10.464413"><ele>666.0</ele><time>2026-04-19T14:08:55.983Z</time></trkpt><trkpt lat="44.4618677" lon="10.4645932"><ele>665.6666666666666</ele><time>2026-04-19T14:08:56.981Z</time></trkpt><trkpt lat="44.4619789" lon="10.4647715"><ele>665.3333333333333</ele><time>2026-04-19T14:08:57.983Z</time></trkpt><trkpt lat="44.4620975" lon="10.4649504"><ele>665.0</ele><time>2026-04-19T14:08:58.982Z</time></trkpt><trkpt lat="44.4622259" lon="10.4651253"><ele>665.6666666666666</ele><time>2026-04-19T14:08:59.982Z</time></trkpt><trkpt lat="44.4623629" lon="10.4652996"><ele>666.3333333333334</ele><time>2026-04-19T14:09:00.982Z</time></trkpt><trkpt lat="44.4624969" lon="10.465462"><ele>667.0</ele><time>2026-04-19T14:09:01.982Z</time></trkpt><trkpt lat="44.4626265" lon="10.4656127"><ele>667.0</ele><time>2026-04-19T14:09:02.982Z</time></trkpt><trkpt lat="44.462755" lon="10.4657619"><ele>667.0</ele><time>2026-04-19T14:09:03.983Z</time></trkpt><trkpt lat="44.4628825" lon="10.4659188"><ele>667.0</ele><time>2026-04-19T14:09:04.983Z</time></trkpt><trkpt lat="44.4630049" lon="10.4660954"><ele>669.3333333333334</ele><time>2026-04-19T14:09:05.983Z</time></trkpt><trkpt lat="44.4631138" lon="10.466285"><ele>671.6666666666666</ele><time>2026-04-19T14:09:06.982Z</time></trkpt><trkpt lat="44.4632062" lon="10.466477"><ele>674.0</ele><time>2026-04-19T14:09:07.982Z</time></trkpt><trkpt lat="44.4632851" lon="10.4666773"><ele>674.0</ele><time>2026-04-19T14:09:08.983Z</time></trkpt><trkpt lat="44.4633582" lon="10.4668804"><ele>674.0</ele><time>2026-04-19T14:09:09.982Z</time></trkpt><trkpt lat="44.4634281" lon="10.4670842"><ele>674.0</ele><time>2026-04-19T14:09:10.981Z</time></trkpt><trkpt lat="44.4634821" lon="10.467295"><ele>674.0</ele><time>2026-04-19T14:09:11.982Z</time></trkpt><trkpt lat="44.46352" lon="10.4675109"><ele>674.0</ele><time>2026-04-19T14:09:12.983Z</time></trkpt><trkpt lat="44.4635385" lon="10.4677253"><ele>674.0</ele><time>2026-04-19T14:09:13.982Z</time></trkpt><trkpt lat="44.4635344" lon="10.4679478"><ele>674.0</ele><time>2026-04-19T14:09:14.982Z</time></trkpt><trkpt lat="44.463506" lon="10.4681717"><ele>674.0</ele><time>2026-04-19T14:09:15.983Z</time></trkpt><trkpt lat="44.46346" lon="10.468397"><ele>674.0</ele><time>2026-04-19T14:09:16.982Z</time></trkpt><trkpt lat="44.4633995" lon="10.4686294"><ele>675.6666666666666</ele><time>2026-04-19T14:09:17.983Z</time></trkpt><trkpt lat="44.463337" lon="10.4688482"><ele>677.3333333333334</ele><time>2026-04-19T14:09:18.981Z</time></trkpt><trkpt lat="44.4632707" lon="10.4690629"><ele>679.0</ele><time>2026-04-19T14:09:19.982Z</time></trkpt><trkpt lat="44.4631987" lon="10.469275"><ele>679.0</ele><time>2026-04-19T14:09:20.983Z</time></trkpt><trkpt lat="44.4631209" lon="10.4694856"><ele>679.0</ele><time>2026-04-19T14:09:21.982Z</time></trkpt><trkpt lat="44.4630382" lon="10.4696923"><ele>679.0</ele><time>2026-04-19T14:09:22.982Z</time></trkpt><trkpt lat="44.4629536" lon="10.4698923"><ele>679.3333333333334</ele><time>2026-04-19T14:09:23.983Z</time></trkpt><trkpt lat="44.4628688" lon="10.4700818"><ele>679.6666666666666</ele><time>2026-04-19T14:09:24.983Z</time></trkpt><trkpt lat="44.4627847" lon="10.4702665"><ele>680.0</ele><time>2026-04-19T14:09:25.982Z</time></trkpt><trkpt lat="44.4626986" lon="10.4704572"><ele>680.0</ele><time>2026-04-19T14:09:26.983Z</time></trkpt><trkpt lat="44.4626116" lon="10.4706508"><ele>680.0</ele><time>2026-04-19T14:09:27.982Z</time></trkpt><trkpt lat="44.462525" lon="10.4708483"><ele>680.0</ele><time>2026-04-19T14:09:28.982Z</time></trkpt><trkpt lat="44.4624376" lon="10.4710411"><ele>680.0</ele><time>2026-04-19T14:09:29.983Z</time></trkpt><trkpt lat="44.4623528" lon="10.4712323"><ele>680.0</ele><time>2026-04-19T14:09:30.981Z</time></trkpt><trkpt lat="44.4622669" lon="10.4714256"><ele>680.0</ele><time>2026-04-19T14:09:31.981Z</time></trkpt><trkpt lat="44.4621805" lon="10.4716229"><ele>678.3333333333333</ele><time>2026-04-19T14:09:32.982Z</time></trkpt><trkpt lat="44.4620984" lon="10.4718208"><ele>676.6666666666666</ele><time>2026-04-19T14:09:33.982Z</time></trkpt><trkpt lat="44.4620271" lon="10.4720185"><ele>675.0</ele><time>2026-04-19T14:09:34.982Z</time></trkpt><trkpt lat="44.4619664" lon="10.4722218"><ele>675.0</ele><time>2026-04-19T14:09:35.983Z</time></trkpt><trkpt lat="44.4619198" lon="10.4724332"><ele>675.0</ele><time>2026-04-19T14:09:36.983Z</time></trkpt><trkpt lat="44.4618961" lon="10.4726525"><ele>675.0</ele><time>2026-04-19T14:09:37.983Z</time></trkpt><trkpt lat="44.4618885" lon="10.4728761"><ele>674.6666666666666</ele><time>2026-04-19T14:09:38.982Z</time></trkpt><trkpt lat="44.4619" lon="10.473105"><ele>674.3333333333333</ele><time>2026-04-19T14:09:39.983Z</time></trkpt><trkpt lat="44.4619264" lon="10.4733367"><ele>674.0</ele><time>2026-04-19T14:09:40.982Z</time></trkpt><trkpt lat="44.4619599" lon="10.4735662"><ele>672.6666666666666</ele><time>2026-04-19T14:09:41.982Z</time></trkpt><trkpt lat="44.4619935" lon="10.4737853"><ele>671.3333333333334</ele><time>2026-04-19T14:09:42.982Z</time></trkpt><trkpt lat="44.4620291" lon="10.4740053"><ele>670.0</ele><time>2026-04-19T14:09:43.982Z</time></trkpt><trkpt lat="44.4620647" lon="10.4742211"><ele>670.0</ele><time>2026-04-19T14:09:44.983Z</time></trkpt><trkpt lat="44.4620931" lon="10.4744387"><ele>670.0</ele><time>2026-04-19T14:09:45.982Z</time></trkpt><trkpt lat="44.4621101" lon="10.4746573"><ele>670.0</ele><time>2026-04-19T14:09:46.983Z</time></trkpt><trkpt lat="44.462119" lon="10.4748808"><ele>668.3333333333334</ele><time>2026-04-19T14:09:47.983Z</time></trkpt><trkpt lat="44.46212" lon="10.4751042"><ele>666.6666666666666</ele><time>2026-04-19T14:09:48.983Z</time></trkpt><trkpt lat="44.4621121" lon="10.4753215"><ele>665.0</ele><time>2026-04-19T14:09:49.981Z</time></trkpt><trkpt lat="44.4620959" lon="10.4755406"><ele>669.0</ele><time>2026-04-19T14:09:50.982Z</time></trkpt><trkpt lat="44.46207" lon="10.4757555"><ele>673.0</ele><time>2026-04-19T14:09:51.982Z</time></trkpt><trkpt lat="44.4620358" lon="10.475962"><ele>677.0</ele><time>2026-04-19T14:09:52.983Z</time></trkpt><trkpt lat="44.4619941" lon="10.4761647"><ele>680.3333333333333</ele><time>2026-04-19T14:09:53.983Z</time></trkpt><trkpt lat="44.4619432" lon="10.4763631"><ele>683.6666666666666</ele><time>2026-04-19T14:09:54.982Z</time></trkpt><trkpt lat="44.4618846" lon="10.4765589"><ele>687.0</ele><time>2026-04-19T14:09:55.983Z</time></trkpt><trkpt lat="44.4618274" lon="10.4767514"><ele>687.0</ele><time>2026-04-19T14:09:56.983Z</time></trkpt><trkpt lat="44.4617783" lon="10.476944"><ele>687.0</ele><time>2026-04-19T14:09:57.983Z</time></trkpt><trkpt lat="44.4617464" lon="10.4771339"><ele>687.0</ele><time>2026-04-19T14:09:58.983Z</time></trkpt><trkpt lat="44.4617326" lon="10.4773303"><ele>687.0</ele><time>2026-04-19T14:09:59.982Z</time></trkpt><trkpt lat="44.4617414" lon="10.4775298"><ele>686.5</ele><time>2026-04-19T14:10:00.983Z</time></trkpt><trkpt lat="44.4617699" lon="10.4777311"><ele>686.0</ele><time>2026-04-19T14:10:01.983Z</time></trkpt><trkpt lat="44.4618134" lon="10.4779336"><ele>685.5</ele><time>2026-04-19T14:10:02.982Z</time></trkpt><trkpt lat="44.4618556" lon="10.4781377"><ele>685.0</ele><time>2026-04-19T14:10:03.983Z</time></trkpt><trkpt lat="44.4618793" lon="10.4783466"><ele>684.25</ele><time>2026-04-19T14:10:04.981Z</time></trkpt><trkpt lat="44.4618834" lon="10.4785508"><ele>683.5</ele><time>2026-04-19T14:10:05.983Z</time></trkpt><trkpt lat="44.4618688" lon="10.4787525"><ele>682.75</ele><time>2026-04-19T14:10:06.983Z</time></trkpt><trkpt lat="44.4618391" lon="10.4789605"><ele>682.0</ele><time>2026-04-19T14:10:07.982Z</time></trkpt><trkpt lat="44.4618055" lon="10.4791772"><ele>682.0</ele><time>2026-04-19T14:10:08.982Z</time></trkpt><trkpt lat="44.4617684" lon="10.4794002"><ele>682.0</ele><time>2026-04-19T14:10:09.982Z</time></trkpt><trkpt lat="44.4617311" lon="10.4796147"><ele>682.0</ele><time>2026-04-19T14:10:10.982Z</time></trkpt><trkpt lat="44.4616973" lon="10.4798327"><ele>682.6666666666667</ele><time>2026-04-19T14:10:11.983Z</time></trkpt><trkpt lat="44.461672" lon="10.4800506"><ele>683.3333333333334</ele><time>2026-04-19T14:10:12.983Z</time></trkpt><trkpt lat="44.4616612" lon="10.4802681"><ele>684.0</ele><time>2026-04-19T14:10:13.983Z</time></trkpt><trkpt lat="44.4616709" lon="10.4804794"><ele>684.0</ele><time>2026-04-19T14:10:14.983Z</time></trkpt><trkpt lat="44.4617012" lon="10.4806918"><ele>684.0</ele><time>2026-04-19T14:10:15.981Z</time></trkpt><trkpt lat="44.461754" lon="10.4809009"><ele>684.0</ele><time>2026-04-19T14:10:16.983Z</time></trkpt><trkpt lat="44.4618306" lon="10.4811009"><ele>682.75</ele><time>2026-04-19T14:10:17.983Z</time></trkpt><trkpt lat="44.4619227" lon="10.4812766"><ele>681.5</ele><time>2026-04-19T14:10:18.983Z</time></trkpt><trkpt lat="44.4620198" lon="10.4814296"><ele>680.25</ele><time>2026-04-19T14:10:19.983Z</time></trkpt><trkpt lat="44.462123" lon="10.4815719"><ele>679.0</ele><time>2026-04-19T14:10:20.982Z</time></trkpt><trkpt lat="44.4622341" lon="10.4817106"><ele>681.75</ele><time>2026-04-19T14:10:21.982Z</time></trkpt><trkpt lat="44.4623502" lon="10.4818433"><ele>684.5</ele><time>2026-04-19T14:10:22.983Z</time></trkpt><trkpt lat="44.4624621" lon="10.4819727"><ele>687.25</ele><time>2026-04-19T14:10:23.981Z</time></trkpt><trkpt lat="44.4625738" lon="10.4821024"><ele>690.0</ele><time>2026-04-19T14:10:24.982Z</time></trkpt><trkpt lat="44.4626925" lon="10.4822195"><ele>690.25</ele><time>2026-04-19T14:10:25.982Z</time></trkpt><trkpt lat="44.4628147" lon="10.4823258"><ele>690.5</ele><time>2026-04-19T14:10:26.983Z</time></trkpt><trkpt lat="44.4629298" lon="10.4824239"><ele>690.75</ele><time>2026-04-19T14:10:27.983Z</time></trkpt><trkpt lat="44.4630385" lon="10.4825154"><ele>691.0</ele><time>2026-04-19T14:10:28.983Z</time></trkpt><trkpt lat="44.4631417" lon="10.4826019"><ele>690.5</ele><time>2026-04-19T14:10:29.981Z</time></trkpt><trkpt lat="44.4632353" lon="10.4826915"><ele>690.0</ele><time>2026-04-19T14:10:30.982Z</time></trkpt><trkpt lat="44.4633178" lon="10.4827893"><ele>689.5</ele><time>2026-04-19T14:10:31.983Z</time></trkpt><trkpt lat="44.4633894" lon="10.4829164"><ele>689.0</ele><time>2026-04-19T14:10:32.983Z</time></trkpt><trkpt lat="44.4634438" lon="10.4830692"><ele>689.0</ele><time>2026-04-19T14:10:33.981Z</time></trkpt><trkpt lat="44.4634857" lon="10.4832474"><ele>689.0</ele><time>2026-04-19T14:10:34.982Z</time></trkpt><trkpt lat="44.4635068" lon="10.4834457"><ele>689.0</ele><time>2026-04-19T14:10:35.982Z</time></trkpt><trkpt lat="44.4635013" lon="10.4836573"><ele>689.0</ele><time>2026-04-19T14:10:36.982Z</time></trkpt><trkpt lat="44.4634871" lon="10.4838714"><ele>689.6666666666666</ele><time>2026-04-19T14:10:37.981Z</time></trkpt><trkpt lat="44.4634847" lon="10.4840825"><ele>690.3333333333334</ele><time>2026-04-19T14:10:38.983Z</time></trkpt><trkpt lat="44.4634953" lon="10.4842956"><ele>691.0</ele><time>2026-04-19T14:10:39.983Z</time></trkpt><trkpt lat="44.4635204" lon="10.4844998"><ele>689.25</ele><time>2026-04-19T14:10:40.983Z</time></trkpt><trkpt lat="44.4635555" lon="10.4846985"><ele>687.5</ele><time>2026-04-19T14:10:41.982Z</time></trkpt><trkpt lat="44.4635956" lon="10.4848961"><ele>685.75</ele><time>2026-04-19T14:10:42.982Z</time></trkpt><trkpt lat="44.4636394" lon="10.4850965"><ele>684.0</ele><time>2026-04-19T14:10:43.982Z</time></trkpt><trkpt lat="44.4636869" lon="10.4852969"><ele>682.0</ele><time>2026-04-19T14:10:44.983Z</time></trkpt><trkpt lat="44.463731" lon="10.4854893"><ele>680.0</ele><time>2026-04-19T14:10:45.983Z</time></trkpt><trkpt lat="44.4637734" lon="10.4856672"><ele>678.0</ele><time>2026-04-19T14:10:46.981Z</time></trkpt><trkpt lat="44.463815" lon="10.4858326"><ele>676.0</ele><time>2026-04-19T14:10:47.983Z</time></trkpt><trkpt lat="44.4638586" lon="10.4859917"><ele>679.5</ele><time>2026-04-19T14:10:48.983Z</time></trkpt><trkpt lat="44.4639148" lon="10.4861506"><ele>683.0</ele><time>2026-04-19T14:10:49.983Z</time></trkpt><trkpt lat="44.4639855" lon="10.4863026"><ele>686.5</ele><time>2026-04-19T14:10:50.983Z</time></trkpt><trkpt lat="44.4640738" lon="10.4864387"><ele>690.0</ele><time>2026-04-19T14:10:51.981Z</time></trkpt><trkpt lat="44.4641804" lon="10.4865513"><ele>690.0</ele><time>2026-04-19T14:10:52.983Z</time></trkpt><trkpt lat="44.4643021" lon="10.4866418"><ele>690.0</ele><time>2026-04-19T14:10:53.983Z</time></trkpt><trkpt lat="44.4644436" lon="10.4867181"><ele>690.0</ele><time>2026-04-19T14:10:54.982Z</time></trkpt><trkpt lat="44.4645883" lon="10.4867827"><ele>690.0</ele><time>2026-04-19T14:10:55.982Z</time></trkpt><trkpt lat="44.464725" lon="10.4868406"><ele>692.0</ele><time>2026-04-19T14:10:56.981Z</time></trkpt><trkpt lat="44.4648558" lon="10.4868944"><ele>694.0</ele><time>2026-04-19T14:10:57.983Z</time></trkpt><trkpt lat="44.4649903" lon="10.4869462"><ele>696.0</ele><time>2026-04-19T14:10:58.982Z</time></trkpt><trkpt lat="44.4651286" lon="10.4869933"><ele>698.0</ele><time>2026-04-19T14:10:59.983Z</time></trkpt><trkpt lat="44.4652734" lon="10.4870262"><ele>698.0</ele><time>2026-04-19T14:11:00.981Z</time></trkpt><trkpt lat="44.4654248" lon="10.4870492"><ele>698.0</ele><time>2026-04-19T14:11:01.982Z</time></trkpt><trkpt lat="44.4655794" lon="10.4870652"><ele>698.0</ele><time>2026-04-19T14:11:02.983Z</time></trkpt><trkpt lat="44.4657365" lon="10.4870747"><ele>699.3333333333333</ele><time>2026-04-19T14:11:03.982Z</time></trkpt><trkpt lat="44.4658924" lon="10.4870839"><ele>700.6666666666666</ele><time>2026-04-19T14:11:04.983Z</time></trkpt><trkpt lat="44.4660449" lon="10.4870909"><ele>702.0</ele><time>2026-04-19T14:11:05.982Z</time></trkpt><trkpt lat="44.4661971" lon="10.4871003"><ele>699.75</ele><time>2026-04-19T14:11:06.983Z</time></trkpt><trkpt lat="44.4663452" lon="10.4871116"><ele>697.5</ele><time>2026-04-19T14:11:07.983Z</time></trkpt><trkpt lat="44.4664945" lon="10.4871227"><ele>695.25</ele><time>2026-04-19T14:11:08.982Z</time></trkpt><trkpt lat="44.4666456" lon="10.4871324"><ele>693.0</ele><time>2026-04-19T14:11:09.982Z</time></trkpt><trkpt lat="44.466798" lon="10.4871435"><ele>693.0</ele><time>2026-04-19T14:11:10.983Z</time></trkpt><trkpt lat="44.4669465" lon="10.4871555"><ele>693.0</ele><time>2026-04-19T14:11:11.982Z</time></trkpt><trkpt lat="44.4670842" lon="10.4871648"><ele>693.0</ele><time>2026-04-19T14:11:12.981Z</time></trkpt><trkpt lat="44.467218" lon="10.4871744"><ele>693.0</ele><time>2026-04-19T14:11:13.982Z</time></trkpt><trkpt lat="44.4673486" lon="10.4872005"><ele>693.5</ele><time>2026-04-19T14:11:14.981Z</time></trkpt><trkpt lat="44.4674768" lon="10.4872576"><ele>694.0</ele><time>2026-04-19T14:11:15.982Z</time></trkpt><trkpt lat="44.4675994" lon="10.487343"><ele>694.5</ele><time>2026-04-19T14:11:16.982Z</time></trkpt><trkpt lat="44.4677202" lon="10.4874518"><ele>695.0</ele><time>2026-04-19T14:11:17.982Z</time></trkpt><trkpt lat="44.4678338" lon="10.4875699"><ele>695.0</ele><time>2026-04-19T14:11:18.982Z</time></trkpt><trkpt lat="44.4679299" lon="10.487705"><ele>695.0</ele><time>2026-04-19T14:11:19.983Z</time></trkpt><trkpt lat="44.4680094" lon="10.4878505"><ele>695.0</ele><time>2026-04-19T14:11:20.982Z</time></trkpt><trkpt lat="44.4680814" lon="10.4880131"><ele>695.0</ele><time>2026-04-19T14:11:21.983Z</time></trkpt><trkpt lat="44.4681454" lon="10.4881769"><ele>696.0</ele><time>2026-04-19T14:11:22.982Z</time></trkpt><trkpt lat="44.4682104" lon="10.4883255"><ele>697.0</ele><time>2026-04-19T14:11:23.982Z</time></trkpt><trkpt lat="44.4682856" lon="10.4884646"><ele>698.0</ele><time>2026-04-19T14:11:24.982Z</time></trkpt><trkpt lat="44.4683826" lon="10.4885872"><ele>699.0</ele><time>2026-04-19T14:11:25.982Z</time></trkpt><trkpt lat="44.4684972" lon="10.4886944"><ele>698.75</ele><time>2026-04-19T14:11:26.983Z</time></trkpt><trkpt lat="44.4686225" lon="10.488782"><ele>698.5</ele><time>2026-04-19T14:11:27.983Z</time></trkpt><trkpt lat="44.4687551" lon="10.4888571"><ele>698.25</ele><time>2026-04-19T14:11:28.983Z</time></trkpt><trkpt lat="44.468892" lon="10.4889301"><ele>698.0</ele><time>2026-04-19T14:11:29.983Z</time></trkpt><trkpt lat="44.4690286" lon="10.488999"><ele>698.0</ele><time>2026-04-19T14:11:30.983Z</time></trkpt><trkpt lat="44.4691558" lon="10.4890614"><ele>698.0</ele><time>2026-04-19T14:11:31.983Z</time></trkpt><trkpt lat="44.4692794" lon="10.4891247"><ele>698.0</ele><time>2026-04-19T14:11:32.982Z</time></trkpt><trkpt lat="44.4694104" lon="10.4891914"><ele>698.0</ele><time>2026-04-19T14:11:33.981Z</time></trkpt><trkpt lat="44.469536" lon="10.4892535"><ele>698.25</ele><time>2026-04-19T14:11:34.983Z</time></trkpt><trkpt lat="44.469668" lon="10.48932"><ele>698.5</ele><time>2026-04-19T14:11:35.983Z</time></trkpt><trkpt lat="44.4698041" lon="10.4893877"><ele>698.75</ele><time>2026-04-19T14:11:36.982Z</time></trkpt><trkpt lat="44.4699414" lon="10.4894572"><ele>699.0</ele><time>2026-04-19T14:11:37.983Z</time></trkpt><trkpt lat="44.4700806" lon="10.4895285"><ele>697.0</ele><time>2026-04-19T14:11:38.983Z</time></trkpt><trkpt lat="44.4702256" lon="10.489601"><ele>695.0</ele><time>2026-04-19T14:11:39.981Z</time></trkpt><trkpt lat="44.470371" lon="10.4896726"><ele>693.0</ele><time>2026-04-19T14:11:40.982Z</time></trkpt><trkpt lat="44.4705155" lon="10.4897444"><ele>693.0</ele><time>2026-04-19T14:11:41.983Z</time></trkpt><trkpt lat="44.4706551" lon="10.4898168"><ele>693.0</ele><time>2026-04-19T14:11:42.982Z</time></trkpt><trkpt lat="44.470791" lon="10.4898859"><ele>693.0</ele><time>2026-04-19T14:11:43.982Z</time></trkpt><trkpt lat="44.470933" lon="10.4899569"><ele>693.0</ele><time>2026-04-19T14:11:44.982Z</time></trkpt><trkpt lat="44.4710792" lon="10.4900299"><ele>693.0</ele><time>2026-04-19T14:11:45.982Z</time></trkpt><trkpt lat="44.471221" lon="10.4901035"><ele>693.0</ele><time>2026-04-19T14:11:46.982Z</time></trkpt><trkpt lat="44.4713609" lon="10.4901753"><ele>693.0</ele><time>2026-04-19T14:11:47.983Z</time></trkpt><trkpt lat="44.4715066" lon="10.4902475"><ele>693.3333333333334</ele><time>2026-04-19T14:11:48.983Z</time></trkpt><trkpt lat="44.471661" lon="10.4903226"><ele>693.6666666666667</ele><time>2026-04-19T14:11:49.983Z</time></trkpt><trkpt lat="44.4718158" lon="10.4903983"><ele>694.0</ele><time>2026-04-19T14:11:50.982Z</time></trkpt><trkpt lat="44.4719756" lon="10.4904774"><ele>696.0</ele><time>2026-04-19T14:11:51.982Z</time></trkpt><trkpt lat="44.4721383" lon="10.4905544"><ele>698.0</ele><time>2026-04-19T14:11:52.982Z</time></trkpt><trkpt lat="44.4723055" lon="10.4906287"><ele>700.0</ele><time>2026-04-19T14:11:53.982Z</time></trkpt><trkpt lat="44.4724729" lon="10.4907023"><ele>700.0</ele><time>2026-04-19T14:11:54.983Z</time></trkpt><trkpt lat="44.4726478" lon="10.4907633"><ele>700.0</ele><time>2026-04-19T14:11:55.982Z</time></trkpt><trkpt lat="44.4728204" lon="10.4908295"><ele>700.0</ele><time>2026-04-19T14:11:56.983Z</time></trkpt><trkpt lat="44.472997" lon="10.4908893"><ele>704.3333333333334</ele><time>2026-04-19T14:11:57.983Z</time></trkpt><trkpt lat="44.4731679" lon="10.4909509"><ele>708.6666666666666</ele><time>2026-04-19T14:11:58.982Z</time></trkpt><trkpt lat="44.4733397" lon="10.4910107"><ele>713.0</ele><time>2026-04-19T14:11:59.982Z</time></trkpt><trkpt lat="44.4951417" lon="10.4881513"><ele>681.0</ele><time>2026-04-19T14:13:56.983Z</time></trkpt><trkpt lat="44.4953223" lon="10.488194"><ele>649.0</ele><time>2026-04-19T14:13:57.982Z</time></trkpt><trkpt lat="44.495503" lon="10.4882415"><ele>617.0</ele><time>2026-04-19T14:13:58.983Z</time></trkpt><trkpt lat="44.4956896" lon="10.4882912"><ele>616.3333333333333</ele><time>2026-04-19T14:13:59.982Z</time></trkpt><trkpt lat="44.4958772" lon="10.4883381"><ele>615.6666666666666</ele><time>2026-04-19T14:14:00.982Z</time></trkpt><trkpt lat="44.4960672" lon="10.4883802"><ele>615.0</ele><time>2026-04-19T14:14:01.983Z</time></trkpt><trkpt lat="44.4962569" lon="10.4884169"><ele>615.0</ele><time>2026-04-19T14:14:02.982Z</time></trkpt><trkpt lat="44.4964483" lon="10.4884467"><ele>615.0</ele><time>2026-04-19T14:14:03.983Z</time></trkpt><trkpt lat="44.4966455" lon="10.4884695"><ele>615.0</ele><time>2026-04-19T14:14:04.982Z</time></trkpt><trkpt lat="44.4968391" lon="10.4884895"><ele>615.0</ele><time>2026-04-19T14:14:05.983Z</time></trkpt><trkpt lat="44.4970302" lon="10.488504"><ele>615.0</ele><time>2026-04-19T14:14:06.982Z</time></trkpt><trkpt lat="44.4972171" lon="10.488511"><ele>615.0</ele><time>2026-04-19T14:14:07.981Z</time></trkpt><trkpt lat="44.4974052" lon="10.4885109"><ele>615.6666666666666</ele><time>2026-04-19T14:14:08.983Z</time></trkpt><trkpt lat="44.4975906" lon="10.488508"><ele>616.3333333333333</ele><time>2026-04-19T14:14:09.983Z</time></trkpt><trkpt lat="44.4977816" lon="10.4884998"><ele>617.0</ele><time>2026-04-19T14:14:10.982Z</time></trkpt><trkpt lat="44.497972" lon="10.4884879"><ele>613.0</ele><time>2026-04-19T14:14:11.982Z</time></trkpt><trkpt lat="44.4981647" lon="10.4884707"><ele>609.0</ele><time>2026-04-19T14:14:12.983Z</time></trkpt><trkpt lat="44.498359" lon="10.4884472"><ele>605.0</ele><time>2026-04-19T14:14:13.983Z</time></trkpt><trkpt lat="44.4985568" lon="10.4884246"><ele>605.0</ele><time>2026-04-19T14:14:14.982Z</time></trkpt><trkpt lat="44.4987557" lon="10.4884013"><ele>605.0</ele><time>2026-04-19T14:14:15.982Z</time></trkpt><trkpt lat="44.4989507" lon="10.4883745"><ele>605.0</ele><time>2026-04-19T14:14:16.983Z</time></trkpt><trkpt lat="44.4991497" lon="10.4883488"><ele>605.0</ele><time>2026-04-19T14:14:17.982Z</time></trkpt><trkpt lat="44.4993494" lon="10.4883252"><ele>605.0</ele><time>2026-04-19T14:14:18.983Z</time></trkpt><trkpt lat="44.4995513" lon="10.4883047"><ele>605.0</ele><time>2026-04-19T14:14:19.982Z</time></trkpt><trkpt lat="44.4997515" lon="10.4882784"><ele>609.0</ele><time>2026-04-19T14:14:20.982Z</time></trkpt><trkpt lat="44.4999601" lon="10.4882491"><ele>613.0</ele><time>2026-04-19T14:14:21.983Z</time></trkpt><trkpt lat="44.5001652" lon="10.4882205"><ele>617.0</ele><time>2026-04-19T14:14:22.982Z</time></trkpt><trkpt lat="44.5085946" lon="10.4932649"><ele>591.3333333333333</ele><time>2026-04-19T14:15:03.983Z</time></trkpt><trkpt lat="44.5087619" lon="10.4932629"><ele>565.6666666666666</ele><time>2026-04-19T14:15:04.983Z</time></trkpt><trkpt lat="44.508934" lon="10.4932659"><ele>540.0</ele><time>2026-04-19T14:15:05.983Z</time></trkpt><trkpt lat="44.5090994" lon="10.4932635"><ele>540.0</ele><time>2026-04-19T14:15:06.983Z</time></trkpt><trkpt lat="44.5092694" lon="10.4932602"><ele>540.0</ele><time>2026-04-19T14:15:07.982Z</time></trkpt><trkpt lat="44.5094258" lon="10.493253"><ele>540.0</ele><time>2026-04-19T14:15:08.983Z</time></trkpt><trkpt lat="44.5095666" lon="10.4932436"><ele>539.5</ele><time>2026-04-19T14:15:09.982Z</time></trkpt><trkpt lat="44.5096957" lon="10.4932352"><ele>539.0</ele><time>2026-04-19T14:15:10.982Z</time></trkpt><trkpt lat="44.5098116" lon="10.4932316"><ele>538.5</ele><time>2026-04-19T14:15:11.983Z</time></trkpt><trkpt lat="44.5099173" lon="10.4932309"><ele>538.0</ele><time>2026-04-19T14:15:12.982Z</time></trkpt><trkpt lat="44.5100169" lon="10.4932302"><ele>538.0</ele><time>2026-04-19T14:15:13.983Z</time></trkpt><trkpt lat="44.5101208" lon="10.4932222"><ele>538.0</ele><time>2026-04-19T14:15:14.983Z</time></trkpt><trkpt lat="44.5102289" lon="10.4932125"><ele>538.0</ele><time>2026-04-19T14:15:15.983Z</time></trkpt><trkpt lat="44.5103406" lon="10.4932025"><ele>538.0</ele><time>2026-04-19T14:15:16.983Z</time></trkpt><trkpt lat="44.5104423" lon="10.4931928"><ele>538.0</ele><time>2026-04-19T14:15:17.982Z</time></trkpt><trkpt lat="44.5105313" lon="10.493186"><ele>538.7142857142858</ele><time>2026-04-19T14:15:18.982Z</time></trkpt><trkpt lat="44.510608" lon="10.4931857"><ele>539.4285714285714</ele><time>2026-04-19T14:15:19.982Z</time></trkpt><trkpt lat="44.5106816" lon="10.4931955"><ele>540.1428571428571</ele><time>2026-04-19T14:15:20.983Z</time></trkpt><trkpt lat="44.5107452" lon="10.4932225"><ele>540.8571428571429</ele><time>2026-04-19T14:15:21.983Z</time></trkpt><trkpt lat="44.510805" lon="10.4932709"><ele>541.5714285714286</ele><time>2026-04-19T14:15:22.983Z</time></trkpt><trkpt lat="44.5108548" lon="10.4933392"><ele>542.2857142857143</ele><time>2026-04-19T14:15:23.982Z</time></trkpt><trkpt lat="44.5108939" lon="10.4934314"><ele>543.0</ele><time>2026-04-19T14:15:24.983Z</time></trkpt><trkpt lat="44.510916" lon="10.4935388"><ele>543.0</ele><time>2026-04-19T14:15:25.983Z</time></trkpt><trkpt lat="44.5109225" lon="10.49365"><ele>543.0</ele><time>2026-04-19T14:15:26.983Z</time></trkpt><trkpt lat="44.5109211" lon="10.4937522"><ele>543.0</ele><time>2026-04-19T14:15:27.982Z</time></trkpt><trkpt lat="44.5109136" lon="10.4938587"><ele>543.0</ele><time>2026-04-19T14:15:28.983Z</time></trkpt><trkpt lat="44.5108923" lon="10.4940128"><ele>543.0</ele><time>2026-04-19T14:15:30.982Z</time></trkpt><trkpt lat="44.510869" lon="10.4940957"><ele>543.0</ele><time>2026-04-19T14:15:31.983Z</time></trkpt><trkpt lat="44.5108334" lon="10.4941781"><ele>544.0</ele><time>2026-04-19T14:15:32.982Z</time></trkpt><trkpt lat="44.5107882" lon="10.4942598"><ele>545.0</ele><time>2026-04-19T14:15:33.982Z</time></trkpt><trkpt lat="44.5107421" lon="10.4943336"><ele>546.0</ele><time>2026-04-19T14:15:34.983Z</time></trkpt><trkpt lat="44.5106487" lon="10.4944456"><ele>547.0</ele><time>2026-04-19T14:15:36.983Z</time></trkpt><trkpt lat="44.5105576" lon="10.4945465"><ele>548.0</ele><time>2026-04-19T14:15:38.982Z</time></trkpt><trkpt lat="44.5104862" lon="10.4946181"><ele>547.6666666666666</ele><time>2026-04-19T14:15:40.982Z</time></trkpt><trkpt lat="44.5104335" lon="10.4947454"><ele>547.3333333333333</ele><time>2026-04-19T14:24:37.981Z</time></trkpt><trkpt lat="44.5103763" lon="10.4948502"><ele>547.0</ele><time>2026-04-19T14:24:39.98Z</time></trkpt><trkpt lat="44.5103263" lon="10.4949385"><ele>546.6666666666666</ele><time>2026-04-19T14:24:40.98Z</time></trkpt><trkpt lat="44.5102738" lon="10.4950239"><ele>546.3333333333334</ele><time>2026-04-19T14:24:41.98Z</time></trkpt><trkpt lat="44.5102213" lon="10.4951216"><ele>546.0</ele><time>2026-04-19T14:24:42.98Z</time></trkpt><trkpt lat="44.5101793" lon="10.4952306"><ele>546.0</ele><time>2026-04-19T14:24:43.981Z</time></trkpt><trkpt lat="44.5101453" lon="10.495343"><ele>546.0</ele><time>2026-04-19T14:24:44.981Z</time></trkpt><trkpt lat="44.5101197" lon="10.4954656"><ele>546.0</ele><time>2026-04-19T14:24:45.981Z</time></trkpt><trkpt lat="44.5100995" lon="10.4956032"><ele>546.0</ele><time>2026-04-19T14:24:46.981Z</time></trkpt><trkpt lat="44.5100864" lon="10.4957492"><ele>546.0</ele><time>2026-04-19T14:24:47.98Z</time></trkpt><trkpt lat="44.5100811" lon="10.4958844"><ele>547.0</ele><time>2026-04-19T14:24:48.98Z</time></trkpt><trkpt lat="44.5100781" lon="10.4960175"><ele>548.0</ele><time>2026-04-19T14:24:49.98Z</time></trkpt><trkpt lat="44.5100737" lon="10.4961453"><ele>549.0</ele><time>2026-04-19T14:24:50.979Z</time></trkpt><trkpt lat="44.510068" lon="10.4962698"><ele>550.0</ele><time>2026-04-19T14:24:51.98Z</time></trkpt><trkpt lat="44.51006" lon="10.4963702"><ele>551.0</ele><time>2026-04-19T14:24:52.981Z</time></trkpt><trkpt lat="44.5100445" lon="10.496524"><ele>551.8333333333333</ele><time>2026-04-19T14:24:54.981Z</time></trkpt><trkpt lat="44.5100232" lon="10.4966088"><ele>552.6666666666666</ele><time>2026-04-19T14:24:55.981Z</time></trkpt><trkpt lat="44.5099854" lon="10.4966936"><ele>553.5</ele><time>2026-04-19T14:24:56.98Z</time></trkpt><trkpt lat="44.5099333" lon="10.4967814"><ele>554.3333333333334</ele><time>2026-04-19T14:24:57.98Z</time></trkpt><trkpt lat="44.5098691" lon="10.4968682"><ele>555.1666666666667</ele><time>2026-04-19T14:24:58.981Z</time></trkpt><trkpt lat="44.509803" lon="10.4969657"><ele>556.0</ele><time>2026-04-19T14:24:59.98Z</time></trkpt><trkpt lat="44.5097453" lon="10.4970702"><ele>555.4</ele><time>2026-04-19T14:25:00.981Z</time></trkpt><trkpt lat="44.509696" lon="10.4971683"><ele>554.8</ele><time>2026-04-19T14:25:01.981Z</time></trkpt><trkpt lat="44.5096466" lon="10.4972737"><ele>554.1999999999999</ele><time>2026-04-19T14:25:02.98Z</time></trkpt><trkpt lat="44.5096012" lon="10.4973829"><ele>553.6</ele><time>2026-04-19T14:25:03.98Z</time></trkpt><trkpt lat="44.5095615" lon="10.4974805"><ele>553.0</ele><time>2026-04-19T14:25:04.981Z</time></trkpt><trkpt lat="44.5095008" lon="10.4976294"><ele>553.0</ele><time>2026-04-19T14:25:06.981Z</time></trkpt><trkpt lat="44.5094415" lon="10.4977561"><ele>553.0</ele><time>2026-04-19T14:25:08.98Z</time></trkpt><trkpt lat="44.5093634" lon="10.497835"><ele>553.0</ele><time>2026-04-19T14:25:10.981Z</time></trkpt><trkpt lat="44.5092559" lon="10.4978146"><ele>553.0</ele><time>2026-04-19T14:25:12.98Z</time></trkpt><trkpt lat="44.5091857" lon="10.4977732"><ele>553.0</ele><time>2026-04-19T14:25:13.979Z</time></trkpt><trkpt lat="44.5091082" lon="10.4977197"><ele>553.0</ele><time>2026-04-19T14:25:14.981Z</time></trkpt><trkpt lat="44.5090218" lon="10.4976551"><ele>553.0</ele><time>2026-04-19T14:25:15.981Z</time></trkpt><trkpt lat="44.5089396" lon="10.4976007"><ele>553.0</ele><time>2026-04-19T14:25:16.981Z</time></trkpt><trkpt lat="44.5088608" lon="10.4975526"><ele>553.0</ele><time>2026-04-19T14:25:17.98Z</time></trkpt><trkpt lat="44.5087788" lon="10.4975097"><ele>553.0</ele><time>2026-04-19T14:25:18.98Z</time></trkpt><trkpt lat="44.5086929" lon="10.4974808"><ele>552.1428571428571</ele><time>2026-04-19T14:25:19.981Z</time></trkpt><trkpt lat="44.5086099" lon="10.4974778"><ele>551.2857142857142</ele><time>2026-04-19T14:25:20.981Z</time></trkpt><trkpt lat="44.5085349" lon="10.4974964"><ele>550.4285714285714</ele><time>2026-04-19T14:25:21.981Z</time></trkpt><trkpt lat="44.5084667" lon="10.4975326"><ele>549.5714285714286</ele><time>2026-04-19T14:25:22.98Z</time></trkpt><trkpt lat="44.5084057" lon="10.4975804"><ele>548.7142857142857</ele><time>2026-04-19T14:25:23.981Z</time></trkpt><trkpt lat="44.508343" lon="10.4976264"><ele>547.8571428571429</ele><time>2026-04-19T14:25:24.98Z</time></trkpt><trkpt lat="44.5082788" lon="10.4976616"><ele>547.0</ele><time>2026-04-19T14:25:25.98Z</time></trkpt><trkpt lat="44.5082124" lon="10.4976736"><ele>547.0</ele><time>2026-04-19T14:25:26.981Z</time></trkpt><trkpt lat="44.5080986" lon="10.4976679"><ele>547.0</ele><time>2026-04-19T14:25:28.979Z</time></trkpt><trkpt lat="44.5079964" lon="10.4977495"><ele>547.0</ele><time>2026-04-19T14:25:30.981Z</time></trkpt><trkpt lat="44.5079501" lon="10.4978237"><ele>547.0</ele><time>2026-04-19T14:25:31.98Z</time></trkpt><trkpt lat="44.5078966" lon="10.4979241"><ele>547.0</ele><time>2026-04-19T14:25:32.979Z</time></trkpt><trkpt lat="44.5078345" lon="10.498049"><ele>548.1666666666667</ele><time>2026-04-19T14:25:33.98Z</time></trkpt><trkpt lat="44.5077682" lon="10.4981802"><ele>549.3333333333334</ele><time>2026-04-19T14:25:34.981Z</time></trkpt><trkpt lat="44.5077129" lon="10.4982826"><ele>550.5</ele><time>2026-04-19T14:25:35.981Z</time></trkpt><trkpt lat="44.5076579" lon="10.498375"><ele>551.6666666666666</ele><time>2026-04-19T14:25:36.98Z</time></trkpt><trkpt lat="44.5076084" lon="10.4984481"><ele>552.8333333333333</ele><time>2026-04-19T14:25:37.98Z</time></trkpt><trkpt lat="44.507562" lon="10.4985145"><ele>554.0</ele><time>2026-04-19T14:25:38.981Z</time></trkpt><trkpt lat="44.507497" lon="10.4986212"><ele>554.0</ele><time>2026-04-19T14:25:40.979Z</time></trkpt><trkpt lat="44.5074856" lon="10.4987446"><ele>554.0</ele><time>2026-04-19T14:25:42.979Z</time></trkpt><trkpt lat="44.5075556" lon="10.4988532"><ele>554.0</ele><time>2026-04-19T14:25:44.979Z</time></trkpt><trkpt lat="44.507621" lon="10.4988851"><ele>554.0</ele><time>2026-04-19T14:25:45.98Z</time></trkpt><trkpt lat="44.5076941" lon="10.4988972"><ele>554.0</ele><time>2026-04-19T14:25:46.98Z</time></trkpt><trkpt lat="44.5077738" lon="10.4988969"><ele>554.0</ele><time>2026-04-19T14:25:47.981Z</time></trkpt><trkpt lat="44.5078609" lon="10.4988809"><ele>554.2</ele><time>2026-04-19T14:25:48.979Z</time></trkpt><trkpt lat="44.5079596" lon="10.4988553"><ele>554.4</ele><time>2026-04-19T14:25:49.98Z</time></trkpt><trkpt lat="44.5080646" lon="10.498826"><ele>554.6</ele><time>2026-04-19T14:25:50.98Z</time></trkpt><trkpt lat="44.5081767" lon="10.4987936"><ele>554.8</ele><time>2026-04-19T14:25:51.981Z</time></trkpt><trkpt lat="44.5082905" lon="10.4987617"><ele>555.0</ele><time>2026-04-19T14:25:52.979Z</time></trkpt><trkpt lat="44.5084164" lon="10.4987271"><ele>554.5</ele><time>2026-04-19T14:25:53.979Z</time></trkpt><trkpt lat="44.5085465" lon="10.4986853"><ele>554.0</ele><time>2026-04-19T14:25:54.98Z</time></trkpt><trkpt lat="44.5086805" lon="10.4986341"><ele>553.5</ele><time>2026-04-19T14:25:55.98Z</time></trkpt><trkpt lat="44.5088181" lon="10.4985718"><ele>553.0</ele><time>2026-04-19T14:25:56.981Z</time></trkpt><trkpt lat="44.5089516" lon="10.4985073"><ele>555.0</ele><time>2026-04-19T14:25:57.98Z</time></trkpt><trkpt lat="44.5090744" lon="10.4984532"><ele>557.0</ele><time>2026-04-19T14:25:58.98Z</time></trkpt><trkpt lat="44.5092004" lon="10.49841"><ele>559.0</ele><time>2026-04-19T14:25:59.981Z</time></trkpt><trkpt lat="44.5093207" lon="10.4983966"><ele>561.0</ele><time>2026-04-19T14:26:00.979Z</time></trkpt><trkpt lat="44.5094262" lon="10.498423"><ele>561.0</ele><time>2026-04-19T14:26:01.98Z</time></trkpt><trkpt lat="44.5095174" lon="10.4984732"><ele>561.0</ele><time>2026-04-19T14:26:02.979Z</time></trkpt><trkpt lat="44.5096053" lon="10.4985402"><ele>561.0</ele><time>2026-04-19T14:26:03.979Z</time></trkpt><trkpt lat="44.5096894" lon="10.4986231"><ele>561.0</ele><time>2026-04-19T14:26:04.98Z</time></trkpt><trkpt lat="44.5097725" lon="10.4987113"><ele>561.0</ele><time>2026-04-19T14:26:05.98Z</time></trkpt><trkpt lat="44.509853" lon="10.4987931"><ele>562.8</ele><time>2026-04-19T14:26:06.979Z</time></trkpt><trkpt lat="44.5099333" lon="10.4988679"><ele>564.6</ele><time>2026-04-19T14:26:07.98Z</time></trkpt><trkpt lat="44.5100128" lon="10.4989377"><ele>566.4</ele><time>2026-04-19T14:26:08.981Z</time></trkpt><trkpt lat="44.5100929" lon="10.4990054"><ele>568.2</ele><time>2026-04-19T14:26:09.98Z</time></trkpt><trkpt lat="44.5101728" lon="10.4990669"><ele>570.0</ele><time>2026-04-19T14:26:10.981Z</time></trkpt><trkpt lat="44.5102447" lon="10.4991153"><ele>570.0</ele><time>2026-04-19T14:26:11.98Z</time></trkpt><trkpt lat="44.5103103" lon="10.4991571"><ele>570.0</ele><time>2026-04-19T14:26:12.981Z</time></trkpt><trkpt lat="44.5104152" lon="10.4992266"><ele>570.0</ele><time>2026-04-19T14:26:14.981Z</time></trkpt><trkpt lat="44.5104574" lon="10.4993301"><ele>570.0</ele><time>2026-04-19T14:26:16.981Z</time></trkpt><trkpt lat="44.5104323" lon="10.4994727"><ele>570.0</ele><time>2026-04-19T14:26:18.979Z</time></trkpt><trkpt lat="44.5104039" lon="10.4995625"><ele>570.0</ele><time>2026-04-19T14:26:19.98Z</time></trkpt><trkpt lat="44.5103682" lon="10.4996542"><ele>571.3333333333334</ele><time>2026-04-19T14:26:20.98Z</time></trkpt><trkpt lat="44.5103315" lon="10.4997552"><ele>572.6666666666666</ele><time>2026-04-19T14:26:21.98Z</time></trkpt><trkpt lat="44.5102943" lon="10.4998641"><ele>574.0</ele><time>2026-04-19T14:26:22.981Z</time></trkpt><trkpt lat="44.5102555" lon="10.4999763"><ele>575.3333333333333</ele><time>2026-04-19T14:26:23.98Z</time></trkpt><trkpt lat="44.5102168" lon="10.5000868"><ele>576.6666666666666</ele><time>2026-04-19T14:26:24.981Z</time></trkpt><trkpt lat="44.5101787" lon="10.5001925"><ele>578.0</ele><time>2026-04-19T14:26:25.98Z</time></trkpt><trkpt lat="44.5101383" lon="10.5002975"><ele>578.0</ele><time>2026-04-19T14:26:26.981Z</time></trkpt><trkpt lat="44.510103" lon="10.500411"><ele>578.0</ele><time>2026-04-19T14:26:27.98Z</time></trkpt><trkpt lat="44.5100706" lon="10.5005355"><ele>578.0</ele><time>2026-04-19T14:26:28.981Z</time></trkpt><trkpt lat="44.5100469" lon="10.5006703"><ele>578.0</ele><time>2026-04-19T14:26:29.98Z</time></trkpt><trkpt lat="44.5100218" lon="10.5008066"><ele>578.0</ele><time>2026-04-19T14:26:30.98Z</time></trkpt><trkpt lat="44.5099959" lon="10.5009425"><ele>578.6</ele><time>2026-04-19T14:26:31.981Z</time></trkpt><trkpt lat="44.5099684" lon="10.5010927"><ele>579.1999999999999</ele><time>2026-04-19T14:26:32.98Z</time></trkpt><trkpt lat="44.5099415" lon="10.5012253"><ele>579.8</ele><time>2026-04-19T14:26:33.981Z</time></trkpt><trkpt lat="44.5099187" lon="10.5013522"><ele>580.4</ele><time>2026-04-19T14:26:34.981Z</time></trkpt><trkpt lat="44.5098963" lon="10.5014786"><ele>581.0</ele><time>2026-04-19T14:26:35.981Z</time></trkpt><trkpt lat="44.5098746" lon="10.5015991"><ele>581.0</ele><time>2026-04-19T14:26:36.981Z</time></trkpt><trkpt lat="44.509857" lon="10.5016884"><ele>581.0</ele><time>2026-04-19T14:26:37.981Z</time></trkpt><trkpt lat="44.5098384" lon="10.5017803"><ele>581.0</ele><time>2026-04-19T14:26:39.98Z</time></trkpt><trkpt lat="44.5098086" lon="10.5019066"><ele>581.0</ele><time>2026-04-19T14:26:42.979Z</time></trkpt><trkpt lat="44.5098074" lon="10.5020074"><ele>581.0</ele><time>2026-04-19T14:26:45.98Z</time></trkpt><trkpt lat="44.5097733" lon="10.5021694"><ele>581.0</ele><time>2026-04-19T14:26:47.98Z</time></trkpt><trkpt lat="44.5097593" lon="10.5022738"><ele>579.8</ele><time>2026-04-19T14:26:48.98Z</time></trkpt><trkpt lat="44.5097492" lon="10.5023993"><ele>578.6</ele><time>2026-04-19T14:26:49.98Z</time></trkpt><trkpt lat="44.5097434" lon="10.5025379"><ele>577.4</ele><time>2026-04-19T14:26:50.98Z</time></trkpt><trkpt lat="44.5097371" lon="10.502696"><ele>576.2</ele><time>2026-04-19T14:26:51.981Z</time></trkpt><trkpt lat="44.5097294" lon="10.5028555"><ele>575.0</ele><time>2026-04-19T14:26:52.981Z</time></trkpt><trkpt lat="44.5097244" lon="10.5030417"><ele>573.3333333333333</ele><time>2026-04-19T14:26:53.981Z</time></trkpt><trkpt lat="44.5097162" lon="10.5032471"><ele>571.6666666666666</ele><time>2026-04-19T14:26:54.981Z</time></trkpt><trkpt lat="44.5097064" lon="10.5034709"><ele>570.0</ele><time>2026-04-19T14:26:55.98Z</time></trkpt><trkpt lat="44.5096947" lon="10.5037109"><ele>569.3333333333334</ele><time>2026-04-19T14:26:56.981Z</time></trkpt><trkpt lat="44.5096791" lon="10.5039452"><ele>568.6666666666667</ele><time>2026-04-19T14:26:57.979Z</time></trkpt><trkpt lat="44.5096604" lon="10.5041675"><ele>568.0</ele><time>2026-04-19T14:26:58.981Z</time></trkpt><trkpt lat="44.5096361" lon="10.5043856"><ele>566.5</ele><time>2026-04-19T14:26:59.98Z</time></trkpt><trkpt lat="44.5096075" lon="10.504594"><ele>565.0</ele><time>2026-04-19T14:27:00.98Z</time></trkpt><trkpt lat="44.5095767" lon="10.5047902"><ele>563.5</ele><time>2026-04-19T14:27:01.981Z</time></trkpt><trkpt lat="44.5095413" lon="10.504963"><ele>562.0</ele><time>2026-04-19T14:27:02.981Z</time></trkpt><trkpt lat="44.5095051" lon="10.5051169"><ele>568.25</ele><time>2026-04-19T14:27:03.98Z</time></trkpt><trkpt lat="44.509468" lon="10.505275"><ele>574.5</ele><time>2026-04-19T14:27:04.98Z</time></trkpt><trkpt lat="44.5094477" lon="10.5054329"><ele>580.75</ele><time>2026-04-19T14:27:05.98Z</time></trkpt><trkpt lat="44.5094469" lon="10.5056049"><ele>587.0</ele><time>2026-04-19T14:27:06.98Z</time></trkpt><trkpt lat="44.5094661" lon="10.5057833"><ele>587.2</ele><time>2026-04-19T14:27:07.98Z</time></trkpt><trkpt lat="44.5094875" lon="10.5059345"><ele>587.4000000000001</ele><time>2026-04-19T14:27:08.981Z</time></trkpt><trkpt lat="44.5095011" lon="10.5060708"><ele>587.5999999999999</ele><time>2026-04-19T14:27:09.981Z</time></trkpt><trkpt lat="44.5094863" lon="10.5062082"><ele>587.8</ele><time>2026-04-19T14:27:10.981Z</time></trkpt><trkpt lat="44.5094525" lon="10.5063544"><ele>588.0</ele><time>2026-04-19T14:27:11.981Z</time></trkpt><trkpt lat="44.5093988" lon="10.5064978"><ele>588.4</ele><time>2026-04-19T14:27:12.98Z</time></trkpt><trkpt lat="44.509319" lon="10.5066293"><ele>588.8</ele><time>2026-04-19T14:27:13.981Z</time></trkpt><trkpt lat="44.5092322" lon="10.5067334"><ele>589.2</ele><time>2026-04-19T14:27:14.98Z</time></trkpt><trkpt lat="44.5091478" lon="10.5068089"><ele>589.6</ele><time>2026-04-19T14:27:15.98Z</time></trkpt><trkpt lat="44.5090842" lon="10.5068978"><ele>590.0</ele><time>2026-04-19T14:27:16.981Z</time></trkpt><trkpt lat="44.5090458" lon="10.5070111"><ele>589.2</ele><time>2026-04-19T14:27:17.98Z</time></trkpt><trkpt lat="44.5090472" lon="10.5071262"><ele>588.4</ele><time>2026-04-19T14:27:18.98Z</time></trkpt><trkpt lat="44.5090792" lon="10.5072468"><ele>587.6</ele><time>2026-04-19T14:27:19.981Z</time></trkpt><trkpt lat="44.509128" lon="10.5073773"><ele>586.8</ele><time>2026-04-19T14:27:20.979Z</time></trkpt><trkpt lat="44.5091546" lon="10.5075258"><ele>586.0</ele><time>2026-04-19T14:27:21.981Z</time></trkpt><trkpt lat="44.5091617" lon="10.5077003"><ele>586.0</ele><time>2026-04-19T14:27:22.98Z</time></trkpt><trkpt lat="44.5091638" lon="10.5078539"><ele>586.0</ele><time>2026-04-19T14:27:23.98Z</time></trkpt><trkpt lat="44.5091447" lon="10.5079892"><ele>586.0</ele><time>2026-04-19T14:27:24.981Z</time></trkpt><trkpt lat="44.5091019" lon="10.508106"><ele>586.0</ele><time>2026-04-19T14:27:25.981Z</time></trkpt><trkpt lat="44.509032" lon="10.5082135"><ele>586.0</ele><time>2026-04-19T14:27:26.98Z</time></trkpt><trkpt lat="44.5089379" lon="10.5082906"><ele>585.6</ele><time>2026-04-19T14:27:27.98Z</time></trkpt><trkpt lat="44.5088315" lon="10.5083495"><ele>585.2</ele><time>2026-04-19T14:27:28.98Z</time></trkpt><trkpt lat="44.5087484" lon="10.5084246"><ele>584.8</ele><time>2026-04-19T14:27:29.981Z</time></trkpt><trkpt lat="44.508684" lon="10.5085234"><ele>584.4</ele><time>2026-04-19T14:27:30.981Z</time></trkpt><trkpt lat="44.5086229" lon="10.5086365"><ele>584.0</ele><time>2026-04-19T14:27:31.981Z</time></trkpt><trkpt lat="44.5085841" lon="10.5087775"><ele>588.6</ele><time>2026-04-19T14:27:32.98Z</time></trkpt><trkpt lat="44.5085831" lon="10.5089309"><ele>593.2</ele><time>2026-04-19T14:27:33.981Z</time></trkpt><trkpt lat="44.5085923" lon="10.509083"><ele>597.8000000000001</ele><time>2026-04-19T14:27:34.979Z</time></trkpt><trkpt lat="44.5086027" lon="10.5092328"><ele>602.4</ele><time>2026-04-19T14:27:35.98Z</time></trkpt><trkpt lat="44.5086258" lon="10.5093657"><ele>607.0</ele><time>2026-04-19T14:27:36.981Z</time></trkpt><trkpt lat="44.5086459" lon="10.5094935"><ele>607.4</ele><time>2026-04-19T14:27:37.981Z</time></trkpt><trkpt lat="44.5086471" lon="10.5096155"><ele>607.8000000000001</ele><time>2026-04-19T14:27:38.981Z</time></trkpt><trkpt lat="44.5086291" lon="10.5097446"><ele>608.2</ele><time>2026-04-19T14:27:39.98Z</time></trkpt><trkpt lat="44.5086005" lon="10.5098801"><ele>608.6</ele><time>2026-04-19T14:27:40.979Z</time></trkpt><trkpt lat="44.5085606" lon="10.5100228"><ele>609.0</ele><time>2026-04-19T14:27:41.979Z</time></trkpt><trkpt lat="44.5085199" lon="10.5101574"><ele>609.0</ele><time>2026-04-19T14:27:42.981Z</time></trkpt><trkpt lat="44.5084917" lon="10.5102884"><ele>609.0</ele><time>2026-04-19T14:27:43.98Z</time></trkpt><trkpt lat="44.5084953" lon="10.5104116"><ele>609.0</ele><time>2026-04-19T14:27:44.981Z</time></trkpt><trkpt lat="44.5085263" lon="10.5105267"><ele>609.0</ele><time>2026-04-19T14:27:45.98Z</time></trkpt><trkpt lat="44.5085715" lon="10.5106446"><ele>609.0</ele><time>2026-04-19T14:27:46.981Z</time></trkpt><trkpt lat="44.5086027" lon="10.5107617"><ele>608.5</ele><time>2026-04-19T14:27:47.981Z</time></trkpt><trkpt lat="44.5086162" lon="10.5108643"><ele>608.0</ele><time>2026-04-19T14:27:48.98Z</time></trkpt><trkpt lat="44.5086042" lon="10.5109649"><ele>607.5</ele><time>2026-04-19T14:27:49.98Z</time></trkpt><trkpt lat="44.5085698" lon="10.5110661"><ele>607.0</ele><time>2026-04-19T14:27:50.981Z</time></trkpt><trkpt lat="44.5085183" lon="10.5111595"><ele>606.5</ele><time>2026-04-19T14:27:51.981Z</time></trkpt><trkpt lat="44.5084549" lon="10.5112665"><ele>606.0</ele><time>2026-04-19T14:27:52.981Z</time></trkpt><trkpt lat="44.5084067" lon="10.5113793"><ele>605.5</ele><time>2026-04-19T14:27:53.98Z</time></trkpt><trkpt lat="44.5083915" lon="10.5114954"><ele>605.0</ele><time>2026-04-19T14:27:54.981Z</time></trkpt><trkpt lat="44.508407" lon="10.5116182"><ele>604.5</ele><time>2026-04-19T14:27:55.98Z</time></trkpt><trkpt lat="44.5084529" lon="10.5117227"><ele>604.0</ele><time>2026-04-19T14:27:56.979Z</time></trkpt><trkpt lat="44.5085029" lon="10.5118188"><ele>603.5</ele><time>2026-04-19T14:27:57.979Z</time></trkpt><trkpt lat="44.5085223" lon="10.5119299"><ele>603.0</ele><time>2026-04-19T14:27:58.981Z</time></trkpt><trkpt lat="44.5085092" lon="10.5120407"><ele>602.5</ele><time>2026-04-19T14:27:59.98Z</time></trkpt><trkpt lat="44.5084651" lon="10.5121656"><ele>602.0</ele><time>2026-04-19T14:28:00.981Z</time></trkpt><trkpt lat="44.5084098" lon="10.5123123"><ele>601.5</ele><time>2026-04-19T14:28:01.98Z</time></trkpt><trkpt lat="44.5083629" lon="10.5124919"><ele>601.0</ele><time>2026-04-19T14:28:02.98Z</time></trkpt><trkpt lat="44.5083318" lon="10.512707"><ele>601.0</ele><time>2026-04-19T14:28:03.981Z</time></trkpt><trkpt lat="44.5083186" lon="10.5129045"><ele>601.0</ele><time>2026-04-19T14:28:04.981Z</time></trkpt><trkpt lat="44.5083126" lon="10.5130955"><ele>601.0</ele><time>2026-04-19T14:28:05.981Z</time></trkpt><trkpt lat="44.508311" lon="10.5132799"><ele>601.0</ele><time>2026-04-19T14:28:06.979Z</time></trkpt><trkpt lat="44.5083066" lon="10.5134379"><ele>600.2</ele><time>2026-04-19T14:28:07.981Z</time></trkpt><trkpt lat="44.5082934" lon="10.5135801"><ele>599.4000000000001</ele><time>2026-04-19T14:28:08.98Z</time></trkpt><trkpt lat="44.5082448" lon="10.5137061"><ele>598.6</ele><time>2026-04-19T14:28:09.98Z</time></trkpt><trkpt lat="44.508188" lon="10.5138265"><ele>597.8000000000001</ele><time>2026-04-19T14:28:10.98Z</time></trkpt><trkpt lat="44.5081227" lon="10.5139325"><ele>597.0</ele><time>2026-04-19T14:28:11.981Z</time></trkpt><trkpt lat="44.5080688" lon="10.5140417"><ele>595.0</ele><time>2026-04-19T14:28:12.981Z</time></trkpt><trkpt lat="44.5080234" lon="10.5141735"><ele>593.0</ele><time>2026-04-19T14:28:13.981Z</time></trkpt><trkpt lat="44.5079964" lon="10.514321"><ele>591.0</ele><time>2026-04-19T14:28:14.981Z</time></trkpt><trkpt lat="44.5079885" lon="10.5144844"><ele>589.0</ele><time>2026-04-19T14:28:15.98Z</time></trkpt><trkpt lat="44.507994" lon="10.514649"><ele>587.0</ele><time>2026-04-19T14:28:16.981Z</time></trkpt><trkpt lat="44.5079889" lon="10.5147985"><ele>586.25</ele><time>2026-04-19T14:28:17.98Z</time></trkpt><trkpt lat="44.5079744" lon="10.5149501"><ele>585.5</ele><time>2026-04-19T14:28:18.981Z</time></trkpt><trkpt lat="44.5079448" lon="10.515109"><ele>584.75</ele><time>2026-04-19T14:28:19.981Z</time></trkpt><trkpt lat="44.507916" lon="10.515273"><ele>584.0</ele><time>2026-04-19T14:28:20.979Z</time></trkpt><trkpt lat="44.5078997" lon="10.5154208"><ele>585.2</ele><time>2026-04-19T14:28:21.981Z</time></trkpt><trkpt lat="44.507902" lon="10.5155701"><ele>586.4</ele><time>2026-04-19T14:28:22.981Z</time></trkpt><trkpt lat="44.5079265" lon="10.5157119"><ele>587.6</ele><time>2026-04-19T14:28:23.98Z</time></trkpt><trkpt lat="44.5079757" lon="10.5158225"><ele>588.8</ele><time>2026-04-19T14:28:24.98Z</time></trkpt><trkpt lat="44.5080425" lon="10.5159006"><ele>590.0</ele><time>2026-04-19T14:28:25.98Z</time></trkpt><trkpt lat="44.5081238" lon="10.5159437"><ele>590.0</ele><time>2026-04-19T14:28:26.981Z</time></trkpt><trkpt lat="44.5082187" lon="10.5159524"><ele>590.0</ele><time>2026-04-19T14:28:27.981Z</time></trkpt><trkpt lat="44.5083273" lon="10.5159485"><ele>590.0</ele><time>2026-04-19T14:28:28.981Z</time></trkpt><trkpt lat="44.5084416" lon="10.5159551"><ele>590.0</ele><time>2026-04-19T14:28:29.98Z</time></trkpt><trkpt lat="44.5085456" lon="10.5159701"><ele>590.0</ele><time>2026-04-19T14:28:30.981Z</time></trkpt><trkpt lat="44.5086593" lon="10.5159883"><ele>590.4</ele><time>2026-04-19T14:28:31.981Z</time></trkpt><trkpt lat="44.5087692" lon="10.5160129"><ele>590.8</ele><time>2026-04-19T14:28:32.98Z</time></trkpt><trkpt lat="44.5088688" lon="10.5160456"><ele>591.2</ele><time>2026-04-19T14:28:33.98Z</time></trkpt><trkpt lat="44.5089686" lon="10.5160975"><ele>591.6</ele><time>2026-04-19T14:28:34.981Z</time></trkpt><trkpt lat="44.5090672" lon="10.516173"><ele>592.0</ele><time>2026-04-19T14:28:35.981Z</time></trkpt><trkpt lat="44.5091541" lon="10.5162702"><ele>592.0</ele><time>2026-04-19T14:28:36.981Z</time></trkpt><trkpt lat="44.5092372" lon="10.5163821"><ele>592.0</ele><time>2026-04-19T14:28:37.981Z</time></trkpt><trkpt lat="44.5093116" lon="10.5165066"><ele>592.0</ele><time>2026-04-19T14:28:38.98Z</time></trkpt><trkpt lat="44.5093719" lon="10.5166488"><ele>592.0</ele><time>2026-04-19T14:28:39.98Z</time></trkpt><trkpt lat="44.5094218" lon="10.5167998"><ele>592.0</ele><time>2026-04-19T14:28:40.98Z</time></trkpt><trkpt lat="44.5094517" lon="10.5169317"><ele>592.0</ele><time>2026-04-19T14:28:41.981Z</time></trkpt><trkpt lat="44.509464" lon="10.5170529"><ele>592.0</ele><time>2026-04-19T14:28:42.98Z</time></trkpt><trkpt lat="44.5094555" lon="10.5171599"><ele>592.0</ele><time>2026-04-19T14:28:43.98Z</time></trkpt><trkpt lat="44.5094181" lon="10.517256"><ele>592.0</ele><time>2026-04-19T14:28:44.981Z</time></trkpt><trkpt lat="44.5093562" lon="10.5173339"><ele>592.0</ele><time>2026-04-19T14:28:45.981Z</time></trkpt><trkpt lat="44.5092734" lon="10.5173897"><ele>592.0</ele><time>2026-04-19T14:28:46.981Z</time></trkpt><trkpt lat="44.5091902" lon="10.517454"><ele>592.0</ele><time>2026-04-19T14:28:47.98Z</time></trkpt><trkpt lat="44.5091267" lon="10.5175511"><ele>592.0</ele><time>2026-04-19T14:28:48.979Z</time></trkpt><trkpt lat="44.5090871" lon="10.5176868"><ele>592.0</ele><time>2026-04-19T14:28:49.981Z</time></trkpt><trkpt lat="44.5090634" lon="10.5178482"><ele>592.0</ele><time>2026-04-19T14:28:50.981Z</time></trkpt><trkpt lat="44.5090443" lon="10.5180411"><ele>592.0</ele><time>2026-04-19T14:28:51.981Z</time></trkpt><trkpt lat="44.5090245" lon="10.5182114"><ele>592.0</ele><time>2026-04-19T14:28:52.981Z</time></trkpt><trkpt lat="44.5089945" lon="10.5183846"><ele>592.0</ele><time>2026-04-19T14:28:53.981Z</time></trkpt><trkpt lat="44.5089545" lon="10.5185559"><ele>592.0</ele><time>2026-04-19T14:28:54.981Z</time></trkpt><trkpt lat="44.5089134" lon="10.5187203"><ele>592.25</ele><time>2026-04-19T14:28:55.981Z</time></trkpt><trkpt lat="44.5088739" lon="10.5188987"><ele>592.5</ele><time>2026-04-19T14:28:56.981Z</time></trkpt><trkpt lat="44.5088374" lon="10.5190818"><ele>592.75</ele><time>2026-04-19T14:28:57.98Z</time></trkpt><trkpt lat="44.5087999" lon="10.5192451"><ele>593.0</ele><time>2026-04-19T14:28:58.981Z</time></trkpt><trkpt lat="44.5087606" lon="10.5193949"><ele>595.1666666666666</ele><time>2026-04-19T14:28:59.981Z</time></trkpt><trkpt lat="44.5087353" lon="10.5195395"><ele>597.3333333333333</ele><time>2026-04-19T14:29:00.98Z</time></trkpt><trkpt lat="44.5087244" lon="10.5196643"><ele>599.5</ele><time>2026-04-19T14:29:01.98Z</time></trkpt><trkpt lat="44.5087281" lon="10.5197786"><ele>601.6666666666666</ele><time>2026-04-19T14:29:02.981Z</time></trkpt><trkpt lat="44.5087499" lon="10.5198759"><ele>603.8333333333334</ele><time>2026-04-19T14:29:03.98Z</time></trkpt><trkpt lat="44.5087997" lon="10.5199527"><ele>606.0</ele><time>2026-04-19T14:29:04.98Z</time></trkpt><trkpt lat="44.5088741" lon="10.520006"><ele>606.0</ele><time>2026-04-19T14:29:05.98Z</time></trkpt><trkpt lat="44.5089633" lon="10.5200302"><ele>606.0</ele><time>2026-04-19T14:29:06.98Z</time></trkpt><trkpt lat="44.5090715" lon="10.5200403"><ele>606.0</ele><time>2026-04-19T14:29:07.98Z</time></trkpt><trkpt lat="44.50918" lon="10.5200495"><ele>606.0</ele><time>2026-04-19T14:29:08.98Z</time></trkpt><trkpt lat="44.509275" lon="10.5200435"><ele>606.0</ele><time>2026-04-19T14:29:09.98Z</time></trkpt><trkpt lat="44.5093599" lon="10.5200019"><ele>606.0</ele><time>2026-04-19T14:29:10.98Z</time></trkpt><trkpt lat="44.5094304" lon="10.5199205"><ele>606.0</ele><time>2026-04-19T14:29:11.981Z</time></trkpt><trkpt lat="44.5094948" lon="10.5198155"><ele>606.0</ele><time>2026-04-19T14:29:12.981Z</time></trkpt><trkpt lat="44.5095542" lon="10.519721"><ele>606.0</ele><time>2026-04-19T14:29:13.98Z</time></trkpt><trkpt lat="44.5096191" lon="10.5196548"><ele>606.0</ele><time>2026-04-19T14:29:14.979Z</time></trkpt><trkpt lat="44.5096842" lon="10.5196413"><ele>606.0</ele><time>2026-04-19T14:29:15.98Z</time></trkpt><trkpt lat="44.5097425" lon="10.5196781"><ele>603.2</ele><time>2026-04-19T14:29:16.981Z</time></trkpt><trkpt lat="44.5097909" lon="10.5197635"><ele>600.4000000000001</ele><time>2026-04-19T14:29:17.98Z</time></trkpt><trkpt lat="44.5098246" lon="10.5198854"><ele>597.6</ele><time>2026-04-19T14:29:18.981Z</time></trkpt><trkpt lat="44.5098487" lon="10.520039"><ele>594.8000000000001</ele><time>2026-04-19T14:29:19.98Z</time></trkpt><trkpt lat="44.5098737" lon="10.5202053"><ele>592.0</ele><time>2026-04-19T14:29:20.98Z</time></trkpt><trkpt lat="44.5099156" lon="10.520379"><ele>595.75</ele><time>2026-04-19T14:29:21.98Z</time></trkpt><trkpt lat="44.5099877" lon="10.5205626"><ele>599.5</ele><time>2026-04-19T14:29:22.981Z</time></trkpt><trkpt lat="44.5100649" lon="10.5207346"><ele>603.25</ele><time>2026-04-19T14:29:23.981Z</time></trkpt><trkpt lat="44.5101399" lon="10.5208913"><ele>607.0</ele><time>2026-04-19T14:29:24.981Z</time></trkpt><trkpt lat="44.5102381" lon="10.521018"><ele>607.0</ele><time>2026-04-19T14:29:25.98Z</time></trkpt><trkpt lat="44.5103584" lon="10.5211284"><ele>607.0</ele><time>2026-04-19T14:29:26.981Z</time></trkpt><trkpt lat="44.5104899" lon="10.5212295"><ele>607.0</ele><time>2026-04-19T14:29:27.98Z</time></trkpt><trkpt lat="44.5106099" lon="10.5213139"><ele>607.0</ele><time>2026-04-19T14:29:28.979Z</time></trkpt><trkpt lat="44.5107069" lon="10.5213922"><ele>602.75</ele><time>2026-04-19T14:29:29.979Z</time></trkpt><trkpt lat="44.5107873" lon="10.5214902"><ele>598.5</ele><time>2026-04-19T14:29:30.98Z</time></trkpt><trkpt lat="44.5108535" lon="10.5216235"><ele>594.25</ele><time>2026-04-19T14:29:31.98Z</time></trkpt><trkpt lat="44.5109058" lon="10.5217857"><ele>590.0</ele><time>2026-04-19T14:29:32.979Z</time></trkpt><trkpt lat="44.5109559" lon="10.5219705"><ele>592.3333333333333</ele><time>2026-04-19T14:29:33.979Z</time></trkpt><trkpt lat="44.5110221" lon="10.5221554"><ele>594.6666666666666</ele><time>2026-04-19T14:29:34.979Z</time></trkpt><trkpt lat="44.5111101" lon="10.5223458"><ele>597.0</ele><time>2026-04-19T14:29:35.98Z</time></trkpt><trkpt lat="44.5112049" lon="10.5225267"><ele>594.25</ele><time>2026-04-19T14:29:36.979Z</time></trkpt><trkpt lat="44.5112921" lon="10.5226818"><ele>591.5</ele><time>2026-04-19T14:29:37.98Z</time></trkpt><trkpt lat="44.5113822" lon="10.5228117"><ele>588.75</ele><time>2026-04-19T14:29:38.978Z</time></trkpt><trkpt lat="44.5114667" lon="10.5229189"><ele>586.0</ele><time>2026-04-19T14:29:39.979Z</time></trkpt><trkpt lat="44.5115343" lon="10.5230057"><ele>586.0</ele><time>2026-04-19T14:29:40.979Z</time></trkpt><trkpt lat="44.5115916" lon="10.5231023"><ele>586.0</ele><time>2026-04-19T14:29:41.979Z</time></trkpt><trkpt lat="44.5116332" lon="10.5232183"><ele>586.0</ele><time>2026-04-19T14:29:42.979Z</time></trkpt><trkpt lat="44.5116655" lon="10.5233614"><ele>586.0</ele><time>2026-04-19T14:29:43.979Z</time></trkpt><trkpt lat="44.5116803" lon="10.5235235"><ele>586.0</ele><time>2026-04-19T14:29:44.978Z</time></trkpt><trkpt lat="44.5116962" lon="10.5236765"><ele>584.8</ele><time>2026-04-19T14:29:45.979Z</time></trkpt><trkpt lat="44.5117338" lon="10.5238128"><ele>583.6</ele><time>2026-04-19T14:29:46.979Z</time></trkpt><trkpt lat="44.5117876" lon="10.5239202"><ele>582.4</ele><time>2026-04-19T14:29:47.979Z</time></trkpt><trkpt lat="44.5118651" lon="10.5239965"><ele>581.2</ele><time>2026-04-19T14:29:48.979Z</time></trkpt><trkpt lat="44.5119668" lon="10.5240323"><ele>580.0</ele><time>2026-04-19T14:29:49.98Z</time></trkpt><trkpt lat="44.5120885" lon="10.5240464"><ele>580.0</ele><time>2026-04-19T14:29:50.979Z</time></trkpt><trkpt lat="44.5122186" lon="10.5240883"><ele>580.0</ele><time>2026-04-19T14:29:51.98Z</time></trkpt><trkpt lat="44.512336" lon="10.5241555"><ele>580.0</ele><time>2026-04-19T14:29:52.98Z</time></trkpt><trkpt lat="44.5124663" lon="10.5242504"><ele>580.0</ele><time>2026-04-19T14:29:53.98Z</time></trkpt><trkpt lat="44.5126051" lon="10.5243841"><ele>580.0</ele><time>2026-04-19T14:29:54.979Z</time></trkpt><trkpt lat="44.5127398" lon="10.5245349"><ele>580.0</ele><time>2026-04-19T14:29:55.98Z</time></trkpt><trkpt lat="44.5128603" lon="10.5246867"><ele>580.0</ele><time>2026-04-19T14:29:56.98Z</time></trkpt><trkpt lat="44.5129764" lon="10.5248547"><ele>578.6666666666667</ele><time>2026-04-19T14:29:57.98Z</time></trkpt><trkpt lat="44.5130852" lon="10.5250164"><ele>577.3333333333334</ele><time>2026-04-19T14:29:58.979Z</time></trkpt><trkpt lat="44.5131915" lon="10.5251654"><ele>576.0</ele><time>2026-04-19T14:29:59.979Z</time></trkpt><trkpt lat="44.5132978" lon="10.5252986"><ele>573.75</ele><time>2026-04-19T14:30:00.979Z</time></trkpt><trkpt lat="44.5134017" lon="10.5254106"><ele>571.5</ele><time>2026-04-19T14:30:01.979Z</time></trkpt><trkpt lat="44.5135047" lon="10.5254987"><ele>569.25</ele><time>2026-04-19T14:30:02.979Z</time></trkpt><trkpt lat="44.5136197" lon="10.5255614"><ele>567.0</ele><time>2026-04-19T14:30:03.98Z</time></trkpt><trkpt lat="44.5137495" lon="10.5256098"><ele>567.0</ele><time>2026-04-19T14:30:04.979Z</time></trkpt><trkpt lat="44.5138767" lon="10.5256663"><ele>567.0</ele><time>2026-04-19T14:30:05.979Z</time></trkpt><trkpt lat="44.5139956" lon="10.5257294"><ele>567.0</ele><time>2026-04-19T14:30:06.979Z</time></trkpt><trkpt lat="44.5141113" lon="10.525798"><ele>567.0</ele><time>2026-04-19T14:30:07.98Z</time></trkpt><trkpt lat="44.5142187" lon="10.5258815"><ele>567.0</ele><time>2026-04-19T14:30:08.979Z</time></trkpt><trkpt lat="44.5143173" lon="10.5259732"><ele>567.0</ele><time>2026-04-19T14:30:09.98Z</time></trkpt><trkpt lat="44.5143928" lon="10.5260648"><ele>567.0</ele><time>2026-04-19T14:30:10.98Z</time></trkpt><trkpt lat="44.5144447" lon="10.5261538"><ele>567.0</ele><time>2026-04-19T14:30:11.979Z</time></trkpt><trkpt lat="44.5144712" lon="10.5262458"><ele>567.0</ele><time>2026-04-19T14:30:12.98Z</time></trkpt><trkpt lat="44.5144857" lon="10.5263475"><ele>567.0</ele><time>2026-04-19T14:30:13.979Z</time></trkpt><trkpt lat="44.5144827" lon="10.5264588"><ele>565.3333333333334</ele><time>2026-04-19T14:30:14.98Z</time></trkpt><trkpt lat="44.514461" lon="10.5265666"><ele>563.6666666666666</ele><time>2026-04-19T14:30:15.979Z</time></trkpt><trkpt lat="44.5144286" lon="10.5266763"><ele>562.0</ele><time>2026-04-19T14:30:16.979Z</time></trkpt><trkpt lat="44.5144125" lon="10.5267812"><ele>560.3333333333333</ele><time>2026-04-19T14:30:17.98Z</time></trkpt><trkpt lat="44.5144143" lon="10.5268824"><ele>558.6666666666666</ele><time>2026-04-19T14:30:18.98Z</time></trkpt><trkpt lat="44.5144187" lon="10.5269926"><ele>557.0</ele><time>2026-04-19T14:30:19.978Z</time></trkpt><trkpt lat="44.5144353" lon="10.5270931"><ele>556.3333333333333</ele><time>2026-04-19T14:30:20.98Z</time></trkpt><trkpt lat="44.514462" lon="10.527192"><ele>555.6666666666666</ele><time>2026-04-19T14:30:21.979Z</time></trkpt><trkpt lat="44.5144957" lon="10.527294"><ele>555.0</ele><time>2026-04-19T14:30:22.98Z</time></trkpt><trkpt lat="44.514544" lon="10.5273983"><ele>554.3333333333334</ele><time>2026-04-19T14:30:23.98Z</time></trkpt><trkpt lat="44.5145977" lon="10.5275025"><ele>553.6666666666667</ele><time>2026-04-19T14:30:24.98Z</time></trkpt><trkpt lat="44.5146564" lon="10.5276021"><ele>553.0</ele><time>2026-04-19T14:30:25.98Z</time></trkpt><trkpt lat="44.5147184" lon="10.5277036"><ele>555.0</ele><time>2026-04-19T14:30:26.98Z</time></trkpt><trkpt lat="44.5147945" lon="10.5278228"><ele>557.0</ele><time>2026-04-19T14:30:27.98Z</time></trkpt><trkpt lat="44.5148788" lon="10.5279476"><ele>559.0</ele><time>2026-04-19T14:30:28.979Z</time></trkpt><trkpt lat="44.5149695" lon="10.5280819"><ele>561.0</ele><time>2026-04-19T14:30:29.979Z</time></trkpt><trkpt lat="44.5150702" lon="10.5282325"><ele>561.25</ele><time>2026-04-19T14:30:30.979Z</time></trkpt><trkpt lat="44.5151735" lon="10.5283938"><ele>561.5</ele><time>2026-04-19T14:30:31.979Z</time></trkpt><trkpt lat="44.5152682" lon="10.5285461"><ele>561.75</ele><time>2026-04-19T14:30:32.979Z</time></trkpt><trkpt lat="44.5153611" lon="10.5286884"><ele>562.0</ele><time>2026-04-19T14:30:33.98Z</time></trkpt><trkpt lat="44.5154553" lon="10.5288228"><ele>562.0</ele><time>2026-04-19T14:30:34.98Z</time></trkpt><trkpt lat="44.5155543" lon="10.5289488"><ele>562.0</ele><time>2026-04-19T14:30:35.98Z</time></trkpt><trkpt lat="44.5156621" lon="10.529058"><ele>562.0</ele><time>2026-04-19T14:30:36.978Z</time></trkpt><trkpt lat="44.5157831" lon="10.529157"><ele>562.0</ele><time>2026-04-19T14:30:37.978Z</time></trkpt><trkpt lat="44.5159104" lon="10.5292383"><ele>562.0</ele><time>2026-04-19T14:30:38.979Z</time></trkpt><trkpt lat="44.5160375" lon="10.5293062"><ele>562.0</ele><time>2026-04-19T14:30:39.979Z</time></trkpt><trkpt lat="44.5161757" lon="10.5293664"><ele>562.0</ele><time>2026-04-19T14:30:40.98Z</time></trkpt><trkpt lat="44.5163234" lon="10.5294164"><ele>562.0</ele><time>2026-04-19T14:30:41.98Z</time></trkpt><trkpt lat="44.5164856" lon="10.529457"><ele>561.75</ele><time>2026-04-19T14:30:42.98Z</time></trkpt><trkpt lat="44.5166362" lon="10.5294859"><ele>561.5</ele><time>2026-04-19T14:30:43.98Z</time></trkpt><trkpt lat="44.5167786" lon="10.5295103"><ele>561.25</ele><time>2026-04-19T14:30:44.98Z</time></trkpt><trkpt lat="44.5169257" lon="10.529541"><ele>561.0</ele><time>2026-04-19T14:30:45.979Z</time></trkpt><trkpt lat="44.5170757" lon="10.5295956"><ele>561.0</ele><time>2026-04-19T14:30:46.98Z</time></trkpt><trkpt lat="44.5172154" lon="10.5296771"><ele>561.0</ele><time>2026-04-19T14:30:47.98Z</time></trkpt><trkpt lat="44.5173467" lon="10.5297855"><ele>561.0</ele><time>2026-04-19T14:30:48.98Z</time></trkpt><trkpt lat="44.5174622" lon="10.5299162"><ele>561.0</ele><time>2026-04-19T14:30:49.98Z</time></trkpt><trkpt lat="44.5175608" lon="10.5300645"><ele>561.0</ele><time>2026-04-19T14:30:50.98Z</time></trkpt><trkpt lat="44.5176384" lon="10.53023"><ele>561.0</ele><time>2026-04-19T14:30:51.98Z</time></trkpt><trkpt lat="44.5176943" lon="10.5304166"><ele>561.0</ele><time>2026-04-19T14:30:52.979Z</time></trkpt><trkpt lat="44.5177354" lon="10.5306235"><ele>561.0</ele><time>2026-04-19T14:30:53.978Z</time></trkpt><trkpt lat="44.5177628" lon="10.5308555"><ele>561.0</ele><time>2026-04-19T14:30:54.979Z</time></trkpt><trkpt lat="44.5177865" lon="10.5310857"><ele>561.0</ele><time>2026-04-19T14:30:55.98Z</time></trkpt><trkpt lat="44.5178065" lon="10.5312847"><ele>561.0</ele><time>2026-04-19T14:30:56.978Z</time></trkpt><trkpt lat="44.5178303" lon="10.5314478"><ele>561.0</ele><time>2026-04-19T14:30:57.979Z</time></trkpt><trkpt lat="44.5178736" lon="10.5315855"><ele>561.0</ele><time>2026-04-19T14:30:58.979Z</time></trkpt><trkpt lat="44.5179447" lon="10.5316898"><ele>561.0</ele><time>2026-04-19T14:30:59.979Z</time></trkpt><trkpt lat="44.5180436" lon="10.5317794"><ele>561.0</ele><time>2026-04-19T14:31:00.979Z</time></trkpt><trkpt lat="44.5181358" lon="10.531861"><ele>564.2</ele><time>2026-04-19T14:31:01.979Z</time></trkpt><trkpt lat="44.5182018" lon="10.5319671"><ele>567.4000000000001</ele><time>2026-04-19T14:31:02.98Z</time></trkpt><trkpt lat="44.5182401" lon="10.5321012"><ele>570.6</ele><time>2026-04-19T14:31:03.98Z</time></trkpt><trkpt lat="44.5182406" lon="10.5322573"><ele>573.8000000000001</ele><time>2026-04-19T14:31:04.979Z</time></trkpt><trkpt lat="44.5182058" lon="10.5324326"><ele>577.0</ele><time>2026-04-19T14:31:05.98Z</time></trkpt><trkpt lat="44.5181527" lon="10.5325963"><ele>577.4</ele><time>2026-04-19T14:31:06.98Z</time></trkpt><trkpt lat="44.5181118" lon="10.5327444"><ele>577.8000000000001</ele><time>2026-04-19T14:31:07.979Z</time></trkpt><trkpt lat="44.5180965" lon="10.5328794"><ele>578.2</ele><time>2026-04-19T14:31:08.98Z</time></trkpt><trkpt lat="44.5181121" lon="10.5330009"><ele>578.6</ele><time>2026-04-19T14:31:09.979Z</time></trkpt><trkpt lat="44.5181526" lon="10.5331081"><ele>579.0</ele><time>2026-04-19T14:31:10.979Z</time></trkpt><trkpt lat="44.5182162" lon="10.5331947"><ele>577.0</ele><time>2026-04-19T14:31:11.979Z</time></trkpt><trkpt lat="44.5182952" lon="10.5332457"><ele>575.0</ele><time>2026-04-19T14:31:12.98Z</time></trkpt><trkpt lat="44.5183862" lon="10.5332626"><ele>573.0</ele><time>2026-04-19T14:31:13.979Z</time></trkpt><trkpt lat="44.5184778" lon="10.5332426"><ele>571.0</ele><time>2026-04-19T14:31:14.979Z</time></trkpt><trkpt lat="44.5185662" lon="10.5332014"><ele>569.0</ele><time>2026-04-19T14:31:15.979Z</time></trkpt><trkpt lat="44.5186685" lon="10.5331512"><ele>571.5</ele><time>2026-04-19T14:31:16.979Z</time></trkpt><trkpt lat="44.5187841" lon="10.5330926"><ele>574.0</ele><time>2026-04-19T14:31:17.98Z</time></trkpt><trkpt lat="44.5188945" lon="10.5330477"><ele>576.5</ele><time>2026-04-19T14:31:18.979Z</time></trkpt><trkpt lat="44.5190132" lon="10.5330199"><ele>579.0</ele><time>2026-04-19T14:31:19.979Z</time></trkpt><trkpt lat="44.5191381" lon="10.5330233"><ele>579.0</ele><time>2026-04-19T14:31:20.98Z</time></trkpt><trkpt lat="44.5192516" lon="10.5330552"><ele>579.0</ele><time>2026-04-19T14:31:21.979Z</time></trkpt><trkpt lat="44.5193655" lon="10.5331061"><ele>579.0</ele><time>2026-04-19T14:31:22.979Z</time></trkpt><trkpt lat="44.5194769" lon="10.5331889"><ele>579.0</ele><time>2026-04-19T14:31:23.98Z</time></trkpt><trkpt lat="44.5195801" lon="10.5332799"><ele>577.6</ele><time>2026-04-19T14:31:24.979Z</time></trkpt><trkpt lat="44.5196587" lon="10.5333644"><ele>576.2</ele><time>2026-04-19T14:31:25.979Z</time></trkpt><trkpt lat="44.519726" lon="10.5334581"><ele>574.8000000000001</ele><time>2026-04-19T14:31:26.979Z</time></trkpt><trkpt lat="44.5197718" lon="10.5335838"><ele>573.4</ele><time>2026-04-19T14:31:27.979Z</time></trkpt><trkpt lat="44.5197944" lon="10.5337371"><ele>572.0</ele><time>2026-04-19T14:31:28.98Z</time></trkpt><trkpt lat="44.5197956" lon="10.5339103"><ele>572.0</ele><time>2026-04-19T14:31:29.979Z</time></trkpt><trkpt lat="44.5198084" lon="10.5341032"><ele>572.0</ele><time>2026-04-19T14:31:30.98Z</time></trkpt><trkpt lat="44.5198442" lon="10.5343064"><ele>572.0</ele><time>2026-04-19T14:31:31.98Z</time></trkpt><trkpt lat="44.5198731" lon="10.5344909"><ele>572.0</ele><time>2026-04-19T14:31:32.98Z</time></trkpt><trkpt lat="44.5199049" lon="10.5346529"><ele>573.6</ele><time>2026-04-19T14:31:33.979Z</time></trkpt><trkpt lat="44.5199406" lon="10.5347996"><ele>575.2</ele><time>2026-04-19T14:31:34.98Z</time></trkpt><trkpt lat="44.5199838" lon="10.5349338"><ele>576.8</ele><time>2026-04-19T14:31:35.98Z</time></trkpt><trkpt lat="44.520045" lon="10.5350422"><ele>578.4</ele><time>2026-04-19T14:31:36.979Z</time></trkpt><trkpt lat="44.5201305" lon="10.5351418"><ele>580.0</ele><time>2026-04-19T14:31:37.979Z</time></trkpt><trkpt lat="44.5202327" lon="10.5352334"><ele>580.0</ele><time>2026-04-19T14:31:38.98Z</time></trkpt><trkpt lat="44.5203499" lon="10.5352959"><ele>580.0</ele><time>2026-04-19T14:31:39.979Z</time></trkpt><trkpt lat="44.5204611" lon="10.5353305"><ele>580.0</ele><time>2026-04-19T14:31:40.979Z</time></trkpt><trkpt lat="44.5205685" lon="10.5353491"><ele>580.0</ele><time>2026-04-19T14:31:41.979Z</time></trkpt><trkpt lat="44.5206692" lon="10.5353771"><ele>578.8</ele><time>2026-04-19T14:31:42.979Z</time></trkpt><trkpt lat="44.5207533" lon="10.5354349"><ele>577.6</ele><time>2026-04-19T14:31:43.979Z</time></trkpt><trkpt lat="44.5208145" lon="10.5355249"><ele>576.4</ele><time>2026-04-19T14:31:44.979Z</time></trkpt><trkpt lat="44.5208567" lon="10.5356419"><ele>575.2</ele><time>2026-04-19T14:31:45.98Z</time></trkpt><trkpt lat="44.5208871" lon="10.5357812"><ele>574.0</ele><time>2026-04-19T14:31:46.98Z</time></trkpt><trkpt lat="44.5209297" lon="10.5359274"><ele>574.0</ele><time>2026-04-19T14:31:47.98Z</time></trkpt><trkpt lat="44.5209809" lon="10.5360538"><ele>574.0</ele><time>2026-04-19T14:31:48.979Z</time></trkpt><trkpt lat="44.5210439" lon="10.5361688"><ele>574.0</ele><time>2026-04-19T14:31:49.979Z</time></trkpt><trkpt lat="44.5211329" lon="10.5362545"><ele>574.0</ele><time>2026-04-19T14:31:50.979Z</time></trkpt><trkpt lat="44.521248" lon="10.5363185"><ele>574.0</ele><time>2026-04-19T14:31:51.98Z</time></trkpt><trkpt lat="44.5213813" lon="10.5363784"><ele>569.0</ele><time>2026-04-19T14:31:52.98Z</time></trkpt><trkpt lat="44.5215227" lon="10.5364633"><ele>564.0</ele><time>2026-04-19T14:31:53.98Z</time></trkpt><trkpt lat="44.5216618" lon="10.536566"><ele>559.0</ele><time>2026-04-19T14:31:54.979Z</time></trkpt><trkpt lat="44.5217856" lon="10.5366749"><ele>559.0</ele><time>2026-04-19T14:31:55.98Z</time></trkpt><trkpt lat="44.5218969" lon="10.5367865"><ele>559.0</ele><time>2026-04-19T14:31:56.979Z</time></trkpt><trkpt lat="44.5219948" lon="10.5368967"><ele>559.0</ele><time>2026-04-19T14:31:57.979Z</time></trkpt><trkpt lat="44.5220723" lon="10.5370049"><ele>559.0</ele><time>2026-04-19T14:31:58.979Z</time></trkpt><trkpt lat="44.5221286" lon="10.5371201"><ele>559.6</ele><time>2026-04-19T14:31:59.979Z</time></trkpt><trkpt lat="44.5221585" lon="10.5372471"><ele>560.2</ele><time>2026-04-19T14:32:00.98Z</time></trkpt><trkpt lat="44.5221563" lon="10.5373841"><ele>560.8000000000001</ele><time>2026-04-19T14:32:01.98Z</time></trkpt><trkpt lat="44.5221225" lon="10.5375222"><ele>561.4</ele><time>2026-04-19T14:32:02.979Z</time></trkpt><trkpt lat="44.5220631" lon="10.5376693"><ele>562.0</ele><time>2026-04-19T14:32:03.98Z</time></trkpt><trkpt lat="44.5219968" lon="10.537804"><ele>562.6666666666667</ele><time>2026-04-19T14:32:04.979Z</time></trkpt><trkpt lat="44.5219416" lon="10.5379193"><ele>563.3333333333334</ele><time>2026-04-19T14:32:05.98Z</time></trkpt><trkpt lat="44.5219037" lon="10.5380274"><ele>564.0</ele><time>2026-04-19T14:32:06.979Z</time></trkpt><trkpt lat="44.5218892" lon="10.5381288"><ele>564.6666666666666</ele><time>2026-04-19T14:32:07.98Z</time></trkpt><trkpt lat="44.521908" lon="10.5382283"><ele>565.3333333333333</ele><time>2026-04-19T14:32:08.98Z</time></trkpt><trkpt lat="44.521956" lon="10.5383197"><ele>566.0</ele><time>2026-04-19T14:32:09.979Z</time></trkpt><trkpt lat="44.5220268" lon="10.5383872"><ele>567.6</ele><time>2026-04-19T14:32:10.98Z</time></trkpt><trkpt lat="44.522112" lon="10.5384255"><ele>569.2</ele><time>2026-04-19T14:32:11.98Z</time></trkpt><trkpt lat="44.5222093" lon="10.538433"><ele>570.8</ele><time>2026-04-19T14:32:12.98Z</time></trkpt><trkpt lat="44.5223187" lon="10.5383946"><ele>572.4</ele><time>2026-04-19T14:32:13.98Z</time></trkpt><trkpt lat="44.5224438" lon="10.5383207"><ele>574.0</ele><time>2026-04-19T14:32:14.98Z</time></trkpt><trkpt lat="44.5225808" lon="10.5382321"><ele>574.0</ele><time>2026-04-19T14:32:15.98Z</time></trkpt><trkpt lat="44.5227157" lon="10.5381415"><ele>574.0</ele><time>2026-04-19T14:32:16.98Z</time></trkpt><trkpt lat="44.5228574" lon="10.5380484"><ele>574.0</ele><time>2026-04-19T14:32:17.979Z</time></trkpt><trkpt lat="44.5229828" lon="10.5379683"><ele>574.0</ele><time>2026-04-19T14:32:18.979Z</time></trkpt><trkpt lat="44.523095" lon="10.5379021"><ele>574.75</ele><time>2026-04-19T14:32:19.979Z</time></trkpt><trkpt lat="44.5231916" lon="10.5378167"><ele>575.5</ele><time>2026-04-19T14:32:20.979Z</time></trkpt><trkpt lat="44.5232772" lon="10.5377033"><ele>576.25</ele><time>2026-04-19T14:32:21.98Z</time></trkpt><trkpt lat="44.5233529" lon="10.5375827"><ele>577.0</ele><time>2026-04-19T14:32:22.979Z</time></trkpt><trkpt lat="44.5234264" lon="10.5374736"><ele>577.0</ele><time>2026-04-19T14:32:23.979Z</time></trkpt><trkpt lat="44.5235056" lon="10.5373794"><ele>577.0</ele><time>2026-04-19T14:32:24.98Z</time></trkpt><trkpt lat="44.5235925" lon="10.5373087"><ele>577.0</ele><time>2026-04-19T14:32:25.979Z</time></trkpt><trkpt lat="44.5236946" lon="10.5372569"><ele>577.0</ele><time>2026-04-19T14:32:26.98Z</time></trkpt><trkpt lat="44.5237934" lon="10.5372269"><ele>577.0</ele><time>2026-04-19T14:32:27.978Z</time></trkpt><trkpt lat="44.5238837" lon="10.5372138"><ele>578.6</ele><time>2026-04-19T14:32:28.979Z</time></trkpt><trkpt lat="44.5239654" lon="10.5372321"><ele>580.2</ele><time>2026-04-19T14:32:29.979Z</time></trkpt><trkpt lat="44.5240376" lon="10.5372797"><ele>581.8</ele><time>2026-04-19T14:32:30.979Z</time></trkpt><trkpt lat="44.5241066" lon="10.5373592"><ele>583.4</ele><time>2026-04-19T14:32:31.979Z</time></trkpt><trkpt lat="44.5241731" lon="10.5374521"><ele>585.0</ele><time>2026-04-19T14:32:32.98Z</time></trkpt><trkpt lat="44.5242467" lon="10.5375711"><ele>585.0</ele><time>2026-04-19T14:32:33.98Z</time></trkpt><trkpt lat="44.5243123" lon="10.5376804"><ele>585.0</ele><time>2026-04-19T14:32:34.98Z</time></trkpt><trkpt lat="44.5243852" lon="10.5377677"><ele>585.0</ele><time>2026-04-19T14:32:35.98Z</time></trkpt><trkpt lat="44.5244752" lon="10.5378319"><ele>585.0</ele><time>2026-04-19T14:32:36.98Z</time></trkpt><trkpt lat="44.5245799" lon="10.5378596"><ele>585.0</ele><time>2026-04-19T14:32:37.98Z</time></trkpt><trkpt lat="44.5247046" lon="10.5378663"><ele>588.25</ele><time>2026-04-19T14:32:38.979Z</time></trkpt><trkpt lat="44.5248493" lon="10.5378613"><ele>591.5</ele><time>2026-04-19T14:32:39.978Z</time></trkpt><trkpt lat="44.5250138" lon="10.5378609"><ele>594.75</ele><time>2026-04-19T14:32:40.979Z</time></trkpt><trkpt lat="44.525154" lon="10.5378588"><ele>598.0</ele><time>2026-04-19T14:32:41.979Z</time></trkpt><trkpt lat="44.5252782" lon="10.5378665"><ele>598.6</ele><time>2026-04-19T14:32:42.98Z</time></trkpt><trkpt lat="44.5253889" lon="10.5378931"><ele>599.1999999999999</ele><time>2026-04-19T14:32:43.979Z</time></trkpt><trkpt lat="44.5254931" lon="10.5379462"><ele>599.8</ele><time>2026-04-19T14:32:44.979Z</time></trkpt><trkpt lat="44.5255838" lon="10.5380355"><ele>600.4</ele><time>2026-04-19T14:32:45.979Z</time></trkpt><trkpt lat="44.5256498" lon="10.5381328"><ele>601.0</ele><time>2026-04-19T14:32:46.98Z</time></trkpt><trkpt lat="44.5256895" lon="10.5382188"><ele>601.0</ele><time>2026-04-19T14:32:47.978Z</time></trkpt><trkpt lat="44.5257094" lon="10.538311"><ele>601.0</ele><time>2026-04-19T14:32:48.98Z</time></trkpt><trkpt lat="44.5257171" lon="10.5384144"><ele>601.0</ele><time>2026-04-19T14:32:49.98Z</time></trkpt><trkpt lat="44.5256981" lon="10.5385136"><ele>601.0</ele><time>2026-04-19T14:32:50.978Z</time></trkpt><trkpt lat="44.5256508" lon="10.5386035"><ele>601.0</ele><time>2026-04-19T14:32:51.98Z</time></trkpt><trkpt lat="44.525574" lon="10.5386762"><ele>601.0</ele><time>2026-04-19T14:32:52.979Z</time></trkpt><trkpt lat="44.5254786" lon="10.5387212"><ele>600.4</ele><time>2026-04-19T14:32:53.979Z</time></trkpt><trkpt lat="44.5253681" lon="10.5387428"><ele>599.8</ele><time>2026-04-19T14:32:54.98Z</time></trkpt><trkpt lat="44.5252699" lon="10.5387526"><ele>599.1999999999999</ele><time>2026-04-19T14:32:55.98Z</time></trkpt><trkpt lat="44.5251897" lon="10.5387803"><ele>598.6</ele><time>2026-04-19T14:32:56.979Z</time></trkpt><trkpt lat="44.5251284" lon="10.5388347"><ele>598.0</ele><time>2026-04-19T14:32:57.98Z</time></trkpt><trkpt lat="44.5250749" lon="10.5389274"><ele>598.0</ele><time>2026-04-19T14:32:58.98Z</time></trkpt><trkpt lat="44.5250393" lon="10.5390547"><ele>598.0</ele><time>2026-04-19T14:32:59.98Z</time></trkpt><trkpt lat="44.5250034" lon="10.5392167"><ele>598.0</ele><time>2026-04-19T14:33:00.979Z</time></trkpt><trkpt lat="44.5249701" lon="10.5393584"><ele>598.0</ele><time>2026-04-19T14:33:01.98Z</time></trkpt><trkpt lat="44.5249471" lon="10.5394852"><ele>598.0</ele><time>2026-04-19T14:33:02.98Z</time></trkpt><trkpt lat="44.524947" lon="10.5396017"><ele>600.6</ele><time>2026-04-19T14:33:03.98Z</time></trkpt><trkpt lat="44.5249669" lon="10.5397086"><ele>603.1999999999999</ele><time>2026-04-19T14:33:04.979Z</time></trkpt><trkpt lat="44.5249836" lon="10.5398081"><ele>605.8</ele><time>2026-04-19T14:33:05.979Z</time></trkpt><trkpt lat="44.5249245" lon="10.5399719"><ele>608.4</ele><time>2026-04-19T14:33:07.98Z</time></trkpt><trkpt lat="44.5248571" lon="10.5400212"><ele>611.0</ele><time>2026-04-19T14:33:08.98Z</time></trkpt><trkpt lat="44.524766" lon="10.5400249"><ele>611.0</ele><time>2026-04-19T14:33:09.979Z</time></trkpt><trkpt lat="44.5246586" lon="10.5400149"><ele>611.0</ele><time>2026-04-19T14:33:10.979Z</time></trkpt><trkpt lat="44.5245318" lon="10.540008"><ele>611.0</ele><time>2026-04-19T14:33:11.98Z</time></trkpt><trkpt lat="44.5244042" lon="10.5400093"><ele>611.0</ele><time>2026-04-19T14:33:12.98Z</time></trkpt><trkpt lat="44.524296" lon="10.5400103"><ele>612.3333333333333</ele><time>2026-04-19T14:33:13.98Z</time></trkpt><trkpt lat="44.524201" lon="10.5400228"><ele>613.6666666666666</ele><time>2026-04-19T14:33:14.978Z</time></trkpt><trkpt lat="44.5241192" lon="10.5400484"><ele>615.0</ele><time>2026-04-19T14:33:15.98Z</time></trkpt><trkpt lat="44.5240506" lon="10.540112"><ele>616.3333333333334</ele><time>2026-04-19T14:33:16.979Z</time></trkpt><trkpt lat="44.5240075" lon="10.5402148"><ele>617.6666666666667</ele><time>2026-04-19T14:33:17.979Z</time></trkpt><trkpt lat="44.5239891" lon="10.5403558"><ele>619.0</ele><time>2026-04-19T14:33:18.979Z</time></trkpt><trkpt lat="44.523973" lon="10.5405326"><ele>619.0</ele><time>2026-04-19T14:33:19.98Z</time></trkpt><trkpt lat="44.523957" lon="10.540715"><ele>619.0</ele><time>2026-04-19T14:33:20.98Z</time></trkpt><trkpt lat="44.5239398" lon="10.5409292"><ele>619.0</ele><time>2026-04-19T14:33:21.98Z</time></trkpt><trkpt lat="44.5239182" lon="10.541164"><ele>621.5</ele><time>2026-04-19T14:33:22.98Z</time></trkpt><trkpt lat="44.523896" lon="10.5413783"><ele>624.0</ele><time>2026-04-19T14:33:23.979Z</time></trkpt><trkpt lat="44.5238742" lon="10.5415746"><ele>626.5</ele><time>2026-04-19T14:33:24.979Z</time></trkpt><trkpt lat="44.5238662" lon="10.5417528"><ele>629.0</ele><time>2026-04-19T14:33:25.98Z</time></trkpt><trkpt lat="44.5238779" lon="10.5419084"><ele>629.0</ele><time>2026-04-19T14:33:26.979Z</time></trkpt><trkpt lat="44.5238897" lon="10.5420407"><ele>629.0</ele><time>2026-04-19T14:33:27.979Z</time></trkpt><trkpt lat="44.5238863" lon="10.5421443"><ele>629.0</ele><time>2026-04-19T14:33:28.98Z</time></trkpt><trkpt lat="44.5238582" lon="10.542242"><ele>629.0</ele><time>2026-04-19T14:33:29.979Z</time></trkpt><trkpt lat="44.5238058" lon="10.542304"><ele>629.0</ele><time>2026-04-19T14:33:30.979Z</time></trkpt><trkpt lat="44.5237301" lon="10.5423301"><ele>629.0</ele><time>2026-04-19T14:33:31.979Z</time></trkpt><trkpt lat="44.5236343" lon="10.5423267"><ele>626.25</ele><time>2026-04-19T14:33:32.979Z</time></trkpt><trkpt lat="44.5235335" lon="10.5423375"><ele>623.5</ele><time>2026-04-19T14:33:33.98Z</time></trkpt><trkpt lat="44.5234313" lon="10.5424013"><ele>620.75</ele><time>2026-04-19T14:33:34.979Z</time></trkpt><trkpt lat="44.5233255" lon="10.5425022"><ele>618.0</ele><time>2026-04-19T14:33:35.979Z</time></trkpt><trkpt lat="44.5232291" lon="10.5426342"><ele>618.0</ele><time>2026-04-19T14:33:36.98Z</time></trkpt><trkpt lat="44.5231321" lon="10.5427919"><ele>618.0</ele><time>2026-04-19T14:33:37.978Z</time></trkpt><trkpt lat="44.5230316" lon="10.5429728"><ele>618.0</ele><time>2026-04-19T14:33:38.979Z</time></trkpt><trkpt lat="44.5229362" lon="10.5431504"><ele>618.3333333333334</ele><time>2026-04-19T14:33:39.979Z</time></trkpt><trkpt lat="44.5228392" lon="10.5433396"><ele>618.6666666666667</ele><time>2026-04-19T14:33:40.979Z</time></trkpt><trkpt lat="44.522738" lon="10.5435383"><ele>619.0</ele><time>2026-04-19T14:33:41.98Z</time></trkpt><trkpt lat="44.5226328" lon="10.5437376"><ele>623.0</ele><time>2026-04-19T14:33:42.979Z</time></trkpt><trkpt lat="44.5225287" lon="10.543929"><ele>627.0</ele><time>2026-04-19T14:33:43.979Z</time></trkpt><trkpt lat="44.5224424" lon="10.5440864"><ele>631.0</ele><time>2026-04-19T14:33:44.98Z</time></trkpt><trkpt lat="44.5223655" lon="10.5442232"><ele>635.0</ele><time>2026-04-19T14:33:45.979Z</time></trkpt><trkpt lat="44.5222888" lon="10.5443288"><ele>635.0</ele><time>2026-04-19T14:33:46.979Z</time></trkpt><trkpt lat="44.522197" lon="10.5444147"><ele>635.0</ele><time>2026-04-19T14:33:47.978Z</time></trkpt><trkpt lat="44.5220837" lon="10.5444719"><ele>635.0</ele><time>2026-04-19T14:33:48.979Z</time></trkpt><trkpt lat="44.5219661" lon="10.5445263"><ele>635.0</ele><time>2026-04-19T14:33:49.979Z</time></trkpt><trkpt lat="44.5218672" lon="10.5445813"><ele>634.0</ele><time>2026-04-19T14:33:50.979Z</time></trkpt><trkpt lat="44.5217821" lon="10.544651"><ele>633.0</ele><time>2026-04-19T14:33:51.98Z</time></trkpt><trkpt lat="44.5217164" lon="10.5447474"><ele>632.0</ele><time>2026-04-19T14:33:52.98Z</time></trkpt><trkpt lat="44.5216668" lon="10.5448653"><ele>631.0</ele><time>2026-04-19T14:33:53.98Z</time></trkpt><trkpt lat="44.5216503" lon="10.5449927"><ele>630.0</ele><time>2026-04-19T14:33:54.98Z</time></trkpt><trkpt lat="44.5216655" lon="10.5451215"><ele>630.0</ele><time>2026-04-19T14:33:55.98Z</time></trkpt><trkpt lat="44.5217127" lon="10.5452279"><ele>630.0</ele><time>2026-04-19T14:33:56.98Z</time></trkpt><trkpt lat="44.5217862" lon="10.545308"><ele>630.0</ele><time>2026-04-19T14:33:57.979Z</time></trkpt><trkpt lat="44.5218645" lon="10.5453859"><ele>630.0</ele><time>2026-04-19T14:33:58.98Z</time></trkpt><trkpt lat="44.5219172" lon="10.5454793"><ele>630.0</ele><time>2026-04-19T14:33:59.979Z</time></trkpt><trkpt lat="44.5219425" lon="10.5455845"><ele>630.0</ele><time>2026-04-19T14:34:00.979Z</time></trkpt><trkpt lat="44.5219336" lon="10.545704"><ele>629.75</ele><time>2026-04-19T14:34:01.98Z</time></trkpt><trkpt lat="44.521889" lon="10.5458189"><ele>629.5</ele><time>2026-04-19T14:34:02.978Z</time></trkpt><trkpt lat="44.5218162" lon="10.5459509"><ele>629.25</ele><time>2026-04-19T14:34:03.98Z</time></trkpt><trkpt lat="44.5217283" lon="10.5461005"><ele>629.0</ele><time>2026-04-19T14:34:04.979Z</time></trkpt><trkpt lat="44.5216471" lon="10.546247"><ele>631.6666666666666</ele><time>2026-04-19T14:34:05.98Z</time></trkpt><trkpt lat="44.5215663" lon="10.5464085"><ele>634.3333333333334</ele><time>2026-04-19T14:34:06.98Z</time></trkpt><trkpt lat="44.521488" lon="10.5465984"><ele>637.0</ele><time>2026-04-19T14:34:07.979Z</time></trkpt><trkpt lat="44.5214173" lon="10.5468151"><ele>637.0</ele><time>2026-04-19T14:34:08.979Z</time></trkpt><trkpt lat="44.5213554" lon="10.5470327"><ele>637.0</ele><time>2026-04-19T14:34:09.98Z</time></trkpt><trkpt lat="44.5212895" lon="10.5472468"><ele>637.0</ele><time>2026-04-19T14:34:10.98Z</time></trkpt><trkpt lat="44.521223" lon="10.5474413"><ele>637.5</ele><time>2026-04-19T14:34:11.98Z</time></trkpt><trkpt lat="44.5211586" lon="10.5476193"><ele>638.0</ele><time>2026-04-19T14:34:12.98Z</time></trkpt><trkpt lat="44.5210879" lon="10.547778"><ele>638.5</ele><time>2026-04-19T14:34:13.979Z</time></trkpt><trkpt lat="44.5210081" lon="10.5479092"><ele>639.0</ele><time>2026-04-19T14:34:14.98Z</time></trkpt><trkpt lat="44.5208829" lon="10.5480103"><ele>639.0</ele><time>2026-04-19T14:34:15.98Z</time></trkpt><trkpt lat="44.5207593" lon="10.5481063"><ele>639.0</ele><time>2026-04-19T14:34:16.979Z</time></trkpt><trkpt lat="44.520639" lon="10.5481738"><ele>639.0</ele><time>2026-04-19T14:34:17.979Z</time></trkpt><trkpt lat="44.520544" lon="10.5482629"><ele>639.0</ele><time>2026-04-19T14:34:18.98Z</time></trkpt><trkpt lat="44.5204661" lon="10.5483743"><ele>639.0</ele><time>2026-04-19T14:34:19.98Z</time></trkpt><trkpt lat="44.5204008" lon="10.5485264"><ele>639.0</ele><time>2026-04-19T14:34:20.978Z</time></trkpt><trkpt lat="44.5203365" lon="10.5487129"><ele>639.0</ele><time>2026-04-19T14:34:21.98Z</time></trkpt><trkpt lat="44.5202779" lon="10.5489284"><ele>639.0</ele><time>2026-04-19T14:34:22.978Z</time></trkpt><trkpt lat="44.5202192" lon="10.5491683"><ele>635.0</ele><time>2026-04-19T14:34:23.979Z</time></trkpt><trkpt lat="44.5201671" lon="10.5493846"><ele>631.0</ele><time>2026-04-19T14:34:24.979Z</time></trkpt><trkpt lat="44.5201206" lon="10.5495911"><ele>627.0</ele><time>2026-04-19T14:34:25.98Z</time></trkpt><trkpt lat="44.5200856" lon="10.5497896"><ele>627.0</ele><time>2026-04-19T14:34:26.979Z</time></trkpt><trkpt lat="44.5200626" lon="10.5499752"><ele>627.0</ele><time>2026-04-19T14:34:27.98Z</time></trkpt><trkpt lat="44.5200617" lon="10.5501449"><ele>627.0</ele><time>2026-04-19T14:34:28.98Z</time></trkpt><trkpt lat="44.520073" lon="10.5503117"><ele>627.0</ele><time>2026-04-19T14:34:29.979Z</time></trkpt><trkpt lat="44.5201088" lon="10.5504895"><ele>626.75</ele><time>2026-04-19T14:34:30.979Z</time></trkpt><trkpt lat="44.5201633" lon="10.550662"><ele>626.5</ele><time>2026-04-19T14:34:31.979Z</time></trkpt><trkpt lat="44.5202398" lon="10.5508371"><ele>626.25</ele><time>2026-04-19T14:34:32.979Z</time></trkpt><trkpt lat="44.5203319" lon="10.5510072"><ele>626.0</ele><time>2026-04-19T14:34:33.98Z</time></trkpt><trkpt lat="44.5204212" lon="10.5511569"><ele>626.75</ele><time>2026-04-19T14:34:34.978Z</time></trkpt><trkpt lat="44.5205098" lon="10.5512897"><ele>627.5</ele><time>2026-04-19T14:34:35.979Z</time></trkpt><trkpt lat="44.5206073" lon="10.5513953"><ele>628.25</ele><time>2026-04-19T14:34:36.98Z</time></trkpt><trkpt lat="44.5207271" lon="10.5514821"><ele>629.0</ele><time>2026-04-19T14:34:37.978Z</time></trkpt><trkpt lat="44.5208619" lon="10.5515611"><ele>629.0</ele><time>2026-04-19T14:34:38.98Z</time></trkpt><trkpt lat="44.5209995" lon="10.5516178"><ele>629.0</ele><time>2026-04-19T14:34:39.979Z</time></trkpt><trkpt lat="44.5211415" lon="10.5516562"><ele>629.0</ele><time>2026-04-19T14:34:40.98Z</time></trkpt><trkpt lat="44.5212658" lon="10.5516659"><ele>629.0</ele><time>2026-04-19T14:34:41.98Z</time></trkpt><trkpt lat="44.5213831" lon="10.5516449"><ele>628.25</ele><time>2026-04-19T14:34:42.98Z</time></trkpt><trkpt lat="44.5215029" lon="10.5516224"><ele>627.5</ele><time>2026-04-19T14:34:43.979Z</time></trkpt><trkpt lat="44.5216189" lon="10.5515962"><ele>626.75</ele><time>2026-04-19T14:34:44.98Z</time></trkpt><trkpt lat="44.5217265" lon="10.5515722"><ele>626.0</ele><time>2026-04-19T14:34:45.98Z</time></trkpt><trkpt lat="44.5218303" lon="10.551565"><ele>626.0</ele><time>2026-04-19T14:34:46.978Z</time></trkpt><trkpt lat="44.5219277" lon="10.5515915"><ele>626.0</ele><time>2026-04-19T14:34:47.98Z</time></trkpt><trkpt lat="44.5220173" lon="10.551652"><ele>626.0</ele><time>2026-04-19T14:34:48.98Z</time></trkpt><trkpt lat="44.5221042" lon="10.5517423"><ele>626.0</ele><time>2026-04-19T14:34:49.98Z</time></trkpt><trkpt lat="44.5221792" lon="10.5518752"><ele>626.0</ele><time>2026-04-19T14:34:50.979Z</time></trkpt><trkpt lat="44.5222475" lon="10.5520324"><ele>625.75</ele><time>2026-04-19T14:34:51.979Z</time></trkpt><trkpt lat="44.522315" lon="10.5522223"><ele>625.5</ele><time>2026-04-19T14:34:52.98Z</time></trkpt><trkpt lat="44.5223631" lon="10.5524268"><ele>625.25</ele><time>2026-04-19T14:34:53.979Z</time></trkpt><trkpt lat="44.5223979" lon="10.5526143"><ele>625.0</ele><time>2026-04-19T14:34:54.979Z</time></trkpt><trkpt lat="44.5224292" lon="10.552779"><ele>623.8</ele><time>2026-04-19T14:34:55.979Z</time></trkpt><trkpt lat="44.5224595" lon="10.5529179"><ele>622.6</ele><time>2026-04-19T14:34:56.979Z</time></trkpt><trkpt lat="44.5224955" lon="10.5530376"><ele>621.4</ele><time>2026-04-19T14:34:57.978Z</time></trkpt><trkpt lat="44.5225576" lon="10.5531267"><ele>620.2</ele><time>2026-04-19T14:34:58.98Z</time></trkpt><trkpt lat="44.5226385" lon="10.5531897"><ele>619.0</ele><time>2026-04-19T14:34:59.979Z</time></trkpt><trkpt lat="44.5227364" lon="10.5532266"><ele>619.0</ele><time>2026-04-19T14:35:00.98Z</time></trkpt><trkpt lat="44.5228287" lon="10.5532813"><ele>619.0</ele><time>2026-04-19T14:35:01.979Z</time></trkpt><trkpt lat="44.5229244" lon="10.5533621"><ele>619.0</ele><time>2026-04-19T14:35:02.979Z</time></trkpt><trkpt lat="44.5230112" lon="10.553477"><ele>619.0</ele><time>2026-04-19T14:35:03.979Z</time></trkpt><trkpt lat="44.5230858" lon="10.5536054"><ele>619.0</ele><time>2026-04-19T14:35:04.98Z</time></trkpt><trkpt lat="44.5231547" lon="10.5537128"><ele>616.4</ele><time>2026-04-19T14:35:05.979Z</time></trkpt><trkpt lat="44.5232241" lon="10.553801"><ele>613.8</ele><time>2026-04-19T14:35:06.979Z</time></trkpt><trkpt lat="44.5233091" lon="10.5538613"><ele>611.2</ele><time>2026-04-19T14:35:07.98Z</time></trkpt><trkpt lat="44.5234079" lon="10.553888"><ele>608.6</ele><time>2026-04-19T14:35:08.98Z</time></trkpt><trkpt lat="44.5235102" lon="10.5539028"><ele>606.0</ele><time>2026-04-19T14:35:09.979Z</time></trkpt><trkpt lat="44.5236119" lon="10.5539219"><ele>606.0</ele><time>2026-04-19T14:35:10.979Z</time></trkpt><trkpt lat="44.5237063" lon="10.5539781"><ele>606.0</ele><time>2026-04-19T14:35:11.979Z</time></trkpt><trkpt lat="44.523786" lon="10.5540679"><ele>606.0</ele><time>2026-04-19T14:35:12.978Z</time></trkpt><trkpt lat="44.5238469" lon="10.5541763"><ele>606.0</ele><time>2026-04-19T14:35:13.979Z</time></trkpt><trkpt lat="44.5238823" lon="10.5543046"><ele>606.0</ele><time>2026-04-19T14:35:14.979Z</time></trkpt><trkpt lat="44.5239252" lon="10.5544083"><ele>607.4</ele><time>2026-04-19T14:35:15.978Z</time></trkpt><trkpt lat="44.5239803" lon="10.5544876"><ele>608.8</ele><time>2026-04-19T14:35:16.979Z</time></trkpt><trkpt lat="44.5240623" lon="10.5545121"><ele>610.1999999999999</ele><time>2026-04-19T14:35:17.979Z</time></trkpt><trkpt lat="44.5241597" lon="10.5545026"><ele>611.6</ele><time>2026-04-19T14:35:18.979Z</time></trkpt><trkpt lat="44.5242725" lon="10.5544805"><ele>613.0</ele><time>2026-04-19T14:35:19.98Z</time></trkpt><trkpt lat="44.5244143" lon="10.5544656"><ele>613.0</ele><time>2026-04-19T14:35:20.979Z</time></trkpt><trkpt lat="44.5245532" lon="10.5544539"><ele>613.0</ele><time>2026-04-19T14:35:21.978Z</time></trkpt><trkpt lat="44.5246882" lon="10.5544351"><ele>613.0</ele><time>2026-04-19T14:35:22.98Z</time></trkpt><trkpt lat="44.5248253" lon="10.5544056"><ele>613.0</ele><time>2026-04-19T14:35:23.98Z</time></trkpt><trkpt lat="44.5249571" lon="10.554359"><ele>611.25</ele><time>2026-04-19T14:35:24.979Z</time></trkpt><trkpt lat="44.5250937" lon="10.5542939"><ele>609.5</ele><time>2026-04-19T14:35:25.978Z</time></trkpt><trkpt lat="44.5252399" lon="10.5542353"><ele>607.75</ele><time>2026-04-19T14:35:26.98Z</time></trkpt><trkpt lat="44.5253851" lon="10.5541877"><ele>606.0</ele><time>2026-04-19T14:35:27.979Z</time></trkpt><trkpt lat="44.5255215" lon="10.5541411"><ele>601.25</ele><time>2026-04-19T14:35:28.978Z</time></trkpt><trkpt lat="44.5256507" lon="10.5540952"><ele>596.5</ele><time>2026-04-19T14:35:29.979Z</time></trkpt><trkpt lat="44.5257632" lon="10.5540462"><ele>591.75</ele><time>2026-04-19T14:35:30.98Z</time></trkpt><trkpt lat="44.5258656" lon="10.5539874"><ele>587.0</ele><time>2026-04-19T14:35:31.979Z</time></trkpt><trkpt lat="44.5259618" lon="10.553904"><ele>587.0</ele><time>2026-04-19T14:35:32.979Z</time></trkpt><trkpt lat="44.5260555" lon="10.5537994"><ele>587.0</ele><time>2026-04-19T14:35:33.98Z</time></trkpt><trkpt lat="44.5261379" lon="10.5536991"><ele>587.0</ele><time>2026-04-19T14:35:34.98Z</time></trkpt><trkpt lat="44.5262079" lon="10.5536171"><ele>587.0</ele><time>2026-04-19T14:35:35.98Z</time></trkpt><trkpt lat="44.5262798" lon="10.5535497"><ele>587.0</ele><time>2026-04-19T14:35:36.98Z</time></trkpt><trkpt lat="44.5263643" lon="10.5535101"><ele>585.0</ele><time>2026-04-19T14:35:37.978Z</time></trkpt><trkpt lat="44.5264611" lon="10.5535085"><ele>583.0</ele><time>2026-04-19T14:35:38.98Z</time></trkpt><trkpt lat="44.5265629" lon="10.5535448"><ele>581.0</ele><time>2026-04-19T14:35:39.979Z</time></trkpt><trkpt lat="44.5266748" lon="10.5535999"><ele>579.0</ele><time>2026-04-19T14:35:40.98Z</time></trkpt><trkpt lat="44.5267883" lon="10.5536539"><ele>577.0</ele><time>2026-04-19T14:35:41.978Z</time></trkpt><trkpt lat="44.5269011" lon="10.5536811"><ele>577.0</ele><time>2026-04-19T14:35:42.98Z</time></trkpt><trkpt lat="44.527002" lon="10.5536919"><ele>577.0</ele><time>2026-04-19T14:35:43.98Z</time></trkpt><trkpt lat="44.5270915" lon="10.5536989"><ele>577.0</ele><time>2026-04-19T14:35:44.98Z</time></trkpt><trkpt lat="44.5271629" lon="10.5537192"><ele>577.0</ele><time>2026-04-19T14:35:45.979Z</time></trkpt><trkpt lat="44.5272251" lon="10.5537596"><ele>577.0</ele><time>2026-04-19T14:35:46.979Z</time></trkpt><trkpt lat="44.5272818" lon="10.5538408"><ele>577.0</ele><time>2026-04-19T14:35:47.98Z</time></trkpt><trkpt lat="44.5273422" lon="10.5539428"><ele>576.75</ele><time>2026-04-19T14:35:48.98Z</time></trkpt><trkpt lat="44.5274096" lon="10.5540607"><ele>576.5</ele><time>2026-04-19T14:35:49.98Z</time></trkpt><trkpt lat="44.5274775" lon="10.5541873"><ele>576.25</ele><time>2026-04-19T14:35:50.98Z</time></trkpt><trkpt lat="44.5275472" lon="10.5543322"><ele>576.0</ele><time>2026-04-19T14:35:51.98Z</time></trkpt><trkpt lat="44.5276121" lon="10.5544882"><ele>575.0</ele><time>2026-04-19T14:35:52.979Z</time></trkpt><trkpt lat="44.5276737" lon="10.5546475"><ele>574.0</ele><time>2026-04-19T14:35:53.979Z</time></trkpt><trkpt lat="44.5277387" lon="10.5548084"><ele>573.0</ele><time>2026-04-19T14:35:54.98Z</time></trkpt><trkpt lat="44.5277978" lon="10.5549635"><ele>572.0</ele><time>2026-04-19T14:35:55.98Z</time></trkpt><trkpt lat="44.5278574" lon="10.5551174"><ele>572.5</ele><time>2026-04-19T14:35:56.979Z</time></trkpt><trkpt lat="44.5279151" lon="10.5552683"><ele>573.0</ele><time>2026-04-19T14:35:57.98Z</time></trkpt><trkpt lat="44.5279757" lon="10.5554192"><ele>573.5</ele><time>2026-04-19T14:35:58.98Z</time></trkpt><trkpt lat="44.5280385" lon="10.5555821"><ele>574.0</ele><time>2026-04-19T14:35:59.98Z</time></trkpt><trkpt lat="44.528101" lon="10.5557403"><ele>574.0</ele><time>2026-04-19T14:36:00.98Z</time></trkpt><trkpt lat="44.5281567" lon="10.5558741"><ele>574.0</ele><time>2026-04-19T14:36:01.98Z</time></trkpt><trkpt lat="44.5282078" lon="10.5559933"><ele>574.0</ele><time>2026-04-19T14:36:02.98Z</time></trkpt><trkpt lat="44.5282572" lon="10.5560987"><ele>574.0</ele><time>2026-04-19T14:36:03.98Z</time></trkpt><trkpt lat="44.5283072" lon="10.5561987"><ele>574.0</ele><time>2026-04-19T14:36:04.98Z</time></trkpt><trkpt lat="44.5283653" lon="10.5563077"><ele>572.25</ele><time>2026-04-19T14:36:05.98Z</time></trkpt><trkpt lat="44.5284342" lon="10.5564307"><ele>570.5</ele><time>2026-04-19T14:36:06.979Z</time></trkpt><trkpt lat="44.5285159" lon="10.5565612"><ele>568.75</ele><time>2026-04-19T14:36:07.979Z</time></trkpt><trkpt lat="44.5286027" lon="10.5566997"><ele>567.0</ele><time>2026-04-19T14:36:08.979Z</time></trkpt><trkpt lat="44.5286956" lon="10.556852"><ele>567.5</ele><time>2026-04-19T14:36:09.978Z</time></trkpt><trkpt lat="44.5287897" lon="10.5569998"><ele>568.0</ele><time>2026-04-19T14:36:10.98Z</time></trkpt><trkpt lat="44.5288907" lon="10.5571584"><ele>568.5</ele><time>2026-04-19T14:36:11.98Z</time></trkpt><trkpt lat="44.5289905" lon="10.5573199"><ele>569.0</ele><time>2026-04-19T14:36:12.98Z</time></trkpt><trkpt lat="44.529093" lon="10.5574882"><ele>569.0</ele><time>2026-04-19T14:36:13.98Z</time></trkpt><trkpt lat="44.5291944" lon="10.5576736"><ele>569.0</ele><time>2026-04-19T14:36:14.98Z</time></trkpt><trkpt lat="44.529302" lon="10.5578728"><ele>569.0</ele><time>2026-04-19T14:36:15.979Z</time></trkpt><trkpt lat="44.5294063" lon="10.558065"><ele>570.0</ele><time>2026-04-19T14:36:16.979Z</time></trkpt><trkpt lat="44.5295063" lon="10.5582491"><ele>571.0</ele><time>2026-04-19T14:36:17.979Z</time></trkpt><trkpt lat="44.5296067" lon="10.5584374"><ele>572.0</ele><time>2026-04-19T14:36:18.978Z</time></trkpt><trkpt lat="44.5297112" lon="10.558633"><ele>570.3333333333333</ele><time>2026-04-19T14:36:19.979Z</time></trkpt><trkpt lat="44.5298223" lon="10.558843"><ele>568.6666666666666</ele><time>2026-04-19T14:36:20.979Z</time></trkpt><trkpt lat="44.5299305" lon="10.559034"><ele>567.0</ele><time>2026-04-19T14:36:21.98Z</time></trkpt><trkpt lat="44.5300336" lon="10.5592135"><ele>567.0</ele><time>2026-04-19T14:36:22.979Z</time></trkpt><trkpt lat="44.5301374" lon="10.5593872"><ele>567.0</ele><time>2026-04-19T14:36:23.98Z</time></trkpt><trkpt lat="44.5302384" lon="10.5595638"><ele>567.0</ele><time>2026-04-19T14:36:24.98Z</time></trkpt><trkpt lat="44.5303364" lon="10.5597341"><ele>569.5</ele><time>2026-04-19T14:36:25.98Z</time></trkpt><trkpt lat="44.5304274" lon="10.559894"><ele>572.0</ele><time>2026-04-19T14:36:26.98Z</time></trkpt><trkpt lat="44.5305083" lon="10.5600449"><ele>574.5</ele><time>2026-04-19T14:36:27.978Z</time></trkpt><trkpt lat="44.5305804" lon="10.5601947"><ele>577.0</ele><time>2026-04-19T14:36:28.98Z</time></trkpt><trkpt lat="44.5306396" lon="10.560361"><ele>574.3333333333334</ele><time>2026-04-19T14:36:29.98Z</time></trkpt><trkpt lat="44.5306753" lon="10.56055"><ele>571.6666666666666</ele><time>2026-04-19T14:36:30.98Z</time></trkpt><trkpt lat="44.5306949" lon="10.5607683"><ele>569.0</ele><time>2026-04-19T14:36:31.98Z</time></trkpt><trkpt lat="44.5307008" lon="10.5609922"><ele>567.5</ele><time>2026-04-19T14:36:32.979Z</time></trkpt><trkpt lat="44.5307073" lon="10.5612019"><ele>566.0</ele><time>2026-04-19T14:36:33.978Z</time></trkpt><trkpt lat="44.5307226" lon="10.5614008"><ele>564.5</ele><time>2026-04-19T14:36:34.979Z</time></trkpt><trkpt lat="44.5307369" lon="10.5615811"><ele>563.0</ele><time>2026-04-19T14:36:35.979Z</time></trkpt><trkpt lat="44.5307369" lon="10.5617345"><ele>563.0</ele><time>2026-04-19T14:36:36.98Z</time></trkpt><trkpt lat="44.5307102" lon="10.5618715"><ele>563.0</ele><time>2026-04-19T14:36:37.978Z</time></trkpt><trkpt lat="44.5306577" lon="10.5620064"><ele>563.0</ele><time>2026-04-19T14:36:38.98Z</time></trkpt><trkpt lat="44.5305892" lon="10.5621292"><ele>563.0</ele><time>2026-04-19T14:36:39.98Z</time></trkpt><trkpt lat="44.5305244" lon="10.5622444"><ele>563.0</ele><time>2026-04-19T14:36:40.98Z</time></trkpt><trkpt lat="44.5304731" lon="10.5623657"><ele>563.0</ele><time>2026-04-19T14:36:41.979Z</time></trkpt><trkpt lat="44.5304425" lon="10.5624965"><ele>563.0</ele><time>2026-04-19T14:36:42.979Z</time></trkpt><trkpt lat="44.5304394" lon="10.5626274"><ele>563.0</ele><time>2026-04-19T14:36:43.979Z</time></trkpt><trkpt lat="44.5304645" lon="10.56277"><ele>563.0</ele><time>2026-04-19T14:36:44.979Z</time></trkpt><trkpt lat="44.530513" lon="10.5629157"><ele>563.0</ele><time>2026-04-19T14:36:45.979Z</time></trkpt><trkpt lat="44.5305889" lon="10.5630406"><ele>561.0</ele><time>2026-04-19T14:36:46.98Z</time></trkpt><trkpt lat="44.5306745" lon="10.5631485"><ele>559.0</ele><time>2026-04-19T14:36:47.979Z</time></trkpt><trkpt lat="44.5307617" lon="10.5632415"><ele>557.0</ele><time>2026-04-19T14:36:48.979Z</time></trkpt><trkpt lat="44.5308224" lon="10.5633447"><ele>555.0</ele><time>2026-04-19T14:36:49.979Z</time></trkpt><trkpt lat="44.5308633" lon="10.5634593"><ele>553.0</ele><time>2026-04-19T14:36:50.98Z</time></trkpt><trkpt lat="44.5308754" lon="10.5635871"><ele>553.8</ele><time>2026-04-19T14:36:51.98Z</time></trkpt><trkpt lat="44.5308539" lon="10.5637132"><ele>554.5999999999999</ele><time>2026-04-19T14:36:52.98Z</time></trkpt><trkpt lat="44.5308055" lon="10.563823"><ele>555.4000000000001</ele><time>2026-04-19T14:36:53.98Z</time></trkpt><trkpt lat="44.5307266" lon="10.5639211"><ele>556.2</ele><time>2026-04-19T14:36:54.978Z</time></trkpt><trkpt lat="44.5306242" lon="10.5640002"><ele>557.0</ele><time>2026-04-19T14:36:55.978Z</time></trkpt><trkpt lat="44.5305329" lon="10.5640634"><ele>557.0</ele><time>2026-04-19T14:36:56.979Z</time></trkpt><trkpt lat="44.530454" lon="10.5641357"><ele>557.0</ele><time>2026-04-19T14:36:57.98Z</time></trkpt><trkpt lat="44.5303853" lon="10.5642274"><ele>557.0</ele><time>2026-04-19T14:36:58.979Z</time></trkpt><trkpt lat="44.530343" lon="10.5643424"><ele>557.0</ele><time>2026-04-19T14:36:59.98Z</time></trkpt><trkpt lat="44.5303155" lon="10.5644924"><ele>557.0</ele><time>2026-04-19T14:37:00.979Z</time></trkpt><trkpt lat="44.5303042" lon="10.5646529"><ele>559.8000000000001</ele><time>2026-04-19T14:37:01.98Z</time></trkpt><trkpt lat="44.5303043" lon="10.5648012"><ele>562.6</ele><time>2026-04-19T14:37:02.98Z</time></trkpt><trkpt lat="44.5303243" lon="10.5649319"><ele>565.4000000000001</ele><time>2026-04-19T14:37:03.98Z</time></trkpt><trkpt lat="44.5303659" lon="10.5650622"><ele>568.2</ele><time>2026-04-19T14:37:04.98Z</time></trkpt><trkpt lat="44.5304205" lon="10.5651987"><ele>571.0</ele><time>2026-04-19T14:37:05.979Z</time></trkpt><trkpt lat="44.530473" lon="10.565351"><ele>570.4</ele><time>2026-04-19T14:37:06.98Z</time></trkpt><trkpt lat="44.5305121" lon="10.5655112"><ele>569.8</ele><time>2026-04-19T14:37:07.978Z</time></trkpt><trkpt lat="44.5305473" lon="10.5656558"><ele>569.1999999999999</ele><time>2026-04-19T14:37:08.978Z</time></trkpt><trkpt lat="44.5305874" lon="10.565782"><ele>568.6</ele><time>2026-04-19T14:37:09.98Z</time></trkpt><trkpt lat="44.5306387" lon="10.5659097"><ele>568.0</ele><time>2026-04-19T14:37:10.98Z</time></trkpt><trkpt lat="44.5307007" lon="10.5660342"><ele>568.0</ele><time>2026-04-19T14:37:11.98Z</time></trkpt><trkpt lat="44.5307776" lon="10.5661488"><ele>568.0</ele><time>2026-04-19T14:37:12.979Z</time></trkpt><trkpt lat="44.5308756" lon="10.5662479"><ele>568.0</ele><time>2026-04-19T14:37:13.979Z</time></trkpt><trkpt lat="44.5309911" lon="10.5663273"><ele>568.0</ele><time>2026-04-19T14:37:14.979Z</time></trkpt><trkpt lat="44.5310932" lon="10.5664018"><ele>564.75</ele><time>2026-04-19T14:37:15.979Z</time></trkpt><trkpt lat="44.5311739" lon="10.5665114"><ele>561.5</ele><time>2026-04-19T14:37:16.979Z</time></trkpt><trkpt lat="44.5312445" lon="10.5666515"><ele>558.25</ele><time>2026-04-19T14:37:17.98Z</time></trkpt><trkpt lat="44.531279" lon="10.5668191"><ele>555.0</ele><time>2026-04-19T14:37:18.979Z</time></trkpt><trkpt lat="44.5313039" lon="10.5669922"><ele>559.0</ele><time>2026-04-19T14:37:19.979Z</time></trkpt><trkpt lat="44.5313295" lon="10.5671511"><ele>563.0</ele><time>2026-04-19T14:37:20.979Z</time></trkpt><trkpt lat="44.5313755" lon="10.5672993"><ele>567.0</ele><time>2026-04-19T14:37:21.98Z</time></trkpt><trkpt lat="44.5314456" lon="10.567453"><ele>571.0</ele><time>2026-04-19T14:37:22.98Z</time></trkpt><trkpt lat="44.5315297" lon="10.5676107"><ele>571.0</ele><time>2026-04-19T14:37:23.98Z</time></trkpt><trkpt lat="44.5316131" lon="10.5677543"><ele>571.0</ele><time>2026-04-19T14:37:24.979Z</time></trkpt><trkpt lat="44.5317004" lon="10.5678946"><ele>571.0</ele><time>2026-04-19T14:37:25.979Z</time></trkpt><trkpt lat="44.5317986" lon="10.5680405"><ele>571.0</ele><time>2026-04-19T14:37:26.98Z</time></trkpt><trkpt lat="44.5318922" lon="10.5682009"><ele>571.0</ele><time>2026-04-19T14:37:27.98Z</time></trkpt><trkpt lat="44.531973" lon="10.5683767"><ele>571.0</ele><time>2026-04-19T14:37:28.98Z</time></trkpt><trkpt lat="44.5320454" lon="10.5685579"><ele>571.0</ele><time>2026-04-19T14:37:29.979Z</time></trkpt><trkpt lat="44.5321093" lon="10.5687334"><ele>571.0</ele><time>2026-04-19T14:37:30.979Z</time></trkpt><trkpt lat="44.532183" lon="10.568898"><ele>571.0</ele><time>2026-04-19T14:37:31.98Z</time></trkpt><trkpt lat="44.5322619" lon="10.5690449"><ele>571.0</ele><time>2026-04-19T14:37:32.98Z</time></trkpt><trkpt lat="44.5323533" lon="10.5691884"><ele>571.0</ele><time>2026-04-19T14:37:33.98Z</time></trkpt><trkpt lat="44.5324504" lon="10.5693379"><ele>571.0</ele><time>2026-04-19T14:37:34.979Z</time></trkpt><trkpt lat="44.5325481" lon="10.5694993"><ele>564.0</ele><time>2026-04-19T14:37:35.979Z</time></trkpt><trkpt lat="44.5326411" lon="10.5696661"><ele>557.0</ele><time>2026-04-19T14:37:36.98Z</time></trkpt><trkpt lat="44.5327326" lon="10.569838"><ele>550.0</ele><time>2026-04-19T14:37:37.98Z</time></trkpt><trkpt lat="44.5328213" lon="10.570013"><ele>555.0</ele><time>2026-04-19T14:37:38.979Z</time></trkpt><trkpt lat="44.532903" lon="10.5701842"><ele>560.0</ele><time>2026-04-19T14:37:39.98Z</time></trkpt><trkpt lat="44.5329825" lon="10.5703439"><ele>565.0</ele><time>2026-04-19T14:37:40.978Z</time></trkpt><trkpt lat="44.5330601" lon="10.5704952"><ele>570.0</ele><time>2026-04-19T14:37:41.98Z</time></trkpt><trkpt lat="44.5331372" lon="10.5706368"><ele>570.0</ele><time>2026-04-19T14:37:42.979Z</time></trkpt><trkpt lat="44.5332117" lon="10.5707712"><ele>570.0</ele><time>2026-04-19T14:37:43.979Z</time></trkpt><trkpt lat="44.5332866" lon="10.5709186"><ele>570.0</ele><time>2026-04-19T14:37:44.979Z</time></trkpt><trkpt lat="44.5333612" lon="10.5710781"><ele>570.0</ele><time>2026-04-19T14:37:45.979Z</time></trkpt><trkpt lat="44.5334332" lon="10.5712375"><ele>567.0</ele><time>2026-04-19T14:37:46.979Z</time></trkpt><trkpt lat="44.5334989" lon="10.5713958"><ele>564.0</ele><time>2026-04-19T14:37:47.979Z</time></trkpt><trkpt lat="44.5335578" lon="10.5715518"><ele>561.0</ele><time>2026-04-19T14:37:48.98Z</time></trkpt><trkpt lat="44.5336011" lon="10.5716981"><ele>558.0</ele><time>2026-04-19T14:37:49.98Z</time></trkpt><trkpt lat="44.5336281" lon="10.5718437"><ele>558.0</ele><time>2026-04-19T14:37:50.979Z</time></trkpt><trkpt lat="44.533619" lon="10.5719836"><ele>558.0</ele><time>2026-04-19T14:37:51.98Z</time></trkpt><trkpt lat="44.5335998" lon="10.5721255"><ele>558.0</ele><time>2026-04-19T14:37:52.979Z</time></trkpt><trkpt lat="44.5335613" lon="10.5722696"><ele>558.0</ele><time>2026-04-19T14:37:53.979Z</time></trkpt><trkpt lat="44.5335103" lon="10.5724315"><ele>558.0</ele><time>2026-04-19T14:37:54.978Z</time></trkpt><trkpt lat="44.5334681" lon="10.572597"><ele>557.75</ele><time>2026-04-19T14:37:55.979Z</time></trkpt><trkpt lat="44.5334271" lon="10.5727764"><ele>557.5</ele><time>2026-04-19T14:37:56.978Z</time></trkpt><trkpt lat="44.5333764" lon="10.57297"><ele>557.25</ele><time>2026-04-19T14:37:57.98Z</time></trkpt><trkpt lat="44.5333221" lon="10.5731905"><ele>557.0</ele><time>2026-04-19T14:37:58.98Z</time></trkpt><trkpt lat="44.5332661" lon="10.5734025"><ele>557.5</ele><time>2026-04-19T14:37:59.979Z</time></trkpt><trkpt lat="44.5332163" lon="10.5735862"><ele>558.0</ele><time>2026-04-19T14:38:00.979Z</time></trkpt><trkpt lat="44.5331638" lon="10.5737538"><ele>558.5</ele><time>2026-04-19T14:38:01.979Z</time></trkpt><trkpt lat="44.5331196" lon="10.5739098"><ele>559.0</ele><time>2026-04-19T14:38:02.98Z</time></trkpt><trkpt lat="44.5330857" lon="10.5740638"><ele>558.4</ele><time>2026-04-19T14:38:03.979Z</time></trkpt><trkpt lat="44.5330647" lon="10.5742144"><ele>557.8</ele><time>2026-04-19T14:38:04.979Z</time></trkpt><trkpt lat="44.5330593" lon="10.5743508"><ele>557.2</ele><time>2026-04-19T14:38:05.98Z</time></trkpt><trkpt lat="44.5330716" lon="10.5744929"><ele>556.6</ele><time>2026-04-19T14:38:06.979Z</time></trkpt><trkpt lat="44.5331061" lon="10.5746306"><ele>556.0</ele><time>2026-04-19T14:38:07.98Z</time></trkpt><trkpt lat="44.5331654" lon="10.5747587"><ele>556.0</ele><time>2026-04-19T14:38:08.979Z</time></trkpt><trkpt lat="44.5332386" lon="10.5748645"><ele>556.0</ele><time>2026-04-19T14:38:09.98Z</time></trkpt><trkpt lat="44.5333296" lon="10.5749709"><ele>556.0</ele><time>2026-04-19T14:38:10.979Z</time></trkpt><trkpt lat="44.5334427" lon="10.5750713"><ele>556.0</ele><time>2026-04-19T14:38:11.979Z</time></trkpt><trkpt lat="44.5335589" lon="10.5751669"><ele>556.0</ele><time>2026-04-19T14:38:12.979Z</time></trkpt><trkpt lat="44.5336717" lon="10.5752556"><ele>556.0</ele><time>2026-04-19T14:38:13.979Z</time></trkpt><trkpt lat="44.5337791" lon="10.5753371"><ele>556.0</ele><time>2026-04-19T14:38:14.98Z</time></trkpt><trkpt lat="44.5338869" lon="10.5753987"><ele>556.0</ele><time>2026-04-19T14:38:15.979Z</time></trkpt><trkpt lat="44.5340047" lon="10.5754478"><ele>553.0</ele><time>2026-04-19T14:38:16.98Z</time></trkpt><trkpt lat="44.5341376" lon="10.5754683"><ele>550.0</ele><time>2026-04-19T14:38:17.98Z</time></trkpt><trkpt lat="44.5342886" lon="10.575489"><ele>547.0</ele><time>2026-04-19T14:38:18.98Z</time></trkpt><trkpt lat="44.5344523" lon="10.5755347"><ele>551.25</ele><time>2026-04-19T14:38:19.98Z</time></trkpt><trkpt lat="44.5346003" lon="10.5755883"><ele>555.5</ele><time>2026-04-19T14:38:20.979Z</time></trkpt><trkpt lat="44.5347264" lon="10.5756373"><ele>559.75</ele><time>2026-04-19T14:38:21.979Z</time></trkpt><trkpt lat="44.5348357" lon="10.5756928"><ele>564.0</ele><time>2026-04-19T14:38:22.979Z</time></trkpt><trkpt lat="44.5349394" lon="10.5757755"><ele>564.0</ele><time>2026-04-19T14:38:23.979Z</time></trkpt><trkpt lat="44.5350373" lon="10.5758932"><ele>564.0</ele><time>2026-04-19T14:38:24.979Z</time></trkpt><trkpt lat="44.5351291" lon="10.5760193"><ele>564.0</ele><time>2026-04-19T14:38:25.98Z</time></trkpt><trkpt lat="44.5352138" lon="10.5761293"><ele>564.0</ele><time>2026-04-19T14:38:26.978Z</time></trkpt><trkpt lat="44.5352984" lon="10.5762353"><ele>566.6</ele><time>2026-04-19T14:38:27.979Z</time></trkpt><trkpt lat="44.5353817" lon="10.5763366"><ele>569.2</ele><time>2026-04-19T14:38:28.98Z</time></trkpt><trkpt lat="44.535451" lon="10.5764294"><ele>571.8000000000001</ele><time>2026-04-19T14:38:29.98Z</time></trkpt><trkpt lat="44.5355067" lon="10.5765284"><ele>574.4</ele><time>2026-04-19T14:38:30.98Z</time></trkpt><trkpt lat="44.535546" lon="10.576654"><ele>577.0</ele><time>2026-04-19T14:38:31.979Z</time></trkpt><trkpt lat="44.535568" lon="10.5767943"><ele>577.0</ele><time>2026-04-19T14:38:32.979Z</time></trkpt><trkpt lat="44.5355745" lon="10.5769349"><ele>577.0</ele><time>2026-04-19T14:38:33.98Z</time></trkpt><trkpt lat="44.5355923" lon="10.5770642"><ele>577.0</ele><time>2026-04-19T14:38:34.98Z</time></trkpt><trkpt lat="44.5356365" lon="10.5771977"><ele>577.0</ele><time>2026-04-19T14:38:35.98Z</time></trkpt><trkpt lat="44.5356955" lon="10.577319"><ele>577.0</ele><time>2026-04-19T14:38:36.979Z</time></trkpt><trkpt lat="44.5357548" lon="10.5774377"><ele>574.0</ele><time>2026-04-19T14:38:37.98Z</time></trkpt><trkpt lat="44.5357997" lon="10.5775738"><ele>571.0</ele><time>2026-04-19T14:38:38.98Z</time></trkpt><trkpt lat="44.5358324" lon="10.5777111"><ele>568.0</ele><time>2026-04-19T14:38:39.978Z</time></trkpt><trkpt lat="44.5358505" lon="10.5778422"><ele>565.0</ele><time>2026-04-19T14:38:40.98Z</time></trkpt><trkpt lat="44.5358657" lon="10.5779642"><ele>562.0</ele><time>2026-04-19T14:38:41.979Z</time></trkpt><trkpt lat="44.535882" lon="10.5780749"><ele>562.5</ele><time>2026-04-19T14:38:42.98Z</time></trkpt><trkpt lat="44.5359069" lon="10.5781752"><ele>563.0</ele><time>2026-04-19T14:38:43.98Z</time></trkpt><trkpt lat="44.5359487" lon="10.5782609"><ele>563.5</ele><time>2026-04-19T14:38:44.979Z</time></trkpt><trkpt lat="44.536012" lon="10.5783248"><ele>564.0</ele><time>2026-04-19T14:38:45.979Z</time></trkpt><trkpt lat="44.5360919" lon="10.5783511"><ele>564.5</ele><time>2026-04-19T14:38:46.98Z</time></trkpt><trkpt lat="44.5361784" lon="10.5783406"><ele>565.0</ele><time>2026-04-19T14:38:47.979Z</time></trkpt><trkpt lat="44.5362756" lon="10.5782998"><ele>565.0</ele><time>2026-04-19T14:38:48.979Z</time></trkpt><trkpt lat="44.5363814" lon="10.5782391"><ele>565.0</ele><time>2026-04-19T14:38:49.98Z</time></trkpt><trkpt lat="44.5364855" lon="10.5781795"><ele>565.0</ele><time>2026-04-19T14:38:50.98Z</time></trkpt><trkpt lat="44.5365872" lon="10.5781195"><ele>565.0</ele><time>2026-04-19T14:38:51.979Z</time></trkpt><trkpt lat="44.536681" lon="10.5780499"><ele>565.0</ele><time>2026-04-19T14:38:52.98Z</time></trkpt><trkpt lat="44.5367617" lon="10.577966"><ele>565.0</ele><time>2026-04-19T14:38:53.979Z</time></trkpt><trkpt lat="44.5368241" lon="10.5778667"><ele>565.0</ele><time>2026-04-19T14:38:54.978Z</time></trkpt><trkpt lat="44.5368759" lon="10.5777638"><ele>565.0</ele><time>2026-04-19T14:38:55.98Z</time></trkpt><trkpt lat="44.5369293" lon="10.5776754"><ele>565.0</ele><time>2026-04-19T14:38:56.979Z</time></trkpt><trkpt lat="44.5369909" lon="10.5775939"><ele>565.0</ele><time>2026-04-19T14:38:57.979Z</time></trkpt><trkpt lat="44.5370729" lon="10.577529"><ele>565.0</ele><time>2026-04-19T14:38:58.98Z</time></trkpt><trkpt lat="44.5371721" lon="10.5774853"><ele>561.25</ele><time>2026-04-19T14:38:59.979Z</time></trkpt><trkpt lat="44.5372797" lon="10.5774539"><ele>557.5</ele><time>2026-04-19T14:39:00.98Z</time></trkpt><trkpt lat="44.5373959" lon="10.5774164"><ele>553.75</ele><time>2026-04-19T14:39:01.979Z</time></trkpt><trkpt lat="44.5375097" lon="10.5773763"><ele>550.0</ele><time>2026-04-19T14:39:02.979Z</time></trkpt><trkpt lat="44.5376111" lon="10.5773385"><ele>550.0</ele><time>2026-04-19T14:39:03.98Z</time></trkpt><trkpt lat="44.5376925" lon="10.5773061"><ele>550.0</ele><time>2026-04-19T14:39:04.979Z</time></trkpt><trkpt lat="44.5377591" lon="10.5772804"><ele>550.0</ele><time>2026-04-19T14:39:05.979Z</time></trkpt><trkpt lat="44.5378537" lon="10.5772864"><ele>550.0</ele><time>2026-04-19T14:39:07.978Z</time></trkpt><trkpt lat="44.5378791" lon="10.5773779"><ele>550.0</ele><time>2026-04-19T14:39:09.98Z</time></trkpt><trkpt lat="44.5377985" lon="10.5774982"><ele>550.0</ele><time>2026-04-19T14:39:11.98Z</time></trkpt><trkpt lat="44.5377266" lon="10.5775518"><ele>550.0</ele><time>2026-04-19T14:39:12.98Z</time></trkpt><trkpt lat="44.5376348" lon="10.5776105"><ele>550.0</ele><time>2026-04-19T14:39:13.98Z</time></trkpt><trkpt lat="44.5375429" lon="10.5776664"><ele>550.0</ele><time>2026-04-19T14:39:14.979Z</time></trkpt><trkpt lat="44.537462" lon="10.5777288"><ele>550.0</ele><time>2026-04-19T14:39:15.978Z</time></trkpt><trkpt lat="44.5373986" lon="10.577803"><ele>550.0</ele><time>2026-04-19T14:39:16.979Z</time></trkpt><trkpt lat="44.537354" lon="10.5778887"><ele>548.0</ele><time>2026-04-19T14:39:17.98Z</time></trkpt><trkpt lat="44.5373277" lon="10.5779791"><ele>546.0</ele><time>2026-04-19T14:39:18.979Z</time></trkpt><trkpt lat="44.5373142" lon="10.5780692"><ele>544.0</ele><time>2026-04-19T14:39:19.979Z</time></trkpt><trkpt lat="44.5373117" lon="10.5781599"><ele>542.0</ele><time>2026-04-19T14:39:20.98Z</time></trkpt><trkpt lat="44.5373245" lon="10.5782474"><ele>540.0</ele><time>2026-04-19T14:39:21.98Z</time></trkpt><trkpt lat="44.5374059" lon="10.5783353"><ele>538.0</ele><time>2026-04-19T14:39:23.978Z</time></trkpt><trkpt lat="44.5375099" lon="10.5782718"><ele>538.0</ele><time>2026-04-19T14:39:25.98Z</time></trkpt><trkpt lat="44.5375873" lon="10.5781387"><ele>538.0</ele><time>2026-04-19T14:39:27.98Z</time></trkpt><trkpt lat="44.5376352" lon="10.5780672"><ele>538.0</ele><time>2026-04-19T14:39:28.979Z</time></trkpt><trkpt lat="44.5376996" lon="10.5779917"><ele>538.0</ele><time>2026-04-19T14:39:29.98Z</time></trkpt><trkpt lat="44.5377777" lon="10.5779123"><ele>538.0</ele><time>2026-04-19T14:39:30.979Z</time></trkpt><trkpt lat="44.5378619" lon="10.5778229"><ele>534.5</ele><time>2026-04-19T14:39:31.979Z</time></trkpt><trkpt lat="44.5379508" lon="10.5777158"><ele>531.0</ele><time>2026-04-19T14:39:32.98Z</time></trkpt><trkpt lat="44.5380449" lon="10.5775978"><ele>527.5</ele><time>2026-04-19T14:39:33.98Z</time></trkpt><trkpt lat="44.5381343" lon="10.5774798"><ele>524.0</ele><time>2026-04-19T14:39:34.978Z</time></trkpt><trkpt lat="44.5382261" lon="10.5773672"><ele>524.0</ele><time>2026-04-19T14:39:35.979Z</time></trkpt><trkpt lat="44.5383183" lon="10.5772512"><ele>524.0</ele><time>2026-04-19T14:39:36.98Z</time></trkpt><trkpt lat="44.5384105" lon="10.5771289"><ele>524.0</ele><time>2026-04-19T14:39:37.98Z</time></trkpt><trkpt lat="44.5385012" lon="10.5770128"><ele>524.0</ele><time>2026-04-19T14:39:38.98Z</time></trkpt><trkpt lat="44.5385902" lon="10.5769006"><ele>522.75</ele><time>2026-04-19T14:39:39.98Z</time></trkpt><trkpt lat="44.5386795" lon="10.5767988"><ele>521.5</ele><time>2026-04-19T14:39:40.979Z</time></trkpt><trkpt lat="44.5387684" lon="10.5767084"><ele>520.25</ele><time>2026-04-19T14:39:41.979Z</time></trkpt><trkpt lat="44.5388641" lon="10.5766262"><ele>519.0</ele><time>2026-04-19T14:39:42.979Z</time></trkpt><trkpt lat="44.5389706" lon="10.5765421"><ele>519.0</ele><time>2026-04-19T14:39:43.977Z</time></trkpt><trkpt lat="44.539079" lon="10.5764639"><ele>519.0</ele><time>2026-04-19T14:39:44.978Z</time></trkpt><trkpt lat="44.5391864" lon="10.5764056"><ele>519.0</ele><time>2026-04-19T14:39:45.977Z</time></trkpt><trkpt lat="44.5392949" lon="10.5763725"><ele>519.0</ele><time>2026-04-19T14:39:46.978Z</time></trkpt><trkpt lat="44.5394042" lon="10.5763491"><ele>519.0</ele><time>2026-04-19T14:39:47.979Z</time></trkpt><trkpt lat="44.5395093" lon="10.5763272"><ele>519.0</ele><time>2026-04-19T14:39:48.978Z</time></trkpt><trkpt lat="44.5396092" lon="10.5763023"><ele>519.0</ele><time>2026-04-19T14:39:49.978Z</time></trkpt><trkpt lat="44.5397215" lon="10.5762625"><ele>519.0</ele><time>2026-04-19T14:39:50.978Z</time></trkpt><trkpt lat="44.5398317" lon="10.5762214"><ele>519.0</ele><time>2026-04-19T14:39:51.978Z</time></trkpt><trkpt lat="44.5399353" lon="10.5761779"><ele>518.4</ele><time>2026-04-19T14:39:52.979Z</time></trkpt><trkpt lat="44.5400324" lon="10.5761311"><ele>517.8</ele><time>2026-04-19T14:39:53.978Z</time></trkpt><trkpt lat="44.5401219" lon="10.5760809"><ele>517.2</ele><time>2026-04-19T14:39:54.978Z</time></trkpt><trkpt lat="44.5402034" lon="10.576029"><ele>516.6</ele><time>2026-04-19T14:39:55.978Z</time></trkpt><trkpt lat="44.5402904" lon="10.5759701"><ele>516.0</ele><time>2026-04-19T14:39:56.978Z</time></trkpt><trkpt lat="44.5403674" lon="10.5758965"><ele>512.6</ele><time>2026-04-19T14:39:57.978Z</time></trkpt><trkpt lat="44.5404394" lon="10.5758052"><ele>509.20000000000005</ele><time>2026-04-19T14:39:58.979Z</time></trkpt><trkpt lat="44.5405068" lon="10.5757004"><ele>505.79999999999995</ele><time>2026-04-19T14:39:59.979Z</time></trkpt><trkpt lat="44.5405655" lon="10.5755974"><ele>502.4</ele><time>2026-04-19T14:40:00.978Z</time></trkpt><trkpt lat="44.5406208" lon="10.5754949"><ele>499.0</ele><time>2026-04-19T14:40:01.979Z</time></trkpt><trkpt lat="44.5406705" lon="10.575393"><ele>500.6666666666667</ele><time>2026-04-19T14:40:02.979Z</time></trkpt><trkpt lat="44.5407028" lon="10.5752899"><ele>502.33333333333337</ele><time>2026-04-19T14:40:03.979Z</time></trkpt><trkpt lat="44.540718" lon="10.5751843"><ele>504.0</ele><time>2026-04-19T14:40:04.979Z</time></trkpt><trkpt lat="44.5407213" lon="10.5750664"><ele>505.66666666666663</ele><time>2026-04-19T14:40:05.979Z</time></trkpt><trkpt lat="44.5407129" lon="10.5749283"><ele>507.3333333333333</ele><time>2026-04-19T14:40:06.979Z</time></trkpt><trkpt lat="44.5407239" lon="10.5748025"><ele>509.0</ele><time>2026-04-19T14:40:07.978Z</time></trkpt><trkpt lat="44.5407464" lon="10.5746843"><ele>508.99999999999994</ele><time>2026-04-19T14:40:08.979Z</time></trkpt><trkpt lat="44.5407833" lon="10.5745755"><ele>509.0</ele><time>2026-04-19T14:40:09.979Z</time></trkpt><trkpt lat="44.5408336" lon="10.5744892"><ele>509.0</ele><time>2026-04-19T14:40:10.978Z</time></trkpt><trkpt lat="44.5409009" lon="10.5744307"><ele>509.0</ele><time>2026-04-19T14:40:11.978Z</time></trkpt><trkpt lat="44.5409823" lon="10.5744085"><ele>508.99999999999994</ele><time>2026-04-19T14:40:12.978Z</time></trkpt><trkpt lat="44.5410785" lon="10.5744256"><ele>509.0</ele><time>2026-04-19T14:40:13.978Z</time></trkpt><trkpt lat="44.5411822" lon="10.5744772"><ele>507.75</ele><time>2026-04-19T14:40:14.979Z</time></trkpt><trkpt lat="44.5412787" lon="10.5745584"><ele>506.5</ele><time>2026-04-19T14:40:15.978Z</time></trkpt><trkpt lat="44.5413684" lon="10.5746628"><ele>505.25</ele><time>2026-04-19T14:40:16.978Z</time></trkpt><trkpt lat="44.5414535" lon="10.5747809"><ele>504.0</ele><time>2026-04-19T14:40:17.978Z</time></trkpt><trkpt lat="44.5415409" lon="10.5748799"><ele>504.0</ele><time>2026-04-19T14:40:18.979Z</time></trkpt><trkpt lat="44.5416311" lon="10.5749556"><ele>504.0</ele><time>2026-04-19T14:40:19.977Z</time></trkpt><trkpt lat="44.5417294" lon="10.5750131"><ele>504.0</ele><time>2026-04-19T14:40:20.978Z</time></trkpt><trkpt lat="44.5418334" lon="10.5750419"><ele>504.0</ele><time>2026-04-19T14:40:21.978Z</time></trkpt><trkpt lat="44.541941" lon="10.5750472"><ele>504.0</ele><time>2026-04-19T14:40:22.979Z</time></trkpt><trkpt lat="44.5420385" lon="10.5750325"><ele>504.1666666666667</ele><time>2026-04-19T14:40:23.978Z</time></trkpt><trkpt lat="44.5421227" lon="10.5750144"><ele>504.33333333333337</ele><time>2026-04-19T14:40:24.979Z</time></trkpt><trkpt lat="44.5422041" lon="10.574977"><ele>504.5</ele><time>2026-04-19T14:40:25.978Z</time></trkpt><trkpt lat="44.5422727" lon="10.5749133"><ele>504.6666666666667</ele><time>2026-04-19T14:40:26.977Z</time></trkpt><trkpt lat="44.5423267" lon="10.5748241"><ele>504.83333333333337</ele><time>2026-04-19T14:40:27.979Z</time></trkpt><trkpt lat="44.5423669" lon="10.5747187"><ele>505.0</ele><time>2026-04-19T14:40:28.978Z</time></trkpt><trkpt lat="44.5424054" lon="10.5745993"><ele>506.00000000000006</ele><time>2026-04-19T14:40:29.978Z</time></trkpt><trkpt lat="44.542451" lon="10.5744807"><ele>507.0</ele><time>2026-04-19T14:40:30.978Z</time></trkpt><trkpt lat="44.5424992" lon="10.5743752"><ele>508.0</ele><time>2026-04-19T14:40:31.979Z</time></trkpt><trkpt lat="44.542551" lon="10.5742802"><ele>509.0</ele><time>2026-04-19T14:40:32.978Z</time></trkpt><trkpt lat="44.5426076" lon="10.57418"><ele>510.00000000000006</ele><time>2026-04-19T14:40:33.978Z</time></trkpt><trkpt lat="44.5426652" lon="10.5740889"><ele>511.0</ele><time>2026-04-19T14:40:34.979Z</time></trkpt><trkpt lat="44.5427335" lon="10.5740033"><ele>511.0</ele><time>2026-04-19T14:40:35.977Z</time></trkpt><trkpt lat="44.5428138" lon="10.5739382"><ele>511.0</ele><time>2026-04-19T14:40:36.978Z</time></trkpt><trkpt lat="44.5428982" lon="10.5739043"><ele>511.0</ele><time>2026-04-19T14:40:37.979Z</time></trkpt><trkpt lat="44.5429907" lon="10.57389"><ele>511.0</ele><time>2026-04-19T14:40:38.979Z</time></trkpt><trkpt lat="44.5430915" lon="10.5739018"><ele>511.0</ele><time>2026-04-19T14:40:39.979Z</time></trkpt><trkpt lat="44.5431896" lon="10.5739417"><ele>509.20000000000005</ele><time>2026-04-19T14:40:40.977Z</time></trkpt><trkpt lat="44.5432821" lon="10.5740091"><ele>507.40000000000003</ele><time>2026-04-19T14:40:41.979Z</time></trkpt><trkpt lat="44.5433652" lon="10.5741027"><ele>505.6</ele><time>2026-04-19T14:40:42.978Z</time></trkpt><trkpt lat="44.5434381" lon="10.574219"><ele>503.8</ele><time>2026-04-19T14:40:43.979Z</time></trkpt><trkpt lat="44.5434992" lon="10.5743626"><ele>502.0</ele><time>2026-04-19T14:40:44.978Z</time></trkpt><trkpt lat="44.5435435" lon="10.5745142"><ele>501.5</ele><time>2026-04-19T14:40:45.978Z</time></trkpt><trkpt lat="44.5435827" lon="10.5746636"><ele>501.0</ele><time>2026-04-19T14:40:46.978Z</time></trkpt><trkpt lat="44.5436309" lon="10.5748091"><ele>500.5</ele><time>2026-04-19T14:40:47.979Z</time></trkpt><trkpt lat="44.5436921" lon="10.5749437"><ele>500.0</ele><time>2026-04-19T14:40:48.978Z</time></trkpt><trkpt lat="44.5437658" lon="10.5750759"><ele>496.5</ele><time>2026-04-19T14:40:49.978Z</time></trkpt><trkpt lat="44.5438546" lon="10.5752028"><ele>493.0</ele><time>2026-04-19T14:40:50.979Z</time></trkpt><trkpt lat="44.5439415" lon="10.5753126"><ele>489.5</ele><time>2026-04-19T14:40:51.978Z</time></trkpt><trkpt lat="44.5440326" lon="10.5754135"><ele>486.0</ele><time>2026-04-19T14:40:52.978Z</time></trkpt><trkpt lat="44.5441282" lon="10.5755243"><ele>485.75</ele><time>2026-04-19T14:40:53.979Z</time></trkpt><trkpt lat="44.5442186" lon="10.575639"><ele>485.5</ele><time>2026-04-19T14:40:54.979Z</time></trkpt><trkpt lat="44.544302" lon="10.5757578"><ele>485.25</ele><time>2026-04-19T14:40:55.979Z</time></trkpt><trkpt lat="44.5443821" lon="10.5758722"><ele>485.0</ele><time>2026-04-19T14:40:56.978Z</time></trkpt><trkpt lat="44.5444592" lon="10.5759686"><ele>485.0</ele><time>2026-04-19T14:40:57.979Z</time></trkpt><trkpt lat="44.544541" lon="10.5760336"><ele>485.0</ele><time>2026-04-19T14:40:58.978Z</time></trkpt><trkpt lat="44.5446312" lon="10.5760819"><ele>485.0</ele><time>2026-04-19T14:40:59.979Z</time></trkpt><trkpt lat="44.5447282" lon="10.5760973"><ele>485.0</ele><time>2026-04-19T14:41:00.978Z</time></trkpt><trkpt lat="44.5448203" lon="10.5761037"><ele>485.0</ele><time>2026-04-19T14:41:01.978Z</time></trkpt><trkpt lat="44.5449082" lon="10.576127"><ele>484.0</ele><time>2026-04-19T14:41:02.977Z</time></trkpt><trkpt lat="44.5449875" lon="10.5761699"><ele>483.0</ele><time>2026-04-19T14:41:03.978Z</time></trkpt><trkpt lat="44.5450701" lon="10.5762436"><ele>482.0</ele><time>2026-04-19T14:41:04.978Z</time></trkpt><trkpt lat="44.5451537" lon="10.5763401"><ele>481.0</ele><time>2026-04-19T14:41:05.978Z</time></trkpt><trkpt lat="44.5452326" lon="10.5764458"><ele>480.0</ele><time>2026-04-19T14:41:06.978Z</time></trkpt><trkpt lat="44.5453091" lon="10.5765407"><ele>482.2</ele><time>2026-04-19T14:41:07.978Z</time></trkpt><trkpt lat="44.5453885" lon="10.5766174"><ele>484.4</ele><time>2026-04-19T14:41:08.979Z</time></trkpt><trkpt lat="44.5454738" lon="10.5766707"><ele>486.6</ele><time>2026-04-19T14:41:09.979Z</time></trkpt><trkpt lat="44.5455682" lon="10.5766923"><ele>488.8</ele><time>2026-04-19T14:41:10.978Z</time></trkpt><trkpt lat="44.5456681" lon="10.5766863"><ele>491.0</ele><time>2026-04-19T14:41:11.979Z</time></trkpt><trkpt lat="44.5457657" lon="10.5766659"><ele>491.0</ele><time>2026-04-19T14:41:12.978Z</time></trkpt><trkpt lat="44.5458556" lon="10.5766428"><ele>491.0</ele><time>2026-04-19T14:41:13.978Z</time></trkpt><trkpt lat="44.545949" lon="10.5766053"><ele>491.0</ele><time>2026-04-19T14:41:14.978Z</time></trkpt><trkpt lat="44.5460476" lon="10.5765527"><ele>491.0</ele><time>2026-04-19T14:41:15.978Z</time></trkpt><trkpt lat="44.5461504" lon="10.5764795"><ele>491.0</ele><time>2026-04-19T14:41:16.977Z</time></trkpt><trkpt lat="44.5462518" lon="10.5763895"><ele>491.6</ele><time>2026-04-19T14:41:17.978Z</time></trkpt><trkpt lat="44.546349" lon="10.5762864"><ele>492.20000000000005</ele><time>2026-04-19T14:41:18.977Z</time></trkpt><trkpt lat="44.5464406" lon="10.5761676"><ele>492.79999999999995</ele><time>2026-04-19T14:41:19.978Z</time></trkpt><trkpt lat="44.5465078" lon="10.5760554"><ele>493.4</ele><time>2026-04-19T14:41:20.979Z</time></trkpt><trkpt lat="44.5465653" lon="10.5759579"><ele>494.0</ele><time>2026-04-19T14:41:21.979Z</time></trkpt><trkpt lat="44.5466206" lon="10.5758841"><ele>493.99999999999994</ele><time>2026-04-19T14:41:22.977Z</time></trkpt><trkpt lat="44.5466775" lon="10.5758415"><ele>494.0</ele><time>2026-04-19T14:41:23.979Z</time></trkpt><trkpt lat="44.5467747" lon="10.5758845"><ele>494.0</ele><time>2026-04-19T14:41:25.978Z</time></trkpt><trkpt lat="44.5468161" lon="10.5759626"><ele>494.0</ele><time>2026-04-19T14:41:26.979Z</time></trkpt><trkpt lat="44.5468435" lon="10.5760712"><ele>493.99999999999994</ele><time>2026-04-19T14:41:27.979Z</time></trkpt><trkpt lat="44.5468613" lon="10.5762018"><ele>494.0</ele><time>2026-04-19T14:41:28.977Z</time></trkpt><trkpt lat="44.5468796" lon="10.576315"><ele>494.0</ele><time>2026-04-19T14:41:29.979Z</time></trkpt><trkpt lat="44.5469145" lon="10.5763905"><ele>494.0</ele><time>2026-04-19T14:41:30.977Z</time></trkpt><trkpt lat="44.5470284" lon="10.576439"><ele>494.0</ele><time>2026-04-19T14:41:32.978Z</time></trkpt><trkpt lat="44.5470907" lon="10.5763878"><ele>494.0</ele><time>2026-04-19T14:41:33.979Z</time></trkpt><trkpt lat="44.5471533" lon="10.5762974"><ele>494.0</ele><time>2026-04-19T14:41:34.977Z</time></trkpt><trkpt lat="44.5472181" lon="10.576181"><ele>491.5</ele><time>2026-04-19T14:41:35.979Z</time></trkpt><trkpt lat="44.5472742" lon="10.5760486"><ele>489.0</ele><time>2026-04-19T14:41:36.978Z</time></trkpt><trkpt lat="44.5473269" lon="10.5758948"><ele>486.5</ele><time>2026-04-19T14:41:37.978Z</time></trkpt><trkpt lat="44.5473764" lon="10.5757386"><ele>484.0</ele><time>2026-04-19T14:41:38.979Z</time></trkpt><trkpt lat="44.5474204" lon="10.5755911"><ele>484.0</ele><time>2026-04-19T14:41:39.978Z</time></trkpt><trkpt lat="44.5474626" lon="10.5754522"><ele>484.0</ele><time>2026-04-19T14:41:40.978Z</time></trkpt><trkpt lat="44.5475053" lon="10.575318"><ele>484.0</ele><time>2026-04-19T14:41:41.978Z</time></trkpt><trkpt lat="44.5475516" lon="10.5751916"><ele>484.0</ele><time>2026-04-19T14:41:42.979Z</time></trkpt><trkpt lat="44.5476039" lon="10.5750649"><ele>484.0</ele><time>2026-04-19T14:41:43.979Z</time></trkpt><trkpt lat="44.5476647" lon="10.5749377"><ele>480.25</ele><time>2026-04-19T14:41:44.978Z</time></trkpt><trkpt lat="44.5477315" lon="10.57481"><ele>476.5</ele><time>2026-04-19T14:41:45.978Z</time></trkpt><trkpt lat="44.5478019" lon="10.5746788"><ele>472.75</ele><time>2026-04-19T14:41:46.979Z</time></trkpt><trkpt lat="44.5478741" lon="10.574546"><ele>469.0</ele><time>2026-04-19T14:41:47.978Z</time></trkpt><trkpt lat="44.5479436" lon="10.5744172"><ele>467.79999999999995</ele><time>2026-04-19T14:41:48.978Z</time></trkpt><trkpt lat="44.5480167" lon="10.5743055"><ele>466.59999999999997</ele><time>2026-04-19T14:41:49.979Z</time></trkpt><trkpt lat="44.548099" lon="10.5742141"><ele>465.4</ele><time>2026-04-19T14:41:50.977Z</time></trkpt><trkpt lat="44.5481839" lon="10.5741356"><ele>464.2</ele><time>2026-04-19T14:41:51.978Z</time></trkpt><trkpt lat="44.5482769" lon="10.5740676"><ele>463.0</ele><time>2026-04-19T14:41:52.979Z</time></trkpt><trkpt lat="44.5483824" lon="10.5740051"><ele>463.0</ele><time>2026-04-19T14:41:53.978Z</time></trkpt><trkpt lat="44.5484909" lon="10.5739581"><ele>463.0</ele><time>2026-04-19T14:41:54.977Z</time></trkpt><trkpt lat="44.5486039" lon="10.5739253"><ele>463.0</ele><time>2026-04-19T14:41:55.978Z</time></trkpt><trkpt lat="44.5487153" lon="10.5739007"><ele>463.0</ele><time>2026-04-19T14:41:56.978Z</time></trkpt><trkpt lat="44.5488313" lon="10.5738906"><ele>462.79999999999995</ele><time>2026-04-19T14:41:57.979Z</time></trkpt><trkpt lat="44.5489492" lon="10.5738762"><ele>462.59999999999997</ele><time>2026-04-19T14:41:58.979Z</time></trkpt><trkpt lat="44.5490634" lon="10.5738621"><ele>462.40000000000003</ele><time>2026-04-19T14:41:59.979Z</time></trkpt><trkpt lat="44.5491681" lon="10.5738596"><ele>462.20000000000005</ele><time>2026-04-19T14:42:00.979Z</time></trkpt><trkpt lat="44.5492717" lon="10.5738642"><ele>462.0</ele><time>2026-04-19T14:42:01.977Z</time></trkpt><trkpt lat="44.5493712" lon="10.5738701"><ele>462.0</ele><time>2026-04-19T14:42:02.979Z</time></trkpt><trkpt lat="44.5494682" lon="10.5738826"><ele>462.00000000000006</ele><time>2026-04-19T14:42:03.979Z</time></trkpt><trkpt lat="44.5495676" lon="10.5739001"><ele>462.00000000000006</ele><time>2026-04-19T14:42:04.979Z</time></trkpt><trkpt lat="44.5496647" lon="10.5739246"><ele>462.0</ele><time>2026-04-19T14:42:05.978Z</time></trkpt><trkpt lat="44.5497552" lon="10.5739631"><ele>462.0</ele><time>2026-04-19T14:42:06.979Z</time></trkpt><trkpt lat="44.5498425" lon="10.5740132"><ele>460.20000000000005</ele><time>2026-04-19T14:42:07.978Z</time></trkpt><trkpt lat="44.5499352" lon="10.5740413"><ele>458.40000000000003</ele><time>2026-04-19T14:42:08.979Z</time></trkpt><trkpt lat="44.550036" lon="10.5740512"><ele>456.59999999999997</ele><time>2026-04-19T14:42:09.978Z</time></trkpt><trkpt lat="44.5501425" lon="10.574061"><ele>454.79999999999995</ele><time>2026-04-19T14:42:10.979Z</time></trkpt><trkpt lat="44.5502453" lon="10.5740796"><ele>453.0</ele><time>2026-04-19T14:42:11.978Z</time></trkpt><trkpt lat="44.5503423" lon="10.5741144"><ele>450.0</ele><time>2026-04-19T14:42:12.978Z</time></trkpt><trkpt lat="44.5504329" lon="10.5741545"><ele>446.99999999999994</ele><time>2026-04-19T14:42:13.978Z</time></trkpt><trkpt lat="44.5505179" lon="10.5741997"><ele>443.99999999999994</ele><time>2026-04-19T14:42:14.979Z</time></trkpt><trkpt lat="44.5505966" lon="10.5742638"><ele>441.0</ele><time>2026-04-19T14:42:15.977Z</time></trkpt><trkpt lat="44.5506762" lon="10.5743617"><ele>438.0</ele><time>2026-04-19T14:42:16.979Z</time></trkpt><trkpt lat="44.5507316" lon="10.5744856"><ele>440.4</ele><time>2026-04-19T14:42:17.979Z</time></trkpt><trkpt lat="44.5507858" lon="10.5746087"><ele>442.79999999999995</ele><time>2026-04-19T14:42:18.978Z</time></trkpt><trkpt lat="44.5508369" lon="10.5747285"><ele>445.2</ele><time>2026-04-19T14:42:19.979Z</time></trkpt><trkpt lat="44.5508829" lon="10.5748378"><ele>447.6</ele><time>2026-04-19T14:42:20.979Z</time></trkpt><trkpt lat="44.5509265" lon="10.5749444"><ele>450.0</ele><time>2026-04-19T14:42:21.979Z</time></trkpt><trkpt lat="44.5509691" lon="10.5750466"><ele>450.0</ele><time>2026-04-19T14:42:22.978Z</time></trkpt><trkpt lat="44.5510228" lon="10.575133"><ele>450.0</ele><time>2026-04-19T14:42:23.978Z</time></trkpt><trkpt lat="44.5510876" lon="10.5752002"><ele>450.0</ele><time>2026-04-19T14:42:24.979Z</time></trkpt><trkpt lat="44.5511602" lon="10.5752481"><ele>450.0</ele><time>2026-04-19T14:42:25.978Z</time></trkpt><trkpt lat="44.5512397" lon="10.5752686"><ele>450.0</ele><time>2026-04-19T14:42:26.978Z</time></trkpt><trkpt lat="44.5513196" lon="10.5752575"><ele>450.0</ele><time>2026-04-19T14:42:27.979Z</time></trkpt><trkpt lat="44.5513979" lon="10.5752115"><ele>445.2</ele><time>2026-04-19T14:42:28.979Z</time></trkpt><trkpt lat="44.5514745" lon="10.5751368"><ele>440.4</ele><time>2026-04-19T14:42:29.979Z</time></trkpt><trkpt lat="44.5515524" lon="10.5750432"><ele>435.6</ele><time>2026-04-19T14:42:30.977Z</time></trkpt><trkpt lat="44.5516369" lon="10.5749287"><ele>430.8</ele><time>2026-04-19T14:42:31.979Z</time></trkpt><trkpt lat="44.5517244" lon="10.5747968"><ele>426.0</ele><time>2026-04-19T14:42:32.979Z</time></trkpt><trkpt lat="44.5518071" lon="10.5746564"><ele>426.25</ele><time>2026-04-19T14:42:33.977Z</time></trkpt><trkpt lat="44.5518856" lon="10.5745154"><ele>426.5</ele><time>2026-04-19T14:42:34.979Z</time></trkpt><trkpt lat="44.5519584" lon="10.5743743"><ele>426.75</ele><time>2026-04-19T14:42:35.978Z</time></trkpt><trkpt lat="44.552023" lon="10.5742313"><ele>427.0</ele><time>2026-04-19T14:42:36.979Z</time></trkpt><trkpt lat="44.552082" lon="10.574072"><ele>428.0</ele><time>2026-04-19T14:42:37.979Z</time></trkpt><trkpt lat="44.5521386" lon="10.5739018"><ele>429.0</ele><time>2026-04-19T14:42:38.979Z</time></trkpt><trkpt lat="44.5521918" lon="10.5737331"><ele>430.0</ele><time>2026-04-19T14:42:39.98Z</time></trkpt><trkpt lat="44.5522404" lon="10.5735712"><ele>431.0</ele><time>2026-04-19T14:42:40.979Z</time></trkpt><trkpt lat="44.5522912" lon="10.5734082"><ele>431.0</ele><time>2026-04-19T14:42:41.98Z</time></trkpt><trkpt lat="44.5523466" lon="10.5732531"><ele>431.0</ele><time>2026-04-19T14:42:42.979Z</time></trkpt><trkpt lat="44.5523995" lon="10.5731114"><ele>431.0</ele><time>2026-04-19T14:42:43.98Z</time></trkpt><trkpt lat="44.5524533" lon="10.5729729"><ele>431.0</ele><time>2026-04-19T14:42:44.98Z</time></trkpt><trkpt lat="44.5525162" lon="10.5728492"><ele>431.8</ele><time>2026-04-19T14:42:45.978Z</time></trkpt><trkpt lat="44.5525835" lon="10.5727309"><ele>432.6</ele><time>2026-04-19T14:42:46.98Z</time></trkpt><trkpt lat="44.5526497" lon="10.5726185"><ele>433.4</ele><time>2026-04-19T14:42:47.979Z</time></trkpt><trkpt lat="44.552721" lon="10.5725064"><ele>434.2</ele><time>2026-04-19T14:42:48.979Z</time></trkpt><trkpt lat="44.552793" lon="10.5724065"><ele>435.0</ele><time>2026-04-19T14:42:49.98Z</time></trkpt><trkpt lat="44.5528675" lon="10.5722995"><ele>435.0</ele><time>2026-04-19T14:42:50.979Z</time></trkpt><trkpt lat="44.5529472" lon="10.5721935"><ele>435.0</ele><time>2026-04-19T14:42:51.979Z</time></trkpt><trkpt lat="44.5530258" lon="10.5720903"><ele>435.0</ele><time>2026-04-19T14:42:52.979Z</time></trkpt><trkpt lat="44.5530978" lon="10.5720006"><ele>435.0</ele><time>2026-04-19T14:42:53.979Z</time></trkpt><trkpt lat="44.5531665" lon="10.5719324"><ele>435.0</ele><time>2026-04-19T14:42:54.979Z</time></trkpt><trkpt lat="44.553228" lon="10.5718687"><ele>435.0</ele><time>2026-04-19T14:42:55.98Z</time></trkpt><trkpt lat="44.5532833" lon="10.5718237"><ele>435.0</ele><time>2026-04-19T14:42:56.979Z</time></trkpt><trkpt lat="44.553341" lon="10.5717749"><ele>435.0</ele><time>2026-04-19T14:42:57.979Z</time></trkpt><trkpt lat="44.5534404" lon="10.5717369"><ele>435.0</ele><time>2026-04-19T14:42:59.978Z</time></trkpt><trkpt lat="44.553557" lon="10.5717724"><ele>435.0</ele><time>2026-04-19T14:43:01.98Z</time></trkpt><trkpt lat="44.5536248" lon="10.5718234"><ele>435.0</ele><time>2026-04-19T14:43:02.98Z</time></trkpt><trkpt lat="44.5537168" lon="10.5718909"><ele>434.0</ele><time>2026-04-19T14:43:03.978Z</time></trkpt><trkpt lat="44.5538073" lon="10.5719577"><ele>433.0</ele><time>2026-04-19T14:43:04.979Z</time></trkpt><trkpt lat="44.5539188" lon="10.5720326"><ele>432.0</ele><time>2026-04-19T14:43:05.979Z</time></trkpt><trkpt lat="44.5540527" lon="10.5721317"><ele>431.0</ele><time>2026-04-19T14:43:06.979Z</time></trkpt><trkpt lat="44.5542023" lon="10.5722489"><ele>430.66666666666663</ele><time>2026-04-19T14:43:07.979Z</time></trkpt><trkpt lat="44.5543575" lon="10.5723704"><ele>430.33333333333337</ele><time>2026-04-19T14:43:08.979Z</time></trkpt><trkpt lat="44.5545122" lon="10.5724947"><ele>430.0</ele><time>2026-04-19T14:43:09.979Z</time></trkpt><trkpt lat="44.554654" lon="10.5726143"><ele>431.0</ele><time>2026-04-19T14:43:10.978Z</time></trkpt><trkpt lat="44.5547924" lon="10.5727303"><ele>432.0</ele><time>2026-04-19T14:43:11.979Z</time></trkpt><trkpt lat="44.5549362" lon="10.5728466"><ele>433.0</ele><time>2026-04-19T14:43:12.979Z</time></trkpt><trkpt lat="44.5550814" lon="10.5729402"><ele>433.0</ele><time>2026-04-19T14:43:13.98Z</time></trkpt><trkpt lat="44.5552363" lon="10.5730391"><ele>433.0</ele><time>2026-04-19T14:43:14.978Z</time></trkpt><trkpt lat="44.5553811" lon="10.5731359"><ele>433.0</ele><time>2026-04-19T14:43:15.979Z</time></trkpt><trkpt lat="44.5555188" lon="10.5732368"><ele>433.0</ele><time>2026-04-19T14:43:16.979Z</time></trkpt><trkpt lat="44.5556446" lon="10.5733496"><ele>433.0</ele><time>2026-04-19T14:43:17.979Z</time></trkpt><trkpt lat="44.5557649" lon="10.5734697"><ele>433.0</ele><time>2026-04-19T14:43:18.979Z</time></trkpt><trkpt lat="44.5558883" lon="10.5735983"><ele>431.5</ele><time>2026-04-19T14:43:19.979Z</time></trkpt><trkpt lat="44.5560065" lon="10.573715"><ele>430.0</ele><time>2026-04-19T14:43:20.98Z</time></trkpt><trkpt lat="44.5561252" lon="10.5738061"><ele>428.5</ele><time>2026-04-19T14:43:21.98Z</time></trkpt><trkpt lat="44.5562649" lon="10.5738883"><ele>427.0</ele><time>2026-04-19T14:43:22.98Z</time></trkpt><trkpt lat="44.5564287" lon="10.5739955"><ele>427.0</ele><time>2026-04-19T14:43:23.979Z</time></trkpt><trkpt lat="44.5566046" lon="10.5740908"><ele>427.0</ele><time>2026-04-19T14:43:24.98Z</time></trkpt><trkpt lat="44.5567796" lon="10.5741752"><ele>427.0</ele><time>2026-04-19T14:43:25.979Z</time></trkpt><trkpt lat="44.5569524" lon="10.574252"><ele>426.33333333333337</ele><time>2026-04-19T14:43:26.979Z</time></trkpt><trkpt lat="44.5571289" lon="10.574313"><ele>425.66666666666663</ele><time>2026-04-19T14:43:27.979Z</time></trkpt><trkpt lat="44.557293" lon="10.574368"><ele>425.0</ele><time>2026-04-19T14:43:28.979Z</time></trkpt><trkpt lat="44.5574468" lon="10.5744084"><ele>425.0</ele><time>2026-04-19T14:43:29.979Z</time></trkpt><trkpt lat="44.5575947" lon="10.5744511"><ele>425.0</ele><time>2026-04-19T14:43:30.979Z</time></trkpt><trkpt lat="44.5577423" lon="10.5744934"><ele>425.0</ele><time>2026-04-19T14:43:31.979Z</time></trkpt><trkpt lat="44.5578861" lon="10.5745404"><ele>425.0</ele><time>2026-04-19T14:43:32.98Z</time></trkpt><trkpt lat="44.5580299" lon="10.5745922"><ele>428.0</ele><time>2026-04-19T14:43:33.979Z</time></trkpt><trkpt lat="44.5581798" lon="10.57465"><ele>431.0</ele><time>2026-04-19T14:43:34.979Z</time></trkpt><trkpt lat="44.5583276" lon="10.5747141"><ele>434.0</ele><time>2026-04-19T14:43:35.978Z</time></trkpt><trkpt lat="44.5584803" lon="10.5747812"><ele>434.0</ele><time>2026-04-19T14:43:36.978Z</time></trkpt><trkpt lat="44.5586296" lon="10.5748569"><ele>434.0</ele><time>2026-04-19T14:43:37.979Z</time></trkpt><trkpt lat="44.5587819" lon="10.5749413"><ele>434.0</ele><time>2026-04-19T14:43:38.978Z</time></trkpt><trkpt lat="44.5589192" lon="10.5750239"><ele>435.0</ele><time>2026-04-19T14:43:39.979Z</time></trkpt><trkpt lat="44.5590567" lon="10.5751004"><ele>436.0</ele><time>2026-04-19T14:43:40.98Z</time></trkpt><trkpt lat="44.5591841" lon="10.5751759"><ele>437.0</ele><time>2026-04-19T14:43:41.98Z</time></trkpt><trkpt lat="44.5593064" lon="10.5752531"><ele>438.0</ele><time>2026-04-19T14:43:42.98Z</time></trkpt><trkpt lat="44.559425" lon="10.5753329"><ele>436.25</ele><time>2026-04-19T14:43:43.979Z</time></trkpt><trkpt lat="44.5595264" lon="10.5754141"><ele>434.5</ele><time>2026-04-19T14:43:44.98Z</time></trkpt><trkpt lat="44.5596271" lon="10.5755139"><ele>432.75</ele><time>2026-04-19T14:43:45.979Z</time></trkpt><trkpt lat="44.5597275" lon="10.5756381"><ele>431.0</ele><time>2026-04-19T14:43:46.98Z</time></trkpt><trkpt lat="44.5598276" lon="10.5757624"><ele>431.0</ele><time>2026-04-19T14:43:47.979Z</time></trkpt><trkpt lat="44.5599318" lon="10.5758911"><ele>431.0</ele><time>2026-04-19T14:43:48.979Z</time></trkpt><trkpt lat="44.5600657" lon="10.576012"><ele>431.0</ele><time>2026-04-19T14:43:49.979Z</time></trkpt><trkpt lat="44.5601957" lon="10.5761122"><ele>431.0</ele><time>2026-04-19T14:43:50.979Z</time></trkpt><trkpt lat="44.5603234" lon="10.5761996"><ele>429.0</ele><time>2026-04-19T14:43:51.979Z</time></trkpt><trkpt lat="44.5604539" lon="10.5762777"><ele>427.0</ele><time>2026-04-19T14:43:52.978Z</time></trkpt><trkpt lat="44.5605727" lon="10.5763434"><ele>425.0</ele><time>2026-04-19T14:43:53.98Z</time></trkpt><trkpt lat="44.5606836" lon="10.5764023"><ele>423.0</ele><time>2026-04-19T14:43:54.979Z</time></trkpt><trkpt lat="44.5607885" lon="10.5764765"><ele>423.0</ele><time>2026-04-19T14:43:55.98Z</time></trkpt><trkpt lat="44.5608815" lon="10.5765514"><ele>423.0</ele><time>2026-04-19T14:43:56.979Z</time></trkpt><trkpt lat="44.5609572" lon="10.5766356"><ele>423.0</ele><time>2026-04-19T14:43:57.978Z</time></trkpt><trkpt lat="44.5610265" lon="10.5767311"><ele>423.0</ele><time>2026-04-19T14:43:58.98Z</time></trkpt><trkpt lat="44.5610784" lon="10.5768254"><ele>423.0</ele><time>2026-04-19T14:43:59.978Z</time></trkpt><trkpt lat="44.5610942" lon="10.5770015"><ele>422.0</ele><time>2026-04-19T14:44:01.98Z</time></trkpt><trkpt lat="44.5610652" lon="10.5770816"><ele>421.0</ele><time>2026-04-19T14:44:02.979Z</time></trkpt><trkpt lat="44.5610224" lon="10.5771509"><ele>420.0</ele><time>2026-04-19T14:44:03.978Z</time></trkpt><trkpt lat="44.5609632" lon="10.5771996"><ele>419.0</ele><time>2026-04-19T14:44:04.978Z</time></trkpt><trkpt lat="44.5609264" lon="10.5773454"><ele>418.0</ele><time>2026-04-19T14:44:06.979Z</time></trkpt><trkpt lat="44.5610131" lon="10.5774441"><ele>417.0</ele><time>2026-04-19T14:44:08.978Z</time></trkpt><trkpt lat="44.5610818" lon="10.5774561"><ele>417.0</ele><time>2026-04-19T14:44:09.98Z</time></trkpt><trkpt lat="44.5611664" lon="10.5774605"><ele>417.0</ele><time>2026-04-19T14:44:10.98Z</time></trkpt><trkpt lat="44.5612463" lon="10.5774734"><ele>417.0</ele><time>2026-04-19T14:44:11.979Z</time></trkpt><trkpt lat="44.5613266" lon="10.5774783"><ele>417.0</ele><time>2026-04-19T14:44:12.978Z</time></trkpt><trkpt lat="44.5614031" lon="10.5774948"><ele>417.0</ele><time>2026-04-19T14:44:13.98Z</time></trkpt><trkpt lat="44.5614886" lon="10.5775209"><ele>417.0</ele><time>2026-04-19T14:44:14.98Z</time></trkpt><trkpt lat="44.5615714" lon="10.5775537"><ele>416.0</ele><time>2026-04-19T14:44:15.979Z</time></trkpt><trkpt lat="44.5616518" lon="10.5776081"><ele>415.0</ele><time>2026-04-19T14:44:16.98Z</time></trkpt><trkpt lat="44.5617186" lon="10.5777021"><ele>414.0</ele><time>2026-04-19T14:44:17.979Z</time></trkpt><trkpt lat="44.5617935" lon="10.577798"><ele>413.0</ele><time>2026-04-19T14:44:18.98Z</time></trkpt><trkpt lat="44.5618758" lon="10.5779253"><ele>412.0</ele><time>2026-04-19T14:44:19.979Z</time></trkpt><trkpt lat="44.5619618" lon="10.5780778"><ele>412.0</ele><time>2026-04-19T14:44:20.979Z</time></trkpt><trkpt lat="44.5620529" lon="10.5782374"><ele>412.0</ele><time>2026-04-19T14:44:21.978Z</time></trkpt><trkpt lat="44.5621477" lon="10.5784103"><ele>412.0</ele><time>2026-04-19T14:44:22.979Z</time></trkpt><trkpt lat="44.56225" lon="10.5785991"><ele>411.0</ele><time>2026-04-19T14:44:23.979Z</time></trkpt><trkpt lat="44.562351" lon="10.5787968"><ele>410.0</ele><time>2026-04-19T14:44:24.979Z</time></trkpt><trkpt lat="44.5624465" lon="10.5790095"><ele>409.0</ele><time>2026-04-19T14:44:25.978Z</time></trkpt><trkpt lat="44.5625335" lon="10.5792064"><ele>409.0</ele><time>2026-04-19T14:44:26.979Z</time></trkpt><trkpt lat="44.5626104" lon="10.5793749"><ele>409.0</ele><time>2026-04-19T14:44:27.977Z</time></trkpt><trkpt lat="44.5626783" lon="10.5795123"><ele>409.0</ele><time>2026-04-19T14:44:28.978Z</time></trkpt><trkpt lat="44.5627481" lon="10.5796394"><ele>409.0</ele><time>2026-04-19T14:44:29.977Z</time></trkpt><trkpt lat="44.5628364" lon="10.5797466"><ele>408.5</ele><time>2026-04-19T14:44:30.979Z</time></trkpt><trkpt lat="44.5629452" lon="10.5798221"><ele>408.0</ele><time>2026-04-19T14:44:31.979Z</time></trkpt><trkpt lat="44.5630713" lon="10.5798853"><ele>407.5</ele><time>2026-04-19T14:44:32.979Z</time></trkpt><trkpt lat="44.5632075" lon="10.5799319"><ele>407.0</ele><time>2026-04-19T14:44:33.979Z</time></trkpt><trkpt lat="44.5633287" lon="10.5799946"><ele>407.0</ele><time>2026-04-19T14:44:34.978Z</time></trkpt><trkpt lat="44.5634481" lon="10.5800888"><ele>407.0</ele><time>2026-04-19T14:44:35.978Z</time></trkpt><trkpt lat="44.5635461" lon="10.5802127"><ele>407.0</ele><time>2026-04-19T14:44:36.978Z</time></trkpt><trkpt lat="44.5636195" lon="10.5803696"><ele>407.0</ele><time>2026-04-19T14:44:37.979Z</time></trkpt><trkpt lat="44.5636789" lon="10.5805335"><ele>408.5</ele><time>2026-04-19T14:44:38.978Z</time></trkpt><trkpt lat="44.5637451" lon="10.5806738"><ele>410.0</ele><time>2026-04-19T14:44:39.978Z</time></trkpt><trkpt lat="44.5638246" lon="10.5807959"><ele>411.5</ele><time>2026-04-19T14:44:40.979Z</time></trkpt><trkpt lat="44.5639231" lon="10.5809064"><ele>413.0</ele><time>2026-04-19T14:44:41.98Z</time></trkpt><trkpt lat="44.5640353" lon="10.5810209"><ele>413.0</ele><time>2026-04-19T14:44:42.98Z</time></trkpt><trkpt lat="44.5641419" lon="10.5811532"><ele>413.0</ele><time>2026-04-19T14:44:43.979Z</time></trkpt><trkpt lat="44.5642279" lon="10.5813162"><ele>413.0</ele><time>2026-04-19T14:44:44.977Z</time></trkpt><trkpt lat="44.5643181" lon="10.5814903"><ele>413.0</ele><time>2026-04-19T14:44:45.978Z</time></trkpt><trkpt lat="44.5644208" lon="10.5816667"><ele>414.5</ele><time>2026-04-19T14:44:46.979Z</time></trkpt><trkpt lat="44.564529" lon="10.5818061"><ele>416.0</ele><time>2026-04-19T14:44:47.978Z</time></trkpt><trkpt lat="44.5646244" lon="10.5819425"><ele>417.5</ele><time>2026-04-19T14:44:48.979Z</time></trkpt><trkpt lat="44.5647018" lon="10.5820859"><ele>419.0</ele><time>2026-04-19T14:44:49.979Z</time></trkpt><trkpt lat="44.564752" lon="10.5822428"><ele>419.0</ele><time>2026-04-19T14:44:50.978Z</time></trkpt><trkpt lat="44.56478" lon="10.582415"><ele>419.0</ele><time>2026-04-19T14:44:51.978Z</time></trkpt><trkpt lat="44.5647933" lon="10.582598"><ele>419.0</ele><time>2026-04-19T14:44:52.979Z</time></trkpt><trkpt lat="44.5647963" lon="10.5827936"><ele>419.0</ele><time>2026-04-19T14:44:53.979Z</time></trkpt><trkpt lat="44.5648072" lon="10.5829826"><ele>418.3333333333333</ele><time>2026-04-19T14:44:54.979Z</time></trkpt><trkpt lat="44.5648375" lon="10.5831855"><ele>417.66666666666663</ele><time>2026-04-19T14:44:55.978Z</time></trkpt><trkpt lat="44.5648895" lon="10.5834086"><ele>417.0</ele><time>2026-04-19T14:44:56.979Z</time></trkpt><trkpt lat="44.5649424" lon="10.5836333"><ele>415.75</ele><time>2026-04-19T14:44:57.978Z</time></trkpt><trkpt lat="44.5650215" lon="10.5838245"><ele>414.5</ele><time>2026-04-19T14:44:58.978Z</time></trkpt><trkpt lat="44.5650766" lon="10.5840007"><ele>413.25</ele><time>2026-04-19T14:44:59.979Z</time></trkpt><trkpt lat="44.5651274" lon="10.5841529"><ele>412.0</ele><time>2026-04-19T14:45:00.979Z</time></trkpt><trkpt lat="44.5651875" lon="10.5842866"><ele>412.0</ele><time>2026-04-19T14:45:01.979Z</time></trkpt><trkpt lat="44.5652532" lon="10.5843987"><ele>412.0</ele><time>2026-04-19T14:45:02.978Z</time></trkpt><trkpt lat="44.5653348" lon="10.5844916"><ele>412.0</ele><time>2026-04-19T14:45:03.978Z</time></trkpt><trkpt lat="44.5654308" lon="10.5845692"><ele>412.0</ele><time>2026-04-19T14:45:04.979Z</time></trkpt><trkpt lat="44.5655372" lon="10.5846453"><ele>412.0</ele><time>2026-04-19T14:45:05.977Z</time></trkpt><trkpt lat="44.5656483" lon="10.5847215"><ele>413.25</ele><time>2026-04-19T14:45:06.979Z</time></trkpt><trkpt lat="44.56576" lon="10.584803"><ele>414.5</ele><time>2026-04-19T14:45:07.977Z</time></trkpt><trkpt lat="44.5658837" lon="10.5848888"><ele>415.75</ele><time>2026-04-19T14:45:08.979Z</time></trkpt><trkpt lat="44.5660025" lon="10.5849804"><ele>417.0</ele><time>2026-04-19T14:45:09.979Z</time></trkpt><trkpt lat="44.5661085" lon="10.5850839"><ele>416.75</ele><time>2026-04-19T14:45:10.979Z</time></trkpt><trkpt lat="44.5662112" lon="10.5852066"><ele>416.5</ele><time>2026-04-19T14:45:11.979Z</time></trkpt><trkpt lat="44.5663089" lon="10.585353"><ele>416.25</ele><time>2026-04-19T14:45:12.979Z</time></trkpt><trkpt lat="44.5663844" lon="10.5854981"><ele>416.0</ele><time>2026-04-19T14:45:13.977Z</time></trkpt><trkpt lat="44.5664517" lon="10.5856373"><ele>416.0</ele><time>2026-04-19T14:45:14.978Z</time></trkpt><trkpt lat="44.5665235" lon="10.5857622"><ele>416.0</ele><time>2026-04-19T14:45:15.978Z</time></trkpt><trkpt lat="44.5665984" lon="10.5858694"><ele>416.0</ele><time>2026-04-19T14:45:16.979Z</time></trkpt><trkpt lat="44.5666734" lon="10.5859663"><ele>416.0</ele><time>2026-04-19T14:45:17.978Z</time></trkpt><trkpt lat="44.566755" lon="10.5860564"><ele>416.0</ele><time>2026-04-19T14:45:18.979Z</time></trkpt><trkpt lat="44.5668372" lon="10.5861295"><ele>416.8</ele><time>2026-04-19T14:45:19.978Z</time></trkpt><trkpt lat="44.5669269" lon="10.586179"><ele>417.6</ele><time>2026-04-19T14:45:20.979Z</time></trkpt><trkpt lat="44.567027" lon="10.58621"><ele>418.4</ele><time>2026-04-19T14:45:21.979Z</time></trkpt><trkpt lat="44.5671209" lon="10.5862172"><ele>419.2</ele><time>2026-04-19T14:45:22.977Z</time></trkpt><trkpt lat="44.5672146" lon="10.5862041"><ele>420.0</ele><time>2026-04-19T14:45:23.979Z</time></trkpt><trkpt lat="44.5673221" lon="10.5861701"><ele>420.0</ele><time>2026-04-19T14:45:24.978Z</time></trkpt><trkpt lat="44.5674281" lon="10.5861347"><ele>420.0</ele><time>2026-04-19T14:45:25.979Z</time></trkpt><trkpt lat="44.5675271" lon="10.5860925"><ele>420.0</ele><time>2026-04-19T14:45:26.978Z</time></trkpt><trkpt lat="44.5676232" lon="10.5860355"><ele>420.0</ele><time>2026-04-19T14:45:27.979Z</time></trkpt><trkpt lat="44.5677101" lon="10.5859733"><ele>420.0</ele><time>2026-04-19T14:45:28.979Z</time></trkpt><trkpt lat="44.567794" lon="10.5858976"><ele>418.0</ele><time>2026-04-19T14:45:29.978Z</time></trkpt><trkpt lat="44.567871" lon="10.5858108"><ele>416.0</ele><time>2026-04-19T14:45:30.979Z</time></trkpt><trkpt lat="44.5679371" lon="10.5857085"><ele>414.0</ele><time>2026-04-19T14:45:31.978Z</time></trkpt><trkpt lat="44.5679968" lon="10.5855937"><ele>412.0</ele><time>2026-04-19T14:45:32.978Z</time></trkpt><trkpt lat="44.568056" lon="10.5854944"><ele>410.0</ele><time>2026-04-19T14:45:33.979Z</time></trkpt><trkpt lat="44.5681265" lon="10.5854027"><ele>414.8</ele><time>2026-04-19T14:45:34.978Z</time></trkpt><trkpt lat="44.5682033" lon="10.5853337"><ele>419.6</ele><time>2026-04-19T14:45:35.977Z</time></trkpt><trkpt lat="44.5682979" lon="10.5852855"><ele>424.4</ele><time>2026-04-19T14:45:36.979Z</time></trkpt><trkpt lat="44.5684041" lon="10.5852694"><ele>429.2</ele><time>2026-04-19T14:45:37.977Z</time></trkpt><trkpt lat="44.5685131" lon="10.5852662"><ele>434.0</ele><time>2026-04-19T14:45:38.978Z</time></trkpt><trkpt lat="44.5686252" lon="10.5852676"><ele>432.6</ele><time>2026-04-19T14:45:39.978Z</time></trkpt><trkpt lat="44.5687357" lon="10.5852614"><ele>431.2</ele><time>2026-04-19T14:45:40.978Z</time></trkpt><trkpt lat="44.5688403" lon="10.5852482"><ele>429.80000000000007</ele><time>2026-04-19T14:45:41.979Z</time></trkpt><trkpt lat="44.5689453" lon="10.5852269"><ele>428.40000000000003</ele><time>2026-04-19T14:45:42.978Z</time></trkpt><trkpt lat="44.5690478" lon="10.5851833"><ele>427.0</ele><time>2026-04-19T14:45:43.979Z</time></trkpt><trkpt lat="44.5691532" lon="10.585121"><ele>427.0</ele><time>2026-04-19T14:45:44.977Z</time></trkpt><trkpt lat="44.569257" lon="10.5850511"><ele>427.00000000000006</ele><time>2026-04-19T14:45:45.978Z</time></trkpt><trkpt lat="44.5693494" lon="10.5849858"><ele>427.00000000000006</ele><time>2026-04-19T14:45:46.979Z</time></trkpt><trkpt lat="44.5694432" lon="10.584916"><ele>427.0</ele><time>2026-04-19T14:45:47.978Z</time></trkpt><trkpt lat="44.569533" lon="10.5848591"><ele>427.0</ele><time>2026-04-19T14:45:48.978Z</time></trkpt><trkpt lat="44.5696303" lon="10.5848184"><ele>427.25</ele><time>2026-04-19T14:45:49.977Z</time></trkpt><trkpt lat="44.5697337" lon="10.584796"><ele>427.5</ele><time>2026-04-19T14:45:50.978Z</time></trkpt><trkpt lat="44.5698431" lon="10.5847874"><ele>427.75</ele><time>2026-04-19T14:45:51.979Z</time></trkpt><trkpt lat="44.5699623" lon="10.584794"><ele>428.0</ele><time>2026-04-19T14:45:52.978Z</time></trkpt><trkpt lat="44.5700839" lon="10.5848214"><ele>428.0</ele><time>2026-04-19T14:45:53.978Z</time></trkpt><trkpt lat="44.5701979" lon="10.5848488"><ele>428.0</ele><time>2026-04-19T14:45:54.978Z</time></trkpt><trkpt lat="44.5703124" lon="10.5848848"><ele>428.0</ele><time>2026-04-19T14:45:55.979Z</time></trkpt><trkpt lat="44.5704271" lon="10.5849242"><ele>428.0</ele><time>2026-04-19T14:45:56.978Z</time></trkpt><trkpt lat="44.5705387" lon="10.5849771"><ele>430.25</ele><time>2026-04-19T14:45:57.978Z</time></trkpt><trkpt lat="44.5706514" lon="10.5850236"><ele>432.5</ele><time>2026-04-19T14:45:58.978Z</time></trkpt><trkpt lat="44.5707619" lon="10.5850567"><ele>434.75</ele><time>2026-04-19T14:45:59.977Z</time></trkpt><trkpt lat="44.5708707" lon="10.5850885"><ele>437.0</ele><time>2026-04-19T14:46:00.979Z</time></trkpt><trkpt lat="44.5709784" lon="10.585123"><ele>437.0</ele><time>2026-04-19T14:46:01.978Z</time></trkpt><trkpt lat="44.5710777" lon="10.5851682"><ele>437.00000000000006</ele><time>2026-04-19T14:46:02.979Z</time></trkpt><trkpt lat="44.5711685" lon="10.5852302"><ele>437.00000000000006</ele><time>2026-04-19T14:46:03.979Z</time></trkpt><trkpt lat="44.5712562" lon="10.5853103"><ele>437.0</ele><time>2026-04-19T14:46:04.979Z</time></trkpt><trkpt lat="44.5713308" lon="10.5854081"><ele>437.0</ele><time>2026-04-19T14:46:05.978Z</time></trkpt><trkpt lat="44.5713946" lon="10.5854981"><ele>438.20000000000005</ele><time>2026-04-19T14:46:06.979Z</time></trkpt><trkpt lat="44.5714678" lon="10.5855735"><ele>439.40000000000003</ele><time>2026-04-19T14:46:07.979Z</time></trkpt><trkpt lat="44.5715476" lon="10.5856376"><ele>440.59999999999997</ele><time>2026-04-19T14:46:08.978Z</time></trkpt><trkpt lat="44.5716372" lon="10.5856902"><ele>441.79999999999995</ele><time>2026-04-19T14:46:09.978Z</time></trkpt><trkpt lat="44.5717275" lon="10.5857543"><ele>443.0</ele><time>2026-04-19T14:46:10.979Z</time></trkpt><trkpt lat="44.5718104" lon="10.5858392"><ele>442.99999999999994</ele><time>2026-04-19T14:46:11.979Z</time></trkpt><trkpt lat="44.5718756" lon="10.5859443"><ele>443.0</ele><time>2026-04-19T14:46:12.979Z</time></trkpt><trkpt lat="44.5719277" lon="10.5860345"><ele>443.0</ele><time>2026-04-19T14:46:13.979Z</time></trkpt><trkpt lat="44.5719731" lon="10.5861155"><ele>443.0</ele><time>2026-04-19T14:46:14.978Z</time></trkpt><trkpt lat="44.5720191" lon="10.5861989"><ele>442.99999999999994</ele><time>2026-04-19T14:46:15.978Z</time></trkpt><trkpt lat="44.572066" lon="10.5862899"><ele>443.0</ele><time>2026-04-19T14:46:16.979Z</time></trkpt><trkpt lat="44.5721087" lon="10.5863819"><ele>444.16666666666663</ele><time>2026-04-19T14:46:17.978Z</time></trkpt><trkpt lat="44.5721596" lon="10.5864742"><ele>445.3333333333333</ele><time>2026-04-19T14:46:18.979Z</time></trkpt><trkpt lat="44.5722224" lon="10.5865571"><ele>446.5</ele><time>2026-04-19T14:46:19.978Z</time></trkpt><trkpt lat="44.5722925" lon="10.5866351"><ele>447.66666666666663</ele><time>2026-04-19T14:46:20.979Z</time></trkpt><trkpt lat="44.5723689" lon="10.5867036"><ele>448.8333333333333</ele><time>2026-04-19T14:46:21.978Z</time></trkpt><trkpt lat="44.5724517" lon="10.5867572"><ele>450.0</ele><time>2026-04-19T14:46:22.978Z</time></trkpt><trkpt lat="44.5725438" lon="10.5867979"><ele>450.0</ele><time>2026-04-19T14:46:23.977Z</time></trkpt><trkpt lat="44.5726441" lon="10.5868282"><ele>450.0</ele><time>2026-04-19T14:46:24.978Z</time></trkpt><trkpt lat="44.5727469" lon="10.5868528"><ele>450.0</ele><time>2026-04-19T14:46:25.979Z</time></trkpt><trkpt lat="44.5728444" lon="10.5868708"><ele>450.0</ele><time>2026-04-19T14:46:26.979Z</time></trkpt><trkpt lat="44.5729186" lon="10.5868796"><ele>450.0</ele><time>2026-04-19T14:46:27.979Z</time></trkpt><trkpt lat="44.5730191" lon="10.5868942"><ele>450.0</ele><time>2026-04-19T14:46:29.978Z</time></trkpt><trkpt lat="44.5731217" lon="10.5869041"><ele>450.0</ele><time>2026-04-19T14:46:31.979Z</time></trkpt><trkpt lat="44.5732422" lon="10.5869295"><ele>450.0</ele><time>2026-04-19T14:46:33.978Z</time></trkpt><trkpt lat="44.5733149" lon="10.5869462"><ele>450.0</ele><time>2026-04-19T14:46:34.979Z</time></trkpt><trkpt lat="44.5733998" lon="10.5869635"><ele>450.0</ele><time>2026-04-19T14:46:35.978Z</time></trkpt><trkpt lat="44.5734916" lon="10.5869814"><ele>450.0</ele><time>2026-04-19T14:46:36.978Z</time></trkpt><trkpt lat="44.5735927" lon="10.5870028"><ele>450.0</ele><time>2026-04-19T14:46:37.979Z</time></trkpt><trkpt lat="44.573699" lon="10.5870205"><ele>450.0</ele><time>2026-04-19T14:46:38.979Z</time></trkpt><trkpt lat="44.573807" lon="10.5870331"><ele>450.0</ele><time>2026-04-19T14:46:39.978Z</time></trkpt><trkpt lat="44.573922" lon="10.5870402"><ele>450.0</ele><time>2026-04-19T14:46:40.979Z</time></trkpt><trkpt lat="44.5740385" lon="10.5870452"><ele>452.25</ele><time>2026-04-19T14:46:41.978Z</time></trkpt><trkpt lat="44.5741584" lon="10.587048"><ele>454.5</ele><time>2026-04-19T14:46:42.978Z</time></trkpt><trkpt lat="44.5742764" lon="10.5870497"><ele>456.75</ele><time>2026-04-19T14:46:43.979Z</time></trkpt><trkpt lat="44.5743958" lon="10.5870487"><ele>459.0</ele><time>2026-04-19T14:46:44.979Z</time></trkpt><trkpt lat="44.5745132" lon="10.5870488"><ele>459.75</ele><time>2026-04-19T14:46:45.977Z</time></trkpt><trkpt lat="44.5746292" lon="10.5870501"><ele>460.5</ele><time>2026-04-19T14:46:46.979Z</time></trkpt><trkpt lat="44.5747432" lon="10.5870483"><ele>461.25</ele><time>2026-04-19T14:46:47.978Z</time></trkpt><trkpt lat="44.5748517" lon="10.5870457"><ele>462.0</ele><time>2026-04-19T14:46:48.978Z</time></trkpt><trkpt lat="44.5749659" lon="10.5870425"><ele>462.0</ele><time>2026-04-19T14:46:49.979Z</time></trkpt><trkpt lat="44.5750795" lon="10.5870406"><ele>462.0</ele><time>2026-04-19T14:46:50.979Z</time></trkpt><trkpt lat="44.575192" lon="10.587038"><ele>462.0</ele><time>2026-04-19T14:46:51.978Z</time></trkpt><trkpt lat="44.5753082" lon="10.5870356"><ele>462.0</ele><time>2026-04-19T14:46:52.978Z</time></trkpt><trkpt lat="44.5754174" lon="10.5870376"><ele>461.0</ele><time>2026-04-19T14:46:53.978Z</time></trkpt><trkpt lat="44.5755228" lon="10.5870487"><ele>460.00000000000006</ele><time>2026-04-19T14:46:54.978Z</time></trkpt><trkpt lat="44.5756315" lon="10.5870727"><ele>459.00000000000006</ele><time>2026-04-19T14:46:55.978Z</time></trkpt><trkpt lat="44.5757361" lon="10.5871125"><ele>458.0</ele><time>2026-04-19T14:46:56.979Z</time></trkpt><trkpt lat="44.5758325" lon="10.5871714"><ele>457.0</ele><time>2026-04-19T14:46:57.979Z</time></trkpt><trkpt lat="44.5759214" lon="10.5872307"><ele>457.0</ele><time>2026-04-19T14:46:58.978Z</time></trkpt><trkpt lat="44.5760134" lon="10.5872721"><ele>457.00000000000006</ele><time>2026-04-19T14:46:59.978Z</time></trkpt><trkpt lat="44.5761166" lon="10.5872812"><ele>457.00000000000006</ele><time>2026-04-19T14:47:00.978Z</time></trkpt><trkpt lat="44.5762183" lon="10.5872535"><ele>457.0</ele><time>2026-04-19T14:47:01.979Z</time></trkpt><trkpt lat="44.5763202" lon="10.5872051"><ele>457.0</ele><time>2026-04-19T14:47:02.978Z</time></trkpt><trkpt lat="44.5764254" lon="10.5871543"><ele>457.0</ele><time>2026-04-19T14:47:03.978Z</time></trkpt><trkpt lat="44.5765291" lon="10.5871184"><ele>457.00000000000006</ele><time>2026-04-19T14:47:04.979Z</time></trkpt><trkpt lat="44.5766313" lon="10.5870995"><ele>457.00000000000006</ele><time>2026-04-19T14:47:05.978Z</time></trkpt><trkpt lat="44.5767373" lon="10.5870944"><ele>457.0</ele><time>2026-04-19T14:47:06.979Z</time></trkpt><trkpt lat="44.5768484" lon="10.5871024"><ele>457.0</ele><time>2026-04-19T14:47:07.978Z</time></trkpt><trkpt lat="44.576964" lon="10.5871209"><ele>455.75</ele><time>2026-04-19T14:47:08.978Z</time></trkpt><trkpt lat="44.577084" lon="10.5871584"><ele>454.5</ele><time>2026-04-19T14:47:09.978Z</time></trkpt><trkpt lat="44.5772066" lon="10.5872121"><ele>453.25</ele><time>2026-04-19T14:47:10.978Z</time></trkpt><trkpt lat="44.5773234" lon="10.5872627"><ele>452.0</ele><time>2026-04-19T14:47:11.979Z</time></trkpt><trkpt lat="44.5774388" lon="10.5873048"><ele>452.0</ele><time>2026-04-19T14:47:12.977Z</time></trkpt><trkpt lat="44.5775559" lon="10.5873298"><ele>452.0</ele><time>2026-04-19T14:47:13.978Z</time></trkpt><trkpt lat="44.5776727" lon="10.5873397"><ele>452.0</ele><time>2026-04-19T14:47:14.979Z</time></trkpt><trkpt lat="44.5777903" lon="10.5873419"><ele>452.0</ele><time>2026-04-19T14:47:15.979Z</time></trkpt><trkpt lat="44.577912" lon="10.5873452"><ele>451.75</ele><time>2026-04-19T14:47:16.977Z</time></trkpt><trkpt lat="44.5780302" lon="10.5873508"><ele>451.5</ele><time>2026-04-19T14:47:17.979Z</time></trkpt><trkpt lat="44.5781438" lon="10.587349"><ele>451.25</ele><time>2026-04-19T14:47:18.978Z</time></trkpt><trkpt lat="44.5782603" lon="10.5873407"><ele>451.0</ele><time>2026-04-19T14:47:19.979Z</time></trkpt><trkpt lat="44.5783732" lon="10.5873298"><ele>451.0</ele><time>2026-04-19T14:47:20.978Z</time></trkpt><trkpt lat="44.5784804" lon="10.5873189"><ele>451.0</ele><time>2026-04-19T14:47:21.978Z</time></trkpt><trkpt lat="44.578598" lon="10.5873132"><ele>451.0</ele><time>2026-04-19T14:47:22.978Z</time></trkpt><trkpt lat="44.5787111" lon="10.5873222"><ele>451.0</ele><time>2026-04-19T14:47:23.978Z</time></trkpt><trkpt lat="44.5788271" lon="10.5873424"><ele>450.25</ele><time>2026-04-19T14:47:24.977Z</time></trkpt><trkpt lat="44.5789435" lon="10.587371"><ele>449.5</ele><time>2026-04-19T14:47:25.978Z</time></trkpt><trkpt lat="44.579063" lon="10.5874027"><ele>448.75</ele><time>2026-04-19T14:47:26.979Z</time></trkpt><trkpt lat="44.5791787" lon="10.587436"><ele>448.0</ele><time>2026-04-19T14:47:27.979Z</time></trkpt><trkpt lat="44.579287" lon="10.5874673"><ele>448.0</ele><time>2026-04-19T14:47:28.978Z</time></trkpt><trkpt lat="44.5793888" lon="10.5874944"><ele>447.99999999999994</ele><time>2026-04-19T14:47:29.978Z</time></trkpt><trkpt lat="44.5794868" lon="10.5875181"><ele>447.99999999999994</ele><time>2026-04-19T14:47:30.978Z</time></trkpt><trkpt lat="44.5795875" lon="10.5875264"><ele>448.0</ele><time>2026-04-19T14:47:31.979Z</time></trkpt><trkpt lat="44.5796906" lon="10.5875219"><ele>448.0</ele><time>2026-04-19T14:47:32.979Z</time></trkpt><trkpt lat="44.5797973" lon="10.5875055"><ele>447.0</ele><time>2026-04-19T14:47:33.978Z</time></trkpt><trkpt lat="44.5799055" lon="10.5874778"><ele>445.99999999999994</ele><time>2026-04-19T14:47:34.979Z</time></trkpt><trkpt lat="44.5800082" lon="10.5874481"><ele>444.99999999999994</ele><time>2026-04-19T14:47:35.979Z</time></trkpt><trkpt lat="44.5801061" lon="10.5874202"><ele>444.0</ele><time>2026-04-19T14:47:36.979Z</time></trkpt><trkpt lat="44.5802027" lon="10.5873889"><ele>443.0</ele><time>2026-04-19T14:47:37.979Z</time></trkpt><trkpt lat="44.5803021" lon="10.5873579"><ele>441.4</ele><time>2026-04-19T14:47:38.979Z</time></trkpt><trkpt lat="44.5803934" lon="10.5873279"><ele>439.79999999999995</ele><time>2026-04-19T14:47:39.979Z</time></trkpt><trkpt lat="44.5804818" lon="10.5873127"><ele>438.2</ele><time>2026-04-19T14:47:40.977Z</time></trkpt><trkpt lat="44.5805704" lon="10.587319"><ele>436.6</ele><time>2026-04-19T14:47:41.978Z</time></trkpt><trkpt lat="44.5806634" lon="10.5873482"><ele>435.0</ele><time>2026-04-19T14:47:42.978Z</time></trkpt><trkpt lat="44.5807721" lon="10.5873984"><ele>435.0</ele><time>2026-04-19T14:47:43.979Z</time></trkpt><trkpt lat="44.5808853" lon="10.5874576"><ele>435.0</ele><time>2026-04-19T14:47:44.977Z</time></trkpt><trkpt lat="44.5809958" lon="10.5875151"><ele>435.0</ele><time>2026-04-19T14:47:45.979Z</time></trkpt><trkpt lat="44.5811022" lon="10.5875748"><ele>435.0</ele><time>2026-04-19T14:47:46.978Z</time></trkpt><trkpt lat="44.5812115" lon="10.587633"><ele>433.0</ele><time>2026-04-19T14:47:47.979Z</time></trkpt><trkpt lat="44.5813202" lon="10.587692"><ele>431.0</ele><time>2026-04-19T14:47:48.978Z</time></trkpt><trkpt lat="44.581429" lon="10.5877503"><ele>429.0</ele><time>2026-04-19T14:47:49.978Z</time></trkpt><trkpt lat="44.5815377" lon="10.5878069"><ele>427.0</ele><time>2026-04-19T14:47:50.979Z</time></trkpt><trkpt lat="44.5816374" lon="10.5878647"><ele>426.0</ele><time>2026-04-19T14:47:51.978Z</time></trkpt><trkpt lat="44.5817251" lon="10.5879176"><ele>425.00000000000006</ele><time>2026-04-19T14:47:52.978Z</time></trkpt><trkpt lat="44.5818112" lon="10.5879578"><ele>424.0</ele><time>2026-04-19T14:47:53.978Z</time></trkpt><trkpt lat="44.5818995" lon="10.5879843"><ele>423.0</ele><time>2026-04-19T14:47:54.978Z</time></trkpt><trkpt lat="44.5819982" lon="10.5879984"><ele>422.0</ele><time>2026-04-19T14:47:55.977Z</time></trkpt><trkpt lat="44.5820964" lon="10.5879952"><ele>421.20000000000005</ele><time>2026-04-19T14:47:56.979Z</time></trkpt><trkpt lat="44.5821894" lon="10.5879904"><ele>420.4</ele><time>2026-04-19T14:47:57.978Z</time></trkpt><trkpt lat="44.5822691" lon="10.5879679"><ele>419.6</ele><time>2026-04-19T14:47:58.978Z</time></trkpt><trkpt lat="44.5823452" lon="10.5879154"><ele>418.79999999999995</ele><time>2026-04-19T14:47:59.978Z</time></trkpt><trkpt lat="44.5824163" lon="10.5878282"><ele>418.0</ele><time>2026-04-19T14:48:00.979Z</time></trkpt><trkpt lat="44.5824842" lon="10.5877096"><ele>418.0</ele><time>2026-04-19T14:48:01.978Z</time></trkpt><trkpt lat="44.5825472" lon="10.587593"><ele>418.0</ele><time>2026-04-19T14:48:02.978Z</time></trkpt><trkpt lat="44.5826137" lon="10.5874824"><ele>418.0</ele><time>2026-04-19T14:48:03.978Z</time></trkpt><trkpt lat="44.5826892" lon="10.5873794"><ele>418.0</ele><time>2026-04-19T14:48:04.979Z</time></trkpt><trkpt lat="44.5827762" lon="10.5872949"><ele>418.0</ele><time>2026-04-19T14:48:05.977Z</time></trkpt><trkpt lat="44.5828747" lon="10.5872399"><ele>414.0</ele><time>2026-04-19T14:48:06.979Z</time></trkpt><trkpt lat="44.5829824" lon="10.5871868"><ele>410.0</ele><time>2026-04-19T14:48:07.978Z</time></trkpt><trkpt lat="44.5830959" lon="10.5871427"><ele>406.0</ele><time>2026-04-19T14:48:08.979Z</time></trkpt><trkpt lat="44.5832103" lon="10.5870996"><ele>402.0</ele><time>2026-04-19T14:48:09.978Z</time></trkpt><trkpt lat="44.5833291" lon="10.587051"><ele>402.0</ele><time>2026-04-19T14:48:10.978Z</time></trkpt><trkpt lat="44.583447" lon="10.5869989"><ele>402.0</ele><time>2026-04-19T14:48:11.978Z</time></trkpt><trkpt lat="44.5835633" lon="10.5869491"><ele>402.0</ele><time>2026-04-19T14:48:12.979Z</time></trkpt><trkpt lat="44.5836805" lon="10.5869029"><ele>402.0</ele><time>2026-04-19T14:48:13.979Z</time></trkpt><trkpt lat="44.5837986" lon="10.5868558"><ele>402.0</ele><time>2026-04-19T14:48:14.977Z</time></trkpt><trkpt lat="44.5839168" lon="10.586813"><ele>402.0</ele><time>2026-04-19T14:48:15.977Z</time></trkpt><trkpt lat="44.5840374" lon="10.586763"><ele>402.0</ele><time>2026-04-19T14:48:16.979Z</time></trkpt><trkpt lat="44.584155" lon="10.5867132"><ele>402.0</ele><time>2026-04-19T14:48:17.978Z</time></trkpt><trkpt lat="44.5842729" lon="10.5866632"><ele>402.0</ele><time>2026-04-19T14:48:18.979Z</time></trkpt><trkpt lat="44.5843923" lon="10.5866092"><ele>402.0</ele><time>2026-04-19T14:48:19.979Z</time></trkpt><trkpt lat="44.5845154" lon="10.5865497"><ele>402.0</ele><time>2026-04-19T14:48:20.979Z</time></trkpt><trkpt lat="44.5846393" lon="10.5864862"><ele>402.0</ele><time>2026-04-19T14:48:21.979Z</time></trkpt><trkpt lat="44.5847592" lon="10.586425"><ele>399.25</ele><time>2026-04-19T14:48:22.977Z</time></trkpt><trkpt lat="44.5848745" lon="10.5863611"><ele>396.5</ele><time>2026-04-19T14:48:23.979Z</time></trkpt><trkpt lat="44.5849762" lon="10.5863065"><ele>393.75</ele><time>2026-04-19T14:48:24.978Z</time></trkpt><trkpt lat="44.5850804" lon="10.5862558"><ele>391.0</ele><time>2026-04-19T14:48:25.978Z</time></trkpt><trkpt lat="44.5851908" lon="10.5862175"><ele>391.0</ele><time>2026-04-19T14:48:26.978Z</time></trkpt><trkpt lat="44.585314" lon="10.5861879"><ele>391.0</ele><time>2026-04-19T14:48:27.979Z</time></trkpt><trkpt lat="44.585444" lon="10.5861605"><ele>391.0</ele><time>2026-04-19T14:48:28.977Z</time></trkpt><trkpt lat="44.5855809" lon="10.5861389"><ele>391.0</ele><time>2026-04-19T14:48:29.978Z</time></trkpt><trkpt lat="44.585719" lon="10.5861137"><ele>389.5</ele><time>2026-04-19T14:48:30.979Z</time></trkpt><trkpt lat="44.5858501" lon="10.5860803"><ele>388.0</ele><time>2026-04-19T14:48:31.978Z</time></trkpt><trkpt lat="44.5859806" lon="10.5860426"><ele>386.5</ele><time>2026-04-19T14:48:32.979Z</time></trkpt><trkpt lat="44.5861104" lon="10.5859959"><ele>385.0</ele><time>2026-04-19T14:48:33.979Z</time></trkpt><trkpt lat="44.586243" lon="10.5859392"><ele>385.0</ele><time>2026-04-19T14:48:34.979Z</time></trkpt><trkpt lat="44.5863746" lon="10.5858736"><ele>385.0</ele><time>2026-04-19T14:48:35.979Z</time></trkpt><trkpt lat="44.5864964" lon="10.5858105"><ele>385.0</ele><time>2026-04-19T14:48:36.978Z</time></trkpt><trkpt lat="44.5866095" lon="10.5857483"><ele>385.0</ele><time>2026-04-19T14:48:37.979Z</time></trkpt><trkpt lat="44.5867189" lon="10.5856916"><ele>385.0</ele><time>2026-04-19T14:48:38.979Z</time></trkpt><trkpt lat="44.5868248" lon="10.5856428"><ele>385.0</ele><time>2026-04-19T14:48:39.978Z</time></trkpt><trkpt lat="44.5869269" lon="10.5856123"><ele>385.0</ele><time>2026-04-19T14:48:40.978Z</time></trkpt><trkpt lat="44.5870362" lon="10.5856058"><ele>385.0</ele><time>2026-04-19T14:48:41.979Z</time></trkpt><trkpt lat="44.5871485" lon="10.5856263"><ele>385.0</ele><time>2026-04-19T14:48:42.979Z</time></trkpt><trkpt lat="44.5872526" lon="10.5856596"><ele>384.4</ele><time>2026-04-19T14:48:43.978Z</time></trkpt><trkpt lat="44.587356" lon="10.5856845"><ele>383.8</ele><time>2026-04-19T14:48:44.978Z</time></trkpt><trkpt lat="44.5874575" lon="10.5856906"><ele>383.20000000000005</ele><time>2026-04-19T14:48:45.979Z</time></trkpt><trkpt lat="44.5875557" lon="10.5856809"><ele>382.6</ele><time>2026-04-19T14:48:46.978Z</time></trkpt><trkpt lat="44.5876558" lon="10.585661"><ele>382.0</ele><time>2026-04-19T14:48:47.978Z</time></trkpt><trkpt lat="44.5877603" lon="10.5856089"><ele>381.0</ele><time>2026-04-19T14:48:48.979Z</time></trkpt><trkpt lat="44.5878691" lon="10.5855349"><ele>380.0</ele><time>2026-04-19T14:48:49.979Z</time></trkpt><trkpt lat="44.5879798" lon="10.5854519"><ele>379.0</ele><time>2026-04-19T14:48:50.979Z</time></trkpt><trkpt lat="44.5880806" lon="10.5853598"><ele>378.0</ele><time>2026-04-19T14:48:51.978Z</time></trkpt><trkpt lat="44.5881724" lon="10.5852515"><ele>377.25</ele><time>2026-04-19T14:48:52.978Z</time></trkpt><trkpt lat="44.5882565" lon="10.5851354"><ele>376.5</ele><time>2026-04-19T14:48:53.978Z</time></trkpt><trkpt lat="44.5883365" lon="10.5850108"><ele>375.75</ele><time>2026-04-19T14:48:54.979Z</time></trkpt><trkpt lat="44.5884053" lon="10.5848848"><ele>375.0</ele><time>2026-04-19T14:48:55.979Z</time></trkpt><trkpt lat="44.5884668" lon="10.5847701"><ele>375.0</ele><time>2026-04-19T14:48:56.979Z</time></trkpt><trkpt lat="44.5885322" lon="10.5846555"><ele>375.0</ele><time>2026-04-19T14:48:57.979Z</time></trkpt><trkpt lat="44.5886102" lon="10.5845554"><ele>375.0</ele><time>2026-04-19T14:48:58.979Z</time></trkpt><trkpt lat="44.5887092" lon="10.5844658"><ele>375.0</ele><time>2026-04-19T14:48:59.978Z</time></trkpt><trkpt lat="44.5888121" lon="10.5843978"><ele>375.0</ele><time>2026-04-19T14:49:00.978Z</time></trkpt><trkpt lat="44.588903" lon="10.5843337"><ele>374.1666666666667</ele><time>2026-04-19T14:49:01.979Z</time></trkpt><trkpt lat="44.5889794" lon="10.5842514"><ele>373.3333333333333</ele><time>2026-04-19T14:49:02.979Z</time></trkpt><trkpt lat="44.5890506" lon="10.5841525"><ele>372.5</ele><time>2026-04-19T14:49:03.979Z</time></trkpt><trkpt lat="44.58911" lon="10.5840541"><ele>371.66666666666663</ele><time>2026-04-19T14:49:04.978Z</time></trkpt><trkpt lat="44.5891611" lon="10.5839679"><ele>370.8333333333333</ele><time>2026-04-19T14:49:05.979Z</time></trkpt><trkpt lat="44.5892124" lon="10.5838985"><ele>370.0</ele><time>2026-04-19T14:49:06.979Z</time></trkpt><trkpt lat="44.5892783" lon="10.5838522"><ele>370.0</ele><time>2026-04-19T14:49:07.978Z</time></trkpt><trkpt lat="44.5893564" lon="10.583847"><ele>370.0</ele><time>2026-04-19T14:49:08.978Z</time></trkpt><trkpt lat="44.5894403" lon="10.5838914"><ele>370.0</ele><time>2026-04-19T14:49:09.979Z</time></trkpt><trkpt lat="44.5895375" lon="10.5839788"><ele>370.0</ele><time>2026-04-19T14:49:10.978Z</time></trkpt><trkpt lat="44.5896323" lon="10.58407"><ele>370.0</ele><time>2026-04-19T14:49:11.978Z</time></trkpt><trkpt lat="44.5897217" lon="10.584158"><ele>369.0</ele><time>2026-04-19T14:49:12.979Z</time></trkpt><trkpt lat="44.5898071" lon="10.5842451"><ele>368.0</ele><time>2026-04-19T14:49:13.977Z</time></trkpt><trkpt lat="44.5898954" lon="10.5843295"><ele>367.0</ele><time>2026-04-19T14:49:14.979Z</time></trkpt><trkpt lat="44.5899913" lon="10.5844118"><ele>366.0</ele><time>2026-04-19T14:49:15.979Z</time></trkpt><trkpt lat="44.5900904" lon="10.5844958"><ele>365.0</ele><time>2026-04-19T14:49:16.977Z</time></trkpt><trkpt lat="44.5901912" lon="10.584574"><ele>364.8</ele><time>2026-04-19T14:49:17.978Z</time></trkpt><trkpt lat="44.5902926" lon="10.5846473"><ele>364.6</ele><time>2026-04-19T14:49:18.979Z</time></trkpt><trkpt lat="44.590388" lon="10.584715"><ele>364.4</ele><time>2026-04-19T14:49:19.979Z</time></trkpt><trkpt lat="44.5904781" lon="10.5847783"><ele>364.2</ele><time>2026-04-19T14:49:20.979Z</time></trkpt><trkpt lat="44.590552" lon="10.5848306"><ele>364.0</ele><time>2026-04-19T14:49:21.979Z</time></trkpt><trkpt lat="44.5906235" lon="10.5848838"><ele>362.2</ele><time>2026-04-19T14:49:22.979Z</time></trkpt><trkpt lat="44.59068" lon="10.584931"><ele>360.4</ele><time>2026-04-19T14:49:23.978Z</time></trkpt><trkpt lat="44.5907542" lon="10.5850421"><ele>358.6</ele><time>2026-04-19T14:49:25.979Z</time></trkpt><trkpt lat="44.5907456" lon="10.5851917"><ele>356.8</ele><time>2026-04-19T14:49:27.978Z</time></trkpt><trkpt lat="44.5906326" lon="10.5852568"><ele>355.0</ele><time>2026-04-19T14:49:29.979Z</time></trkpt><trkpt lat="44.5905171" lon="10.5852431"><ele>355.0</ele><time>2026-04-19T14:49:31.978Z</time></trkpt><trkpt lat="44.5904216" lon="10.5852219"><ele>355.0</ele><time>2026-04-19T14:49:33.978Z</time></trkpt><trkpt lat="44.5903407" lon="10.5852636"><ele>355.0</ele><time>2026-04-19T14:49:35.978Z</time></trkpt><trkpt lat="44.5903096" lon="10.5853877"><ele>355.0</ele><time>2026-04-19T14:49:37.979Z</time></trkpt><trkpt lat="44.5903995" lon="10.5854801"><ele>355.0</ele><time>2026-04-19T14:49:39.978Z</time></trkpt><trkpt lat="44.5904809" lon="10.5854995"><ele>352.5</ele><time>2026-04-19T14:49:40.979Z</time></trkpt><trkpt lat="44.5905742" lon="10.5855164"><ele>350.0</ele><time>2026-04-19T14:49:41.979Z</time></trkpt><trkpt lat="44.5906836" lon="10.5855316"><ele>347.5</ele><time>2026-04-19T14:49:42.977Z</time></trkpt><trkpt lat="44.5908076" lon="10.5855445"><ele>345.0</ele><time>2026-04-19T14:49:43.978Z</time></trkpt><trkpt lat="44.590938" lon="10.5855496"><ele>345.0</ele><time>2026-04-19T14:49:44.978Z</time></trkpt><trkpt lat="44.591083" lon="10.5855419"><ele>345.0</ele><time>2026-04-19T14:49:45.978Z</time></trkpt><trkpt lat="44.5912242" lon="10.5855349"><ele>345.0</ele><time>2026-04-19T14:49:46.979Z</time></trkpt><trkpt lat="44.5913691" lon="10.5855388"><ele>345.0</ele><time>2026-04-19T14:49:47.979Z</time></trkpt><trkpt lat="44.5915058" lon="10.5855513"><ele>343.5</ele><time>2026-04-19T14:49:48.978Z</time></trkpt><trkpt lat="44.5916391" lon="10.5855909"><ele>342.0</ele><time>2026-04-19T14:49:49.978Z</time></trkpt><trkpt lat="44.5917773" lon="10.5856682"><ele>340.5</ele><time>2026-04-19T14:49:50.979Z</time></trkpt><trkpt lat="44.5919177" lon="10.5857685"><ele>339.0</ele><time>2026-04-19T14:49:51.978Z</time></trkpt><trkpt lat="44.5920643" lon="10.5858932"><ele>335.3333333333333</ele><time>2026-04-19T14:49:52.978Z</time></trkpt><trkpt lat="44.592202" lon="10.5860207"><ele>331.66666666666663</ele><time>2026-04-19T14:49:53.978Z</time></trkpt><trkpt lat="44.5923361" lon="10.586142"><ele>328.0</ele><time>2026-04-19T14:49:54.978Z</time></trkpt><trkpt lat="44.5924616" lon="10.5862618"><ele>328.0</ele><time>2026-04-19T14:49:55.978Z</time></trkpt><trkpt lat="44.5925839" lon="10.5863698"><ele>328.0</ele><time>2026-04-19T14:49:56.979Z</time></trkpt><trkpt lat="44.5926881" lon="10.5864591"><ele>328.0</ele><time>2026-04-19T14:49:57.978Z</time></trkpt><trkpt lat="44.5927796" lon="10.5865459"><ele>328.0</ele><time>2026-04-19T14:49:58.977Z</time></trkpt><trkpt lat="44.5928608" lon="10.5866291"><ele>325.2</ele><time>2026-04-19T14:49:59.978Z</time></trkpt><trkpt lat="44.5929303" lon="10.5867173"><ele>322.4</ele><time>2026-04-19T14:50:00.977Z</time></trkpt><trkpt lat="44.5929797" lon="10.586826"><ele>319.59999999999997</ele><time>2026-04-19T14:50:01.979Z</time></trkpt><trkpt lat="44.5930086" lon="10.5869632"><ele>316.79999999999995</ele><time>2026-04-19T14:50:02.978Z</time></trkpt><trkpt lat="44.5930234" lon="10.5871217"><ele>314.0</ele><time>2026-04-19T14:50:03.978Z</time></trkpt><trkpt lat="44.5930397" lon="10.5872704"><ele>314.0</ele><time>2026-04-19T14:50:04.978Z</time></trkpt><trkpt lat="44.5930661" lon="10.587405"><ele>314.0</ele><time>2026-04-19T14:50:05.979Z</time></trkpt><trkpt lat="44.5931127" lon="10.5875222"><ele>314.0</ele><time>2026-04-19T14:50:06.978Z</time></trkpt><trkpt lat="44.5931801" lon="10.5876105"><ele>314.0</ele><time>2026-04-19T14:50:07.979Z</time></trkpt><trkpt lat="44.5932709" lon="10.587669"><ele>314.0</ele><time>2026-04-19T14:50:08.979Z</time></trkpt><trkpt lat="44.5933946" lon="10.5876747"><ele>314.0</ele><time>2026-04-19T14:50:09.978Z</time></trkpt><trkpt lat="44.5935268" lon="10.5876403"><ele>314.0</ele><time>2026-04-19T14:50:10.978Z</time></trkpt><trkpt lat="44.5936497" lon="10.5875988"><ele>314.0</ele><time>2026-04-19T14:50:11.979Z</time></trkpt><trkpt lat="44.5937532" lon="10.5875706"><ele>314.0</ele><time>2026-04-19T14:50:12.977Z</time></trkpt><trkpt lat="44.5938368" lon="10.5875553"><ele>312.6666666666667</ele><time>2026-04-19T14:50:13.979Z</time></trkpt><trkpt lat="44.5939124" lon="10.587563"><ele>311.33333333333337</ele><time>2026-04-19T14:50:14.978Z</time></trkpt><trkpt lat="44.5939645" lon="10.5876174"><ele>310.0</ele><time>2026-04-19T14:50:15.978Z</time></trkpt><trkpt lat="44.5939878" lon="10.5877931"><ele>308.6666666666667</ele><time>2026-04-19T14:50:17.979Z</time></trkpt><trkpt lat="44.5939469" lon="10.5878715"><ele>307.3333333333333</ele><time>2026-04-19T14:50:18.978Z</time></trkpt><trkpt lat="44.5938749" lon="10.5879146"><ele>306.0</ele><time>2026-04-19T14:50:19.978Z</time></trkpt><trkpt lat="44.5937807" lon="10.5879255"><ele>305.8</ele><time>2026-04-19T14:50:20.979Z</time></trkpt><trkpt lat="44.5936871" lon="10.5879283"><ele>305.6</ele><time>2026-04-19T14:50:21.978Z</time></trkpt><trkpt lat="44.5936096" lon="10.5879336"><ele>305.4</ele><time>2026-04-19T14:50:22.978Z</time></trkpt><trkpt lat="44.5935459" lon="10.5879552"><ele>305.2</ele><time>2026-04-19T14:50:23.979Z</time></trkpt><trkpt lat="44.593506" lon="10.5880936"><ele>305.0</ele><time>2026-04-19T14:50:25.978Z</time></trkpt><trkpt lat="44.5935925" lon="10.5881877"><ele>304.5</ele><time>2026-04-19T14:50:27.979Z</time></trkpt><trkpt lat="44.593683" lon="10.5881996"><ele>304.0</ele><time>2026-04-19T14:50:28.977Z</time></trkpt><trkpt lat="44.5937995" lon="10.5882091"><ele>303.5</ele><time>2026-04-19T14:50:29.979Z</time></trkpt><trkpt lat="44.5939254" lon="10.5882202"><ele>303.0</ele><time>2026-04-19T14:50:30.977Z</time></trkpt><trkpt lat="44.5940669" lon="10.5882386"><ele>303.0</ele><time>2026-04-19T14:50:31.978Z</time></trkpt><trkpt lat="44.5942065" lon="10.5882769"><ele>303.0</ele><time>2026-04-19T14:50:32.979Z</time></trkpt><trkpt lat="44.5943313" lon="10.5883274"><ele>303.0</ele><time>2026-04-19T14:50:33.978Z</time></trkpt><trkpt lat="44.5944351" lon="10.5883734"><ele>303.0</ele><time>2026-04-19T14:50:34.978Z</time></trkpt><trkpt lat="44.5945269" lon="10.588405"><ele>314.0</ele><time>2026-04-19T14:50:35.979Z</time></trkpt><trkpt lat="44.5930397" lon="10.5872704"><ele>314.0</ele><time>2026-04-19T14:50:04.978Z</time></trkpt><trkpt lat="44.5930661" lon="10.587405"><ele>314.0</ele><time>2026-04-19T14:50:05.979Z</time></trkpt><trkpt lat="44.5931127" lon="10.5875222"><ele>314.0</ele><time>2026-04-19T14:50:06.978Z</time></trkpt><trkpt lat="44.5931801" lon="10.5876105"><ele>314.0</ele><time>2026-04-19T14:50:07.979Z</time></trkpt><trkpt lat="44.5932709" lon="10.587669"><ele>314.0</ele><time>2026-04-19T14:50:08.979Z</time></trkpt><trkpt lat="44.5933946" lon="10.5876747"><ele>314.0</ele><time>2026-04-19T14:50:09.978Z</time></trkpt><trkpt lat="44.5935268" lon="10.5876403"><ele>314.0</ele><time>2026-04-19T14:50:10.978Z</time></trkpt><trkpt lat="44.5936497" lon="10.5875988"><ele>314.0</ele><time>2026-04-19T14:50:11.979Z</time></trkpt><trkpt lat="44.5937532" lon="10.5875706"><ele>314.0</ele><time>2026-04-19T14:50:12.977Z</time></trkpt><trkpt lat="44.5938368" lon="10.5875553"><ele>312.6666666666667</ele><time>2026-04-19T14:50:13.979Z</time></trkpt><trkpt lat="44.5939124" lon="10.587563"><ele>311.33333333333337</ele><time>2026-04-19T14:50:14.978Z</time></trkpt><trkpt lat="44.5939645" lon="10.5876174"><ele>310.0</ele><time>2026-04-19T14:50:15.978Z</time></trkpt><trkpt lat="44.5939878" lon="10.5877931"><ele>308.6666666666667</ele><time>2026-04-19T14:50:17.979Z</time></trkpt><trkpt lat="44.5939469" lon="10.5878715"><ele>307.3333333333333</ele><time>2026-04-19T14:50:18.978Z</time></trkpt><trkpt lat="44.5938749" lon="10.5879146"><ele>306.0</ele><time>2026-04-19T14:50:19.978Z</time></trkpt><trkpt lat="44.5937807" lon="10.5879255"><ele>305.8</ele><time>2026-04-19T14:50:20.979Z</time></trkpt><trkpt lat="44.5936871" lon="10.5879283"><ele>305.6</ele><time>2026-04-19T14:50:21.978Z</time></trkpt><trkpt lat="44.5936096" lon="10.5879336"><ele>305.4</ele><time>2026-04-19T14:50:22.978Z</time></trkpt><trkpt lat="44.5935459" lon="10.5879552"><ele>305.2</ele><time>2026-04-19T14:50:23.979Z</time></trkpt><trkpt lat="44.593506" lon="10.5880936"><ele>305.0</ele><time>2026-04-19T14:50:25.978Z</time></trkpt><trkpt lat="44.5935925" lon="10.5881877"><ele>304.5</ele><time>2026-04-19T14:50:27.979Z</time></trkpt><trkpt lat="44.593683" lon="10.5881996"><ele>304.0</ele><time>2026-04-19T14:50:28.977Z</time></trkpt><trkpt lat="44.5937995" lon="10.5882091"><ele>303.5</ele><time>2026-04-19T14:50:29.979Z</time></trkpt><trkpt lat="44.5939254" lon="10.5882202"><ele>303.0</ele><time>2026-04-19T14:50:30.977Z</time></trkpt><trkpt lat="44.5940669" lon="10.5882386"><ele>303.0</ele><time>2026-04-19T14:50:31.978Z</time></trkpt><trkpt lat="44.5942065" lon="10.5882769"><ele>303.0</ele><time>2026-04-19T14:50:32.979Z</time></trkpt><trkpt lat="44.5943313" lon="10.5883274"><ele>303.0</ele><time>2026-04-19T14:50:33.978Z</time></trkpt><trkpt lat="44.5944351" lon="10.5883734"><ele>303.0</ele><time>2026-04-19T14:50:34.978Z</time></trkpt><trkpt lat="44.5945269" lon="10.588405"><ele>300.0</ele><time>2026-04-19T14:50:35.979Z</time></trkpt><trkpt lat="44.5946162" lon="10.5883922"><ele>297.0</ele><time>2026-04-19T14:50:36.978Z</time></trkpt><trkpt lat="44.5947092" lon="10.588333"><ele>294.0</ele><time>2026-04-19T14:50:37.978Z</time></trkpt><trkpt lat="44.5948152" lon="10.5882284"><ele>291.0</ele><time>2026-04-19T14:50:38.977Z</time></trkpt><trkpt lat="44.5949271" lon="10.5881038"><ele>291.0</ele><time>2026-04-19T14:50:39.978Z</time></trkpt><trkpt lat="44.5950262" lon="10.5879968"><ele>291.0</ele><time>2026-04-19T14:50:40.978Z</time></trkpt><trkpt lat="44.595113" lon="10.5878954"><ele>291.0</ele><time>2026-04-19T14:50:41.978Z</time></trkpt><trkpt lat="44.5951897" lon="10.5877839"><ele>291.0</ele><time>2026-04-19T14:50:42.979Z</time></trkpt><trkpt lat="44.595252" lon="10.5876651"><ele>291.3333333333333</ele><time>2026-04-19T14:50:43.977Z</time></trkpt><trkpt lat="44.5952971" lon="10.58756"><ele>291.6666666666667</ele><time>2026-04-19T14:50:44.979Z</time></trkpt><trkpt lat="44.5953337" lon="10.5874699"><ele>292.0</ele><time>2026-04-19T14:50:45.979Z</time></trkpt><trkpt lat="44.5954364" lon="10.587367"><ele>292.33333333333337</ele><time>2026-04-19T14:50:47.979Z</time></trkpt><trkpt lat="44.5955084" lon="10.5873557"><ele>292.6666666666667</ele><time>2026-04-19T14:50:48.978Z</time></trkpt><trkpt lat="44.5955772" lon="10.5873904"><ele>293.0</ele><time>2026-04-19T14:50:49.979Z</time></trkpt><trkpt lat="44.5956352" lon="10.5874577"><ele>289.8</ele><time>2026-04-19T14:50:50.978Z</time></trkpt><trkpt lat="44.5956662" lon="10.5875433"><ele>286.6</ele><time>2026-04-19T14:50:51.978Z</time></trkpt><trkpt lat="44.5956681" lon="10.5876546"><ele>283.4</ele><time>2026-04-19T14:50:52.979Z</time></trkpt><trkpt lat="44.5956417" lon="10.5877692"><ele>280.2</ele><time>2026-04-19T14:50:53.978Z</time></trkpt><trkpt lat="44.5955658" lon="10.5878897"><ele>277.0</ele><time>2026-04-19T14:50:54.978Z</time></trkpt><trkpt lat="44.5954874" lon="10.5880197"><ele>275.25</ele><time>2026-04-19T14:50:55.978Z</time></trkpt><trkpt lat="44.5954251" lon="10.5881574"><ele>273.5</ele><time>2026-04-19T14:50:56.979Z</time></trkpt><trkpt lat="44.5953817" lon="10.5883076"><ele>271.75</ele><time>2026-04-19T14:50:57.978Z</time></trkpt><trkpt lat="44.5953729" lon="10.5884621"><ele>270.0</ele><time>2026-04-19T14:50:58.979Z</time></trkpt><trkpt lat="44.595399" lon="10.5886388"><ele>269.0</ele><time>2026-04-19T14:50:59.979Z</time></trkpt><trkpt lat="44.5954601" lon="10.5888362"><ele>268.0</ele><time>2026-04-19T14:51:00.979Z</time></trkpt><trkpt lat="44.5955465" lon="10.5890387"><ele>267.0</ele><time>2026-04-19T14:51:01.978Z</time></trkpt><trkpt lat="44.5956443" lon="10.5892513"><ele>267.0</ele><time>2026-04-19T14:51:02.979Z</time></trkpt><trkpt lat="44.595742" lon="10.5894657"><ele>267.0</ele><time>2026-04-19T14:51:03.978Z</time></trkpt><trkpt lat="44.595831" lon="10.5896629"><ele>267.0</ele><time>2026-04-19T14:51:04.979Z</time></trkpt><trkpt lat="44.5959185" lon="10.5898467"><ele>267.0</ele><time>2026-04-19T14:51:05.979Z</time></trkpt><trkpt lat="44.5960072" lon="10.5900122"><ele>267.0</ele><time>2026-04-19T14:51:06.978Z</time></trkpt><trkpt lat="44.5960992" lon="10.5901615"><ele>267.0</ele><time>2026-04-19T14:51:07.979Z</time></trkpt><trkpt lat="44.5962073" lon="10.5903009"><ele>267.0</ele><time>2026-04-19T14:51:08.979Z</time></trkpt><trkpt lat="44.5963369" lon="10.5904228"><ele>267.6666666666667</ele><time>2026-04-19T14:51:09.978Z</time></trkpt><trkpt lat="44.5964982" lon="10.5905406"><ele>268.33333333333337</ele><time>2026-04-19T14:51:10.979Z</time></trkpt><trkpt lat="44.5966757" lon="10.5906512"><ele>269.0</ele><time>2026-04-19T14:51:11.979Z</time></trkpt><trkpt lat="44.5968373" lon="10.5907497"><ele>269.0</ele><time>2026-04-19T14:51:12.978Z</time></trkpt><trkpt lat="44.5969927" lon="10.59084"><ele>269.0</ele><time>2026-04-19T14:51:13.979Z</time></trkpt><trkpt lat="44.5971499" lon="10.590932"><ele>269.0</ele><time>2026-04-19T14:51:14.979Z</time></trkpt><trkpt lat="44.5973082" lon="10.5910248"><ele>269.0</ele><time>2026-04-19T14:51:15.979Z</time></trkpt><trkpt lat="44.5974643" lon="10.5911173"><ele>269.0</ele><time>2026-04-19T14:51:16.978Z</time></trkpt><trkpt lat="44.5976122" lon="10.5912042"><ele>269.0</ele><time>2026-04-19T14:51:17.977Z</time></trkpt><trkpt lat="44.5977462" lon="10.5912788"><ele>271.25</ele><time>2026-04-19T14:51:18.979Z</time></trkpt><trkpt lat="44.5978692" lon="10.5913489"><ele>273.5</ele><time>2026-04-19T14:51:19.979Z</time></trkpt><trkpt lat="44.5979863" lon="10.5914105"><ele>275.75</ele><time>2026-04-19T14:51:20.979Z</time></trkpt><trkpt lat="44.5981115" lon="10.5914512"><ele>278.0</ele><time>2026-04-19T14:51:21.978Z</time></trkpt><trkpt lat="44.5982386" lon="10.5914662"><ele>278.0</ele><time>2026-04-19T14:51:22.978Z</time></trkpt><trkpt lat="44.598355" lon="10.5914736"><ele>278.0</ele><time>2026-04-19T14:51:23.979Z</time></trkpt><trkpt lat="44.5984706" lon="10.5914824"><ele>278.0</ele><time>2026-04-19T14:51:24.978Z</time></trkpt><trkpt lat="44.5985964" lon="10.5914858"><ele>278.0</ele><time>2026-04-19T14:51:25.978Z</time></trkpt><trkpt lat="44.5987186" lon="10.5914995"><ele>279.0</ele><time>2026-04-19T14:51:26.979Z</time></trkpt><trkpt lat="44.5988453" lon="10.5915192"><ele>280.0</ele><time>2026-04-19T14:51:27.978Z</time></trkpt><trkpt lat="44.5989754" lon="10.5915422"><ele>281.0</ele><time>2026-04-19T14:51:28.979Z</time></trkpt><trkpt lat="44.5991146" lon="10.5915643"><ele>282.0</ele><time>2026-04-19T14:51:29.978Z</time></trkpt><trkpt lat="44.5992782" lon="10.5915913"><ele>282.0</ele><time>2026-04-19T14:51:30.979Z</time></trkpt><trkpt lat="44.5994528" lon="10.5916225"><ele>282.0</ele><time>2026-04-19T14:51:31.978Z</time></trkpt><trkpt lat="44.5996344" lon="10.5916414"><ele>282.0</ele><time>2026-04-19T14:51:32.978Z</time></trkpt><trkpt lat="44.5998246" lon="10.5916576"><ele>281.6666666666667</ele><time>2026-04-19T14:51:33.979Z</time></trkpt><trkpt lat="44.5999971" lon="10.5916761"><ele>281.33333333333337</ele><time>2026-04-19T14:51:34.978Z</time></trkpt><trkpt lat="44.6001586" lon="10.5916886"><ele>281.0</ele><time>2026-04-19T14:51:35.979Z</time></trkpt><trkpt lat="44.6003101" lon="10.591701"><ele>279.8</ele><time>2026-04-19T14:51:36.978Z</time></trkpt><trkpt lat="44.6004384" lon="10.591712"><ele>278.6</ele><time>2026-04-19T14:51:37.979Z</time></trkpt><trkpt lat="44.6005556" lon="10.5917197"><ele>277.4</ele><time>2026-04-19T14:51:38.979Z</time></trkpt><trkpt lat="44.6006564" lon="10.5917294"><ele>276.2</ele><time>2026-04-19T14:51:39.979Z</time></trkpt><trkpt lat="44.6007431" lon="10.5917529"><ele>275.0</ele><time>2026-04-19T14:51:40.979Z</time></trkpt><trkpt lat="44.6008165" lon="10.591808"><ele>275.0</ele><time>2026-04-19T14:51:41.979Z</time></trkpt><trkpt lat="44.6008808" lon="10.5918976"><ele>275.0</ele><time>2026-04-19T14:51:42.979Z</time></trkpt><trkpt lat="44.6009181" lon="10.5920145"><ele>275.0</ele><time>2026-04-19T14:51:43.978Z</time></trkpt><trkpt lat="44.6009319" lon="10.5921537"><ele>275.0</ele><time>2026-04-19T14:51:44.978Z</time></trkpt><trkpt lat="44.6009108" lon="10.5923231"><ele>275.0</ele><time>2026-04-19T14:51:45.978Z</time></trkpt><trkpt lat="44.6008829" lon="10.5924822"><ele>277.5</ele><time>2026-04-19T14:51:46.979Z</time></trkpt><trkpt lat="44.6008675" lon="10.5926413"><ele>280.0</ele><time>2026-04-19T14:51:47.979Z</time></trkpt><trkpt lat="44.6008797" lon="10.5928043"><ele>282.5</ele><time>2026-04-19T14:51:48.978Z</time></trkpt><trkpt lat="44.600921" lon="10.5929678"><ele>285.0</ele><time>2026-04-19T14:51:49.978Z</time></trkpt><trkpt lat="44.6009729" lon="10.5931312"><ele>285.75</ele><time>2026-04-19T14:51:50.978Z</time></trkpt><trkpt lat="44.6010331" lon="10.593284"><ele>286.5</ele><time>2026-04-19T14:51:51.979Z</time></trkpt><trkpt lat="44.6011127" lon="10.593421"><ele>287.25</ele><time>2026-04-19T14:51:52.978Z</time></trkpt><trkpt lat="44.6012308" lon="10.593545"><ele>288.0</ele><time>2026-04-19T14:51:53.979Z</time></trkpt><trkpt lat="44.6013603" lon="10.5936703"><ele>284.25</ele><time>2026-04-19T14:51:54.979Z</time></trkpt><trkpt lat="44.6014754" lon="10.5938054"><ele>280.5</ele><time>2026-04-19T14:51:55.979Z</time></trkpt><trkpt lat="44.601584" lon="10.5939413"><ele>276.75</ele><time>2026-04-19T14:51:56.978Z</time></trkpt><trkpt lat="44.6016983" lon="10.5940578"><ele>273.0</ele><time>2026-04-19T14:51:57.979Z</time></trkpt><trkpt lat="44.6018429" lon="10.5941568"><ele>268.3333333333333</ele><time>2026-04-19T14:51:58.977Z</time></trkpt><trkpt lat="44.6020102" lon="10.5942452"><ele>263.66666666666663</ele><time>2026-04-19T14:51:59.979Z</time></trkpt><trkpt lat="44.6021755" lon="10.5943129"><ele>259.0</ele><time>2026-04-19T14:52:00.979Z</time></trkpt><trkpt lat="44.6023308" lon="10.5943749"><ele>259.0</ele><time>2026-04-19T14:52:01.979Z</time></trkpt><trkpt lat="44.6024711" lon="10.5944404"><ele>259.0</ele><time>2026-04-19T14:52:02.977Z</time></trkpt><trkpt lat="44.602593" lon="10.5945144"><ele>259.0</ele><time>2026-04-19T14:52:03.978Z</time></trkpt><trkpt lat="44.6027122" lon="10.5946061"><ele>259.0</ele><time>2026-04-19T14:52:04.978Z</time></trkpt><trkpt lat="44.602826" lon="10.5947304"><ele>258.0</ele><time>2026-04-19T14:52:05.978Z</time></trkpt><trkpt lat="44.6029365" lon="10.5948737"><ele>257.0</ele><time>2026-04-19T14:52:06.979Z</time></trkpt><trkpt lat="44.6030493" lon="10.5949999"><ele>256.0</ele><time>2026-04-19T14:52:07.977Z</time></trkpt><trkpt lat="44.6031878" lon="10.5951109"><ele>256.0</ele><time>2026-04-19T14:52:08.978Z</time></trkpt><trkpt lat="44.6033442" lon="10.5952084"><ele>256.0</ele><time>2026-04-19T14:52:09.979Z</time></trkpt><trkpt lat="44.603521" lon="10.5953052"><ele>256.0</ele><time>2026-04-19T14:52:10.978Z</time></trkpt><trkpt lat="44.6037238" lon="10.5954111"><ele>255.33333333333331</ele><time>2026-04-19T14:52:11.979Z</time></trkpt><trkpt lat="44.6039237" lon="10.5955156"><ele>254.66666666666669</ele><time>2026-04-19T14:52:12.978Z</time></trkpt><trkpt lat="44.6041122" lon="10.5956183"><ele>254.0</ele><time>2026-04-19T14:52:13.978Z</time></trkpt><trkpt lat="44.604296" lon="10.5957206"><ele>254.0</ele><time>2026-04-19T14:52:14.978Z</time></trkpt><trkpt lat="44.6044747" lon="10.595816"><ele>254.0</ele><time>2026-04-19T14:52:15.978Z</time></trkpt><trkpt lat="44.6046498" lon="10.5959107"><ele>254.0</ele><time>2026-04-19T14:52:16.978Z</time></trkpt><trkpt lat="44.6048305" lon="10.5959966"><ele>252.0</ele><time>2026-04-19T14:52:17.978Z</time></trkpt><trkpt lat="44.6050213" lon="10.5960753"><ele>250.0</ele><time>2026-04-19T14:52:18.978Z</time></trkpt><trkpt lat="44.6052157" lon="10.5961488"><ele>248.0</ele><time>2026-04-19T14:52:19.978Z</time></trkpt><trkpt lat="44.6054124" lon="10.5962226"><ele>246.33333333333334</ele><time>2026-04-19T14:52:20.979Z</time></trkpt><trkpt lat="44.6056023" lon="10.5962975"><ele>244.66666666666669</ele><time>2026-04-19T14:52:21.978Z</time></trkpt><trkpt lat="44.6057878" lon="10.5963732"><ele>243.0</ele><time>2026-04-19T14:52:22.979Z</time></trkpt><trkpt lat="44.6059651" lon="10.5964448"><ele>243.0</ele><time>2026-04-19T14:52:23.978Z</time></trkpt><trkpt lat="44.6061373" lon="10.5965146"><ele>243.0</ele><time>2026-04-19T14:52:24.978Z</time></trkpt><trkpt lat="44.6063062" lon="10.5965811"><ele>243.0</ele><time>2026-04-19T14:52:25.979Z</time></trkpt><trkpt lat="44.6064748" lon="10.5966404"><ele>242.0</ele><time>2026-04-19T14:52:26.977Z</time></trkpt><trkpt lat="44.6066425" lon="10.5966792"><ele>241.0</ele><time>2026-04-19T14:52:27.978Z</time></trkpt><trkpt lat="44.6068173" lon="10.5967086"><ele>240.0</ele><time>2026-04-19T14:52:28.979Z</time></trkpt><trkpt lat="44.606987" lon="10.5967251"><ele>238.0</ele><time>2026-04-19T14:52:29.979Z</time></trkpt><trkpt lat="44.6071528" lon="10.5967208"><ele>236.0</ele><time>2026-04-19T14:52:30.977Z</time></trkpt><trkpt lat="44.6073119" lon="10.5967106"><ele>234.0</ele><time>2026-04-19T14:52:31.978Z</time></trkpt><trkpt lat="44.6074577" lon="10.5967051"><ele>234.0</ele><time>2026-04-19T14:52:32.979Z</time></trkpt><trkpt lat="44.6076021" lon="10.5967053"><ele>234.0</ele><time>2026-04-19T14:52:33.979Z</time></trkpt><trkpt lat="44.6077401" lon="10.5967281"><ele>234.0</ele><time>2026-04-19T14:52:34.979Z</time></trkpt><trkpt lat="44.6078715" lon="10.5967739"><ele>234.0</ele><time>2026-04-19T14:52:35.979Z</time></trkpt><trkpt lat="44.6080001" lon="10.5968321"><ele>233.66666666666669</ele><time>2026-04-19T14:52:36.979Z</time></trkpt><trkpt lat="44.6081342" lon="10.5969088"><ele>233.33333333333334</ele><time>2026-04-19T14:52:37.978Z</time></trkpt><trkpt lat="44.6082732" lon="10.5969986"><ele>233.0</ele><time>2026-04-19T14:52:38.978Z</time></trkpt><trkpt lat="44.6084104" lon="10.5970898"><ele>233.0</ele><time>2026-04-19T14:52:39.979Z</time></trkpt><trkpt lat="44.6085453" lon="10.5971941"><ele>233.0</ele><time>2026-04-19T14:52:40.979Z</time></trkpt><trkpt lat="44.6086898" lon="10.5973279"><ele>233.0</ele><time>2026-04-19T14:52:41.979Z</time></trkpt><trkpt lat="44.6088466" lon="10.59749"><ele>229.0</ele><time>2026-04-19T14:52:42.978Z</time></trkpt><trkpt lat="44.6089965" lon="10.5976407"><ele>225.0</ele><time>2026-04-19T14:52:43.978Z</time></trkpt><trkpt lat="44.6091476" lon="10.5977803"><ele>221.0</ele><time>2026-04-19T14:52:44.979Z</time></trkpt><trkpt lat="44.6093092" lon="10.5979052"><ele>221.0</ele><time>2026-04-19T14:52:45.979Z</time></trkpt><trkpt lat="44.6094816" lon="10.5980215"><ele>221.0</ele><time>2026-04-19T14:52:46.978Z</time></trkpt><trkpt lat="44.6096697" lon="10.5981297"><ele>221.0</ele><time>2026-04-19T14:52:47.978Z</time></trkpt><trkpt lat="44.6098525" lon="10.5982345"><ele>219.33333333333334</ele><time>2026-04-19T14:52:48.977Z</time></trkpt><trkpt lat="44.6100389" lon="10.5983347"><ele>217.66666666666669</ele><time>2026-04-19T14:52:49.979Z</time></trkpt><trkpt lat="44.610217" lon="10.5984317"><ele>216.0</ele><time>2026-04-19T14:52:50.979Z</time></trkpt><trkpt lat="44.6103871" lon="10.5985234"><ele>215.33333333333331</ele><time>2026-04-19T14:52:51.978Z</time></trkpt><trkpt lat="44.6105497" lon="10.5986124"><ele>214.66666666666666</ele><time>2026-04-19T14:52:52.978Z</time></trkpt><trkpt lat="44.6107113" lon="10.5987033"><ele>214.0</ele><time>2026-04-19T14:52:53.979Z</time></trkpt><trkpt lat="44.6108756" lon="10.5987973"><ele>214.0</ele><time>2026-04-19T14:52:54.979Z</time></trkpt><trkpt lat="44.6110449" lon="10.5988981"><ele>214.0</ele><time>2026-04-19T14:52:55.978Z</time></trkpt><trkpt lat="44.6112223" lon="10.5990057"><ele>214.0</ele><time>2026-04-19T14:52:56.978Z</time></trkpt><trkpt lat="44.6113991" lon="10.5991146"><ele>211.0</ele><time>2026-04-19T14:52:57.978Z</time></trkpt><trkpt lat="44.6115849" lon="10.5992275"><ele>208.0</ele><time>2026-04-19T14:52:58.978Z</time></trkpt><trkpt lat="44.6117783" lon="10.5993451"><ele>205.0</ele><time>2026-04-19T14:52:59.979Z</time></trkpt><trkpt lat="44.6119758" lon="10.599464"><ele>204.66666666666666</ele><time>2026-04-19T14:53:00.978Z</time></trkpt><trkpt lat="44.6121671" lon="10.5995784"><ele>204.33333333333331</ele><time>2026-04-19T14:53:01.978Z</time></trkpt><trkpt lat="44.6123511" lon="10.5996849"><ele>204.0</ele><time>2026-04-19T14:53:02.978Z</time></trkpt><trkpt lat="44.6125223" lon="10.5997875"><ele>204.0</ele><time>2026-04-19T14:53:03.978Z</time></trkpt><trkpt lat="44.6126826" lon="10.5998853"><ele>204.0</ele><time>2026-04-19T14:53:04.978Z</time></trkpt><trkpt lat="44.6128431" lon="10.5999826"><ele>204.0</ele><time>2026-04-19T14:53:05.978Z</time></trkpt><trkpt lat="44.6130156" lon="10.6000757"><ele>203.33333333333331</ele><time>2026-04-19T14:53:06.979Z</time></trkpt><trkpt lat="44.6131962" lon="10.6001702"><ele>202.66666666666666</ele><time>2026-04-19T14:53:07.978Z</time></trkpt><trkpt lat="44.6133885" lon="10.600264"><ele>202.0</ele><time>2026-04-19T14:53:08.979Z</time></trkpt><trkpt lat="44.6135921" lon="10.6003602"><ele>201.66666666666666</ele><time>2026-04-19T14:53:09.978Z</time></trkpt><trkpt lat="44.6137882" lon="10.600458"><ele>201.33333333333331</ele><time>2026-04-19T14:53:10.978Z</time></trkpt><trkpt lat="44.6139762" lon="10.6005547"><ele>201.0</ele><time>2026-04-19T14:53:11.978Z</time></trkpt><trkpt lat="44.6141658" lon="10.6006418"><ele>201.0</ele><time>2026-04-19T14:53:12.979Z</time></trkpt><trkpt lat="44.6143592" lon="10.6007229"><ele>201.0</ele><time>2026-04-19T14:53:13.978Z</time></trkpt><trkpt lat="44.6145451" lon="10.6007943"><ele>201.0</ele><time>2026-04-19T14:53:14.979Z</time></trkpt><trkpt lat="44.6147252" lon="10.6008609"><ele>196.66666666666666</ele><time>2026-04-19T14:53:15.979Z</time></trkpt><trkpt lat="44.6149016" lon="10.6009327"><ele>192.33333333333331</ele><time>2026-04-19T14:53:16.979Z</time></trkpt><trkpt lat="44.6150891" lon="10.6010172"><ele>188.0</ele><time>2026-04-19T14:53:17.978Z</time></trkpt><trkpt lat="44.615272" lon="10.6011165"><ele>191.33333333333331</ele><time>2026-04-19T14:53:18.978Z</time></trkpt><trkpt lat="44.6154449" lon="10.6012146"><ele>194.66666666666666</ele><time>2026-04-19T14:53:19.978Z</time></trkpt><trkpt lat="44.6156031" lon="10.6013019"><ele>198.0</ele><time>2026-04-19T14:53:20.979Z</time></trkpt><trkpt lat="44.6157432" lon="10.6013639"><ele>198.0</ele><time>2026-04-19T14:53:21.979Z</time></trkpt><trkpt lat="44.6158833" lon="10.6013966"><ele>198.0</ele><time>2026-04-19T14:53:22.978Z</time></trkpt><trkpt lat="44.6160153" lon="10.6014061"><ele>198.0</ele><time>2026-04-19T14:53:23.978Z</time></trkpt><trkpt lat="44.6161324" lon="10.6014095"><ele>198.0</ele><time>2026-04-19T14:53:24.978Z</time></trkpt><trkpt lat="44.6162354" lon="10.6014196"><ele>193.60000000000002</ele><time>2026-04-19T14:53:25.978Z</time></trkpt><trkpt lat="44.6163281" lon="10.6014599"><ele>189.20000000000002</ele><time>2026-04-19T14:53:26.978Z</time></trkpt><trkpt lat="44.6164027" lon="10.6015285"><ele>184.8</ele><time>2026-04-19T14:53:27.978Z</time></trkpt><trkpt lat="44.6164644" lon="10.6016253"><ele>180.4</ele><time>2026-04-19T14:53:28.979Z</time></trkpt><trkpt lat="44.6164987" lon="10.6018016"><ele>176.0</ele><time>2026-04-19T14:53:29.979Z</time></trkpt><trkpt lat="44.6165321" lon="10.6019482"><ele>175.20000000000002</ele><time>2026-04-19T14:53:30.978Z</time></trkpt><trkpt lat="44.6165807" lon="10.6020689"><ele>174.4</ele><time>2026-04-19T14:53:31.979Z</time></trkpt><trkpt lat="44.6166538" lon="10.6021633"><ele>173.6</ele><time>2026-04-19T14:53:32.977Z</time></trkpt><trkpt lat="44.6167502" lon="10.6022321"><ele>172.8</ele><time>2026-04-19T14:53:33.979Z</time></trkpt><trkpt lat="44.6168758" lon="10.6022833"><ele>172.0</ele><time>2026-04-19T14:53:34.978Z</time></trkpt><trkpt lat="44.616997" lon="10.6023313"><ele>172.0</ele><time>2026-04-19T14:53:35.978Z</time></trkpt><trkpt lat="44.6171146" lon="10.602374"><ele>172.0</ele><time>2026-04-19T14:53:36.978Z</time></trkpt><trkpt lat="44.6172293" lon="10.6024184"><ele>172.0</ele><time>2026-04-19T14:53:37.978Z</time></trkpt><trkpt lat="44.6173376" lon="10.6024571"><ele>172.0</ele><time>2026-04-19T14:53:38.978Z</time></trkpt><trkpt lat="44.617443" lon="10.6024951"><ele>172.0</ele><time>2026-04-19T14:53:39.978Z</time></trkpt><trkpt lat="44.6175508" lon="10.6025285"><ele>172.0</ele><time>2026-04-19T14:53:40.978Z</time></trkpt><trkpt lat="44.6176581" lon="10.602568"><ele>172.0</ele><time>2026-04-19T14:53:41.979Z</time></trkpt><trkpt lat="44.6177639" lon="10.6026086"><ele>172.0</ele><time>2026-04-19T14:53:42.979Z</time></trkpt><trkpt lat="44.61787" lon="10.6026481"><ele>172.0</ele><time>2026-04-19T14:53:43.979Z</time></trkpt><trkpt lat="44.6179733" lon="10.6026848"><ele>171.0</ele><time>2026-04-19T14:53:44.979Z</time></trkpt><trkpt lat="44.6180718" lon="10.6027209"><ele>170.0</ele><time>2026-04-19T14:53:45.978Z</time></trkpt><trkpt lat="44.6181564" lon="10.6027463"><ele>169.0</ele><time>2026-04-19T14:53:46.978Z</time></trkpt><trkpt lat="44.618237" lon="10.6027596"><ele>168.0</ele><time>2026-04-19T14:53:47.979Z</time></trkpt><trkpt lat="44.6183144" lon="10.6027666"><ele>167.0</ele><time>2026-04-19T14:53:48.979Z</time></trkpt><trkpt lat="44.6184017" lon="10.6027633"><ele>166.0</ele><time>2026-04-19T14:53:49.978Z</time></trkpt><trkpt lat="44.6185022" lon="10.6027438"><ele>166.0</ele><time>2026-04-19T14:53:50.979Z</time></trkpt><trkpt lat="44.6186143" lon="10.6027174"><ele>166.0</ele><time>2026-04-19T14:53:51.979Z</time></trkpt><trkpt lat="44.6187404" lon="10.6026927"><ele>166.0</ele><time>2026-04-19T14:53:52.977Z</time></trkpt><trkpt lat="44.6188665" lon="10.6026662"><ele>166.0</ele><time>2026-04-19T14:53:53.978Z</time></trkpt><trkpt lat="44.618986" lon="10.6026429"><ele>165.66666666666669</ele><time>2026-04-19T14:53:54.978Z</time></trkpt><trkpt lat="44.6190997" lon="10.6026171"><ele>165.33333333333334</ele><time>2026-04-19T14:53:55.978Z</time></trkpt><trkpt lat="44.6191947" lon="10.602595"><ele>165.0</ele><time>2026-04-19T14:53:56.979Z</time></trkpt><trkpt lat="44.6192746" lon="10.6025882"><ele>164.66666666666666</ele><time>2026-04-19T14:53:57.978Z</time></trkpt><trkpt lat="44.6193468" lon="10.602585"><ele>164.33333333333331</ele><time>2026-04-19T14:53:58.979Z</time></trkpt><trkpt lat="44.6194133" lon="10.6025879"><ele>164.0</ele><time>2026-04-19T14:53:59.979Z</time></trkpt><trkpt lat="44.6194784" lon="10.602597"><ele>164.0</ele><time>2026-04-19T14:54:00.979Z</time></trkpt><trkpt lat="44.6195975" lon="10.6026199"><ele>164.0</ele><time>2026-04-19T14:54:02.978Z</time></trkpt><trkpt lat="44.6197119" lon="10.6026856"><ele>164.0</ele><time>2026-04-19T14:54:04.979Z</time></trkpt><trkpt lat="44.6197635" lon="10.6027412"><ele>164.0</ele><time>2026-04-19T14:54:05.978Z</time></trkpt><trkpt lat="44.6198182" lon="10.6027934"><ele>164.0</ele><time>2026-04-19T14:54:06.978Z</time></trkpt><trkpt lat="44.6199341" lon="10.6028499"><ele>164.0</ele><time>2026-04-19T14:54:08.978Z</time></trkpt><trkpt lat="44.6200472" lon="10.6028434"><ele>164.0</ele><time>2026-04-19T14:54:10.978Z</time></trkpt><trkpt lat="44.6201604" lon="10.6028069"><ele>164.0</ele><time>2026-04-19T14:54:12.978Z</time></trkpt><trkpt lat="44.6202294" lon="10.6027953"><ele>164.0</ele><time>2026-04-19T14:54:14.977Z</time></trkpt><trkpt lat="44.6203086" lon="10.6028001"><ele>164.0</ele><time>2026-04-19T14:54:19.979Z</time></trkpt><trkpt lat="44.6203819" lon="10.6028327"><ele>163.2</ele><time>2026-04-19T14:54:21.979Z</time></trkpt><trkpt lat="44.6204766" lon="10.6028958"><ele>162.39999999999998</ele><time>2026-04-19T14:54:23.979Z</time></trkpt><trkpt lat="44.6205957" lon="10.6029757"><ele>161.6</ele><time>2026-04-19T14:54:25.979Z</time></trkpt><trkpt lat="44.6206632" lon="10.6030206"><ele>160.8</ele><time>2026-04-19T14:54:26.979Z</time></trkpt><trkpt lat="44.6207331" lon="10.6030685"><ele>160.0</ele><time>2026-04-19T14:54:27.979Z</time></trkpt><trkpt lat="44.6208041" lon="10.6031155"><ele>160.0</ele><time>2026-04-19T14:54:28.979Z</time></trkpt><trkpt lat="44.6208748" lon="10.6031631"><ele>160.0</ele><time>2026-04-19T14:54:29.978Z</time></trkpt><trkpt lat="44.6209433" lon="10.6032092"><ele>160.0</ele><time>2026-04-19T14:54:30.979Z</time></trkpt><trkpt lat="44.6210438" lon="10.6032786"><ele>160.0</ele><time>2026-04-19T14:54:32.978Z</time></trkpt><trkpt lat="44.6211069" lon="10.6033352"><ele>160.0</ele><time>2026-04-19T14:54:34.978Z</time></trkpt><trkpt lat="44.6211522" lon="10.6034083"><ele>160.0</ele><time>2026-04-19T14:54:36.979Z</time></trkpt><trkpt lat="44.6211651" lon="10.6035641"><ele>160.0</ele><time>2026-04-19T14:54:38.979Z</time></trkpt><trkpt lat="44.6211439" lon="10.6036626"><ele>160.0</ele><time>2026-04-19T14:54:39.978Z</time></trkpt><trkpt lat="44.6211068" lon="10.6037732"><ele>160.0</ele><time>2026-04-19T14:54:40.978Z</time></trkpt><trkpt lat="44.6210637" lon="10.6038949"><ele>160.0</ele><time>2026-04-19T14:54:41.978Z</time></trkpt><trkpt lat="44.6210152" lon="10.6040298"><ele>160.0</ele><time>2026-04-19T14:54:42.979Z</time></trkpt><trkpt lat="44.6209675" lon="10.6041614"><ele>159.5</ele><time>2026-04-19T14:54:43.978Z</time></trkpt><trkpt lat="44.6209137" lon="10.6043084"><ele>159.0</ele><time>2026-04-19T14:54:44.978Z</time></trkpt><trkpt lat="44.620854" lon="10.6044711"><ele>158.5</ele><time>2026-04-19T14:54:45.978Z</time></trkpt><trkpt lat="44.6207858" lon="10.6046517"><ele>158.0</ele><time>2026-04-19T14:54:46.979Z</time></trkpt><trkpt lat="44.6207185" lon="10.6048255"><ele>158.0</ele><time>2026-04-19T14:54:47.978Z</time></trkpt><trkpt lat="44.6206527" lon="10.6049973"><ele>158.0</ele><time>2026-04-19T14:54:48.979Z</time></trkpt><trkpt lat="44.6205884" lon="10.605169"><ele>158.0</ele><time>2026-04-19T14:54:49.978Z</time></trkpt><trkpt lat="44.6205242" lon="10.6053417"><ele>158.0</ele><time>2026-04-19T14:54:50.978Z</time></trkpt><trkpt lat="44.620462" lon="10.6055063"><ele>157.75</ele><time>2026-04-19T14:54:51.979Z</time></trkpt><trkpt lat="44.6204006" lon="10.6056718"><ele>157.5</ele><time>2026-04-19T14:54:52.979Z</time></trkpt><trkpt lat="44.62034" lon="10.605835"><ele>157.25</ele><time>2026-04-19T14:54:53.977Z</time></trkpt><trkpt lat="44.6202806" lon="10.6059937"><ele>157.0</ele><time>2026-04-19T14:54:54.978Z</time></trkpt><trkpt lat="44.6202201" lon="10.606154"><ele>157.0</ele><time>2026-04-19T14:54:55.978Z</time></trkpt><trkpt lat="44.6201554" lon="10.6063224"><ele>157.0</ele><time>2026-04-19T14:54:56.979Z</time></trkpt><trkpt lat="44.6200869" lon="10.606492"><ele>157.0</ele><time>2026-04-19T14:54:57.979Z</time></trkpt><trkpt lat="44.6200142" lon="10.6066642"><ele>157.0</ele><time>2026-04-19T14:54:58.977Z</time></trkpt><trkpt lat="44.6199341" lon="10.6068395"><ele>156.0</ele><time>2026-04-19T14:54:59.979Z</time></trkpt><trkpt lat="44.6198467" lon="10.6070168"><ele>155.0</ele><time>2026-04-19T14:55:00.978Z</time></trkpt><trkpt lat="44.6197534" lon="10.6071989"><ele>154.0</ele><time>2026-04-19T14:55:01.977Z</time></trkpt><trkpt lat="44.6196522" lon="10.6073925"><ele>154.0</ele><time>2026-04-19T14:55:02.978Z</time></trkpt><trkpt lat="44.6195387" lon="10.6076084"><ele>154.0</ele><time>2026-04-19T14:55:03.979Z</time></trkpt><trkpt lat="44.6194315" lon="10.6078093"><ele>154.0</ele><time>2026-04-19T14:55:04.979Z</time></trkpt><trkpt lat="44.6193303" lon="10.6080004"><ele>154.0</ele><time>2026-04-19T14:55:05.978Z</time></trkpt><trkpt lat="44.6192334" lon="10.6081801"><ele>154.0</ele><time>2026-04-19T14:55:06.978Z</time></trkpt><trkpt lat="44.6191427" lon="10.6083506"><ele>154.0</ele><time>2026-04-19T14:55:07.978Z</time></trkpt><trkpt lat="44.6190531" lon="10.608519"><ele>153.5</ele><time>2026-04-19T14:55:08.978Z</time></trkpt><trkpt lat="44.6189677" lon="10.6086773"><ele>153.0</ele><time>2026-04-19T14:55:09.978Z</time></trkpt><trkpt lat="44.6188854" lon="10.6088237"><ele>152.5</ele><time>2026-04-19T14:55:10.979Z</time></trkpt><trkpt lat="44.6188105" lon="10.6089506"><ele>152.0</ele><time>2026-04-19T14:55:11.978Z</time></trkpt><trkpt lat="44.6187385" lon="10.6090544"><ele>152.0</ele><time>2026-04-19T14:55:12.978Z</time></trkpt><trkpt lat="44.6186722" lon="10.6091375"><ele>152.0</ele><time>2026-04-19T14:55:13.977Z</time></trkpt><trkpt lat="44.6186228" lon="10.6091936"><ele>152.0</ele><time>2026-04-19T14:55:14.978Z</time></trkpt><trkpt lat="44.6185615" lon="10.6092457"><ele>152.0</ele><time>2026-04-19T14:55:16.978Z</time></trkpt><trkpt lat="44.6184756" lon="10.6093004"><ele>152.0</ele><time>2026-04-19T14:55:18.978Z</time></trkpt><trkpt lat="44.6183967" lon="10.6094238"><ele>152.0</ele><time>2026-04-19T14:55:20.978Z</time></trkpt><trkpt lat="44.6183815" lon="10.6095101"><ele>153.4</ele><time>2026-04-19T14:55:21.979Z</time></trkpt><trkpt lat="44.6183781" lon="10.6096086"><ele>154.79999999999998</ele><time>2026-04-19T14:55:22.979Z</time></trkpt><trkpt lat="44.6183673" lon="10.6097261"><ele>156.2</ele><time>2026-04-19T14:55:23.978Z</time></trkpt><trkpt lat="44.6183372" lon="10.6098673"><ele>157.6</ele><time>2026-04-19T14:55:24.979Z</time></trkpt><trkpt lat="44.6182947" lon="10.6100321"><ele>159.0</ele><time>2026-04-19T14:55:25.977Z</time></trkpt><trkpt lat="44.6182463" lon="10.6102108"><ele>158.0</ele><time>2026-04-19T14:55:26.977Z</time></trkpt><trkpt lat="44.6181889" lon="10.6104244"><ele>157.0</ele><time>2026-04-19T14:55:27.978Z</time></trkpt><trkpt lat="44.618131" lon="10.6106436"><ele>156.0</ele><time>2026-04-19T14:55:28.979Z</time></trkpt><trkpt lat="44.6180679" lon="10.6108813"><ele>156.0</ele><time>2026-04-19T14:55:29.979Z</time></trkpt><trkpt lat="44.6180009" lon="10.611125"><ele>156.0</ele><time>2026-04-19T14:55:30.978Z</time></trkpt><trkpt lat="44.6179354" lon="10.61135"><ele>156.0</ele><time>2026-04-19T14:55:31.979Z</time></trkpt><trkpt lat="44.6178745" lon="10.6115673"><ele>156.33333333333334</ele><time>2026-04-19T14:55:32.979Z</time></trkpt><trkpt lat="44.6178147" lon="10.6117824"><ele>156.66666666666669</ele><time>2026-04-19T14:55:33.979Z</time></trkpt><trkpt lat="44.6177551" lon="10.6120003"><ele>157.0</ele><time>2026-04-19T14:55:34.978Z</time></trkpt><trkpt lat="44.6176939" lon="10.6122204"><ele>156.0</ele><time>2026-04-19T14:55:35.979Z</time></trkpt><trkpt lat="44.6176335" lon="10.6124366"><ele>155.0</ele><time>2026-04-19T14:55:36.978Z</time></trkpt><trkpt lat="44.6175817" lon="10.6126436"><ele>154.0</ele><time>2026-04-19T14:55:37.978Z</time></trkpt><trkpt lat="44.617539" lon="10.6128502"><ele>153.0</ele><time>2026-04-19T14:55:38.978Z</time></trkpt><trkpt lat="44.6175086" lon="10.6130678"><ele>152.0</ele><time>2026-04-19T14:55:39.978Z</time></trkpt><trkpt lat="44.6174988" lon="10.6132896"><ele>151.0</ele><time>2026-04-19T14:55:40.978Z</time></trkpt><trkpt lat="44.6175084" lon="10.6135111"><ele>149.66666666666669</ele><time>2026-04-19T14:55:41.978Z</time></trkpt><trkpt lat="44.6175375" lon="10.613734"><ele>148.33333333333334</ele><time>2026-04-19T14:55:42.978Z</time></trkpt><trkpt lat="44.6175805" lon="10.6139633"><ele>147.0</ele><time>2026-04-19T14:55:43.978Z</time></trkpt><trkpt lat="44.6176396" lon="10.6141875"><ele>147.0</ele><time>2026-04-19T14:55:44.978Z</time></trkpt><trkpt lat="44.6177056" lon="10.6144043"><ele>147.0</ele><time>2026-04-19T14:55:45.978Z</time></trkpt><trkpt lat="44.6177711" lon="10.6146173"><ele>147.0</ele><time>2026-04-19T14:55:46.979Z</time></trkpt><trkpt lat="44.6178379" lon="10.6148348"><ele>145.33333333333334</ele><time>2026-04-19T14:55:47.979Z</time></trkpt><trkpt lat="44.6179074" lon="10.6150545"><ele>143.66666666666669</ele><time>2026-04-19T14:55:48.979Z</time></trkpt><trkpt lat="44.6179765" lon="10.6152814"><ele>142.0</ele><time>2026-04-19T14:55:49.979Z</time></trkpt><trkpt lat="44.618043" lon="10.6155031"><ele>141.0</ele><time>2026-04-19T14:55:50.978Z</time></trkpt><trkpt lat="44.6181121" lon="10.6157209"><ele>140.0</ele><time>2026-04-19T14:55:51.979Z</time></trkpt><trkpt lat="44.6181786" lon="10.6159361"><ele>139.0</ele><time>2026-04-19T14:55:52.978Z</time></trkpt><trkpt lat="44.6182384" lon="10.616148"><ele>138.66666666666669</ele><time>2026-04-19T14:55:53.979Z</time></trkpt><trkpt lat="44.6182871" lon="10.616371"><ele>138.33333333333334</ele><time>2026-04-19T14:55:54.978Z</time></trkpt><trkpt lat="44.6183213" lon="10.6165961"><ele>138.0</ele><time>2026-04-19T14:55:55.979Z</time></trkpt><trkpt lat="44.61833" lon="10.616818"><ele>136.66666666666666</ele><time>2026-04-19T14:55:56.979Z</time></trkpt><trkpt lat="44.6183211" lon="10.6170374"><ele>135.33333333333331</ele><time>2026-04-19T14:55:57.979Z</time></trkpt><trkpt lat="44.6182971" lon="10.617256"><ele>134.0</ele><time>2026-04-19T14:55:58.978Z</time></trkpt><trkpt lat="44.6182584" lon="10.6174754"><ele>134.0</ele><time>2026-04-19T14:55:59.979Z</time></trkpt><trkpt lat="44.6181962" lon="10.6176894"><ele>134.0</ele><time>2026-04-19T14:56:00.978Z</time></trkpt><trkpt lat="44.6181277" lon="10.6178957"><ele>134.0</ele><time>2026-04-19T14:56:01.978Z</time></trkpt><trkpt lat="44.6180572" lon="10.6180954"><ele>132.33333333333331</ele><time>2026-04-19T14:56:02.979Z</time></trkpt><trkpt lat="44.617984" lon="10.6183025"><ele>130.66666666666666</ele><time>2026-04-19T14:56:03.979Z</time></trkpt><trkpt lat="44.6179092" lon="10.6185087"><ele>129.0</ele><time>2026-04-19T14:56:04.978Z</time></trkpt><trkpt lat="44.617832" lon="10.6187127"><ele>127.0</ele><time>2026-04-19T14:56:05.978Z</time></trkpt><trkpt lat="44.6177561" lon="10.6189125"><ele>125.0</ele><time>2026-04-19T14:56:06.979Z</time></trkpt><trkpt lat="44.61768" lon="10.6191173"><ele>123.0</ele><time>2026-04-19T14:56:07.978Z</time></trkpt><trkpt lat="44.6176049" lon="10.6193272"><ele>123.66666666666666</ele><time>2026-04-19T14:56:08.978Z</time></trkpt><trkpt lat="44.6175291" lon="10.6195392"><ele>124.33333333333333</ele><time>2026-04-19T14:56:09.978Z</time></trkpt><trkpt lat="44.6174524" lon="10.6197435"><ele>125.0</ele><time>2026-04-19T14:56:10.978Z</time></trkpt><trkpt lat="44.6173742" lon="10.6199412"><ele>125.0</ele><time>2026-04-19T14:56:11.978Z</time></trkpt><trkpt lat="44.6172934" lon="10.6201283"><ele>125.0</ele><time>2026-04-19T14:56:12.978Z</time></trkpt><trkpt lat="44.6172014" lon="10.6203061"><ele>125.0</ele><time>2026-04-19T14:56:13.978Z</time></trkpt><trkpt lat="44.6171067" lon="10.6204578"><ele>125.33333333333333</ele><time>2026-04-19T14:56:14.979Z</time></trkpt><trkpt lat="44.6169999" lon="10.620599"><ele>125.66666666666666</ele><time>2026-04-19T14:56:15.979Z</time></trkpt><trkpt lat="44.6168739" lon="10.6207251"><ele>126.0</ele><time>2026-04-19T14:56:16.978Z</time></trkpt><trkpt lat="44.6167294" lon="10.6208422"><ele>128.0</ele><time>2026-04-19T14:56:17.978Z</time></trkpt><trkpt lat="44.6165864" lon="10.6209444"><ele>130.0</ele><time>2026-04-19T14:56:18.978Z</time></trkpt><trkpt lat="44.6164477" lon="10.6210418"><ele>132.0</ele><time>2026-04-19T14:56:19.978Z</time></trkpt><trkpt lat="44.6163073" lon="10.6211421"><ele>132.66666666666666</ele><time>2026-04-19T14:56:20.977Z</time></trkpt><trkpt lat="44.6161649" lon="10.6212418"><ele>133.33333333333331</ele><time>2026-04-19T14:56:21.979Z</time></trkpt><trkpt lat="44.6160202" lon="10.6213389"><ele>134.0</ele><time>2026-04-19T14:56:22.979Z</time></trkpt><trkpt lat="44.6158864" lon="10.6214289"><ele>135.0</ele><time>2026-04-19T14:56:23.978Z</time></trkpt><trkpt lat="44.6157571" lon="10.6215201"><ele>136.0</ele><time>2026-04-19T14:56:24.977Z</time></trkpt><trkpt lat="44.6156309" lon="10.6216189"><ele>137.0</ele><time>2026-04-19T14:56:25.979Z</time></trkpt><trkpt lat="44.6155171" lon="10.6217304"><ele>138.0</ele><time>2026-04-19T14:56:26.977Z</time></trkpt><trkpt lat="44.6154102" lon="10.6218582"><ele>139.25</ele><time>2026-04-19T14:56:27.979Z</time></trkpt><trkpt lat="44.6153123" lon="10.6219977"><ele>140.5</ele><time>2026-04-19T14:56:28.977Z</time></trkpt><trkpt lat="44.6152296" lon="10.6221431"><ele>141.75</ele><time>2026-04-19T14:56:29.978Z</time></trkpt><trkpt lat="44.6151531" lon="10.622298"><ele>143.0</ele><time>2026-04-19T14:56:30.979Z</time></trkpt><trkpt lat="44.6150844" lon="10.6224668"><ele>143.0</ele><time>2026-04-19T14:56:31.978Z</time></trkpt><trkpt lat="44.6150226" lon="10.6226463"><ele>143.0</ele><time>2026-04-19T14:56:32.979Z</time></trkpt><trkpt lat="44.6149702" lon="10.6228338"><ele>143.0</ele><time>2026-04-19T14:56:33.977Z</time></trkpt><trkpt lat="44.6149183" lon="10.6230229"><ele>143.0</ele><time>2026-04-19T14:56:34.978Z</time></trkpt><trkpt lat="44.6148656" lon="10.6232148"><ele>143.33333333333331</ele><time>2026-04-19T14:56:35.978Z</time></trkpt><trkpt lat="44.6148111" lon="10.623415"><ele>143.66666666666666</ele><time>2026-04-19T14:56:36.978Z</time></trkpt><trkpt lat="44.6147543" lon="10.6236256"><ele>144.0</ele><time>2026-04-19T14:56:37.979Z</time></trkpt><trkpt lat="44.6146937" lon="10.6238433"><ele>143.33333333333334</ele><time>2026-04-19T14:56:38.978Z</time></trkpt><trkpt lat="44.6146338" lon="10.6240574"><ele>142.66666666666669</ele><time>2026-04-19T14:56:39.979Z</time></trkpt><trkpt lat="44.6145735" lon="10.6242783"><ele>142.0</ele><time>2026-04-19T14:56:40.977Z</time></trkpt><trkpt lat="44.6145108" lon="10.6244994"><ele>143.0</ele><time>2026-04-19T14:56:41.979Z</time></trkpt><trkpt lat="44.6144496" lon="10.6247157"><ele>144.0</ele><time>2026-04-19T14:56:42.979Z</time></trkpt><trkpt lat="44.6143919" lon="10.6249228"><ele>145.0</ele><time>2026-04-19T14:56:43.978Z</time></trkpt><trkpt lat="44.6143351" lon="10.6251293"><ele>144.33333333333334</ele><time>2026-04-19T14:56:44.978Z</time></trkpt><trkpt lat="44.6142797" lon="10.625329"><ele>143.66666666666666</ele><time>2026-04-19T14:56:45.978Z</time></trkpt><trkpt lat="44.6142243" lon="10.6255286"><ele>143.0</ele><time>2026-04-19T14:56:46.978Z</time></trkpt><trkpt lat="44.6141736" lon="10.6257233"><ele>143.0</ele><time>2026-04-19T14:56:47.978Z</time></trkpt><trkpt lat="44.6141307" lon="10.6259133"><ele>143.0</ele><time>2026-04-19T14:56:48.979Z</time></trkpt><trkpt lat="44.6140967" lon="10.6260942"><ele>143.0</ele><time>2026-04-19T14:56:49.979Z</time></trkpt><trkpt lat="44.6140735" lon="10.6262772"><ele>143.0</ele><time>2026-04-19T14:56:50.978Z</time></trkpt><trkpt lat="44.6140623" lon="10.6264627"><ele>142.75</ele><time>2026-04-19T14:56:51.979Z</time></trkpt><trkpt lat="44.6140649" lon="10.6266441"><ele>142.5</ele><time>2026-04-19T14:56:52.979Z</time></trkpt><trkpt lat="44.6140861" lon="10.626836"><ele>142.25</ele><time>2026-04-19T14:56:53.978Z</time></trkpt><trkpt lat="44.6141195" lon="10.627034"><ele>142.0</ele><time>2026-04-19T14:56:54.978Z</time></trkpt><trkpt lat="44.6141652" lon="10.627237"><ele>142.0</ele><time>2026-04-19T14:56:55.979Z</time></trkpt><trkpt lat="44.6142217" lon="10.6274478"><ele>142.0</ele><time>2026-04-19T14:56:56.978Z</time></trkpt><trkpt lat="44.6142818" lon="10.6276461"><ele>142.0</ele><time>2026-04-19T14:56:57.978Z</time></trkpt><trkpt lat="44.6143386" lon="10.6278386"><ele>141.25</ele><time>2026-04-19T14:56:58.978Z</time></trkpt><trkpt lat="44.6143927" lon="10.628027"><ele>140.5</ele><time>2026-04-19T14:56:59.978Z</time></trkpt><trkpt lat="44.6144453" lon="10.6282126"><ele>139.75</ele><time>2026-04-19T14:57:00.978Z</time></trkpt><trkpt lat="44.6144954" lon="10.6284021"><ele>139.0</ele><time>2026-04-19T14:57:01.978Z</time></trkpt><trkpt lat="44.6145294" lon="10.6286056"><ele>137.5</ele><time>2026-04-19T14:57:02.979Z</time></trkpt><trkpt lat="44.6145476" lon="10.628808"><ele>136.0</ele><time>2026-04-19T14:57:03.978Z</time></trkpt><trkpt lat="44.6145522" lon="10.629016"><ele>134.5</ele><time>2026-04-19T14:57:04.978Z</time></trkpt><trkpt lat="44.6145384" lon="10.6292227"><ele>133.0</ele><time>2026-04-19T14:57:05.979Z</time></trkpt><trkpt lat="44.6145048" lon="10.6294226"><ele>132.33333333333334</ele><time>2026-04-19T14:57:06.979Z</time></trkpt><trkpt lat="44.6144516" lon="10.6296203"><ele>131.66666666666666</ele><time>2026-04-19T14:57:07.979Z</time></trkpt><trkpt lat="44.614378" lon="10.6298057"><ele>131.0</ele><time>2026-04-19T14:57:08.979Z</time></trkpt><trkpt lat="44.6142822" lon="10.6299911"><ele>131.0</ele><time>2026-04-19T14:57:09.979Z</time></trkpt><trkpt lat="44.6141665" lon="10.6301815"><ele>131.0</ele><time>2026-04-19T14:57:10.978Z</time></trkpt><trkpt lat="44.6140454" lon="10.6303687"><ele>131.0</ele><time>2026-04-19T14:57:11.978Z</time></trkpt><trkpt lat="44.6139238" lon="10.6305464"><ele>128.66666666666666</ele><time>2026-04-19T14:57:12.979Z</time></trkpt><trkpt lat="44.6137963" lon="10.6307262"><ele>126.33333333333334</ele><time>2026-04-19T14:57:13.979Z</time></trkpt><trkpt lat="44.6136659" lon="10.6309124"><ele>124.0</ele><time>2026-04-19T14:57:14.979Z</time></trkpt><trkpt lat="44.6135299" lon="10.6311084"><ele>122.66666666666667</ele><time>2026-04-19T14:57:15.978Z</time></trkpt><trkpt lat="44.6133926" lon="10.6313036"><ele>121.33333333333334</ele><time>2026-04-19T14:57:16.979Z</time></trkpt><trkpt lat="44.6132599" lon="10.6314885"><ele>120.0</ele><time>2026-04-19T14:57:17.979Z</time></trkpt><trkpt lat="44.6131261" lon="10.6316748"><ele>120.0</ele><time>2026-04-19T14:57:18.978Z</time></trkpt><trkpt lat="44.6129921" lon="10.6318617"><ele>120.0</ele><time>2026-04-19T14:57:19.977Z</time></trkpt><trkpt lat="44.612858" lon="10.6320471"><ele>120.0</ele><time>2026-04-19T14:57:20.977Z</time></trkpt><trkpt lat="44.612725" lon="10.6322303"><ele>122.0</ele><time>2026-04-19T14:57:21.979Z</time></trkpt><trkpt lat="44.6125898" lon="10.6324099"><ele>124.0</ele><time>2026-04-19T14:57:22.978Z</time></trkpt><trkpt lat="44.6124492" lon="10.632581"><ele>126.0</ele><time>2026-04-19T14:57:23.979Z</time></trkpt><trkpt lat="44.6123043" lon="10.632736"><ele>128.66666666666666</ele><time>2026-04-19T14:57:24.978Z</time></trkpt><trkpt lat="44.6121546" lon="10.6328793"><ele>131.33333333333331</ele><time>2026-04-19T14:57:25.979Z</time></trkpt><trkpt lat="44.6119984" lon="10.6330128"><ele>134.0</ele><time>2026-04-19T14:57:26.979Z</time></trkpt><trkpt lat="44.6118434" lon="10.6331406"><ele>134.33333333333331</ele><time>2026-04-19T14:57:27.978Z</time></trkpt><trkpt lat="44.6116959" lon="10.6332645"><ele>134.66666666666666</ele><time>2026-04-19T14:57:28.979Z</time></trkpt><trkpt lat="44.611552" lon="10.6333838"><ele>135.0</ele><time>2026-04-19T14:57:29.977Z</time></trkpt><trkpt lat="44.6114131" lon="10.6334954"><ele>135.0</ele><time>2026-04-19T14:57:30.978Z</time></trkpt><trkpt lat="44.611285" lon="10.6335997"><ele>135.0</ele><time>2026-04-19T14:57:31.977Z</time></trkpt><trkpt lat="44.611162" lon="10.6337006"><ele>135.0</ele><time>2026-04-19T14:57:32.978Z</time></trkpt><trkpt lat="44.6110401" lon="10.6338093"><ele>135.0</ele><time>2026-04-19T14:57:33.978Z</time></trkpt><trkpt lat="44.6109188" lon="10.6339313"><ele>135.75</ele><time>2026-04-19T14:57:34.978Z</time></trkpt><trkpt lat="44.6108077" lon="10.6340699"><ele>136.5</ele><time>2026-04-19T14:57:35.979Z</time></trkpt><trkpt lat="44.6107134" lon="10.6342265"><ele>137.25</ele><time>2026-04-19T14:57:36.978Z</time></trkpt><trkpt lat="44.6106268" lon="10.6343982"><ele>138.0</ele><time>2026-04-19T14:57:37.978Z</time></trkpt><trkpt lat="44.6105539" lon="10.6345818"><ele>139.0</ele><time>2026-04-19T14:57:38.979Z</time></trkpt><trkpt lat="44.6104976" lon="10.634774"><ele>140.0</ele><time>2026-04-19T14:57:39.978Z</time></trkpt><trkpt lat="44.6104522" lon="10.6349848"><ele>141.0</ele><time>2026-04-19T14:57:40.979Z</time></trkpt><trkpt lat="44.6104174" lon="10.6352144"><ele>140.75</ele><time>2026-04-19T14:57:41.979Z</time></trkpt><trkpt lat="44.6103955" lon="10.6354185"><ele>140.5</ele><time>2026-04-19T14:57:42.979Z</time></trkpt><trkpt lat="44.6103788" lon="10.6356236"><ele>140.25</ele><time>2026-04-19T14:57:43.979Z</time></trkpt><trkpt lat="44.6103646" lon="10.6358254"><ele>140.0</ele><time>2026-04-19T14:57:44.978Z</time></trkpt><trkpt lat="44.6103501" lon="10.636015"><ele>140.0</ele><time>2026-04-19T14:57:45.979Z</time></trkpt><trkpt lat="44.6103363" lon="10.6362073"><ele>140.0</ele><time>2026-04-19T14:57:46.979Z</time></trkpt><trkpt lat="44.6103188" lon="10.636399"><ele>140.0</ele><time>2026-04-19T14:57:47.979Z</time></trkpt><trkpt lat="44.6102937" lon="10.6365904"><ele>140.0</ele><time>2026-04-19T14:57:48.979Z</time></trkpt><trkpt lat="44.6102587" lon="10.636781"><ele>141.0</ele><time>2026-04-19T14:57:49.979Z</time></trkpt><trkpt lat="44.6102155" lon="10.6369596"><ele>142.0</ele><time>2026-04-19T14:57:50.979Z</time></trkpt><trkpt lat="44.6101649" lon="10.6371326"><ele>143.0</ele><time>2026-04-19T14:57:51.978Z</time></trkpt><trkpt lat="44.6101033" lon="10.6373087"><ele>144.0</ele><time>2026-04-19T14:57:52.978Z</time></trkpt><trkpt lat="44.6100344" lon="10.6374935"><ele>144.25</ele><time>2026-04-19T14:57:53.979Z</time></trkpt><trkpt lat="44.6099608" lon="10.6376805"><ele>144.5</ele><time>2026-04-19T14:57:54.978Z</time></trkpt><trkpt lat="44.6098893" lon="10.6378567"><ele>144.75</ele><time>2026-04-19T14:57:55.978Z</time></trkpt><trkpt lat="44.6098216" lon="10.63802"><ele>145.0</ele><time>2026-04-19T14:57:56.978Z</time></trkpt><trkpt lat="44.609757" lon="10.6381751"><ele>144.6</ele><time>2026-04-19T14:57:57.979Z</time></trkpt><trkpt lat="44.6096917" lon="10.6383237"><ele>144.2</ele><time>2026-04-19T14:57:58.978Z</time></trkpt><trkpt lat="44.6096265" lon="10.6384651"><ele>143.8</ele><time>2026-04-19T14:57:59.978Z</time></trkpt><trkpt lat="44.6095699" lon="10.6385817"><ele>143.4</ele><time>2026-04-19T14:58:00.978Z</time></trkpt><trkpt lat="44.6095176" lon="10.6386817"><ele>143.0</ele><time>2026-04-19T14:58:01.977Z</time></trkpt><trkpt lat="44.6094654" lon="10.6387676"><ele>142.66666666666666</ele><time>2026-04-19T14:58:02.978Z</time></trkpt><trkpt lat="44.6094057" lon="10.6388476"><ele>142.33333333333331</ele><time>2026-04-19T14:58:03.978Z</time></trkpt><trkpt lat="44.6093528" lon="10.6389315"><ele>142.0</ele><time>2026-04-19T14:58:04.979Z</time></trkpt><trkpt lat="44.6093149" lon="10.6390239"><ele>141.66666666666666</ele><time>2026-04-19T14:58:05.979Z</time></trkpt><trkpt lat="44.6092865" lon="10.639138"><ele>141.33333333333334</ele><time>2026-04-19T14:58:06.979Z</time></trkpt><trkpt lat="44.6092623" lon="10.6392746"><ele>141.0</ele><time>2026-04-19T14:58:07.979Z</time></trkpt><trkpt lat="44.6092304" lon="10.6394225"><ele>140.5</ele><time>2026-04-19T14:58:08.979Z</time></trkpt><trkpt lat="44.6091919" lon="10.6395827"><ele>140.0</ele><time>2026-04-19T14:58:09.979Z</time></trkpt><trkpt lat="44.6091441" lon="10.6397586"><ele>139.5</ele><time>2026-04-19T14:58:10.979Z</time></trkpt><trkpt lat="44.6090775" lon="10.63997"><ele>139.0</ele><time>2026-04-19T14:58:11.977Z</time></trkpt><trkpt lat="44.6090035" lon="10.6401925"><ele>138.33333333333334</ele><time>2026-04-19T14:58:12.979Z</time></trkpt><trkpt lat="44.6089173" lon="10.6404207"><ele>137.66666666666666</ele><time>2026-04-19T14:58:13.979Z</time></trkpt><trkpt lat="44.6088196" lon="10.6406644"><ele>137.0</ele><time>2026-04-19T14:58:14.979Z</time></trkpt><trkpt lat="44.6087135" lon="10.6409236"><ele>137.66666666666666</ele><time>2026-04-19T14:58:15.978Z</time></trkpt><trkpt lat="44.6086053" lon="10.6411869"><ele>138.33333333333334</ele><time>2026-04-19T14:58:16.977Z</time></trkpt><trkpt lat="44.6084916" lon="10.6414619"><ele>139.0</ele><time>2026-04-19T14:58:17.978Z</time></trkpt><trkpt lat="44.6083796" lon="10.641738"><ele>138.0</ele><time>2026-04-19T14:58:18.979Z</time></trkpt><trkpt lat="44.6082646" lon="10.6420252"><ele>137.0</ele><time>2026-04-19T14:58:19.977Z</time></trkpt><trkpt lat="44.6081467" lon="10.6423228"><ele>137.0</ele><time>2026-04-19T14:58:20.978Z</time></trkpt><trkpt lat="44.6080275" lon="10.6426247"><ele>137.0</ele><time>2026-04-19T14:58:21.978Z</time></trkpt><trkpt lat="44.6079136" lon="10.6429156"><ele>138.5</ele><time>2026-04-19T14:58:22.978Z</time></trkpt><trkpt lat="44.6078037" lon="10.6432054"><ele>140.0</ele><time>2026-04-19T14:58:23.979Z</time></trkpt><trkpt lat="44.6077013" lon="10.643485"><ele>139.66666666666666</ele><time>2026-04-19T14:58:24.979Z</time></trkpt><trkpt lat="44.6076093" lon="10.6437607"><ele>139.33333333333334</ele><time>2026-04-19T14:58:25.978Z</time></trkpt><trkpt lat="44.6075251" lon="10.6440458"><ele>139.0</ele><time>2026-04-19T14:58:26.978Z</time></trkpt><trkpt lat="44.6074513" lon="10.6443455"><ele>138.0</ele><time>2026-04-19T14:58:27.979Z</time></trkpt><trkpt lat="44.607387" lon="10.6446585"><ele>137.0</ele><time>2026-04-19T14:58:28.978Z</time></trkpt><trkpt lat="44.6073286" lon="10.6449824"><ele>136.0</ele><time>2026-04-19T14:58:29.979Z</time></trkpt><trkpt lat="44.6072703" lon="10.6453194"><ele>135.0</ele><time>2026-04-19T14:58:30.978Z</time></trkpt><trkpt lat="44.6072138" lon="10.6456526"><ele>135.0</ele><time>2026-04-19T14:58:31.979Z</time></trkpt><trkpt lat="44.6071613" lon="10.6459758"><ele>135.0</ele><time>2026-04-19T14:58:32.978Z</time></trkpt><trkpt lat="44.607112" lon="10.6462897"><ele>134.66666666666666</ele><time>2026-04-19T14:58:33.978Z</time></trkpt><trkpt lat="44.6070617" lon="10.6465954"><ele>134.33333333333331</ele><time>2026-04-19T14:58:34.978Z</time></trkpt><trkpt lat="44.607007" lon="10.6468975"><ele>134.0</ele><time>2026-04-19T14:58:35.979Z</time></trkpt><trkpt lat="44.6069487" lon="10.6471904"><ele>134.0</ele><time>2026-04-19T14:58:36.979Z</time></trkpt><trkpt lat="44.6068808" lon="10.6474783"><ele>134.0</ele><time>2026-04-19T14:58:37.979Z</time></trkpt><trkpt lat="44.606804" lon="10.6477578"><ele>134.0</ele><time>2026-04-19T14:58:38.978Z</time></trkpt><trkpt lat="44.6067198" lon="10.6480315"><ele>134.0</ele><time>2026-04-19T14:58:39.977Z</time></trkpt><trkpt lat="44.6066362" lon="10.6483021"><ele>134.0</ele><time>2026-04-19T14:58:40.978Z</time></trkpt><trkpt lat="44.6065559" lon="10.6485585"><ele>134.0</ele><time>2026-04-19T14:58:41.978Z</time></trkpt><trkpt lat="44.6064825" lon="10.6488149"><ele>133.66666666666666</ele><time>2026-04-19T14:58:42.979Z</time></trkpt><trkpt lat="44.6064273" lon="10.649067"><ele>133.33333333333334</ele><time>2026-04-19T14:58:43.978Z</time></trkpt><trkpt lat="44.6063889" lon="10.649325"><ele>133.0</ele><time>2026-04-19T14:58:44.978Z</time></trkpt><trkpt lat="44.6063693" lon="10.6495895"><ele>133.0</ele><time>2026-04-19T14:58:45.978Z</time></trkpt><trkpt lat="44.6063642" lon="10.649862"><ele>133.0</ele><time>2026-04-19T14:58:46.978Z</time></trkpt><trkpt lat="44.6063819" lon="10.6501576"><ele>133.0</ele><time>2026-04-19T14:58:47.978Z</time></trkpt><trkpt lat="44.6064032" lon="10.6504663"><ele>133.33333333333334</ele><time>2026-04-19T14:58:48.979Z</time></trkpt><trkpt lat="44.6064214" lon="10.6507625"><ele>133.66666666666666</ele><time>2026-04-19T14:58:49.978Z</time></trkpt><trkpt lat="44.6064417" lon="10.6510457"><ele>134.0</ele><time>2026-04-19T14:58:50.978Z</time></trkpt><trkpt lat="44.6064611" lon="10.6513167"><ele>134.0</ele><time>2026-04-19T14:58:51.978Z</time></trkpt><trkpt lat="44.6064804" lon="10.6515882"><ele>134.0</ele><time>2026-04-19T14:58:52.979Z</time></trkpt><trkpt lat="44.6064916" lon="10.6518558"><ele>134.0</ele><time>2026-04-19T14:58:53.979Z</time></trkpt><trkpt lat="44.6064885" lon="10.6521087"><ele>133.66666666666666</ele><time>2026-04-19T14:58:54.979Z</time></trkpt><trkpt lat="44.6064668" lon="10.65236"><ele>133.33333333333334</ele><time>2026-04-19T14:58:55.978Z</time></trkpt><trkpt lat="44.6064254" lon="10.6526094"><ele>133.0</ele><time>2026-04-19T14:58:56.978Z</time></trkpt><trkpt lat="44.6063751" lon="10.6528459"><ele>132.66666666666669</ele><time>2026-04-19T14:58:57.977Z</time></trkpt><trkpt lat="44.6063158" lon="10.6530747"><ele>132.33333333333334</ele><time>2026-04-19T14:58:58.978Z</time></trkpt><trkpt lat="44.6062499" lon="10.6533025"><ele>132.0</ele><time>2026-04-19T14:58:59.979Z</time></trkpt><trkpt lat="44.6061817" lon="10.6535235"><ele>132.33333333333334</ele><time>2026-04-19T14:59:00.979Z</time></trkpt><trkpt lat="44.6061167" lon="10.6537339"><ele>132.66666666666669</ele><time>2026-04-19T14:59:01.978Z</time></trkpt><trkpt lat="44.6060548" lon="10.6539341"><ele>133.0</ele><time>2026-04-19T14:59:02.977Z</time></trkpt><trkpt lat="44.6059943" lon="10.6541253"><ele>133.0</ele><time>2026-04-19T14:59:03.979Z</time></trkpt><trkpt lat="44.6059358" lon="10.6543084"><ele>133.0</ele><time>2026-04-19T14:59:04.979Z</time></trkpt><trkpt lat="44.6058796" lon="10.6544854"><ele>133.0</ele><time>2026-04-19T14:59:05.979Z</time></trkpt><trkpt lat="44.6058268" lon="10.654657"><ele>133.0</ele><time>2026-04-19T14:59:06.979Z</time></trkpt><trkpt lat="44.6057776" lon="10.6548141"><ele>132.75</ele><time>2026-04-19T14:59:07.978Z</time></trkpt><trkpt lat="44.6057278" lon="10.6549647"><ele>132.5</ele><time>2026-04-19T14:59:08.978Z</time></trkpt><trkpt lat="44.6056798" lon="10.6551078"><ele>132.25</ele><time>2026-04-19T14:59:09.978Z</time></trkpt><trkpt lat="44.6056333" lon="10.655253"><ele>132.0</ele><time>2026-04-19T14:59:10.979Z</time></trkpt><trkpt lat="44.6055827" lon="10.655412"><ele>131.5</ele><time>2026-04-19T14:59:11.978Z</time></trkpt><trkpt lat="44.6055292" lon="10.6555893"><ele>131.0</ele><time>2026-04-19T14:59:12.978Z</time></trkpt><trkpt lat="44.6054704" lon="10.6557773"><ele>130.5</ele><time>2026-04-19T14:59:13.979Z</time></trkpt><trkpt lat="44.6054133" lon="10.6559633"><ele>130.0</ele><time>2026-04-19T14:59:14.978Z</time></trkpt><trkpt lat="44.605362" lon="10.6561352"><ele>130.0</ele><time>2026-04-19T14:59:15.978Z</time></trkpt><trkpt lat="44.6053167" lon="10.6562892"><ele>130.0</ele><time>2026-04-19T14:59:16.978Z</time></trkpt><trkpt lat="44.6052705" lon="10.6564383"><ele>130.0</ele><time>2026-04-19T14:59:17.979Z</time></trkpt><trkpt lat="44.6052249" lon="10.6565798"><ele>130.0</ele><time>2026-04-19T14:59:18.978Z</time></trkpt><trkpt lat="44.6051791" lon="10.6567107"><ele>130.0</ele><time>2026-04-19T14:59:19.979Z</time></trkpt><trkpt lat="44.605133" lon="10.6568412"><ele>129.8</ele><time>2026-04-19T14:59:20.978Z</time></trkpt><trkpt lat="44.6050833" lon="10.6569744"><ele>129.6</ele><time>2026-04-19T14:59:21.978Z</time></trkpt><trkpt lat="44.6050383" lon="10.6570985"><ele>129.4</ele><time>2026-04-19T14:59:22.979Z</time></trkpt><trkpt lat="44.6050043" lon="10.657184"><ele>129.2</ele><time>2026-04-19T14:59:23.979Z</time></trkpt><trkpt lat="44.6049554" lon="10.657285"><ele>129.0</ele><time>2026-04-19T14:59:25.978Z</time></trkpt><trkpt lat="44.6048838" lon="10.6574269"><ele>129.0</ele><time>2026-04-19T14:59:27.977Z</time></trkpt><trkpt lat="44.604865" lon="10.6575259"><ele>129.0</ele><time>2026-04-19T14:59:28.979Z</time></trkpt><trkpt lat="44.604856" lon="10.657638"><ele>129.0</ele><time>2026-04-19T14:59:29.979Z</time></trkpt><trkpt lat="44.604838" lon="10.657767"><ele>129.0</ele><time>2026-04-19T14:59:30.977Z</time></trkpt><trkpt lat="44.6047957" lon="10.6579118"><ele>129.0</ele><time>2026-04-19T14:59:31.977Z</time></trkpt><trkpt lat="44.6047455" lon="10.6580599"><ele>128.75</ele><time>2026-04-19T14:59:32.979Z</time></trkpt><trkpt lat="44.6046765" lon="10.6582344"><ele>128.5</ele><time>2026-04-19T14:59:33.978Z</time></trkpt><trkpt lat="44.6046052" lon="10.6584182"><ele>128.25</ele><time>2026-04-19T14:59:34.979Z</time></trkpt><trkpt lat="44.604531" lon="10.6586134"><ele>128.0</ele><time>2026-04-19T14:59:35.979Z</time></trkpt><trkpt lat="44.6044485" lon="10.6588295"><ele>128.0</ele><time>2026-04-19T14:59:36.979Z</time></trkpt><trkpt lat="44.6043666" lon="10.6590421"><ele>128.0</ele><time>2026-04-19T14:59:37.979Z</time></trkpt><trkpt lat="44.6042786" lon="10.6592696"><ele>128.0</ele><time>2026-04-19T14:59:38.979Z</time></trkpt><trkpt lat="44.6041892" lon="10.6595018"><ele>127.66666666666666</ele><time>2026-04-19T14:59:39.978Z</time></trkpt><trkpt lat="44.6040986" lon="10.6597416"><ele>127.33333333333334</ele><time>2026-04-19T14:59:40.979Z</time></trkpt><trkpt lat="44.6040072" lon="10.6599823"><ele>127.0</ele><time>2026-04-19T14:59:41.978Z</time></trkpt><trkpt lat="44.6039205" lon="10.6602129"><ele>126.33333333333334</ele><time>2026-04-19T14:59:42.977Z</time></trkpt><trkpt lat="44.6038355" lon="10.6604365"><ele>125.66666666666666</ele><time>2026-04-19T14:59:43.978Z</time></trkpt><trkpt lat="44.6037529" lon="10.6606555"><ele>125.0</ele><time>2026-04-19T14:59:44.978Z</time></trkpt><trkpt lat="44.6036685" lon="10.6608777"><ele>125.33333333333333</ele><time>2026-04-19T14:59:45.979Z</time></trkpt><trkpt lat="44.6035823" lon="10.6610988"><ele>125.66666666666666</ele><time>2026-04-19T14:59:46.978Z</time></trkpt><trkpt lat="44.6034943" lon="10.661323"><ele>126.0</ele><time>2026-04-19T14:59:47.978Z</time></trkpt><trkpt lat="44.6034047" lon="10.6615553"><ele>126.0</ele><time>2026-04-19T14:59:48.978Z</time></trkpt><trkpt lat="44.6033148" lon="10.6617923"><ele>126.0</ele><time>2026-04-19T14:59:49.979Z</time></trkpt><trkpt lat="44.603223" lon="10.662034"><ele>126.0</ele><time>2026-04-19T14:59:50.978Z</time></trkpt><trkpt lat="44.6031304" lon="10.6622789"><ele>125.33333333333334</ele><time>2026-04-19T14:59:51.978Z</time></trkpt><trkpt lat="44.6030408" lon="10.6625249"><ele>124.66666666666667</ele><time>2026-04-19T14:59:52.978Z</time></trkpt><trkpt lat="44.6029544" lon="10.6627709"><ele>124.0</ele><time>2026-04-19T14:59:53.978Z</time></trkpt><trkpt lat="44.6028742" lon="10.6630052"><ele>123.33333333333334</ele><time>2026-04-19T14:59:54.978Z</time></trkpt><trkpt lat="44.602795" lon="10.6632347"><ele>122.66666666666666</ele><time>2026-04-19T14:59:55.978Z</time></trkpt><trkpt lat="44.6027162" lon="10.6634655"><ele>122.0</ele><time>2026-04-19T14:59:56.979Z</time></trkpt><trkpt lat="44.6026404" lon="10.6636961"><ele>121.0</ele><time>2026-04-19T14:59:57.978Z</time></trkpt><trkpt lat="44.6025661" lon="10.6639245"><ele>120.0</ele><time>2026-04-19T14:59:58.979Z</time></trkpt><trkpt lat="44.602493" lon="10.6641445"><ele>119.0</ele><time>2026-04-19T14:59:59.978Z</time></trkpt><trkpt lat="44.60242" lon="10.6643595"><ele>119.0</ele><time>2026-04-19T15:00:00.977Z</time></trkpt><trkpt lat="44.6023509" lon="10.6645676"><ele>119.0</ele><time>2026-04-19T15:00:01.979Z</time></trkpt><trkpt lat="44.602286" lon="10.6647713"><ele>119.0</ele><time>2026-04-19T15:00:02.978Z</time></trkpt><trkpt lat="44.6022195" lon="10.6649742"><ele>119.0</ele><time>2026-04-19T15:00:03.978Z</time></trkpt><trkpt lat="44.6021508" lon="10.6651737"><ele>119.0</ele><time>2026-04-19T15:00:04.979Z</time></trkpt><trkpt lat="44.6020802" lon="10.6653667"><ele>119.0</ele><time>2026-04-19T15:00:05.977Z</time></trkpt><trkpt lat="44.602005" lon="10.665556"><ele>119.66666666666666</ele><time>2026-04-19T15:00:06.978Z</time></trkpt><trkpt lat="44.6019181" lon="10.6657439"><ele>120.33333333333334</ele><time>2026-04-19T15:00:07.979Z</time></trkpt><trkpt lat="44.6018211" lon="10.6659267"><ele>121.0</ele><time>2026-04-19T15:00:08.979Z</time></trkpt><trkpt lat="44.6017146" lon="10.6660999"><ele>121.0</ele><time>2026-04-19T15:00:09.979Z</time></trkpt><trkpt lat="44.6016002" lon="10.6662604"><ele>121.0</ele><time>2026-04-19T15:00:10.978Z</time></trkpt><trkpt lat="44.6014794" lon="10.6663993"><ele>121.0</ele><time>2026-04-19T15:00:11.979Z</time></trkpt><trkpt lat="44.6013459" lon="10.6665239"><ele>121.0</ele><time>2026-04-19T15:00:12.979Z</time></trkpt><trkpt lat="44.6012034" lon="10.6666333"><ele>121.0</ele><time>2026-04-19T15:00:13.979Z</time></trkpt><trkpt lat="44.6010524" lon="10.6667321"><ele>121.0</ele><time>2026-04-19T15:00:14.978Z</time></trkpt><trkpt lat="44.6008955" lon="10.6668248"><ele>120.33333333333334</ele><time>2026-04-19T15:00:15.979Z</time></trkpt><trkpt lat="44.6007341" lon="10.6669152"><ele>119.66666666666666</ele><time>2026-04-19T15:00:16.978Z</time></trkpt><trkpt lat="44.6005718" lon="10.6670049"><ele>119.0</ele><time>2026-04-19T15:00:17.977Z</time></trkpt><trkpt lat="44.6004154" lon="10.6670902"><ele>118.0</ele><time>2026-04-19T15:00:18.979Z</time></trkpt><trkpt lat="44.6002599" lon="10.667175"><ele>117.0</ele><time>2026-04-19T15:00:19.978Z</time></trkpt><trkpt lat="44.6001031" lon="10.6672625"><ele>116.0</ele><time>2026-04-19T15:00:20.979Z</time></trkpt><trkpt lat="44.5999461" lon="10.6673506"><ele>116.0</ele><time>2026-04-19T15:00:21.979Z</time></trkpt><trkpt lat="44.5997876" lon="10.6674357"><ele>116.0</ele><time>2026-04-19T15:00:22.979Z</time></trkpt><trkpt lat="44.5996346" lon="10.6675169"><ele>116.0</ele><time>2026-04-19T15:00:23.979Z</time></trkpt><trkpt lat="44.5994836" lon="10.6675988"><ele>116.0</ele><time>2026-04-19T15:00:24.978Z</time></trkpt><trkpt lat="44.5993374" lon="10.6676819"><ele>116.0</ele><time>2026-04-19T15:00:25.978Z</time></trkpt><trkpt lat="44.5991955" lon="10.6677636"><ele>116.0</ele><time>2026-04-19T15:00:26.979Z</time></trkpt><trkpt lat="44.5990526" lon="10.6678517"><ele>116.0</ele><time>2026-04-19T15:00:27.979Z</time></trkpt><trkpt lat="44.5989127" lon="10.6679609"><ele>116.0</ele><time>2026-04-19T15:00:28.978Z</time></trkpt><trkpt lat="44.5987813" lon="10.6680793"><ele>116.0</ele><time>2026-04-19T15:00:29.978Z</time></trkpt><trkpt lat="44.5986604" lon="10.6682127"><ele>116.0</ele><time>2026-04-19T15:00:30.977Z</time></trkpt><trkpt lat="44.5985431" lon="10.6683673"><ele>116.0</ele><time>2026-04-19T15:00:31.978Z</time></trkpt><trkpt lat="44.5984385" lon="10.6685298"><ele>116.0</ele><time>2026-04-19T15:00:32.979Z</time></trkpt><trkpt lat="44.5983391" lon="10.668712"><ele>115.66666666666666</ele><time>2026-04-19T15:00:33.979Z</time></trkpt><trkpt lat="44.5982495" lon="10.6689116"><ele>115.33333333333334</ele><time>2026-04-19T15:00:34.979Z</time></trkpt><trkpt lat="44.59817" lon="10.6691254"><ele>115.0</ele><time>2026-04-19T15:00:35.979Z</time></trkpt><trkpt lat="44.5981024" lon="10.6693381"><ele>114.0</ele><time>2026-04-19T15:00:36.978Z</time></trkpt><trkpt lat="44.5980401" lon="10.6695496"><ele>113.0</ele><time>2026-04-19T15:00:37.978Z</time></trkpt><trkpt lat="44.5979806" lon="10.6697574"><ele>112.0</ele><time>2026-04-19T15:00:38.979Z</time></trkpt><trkpt lat="44.5979223" lon="10.6699596"><ele>112.0</ele><time>2026-04-19T15:00:39.979Z</time></trkpt><trkpt lat="44.5978648" lon="10.6701566"><ele>112.0</ele><time>2026-04-19T15:00:40.979Z</time></trkpt><trkpt lat="44.5978094" lon="10.6703489"><ele>112.0</ele><time>2026-04-19T15:00:41.979Z</time></trkpt><trkpt lat="44.5977557" lon="10.6705369"><ele>112.0</ele><time>2026-04-19T15:00:42.979Z</time></trkpt><trkpt lat="44.5977041" lon="10.6707185"><ele>111.0</ele><time>2026-04-19T15:00:43.978Z</time></trkpt><trkpt lat="44.5976586" lon="10.6708804"><ele>109.99999999999999</ele><time>2026-04-19T15:00:44.978Z</time></trkpt><trkpt lat="44.5976186" lon="10.6710284"><ele>108.99999999999999</ele><time>2026-04-19T15:00:45.979Z</time></trkpt><trkpt lat="44.5975816" lon="10.6711606"><ele>108.0</ele><time>2026-04-19T15:00:46.979Z</time></trkpt><trkpt lat="44.5975477" lon="10.6712755"><ele>107.0</ele><time>2026-04-19T15:00:47.978Z</time></trkpt><trkpt lat="44.5975154" lon="10.6713727"><ele>106.0</ele><time>2026-04-19T15:00:48.979Z</time></trkpt><trkpt lat="44.5974851" lon="10.6714603"><ele>104.99999999999999</ele><time>2026-04-19T15:00:49.978Z</time></trkpt><trkpt lat="44.5974541" lon="10.6715415"><ele>104.0</ele><time>2026-04-19T15:00:50.978Z</time></trkpt><trkpt lat="44.597383" lon="10.6716786"><ele>103.0</ele><time>2026-04-19T15:00:52.977Z</time></trkpt><trkpt lat="44.5972704" lon="10.6717857"><ele>102.0</ele><time>2026-04-19T15:00:54.978Z</time></trkpt><trkpt lat="44.5972" lon="10.6718406"><ele>102.0</ele><time>2026-04-19T15:00:55.978Z</time></trkpt><trkpt lat="44.5971433" lon="10.6718992"><ele>102.0</ele><time>2026-04-19T15:00:56.979Z</time></trkpt><trkpt lat="44.5970893" lon="10.6719703"><ele>102.0</ele><time>2026-04-19T15:00:57.978Z</time></trkpt><trkpt lat="44.5970533" lon="10.6720513"><ele>102.0</ele><time>2026-04-19T15:00:58.979Z</time></trkpt><trkpt lat="44.5970324" lon="10.6721468"><ele>102.0</ele><time>2026-04-19T15:00:59.978Z</time></trkpt><trkpt lat="44.5970279" lon="10.6722502"><ele>102.0</ele><time>2026-04-19T15:01:00.978Z</time></trkpt><trkpt lat="44.5970419" lon="10.6723508"><ele>102.0</ele><time>2026-04-19T15:01:01.979Z</time></trkpt><trkpt lat="44.5970681" lon="10.6724575"><ele>101.8</ele><time>2026-04-19T15:01:02.979Z</time></trkpt><trkpt lat="44.5970875" lon="10.6725703"><ele>101.6</ele><time>2026-04-19T15:01:03.977Z</time></trkpt><trkpt lat="44.5970915" lon="10.6726841"><ele>101.39999999999999</ele><time>2026-04-19T15:01:04.978Z</time></trkpt><trkpt lat="44.5970767" lon="10.6728189"><ele>101.19999999999999</ele><time>2026-04-19T15:01:05.977Z</time></trkpt><trkpt lat="44.5970468" lon="10.67297"><ele>101.0</ele><time>2026-04-19T15:01:06.979Z</time></trkpt><trkpt lat="44.5970077" lon="10.6731154"><ele>100.75</ele><time>2026-04-19T15:01:07.978Z</time></trkpt><trkpt lat="44.5969585" lon="10.6732742"><ele>100.5</ele><time>2026-04-19T15:01:08.978Z</time></trkpt><trkpt lat="44.5969051" lon="10.67344"><ele>100.25</ele><time>2026-04-19T15:01:09.979Z</time></trkpt><trkpt lat="44.5968474" lon="10.6736163"><ele>100.0</ele><time>2026-04-19T15:01:10.977Z</time></trkpt><trkpt lat="44.5967836" lon="10.6738048"><ele>99.0</ele><time>2026-04-19T15:01:11.978Z</time></trkpt><trkpt lat="44.5967171" lon="10.6739908"><ele>98.0</ele><time>2026-04-19T15:01:12.979Z</time></trkpt><trkpt lat="44.5966429" lon="10.6741856"><ele>97.0</ele><time>2026-04-19T15:01:13.978Z</time></trkpt><trkpt lat="44.5965671" lon="10.6743791"><ele>97.0</ele><time>2026-04-19T15:01:14.978Z</time></trkpt><trkpt lat="44.5964886" lon="10.6745721"><ele>97.0</ele><time>2026-04-19T15:01:15.977Z</time></trkpt><trkpt lat="44.5964054" lon="10.674766"><ele>97.0</ele><time>2026-04-19T15:01:16.978Z</time></trkpt><trkpt lat="44.596319" lon="10.67496"><ele>97.0</ele><time>2026-04-19T15:01:17.979Z</time></trkpt><trkpt lat="44.5962258" lon="10.6751633"><ele>97.0</ele><time>2026-04-19T15:01:18.979Z</time></trkpt><trkpt lat="44.5961288" lon="10.6753732"><ele>97.0</ele><time>2026-04-19T15:01:19.979Z</time></trkpt><trkpt lat="44.5960287" lon="10.6755846"><ele>96.66666666666667</ele><time>2026-04-19T15:01:20.978Z</time></trkpt><trkpt lat="44.5959225" lon="10.6758049"><ele>96.33333333333334</ele><time>2026-04-19T15:01:21.978Z</time></trkpt><trkpt lat="44.5958157" lon="10.6760268"><ele>96.0</ele><time>2026-04-19T15:01:22.979Z</time></trkpt><trkpt lat="44.5957136" lon="10.6762396"><ele>95.33333333333333</ele><time>2026-04-19T15:01:23.979Z</time></trkpt><trkpt lat="44.5956106" lon="10.6764539"><ele>94.66666666666666</ele><time>2026-04-19T15:01:24.977Z</time></trkpt><trkpt lat="44.5955086" lon="10.6766679"><ele>94.0</ele><time>2026-04-19T15:01:25.979Z</time></trkpt><trkpt lat="44.5954051" lon="10.6768811"><ele>94.66666666666666</ele><time>2026-04-19T15:01:26.978Z</time></trkpt><trkpt lat="44.5953051" lon="10.6770894"><ele>95.33333333333333</ele><time>2026-04-19T15:01:27.978Z</time></trkpt><trkpt lat="44.595205" lon="10.6772965"><ele>96.0</ele><time>2026-04-19T15:01:28.978Z</time></trkpt><trkpt lat="44.5951081" lon="10.6774961"><ele>96.0</ele><time>2026-04-19T15:01:29.978Z</time></trkpt><trkpt lat="44.5950123" lon="10.6776953"><ele>96.0</ele><time>2026-04-19T15:01:30.979Z</time></trkpt><trkpt lat="44.5949242" lon="10.67788"><ele>96.0</ele><time>2026-04-19T15:01:31.978Z</time></trkpt><trkpt lat="44.5948439" lon="10.6780458"><ele>96.0</ele><time>2026-04-19T15:01:32.978Z</time></trkpt><trkpt lat="44.5947767" lon="10.678187"><ele>96.0</ele><time>2026-04-19T15:01:33.979Z</time></trkpt><trkpt lat="44.5947169" lon="10.6783126"><ele>96.0</ele><time>2026-04-19T15:01:34.978Z</time></trkpt><trkpt lat="44.5946632" lon="10.6784203"><ele>96.0</ele><time>2026-04-19T15:01:35.977Z</time></trkpt><trkpt lat="44.5946117" lon="10.6785117"><ele>96.0</ele><time>2026-04-19T15:01:36.978Z</time></trkpt><trkpt lat="44.5945556" lon="10.6785825"><ele>96.66666666666667</ele><time>2026-04-19T15:01:37.977Z</time></trkpt><trkpt lat="44.5944964" lon="10.6786347"><ele>97.33333333333334</ele><time>2026-04-19T15:01:38.979Z</time></trkpt><trkpt lat="44.5944297" lon="10.6786638"><ele>98.0</ele><time>2026-04-19T15:01:39.979Z</time></trkpt><trkpt lat="44.5943587" lon="10.6786749"><ele>98.66666666666667</ele><time>2026-04-19T15:01:40.979Z</time></trkpt><trkpt lat="44.5942805" lon="10.6786709"><ele>99.33333333333334</ele><time>2026-04-19T15:01:41.978Z</time></trkpt><trkpt lat="44.594199" lon="10.6786647"><ele>100.0</ele><time>2026-04-19T15:01:42.979Z</time></trkpt><trkpt lat="44.5941177" lon="10.6786775"><ele>100.00000000000001</ele><time>2026-04-19T15:01:43.978Z</time></trkpt><trkpt lat="44.5940402" lon="10.6787077"><ele>100.0</ele><time>2026-04-19T15:01:44.979Z</time></trkpt><trkpt lat="44.593971" lon="10.6787611"><ele>100.0</ele><time>2026-04-19T15:01:45.979Z</time></trkpt><trkpt lat="44.5939116" lon="10.6788399"><ele>100.0</ele><time>2026-04-19T15:01:46.978Z</time></trkpt><trkpt lat="44.5938749" lon="10.6789428"><ele>100.00000000000001</ele><time>2026-04-19T15:01:47.979Z</time></trkpt><trkpt lat="44.5938566" lon="10.6790744"><ele>100.0</ele><time>2026-04-19T15:01:48.978Z</time></trkpt><trkpt lat="44.5938578" lon="10.6792221"><ele>100.0</ele><time>2026-04-19T15:01:49.979Z</time></trkpt><trkpt lat="44.5938576" lon="10.6793664"><ele>100.0</ele><time>2026-04-19T15:01:50.979Z</time></trkpt><trkpt lat="44.5938417" lon="10.6795092"><ele>100.0</ele><time>2026-04-19T15:01:51.978Z</time></trkpt><trkpt lat="44.5938088" lon="10.6796545"><ele>100.0</ele><time>2026-04-19T15:01:52.979Z</time></trkpt><trkpt lat="44.5937629" lon="10.6798036"><ele>100.0</ele><time>2026-04-19T15:01:53.979Z</time></trkpt><trkpt lat="44.593701" lon="10.6799649"><ele>100.25</ele><time>2026-04-19T15:01:54.979Z</time></trkpt><trkpt lat="44.5936324" lon="10.6801459"><ele>100.5</ele><time>2026-04-19T15:01:55.978Z</time></trkpt><trkpt lat="44.5935748" lon="10.6803223"><ele>100.75</ele><time>2026-04-19T15:01:56.979Z</time></trkpt><trkpt lat="44.5935206" lon="10.6805131"><ele>101.0</ele><time>2026-04-19T15:01:57.977Z</time></trkpt><trkpt lat="44.593469" lon="10.6807115"><ele>101.33333333333333</ele><time>2026-04-19T15:01:58.979Z</time></trkpt><trkpt lat="44.5934116" lon="10.6809105"><ele>101.66666666666666</ele><time>2026-04-19T15:01:59.978Z</time></trkpt><trkpt lat="44.5933431" lon="10.6811098"><ele>102.0</ele><time>2026-04-19T15:02:00.978Z</time></trkpt><trkpt lat="44.5932656" lon="10.6813013"><ele>102.0</ele><time>2026-04-19T15:02:01.979Z</time></trkpt><trkpt lat="44.5931802" lon="10.6814936"><ele>102.0</ele><time>2026-04-19T15:02:02.978Z</time></trkpt><trkpt lat="44.5930895" lon="10.6816927"><ele>102.0</ele><time>2026-04-19T15:02:03.979Z</time></trkpt><trkpt lat="44.5929923" lon="10.6818961"><ele>103.0</ele><time>2026-04-19T15:02:04.978Z</time></trkpt><trkpt lat="44.5928917" lon="10.6821025"><ele>104.0</ele><time>2026-04-19T15:02:05.979Z</time></trkpt><trkpt lat="44.5927944" lon="10.6823069"><ele>105.0</ele><time>2026-04-19T15:02:06.979Z</time></trkpt><trkpt lat="44.5926977" lon="10.6825162"><ele>106.0</ele><time>2026-04-19T15:02:07.979Z</time></trkpt><trkpt lat="44.5925975" lon="10.6827282"><ele>107.0</ele><time>2026-04-19T15:02:08.978Z</time></trkpt><trkpt lat="44.5924975" lon="10.6829311"><ele>108.0</ele><time>2026-04-19T15:02:09.979Z</time></trkpt><trkpt lat="44.592398" lon="10.6831349"><ele>108.0</ele><time>2026-04-19T15:02:10.978Z</time></trkpt><trkpt lat="44.592299" lon="10.6833389"><ele>108.0</ele><time>2026-04-19T15:02:11.979Z</time></trkpt><trkpt lat="44.5922028" lon="10.6835359"><ele>108.0</ele><time>2026-04-19T15:02:12.978Z</time></trkpt><trkpt lat="44.5921075" lon="10.6837303"><ele>109.0</ele><time>2026-04-19T15:02:13.978Z</time></trkpt><trkpt lat="44.5920116" lon="10.6839288"><ele>110.0</ele><time>2026-04-19T15:02:14.978Z</time></trkpt><trkpt lat="44.5919151" lon="10.6841319"><ele>111.0</ele><time>2026-04-19T15:02:15.979Z</time></trkpt><trkpt lat="44.5918208" lon="10.6843432"><ele>112.0</ele><time>2026-04-19T15:02:16.978Z</time></trkpt><trkpt lat="44.5917336" lon="10.6845664"><ele>113.0</ele><time>2026-04-19T15:02:17.978Z</time></trkpt><trkpt lat="44.5916519" lon="10.6847935"><ele>114.0</ele><time>2026-04-19T15:02:18.979Z</time></trkpt><trkpt lat="44.5915803" lon="10.6850132"><ele>114.0</ele><time>2026-04-19T15:02:19.978Z</time></trkpt><trkpt lat="44.5915121" lon="10.6852475"><ele>114.0</ele><time>2026-04-19T15:02:20.979Z</time></trkpt><trkpt lat="44.5914496" lon="10.6854861"><ele>114.0</ele><time>2026-04-19T15:02:21.979Z</time></trkpt><trkpt lat="44.5913998" lon="10.6857231"><ele>114.33333333333334</ele><time>2026-04-19T15:02:22.979Z</time></trkpt><trkpt lat="44.5913542" lon="10.6859628"><ele>114.66666666666667</ele><time>2026-04-19T15:02:23.978Z</time></trkpt><trkpt lat="44.5913152" lon="10.6862065"><ele>115.0</ele><time>2026-04-19T15:02:24.979Z</time></trkpt><trkpt lat="44.5912839" lon="10.6864445"><ele>115.0</ele><time>2026-04-19T15:02:25.978Z</time></trkpt><trkpt lat="44.5912588" lon="10.6866861"><ele>115.0</ele><time>2026-04-19T15:02:26.978Z</time></trkpt><trkpt lat="44.5912396" lon="10.6869308"><ele>115.0</ele><time>2026-04-19T15:02:27.978Z</time></trkpt><trkpt lat="44.5912196" lon="10.6871768"><ele>115.0</ele><time>2026-04-19T15:02:28.978Z</time></trkpt><trkpt lat="44.5912146" lon="10.6874178"><ele>115.0</ele><time>2026-04-19T15:02:29.979Z</time></trkpt><trkpt lat="44.59121" lon="10.6876577"><ele>115.0</ele><time>2026-04-19T15:02:30.978Z</time></trkpt><trkpt lat="44.5912118" lon="10.6878926"><ele>115.0</ele><time>2026-04-19T15:02:31.979Z</time></trkpt><trkpt lat="44.5912131" lon="10.6881271"><ele>115.0</ele><time>2026-04-19T15:02:32.978Z</time></trkpt><trkpt lat="44.5912162" lon="10.6883567"><ele>115.0</ele><time>2026-04-19T15:02:33.979Z</time></trkpt><trkpt lat="44.5912172" lon="10.6885776"><ele>114.33333333333334</ele><time>2026-04-19T15:02:34.979Z</time></trkpt><trkpt lat="44.5912189" lon="10.6888077"><ele>113.66666666666666</ele><time>2026-04-19T15:02:35.977Z</time></trkpt><trkpt lat="44.5912237" lon="10.6890429"><ele>113.0</ele><time>2026-04-19T15:02:36.979Z</time></trkpt><trkpt lat="44.5912292" lon="10.6892799"><ele>112.33333333333333</ele><time>2026-04-19T15:02:37.978Z</time></trkpt><trkpt lat="44.5912355" lon="10.6895026"><ele>111.66666666666666</ele><time>2026-04-19T15:02:38.979Z</time></trkpt><trkpt lat="44.5912409" lon="10.6897377"><ele>111.0</ele><time>2026-04-19T15:02:39.979Z</time></trkpt><trkpt lat="44.5912415" lon="10.6899691"><ele>111.0</ele><time>2026-04-19T15:02:40.978Z</time></trkpt><trkpt lat="44.5912427" lon="10.6902062"><ele>111.0</ele><time>2026-04-19T15:02:41.979Z</time></trkpt><trkpt lat="44.5912452" lon="10.6904456"><ele>111.0</ele><time>2026-04-19T15:02:42.979Z</time></trkpt><trkpt lat="44.5912476" lon="10.6906889"><ele>111.0</ele><time>2026-04-19T15:02:43.978Z</time></trkpt><trkpt lat="44.5912488" lon="10.6909251"><ele>111.0</ele><time>2026-04-19T15:02:44.979Z</time></trkpt><trkpt lat="44.5912489" lon="10.6911622"><ele>111.0</ele><time>2026-04-19T15:02:45.978Z</time></trkpt><trkpt lat="44.5912502" lon="10.6913955"><ele>110.33333333333334</ele><time>2026-04-19T15:02:46.978Z</time></trkpt><trkpt lat="44.5912533" lon="10.6916245"><ele>109.66666666666667</ele><time>2026-04-19T15:02:47.978Z</time></trkpt><trkpt lat="44.5912556" lon="10.691857"><ele>109.0</ele><time>2026-04-19T15:02:48.978Z</time></trkpt><trkpt lat="44.5912575" lon="10.6920894"><ele>109.0</ele><time>2026-04-19T15:02:49.978Z</time></trkpt><trkpt lat="44.5912596" lon="10.6923223"><ele>109.0</ele><time>2026-04-19T15:02:50.978Z</time></trkpt><trkpt lat="44.5912616" lon="10.69255"><ele>109.0</ele><time>2026-04-19T15:02:51.979Z</time></trkpt><trkpt lat="44.5912634" lon="10.6927818"><ele>109.0</ele><time>2026-04-19T15:02:52.978Z</time></trkpt><trkpt lat="44.5912647" lon="10.6930154"><ele>109.0</ele><time>2026-04-19T15:02:53.978Z</time></trkpt><trkpt lat="44.5912653" lon="10.6932531"><ele>109.0</ele><time>2026-04-19T15:02:54.979Z</time></trkpt><trkpt lat="44.5912643" lon="10.6934947"><ele>108.66666666666667</ele><time>2026-04-19T15:02:55.978Z</time></trkpt><trkpt lat="44.5912646" lon="10.693737"><ele>108.33333333333334</ele><time>2026-04-19T15:02:56.978Z</time></trkpt><trkpt lat="44.5912658" lon="10.693978"><ele>108.0</ele><time>2026-04-19T15:02:57.979Z</time></trkpt><trkpt lat="44.5912686" lon="10.6942186"><ele>107.33333333333334</ele><time>2026-04-19T15:02:58.978Z</time></trkpt><trkpt lat="44.5912727" lon="10.6944563"><ele>106.66666666666667</ele><time>2026-04-19T15:02:59.979Z</time></trkpt><trkpt lat="44.5912749" lon="10.6946932"><ele>106.0</ele><time>2026-04-19T15:03:00.978Z</time></trkpt><trkpt lat="44.5912776" lon="10.6949248"><ele>106.0</ele><time>2026-04-19T15:03:01.977Z</time></trkpt><trkpt lat="44.5912788" lon="10.695156"><ele>106.0</ele><time>2026-04-19T15:03:02.979Z</time></trkpt><trkpt lat="44.5912798" lon="10.6953895"><ele>106.0</ele><time>2026-04-19T15:03:03.979Z</time></trkpt><trkpt lat="44.5912808" lon="10.6956311"><ele>106.0</ele><time>2026-04-19T15:03:04.977Z</time></trkpt><trkpt lat="44.5912816" lon="10.6958813"><ele>106.0</ele><time>2026-04-19T15:03:05.979Z</time></trkpt><trkpt lat="44.5912824" lon="10.6961378"><ele>106.0</ele><time>2026-04-19T15:03:06.978Z</time></trkpt><trkpt lat="44.5912841" lon="10.6963883"><ele>106.0</ele><time>2026-04-19T15:03:07.978Z</time></trkpt><trkpt lat="44.5912861" lon="10.6966309"><ele>106.0</ele><time>2026-04-19T15:03:08.978Z</time></trkpt><trkpt lat="44.5912871" lon="10.6968769"><ele>106.0</ele><time>2026-04-19T15:03:09.979Z</time></trkpt><trkpt lat="44.5912879" lon="10.6971225"><ele>106.0</ele><time>2026-04-19T15:03:10.978Z</time></trkpt><trkpt lat="44.5912928" lon="10.6973709"><ele>106.0</ele><time>2026-04-19T15:03:11.979Z</time></trkpt><trkpt lat="44.5913013" lon="10.6976198"><ele>106.0</ele><time>2026-04-19T15:03:12.978Z</time></trkpt><trkpt lat="44.5913123" lon="10.6978615"><ele>105.66666666666667</ele><time>2026-04-19T15:03:13.978Z</time></trkpt><trkpt lat="44.5913234" lon="10.6981059"><ele>105.33333333333334</ele><time>2026-04-19T15:03:14.978Z</time></trkpt><trkpt lat="44.5913379" lon="10.6983518"><ele>105.0</ele><time>2026-04-19T15:03:15.978Z</time></trkpt><trkpt lat="44.5913593" lon="10.6985972"><ele>104.33333333333334</ele><time>2026-04-19T15:03:16.978Z</time></trkpt><trkpt lat="44.5913863" lon="10.6988431"><ele>103.66666666666667</ele><time>2026-04-19T15:03:17.979Z</time></trkpt><trkpt lat="44.591417" lon="10.6990902"><ele>103.0</ele><time>2026-04-19T15:03:18.979Z</time></trkpt><trkpt lat="44.5914507" lon="10.6993374"><ele>102.66666666666667</ele><time>2026-04-19T15:03:19.978Z</time></trkpt><trkpt lat="44.5914845" lon="10.6995718"><ele>102.33333333333334</ele><time>2026-04-19T15:03:20.979Z</time></trkpt><trkpt lat="44.5915208" lon="10.6998072"><ele>102.0</ele><time>2026-04-19T15:03:21.977Z</time></trkpt><trkpt lat="44.5915619" lon="10.700036"><ele>101.66666666666666</ele><time>2026-04-19T15:03:22.978Z</time></trkpt><trkpt lat="44.5916055" lon="10.7002608"><ele>101.33333333333333</ele><time>2026-04-19T15:03:23.979Z</time></trkpt><trkpt lat="44.5916522" lon="10.7004873"><ele>101.0</ele><time>2026-04-19T15:03:24.978Z</time></trkpt><trkpt lat="44.5917024" lon="10.7007117"><ele>101.0</ele><time>2026-04-19T15:03:25.977Z</time></trkpt><trkpt lat="44.5917571" lon="10.7009369"><ele>101.0</ele><time>2026-04-19T15:03:26.977Z</time></trkpt><trkpt lat="44.5918123" lon="10.7011543"><ele>101.0</ele><time>2026-04-19T15:03:27.976Z</time></trkpt><trkpt lat="44.5918699" lon="10.7013696"><ele>100.66666666666666</ele><time>2026-04-19T15:03:28.978Z</time></trkpt><trkpt lat="44.5919296" lon="10.7015862"><ele>100.33333333333334</ele><time>2026-04-19T15:03:29.978Z</time></trkpt><trkpt lat="44.5919891" lon="10.7017952"><ele>100.0</ele><time>2026-04-19T15:03:30.978Z</time></trkpt><trkpt lat="44.5920472" lon="10.7020003"><ele>99.75</ele><time>2026-04-19T15:03:31.978Z</time></trkpt><trkpt lat="44.5921052" lon="10.7021974"><ele>99.5</ele><time>2026-04-19T15:03:32.978Z</time></trkpt><trkpt lat="44.5921589" lon="10.7023852"><ele>99.25</ele><time>2026-04-19T15:03:33.977Z</time></trkpt><trkpt lat="44.5922092" lon="10.7025652"><ele>99.0</ele><time>2026-04-19T15:03:34.977Z</time></trkpt><trkpt lat="44.5922543" lon="10.7027243"><ele>98.83333333333333</ele><time>2026-04-19T15:03:35.977Z</time></trkpt><trkpt lat="44.592291" lon="10.7028614"><ele>98.66666666666666</ele><time>2026-04-19T15:03:36.977Z</time></trkpt><trkpt lat="44.5923245" lon="10.7029849"><ele>98.5</ele><time>2026-04-19T15:03:37.977Z</time></trkpt><trkpt lat="44.5923505" lon="10.7030983"><ele>98.33333333333333</ele><time>2026-04-19T15:03:38.978Z</time></trkpt><trkpt lat="44.5923665" lon="10.7032013"><ele>98.16666666666666</ele><time>2026-04-19T15:03:39.978Z</time></trkpt><trkpt lat="44.5923695" lon="10.7032969"><ele>98.0</ele><time>2026-04-19T15:03:40.978Z</time></trkpt><trkpt lat="44.5923605" lon="10.703402"><ele>97.99999999999999</ele><time>2026-04-19T15:03:41.977Z</time></trkpt><trkpt lat="44.5923445" lon="10.7035183"><ele>98.0</ele><time>2026-04-19T15:03:42.977Z</time></trkpt><trkpt lat="44.5923339" lon="10.7036378"><ele>98.0</ele><time>2026-04-19T15:03:43.977Z</time></trkpt><trkpt lat="44.5923327" lon="10.7037594"><ele>98.0</ele><time>2026-04-19T15:03:44.978Z</time></trkpt><trkpt lat="44.5923496" lon="10.703874"><ele>97.99999999999999</ele><time>2026-04-19T15:03:45.977Z</time></trkpt><trkpt lat="44.5923868" lon="10.7039853"><ele>98.0</ele><time>2026-04-19T15:03:46.977Z</time></trkpt><trkpt lat="44.5924426" lon="10.7040789"><ele>97.60000000000001</ele><time>2026-04-19T15:03:47.978Z</time></trkpt><trkpt lat="44.592515" lon="10.7041628"><ele>97.2</ele><time>2026-04-19T15:03:48.978Z</time></trkpt><trkpt lat="44.5925972" lon="10.7042481"><ele>96.8</ele><time>2026-04-19T15:03:49.978Z</time></trkpt><trkpt lat="44.5926715" lon="10.7043514"><ele>96.4</ele><time>2026-04-19T15:03:50.978Z</time></trkpt><trkpt lat="44.5927284" lon="10.704475"><ele>96.0</ele><time>2026-04-19T15:03:51.977Z</time></trkpt><trkpt lat="44.5927817" lon="10.7046234"><ele>95.75</ele><time>2026-04-19T15:03:52.977Z</time></trkpt><trkpt lat="44.5928323" lon="10.70479"><ele>95.5</ele><time>2026-04-19T15:03:53.978Z</time></trkpt><trkpt lat="44.592887" lon="10.7049688"><ele>95.25</ele><time>2026-04-19T15:03:54.978Z</time></trkpt><trkpt lat="44.5929438" lon="10.7051522"><ele>95.0</ele><time>2026-04-19T15:03:55.978Z</time></trkpt><trkpt lat="44.5930021" lon="10.7053485"><ele>95.0</ele><time>2026-04-19T15:03:56.977Z</time></trkpt><trkpt lat="44.5930609" lon="10.7055507"><ele>95.0</ele><time>2026-04-19T15:03:57.977Z</time></trkpt><trkpt lat="44.593119" lon="10.7057559"><ele>95.0</ele><time>2026-04-19T15:03:58.977Z</time></trkpt><trkpt lat="44.5931719" lon="10.7059723"><ele>94.66666666666667</ele><time>2026-04-19T15:03:59.976Z</time></trkpt><trkpt lat="44.5932235" lon="10.7061986"><ele>94.33333333333333</ele><time>2026-04-19T15:04:00.978Z</time></trkpt><trkpt lat="44.5932705" lon="10.7064233"><ele>94.0</ele><time>2026-04-19T15:04:01.978Z</time></trkpt><trkpt lat="44.593308" lon="10.7066529"><ele>94.0</ele><time>2026-04-19T15:04:02.977Z</time></trkpt><trkpt lat="44.5933347" lon="10.7068832"><ele>94.0</ele><time>2026-04-19T15:04:03.977Z</time></trkpt><trkpt lat="44.5933552" lon="10.7071191"><ele>94.0</ele><time>2026-04-19T15:04:04.978Z</time></trkpt><trkpt lat="44.5933681" lon="10.707353"><ele>93.66666666666666</ele><time>2026-04-19T15:04:05.977Z</time></trkpt><trkpt lat="44.5933682" lon="10.7075782"><ele>93.33333333333333</ele><time>2026-04-19T15:04:06.977Z</time></trkpt><trkpt lat="44.5933569" lon="10.7078092"><ele>93.0</ele><time>2026-04-19T15:04:07.977Z</time></trkpt><trkpt lat="44.5933354" lon="10.7080423"><ele>93.0</ele><time>2026-04-19T15:04:08.978Z</time></trkpt><trkpt lat="44.5933081" lon="10.7082745"><ele>93.0</ele><time>2026-04-19T15:04:09.977Z</time></trkpt><trkpt lat="44.5932721" lon="10.7085001"><ele>93.0</ele><time>2026-04-19T15:04:10.977Z</time></trkpt><trkpt lat="44.5932282" lon="10.7087216"><ele>93.0</ele><time>2026-04-19T15:04:11.978Z</time></trkpt><trkpt lat="44.5931731" lon="10.7089335"><ele>93.0</ele><time>2026-04-19T15:04:12.978Z</time></trkpt><trkpt lat="44.5931113" lon="10.7091401"><ele>93.0</ele><time>2026-04-19T15:04:13.976Z</time></trkpt><trkpt lat="44.5930451" lon="10.7093489"><ele>93.0</ele><time>2026-04-19T15:04:14.978Z</time></trkpt><trkpt lat="44.5929742" lon="10.7095591"><ele>93.0</ele><time>2026-04-19T15:04:15.978Z</time></trkpt><trkpt lat="44.592902" lon="10.7097692"><ele>93.0</ele><time>2026-04-19T15:04:16.978Z</time></trkpt><trkpt lat="44.5928285" lon="10.7099828"><ele>93.33333333333333</ele><time>2026-04-19T15:04:17.977Z</time></trkpt><trkpt lat="44.5927579" lon="10.7101956"><ele>93.66666666666666</ele><time>2026-04-19T15:04:18.977Z</time></trkpt><trkpt lat="44.5926893" lon="10.7104119"><ele>94.0</ele><time>2026-04-19T15:04:19.978Z</time></trkpt><trkpt lat="44.5926165" lon="10.7106323"><ele>94.33333333333333</ele><time>2026-04-19T15:04:20.977Z</time></trkpt><trkpt lat="44.592541" lon="10.7108542"><ele>94.66666666666667</ele><time>2026-04-19T15:04:21.978Z</time></trkpt><trkpt lat="44.5924636" lon="10.7110804"><ele>95.0</ele><time>2026-04-19T15:04:22.978Z</time></trkpt><trkpt lat="44.5923889" lon="10.7113027"><ele>96.33333333333334</ele><time>2026-04-19T15:04:23.976Z</time></trkpt><trkpt lat="44.5923127" lon="10.71153"><ele>97.66666666666667</ele><time>2026-04-19T15:04:24.978Z</time></trkpt><trkpt lat="44.5922378" lon="10.7117579"><ele>99.0</ele><time>2026-04-19T15:04:25.977Z</time></trkpt><trkpt lat="44.5921642" lon="10.7119833"><ele>100.0</ele><time>2026-04-19T15:04:26.978Z</time></trkpt><trkpt lat="44.5920933" lon="10.7122026"><ele>101.0</ele><time>2026-04-19T15:04:27.978Z</time></trkpt><trkpt lat="44.5920234" lon="10.7124128"><ele>102.0</ele><time>2026-04-19T15:04:28.978Z</time></trkpt><trkpt lat="44.5919558" lon="10.7126172"><ele>104.66666666666666</ele><time>2026-04-19T15:04:29.977Z</time></trkpt><trkpt lat="44.5918888" lon="10.7128188"><ele>107.33333333333333</ele><time>2026-04-19T15:04:30.978Z</time></trkpt><trkpt lat="44.5918214" lon="10.7130207"><ele>110.0</ele><time>2026-04-19T15:04:31.977Z</time></trkpt><trkpt lat="44.5917534" lon="10.7132228"><ele>110.0</ele><time>2026-04-19T15:04:32.976Z</time></trkpt><trkpt lat="44.5916859" lon="10.7134281"><ele>110.0</ele><time>2026-04-19T15:04:33.977Z</time></trkpt><trkpt lat="44.5916195" lon="10.7136315"><ele>110.0</ele><time>2026-04-19T15:04:34.978Z</time></trkpt><trkpt lat="44.5915586" lon="10.7138225"><ele>108.75</ele><time>2026-04-19T15:04:35.976Z</time></trkpt><trkpt lat="44.5914995" lon="10.7140085"><ele>107.5</ele><time>2026-04-19T15:04:36.977Z</time></trkpt><trkpt lat="44.5914407" lon="10.7141899"><ele>106.25</ele><time>2026-04-19T15:04:37.977Z</time></trkpt><trkpt lat="44.5913807" lon="10.71437"><ele>105.0</ele><time>2026-04-19T15:04:38.977Z</time></trkpt><trkpt lat="44.5913137" lon="10.7145595"><ele>104.5</ele><time>2026-04-19T15:04:39.978Z</time></trkpt><trkpt lat="44.5912455" lon="10.714744"><ele>104.0</ele><time>2026-04-19T15:04:40.978Z</time></trkpt><trkpt lat="44.5911765" lon="10.7149258"><ele>103.5</ele><time>2026-04-19T15:04:41.977Z</time></trkpt><trkpt lat="44.5911034" lon="10.7151051"><ele>103.0</ele><time>2026-04-19T15:04:42.976Z</time></trkpt><trkpt lat="44.5910238" lon="10.7152865"><ele>106.0</ele><time>2026-04-19T15:04:43.978Z</time></trkpt><trkpt lat="44.5909397" lon="10.7154733"><ele>109.0</ele><time>2026-04-19T15:04:44.978Z</time></trkpt><trkpt lat="44.5908516" lon="10.7156638"><ele>112.0</ele><time>2026-04-19T15:04:45.977Z</time></trkpt><trkpt lat="44.5907607" lon="10.7158557"><ele>112.0</ele><time>2026-04-19T15:04:46.976Z</time></trkpt><trkpt lat="44.5906662" lon="10.7160479"><ele>112.0</ele><time>2026-04-19T15:04:47.978Z</time></trkpt><trkpt lat="44.5905686" lon="10.7162374"><ele>112.0</ele><time>2026-04-19T15:04:48.977Z</time></trkpt><trkpt lat="44.5904704" lon="10.7164273"><ele>111.66666666666667</ele><time>2026-04-19T15:04:49.978Z</time></trkpt><trkpt lat="44.5903721" lon="10.7166202"><ele>111.33333333333334</ele><time>2026-04-19T15:04:50.977Z</time></trkpt><trkpt lat="44.5902722" lon="10.7168178"><ele>111.0</ele><time>2026-04-19T15:04:51.978Z</time></trkpt><trkpt lat="44.5901699" lon="10.7170182"><ele>111.0</ele><time>2026-04-19T15:04:52.978Z</time></trkpt><trkpt lat="44.5900657" lon="10.7172236"><ele>111.0</ele><time>2026-04-19T15:04:53.977Z</time></trkpt><trkpt lat="44.589959" lon="10.7174352"><ele>111.0</ele><time>2026-04-19T15:04:54.978Z</time></trkpt><trkpt lat="44.5898485" lon="10.7176554"><ele>110.66666666666666</ele><time>2026-04-19T15:04:55.976Z</time></trkpt><trkpt lat="44.5897363" lon="10.7178786"><ele>110.33333333333333</ele><time>2026-04-19T15:04:56.976Z</time></trkpt><trkpt lat="44.5896241" lon="10.7181016"><ele>110.0</ele><time>2026-04-19T15:04:57.978Z</time></trkpt><trkpt lat="44.5895079" lon="10.7183312"><ele>110.66666666666666</ele><time>2026-04-19T15:04:58.978Z</time></trkpt><trkpt lat="44.5893887" lon="10.7185666"><ele>111.33333333333334</ele><time>2026-04-19T15:04:59.978Z</time></trkpt><trkpt lat="44.5892714" lon="10.7187993"><ele>112.0</ele><time>2026-04-19T15:05:00.978Z</time></trkpt><trkpt lat="44.5891566" lon="10.7190271"><ele>112.0</ele><time>2026-04-19T15:05:01.977Z</time></trkpt><trkpt lat="44.5890419" lon="10.7192545"><ele>112.0</ele><time>2026-04-19T15:05:02.977Z</time></trkpt><trkpt lat="44.5889298" lon="10.719477"><ele>112.0</ele><time>2026-04-19T15:05:03.976Z</time></trkpt><trkpt lat="44.5888178" lon="10.7196989"><ele>111.0</ele><time>2026-04-19T15:05:04.977Z</time></trkpt><trkpt lat="44.5887063" lon="10.7199199"><ele>110.0</ele><time>2026-04-19T15:05:05.978Z</time></trkpt><trkpt lat="44.5885942" lon="10.7201409"><ele>109.0</ele><time>2026-04-19T15:05:06.977Z</time></trkpt><trkpt lat="44.588481" lon="10.720363"><ele>109.0</ele><time>2026-04-19T15:05:07.978Z</time></trkpt><trkpt lat="44.5883669" lon="10.7205859"><ele>109.0</ele><time>2026-04-19T15:05:08.978Z</time></trkpt><trkpt lat="44.5882516" lon="10.7208134"><ele>109.0</ele><time>2026-04-19T15:05:09.977Z</time></trkpt><trkpt lat="44.5881343" lon="10.7210448"><ele>110.0</ele><time>2026-04-19T15:05:10.978Z</time></trkpt><trkpt lat="44.5880152" lon="10.7212803"><ele>111.0</ele><time>2026-04-19T15:05:11.977Z</time></trkpt><trkpt lat="44.5878974" lon="10.7215148"><ele>112.0</ele><time>2026-04-19T15:05:12.978Z</time></trkpt><trkpt lat="44.5877815" lon="10.7217456"><ele>113.0</ele><time>2026-04-19T15:05:13.977Z</time></trkpt><trkpt lat="44.5876656" lon="10.7219779"><ele>114.0</ele><time>2026-04-19T15:05:14.978Z</time></trkpt><trkpt lat="44.587553" lon="10.7222046"><ele>115.0</ele><time>2026-04-19T15:05:15.978Z</time></trkpt><trkpt lat="44.5874429" lon="10.722424"><ele>115.0</ele><time>2026-04-19T15:05:16.977Z</time></trkpt><trkpt lat="44.5873331" lon="10.7226388"><ele>115.0</ele><time>2026-04-19T15:05:17.977Z</time></trkpt><trkpt lat="44.587224" lon="10.7228512"><ele>115.0</ele><time>2026-04-19T15:05:18.976Z</time></trkpt><trkpt lat="44.5871175" lon="10.7230596"><ele>114.0</ele><time>2026-04-19T15:05:19.978Z</time></trkpt><trkpt lat="44.5870138" lon="10.7232644"><ele>113.0</ele><time>2026-04-19T15:05:20.978Z</time></trkpt><trkpt lat="44.5869109" lon="10.7234673"><ele>112.0</ele><time>2026-04-19T15:05:21.977Z</time></trkpt><trkpt lat="44.5868101" lon="10.7236677"><ele>111.33333333333334</ele><time>2026-04-19T15:05:22.977Z</time></trkpt><trkpt lat="44.5867086" lon="10.7238696"><ele>110.66666666666666</ele><time>2026-04-19T15:05:23.978Z</time></trkpt><trkpt lat="44.5866047" lon="10.7240748"><ele>110.0</ele><time>2026-04-19T15:05:24.977Z</time></trkpt><trkpt lat="44.5864996" lon="10.7242811"><ele>110.0</ele><time>2026-04-19T15:05:25.978Z</time></trkpt><trkpt lat="44.5863963" lon="10.7244863"><ele>110.0</ele><time>2026-04-19T15:05:26.978Z</time></trkpt><trkpt lat="44.5862929" lon="10.7246912"><ele>110.0</ele><time>2026-04-19T15:05:27.977Z</time></trkpt><trkpt lat="44.5861897" lon="10.7248954"><ele>110.33333333333333</ele><time>2026-04-19T15:05:28.978Z</time></trkpt><trkpt lat="44.5860865" lon="10.725099"><ele>110.66666666666666</ele><time>2026-04-19T15:05:29.978Z</time></trkpt><trkpt lat="44.5859818" lon="10.7253033"><ele>111.0</ele><time>2026-04-19T15:05:30.978Z</time></trkpt><trkpt lat="44.5858776" lon="10.7255091"><ele>111.0</ele><time>2026-04-19T15:05:31.978Z</time></trkpt><trkpt lat="44.5857729" lon="10.725715"><ele>111.0</ele><time>2026-04-19T15:05:32.977Z</time></trkpt><trkpt lat="44.585666" lon="10.7259234"><ele>111.0</ele><time>2026-04-19T15:05:33.978Z</time></trkpt><trkpt lat="44.5855627" lon="10.7261266"><ele>110.33333333333334</ele><time>2026-04-19T15:05:34.978Z</time></trkpt><trkpt lat="44.5854599" lon="10.7263309"><ele>109.66666666666667</ele><time>2026-04-19T15:05:35.977Z</time></trkpt><trkpt lat="44.5853562" lon="10.7265348"><ele>109.0</ele><time>2026-04-19T15:05:36.977Z</time></trkpt><trkpt lat="44.5852528" lon="10.726739"><ele>108.33333333333334</ele><time>2026-04-19T15:05:37.977Z</time></trkpt><trkpt lat="44.5851485" lon="10.7269446"><ele>107.66666666666666</ele><time>2026-04-19T15:05:38.977Z</time></trkpt><trkpt lat="44.5850414" lon="10.7271554"><ele>107.0</ele><time>2026-04-19T15:05:39.978Z</time></trkpt><trkpt lat="44.5849326" lon="10.7273718"><ele>107.0</ele><time>2026-04-19T15:05:40.977Z</time></trkpt><trkpt lat="44.5848215" lon="10.7275924"><ele>107.0</ele><time>2026-04-19T15:05:41.978Z</time></trkpt><trkpt lat="44.584709" lon="10.7278154"><ele>107.0</ele><time>2026-04-19T15:05:42.977Z</time></trkpt><trkpt lat="44.5846009" lon="10.7280302"><ele>107.0</ele><time>2026-04-19T15:05:43.978Z</time></trkpt><trkpt lat="44.5844975" lon="10.7282335"><ele>107.0</ele><time>2026-04-19T15:05:44.978Z</time></trkpt><trkpt lat="44.5843929" lon="10.728438"><ele>107.0</ele><time>2026-04-19T15:05:45.978Z</time></trkpt><trkpt lat="44.5842887" lon="10.7286421"><ele>108.0</ele><time>2026-04-19T15:05:46.978Z</time></trkpt><trkpt lat="44.5841871" lon="10.7288444"><ele>109.0</ele><time>2026-04-19T15:05:47.978Z</time></trkpt><trkpt lat="44.5840885" lon="10.7290411"><ele>110.0</ele><time>2026-04-19T15:05:48.977Z</time></trkpt><trkpt lat="44.5839926" lon="10.7292331"><ele>111.0</ele><time>2026-04-19T15:05:49.977Z</time></trkpt><trkpt lat="44.5838957" lon="10.7294272"><ele>112.0</ele><time>2026-04-19T15:05:50.977Z</time></trkpt><trkpt lat="44.5837966" lon="10.7296227"><ele>113.0</ele><time>2026-04-19T15:05:51.977Z</time></trkpt><trkpt lat="44.5836958" lon="10.7298209"><ele>113.0</ele><time>2026-04-19T15:05:52.977Z</time></trkpt><trkpt lat="44.5835951" lon="10.7300253"><ele>113.0</ele><time>2026-04-19T15:05:53.977Z</time></trkpt><trkpt lat="44.5834979" lon="10.7302362"><ele>113.0</ele><time>2026-04-19T15:05:54.977Z</time></trkpt><trkpt lat="44.5834024" lon="10.7304423"><ele>114.0</ele><time>2026-04-19T15:05:55.977Z</time></trkpt><trkpt lat="44.5833058" lon="10.7306536"><ele>115.0</ele><time>2026-04-19T15:05:56.977Z</time></trkpt><trkpt lat="44.5832286" lon="10.7308733"><ele>116.0</ele><time>2026-04-19T15:05:57.978Z</time></trkpt><trkpt lat="44.5831376" lon="10.7310854"><ele>117.0</ele><time>2026-04-19T15:05:58.977Z</time></trkpt><trkpt lat="44.583049" lon="10.731296"><ele>118.0</ele><time>2026-04-19T15:05:59.978Z</time></trkpt><trkpt lat="44.5829605" lon="10.7315078"><ele>119.0</ele><time>2026-04-19T15:06:00.978Z</time></trkpt><trkpt lat="44.5828721" lon="10.7317194"><ele>119.5</ele><time>2026-04-19T15:06:01.977Z</time></trkpt><trkpt lat="44.5827964" lon="10.7320637"><ele>120.0</ele><time>2026-04-19T15:06:02.977Z</time></trkpt><trkpt lat="44.5827119" lon="10.7323152"><ele>120.0</ele><time>2026-04-19T15:06:03.978Z</time></trkpt><trkpt lat="44.5826322" lon="10.7325475"><ele>120.0</ele><time>2026-04-19T15:06:04.978Z</time></trkpt><trkpt lat="44.5826328" lon="10.7328599"><ele>120.0</ele><time>2026-04-19T15:06:05.976Z</time></trkpt><trkpt lat="44.5825245" lon="10.7330905"><ele>119.5</ele><time>2026-04-19T15:06:06.978Z</time></trkpt><trkpt lat="44.582443" lon="10.7331828"><ele>119.0</ele><time>2026-04-19T15:06:07.978Z</time></trkpt><trkpt lat="44.5823606" lon="10.733396"><ele>118.5</ele><time>2026-04-19T15:06:08.977Z</time></trkpt><trkpt lat="44.5822747" lon="10.7335161"><ele>118.0</ele><time>2026-04-19T15:06:09.978Z</time></trkpt><trkpt lat="44.5821813" lon="10.7335649"><ele>118.0</ele><time>2026-04-19T15:06:10.978Z</time></trkpt><trkpt lat="44.5821033" lon="10.7337258"><ele>118.0</ele><time>2026-04-19T15:06:11.978Z</time></trkpt><trkpt lat="44.5825191" lon="10.7341304"><ele>116.5</ele><time>2026-04-19T15:06:12.978Z</time></trkpt><trkpt lat="44.5823839" lon="10.7345667"><ele>115.0</ele><time>2026-04-19T15:06:13.977Z</time></trkpt><trkpt lat="44.5825581" lon="10.7356911"><ele>114.5</ele><time>2026-04-19T15:06:14.977Z</time></trkpt><trkpt lat="44.5824694" lon="10.7361822"><ele>114.0</ele><time>2026-04-19T15:06:15.976Z</time></trkpt><trkpt lat="44.5825989" lon="10.7354554"><ele>114.0</ele><time>2026-04-19T15:06:16.978Z</time></trkpt><trkpt lat="44.5825372" lon="10.7361453"><ele>114.0</ele><time>2026-04-19T15:06:19.977Z</time></trkpt><trkpt lat="44.5825135" lon="10.7364044"><ele>114.0</ele><time>2026-04-19T15:06:20.977Z</time></trkpt><trkpt lat="44.5824827" lon="10.7366727"><ele>114.0</ele><time>2026-04-19T15:06:21.978Z</time></trkpt><trkpt lat="44.5824434" lon="10.7369513"><ele>113.0</ele><time>2026-04-19T15:06:22.978Z</time></trkpt><trkpt lat="44.5823985" lon="10.737234"><ele>112.0</ele><time>2026-04-19T15:06:23.978Z</time></trkpt><trkpt lat="44.5823488" lon="10.7375101"><ele>111.0</ele><time>2026-04-19T15:06:24.978Z</time></trkpt><trkpt lat="44.5822897" lon="10.7377824"><ele>110.33333333333334</ele><time>2026-04-19T15:06:25.978Z</time></trkpt><trkpt lat="44.5822251" lon="10.7380442"><ele>109.66666666666667</ele><time>2026-04-19T15:06:26.978Z</time></trkpt><trkpt lat="44.582158" lon="10.7382981"><ele>109.0</ele><time>2026-04-19T15:06:27.978Z</time></trkpt><trkpt lat="44.5820892" lon="10.7385407"><ele>109.33333333333334</ele><time>2026-04-19T15:06:28.977Z</time></trkpt><trkpt lat="44.5820133" lon="10.7387809"><ele>109.66666666666666</ele><time>2026-04-19T15:06:29.978Z</time></trkpt><trkpt lat="44.5819358" lon="10.739013"><ele>110.0</ele><time>2026-04-19T15:06:30.977Z</time></trkpt><trkpt lat="44.5818539" lon="10.7392352"><ele>110.0</ele><time>2026-04-19T15:06:31.977Z</time></trkpt><trkpt lat="44.5817659" lon="10.7394539"><ele>110.0</ele><time>2026-04-19T15:06:32.978Z</time></trkpt><trkpt lat="44.581674" lon="10.7396646"><ele>110.0</ele><time>2026-04-19T15:06:33.977Z</time></trkpt><trkpt lat="44.5815847" lon="10.7398612"><ele>110.0</ele><time>2026-04-19T15:06:34.977Z</time></trkpt><trkpt lat="44.5814974" lon="10.7400444"><ele>110.0</ele><time>2026-04-19T15:06:35.977Z</time></trkpt><trkpt lat="44.58141" lon="10.7402149"><ele>110.0</ele><time>2026-04-19T15:06:36.978Z</time></trkpt><trkpt lat="44.5813205" lon="10.740381"><ele>110.33333333333333</ele><time>2026-04-19T15:06:37.977Z</time></trkpt><trkpt lat="44.5812263" lon="10.740546"><ele>110.66666666666666</ele><time>2026-04-19T15:06:38.978Z</time></trkpt><trkpt lat="44.5811273" lon="10.7407079"><ele>111.0</ele><time>2026-04-19T15:06:39.977Z</time></trkpt><trkpt lat="44.5810247" lon="10.7408669"><ele>111.25</ele><time>2026-04-19T15:06:40.977Z</time></trkpt><trkpt lat="44.5809249" lon="10.7410168"><ele>111.5</ele><time>2026-04-19T15:06:41.977Z</time></trkpt><trkpt lat="44.5808306" lon="10.7411566"><ele>111.75</ele><time>2026-04-19T15:06:42.978Z</time></trkpt><trkpt lat="44.5807399" lon="10.7412856"><ele>112.0</ele><time>2026-04-19T15:06:43.977Z</time></trkpt><trkpt lat="44.5806591" lon="10.7413951"><ele>112.00000000000001</ele><time>2026-04-19T15:06:44.978Z</time></trkpt><trkpt lat="44.5805851" lon="10.7414899"><ele>112.0</ele><time>2026-04-19T15:06:45.978Z</time></trkpt><trkpt lat="44.5805154" lon="10.7415754"><ele>112.0</ele><time>2026-04-19T15:06:46.977Z</time></trkpt><trkpt lat="44.5804544" lon="10.7416458"><ele>112.0</ele><time>2026-04-19T15:06:47.978Z</time></trkpt><trkpt lat="44.5803936" lon="10.7417115"><ele>112.00000000000001</ele><time>2026-04-19T15:06:48.977Z</time></trkpt><trkpt lat="44.580336" lon="10.7417663"><ele>112.0</ele><time>2026-04-19T15:06:49.978Z</time></trkpt><trkpt lat="44.580279" lon="10.741808"><ele>112.33333333333334</ele><time>2026-04-19T15:06:50.978Z</time></trkpt><trkpt lat="44.5802176" lon="10.7418339"><ele>112.66666666666667</ele><time>2026-04-19T15:06:51.977Z</time></trkpt><trkpt lat="44.5800903" lon="10.7418204"><ele>113.0</ele><time>2026-04-19T15:06:53.978Z</time></trkpt><trkpt lat="44.5800179" lon="10.7417878"><ele>113.33333333333334</ele><time>2026-04-19T15:06:54.977Z</time></trkpt><trkpt lat="44.5799384" lon="10.7417521"><ele>113.66666666666667</ele><time>2026-04-19T15:06:55.977Z</time></trkpt><trkpt lat="44.5798602" lon="10.7417396"><ele>114.0</ele><time>2026-04-19T15:06:56.977Z</time></trkpt><trkpt lat="44.5797829" lon="10.7417368"><ele>114.0</ele><time>2026-04-19T15:06:57.978Z</time></trkpt><trkpt lat="44.5797106" lon="10.7417542"><ele>113.99999999999999</ele><time>2026-04-19T15:06:58.977Z</time></trkpt><trkpt lat="44.579643" lon="10.7417898"><ele>114.0</ele><time>2026-04-19T15:06:59.978Z</time></trkpt><trkpt lat="44.5795824" lon="10.7418559"><ele>114.0</ele><time>2026-04-19T15:07:00.978Z</time></trkpt><trkpt lat="44.5795366" lon="10.741939"><ele>113.99999999999999</ele><time>2026-04-19T15:07:01.978Z</time></trkpt><trkpt lat="44.5795082" lon="10.7420322"><ele>114.0</ele><time>2026-04-19T15:07:02.977Z</time></trkpt><trkpt lat="44.5794923" lon="10.742136"><ele>114.0</ele><time>2026-04-19T15:07:03.977Z</time></trkpt><trkpt lat="44.5794875" lon="10.7422514"><ele>114.0</ele><time>2026-04-19T15:07:04.977Z</time></trkpt><trkpt lat="44.5794844" lon="10.7423611"><ele>114.0</ele><time>2026-04-19T15:07:05.978Z</time></trkpt><trkpt lat="44.5794676" lon="10.7424806"><ele>114.0</ele><time>2026-04-19T15:07:06.977Z</time></trkpt><trkpt lat="44.57943" lon="10.7426009"><ele>114.0</ele><time>2026-04-19T15:07:07.977Z</time></trkpt><trkpt lat="44.5793698" lon="10.7427254"><ele>114.0</ele><time>2026-04-19T15:07:08.977Z</time></trkpt><trkpt lat="44.5792948" lon="10.7428404"><ele>113.75</ele><time>2026-04-19T15:07:09.977Z</time></trkpt><trkpt lat="44.579209" lon="10.7429531"><ele>113.5</ele><time>2026-04-19T15:07:10.977Z</time></trkpt><trkpt lat="44.5791053" lon="10.7430717"><ele>113.25</ele><time>2026-04-19T15:07:11.978Z</time></trkpt><trkpt lat="44.5789943" lon="10.7431954"><ele>113.0</ele><time>2026-04-19T15:07:12.977Z</time></trkpt><trkpt lat="44.578877" lon="10.7433249"><ele>113.0</ele><time>2026-04-19T15:07:13.977Z</time></trkpt><trkpt lat="44.5787612" lon="10.7434483"><ele>113.0</ele><time>2026-04-19T15:07:14.977Z</time></trkpt><trkpt lat="44.5786473" lon="10.7435664"><ele>113.0</ele><time>2026-04-19T15:07:15.978Z</time></trkpt><trkpt lat="44.5785369" lon="10.7436673"><ele>113.0</ele><time>2026-04-19T15:07:16.978Z</time></trkpt><trkpt lat="44.5784341" lon="10.743761"><ele>112.49999999999999</ele><time>2026-04-19T15:07:17.977Z</time></trkpt><trkpt lat="44.5783456" lon="10.7438331"><ele>112.0</ele><time>2026-04-19T15:07:18.978Z</time></trkpt><trkpt lat="44.5782661" lon="10.7438815"><ele>111.5</ele><time>2026-04-19T15:07:19.977Z</time></trkpt><trkpt lat="44.5781906" lon="10.7439042"><ele>111.0</ele><time>2026-04-19T15:07:20.978Z</time></trkpt><trkpt lat="44.5781215" lon="10.7439078"><ele>110.49999999999999</ele><time>2026-04-19T15:07:21.978Z</time></trkpt><trkpt lat="44.578018" lon="10.7439287"><ele>110.0</ele><time>2026-04-19T15:07:23.977Z</time></trkpt><trkpt lat="44.5779491" lon="10.7439523"><ele>110.0</ele><time>2026-04-19T15:07:25.977Z</time></trkpt><trkpt lat="44.5778846" lon="10.7439685"><ele>110.0</ele><time>2026-04-19T15:07:39.976Z</time></trkpt><trkpt lat="44.5779485" lon="10.7440016"><ele>110.0</ele><time>2026-04-19T15:07:47.977Z</time></trkpt><trkpt lat="44.5779608" lon="10.7438991"><ele>110.0</ele><time>2026-04-19T15:07:51.977Z</time></trkpt></trkseg></trk></gpx>